<?xml version='1.0' encoding='UTF-8'?><gpx version="1.1" creator="JPX - https://github.com/jenetics/jpx" xmlns="http://www.topografix.com/GPX/1/1"><trk><trkseg><trkpt lat="42.05823598976576" lon="13.103118260280372"><ele>799.0</ele><time>2026-04-12T08:57:04Z</time></trkpt><trkpt lat="42.058215157400085" lon="13.103248855953563"><ele>801.0</ele><time>2026-04-12T08:57:07Z</time></trkpt><trkpt lat="42.058211005696265" lon="13.103336200914764"><ele>803.0</ele><time>2026-04-12T08:57:08Z</time></trkpt><trkpt lat="42.05817772437785" lon="13.103468684250407"><ele>805.0</ele><time>2026-04-12T08:57:10Z</time></trkpt><trkpt lat="42.0581534235828" lon="13.103594286421885"><ele>807.0</ele><time>2026-04-12T08:57:12Z</time></trkpt><trkpt lat="42.058170250213536" lon="13.103733623367368"><ele>807.0</ele><time>2026-04-12T08:57:14Z</time></trkpt><trkpt lat="42.058159524388856" lon="13.103853895839759"><ele>807.0</ele><time>2026-04-12T08:57:15Z</time></trkpt><trkpt lat="42.05806981083672" lon="13.103923335079111"><ele>807.0</ele><time>2026-04-12T08:57:16Z</time></trkpt><trkpt lat="42.05800919313079" lon="13.104000584773845"><ele>807.0</ele><time>2026-04-12T08:57:17Z</time></trkpt><trkpt lat="42.05794003462868" lon="13.104091015516213"><ele>807.0</ele><time>2026-04-12T08:57:17.999Z</time></trkpt><trkpt lat="42.05786896824721" lon="13.104181278359993"><ele>810.6</ele><time>2026-04-12T08:57:18.999Z</time></trkpt><trkpt lat="42.05779647332474" lon="13.104272241576645"><ele>814.2</ele><time>2026-04-12T08:57:19.999Z</time></trkpt><trkpt lat="42.05772155827961" lon="13.104368568522526"><ele>817.8</ele><time>2026-04-12T08:57:20.999Z</time></trkpt><trkpt lat="42.057646332974265" lon="13.104468241489013"><ele>821.4</ele><time>2026-04-12T08:57:21.999Z</time></trkpt><trkpt lat="42.05756908444896" lon="13.10457394683599"><ele>825.0</ele><time>2026-04-12T08:57:22.999Z</time></trkpt><trkpt lat="42.057502461913586" lon="13.104656177720207"><ele>823.2</ele><time>2026-04-12T08:57:23.999Z</time></trkpt><trkpt lat="42.05743096598807" lon="13.104730986183963"><ele>821.4</ele><time>2026-04-12T08:57:24.999Z</time></trkpt><trkpt lat="42.057352211678655" lon="13.10480107179563"><ele>819.5999999999999</ele><time>2026-04-12T08:57:25.999Z</time></trkpt><trkpt lat="42.057286134116275" lon="13.104886562445015"><ele>817.8</ele><time>2026-04-12T08:57:26.999Z</time></trkpt><trkpt lat="42.05720855578682" lon="13.104945318191639"><ele>816.0</ele><time>2026-04-12T08:57:27.999Z</time></trkpt><trkpt lat="42.057126616419765" lon="13.105004346432683"><ele>816.0</ele><time>2026-04-12T08:57:28.999Z</time></trkpt><trkpt lat="42.05705220708229" lon="13.105074862347992"><ele>816.0</ele><time>2026-04-12T08:57:29.999Z</time></trkpt><trkpt lat="42.05699574240766" lon="13.105178615173536"><ele>816.0</ele><time>2026-04-12T08:57:30.999Z</time></trkpt><trkpt lat="42.05693145052077" lon="13.105275303486305"><ele>816.0</ele><time>2026-04-12T08:57:31.999Z</time></trkpt><trkpt lat="42.056886267031146" lon="13.105407304644428"><ele>816.0</ele><time>2026-04-12T08:57:32.999Z</time></trkpt><trkpt lat="42.056851209514136" lon="13.105521438623514"><ele>816.0</ele><time>2026-04-12T08:57:33.999Z</time></trkpt><trkpt lat="42.05681560636108" lon="13.105605852292333"><ele>816.0</ele><time>2026-04-12T08:57:34.999Z</time></trkpt><trkpt lat="42.056784492111454" lon="13.10570102869849"><ele>816.0</ele><time>2026-04-12T08:57:35.999Z</time></trkpt><trkpt lat="42.05675287724107" lon="13.105808316367527"><ele>816.0</ele><time>2026-04-12T08:57:36.999Z</time></trkpt><trkpt lat="42.056725914867066" lon="13.10589056023743"><ele>816.0</ele><time>2026-04-12T08:57:37.999Z</time></trkpt><trkpt lat="42.056682669813384" lon="13.106012590294624"><ele>816.0</ele><time>2026-04-12T08:57:38.999Z</time></trkpt><trkpt lat="42.05665128606233" lon="13.10611886508431"><ele>814.8333333333334</ele><time>2026-04-12T08:57:39.999Z</time></trkpt><trkpt lat="42.05663246060195" lon="13.106202796206105"><ele>813.6666666666667</ele><time>2026-04-12T08:57:40.999Z</time></trkpt><trkpt lat="42.05660999113559" lon="13.106300739666107"><ele>812.5</ele><time>2026-04-12T08:57:41.999Z</time></trkpt><trkpt lat="42.056580808218804" lon="13.106397618919807"><ele>811.3333333333334</ele><time>2026-04-12T08:57:42.999Z</time></trkpt><trkpt lat="42.056561802050766" lon="13.106491219852156"><ele>810.1666666666667</ele><time>2026-04-12T08:57:43.999Z</time></trkpt><trkpt lat="42.05654036084672" lon="13.106664801909636"><ele>809.0</ele><time>2026-04-12T08:57:45.999Z</time></trkpt><trkpt lat="42.05653863565133" lon="13.106763850277847"><ele>811.6666666666667</ele><time>2026-04-12T08:57:46.999Z</time></trkpt><trkpt lat="42.056511531250734" lon="13.10686596330507"><ele>814.3333333333334</ele><time>2026-04-12T08:57:47.999Z</time></trkpt><trkpt lat="42.056484774075386" lon="13.106975213979716"><ele>817.0</ele><time>2026-04-12T08:57:48.999Z</time></trkpt><trkpt lat="42.05644134383434" lon="13.10707951021532"><ele>819.6666666666667</ele><time>2026-04-12T08:57:49.999Z</time></trkpt><trkpt lat="42.05640067013511" lon="13.107159135157644"><ele>822.3333333333334</ele><time>2026-04-12T08:57:50.998Z</time></trkpt><trkpt lat="42.05635539839832" lon="13.107246474546127"><ele>825.0</ele><time>2026-04-12T08:57:51.998Z</time></trkpt><trkpt lat="42.05630951005282" lon="13.107334053060143"><ele>827.8</ele><time>2026-04-12T08:57:52.998Z</time></trkpt><trkpt lat="42.056263908681885" lon="13.107432454449674"><ele>830.6</ele><time>2026-04-12T08:57:53.998Z</time></trkpt><trkpt lat="42.056236836965695" lon="13.10755481855807"><ele>833.4000000000001</ele><time>2026-04-12T08:57:54.998Z</time></trkpt><trkpt lat="42.05620022813131" lon="13.107679242658477"><ele>836.2</ele><time>2026-04-12T08:57:55.998Z</time></trkpt><trkpt lat="42.05619606018717" lon="13.107835293768861"><ele>839.0</ele><time>2026-04-12T08:57:56.998Z</time></trkpt><trkpt lat="42.05620274353576" lon="13.107963092087216"><ele>839.0000000000001</ele><time>2026-04-12T08:57:57.998Z</time></trkpt><trkpt lat="42.0562060438543" lon="13.108059559984708"><ele>839.0</ele><time>2026-04-12T08:57:58.998Z</time></trkpt><trkpt lat="42.056217218443734" lon="13.10815374443884"><ele>839.0</ele><time>2026-04-12T08:57:59.998Z</time></trkpt><trkpt lat="42.056228823178884" lon="13.108249583193643"><ele>839.0</ele><time>2026-04-12T08:58:00.998Z</time></trkpt><trkpt lat="42.056222481165584" lon="13.108346355055891"><ele>839.0000000000001</ele><time>2026-04-12T08:58:01.998Z</time></trkpt><trkpt lat="42.056173196991416" lon="13.108439173386055"><ele>839.0</ele><time>2026-04-12T08:58:02.998Z</time></trkpt><trkpt lat="42.05607817047265" lon="13.108465480960858"><ele>842.1666666666667</ele><time>2026-04-12T08:58:03.998Z</time></trkpt><trkpt lat="42.05598890540441" lon="13.108438991945185"><ele>845.3333333333334</ele><time>2026-04-12T08:58:04.998Z</time></trkpt><trkpt lat="42.05589936162961" lon="13.10849038075291"><ele>848.5</ele><time>2026-04-12T08:58:05.998Z</time></trkpt><trkpt lat="42.05580762739468" lon="13.108516098306872"><ele>851.6666666666667</ele><time>2026-04-12T08:58:06.998Z</time></trkpt><trkpt lat="42.05574719134479" lon="13.108583965265682"><ele>854.8333333333334</ele><time>2026-04-12T08:58:07.998Z</time></trkpt><trkpt lat="42.055688065603654" lon="13.108662336544633"><ele>858.0</ele><time>2026-04-12T08:58:08.998Z</time></trkpt><trkpt lat="42.05565070701124" lon="13.108765618775868"><ele>858.8</ele><time>2026-04-12T08:58:09.998Z</time></trkpt><trkpt lat="42.0556098072607" lon="13.108873875420432"><ele>859.5999999999999</ele><time>2026-04-12T08:58:10.998Z</time></trkpt><trkpt lat="42.05557632648192" lon="13.108947643247603"><ele>860.4000000000001</ele><time>2026-04-12T08:58:11.998Z</time></trkpt><trkpt lat="42.05552081543988" lon="13.109105912265436"><ele>861.2</ele><time>2026-04-12T08:58:13.998Z</time></trkpt><trkpt lat="42.05545186394392" lon="13.109200126242689"><ele>862.0</ele><time>2026-04-12T08:58:15.998Z</time></trkpt><trkpt lat="42.055419513043034" lon="13.109354619984545"><ele>862.8</ele><time>2026-04-12T08:58:17.998Z</time></trkpt><trkpt lat="42.055467501436475" lon="13.109426961388879"><ele>863.6</ele><time>2026-04-12T08:58:18.998Z</time></trkpt><trkpt lat="42.05555387401585" lon="13.109418164732116"><ele>864.3999999999999</ele><time>2026-04-12T08:58:19.998Z</time></trkpt><trkpt lat="42.05564043365775" lon="13.109362319765973"><ele>865.1999999999999</ele><time>2026-04-12T08:58:20.998Z</time></trkpt><trkpt lat="42.055701841982234" lon="13.109232983576698"><ele>866.0</ele><time>2026-04-12T08:58:21.998Z</time></trkpt><trkpt lat="42.05576391003446" lon="13.109121424807233"><ele>867.0000000000001</ele><time>2026-04-12T08:58:22.998Z</time></trkpt><trkpt lat="42.05581715461755" lon="13.10903729945487"><ele>868.0</ele><time>2026-04-12T08:58:23.998Z</time></trkpt><trkpt lat="42.055880090797295" lon="13.10896801744166"><ele>869.0</ele><time>2026-04-12T08:58:24.998Z</time></trkpt><trkpt lat="42.055956839135526" lon="13.108915236819081"><ele>870.0</ele><time>2026-04-12T08:58:25.998Z</time></trkpt><trkpt lat="42.05603197944997" lon="13.10893634944688"><ele>871.0000000000001</ele><time>2026-04-12T08:58:26.998Z</time></trkpt><trkpt lat="42.056097365257266" lon="13.10901787119591"><ele>872.0</ele><time>2026-04-12T08:58:27.998Z</time></trkpt><trkpt lat="42.056189278382945" lon="13.109108227143782"><ele>872.0</ele><time>2026-04-12T08:58:28.998Z</time></trkpt><trkpt lat="42.056268142438014" lon="13.109171093818647"><ele>872.0</ele><time>2026-04-12T08:58:29.998Z</time></trkpt><trkpt lat="42.05633360730186" lon="13.10922734825596"><ele>872.0</ele><time>2026-04-12T08:58:30.998Z</time></trkpt><trkpt lat="42.05645120892696" lon="13.109330308166637"><ele>872.0</ele><time>2026-04-12T08:58:32.998Z</time></trkpt><trkpt lat="42.05653547745288" lon="13.109341770101805"><ele>872.0</ele><time>2026-04-12T08:58:33.998Z</time></trkpt><trkpt lat="42.05661491037506" lon="13.109348126340217"><ele>871.4000000000001</ele><time>2026-04-12T08:58:34.998Z</time></trkpt><trkpt lat="42.05670313101533" lon="13.109314623612514"><ele>870.8000000000001</ele><time>2026-04-12T08:58:35.998Z</time></trkpt><trkpt lat="42.05678331176901" lon="13.109254848081742"><ele>870.2</ele><time>2026-04-12T08:58:36.997Z</time></trkpt><trkpt lat="42.056875142560976" lon="13.109204794207647"><ele>869.6</ele><time>2026-04-12T08:58:37.997Z</time></trkpt><trkpt lat="42.05696234349341" lon="13.109147331694965"><ele>869.0</ele><time>2026-04-12T08:58:38.997Z</time></trkpt><trkpt lat="42.05704255937337" lon="13.109064275900728"><ele>869.0</ele><time>2026-04-12T08:58:39.997Z</time></trkpt><trkpt lat="42.05710558930477" lon="13.108939422405484"><ele>869.0</ele><time>2026-04-12T08:58:40.997Z</time></trkpt><trkpt lat="42.057146904075" lon="13.10879841306147"><ele>869.0</ele><time>2026-04-12T08:58:41.997Z</time></trkpt><trkpt lat="42.05721840966763" lon="13.108671705048696"><ele>869.0</ele><time>2026-04-12T08:58:42.997Z</time></trkpt><trkpt lat="42.05727623056773" lon="13.108532944749639"><ele>869.0</ele><time>2026-04-12T08:58:43.997Z</time></trkpt><trkpt lat="42.05734263407419" lon="13.10840802823735"><ele>869.0000000000001</ele><time>2026-04-12T08:58:44.997Z</time></trkpt><trkpt lat="42.057397389539915" lon="13.108314067085582"><ele>869.0000000000001</ele><time>2026-04-12T08:58:45.997Z</time></trkpt><trkpt lat="42.057452266518375" lon="13.10821620965144"><ele>869.0</ele><time>2026-04-12T08:58:46.997Z</time></trkpt><trkpt lat="42.05750042541467" lon="13.108122470566343"><ele>869.0</ele><time>2026-04-12T08:58:47.997Z</time></trkpt><trkpt lat="42.057548632690114" lon="13.108025273253807"><ele>871.6666666666667</ele><time>2026-04-12T08:58:48.997Z</time></trkpt><trkpt lat="42.05759819881513" lon="13.107932177461976"><ele>874.3333333333334</ele><time>2026-04-12T08:58:49.997Z</time></trkpt><trkpt lat="42.05765748729213" lon="13.107844472028846"><ele>877.0</ele><time>2026-04-12T08:58:50.997Z</time></trkpt><trkpt lat="42.057709085622584" lon="13.107764787336269"><ele>879.6666666666667</ele><time>2026-04-12T08:58:51.997Z</time></trkpt><trkpt lat="42.05776602034662" lon="13.107673432395494"><ele>882.3333333333334</ele><time>2026-04-12T08:58:52.997Z</time></trkpt><trkpt lat="42.05780475817814" lon="13.107597662075724"><ele>885.0</ele><time>2026-04-12T08:58:53.997Z</time></trkpt><trkpt lat="42.05787860017359" lon="13.107462215367617"><ele>884.0</ele><time>2026-04-12T08:58:55.997Z</time></trkpt><trkpt lat="42.05791417522468" lon="13.107386160555585"><ele>883.0</ele><time>2026-04-12T08:58:56.997Z</time></trkpt><trkpt lat="42.05799374286206" lon="13.107339017222598"><ele>882.0</ele><time>2026-04-12T08:58:57.997Z</time></trkpt><trkpt lat="42.05804093121229" lon="13.107267154766193"><ele>881.0</ele><time>2026-04-12T08:58:58.997Z</time></trkpt><trkpt lat="42.05809422672042" lon="13.107194608108886"><ele>880.0</ele><time>2026-04-12T08:58:59.997Z</time></trkpt><trkpt lat="42.05815373950437" lon="13.107127218844814"><ele>879.0</ele><time>2026-04-12T08:59:00.997Z</time></trkpt><trkpt lat="42.05821177191022" lon="13.107057268159293"><ele>879.0</ele><time>2026-04-12T08:59:01.997Z</time></trkpt><trkpt lat="42.058277126770314" lon="13.10698635809606"><ele>879.0</ele><time>2026-04-12T08:59:02.997Z</time></trkpt><trkpt lat="42.05833891376643" lon="13.106914604063876"><ele>879.0</ele><time>2026-04-12T08:59:03.997Z</time></trkpt><trkpt lat="42.058400655956845" lon="13.106840772915554"><ele>879.0</ele><time>2026-04-12T08:59:04.997Z</time></trkpt><trkpt lat="42.05846762462131" lon="13.106759607011565"><ele>879.0</ele><time>2026-04-12T08:59:05.997Z</time></trkpt><trkpt lat="42.058538683752104" lon="13.106669861541572"><ele>879.0</ele><time>2026-04-12T08:59:06.999Z</time></trkpt><trkpt lat="42.05859972133351" lon="13.106595400588155"><ele>880.2</ele><time>2026-04-12T08:59:07.999Z</time></trkpt><trkpt lat="42.058652047376775" lon="13.10653493744229"><ele>881.4000000000001</ele><time>2026-04-12T08:59:08.999Z</time></trkpt><trkpt lat="42.05875229776227" lon="13.10645733511496"><ele>882.6</ele><time>2026-04-12T08:59:10.999Z</time></trkpt><trkpt lat="42.05884914760846" lon="13.106505993263696"><ele>883.8</ele><time>2026-04-12T08:59:12.999Z</time></trkpt><trkpt lat="42.058781242324095" lon="13.106646377500608"><ele>885.0</ele><time>2026-04-12T08:59:14.999Z</time></trkpt><trkpt lat="42.05864338562536" lon="13.10673182954416"><ele>887.0</ele><time>2026-04-12T08:59:16.999Z</time></trkpt><trkpt lat="42.05859686537163" lon="13.106846239905906"><ele>889.0</ele><time>2026-04-12T08:59:17.999Z</time></trkpt><trkpt lat="42.058572728133605" lon="13.106951894631846"><ele>891.0</ele><time>2026-04-12T08:59:18.999Z</time></trkpt><trkpt lat="42.05853083049464" lon="13.107048905654874"><ele>893.0</ele><time>2026-04-12T08:59:19.999Z</time></trkpt><trkpt lat="42.0584978231582" lon="13.107157352704617"><ele>895.0</ele><time>2026-04-12T08:59:20.999Z</time></trkpt><trkpt lat="42.05846053899429" lon="13.107276783920787"><ele>897.0</ele><time>2026-04-12T08:59:21.999Z</time></trkpt><trkpt lat="42.0584184598979" lon="13.107397875083869"><ele>898.4000000000001</ele><time>2026-04-12T08:59:22.999Z</time></trkpt><trkpt lat="42.05837488497111" lon="13.107523815190792"><ele>899.8000000000001</ele><time>2026-04-12T08:59:23.999Z</time></trkpt><trkpt lat="42.05834535286813" lon="13.10766939176282"><ele>901.2</ele><time>2026-04-12T08:59:24.999Z</time></trkpt><trkpt lat="42.0583026892394" lon="13.107793397163825"><ele>902.6</ele><time>2026-04-12T08:59:25.999Z</time></trkpt><trkpt lat="42.05828572786506" lon="13.107897512437882"><ele>904.0</ele><time>2026-04-12T08:59:26.999Z</time></trkpt><trkpt lat="42.05824768127471" lon="13.10799223547196"><ele>901.9999999999999</ele><time>2026-04-12T08:59:27.999Z</time></trkpt><trkpt lat="42.05822145419322" lon="13.10810113618872"><ele>900.0</ele><time>2026-04-12T08:59:28.999Z</time></trkpt><trkpt lat="42.05819565550872" lon="13.108213042613096"><ele>898.0</ele><time>2026-04-12T08:59:29.999Z</time></trkpt><trkpt lat="42.058184264892034" lon="13.108329058177123"><ele>896.0</ele><time>2026-04-12T08:59:30.999Z</time></trkpt><trkpt lat="42.05815982123634" lon="13.10842298845476"><ele>893.9999999999999</ele><time>2026-04-12T08:59:31.999Z</time></trkpt><trkpt lat="42.0581363281737" lon="13.108517511879384"><ele>892.0</ele><time>2026-04-12T08:59:32.999Z</time></trkpt><trkpt lat="42.05811971072079" lon="13.108619071237023"><ele>891.9999999999999</ele><time>2026-04-12T08:59:33.999Z</time></trkpt><trkpt lat="42.05810105456278" lon="13.108727424843822"><ele>892.0</ele><time>2026-04-12T08:59:34.999Z</time></trkpt><trkpt lat="42.058082487337956" lon="13.108827172623103"><ele>892.0</ele><time>2026-04-12T08:59:35.999Z</time></trkpt><trkpt lat="42.058059178423" lon="13.108947498832654"><ele>892.0</ele><time>2026-04-12T08:59:36.999Z</time></trkpt><trkpt lat="42.05803538134842" lon="13.109069794392205"><ele>891.9999999999999</ele><time>2026-04-12T08:59:37.999Z</time></trkpt><trkpt lat="42.05801057383041" lon="13.109194976579309"><ele>892.0</ele><time>2026-04-12T08:59:38.999Z</time></trkpt><trkpt lat="42.057982248664906" lon="13.109284672894551"><ele>893.3333333333333</ele><time>2026-04-12T08:59:39.999Z</time></trkpt><trkpt lat="42.057941524014865" lon="13.10944018459154"><ele>894.6666666666666</ele><time>2026-04-12T08:59:41.999Z</time></trkpt><trkpt lat="42.05792109926811" lon="13.109530395778817"><ele>896.0</ele><time>2026-04-12T08:59:42.999Z</time></trkpt><trkpt lat="42.05789608335934" lon="13.109630913262675"><ele>897.3333333333333</ele><time>2026-04-12T08:59:43.999Z</time></trkpt><trkpt lat="42.05787902739246" lon="13.109719443870054"><ele>898.6666666666666</ele><time>2026-04-12T08:59:44.999Z</time></trkpt><trkpt lat="42.057897589854335" lon="13.109851108051254"><ele>900.0</ele><time>2026-04-12T08:59:46.999Z</time></trkpt><trkpt lat="42.058023436371954" lon="13.109851920164862"><ele>900.0</ele><time>2026-04-12T08:59:48.999Z</time></trkpt><trkpt lat="42.05808319530647" lon="13.10977137751915"><ele>900.0</ele><time>2026-04-12T08:59:49.999Z</time></trkpt><trkpt lat="42.05807779908077" lon="13.109663372427194"><ele>900.0</ele><time>2026-04-12T08:59:50.999Z</time></trkpt><trkpt lat="42.05808416699242" lon="13.109565602788553"><ele>900.0</ele><time>2026-04-12T08:59:51.999Z</time></trkpt><trkpt lat="42.058117817122984" lon="13.109463603104523"><ele>900.0</ele><time>2026-04-12T08:59:52.999Z</time></trkpt><trkpt lat="42.058182437047" lon="13.109379681095927"><ele>900.0</ele><time>2026-04-12T08:59:53.999Z</time></trkpt><trkpt lat="42.05825189173451" lon="13.109303781851906"><ele>902.1666666666666</ele><time>2026-04-12T08:59:54.999Z</time></trkpt><trkpt lat="42.05831805428419" lon="13.109238981201829"><ele>904.3333333333333</ele><time>2026-04-12T08:59:55.999Z</time></trkpt><trkpt lat="42.058383639701404" lon="13.109153826886532"><ele>906.5</ele><time>2026-04-12T08:59:56.999Z</time></trkpt><trkpt lat="42.05846738041986" lon="13.109086048225155"><ele>908.6666666666666</ele><time>2026-04-12T08:59:57.999Z</time></trkpt><trkpt lat="42.058517984201416" lon="13.109007485005943"><ele>910.8333333333333</ele><time>2026-04-12T08:59:58.999Z</time></trkpt><trkpt lat="42.05857684901578" lon="13.108940013963986"><ele>913.0</ele><time>2026-04-12T08:59:59.999Z</time></trkpt><trkpt lat="42.05863378671645" lon="13.108855059078433"><ele>912.9999999999999</ele><time>2026-04-12T09:00:00.999Z</time></trkpt><trkpt lat="42.05866949083685" lon="13.10876081533608"><ele>913.0</ele><time>2026-04-12T09:00:01.999Z</time></trkpt><trkpt lat="42.05873742691432" lon="13.108653563370911"><ele>913.0</ele><time>2026-04-12T09:00:03.999Z</time></trkpt><trkpt lat="42.05882563313298" lon="13.108697190391569"><ele>913.0</ele><time>2026-04-12T09:00:05.999Z</time></trkpt><trkpt lat="42.05883572806147" lon="13.108782056881784"><ele>912.9999999999999</ele><time>2026-04-12T09:00:06.999Z</time></trkpt><trkpt lat="42.058785589173254" lon="13.108853178676362"><ele>913.0</ele><time>2026-04-12T09:00:07.998Z</time></trkpt><trkpt lat="42.05875453387466" lon="13.108945381812184"><ele>912.9999999999999</ele><time>2026-04-12T09:00:08.998Z</time></trkpt><trkpt lat="42.058737222282815" lon="13.109059725180025"><ele>913.0</ele><time>2026-04-12T09:00:09.998Z</time></trkpt><trkpt lat="42.058704916246334" lon="13.109165681900944"><ele>913.0</ele><time>2026-04-12T09:00:10.998Z</time></trkpt><trkpt lat="42.05868095439196" lon="13.109258616443901"><ele>913.0</ele><time>2026-04-12T09:00:11.998Z</time></trkpt><trkpt lat="42.058656336179645" lon="13.109363314087185"><ele>912.9999999999999</ele><time>2026-04-12T09:00:12.998Z</time></trkpt><trkpt lat="42.05863561941961" lon="13.109479300020384"><ele>913.0</ele><time>2026-04-12T09:00:13.998Z</time></trkpt><trkpt lat="42.0586089737569" lon="13.109604484430962"><ele>915.2</ele><time>2026-04-12T09:00:14.998Z</time></trkpt><trkpt lat="42.05858080589761" lon="13.1097371780302"><ele>917.4</ele><time>2026-04-12T09:00:15.998Z</time></trkpt><trkpt lat="42.05853834027436" lon="13.10985061851289"><ele>919.6000000000001</ele><time>2026-04-12T09:00:16.998Z</time></trkpt><trkpt lat="42.058501172214235" lon="13.109959419564296"><ele>921.8000000000001</ele><time>2026-04-12T09:00:17.998Z</time></trkpt><trkpt lat="42.05845487805075" lon="13.110069865969518"><ele>924.0</ele><time>2026-04-12T09:00:18.998Z</time></trkpt><trkpt lat="42.05841701598281" lon="13.110184087846983"><ele>922.4000000000001</ele><time>2026-04-12T09:00:19.998Z</time></trkpt><trkpt lat="42.058369408059264" lon="13.110294490074562"><ele>920.8000000000001</ele><time>2026-04-12T09:00:20.998Z</time></trkpt><trkpt lat="42.05830609496975" lon="13.110389836590977"><ele>919.1999999999999</ele><time>2026-04-12T09:00:21.998Z</time></trkpt><trkpt lat="42.05824682444428" lon="13.11049102259106"><ele>917.5999999999999</ele><time>2026-04-12T09:00:22.998Z</time></trkpt><trkpt lat="42.058179985932476" lon="13.11059333763837"><ele>916.0</ele><time>2026-04-12T09:00:23.998Z</time></trkpt><trkpt lat="42.05807998514986" lon="13.110647859501986"><ele>916.0</ele><time>2026-04-12T09:00:24.998Z</time></trkpt><trkpt lat="42.05799903936642" lon="13.110735433585077"><ele>915.9999999999999</ele><time>2026-04-12T09:00:25.998Z</time></trkpt><trkpt lat="42.05792750547073" lon="13.110843282054711"><ele>915.9999999999999</ele><time>2026-04-12T09:00:26.998Z</time></trkpt><trkpt lat="42.05785060325529" lon="13.110948759104723"><ele>916.0</ele><time>2026-04-12T09:00:27.998Z</time></trkpt><trkpt lat="42.05778276475892" lon="13.111069952222907"><ele>916.0</ele><time>2026-04-12T09:00:28.998Z</time></trkpt><trkpt lat="42.057730498190296" lon="13.111192269810758"><ele>918.9999999999999</ele><time>2026-04-12T09:00:29.998Z</time></trkpt><trkpt lat="42.05768755357509" lon="13.111284535783561"><ele>922.0</ele><time>2026-04-12T09:00:30.998Z</time></trkpt><trkpt lat="42.05765626256264" lon="13.111370428842092"><ele>925.0</ele><time>2026-04-12T09:00:31.998Z</time></trkpt><trkpt lat="42.05761879384818" lon="13.111474073754863"><ele>928.0</ele><time>2026-04-12T09:00:32.998Z</time></trkpt><trkpt lat="42.05758035300307" lon="13.11157477396006"><ele>930.9999999999999</ele><time>2026-04-12T09:00:33.998Z</time></trkpt><trkpt lat="42.05753232159129" lon="13.111644642523645"><ele>934.0</ele><time>2026-04-12T09:00:34.998Z</time></trkpt><trkpt lat="42.057460369504845" lon="13.111780183580837"><ele>934.2</ele><time>2026-04-12T09:00:36.998Z</time></trkpt><trkpt lat="42.0574133428341" lon="13.111865777480311"><ele>934.4000000000001</ele><time>2026-04-12T09:00:37.998Z</time></trkpt><trkpt lat="42.057362192235566" lon="13.111960850875393"><ele>934.6</ele><time>2026-04-12T09:00:38.998Z</time></trkpt><trkpt lat="42.05730837920606" lon="13.112052027750345"><ele>934.8</ele><time>2026-04-12T09:00:39.998Z</time></trkpt><trkpt lat="42.057242484315715" lon="13.112145858297295"><ele>935.0</ele><time>2026-04-12T09:00:40.998Z</time></trkpt><trkpt lat="42.05717022389634" lon="13.112244093784932"><ele>935.0</ele><time>2026-04-12T09:00:41.998Z</time></trkpt><trkpt lat="42.05710457488012" lon="13.1123344443729"><ele>935.0</ele><time>2026-04-12T09:00:42.998Z</time></trkpt><trkpt lat="42.057064025812416" lon="13.112449587323932"><ele>935.0</ele><time>2026-04-12T09:00:43.998Z</time></trkpt><trkpt lat="42.05699646541663" lon="13.112534283801327"><ele>935.0</ele><time>2026-04-12T09:00:44.998Z</time></trkpt><trkpt lat="42.05692544642273" lon="13.112624576950532"><ele>935.0</ele><time>2026-04-12T09:00:45.998Z</time></trkpt><trkpt lat="42.05685337921563" lon="13.112714449156245"><ele>934.6</ele><time>2026-04-12T09:00:46.998Z</time></trkpt><trkpt lat="42.05678376032615" lon="13.112817455397574"><ele>934.2</ele><time>2026-04-12T09:00:47.998Z</time></trkpt><trkpt lat="42.05670614404449" lon="13.112913708690808"><ele>933.8</ele><time>2026-04-12T09:00:48.998Z</time></trkpt><trkpt lat="42.05661941327056" lon="13.113005400720786"><ele>933.4</ele><time>2026-04-12T09:00:49.998Z</time></trkpt><trkpt lat="42.05652395141637" lon="13.1130939201789"><ele>933.0</ele><time>2026-04-12T09:00:50.998Z</time></trkpt><trkpt lat="42.0564273947701" lon="13.113195199241256"><ele>937.8</ele><time>2026-04-12T09:00:51.998Z</time></trkpt><trkpt lat="42.0563212100003" lon="13.113280230807357"><ele>942.5999999999999</ele><time>2026-04-12T09:00:52.998Z</time></trkpt><trkpt lat="42.056240812181876" lon="13.113362403797595"><ele>947.4000000000001</ele><time>2026-04-12T09:00:53.998Z</time></trkpt><trkpt lat="42.0561645587173" lon="13.113449268976689"><ele>952.2</ele><time>2026-04-12T09:00:54.998Z</time></trkpt><trkpt lat="42.05608313904113" lon="13.113528134524891"><ele>957.0</ele><time>2026-04-12T09:00:55.998Z</time></trkpt><trkpt lat="42.05600703606639" lon="13.113617381827611"><ele>957.0</ele><time>2026-04-12T09:00:56.998Z</time></trkpt><trkpt lat="42.05593164034989" lon="13.113713675995166"><ele>957.0</ele><time>2026-04-12T09:00:57.997Z</time></trkpt><trkpt lat="42.05585623819284" lon="13.113816896323577"><ele>957.0</ele><time>2026-04-12T09:00:58.997Z</time></trkpt><trkpt lat="42.05578111672116" lon="13.113924540468714"><ele>957.0</ele><time>2026-04-12T09:00:59.997Z</time></trkpt><trkpt lat="42.05571727979076" lon="13.114046820742312"><ele>957.0</ele><time>2026-04-12T09:01:00.997Z</time></trkpt><trkpt lat="42.05565454783142" lon="13.114172616646009"><ele>956.0</ele><time>2026-04-12T09:01:01.997Z</time></trkpt><trkpt lat="42.05559285574662" lon="13.114303789761696"><ele>955.0</ele><time>2026-04-12T09:01:02.997Z</time></trkpt><trkpt lat="42.055532630635945" lon="13.114429485836508"><ele>954.0</ele><time>2026-04-12T09:01:03.997Z</time></trkpt><trkpt lat="42.05546495227172" lon="13.1145664043494"><ele>953.0</ele><time>2026-04-12T09:01:04.997Z</time></trkpt><trkpt lat="42.055406147420825" lon="13.114705243919461"><ele>953.0</ele><time>2026-04-12T09:01:05.997Z</time></trkpt><trkpt lat="42.05535954907277" lon="13.114833627629421"><ele>953.0</ele><time>2026-04-12T09:01:06.997Z</time></trkpt><trkpt lat="42.05531952157383" lon="13.114940728872494"><ele>953.0</ele><time>2026-04-12T09:01:07.997Z</time></trkpt><trkpt lat="42.05528022213564" lon="13.115052652422541"><ele>953.0</ele><time>2026-04-12T09:01:08.998Z</time></trkpt><trkpt lat="42.05523884626338" lon="13.115165096991293"><ele>953.0</ele><time>2026-04-12T09:01:09.998Z</time></trkpt><trkpt lat="42.05519596724808" lon="13.115276733060465"><ele>956.5999999999999</ele><time>2026-04-12T09:01:10.998Z</time></trkpt><trkpt lat="42.055135353805944" lon="13.115371642216829"><ele>960.1999999999999</ele><time>2026-04-12T09:01:11.998Z</time></trkpt><trkpt lat="42.05508077466139" lon="13.115480373492264"><ele>963.8</ele><time>2026-04-12T09:01:13Z</time></trkpt><trkpt lat="42.055027165631905" lon="13.11559969761291"><ele>967.4</ele><time>2026-04-12T09:01:14Z</time></trkpt><trkpt lat="42.054988053105795" lon="13.115725983896771"><ele>971.0</ele><time>2026-04-12T09:01:15Z</time></trkpt><trkpt lat="42.05493137719888" lon="13.11584147248811"><ele>973.1999999999999</ele><time>2026-04-12T09:01:16Z</time></trkpt><trkpt lat="42.054876817888655" lon="13.115966376383748"><ele>975.3999999999999</ele><time>2026-04-12T09:01:17Z</time></trkpt><trkpt lat="42.05483792174178" lon="13.116078392064006"><ele>977.6</ele><time>2026-04-12T09:01:18Z</time></trkpt><trkpt lat="42.0547913109218" lon="13.116187085857721"><ele>979.8</ele><time>2026-04-12T09:01:19Z</time></trkpt><trkpt lat="42.05473707805321" lon="13.116281589193344"><ele>982.0</ele><time>2026-04-12T09:01:20Z</time></trkpt><trkpt lat="42.054675018651025" lon="13.116359241257104"><ele>982.0</ele><time>2026-04-12T09:01:21Z</time></trkpt><trkpt lat="42.05458867779862" lon="13.116379676951528"><ele>982.0</ele><time>2026-04-12T09:01:22Z</time></trkpt><trkpt lat="42.054495415691775" lon="13.116381005698255"><ele>982.0</ele><time>2026-04-12T09:01:23Z</time></trkpt><trkpt lat="42.05441252851875" lon="13.11640796712488"><ele>982.0</ele><time>2026-04-12T09:01:24Z</time></trkpt><trkpt lat="42.05431004386597" lon="13.116453504796933"><ele>982.0</ele><time>2026-04-12T09:01:26Z</time></trkpt><trkpt lat="42.054263607513946" lon="13.116563526028495"><ele>982.0</ele><time>2026-04-12T09:01:28Z</time></trkpt><trkpt lat="42.05430339792934" lon="13.116699056043682"><ele>982.0</ele><time>2026-04-12T09:01:30Z</time></trkpt><trkpt lat="42.05441910047445" lon="13.116720259477374"><ele>982.0</ele><time>2026-04-12T09:01:32Z</time></trkpt><trkpt lat="42.05447098423275" lon="13.116665216700444"><ele>982.0</ele><time>2026-04-12T09:01:33Z</time></trkpt><trkpt lat="42.05453619857212" lon="13.116615051877977"><ele>982.0</ele><time>2026-04-12T09:01:34Z</time></trkpt><trkpt lat="42.054618271742896" lon="13.116564501830029"><ele>982.0</ele><time>2026-04-12T09:01:35Z</time></trkpt><trkpt lat="42.05470906066304" lon="13.116536622565205"><ele>982.0</ele><time>2026-04-12T09:01:36Z</time></trkpt><trkpt lat="42.054794337877915" lon="13.116505575432164"><ele>982.0</ele><time>2026-04-12T09:01:37Z</time></trkpt><trkpt lat="42.05488699077207" lon="13.116468730495003"><ele>982.0</ele><time>2026-04-12T09:01:38Z</time></trkpt><trkpt lat="42.054947723454866" lon="13.116334402704533"><ele>982.0</ele><time>2026-04-12T09:01:39Z</time></trkpt><trkpt lat="42.055009860792275" lon="13.116214905523465"><ele>983.8</ele><time>2026-04-12T09:01:40Z</time></trkpt><trkpt lat="42.05509383984185" lon="13.116108825573791"><ele>985.6</ele><time>2026-04-12T09:01:41Z</time></trkpt><trkpt lat="42.05516674834082" lon="13.115999338332047"><ele>987.3999999999999</ele><time>2026-04-12T09:01:42Z</time></trkpt><trkpt lat="42.055238544190324" lon="13.115907443947028"><ele>989.1999999999999</ele><time>2026-04-12T09:01:43Z</time></trkpt><trkpt lat="42.05531228321131" lon="13.115812922492465"><ele>991.0</ele><time>2026-04-12T09:01:44Z</time></trkpt><trkpt lat="42.05541352240999" lon="13.115760650876668"><ele>992.1666666666666</ele><time>2026-04-12T09:01:45Z</time></trkpt><trkpt lat="42.05550173326193" lon="13.115728070126934"><ele>993.3333333333333</ele><time>2026-04-12T09:01:46Z</time></trkpt><trkpt lat="42.055568008576806" lon="13.115709371353876"><ele>994.5</ele><time>2026-04-12T09:01:47Z</time></trkpt><trkpt lat="42.0556759249165" lon="13.1156820698448"><ele>995.6666666666667</ele><time>2026-04-12T09:01:49Z</time></trkpt><trkpt lat="42.05573859221121" lon="13.115646692875119"><ele>996.8333333333334</ele><time>2026-04-12T09:01:50Z</time></trkpt><trkpt lat="42.055791327156015" lon="13.11557786973416"><ele>998.0</ele><time>2026-04-12T09:01:51Z</time></trkpt><trkpt lat="42.05583778271591" lon="13.115483663519456"><ele>998.0</ele><time>2026-04-12T09:01:52Z</time></trkpt><trkpt lat="42.0558830527343" lon="13.115387804556637"><ele>998.0</ele><time>2026-04-12T09:01:53Z</time></trkpt><trkpt lat="42.0559372814465" lon="13.115283634615537"><ele>998.0</ele><time>2026-04-12T09:01:54Z</time></trkpt><trkpt lat="42.05599784675402" lon="13.115172188621266"><ele>998.0</ele><time>2026-04-12T09:01:55Z</time></trkpt><trkpt lat="42.056072269878584" lon="13.115068902882124"><ele>998.0</ele><time>2026-04-12T09:01:56Z</time></trkpt><trkpt lat="42.05614952305991" lon="13.11495854273403"><ele>994.0</ele><time>2026-04-12T09:01:57Z</time></trkpt><trkpt lat="42.056229505437095" lon="13.114830474484226"><ele>990.0</ele><time>2026-04-12T09:01:58Z</time></trkpt><trkpt lat="42.05632093316543" lon="13.114748548636834"><ele>986.0</ele><time>2026-04-12T09:01:59Z</time></trkpt><trkpt lat="42.05639725385008" lon="13.114686443688836"><ele>982.0</ele><time>2026-04-12T09:02:00Z</time></trkpt><trkpt lat="42.05646348495949" lon="13.114643661445678"><ele>978.0</ele><time>2026-04-12T09:02:01Z</time></trkpt><trkpt lat="42.056529548951616" lon="13.114620544199816"><ele>978.0</ele><time>2026-04-12T09:02:02Z</time></trkpt><trkpt lat="42.05662817845466" lon="13.11470273443998"><ele>978.0</ele><time>2026-04-12T09:02:04Z</time></trkpt><trkpt lat="42.05663511149222" lon="13.114799814060548"><ele>978.0</ele><time>2026-04-12T09:02:05Z</time></trkpt><trkpt lat="42.05660004753902" lon="13.114900489575511"><ele>978.0</ele><time>2026-04-12T09:02:06Z</time></trkpt><trkpt lat="42.056503154593806" lon="13.114934316397331"><ele>978.0</ele><time>2026-04-12T09:02:07Z</time></trkpt><trkpt lat="42.05642795293009" lon="13.115020931356572"><ele>981.3333333333334</ele><time>2026-04-12T09:02:08Z</time></trkpt><trkpt lat="42.05636444088636" lon="13.115101704438821"><ele>984.6666666666667</ele><time>2026-04-12T09:02:09Z</time></trkpt><trkpt lat="42.05630556280898" lon="13.11518360660395"><ele>988.0</ele><time>2026-04-12T09:02:10Z</time></trkpt><trkpt lat="42.05625769682062" lon="13.115267874674789"><ele>991.3333333333334</ele><time>2026-04-12T09:02:11Z</time></trkpt><trkpt lat="42.05622731466502" lon="13.115345818286622"><ele>994.6666666666667</ele><time>2026-04-12T09:02:12Z</time></trkpt><trkpt lat="42.05617537227209" lon="13.11548321879042"><ele>998.0</ele><time>2026-04-12T09:02:13.999Z</time></trkpt><trkpt lat="42.05611435912551" lon="13.11557438597099"><ele>998.0000000000001</ele><time>2026-04-12T09:02:15.999Z</time></trkpt><trkpt lat="42.05606276603571" lon="13.115678700842258"><ele>998.0</ele><time>2026-04-12T09:02:18.999Z</time></trkpt><trkpt lat="42.05600911232716" lon="13.115750210220178"><ele>998.0</ele><time>2026-04-12T09:02:21.999Z</time></trkpt><trkpt lat="42.055921352533225" lon="13.115843584446116"><ele>998.0</ele><time>2026-04-12T09:04:35.999Z</time></trkpt><trkpt lat="42.05586362243364" lon="13.115895100061469"><ele>998.0000000000001</ele><time>2026-04-12T09:04:36.999Z</time></trkpt><trkpt lat="42.055788793751674" lon="13.115951187856975"><ele>998.0</ele><time>2026-04-12T09:04:37.999Z</time></trkpt><trkpt lat="42.05571589172016" lon="13.115986270811856"><ele>996.5999999999999</ele><time>2026-04-12T09:04:38.999Z</time></trkpt><trkpt lat="42.05562249530712" lon="13.116026110667041"><ele>995.1999999999999</ele><time>2026-04-12T09:04:39.999Z</time></trkpt><trkpt lat="42.0555279109281" lon="13.116074124657784"><ele>993.8</ele><time>2026-04-12T09:04:40.999Z</time></trkpt><trkpt lat="42.05543341577412" lon="13.11615320812017"><ele>992.4</ele><time>2026-04-12T09:04:41.999Z</time></trkpt><trkpt lat="42.0553645119218" lon="13.11624071201496"><ele>991.0</ele><time>2026-04-12T09:04:42.999Z</time></trkpt><trkpt lat="42.0552987817907" lon="13.116372334636011"><ele>991.0</ele><time>2026-04-12T09:04:43.999Z</time></trkpt><trkpt lat="42.05525041305721" lon="13.116519586402871"><ele>991.0</ele><time>2026-04-12T09:04:44.999Z</time></trkpt><trkpt lat="42.05517538168609" lon="13.116655133010035"><ele>991.0</ele><time>2026-04-12T09:04:45.999Z</time></trkpt><trkpt lat="42.05508501602603" lon="13.116750257467668"><ele>991.0</ele><time>2026-04-12T09:04:46.999Z</time></trkpt><trkpt lat="42.054987616859314" lon="13.116837810896154"><ele>992.4</ele><time>2026-04-12T09:04:47.999Z</time></trkpt><trkpt lat="42.05492559858531" lon="13.116969956484871"><ele>993.8</ele><time>2026-04-12T09:04:48.999Z</time></trkpt><trkpt lat="42.05489730596409" lon="13.117093374577593"><ele>995.1999999999999</ele><time>2026-04-12T09:04:49.999Z</time></trkpt><trkpt lat="42.05484252654903" lon="13.117206807470513"><ele>996.5999999999999</ele><time>2026-04-12T09:04:50.999Z</time></trkpt><trkpt lat="42.05480122553769" lon="13.11731483934749"><ele>998.0</ele><time>2026-04-12T09:04:51.999Z</time></trkpt><trkpt lat="42.05475929762398" lon="13.117380081218059"><ele>1002.5999999999999</ele><time>2026-04-12T09:04:52.999Z</time></trkpt><trkpt lat="42.05463546561809" lon="13.117454308336411"><ele>1007.1999999999999</ele><time>2026-04-12T09:04:54.999Z</time></trkpt><trkpt lat="42.05455177763785" lon="13.117519506021345"><ele>1011.8</ele><time>2026-04-12T09:04:55.999Z</time></trkpt><trkpt lat="42.05447433426417" lon="13.11758219827615"><ele>1016.4</ele><time>2026-04-12T09:04:56.999Z</time></trkpt><trkpt lat="42.05439669367746" lon="13.117640739256492"><ele>1021.0</ele><time>2026-04-12T09:04:57.999Z</time></trkpt><trkpt lat="42.054313662054575" lon="13.117698071783762"><ele>1021.0</ele><time>2026-04-12T09:04:58.999Z</time></trkpt><trkpt lat="42.05421922031102" lon="13.11776116552689"><ele>1020.9999999999999</ele><time>2026-04-12T09:04:59.999Z</time></trkpt><trkpt lat="42.05411396182007" lon="13.117831280437045"><ele>1020.9999999999999</ele><time>2026-04-12T09:05:00.999Z</time></trkpt><trkpt lat="42.05400811646036" lon="13.11789658974524"><ele>1021.0</ele><time>2026-04-12T09:05:01.999Z</time></trkpt><trkpt lat="42.05390997927673" lon="13.11795663354241"><ele>1021.0</ele><time>2026-04-12T09:05:02.999Z</time></trkpt><trkpt lat="42.05381805685889" lon="13.118028388505367"><ele>1020.5999999999999</ele><time>2026-04-12T09:05:03.999Z</time></trkpt><trkpt lat="42.05375279679855" lon="13.118126942872525"><ele>1020.1999999999999</ele><time>2026-04-12T09:05:04.999Z</time></trkpt><trkpt lat="42.05368185042471" lon="13.118197367871902"><ele>1019.8000000000001</ele><time>2026-04-12T09:05:05.999Z</time></trkpt><trkpt lat="42.0536269749946" lon="13.118295670979409"><ele>1019.4000000000001</ele><time>2026-04-12T09:05:06.999Z</time></trkpt><trkpt lat="42.05357461747013" lon="13.11842148380337"><ele>1019.0</ele><time>2026-04-12T09:05:07.998Z</time></trkpt><trkpt lat="42.05350494860242" lon="13.118541686689092"><ele>1021.3333333333334</ele><time>2026-04-12T09:05:08.998Z</time></trkpt><trkpt lat="42.05346143382604" lon="13.118645850203178"><ele>1023.6666666666667</ele><time>2026-04-12T09:05:09.998Z</time></trkpt><trkpt lat="42.05338493107252" lon="13.11874143957215"><ele>1026.0</ele><time>2026-04-12T09:05:11.998Z</time></trkpt><trkpt lat="42.05331827064659" lon="13.118764971936628"><ele>1028.3333333333333</ele><time>2026-04-12T09:05:12.998Z</time></trkpt><trkpt lat="42.05324234716499" lon="13.118749255352528"><ele>1030.6666666666665</ele><time>2026-04-12T09:05:13.998Z</time></trkpt><trkpt lat="42.05315674120332" lon="13.118713612820098"><ele>1033.0</ele><time>2026-04-12T09:05:14.998Z</time></trkpt><trkpt lat="42.05306122004418" lon="13.118713397773071"><ele>1034.0</ele><time>2026-04-12T09:05:15.998Z</time></trkpt><trkpt lat="42.05296363432374" lon="13.118705225120431"><ele>1035.0</ele><time>2026-04-12T09:05:16.998Z</time></trkpt><trkpt lat="42.05285294377668" lon="13.118687304512072"><ele>1036.0</ele><time>2026-04-12T09:05:17.998Z</time></trkpt><trkpt lat="42.05273410153674" lon="13.118698631273828"><ele>1037.0</ele><time>2026-04-12T09:05:18.998Z</time></trkpt><trkpt lat="42.052604627953684" lon="13.118701881183217"><ele>1037.0</ele><time>2026-04-12T09:05:19.998Z</time></trkpt><trkpt lat="42.05248513896686" lon="13.118703448481789"><ele>1037.0</ele><time>2026-04-12T09:05:20.998Z</time></trkpt><trkpt lat="42.052373552303465" lon="13.118700111877923"><ele>1037.0</ele><time>2026-04-12T09:05:21.998Z</time></trkpt><trkpt lat="42.05225092396112" lon="13.118694641680356"><ele>1037.0</ele><time>2026-04-12T09:05:22.998Z</time></trkpt><trkpt lat="42.05212152817346" lon="13.118692964310878"><ele>1038.25</ele><time>2026-04-12T09:05:24Z</time></trkpt><trkpt lat="42.051999505973264" lon="13.118690417158547"><ele>1039.5</ele><time>2026-04-12T09:05:25Z</time></trkpt><trkpt lat="42.051881034983744" lon="13.118684023347974"><ele>1040.75</ele><time>2026-04-12T09:05:26Z</time></trkpt><trkpt lat="42.051753757616275" lon="13.118668048883327"><ele>1042.0</ele><time>2026-04-12T09:05:27Z</time></trkpt><trkpt lat="42.05161234756523" lon="13.118645768631296"><ele>1043.25</ele><time>2026-04-12T09:05:28Z</time></trkpt><trkpt lat="42.051478043474916" lon="13.11861270178651"><ele>1044.5</ele><time>2026-04-12T09:05:29Z</time></trkpt><trkpt lat="42.051356396985874" lon="13.11857120595291"><ele>1045.75</ele><time>2026-04-12T09:05:30Z</time></trkpt><trkpt lat="42.05124722647261" lon="13.118509621771793"><ele>1047.0</ele><time>2026-04-12T09:05:31Z</time></trkpt><trkpt lat="42.051143244061095" lon="13.118451488575092"><ele>1047.0</ele><time>2026-04-12T09:05:32Z</time></trkpt><trkpt lat="42.05104777466329" lon="13.118385241507854"><ele>1047.0</ele><time>2026-04-12T09:05:33Z</time></trkpt><trkpt lat="42.050957674998706" lon="13.118313781518737"><ele>1047.0</ele><time>2026-04-12T09:05:34Z</time></trkpt><trkpt lat="42.05087426557596" lon="13.118245156494673"><ele>1047.0</ele><time>2026-04-12T09:05:35Z</time></trkpt><trkpt lat="42.05080155440951" lon="13.118162591790396"><ele>1047.0</ele><time>2026-04-12T09:05:36Z</time></trkpt><trkpt lat="42.05071179807221" lon="13.118161111854901"><ele>1044.8333333333333</ele><time>2026-04-12T09:05:37Z</time></trkpt><trkpt lat="42.05062777493182" lon="13.118177331370697"><ele>1042.6666666666667</ele><time>2026-04-12T09:05:38Z</time></trkpt><trkpt lat="42.050582575299885" lon="13.118255834203982"><ele>1040.5</ele><time>2026-04-12T09:06:38.999Z</time></trkpt><trkpt lat="42.05053228153666" lon="13.11830811676428"><ele>1038.3333333333335</ele><time>2026-04-12T09:06:41.999Z</time></trkpt><trkpt lat="42.05048451504975" lon="13.118384417939051"><ele>1036.1666666666667</ele><time>2026-04-12T09:06:43.999Z</time></trkpt><trkpt lat="42.05044342824625" lon="13.118450393887779"><ele>1034.0</ele><time>2026-04-12T09:08:27.999Z</time></trkpt><trkpt lat="42.05039191957893" lon="13.118554321721684"><ele>1034.0</ele><time>2026-04-12T09:08:29.999Z</time></trkpt><trkpt lat="42.0503104692263" lon="13.118638478277196"><ele>1034.0</ele><time>2026-04-12T09:08:31.999Z</time></trkpt><trkpt lat="42.05025544640409" lon="13.118749909553523"><ele>1034.0</ele><time>2026-04-12T09:08:36.999Z</time></trkpt><trkpt lat="42.05015899909095" lon="13.118865226968973"><ele>1034.0</ele><time>2026-04-12T09:08:38.999Z</time></trkpt><trkpt lat="42.050121489707585" lon="13.118939867703393"><ele>1034.0</ele><time>2026-04-12T09:08:39.999Z</time></trkpt><trkpt lat="42.05004888202673" lon="13.11907930325077"><ele>1033.5</ele><time>2026-04-12T09:08:41.999Z</time></trkpt><trkpt lat="42.04997678250229" lon="13.11923523827939"><ele>1033.0</ele><time>2026-04-12T09:08:43.999Z</time></trkpt><trkpt lat="42.04994033855547" lon="13.119319574180954"><ele>1032.5</ele><time>2026-04-12T09:08:44.999Z</time></trkpt><trkpt lat="42.049908749977845" lon="13.119393051262282"><ele>1032.0</ele><time>2026-04-12T09:08:45.999Z</time></trkpt><trkpt lat="42.049876639522935" lon="13.119472888249076"><ele>1031.5</ele><time>2026-04-12T09:08:46.999Z</time></trkpt><trkpt lat="42.04982653025807" lon="13.119569359175076"><ele>1031.0</ele><time>2026-04-12T09:08:47.999Z</time></trkpt><trkpt lat="42.04974800774675" lon="13.119651157883942"><ele>1031.0</ele><time>2026-04-12T09:08:48.999Z</time></trkpt><trkpt lat="42.04967763359589" lon="13.119729056135991"><ele>1031.0</ele><time>2026-04-12T09:08:49.999Z</time></trkpt><trkpt lat="42.04961340902961" lon="13.119803155363568"><ele>1031.0</ele><time>2026-04-12T09:08:50.999Z</time></trkpt><trkpt lat="42.04955667242365" lon="13.119897936698727"><ele>1031.0</ele><time>2026-04-12T09:08:51.999Z</time></trkpt><trkpt lat="42.04950293870482" lon="13.119976135530328"><ele>1031.0</ele><time>2026-04-12T09:08:52.999Z</time></trkpt><trkpt lat="42.04946166196426" lon="13.120074611590482"><ele>1031.0</ele><time>2026-04-12T09:08:53.999Z</time></trkpt><trkpt lat="42.0494219599844" lon="13.120186882358297"><ele>1035.6</ele><time>2026-04-12T09:08:54.999Z</time></trkpt><trkpt lat="42.049384299473296" lon="13.120301172539545"><ele>1040.1999999999998</ele><time>2026-04-12T09:08:55.999Z</time></trkpt><trkpt lat="42.049360457584314" lon="13.12042121392578"><ele>1044.8000000000002</ele><time>2026-04-12T09:08:56.999Z</time></trkpt><trkpt lat="42.04933810338638" lon="13.12052393485853"><ele>1049.4</ele><time>2026-04-12T09:08:57.999Z</time></trkpt><trkpt lat="42.04929012303396" lon="13.120635828231709"><ele>1054.0</ele><time>2026-04-12T09:08:58.999Z</time></trkpt><trkpt lat="42.049250783437465" lon="13.1207577253632"><ele>1051.0</ele><time>2026-04-12T09:08:59.999Z</time></trkpt><trkpt lat="42.04920392745229" lon="13.120894643357909"><ele>1048.0</ele><time>2026-04-12T09:09:00.999Z</time></trkpt><trkpt lat="42.04915913664206" lon="13.121027035609137"><ele>1045.0</ele><time>2026-04-12T09:09:01.999Z</time></trkpt><trkpt lat="42.0491215129257" lon="13.121140295146569"><ele>1042.0</ele><time>2026-04-12T09:09:02.999Z</time></trkpt><trkpt lat="42.04908023191696" lon="13.121264564504099"><ele>1039.0</ele><time>2026-04-12T09:09:03.999Z</time></trkpt><trkpt lat="42.04903645890877" lon="13.121390751088645"><ele>1039.0</ele><time>2026-04-12T09:09:04.999Z</time></trkpt><trkpt lat="42.048997666907155" lon="13.121524145440526"><ele>1039.0</ele><time>2026-04-12T09:09:05.999Z</time></trkpt><trkpt lat="42.04893686455242" lon="13.121654944723597"><ele>1039.0</ele><time>2026-04-12T09:09:06.999Z</time></trkpt><trkpt lat="42.04889422579296" lon="13.121766577423832"><ele>1039.0</ele><time>2026-04-12T09:09:07.999Z</time></trkpt><trkpt lat="42.04885707764607" lon="13.121866458239559"><ele>1039.0</ele><time>2026-04-12T09:09:08.999Z</time></trkpt><trkpt lat="42.04881468990629" lon="13.121987557575189"><ele>1042.6000000000001</ele><time>2026-04-12T09:09:09.999Z</time></trkpt><trkpt lat="42.04877708012364" lon="13.122099139419138"><ele>1046.2</ele><time>2026-04-12T09:09:10.999Z</time></trkpt><trkpt lat="42.04874956951347" lon="13.122230439205829"><ele>1049.8000000000002</ele><time>2026-04-12T09:09:11.999Z</time></trkpt><trkpt lat="42.048700211142034" lon="13.122358533954902"><ele>1053.4</ele><time>2026-04-12T09:09:12.999Z</time></trkpt><trkpt lat="42.04866414342065" lon="13.122492890574406"><ele>1057.0</ele><time>2026-04-12T09:09:13.999Z</time></trkpt><trkpt lat="42.04862850887428" lon="13.12264099340762"><ele>1060.2</ele><time>2026-04-12T09:09:14.999Z</time></trkpt><trkpt lat="42.04858950463324" lon="13.122773201674947"><ele>1063.4</ele><time>2026-04-12T09:09:15.999Z</time></trkpt><trkpt lat="42.04855121574301" lon="13.122901504174038"><ele>1066.6</ele><time>2026-04-12T09:09:16.998Z</time></trkpt><trkpt lat="42.04851771719698" lon="13.123032258324592"><ele>1069.8</ele><time>2026-04-12T09:09:17.998Z</time></trkpt><trkpt lat="42.04848187547803" lon="13.123168076425202"><ele>1073.0</ele><time>2026-04-12T09:09:18.998Z</time></trkpt><trkpt lat="42.0484317647888" lon="13.123301975468648"><ele>1070.75</ele><time>2026-04-12T09:09:19.998Z</time></trkpt><trkpt lat="42.048393779678115" lon="13.123459113968533"><ele>1068.5</ele><time>2026-04-12T09:09:20.998Z</time></trkpt><trkpt lat="42.048323959115486" lon="13.123573107937036"><ele>1066.25</ele><time>2026-04-12T09:09:21.998Z</time></trkpt><trkpt lat="42.048257624898845" lon="13.123704255044888"><ele>1064.0</ele><time>2026-04-12T09:09:22.998Z</time></trkpt><trkpt lat="42.04819119022384" lon="13.12382485243728"><ele>1064.0</ele><time>2026-04-12T09:09:23.998Z</time></trkpt><trkpt lat="42.04812461749538" lon="13.12392953661817"><ele>1064.0</ele><time>2026-04-12T09:09:24.998Z</time></trkpt><trkpt lat="42.048061589964576" lon="13.124024987383473"><ele>1064.0</ele><time>2026-04-12T09:09:25.998Z</time></trkpt><trkpt lat="42.04798878744474" lon="13.124126953839589"><ele>1064.0</ele><time>2026-04-12T09:09:26.998Z</time></trkpt><trkpt lat="42.047914459179154" lon="13.124223129513018"><ele>1064.0</ele><time>2026-04-12T09:09:27.998Z</time></trkpt><trkpt lat="42.047835255625486" lon="13.124322442387221"><ele>1068.5</ele><time>2026-04-12T09:09:28.998Z</time></trkpt><trkpt lat="42.04777359538884" lon="13.124398072303412"><ele>1073.0</ele><time>2026-04-12T09:09:29.998Z</time></trkpt><trkpt lat="42.04772181979421" lon="13.124460552354657"><ele>1077.5</ele><time>2026-04-12T09:09:30.998Z</time></trkpt><trkpt lat="42.047676074017076" lon="13.124543118984851"><ele>1082.0</ele><time>2026-04-12T09:09:31.998Z</time></trkpt><trkpt lat="42.047603604125854" lon="13.12460217692672"><ele>1086.5</ele><time>2026-04-12T09:09:32.998Z</time></trkpt><trkpt lat="42.04754512905814" lon="13.124655539483655"><ele>1091.0</ele><time>2026-04-12T09:09:33.998Z</time></trkpt><trkpt lat="42.04746541351715" lon="13.124733589175793"><ele>1090.6</ele><time>2026-04-12T09:09:35Z</time></trkpt><trkpt lat="42.04736192973727" lon="13.124805954825312"><ele>1090.1999999999998</ele><time>2026-04-12T09:09:36Z</time></trkpt><trkpt lat="42.0472408398227" lon="13.12485826008614"><ele>1089.8000000000002</ele><time>2026-04-12T09:09:37Z</time></trkpt><trkpt lat="42.04717245615714" lon="13.124952105451426"><ele>1089.4</ele><time>2026-04-12T09:09:38Z</time></trkpt><trkpt lat="42.04712023924912" lon="13.125016939723837"><ele>1089.0</ele><time>2026-04-12T09:09:39Z</time></trkpt><trkpt lat="42.0470589324705" lon="13.125128128933852"><ele>1089.0</ele><time>2026-04-12T09:09:41Z</time></trkpt><trkpt lat="42.04702471036994" lon="13.125199858367493"><ele>1089.0</ele><time>2026-04-12T09:09:42Z</time></trkpt><trkpt lat="42.04703832883239" lon="13.125319521413664"><ele>1089.0</ele><time>2026-04-12T09:09:43Z</time></trkpt><trkpt lat="42.04704741422011" lon="13.12542472803473"><ele>1089.0</ele><time>2026-04-12T09:09:44Z</time></trkpt><trkpt lat="42.04709017461155" lon="13.125514869636767"><ele>1089.0</ele><time>2026-04-12T09:09:45Z</time></trkpt><trkpt lat="42.04717763107417" lon="13.125548890269107"><ele>1089.0</ele><time>2026-04-12T09:09:46Z</time></trkpt><trkpt lat="42.04724529054241" lon="13.125559068692274"><ele>1089.0</ele><time>2026-04-12T09:09:47Z</time></trkpt><trkpt lat="42.04735025972537" lon="13.125573984783752"><ele>1089.0</ele><time>2026-04-12T09:09:49Z</time></trkpt><trkpt lat="42.047348576549716" lon="13.12574294234824"><ele>1089.0</ele><time>2026-04-12T09:09:51Z</time></trkpt><trkpt lat="42.04733593438957" lon="13.125900633135911"><ele>1089.0</ele><time>2026-04-12T09:09:53Z</time></trkpt><trkpt lat="42.047320578723514" lon="13.125986532644328"><ele>1089.0</ele><time>2026-04-12T09:09:54Z</time></trkpt><trkpt lat="42.047344957159375" lon="13.126194416106287"><ele>1090.6000000000001</ele><time>2026-04-12T09:09:56Z</time></trkpt><trkpt lat="42.04737450794042" lon="13.126289098687492"><ele>1092.2</ele><time>2026-04-12T09:09:57Z</time></trkpt><trkpt lat="42.04743152771271" lon="13.126365474637018"><ele>1093.8000000000002</ele><time>2026-04-12T09:09:58Z</time></trkpt><trkpt lat="42.04749830319304" lon="13.126444214187693"><ele>1095.4</ele><time>2026-04-12T09:09:59Z</time></trkpt><trkpt lat="42.047584657647214" lon="13.126512969679053"><ele>1097.0</ele><time>2026-04-12T09:10:00Z</time></trkpt><trkpt lat="42.0476877887729" lon="13.126568887481536"><ele>1100.4</ele><time>2026-04-12T09:10:01Z</time></trkpt><trkpt lat="42.04780360475258" lon="13.126635900412944"><ele>1103.8000000000002</ele><time>2026-04-12T09:10:02Z</time></trkpt><trkpt lat="42.04793480291886" lon="13.12666103382954"><ele>1107.2</ele><time>2026-04-12T09:10:03Z</time></trkpt><trkpt lat="42.048026489847864" lon="13.126722193248014"><ele>1110.6000000000001</ele><time>2026-04-12T09:10:04Z</time></trkpt><trkpt lat="42.048102182635624" lon="13.126735617237715"><ele>1114.0</ele><time>2026-04-12T09:10:05Z</time></trkpt><trkpt lat="42.048164708494795" lon="13.126840037617745"><ele>1114.0</ele><time>2026-04-12T09:10:07Z</time></trkpt><trkpt lat="42.04817675156712" lon="13.126939798966152"><ele>1114.0</ele><time>2026-04-12T09:10:09Z</time></trkpt><trkpt lat="42.048154925383464" lon="13.12706576308315"><ele>1114.0</ele><time>2026-04-12T09:10:11Z</time></trkpt><trkpt lat="42.04809713625052" lon="13.12723675168076"><ele>1114.0</ele><time>2026-04-12T09:10:13Z</time></trkpt><trkpt lat="42.04804389722959" lon="13.127322934126646"><ele>1114.0</ele><time>2026-04-12T09:10:14Z</time></trkpt><trkpt lat="42.04802840896689" lon="13.127450369719027"><ele>1114.2</ele><time>2026-04-12T09:10:15Z</time></trkpt><trkpt lat="42.04800467142976" lon="13.127595463392652"><ele>1114.4</ele><time>2026-04-12T09:10:16Z</time></trkpt><trkpt lat="42.04798078178637" lon="13.127724842702396"><ele>1114.6</ele><time>2026-04-12T09:10:17Z</time></trkpt><trkpt lat="42.04795506884454" lon="13.127817956698998"><ele>1114.8</ele><time>2026-04-12T09:10:18Z</time></trkpt><trkpt lat="42.047847785307845" lon="13.127873329421291"><ele>1115.0</ele><time>2026-04-12T09:10:20Z</time></trkpt><trkpt lat="42.04778372785906" lon="13.127905711060748"><ele>1115.0</ele><time>2026-04-12T09:10:21Z</time></trkpt><trkpt lat="42.047717982811946" lon="13.127956518232866"><ele>1115.0</ele><time>2026-04-12T09:10:22Z</time></trkpt><trkpt lat="42.04764168669125" lon="13.12799165111287"><ele>1115.0</ele><time>2026-04-12T09:10:23Z</time></trkpt><trkpt lat="42.047577597914355" lon="13.128060201484663"><ele>1115.0</ele><time>2026-04-12T09:10:24Z</time></trkpt><trkpt lat="42.04753654759549" lon="13.128163423106773"><ele>1115.0</ele><time>2026-04-12T09:10:25Z</time></trkpt><trkpt lat="42.04752254524988" lon="13.128288360785044"><ele>1115.0</ele><time>2026-04-12T09:10:26Z</time></trkpt><trkpt lat="42.04753197665808" lon="13.12841467577976"><ele>1117.0</ele><time>2026-04-12T09:10:26.999Z</time></trkpt><trkpt lat="42.04754701924519" lon="13.128562551167901"><ele>1119.0</ele><time>2026-04-12T09:10:27.999Z</time></trkpt><trkpt lat="42.04755928858155" lon="13.128722677474174"><ele>1121.0</ele><time>2026-04-12T09:10:28.999Z</time></trkpt><trkpt lat="42.047544947417386" lon="13.128886036698933"><ele>1123.0</ele><time>2026-04-12T09:10:29.999Z</time></trkpt><trkpt lat="42.047558349506176" lon="13.129058733904571"><ele>1123.8</ele><time>2026-04-12T09:10:30.999Z</time></trkpt><trkpt lat="42.04755397244298" lon="13.129221991810326"><ele>1124.6</ele><time>2026-04-12T09:10:31.999Z</time></trkpt><trkpt lat="42.04755162788898" lon="13.129356106347128"><ele>1125.4</ele><time>2026-04-12T09:10:32.999Z</time></trkpt><trkpt lat="42.04756114544461" lon="13.129488681266697"><ele>1126.2</ele><time>2026-04-12T09:10:33.999Z</time></trkpt><trkpt lat="42.04756207133988" lon="13.129649215083113"><ele>1127.0</ele><time>2026-04-12T09:10:35.999Z</time></trkpt><trkpt lat="42.04753861775227" lon="13.129743258765096"><ele>1127.0</ele><time>2026-04-12T09:10:36.999Z</time></trkpt><trkpt lat="42.04747079258156" lon="13.129809503651904"><ele>1127.0</ele><time>2026-04-12T09:10:37.999Z</time></trkpt><trkpt lat="42.04740396340745" lon="13.129886348637667"><ele>1127.0</ele><time>2026-04-12T09:10:38.999Z</time></trkpt><trkpt lat="42.047342852498176" lon="13.12997698980181"><ele>1127.0</ele><time>2026-04-12T09:10:39.999Z</time></trkpt><trkpt lat="42.04728073408072" lon="13.130088359968829"><ele>1127.0</ele><time>2026-04-12T09:10:40.999Z</time></trkpt><trkpt lat="42.04721926261578" lon="13.130213883535031"><ele>1127.5</ele><time>2026-04-12T09:10:41.999Z</time></trkpt><trkpt lat="42.047170358234" lon="13.130357937789643"><ele>1128.0</ele><time>2026-04-12T09:10:42.999Z</time></trkpt><trkpt lat="42.04710319076489" lon="13.130492587981905"><ele>1128.5</ele><time>2026-04-12T09:10:43.999Z</time></trkpt><trkpt lat="42.04703454848716" lon="13.130633984607678"><ele>1129.0</ele><time>2026-04-12T09:10:44.999Z</time></trkpt><trkpt lat="42.04694846931996" lon="13.130763839223953"><ele>1129.0</ele><time>2026-04-12T09:10:45.999Z</time></trkpt><trkpt lat="42.04688877479172" lon="13.130888829459527"><ele>1129.0</ele><time>2026-04-12T09:10:46.999Z</time></trkpt><trkpt lat="42.04679881802467" lon="13.130982107407268"><ele>1129.0</ele><time>2026-04-12T09:10:47.999Z</time></trkpt><trkpt lat="42.04673834838935" lon="13.131081718363943"><ele>1129.0</ele><time>2026-04-12T09:10:48.999Z</time></trkpt><trkpt lat="42.04669372236992" lon="13.131183162471194"><ele>1129.0</ele><time>2026-04-12T09:10:49.999Z</time></trkpt><trkpt lat="42.04666404576066" lon="13.131327335895863"><ele>1125.75</ele><time>2026-04-12T09:10:50.999Z</time></trkpt><trkpt lat="42.0466219396796" lon="13.131478675782835"><ele>1122.5</ele><time>2026-04-12T09:10:51.999Z</time></trkpt><trkpt lat="42.04658186883108" lon="13.131639597219458"><ele>1119.25</ele><time>2026-04-12T09:10:52.999Z</time></trkpt><trkpt lat="42.046549045283186" lon="13.131804694939541"><ele>1116.0</ele><time>2026-04-12T09:10:53.999Z</time></trkpt><trkpt lat="42.046556352611724" lon="13.13196308891995"><ele>1115.8</ele><time>2026-04-12T09:10:54.999Z</time></trkpt><trkpt lat="42.04655755466692" lon="13.13211116126888"><ele>1115.6</ele><time>2026-04-12T09:10:55.999Z</time></trkpt><trkpt lat="42.04655382321332" lon="13.13224464152836"><ele>1115.4</ele><time>2026-04-12T09:10:56.999Z</time></trkpt><trkpt lat="42.04653088232294" lon="13.132371398860672"><ele>1115.2</ele><time>2026-04-12T09:10:57.999Z</time></trkpt><trkpt lat="42.04646288109081" lon="13.132462814083015"><ele>1115.0</ele><time>2026-04-12T09:10:58.999Z</time></trkpt><trkpt lat="42.046395810857604" lon="13.132555078660271"><ele>1116.4</ele><time>2026-04-12T09:10:59.999Z</time></trkpt><trkpt lat="42.04635547847118" lon="13.13268402184419"><ele>1117.8</ele><time>2026-04-12T09:11:00.999Z</time></trkpt><trkpt lat="42.04630461457256" lon="13.132816266924298"><ele>1119.2</ele><time>2026-04-12T09:11:01.999Z</time></trkpt><trkpt lat="42.04628073513452" lon="13.132954915292512"><ele>1120.6</ele><time>2026-04-12T09:11:02.999Z</time></trkpt><trkpt lat="42.04627310120251" lon="13.13310650285822"><ele>1122.0</ele><time>2026-04-12T09:11:03.999Z</time></trkpt><trkpt lat="42.04626331934655" lon="13.133267818245317"><ele>1124.0</ele><time>2026-04-12T09:11:04.999Z</time></trkpt><trkpt lat="42.046237923181074" lon="13.13342737779357"><ele>1126.0</ele><time>2026-04-12T09:11:05.999Z</time></trkpt><trkpt lat="42.046240590797865" lon="13.133593537125732"><ele>1128.0</ele><time>2026-04-12T09:11:06.999Z</time></trkpt><trkpt lat="42.0462360312922" lon="13.133747143613132"><ele>1130.0</ele><time>2026-04-12T09:11:07.999Z</time></trkpt><trkpt lat="42.04624190675203" lon="13.133879498590746"><ele>1130.0</ele><time>2026-04-12T09:11:08.999Z</time></trkpt><trkpt lat="42.04626335188892" lon="13.134015903959225"><ele>1130.0</ele><time>2026-04-12T09:11:09.999Z</time></trkpt><trkpt lat="42.04628905924834" lon="13.134155884201792"><ele>1130.0</ele><time>2026-04-12T09:11:10.999Z</time></trkpt><trkpt lat="42.04631286184397" lon="13.134309742223152"><ele>1130.0</ele><time>2026-04-12T09:11:11.999Z</time></trkpt><trkpt lat="42.046332810599985" lon="13.134468949550572"><ele>1130.0</ele><time>2026-04-12T09:11:12.999Z</time></trkpt><trkpt lat="42.04635881263187" lon="13.134631462539604"><ele>1130.2</ele><time>2026-04-12T09:11:13.999Z</time></trkpt><trkpt lat="42.04638579452112" lon="13.13478628947275"><ele>1130.4</ele><time>2026-04-12T09:11:14.999Z</time></trkpt><trkpt lat="42.04639879620539" lon="13.134907028737961"><ele>1130.6</ele><time>2026-04-12T09:11:15.999Z</time></trkpt><trkpt lat="42.04638607811318" lon="13.135011299627786"><ele>1130.8</ele><time>2026-04-12T09:11:16.999Z</time></trkpt><trkpt lat="42.04638806304395" lon="13.135127671993724"><ele>1131.0</ele><time>2026-04-12T09:11:17.999Z</time></trkpt><trkpt lat="42.04639619991378" lon="13.135259823714822"><ele>1131.6</ele><time>2026-04-12T09:11:18.999Z</time></trkpt><trkpt lat="42.04639304944265" lon="13.135401699007929"><ele>1132.1999999999998</ele><time>2026-04-12T09:11:19.999Z</time></trkpt><trkpt lat="42.046409334660034" lon="13.13553184728752"><ele>1132.8000000000002</ele><time>2026-04-12T09:11:20.998Z</time></trkpt><trkpt lat="42.04643616019713" lon="13.135677251987206"><ele>1133.4</ele><time>2026-04-12T09:11:21.998Z</time></trkpt><trkpt lat="42.0464731222839" lon="13.1358198587066"><ele>1134.0</ele><time>2026-04-12T09:11:22.998Z</time></trkpt><trkpt lat="42.04650127660179" lon="13.135984435398663"><ele>1135.75</ele><time>2026-04-12T09:11:23.998Z</time></trkpt><trkpt lat="42.046511289849285" lon="13.136164086970092"><ele>1137.5</ele><time>2026-04-12T09:11:24.998Z</time></trkpt><trkpt lat="42.04654732872675" lon="13.136319239001956"><ele>1139.25</ele><time>2026-04-12T09:11:25.998Z</time></trkpt><trkpt lat="42.04655498527818" lon="13.136461709932288"><ele>1141.0</ele><time>2026-04-12T09:11:26.998Z</time></trkpt><trkpt lat="42.04657497587675" lon="13.136595973779496"><ele>1142.8</ele><time>2026-04-12T09:11:27.998Z</time></trkpt><trkpt lat="42.04657425652563" lon="13.136743195955406"><ele>1144.6</ele><time>2026-04-12T09:11:28.998Z</time></trkpt><trkpt lat="42.04654563803302" lon="13.136877567262031"><ele>1146.4</ele><time>2026-04-12T09:11:29.998Z</time></trkpt><trkpt lat="42.04652124709452" lon="13.137002468782583"><ele>1148.2</ele><time>2026-04-12T09:11:30.998Z</time></trkpt><trkpt lat="42.04648483349619" lon="13.137139182196858"><ele>1150.0</ele><time>2026-04-12T09:11:31.998Z</time></trkpt><trkpt lat="42.04646509633632" lon="13.13728883166762"><ele>1151.3333333333333</ele><time>2026-04-12T09:11:32.998Z</time></trkpt><trkpt lat="42.04643438445475" lon="13.13740462149246"><ele>1152.6666666666665</ele><time>2026-04-12T09:11:33.998Z</time></trkpt><trkpt lat="42.04641220420688" lon="13.13748459198286"><ele>1154.0</ele><time>2026-04-12T09:11:34.998Z</time></trkpt><trkpt lat="42.046446519588805" lon="13.137616814024984"><ele>1155.3333333333333</ele><time>2026-04-12T09:11:36.998Z</time></trkpt><trkpt lat="42.04649532288319" lon="13.13769071814246"><ele>1156.6666666666667</ele><time>2026-04-12T09:11:38.998Z</time></trkpt><trkpt lat="42.04660322347934" lon="13.137692975211555"><ele>1158.0</ele><time>2026-04-12T09:11:41Z</time></trkpt><trkpt lat="42.04664502967031" lon="13.137526998634273"><ele>1160.6666666666667</ele><time>2026-04-12T09:11:43Z</time></trkpt><trkpt lat="42.046661650623996" lon="13.137425286470224"><ele>1163.3333333333333</ele><time>2026-04-12T09:11:44Z</time></trkpt><trkpt lat="42.04668599361823" lon="13.137316933808634"><ele>1166.0</ele><time>2026-04-12T09:11:45Z</time></trkpt><trkpt lat="42.04671377719932" lon="13.137226114542665"><ele>1168.6666666666665</ele><time>2026-04-12T09:11:46Z</time></trkpt><trkpt lat="42.046742332750895" lon="13.13714260695451"><ele>1171.3333333333333</ele><time>2026-04-12T09:11:47Z</time></trkpt><trkpt lat="42.04677555701097" lon="13.137054647528467"><ele>1174.0</ele><time>2026-04-12T09:11:48Z</time></trkpt><trkpt lat="42.046799037572725" lon="13.136954982890034"><ele>1174.0</ele><time>2026-04-12T09:11:49Z</time></trkpt><trkpt lat="42.04685748242102" lon="13.136882584618315"><ele>1174.0</ele><time>2026-04-12T09:11:50Z</time></trkpt><trkpt lat="42.04689935457157" lon="13.13677397897015"><ele>1174.0</ele><time>2026-04-12T09:11:51Z</time></trkpt><trkpt lat="42.04694468007311" lon="13.136683016427684"><ele>1174.0</ele><time>2026-04-12T09:11:52Z</time></trkpt><trkpt lat="42.046986919882436" lon="13.136610113507892"><ele>1174.0</ele><time>2026-04-12T09:11:53Z</time></trkpt><trkpt lat="42.04700771758025" lon="13.13650532448014"><ele>1174.0</ele><time>2026-04-12T09:11:54Z</time></trkpt><trkpt lat="42.04701638936256" lon="13.136385532320634"><ele>1174.0</ele><time>2026-04-12T09:11:55Z</time></trkpt><trkpt lat="42.047015811812955" lon="13.136277886913785"><ele>1174.0</ele><time>2026-04-12T09:11:56Z</time></trkpt><trkpt lat="42.04700497866579" lon="13.136152989514557"><ele>1174.0</ele><time>2026-04-12T09:11:57Z</time></trkpt><trkpt lat="42.04701426501873" lon="13.13602575943964"><ele>1174.0</ele><time>2026-04-12T09:11:58Z</time></trkpt><trkpt lat="42.04701346995549" lon="13.135896163743011"><ele>1174.0</ele><time>2026-04-12T09:11:59Z</time></trkpt><trkpt lat="42.04701256591069" lon="13.135748804798713"><ele>1174.4</ele><time>2026-04-12T09:12:00Z</time></trkpt><trkpt lat="42.047013552629046" lon="13.135601874614037"><ele>1174.8000000000002</ele><time>2026-04-12T09:12:01Z</time></trkpt><trkpt lat="42.04701966558391" lon="13.135458811190523"><ele>1175.1999999999998</ele><time>2026-04-12T09:12:02Z</time></trkpt><trkpt lat="42.04702759841879" lon="13.135304120872071"><ele>1175.6</ele><time>2026-04-12T09:12:03Z</time></trkpt><trkpt lat="42.04701862429428" lon="13.135148681987939"><ele>1176.0</ele><time>2026-04-12T09:12:04Z</time></trkpt><trkpt lat="42.047038734498805" lon="13.135047456295025"><ele>1176.0</ele><time>2026-04-12T09:12:05Z</time></trkpt><trkpt lat="42.047043517655574" lon="13.134946111594529"><ele>1176.0</ele><time>2026-04-12T09:12:06Z</time></trkpt><trkpt lat="42.047040463394566" lon="13.134848681624838"><ele>1176.0</ele><time>2026-04-12T09:12:07Z</time></trkpt><trkpt lat="42.04706530684095" lon="13.134726292414053"><ele>1176.0</ele><time>2026-04-12T09:12:08Z</time></trkpt><trkpt lat="42.047095326895075" lon="13.134601730626514"><ele>1176.0</ele><time>2026-04-12T09:12:09Z</time></trkpt><trkpt lat="42.04713593953216" lon="13.134474788669296"><ele>1176.0</ele><time>2026-04-12T09:12:10Z</time></trkpt><trkpt lat="42.04718535367482" lon="13.134333007509143"><ele>1175.2</ele><time>2026-04-12T09:12:11Z</time></trkpt><trkpt lat="42.047227844310434" lon="13.134183800015672"><ele>1174.3999999999999</ele><time>2026-04-12T09:12:12Z</time></trkpt><trkpt lat="42.04726235751151" lon="13.134065936154663"><ele>1173.6</ele><time>2026-04-12T09:12:13Z</time></trkpt><trkpt lat="42.047299624716814" lon="13.133969452790767"><ele>1172.8</ele><time>2026-04-12T09:12:14Z</time></trkpt><trkpt lat="42.047343524377425" lon="13.133850936238817"><ele>1172.0</ele><time>2026-04-12T09:12:15Z</time></trkpt><trkpt lat="42.047427801126645" lon="13.133766438478567"><ele>1177.25</ele><time>2026-04-12T09:12:16Z</time></trkpt><trkpt lat="42.04751609822358" lon="13.133693156927933"><ele>1182.5</ele><time>2026-04-12T09:12:17Z</time></trkpt><trkpt lat="42.04761472880793" lon="13.133623154226623"><ele>1187.75</ele><time>2026-04-12T09:12:18Z</time></trkpt><trkpt lat="42.047709912179656" lon="13.133538256820293"><ele>1193.0</ele><time>2026-04-12T09:12:19Z</time></trkpt><trkpt lat="42.047818221017025" lon="13.13346455670941"><ele>1193.0</ele><time>2026-04-12T09:12:20Z</time></trkpt><trkpt lat="42.04792315852463" lon="13.133394132259909"><ele>1193.0</ele><time>2026-04-12T09:12:21Z</time></trkpt><trkpt lat="42.04803859292992" lon="13.13330672690674"><ele>1193.0</ele><time>2026-04-12T09:12:22Z</time></trkpt><trkpt lat="42.048150290272105" lon="13.133209205865349"><ele>1193.0</ele><time>2026-04-12T09:12:23Z</time></trkpt><trkpt lat="42.04825170295605" lon="13.13312090167714"><ele>1194.0</ele><time>2026-04-12T09:12:24Z</time></trkpt><trkpt lat="42.04834510412492" lon="13.133003647031694"><ele>1195.0</ele><time>2026-04-12T09:12:25Z</time></trkpt><trkpt lat="42.04842641982398" lon="13.132904975893261"><ele>1196.0</ele><time>2026-04-12T09:12:26Z</time></trkpt><trkpt lat="42.04852687095009" lon="13.132797659162916"><ele>1197.0</ele><time>2026-04-12T09:12:27Z</time></trkpt><trkpt lat="42.04863118233932" lon="13.132682371565751"><ele>1197.0</ele><time>2026-04-12T09:12:27.999Z</time></trkpt><trkpt lat="42.048749871722016" lon="13.132573378973241"><ele>1197.0</ele><time>2026-04-12T09:12:28.999Z</time></trkpt><trkpt lat="42.0488691857284" lon="13.132466089340792"><ele>1197.0</ele><time>2026-04-12T09:12:29.999Z</time></trkpt><trkpt lat="42.048963229663826" lon="13.132377711977599"><ele>1197.0</ele><time>2026-04-12T09:12:30.999Z</time></trkpt><trkpt lat="42.04904773001626" lon="13.132334753611252"><ele>1196.1666666666667</ele><time>2026-04-12T09:12:31.999Z</time></trkpt><trkpt lat="42.04911786123666" lon="13.132291327624236"><ele>1195.3333333333333</ele><time>2026-04-12T09:12:32.999Z</time></trkpt><trkpt lat="42.04918909831489" lon="13.132240731694752"><ele>1194.5</ele><time>2026-04-12T09:12:33.999Z</time></trkpt><trkpt lat="42.049282591569735" lon="13.132221134725118"><ele>1193.6666666666665</ele><time>2026-04-12T09:12:34.999Z</time></trkpt><trkpt lat="42.04936806009076" lon="13.132173549971142"><ele>1192.8333333333333</ele><time>2026-04-12T09:12:35.999Z</time></trkpt><trkpt lat="42.04946714054397" lon="13.132141999138318"><ele>1192.0</ele><time>2026-04-12T09:12:36.999Z</time></trkpt><trkpt lat="42.04957258779678" lon="13.132116024505638"><ele>1192.0</ele><time>2026-04-12T09:12:37.999Z</time></trkpt><trkpt lat="42.049673228071185" lon="13.132097505953181"><ele>1192.0</ele><time>2026-04-12T09:12:38.999Z</time></trkpt><trkpt lat="42.04979368425221" lon="13.132069837102078"><ele>1192.0</ele><time>2026-04-12T09:12:39.999Z</time></trkpt><trkpt lat="42.049912487700034" lon="13.132035317655014"><ele>1192.0</ele><time>2026-04-12T09:12:40.999Z</time></trkpt><trkpt lat="42.050030766202035" lon="13.132004220643955"><ele>1195.0</ele><time>2026-04-12T09:12:41.999Z</time></trkpt><trkpt lat="42.05013181381228" lon="13.131966157829096"><ele>1198.0</ele><time>2026-04-12T09:12:42.999Z</time></trkpt><trkpt lat="42.05023632481776" lon="13.131927871269049"><ele>1201.0</ele><time>2026-04-12T09:12:43.999Z</time></trkpt><trkpt lat="42.050350923916305" lon="13.131889030876028"><ele>1204.0</ele><time>2026-04-12T09:12:44.999Z</time></trkpt><trkpt lat="42.050450261859055" lon="13.131827996727672"><ele>1207.0</ele><time>2026-04-12T09:12:45.999Z</time></trkpt><trkpt lat="42.05053047270367" lon="13.131746766131382"><ele>1207.0</ele><time>2026-04-12T09:12:46.999Z</time></trkpt><trkpt lat="42.05059647727215" lon="13.13163474776589"><ele>1207.0</ele><time>2026-04-12T09:12:47.999Z</time></trkpt><trkpt lat="42.05065451368295" lon="13.131500560929823"><ele>1207.0</ele><time>2026-04-12T09:12:48.999Z</time></trkpt><trkpt lat="42.05071663482032" lon="13.13138248638079"><ele>1207.0</ele><time>2026-04-12T09:12:49.999Z</time></trkpt><trkpt lat="42.05078404648704" lon="13.131292526553255"><ele>1207.0</ele><time>2026-04-12T09:12:50.999Z</time></trkpt><trkpt lat="42.050863786074345" lon="13.131198839410246"><ele>1209.25</ele><time>2026-04-12T09:12:51.999Z</time></trkpt><trkpt lat="42.05095112193125" lon="13.131110742209042"><ele>1211.5</ele><time>2026-04-12T09:12:52.999Z</time></trkpt><trkpt lat="42.05103092686437" lon="13.131006616594929"><ele>1213.75</ele><time>2026-04-12T09:12:53.999Z</time></trkpt><trkpt lat="42.05113894853494" lon="13.130930914322018"><ele>1216.0</ele><time>2026-04-12T09:12:54.999Z</time></trkpt><trkpt lat="42.051235557507745" lon="13.130820037447792"><ele>1217.25</ele><time>2026-04-12T09:12:55.999Z</time></trkpt><trkpt lat="42.05132005609526" lon="13.130711321336229"><ele>1218.5</ele><time>2026-04-12T09:12:56.999Z</time></trkpt><trkpt lat="42.05141278634534" lon="13.13060089180876"><ele>1219.75</ele><time>2026-04-12T09:12:57.999Z</time></trkpt><trkpt lat="42.051508659278824" lon="13.130490910159818"><ele>1221.0</ele><time>2026-04-12T09:12:58.999Z</time></trkpt><trkpt lat="42.05162663702066" lon="13.130397747210443"><ele>1221.0</ele><time>2026-04-12T09:12:59.999Z</time></trkpt><trkpt lat="42.05172154071192" lon="13.13029343734722"><ele>1221.0</ele><time>2026-04-12T09:13:00.999Z</time></trkpt><trkpt lat="42.0518079069576" lon="13.130211758239676"><ele>1221.0</ele><time>2026-04-12T09:13:01.999Z</time></trkpt><trkpt lat="42.051880850543405" lon="13.130111562752253"><ele>1221.0</ele><time>2026-04-12T09:13:02.999Z</time></trkpt><trkpt lat="42.05194516590399" lon="13.130013770611997"><ele>1221.0</ele><time>2026-04-12T09:13:03.999Z</time></trkpt><trkpt lat="42.052015058321196" lon="13.129902156057108"><ele>1218.8</ele><time>2026-04-12T09:13:04.999Z</time></trkpt><trkpt lat="42.05208666473724" lon="13.129782155609345"><ele>1216.6</ele><time>2026-04-12T09:13:05.999Z</time></trkpt><trkpt lat="42.05214973400231" lon="13.129643314910188"><ele>1214.4</ele><time>2026-04-12T09:13:06.999Z</time></trkpt><trkpt lat="42.052189844890215" lon="13.129510846182923"><ele>1212.2</ele><time>2026-04-12T09:13:07.999Z</time></trkpt><trkpt lat="42.05220600287814" lon="13.129367670444202"><ele>1210.0</ele><time>2026-04-12T09:13:08.999Z</time></trkpt><trkpt lat="42.05220995879948" lon="13.129233037687502"><ele>1210.0</ele><time>2026-04-12T09:13:09.999Z</time></trkpt><trkpt lat="42.05221590600741" lon="13.129097012636812"><ele>1210.0</ele><time>2026-04-12T09:13:10.999Z</time></trkpt><trkpt lat="42.052246925346125" lon="13.128958951468206"><ele>1210.0</ele><time>2026-04-12T09:13:11.999Z</time></trkpt><trkpt lat="42.05227378674028" lon="13.128843809285936"><ele>1210.0</ele><time>2026-04-12T09:13:12.999Z</time></trkpt><trkpt lat="42.05229352292391" lon="13.128727658579429"><ele>1210.0</ele><time>2026-04-12T09:13:13.999Z</time></trkpt><trkpt lat="42.052330659653016" lon="13.128610525174263"><ele>1208.0</ele><time>2026-04-12T09:13:14.999Z</time></trkpt><trkpt lat="42.05236834180696" lon="13.128539507212846"><ele>1206.0</ele><time>2026-04-12T09:13:15.999Z</time></trkpt><trkpt lat="42.052444589314135" lon="13.128424737962197"><ele>1204.0</ele><time>2026-04-12T09:13:17.999Z</time></trkpt><trkpt lat="42.05250853751515" lon="13.128427396561632"><ele>1202.0</ele><time>2026-04-12T09:13:18.999Z</time></trkpt><trkpt lat="42.05258264066475" lon="13.128553802892444"><ele>1200.0</ele><time>2026-04-12T09:13:20.999Z</time></trkpt><trkpt lat="42.05256392861339" lon="13.128671692382333"><ele>1207.6</ele><time>2026-04-12T09:13:21.999Z</time></trkpt><trkpt lat="42.052594478297074" lon="13.128791498471756"><ele>1215.2</ele><time>2026-04-12T09:13:22.998Z</time></trkpt><trkpt lat="42.052615880397724" lon="13.1289198637294"><ele>1222.8</ele><time>2026-04-12T09:13:23.998Z</time></trkpt><trkpt lat="42.05266418945788" lon="13.129030220631908"><ele>1230.4</ele><time>2026-04-12T09:13:24.998Z</time></trkpt><trkpt lat="42.0527347892232" lon="13.129130098805499"><ele>1238.0</ele><time>2026-04-12T09:13:25.998Z</time></trkpt><trkpt lat="42.052832248953564" lon="13.129193820051567"><ele>1238.4</ele><time>2026-04-12T09:13:26.998Z</time></trkpt><trkpt lat="42.0529221902301" lon="13.129281703680421"><ele>1238.8</ele><time>2026-04-12T09:13:27.998Z</time></trkpt><trkpt lat="42.05303173138178" lon="13.129332189266753"><ele>1239.2</ele><time>2026-04-12T09:13:28.998Z</time></trkpt><trkpt lat="42.053134534954815" lon="13.129360107979814"><ele>1239.6</ele><time>2026-04-12T09:13:29.998Z</time></trkpt><trkpt lat="42.05323665975495" lon="13.129340919187845"><ele>1240.0</ele><time>2026-04-12T09:13:30.998Z</time></trkpt><trkpt lat="42.05332077635828" lon="13.129351729209999"><ele>1240.4</ele><time>2026-04-12T09:13:31.998Z</time></trkpt><trkpt lat="42.053387459782314" lon="13.129356804705948"><ele>1240.8</ele><time>2026-04-12T09:13:32.998Z</time></trkpt><trkpt lat="42.053497794584445" lon="13.1294480415115"><ele>1241.2</ele><time>2026-04-12T09:13:34.998Z</time></trkpt><trkpt lat="42.05353693887604" lon="13.129557603730373"><ele>1241.6</ele><time>2026-04-12T09:13:35.998Z</time></trkpt><trkpt lat="42.05358894590901" lon="13.129649603819288"><ele>1242.0</ele><time>2026-04-12T09:13:36.998Z</time></trkpt><trkpt lat="42.053635572114146" lon="13.12974116927221"><ele>1242.0</ele><time>2026-04-12T09:13:37.998Z</time></trkpt><trkpt lat="42.0536687636229" lon="13.12984564001435"><ele>1242.0</ele><time>2026-04-12T09:13:38.998Z</time></trkpt><trkpt lat="42.05369437555736" lon="13.129966225490117"><ele>1242.0</ele><time>2026-04-12T09:13:39.998Z</time></trkpt><trkpt lat="42.05372438328499" lon="13.130109598895842"><ele>1242.0</ele><time>2026-04-12T09:13:40.998Z</time></trkpt><trkpt lat="42.05375263247106" lon="13.130241957667293"><ele>1242.0</ele><time>2026-04-12T09:13:41.998Z</time></trkpt><trkpt lat="42.0537865568807" lon="13.13038674504306"><ele>1247.6</ele><time>2026-04-12T09:13:42.998Z</time></trkpt><trkpt lat="42.053816768712935" lon="13.130515687403097"><ele>1253.2</ele><time>2026-04-12T09:13:43.998Z</time></trkpt><trkpt lat="42.05384353947009" lon="13.130645578505113"><ele>1258.8</ele><time>2026-04-12T09:13:44.998Z</time></trkpt><trkpt lat="42.05386221959704" lon="13.130797187293956"><ele>1264.4</ele><time>2026-04-12T09:13:45.998Z</time></trkpt><trkpt lat="42.05384630191315" lon="13.130939399319125"><ele>1270.0</ele><time>2026-04-12T09:13:47Z</time></trkpt><trkpt lat="42.05383292775196" lon="13.131075237159557"><ele>1274.0</ele><time>2026-04-12T09:13:48Z</time></trkpt><trkpt lat="42.05381246136243" lon="13.13121636133414"><ele>1278.0</ele><time>2026-04-12T09:13:49Z</time></trkpt><trkpt lat="42.05381637042569" lon="13.131344398896148"><ele>1282.0</ele><time>2026-04-12T09:13:50Z</time></trkpt><trkpt lat="42.053879737889154" lon="13.131454671576106"><ele>1286.0</ele><time>2026-04-12T09:13:51Z</time></trkpt><trkpt lat="42.05392306840098" lon="13.131575177284583"><ele>1290.0</ele><time>2026-04-12T09:13:52Z</time></trkpt><trkpt lat="42.05397778412859" lon="13.131677798299771"><ele>1291.8</ele><time>2026-04-12T09:13:53Z</time></trkpt><trkpt lat="42.053999825862505" lon="13.13185818524014"><ele>1293.6</ele><time>2026-04-12T09:13:55Z</time></trkpt><trkpt lat="42.05397345179606" lon="13.131969953448474"><ele>1295.4</ele><time>2026-04-12T09:13:56Z</time></trkpt><trkpt lat="42.05395033766046" lon="13.132110796295118"><ele>1297.2</ele><time>2026-04-12T09:13:57Z</time></trkpt><trkpt lat="42.05397230278958" lon="13.13226584189229"><ele>1299.0</ele><time>2026-04-12T09:13:58Z</time></trkpt><trkpt lat="42.05399976499804" lon="13.132407138500996"><ele>1300.3333333333333</ele><time>2026-04-12T09:13:59Z</time></trkpt><trkpt lat="42.05404384674277" lon="13.13252620124408"><ele>1301.6666666666667</ele><time>2026-04-12T09:14:00Z</time></trkpt><trkpt lat="42.054091694344336" lon="13.132602265812194"><ele>1303.0</ele><time>2026-04-12T09:14:01Z</time></trkpt><trkpt lat="42.05413954231597" lon="13.132678470834241"><ele>1304.3333333333335</ele><time>2026-04-12T09:14:02Z</time></trkpt><trkpt lat="42.05416894847969" lon="13.1327609827919"><ele>1305.6666666666667</ele><time>2026-04-12T09:14:03Z</time></trkpt><trkpt lat="42.05416056502667" lon="13.132863114762992"><ele>1307.0</ele><time>2026-04-12T09:14:04Z</time></trkpt><trkpt lat="42.05410236924023" lon="13.132965641867854"><ele>1307.0</ele><time>2026-04-12T09:14:05Z</time></trkpt><trkpt lat="42.05406057205093" lon="13.133068377709769"><ele>1307.0</ele><time>2026-04-12T09:14:06Z</time></trkpt><trkpt lat="42.05401460087338" lon="13.133185539530091"><ele>1307.0</ele><time>2026-04-12T09:14:07Z</time></trkpt><trkpt lat="42.053986320340826" lon="13.13331013244584"><ele>1307.0</ele><time>2026-04-12T09:14:08Z</time></trkpt><trkpt lat="42.053943346966285" lon="13.133443814431088"><ele>1307.0</ele><time>2026-04-12T09:14:09Z</time></trkpt><trkpt lat="42.05391554706418" lon="13.133599735359125"><ele>1306.25</ele><time>2026-04-12T09:14:10Z</time></trkpt><trkpt lat="42.053896031536674" lon="13.133768930711707"><ele>1305.5</ele><time>2026-04-12T09:14:11Z</time></trkpt><trkpt lat="42.053886219114766" lon="13.133922491209459"><ele>1304.75</ele><time>2026-04-12T09:14:12Z</time></trkpt><trkpt lat="42.05388632074421" lon="13.13408409137455"><ele>1304.0</ele><time>2026-04-12T09:14:13Z</time></trkpt><trkpt lat="42.053900443880345" lon="13.134244340785438"><ele>1303.0</ele><time>2026-04-12T09:14:14Z</time></trkpt><trkpt lat="42.05388754604037" lon="13.13436714364447"><ele>1302.0</ele><time>2026-04-12T09:14:15Z</time></trkpt><trkpt lat="42.05388034978818" lon="13.134478062650727"><ele>1301.0</ele><time>2026-04-12T09:14:16Z</time></trkpt><trkpt lat="42.05385540685049" lon="13.134626099304809"><ele>1300.0</ele><time>2026-04-12T09:14:17Z</time></trkpt><trkpt lat="42.05381373490144" lon="13.134769554592982"><ele>1299.0</ele><time>2026-04-12T09:14:18Z</time></trkpt><trkpt lat="42.05377040750493" lon="13.134914633167433"><ele>1298.75</ele><time>2026-04-12T09:14:19Z</time></trkpt><trkpt lat="42.053736443047896" lon="13.135063085700367"><ele>1298.5</ele><time>2026-04-12T09:14:20Z</time></trkpt><trkpt lat="42.05374796185988" lon="13.135232340567645"><ele>1298.25</ele><time>2026-04-12T09:14:21Z</time></trkpt><trkpt lat="42.05372053130998" lon="13.135391922500173"><ele>1298.0</ele><time>2026-04-12T09:14:22Z</time></trkpt><trkpt lat="42.05367478650498" lon="13.135526512432198"><ele>1298.0</ele><time>2026-04-12T09:14:23Z</time></trkpt><trkpt lat="42.053645121010895" lon="13.13563683448707"><ele>1298.0</ele><time>2026-04-12T09:14:24Z</time></trkpt><trkpt lat="42.05362158120479" lon="13.135724378958033"><ele>1298.0</ele><time>2026-04-12T09:14:25Z</time></trkpt><trkpt lat="42.05359530477859" lon="13.13587780212591"><ele>1298.0</ele><time>2026-04-12T09:14:27Z</time></trkpt><trkpt lat="42.053639588751246" lon="13.135972141997836"><ele>1298.0</ele><time>2026-04-12T09:14:28Z</time></trkpt><trkpt lat="42.05373042023167" lon="13.135978037677678"><ele>1298.0</ele><time>2026-04-12T09:14:28.999Z</time></trkpt><trkpt lat="42.05380165274139" lon="13.135986593562818"><ele>1297.8000000000002</ele><time>2026-04-12T09:14:29.999Z</time></trkpt><trkpt lat="42.05388950903226" lon="13.135956633139582"><ele>1297.6</ele><time>2026-04-12T09:14:30.999Z</time></trkpt><trkpt lat="42.05397758928931" lon="13.135897255729247"><ele>1297.4</ele><time>2026-04-12T09:14:31.999Z</time></trkpt><trkpt lat="42.05407274503729" lon="13.135857148875138"><ele>1297.1999999999998</ele><time>2026-04-12T09:14:32.999Z</time></trkpt><trkpt lat="42.05417688269235" lon="13.135787992765922"><ele>1297.0</ele><time>2026-04-12T09:14:33.999Z</time></trkpt><trkpt lat="42.05426980442821" lon="13.135711548121781"><ele>1297.0</ele><time>2026-04-12T09:14:34.999Z</time></trkpt><trkpt lat="42.05434879289051" lon="13.135666836209392"><ele>1297.0</ele><time>2026-04-12T09:14:35.999Z</time></trkpt><trkpt lat="42.05443156397091" lon="13.135648481860981"><ele>1297.0</ele><time>2026-04-12T09:14:36.999Z</time></trkpt><trkpt lat="42.05451980114656" lon="13.135679947068175"><ele>1297.0</ele><time>2026-04-12T09:14:39.999Z</time></trkpt><trkpt lat="42.054527010441845" lon="13.135823970732408"><ele>1297.0</ele><time>2026-04-12T09:14:41.999Z</time></trkpt><trkpt lat="42.05442237204839" lon="13.135891694166897"><ele>1297.0</ele><time>2026-04-12T09:14:43.999Z</time></trkpt><trkpt lat="42.05434235955651" lon="13.1359145367171"><ele>1297.0</ele><time>2026-04-12T09:14:44.999Z</time></trkpt><trkpt lat="42.054269611670435" lon="13.135956363320572"><ele>1297.0</ele><time>2026-04-12T09:14:45.999Z</time></trkpt><trkpt lat="42.0542005706343" lon="13.136003688368666"><ele>1297.0</ele><time>2026-04-12T09:14:46.999Z</time></trkpt><trkpt lat="42.05412536962378" lon="13.136082775964356"><ele>1297.0</ele><time>2026-04-12T09:14:47.999Z</time></trkpt><trkpt lat="42.05404802007281" lon="13.136177645759746"><ele>1297.0</ele><time>2026-04-12T09:14:48.999Z</time></trkpt><trkpt lat="42.05399128493824" lon="13.136264029411372"><ele>1298.5</ele><time>2026-04-12T09:14:49.999Z</time></trkpt><trkpt lat="42.05394329119214" lon="13.136336586078663"><ele>1300.0</ele><time>2026-04-12T09:14:50.999Z</time></trkpt><trkpt lat="42.05389285582375" lon="13.136508648233882"><ele>1301.5</ele><time>2026-04-12T09:14:52.999Z</time></trkpt><trkpt lat="42.05386291960808" lon="13.136597691991465"><ele>1303.0</ele><time>2026-04-12T09:14:53.999Z</time></trkpt><trkpt lat="42.05381778334452" lon="13.13667299135617"><ele>1304.5</ele><time>2026-04-12T09:14:54.999Z</time></trkpt><trkpt lat="42.05379329831887" lon="13.136765355550287"><ele>1306.0</ele><time>2026-04-12T09:14:55.999Z</time></trkpt><trkpt lat="42.053755392848835" lon="13.13685533374884"><ele>1307.1666666666665</ele><time>2026-04-12T09:14:56.999Z</time></trkpt><trkpt lat="42.05371395281894" lon="13.13694517189263"><ele>1308.3333333333333</ele><time>2026-04-12T09:14:57.999Z</time></trkpt><trkpt lat="42.053656104834914" lon="13.137013418158173"><ele>1309.5</ele><time>2026-04-12T09:14:58.999Z</time></trkpt><trkpt lat="42.05361263136308" lon="13.13709139351546"><ele>1310.6666666666667</ele><time>2026-04-12T09:14:59.999Z</time></trkpt><trkpt lat="42.05353698094815" lon="13.13723598902295"><ele>1311.8333333333335</ele><time>2026-04-12T09:15:01.999Z</time></trkpt><trkpt lat="42.053483647131046" lon="13.137295143374988"><ele>1313.0</ele><time>2026-04-12T09:15:02.999Z</time></trkpt><trkpt lat="42.05342354149973" lon="13.137368570227826"><ele>1314.1666666666667</ele><time>2026-04-12T09:15:03.999Z</time></trkpt><trkpt lat="42.05336661346913" lon="13.137437002444715"><ele>1315.3333333333335</ele><time>2026-04-12T09:15:04.999Z</time></trkpt><trkpt lat="42.053313282435994" lon="13.137506673636873"><ele>1316.5</ele><time>2026-04-12T09:15:05.999Z</time></trkpt><trkpt lat="42.05323727388773" lon="13.137562318232987"><ele>1317.6666666666667</ele><time>2026-04-12T09:15:06.999Z</time></trkpt><trkpt lat="42.05317222056186" lon="13.137654922445348"><ele>1318.8333333333333</ele><time>2026-04-12T09:15:07.999Z</time></trkpt><trkpt lat="42.05311323286387" lon="13.137762228942732"><ele>1320.0</ele><time>2026-04-12T09:15:08.999Z</time></trkpt><trkpt lat="42.05307738571151" lon="13.13787991610234"><ele>1321.8</ele><time>2026-04-12T09:15:09.999Z</time></trkpt><trkpt lat="42.05302468869416" lon="13.137999533192048"><ele>1323.6</ele><time>2026-04-12T09:15:10.999Z</time></trkpt><trkpt lat="42.05297094288042" lon="13.138133551455077"><ele>1325.4</ele><time>2026-04-12T09:15:11.999Z</time></trkpt><trkpt lat="42.05290712755997" lon="13.138232298652863"><ele>1327.2</ele><time>2026-04-12T09:15:12.999Z</time></trkpt><trkpt lat="42.05283768156002" lon="13.138312473408828"><ele>1329.0</ele><time>2026-04-12T09:15:13.999Z</time></trkpt><trkpt lat="42.0527630590706" lon="13.138376981884472"><ele>1329.3333333333333</ele><time>2026-04-12T09:15:14.999Z</time></trkpt><trkpt lat="42.052677972693125" lon="13.138435109971478"><ele>1329.6666666666667</ele><time>2026-04-12T09:15:15.999Z</time></trkpt><trkpt lat="42.05260236263889" lon="13.138504325701337"><ele>1330.0</ele><time>2026-04-12T09:15:16.999Z</time></trkpt><trkpt lat="42.052541062255365" lon="13.138569484203963"><ele>1330.3333333333335</ele><time>2026-04-12T09:15:17.999Z</time></trkpt><trkpt lat="42.05247917421077" lon="13.138655559374868"><ele>1330.6666666666667</ele><time>2026-04-12T09:15:18.999Z</time></trkpt><trkpt lat="42.052423112354816" lon="13.138756703649424"><ele>1331.0</ele><time>2026-04-12T09:15:19.999Z</time></trkpt><trkpt lat="42.05236989471992" lon="13.138863473199947"><ele>1336.4</ele><time>2026-04-12T09:15:20.999Z</time></trkpt><trkpt lat="42.05232971859357" lon="13.138996116086032"><ele>1341.8</ele><time>2026-04-12T09:15:21.999Z</time></trkpt><trkpt lat="42.05230828508062" lon="13.139122077317412"><ele>1347.2</ele><time>2026-04-12T09:15:22.999Z</time></trkpt><trkpt lat="42.05229181717327" lon="13.13925244268062"><ele>1352.6000000000001</ele><time>2026-04-12T09:15:23.999Z</time></trkpt><trkpt lat="42.05228557400772" lon="13.139399449420184"><ele>1358.0</ele><time>2026-04-12T09:15:24.998Z</time></trkpt><trkpt lat="42.052268219544125" lon="13.139553519380899"><ele>1358.0</ele><time>2026-04-12T09:15:25.998Z</time></trkpt><trkpt lat="42.05222970327633" lon="13.139715409426012"><ele>1358.0</ele><time>2026-04-12T09:15:26.998Z</time></trkpt><trkpt lat="42.052217115009945" lon="13.139886433474178"><ele>1358.0</ele><time>2026-04-12T09:15:27.998Z</time></trkpt><trkpt lat="42.05217106196567" lon="13.140042180181592"><ele>1358.0</ele><time>2026-04-12T09:15:28.998Z</time></trkpt><trkpt lat="42.05216023644743" lon="13.140172842055769"><ele>1358.0</ele><time>2026-04-12T09:15:29.998Z</time></trkpt><trkpt lat="42.05213431692055" lon="13.140298014599997"><ele>1358.0</ele><time>2026-04-12T09:15:30.998Z</time></trkpt><trkpt lat="42.052091180098316" lon="13.140430659390898"><ele>1358.0</ele><time>2026-04-12T09:15:31.998Z</time></trkpt><trkpt lat="42.05207816551267" lon="13.140548381299327"><ele>1358.0</ele><time>2026-04-12T09:15:32.998Z</time></trkpt><trkpt lat="42.05205714578604" lon="13.140651943032436"><ele>1358.0</ele><time>2026-04-12T09:15:33.998Z</time></trkpt><trkpt lat="42.05205683493738" lon="13.14079621732851"><ele>1358.0</ele><time>2026-04-12T09:15:34.998Z</time></trkpt><trkpt lat="42.052079765630204" lon="13.140958831031355"><ele>1358.0</ele><time>2026-04-12T09:15:35.998Z</time></trkpt><trkpt lat="42.05210959229968" lon="13.141105777330536"><ele>1358.0</ele><time>2026-04-12T09:15:36.998Z</time></trkpt><trkpt lat="42.05213490304234" lon="13.141233220566356"><ele>1358.0</ele><time>2026-04-12T09:15:37.998Z</time></trkpt><trkpt lat="42.05214952443137" lon="13.141352673960682"><ele>1358.0</ele><time>2026-04-12T09:15:38.998Z</time></trkpt><trkpt lat="42.05214186531651" lon="13.141475256274504"><ele>1356.5</ele><time>2026-04-12T09:15:39.998Z</time></trkpt><trkpt lat="42.05210208733758" lon="13.141609164496629"><ele>1355.0</ele><time>2026-04-12T09:15:40.998Z</time></trkpt><trkpt lat="42.05205730966851" lon="13.141768250480062"><ele>1353.5</ele><time>2026-04-12T09:15:41.998Z</time></trkpt><trkpt lat="42.052031090769056" lon="13.141920093057692"><ele>1352.0</ele><time>2026-04-12T09:15:42.998Z</time></trkpt><trkpt lat="42.05200189834362" lon="13.142070541253302"><ele>1352.0</ele><time>2026-04-12T09:15:43.998Z</time></trkpt><trkpt lat="42.05196433711608" lon="13.142227075044069"><ele>1352.0</ele><time>2026-04-12T09:15:44.998Z</time></trkpt><trkpt lat="42.051932801536665" lon="13.142382257965126"><ele>1352.0</ele><time>2026-04-12T09:15:45.998Z</time></trkpt><trkpt lat="42.051900835754935" lon="13.142515641998019"><ele>1352.0</ele><time>2026-04-12T09:15:46.998Z</time></trkpt><trkpt lat="42.051881366313246" lon="13.14265224581417"><ele>1352.0</ele><time>2026-04-12T09:15:47.998Z</time></trkpt><trkpt lat="42.051855090512895" lon="13.142807965466739"><ele>1350.75</ele><time>2026-04-12T09:15:48.998Z</time></trkpt><trkpt lat="42.05183049212551" lon="13.142960063685516"><ele>1349.5</ele><time>2026-04-12T09:15:49.998Z</time></trkpt><trkpt lat="42.051777568151515" lon="13.143101106723996"><ele>1348.25</ele><time>2026-04-12T09:15:50.998Z</time></trkpt><trkpt lat="42.051723528017725" lon="13.143265841250109"><ele>1347.0</ele><time>2026-04-12T09:15:51.998Z</time></trkpt><trkpt lat="42.05168275358804" lon="13.143418227739357"><ele>1349.3333333333333</ele><time>2026-04-12T09:15:53Z</time></trkpt><trkpt lat="42.05162292775566" lon="13.143536601739438"><ele>1351.6666666666667</ele><time>2026-04-12T09:15:54Z</time></trkpt><trkpt lat="42.051587119094364" lon="13.143618820121572"><ele>1354.0</ele><time>2026-04-12T09:15:55Z</time></trkpt><trkpt lat="42.05152984335336" lon="13.143707217011453"><ele>1356.3333333333335</ele><time>2026-04-12T09:15:56Z</time></trkpt><trkpt lat="42.05145845807039" lon="13.143778285156683"><ele>1358.6666666666667</ele><time>2026-04-12T09:15:57Z</time></trkpt><trkpt lat="42.05137577857598" lon="13.143842623746984"><ele>1361.0</ele><time>2026-04-12T09:15:58Z</time></trkpt><trkpt lat="42.05128079308978" lon="13.1438900908969"><ele>1361.0</ele><time>2026-04-12T09:15:59Z</time></trkpt><trkpt lat="42.05117721398227" lon="13.143954228078774"><ele>1361.0</ele><time>2026-04-12T09:16:00Z</time></trkpt><trkpt lat="42.05108781165559" lon="13.144033484320056"><ele>1361.0</ele><time>2026-04-12T09:16:01Z</time></trkpt><trkpt lat="42.05102282611031" lon="13.14412576715776"><ele>1361.0</ele><time>2026-04-12T09:16:02Z</time></trkpt><trkpt lat="42.05099205168764" lon="13.144258580438454"><ele>1361.0</ele><time>2026-04-12T09:16:03Z</time></trkpt><trkpt lat="42.05094687314765" lon="13.144377004593741"><ele>1358.6</ele><time>2026-04-12T09:16:04Z</time></trkpt><trkpt lat="42.05090759742904" lon="13.14449786421866"><ele>1356.1999999999998</ele><time>2026-04-12T09:16:05Z</time></trkpt><trkpt lat="42.05089413804084" lon="13.144625408349334"><ele>1353.8000000000002</ele><time>2026-04-12T09:16:06Z</time></trkpt><trkpt lat="42.050899389057356" lon="13.14476774139692"><ele>1351.4</ele><time>2026-04-12T09:16:07Z</time></trkpt><trkpt lat="42.05091204712468" lon="13.144909299703711"><ele>1349.0</ele><time>2026-04-12T09:16:08Z</time></trkpt><trkpt lat="42.0509028785786" lon="13.145037178491508"><ele>1347.6</ele><time>2026-04-12T09:16:09Z</time></trkpt><trkpt lat="42.050850437301214" lon="13.145142306331836"><ele>1346.2</ele><time>2026-04-12T09:16:10Z</time></trkpt><trkpt lat="42.05079754900772" lon="13.145248768773836"><ele>1344.8</ele><time>2026-04-12T09:16:11Z</time></trkpt><trkpt lat="42.05072820014111" lon="13.14537279031528"><ele>1343.3999999999999</ele><time>2026-04-12T09:16:12Z</time></trkpt><trkpt lat="42.05067715442028" lon="13.145507248947146"><ele>1342.0</ele><time>2026-04-12T09:16:13Z</time></trkpt><trkpt lat="42.05061872241949" lon="13.145627470029732"><ele>1347.75</ele><time>2026-04-12T09:16:14Z</time></trkpt><trkpt lat="42.050565739404185" lon="13.145759305783754"><ele>1353.5</ele><time>2026-04-12T09:16:15Z</time></trkpt><trkpt lat="42.05050654102541" lon="13.145919626866696"><ele>1359.25</ele><time>2026-04-12T09:16:16Z</time></trkpt><trkpt lat="42.05045773225516" lon="13.146074186878124"><ele>1365.0</ele><time>2026-04-12T09:16:17Z</time></trkpt><trkpt lat="42.050381940064916" lon="13.146201667341757"><ele>1365.0</ele><time>2026-04-12T09:16:18Z</time></trkpt><trkpt lat="42.050316340705365" lon="13.146325039170044"><ele>1365.0</ele><time>2026-04-12T09:16:19Z</time></trkpt><trkpt lat="42.05024468572596" lon="13.146446168816036"><ele>1365.0</ele><time>2026-04-12T09:16:20Z</time></trkpt><trkpt lat="42.05016778283634" lon="13.146580890977386"><ele>1365.0</ele><time>2026-04-12T09:16:21Z</time></trkpt><trkpt lat="42.0501011822027" lon="13.14672822650978"><ele>1361.75</ele><time>2026-04-12T09:16:22Z</time></trkpt><trkpt lat="42.05000185344963" lon="13.146848474321704"><ele>1358.5</ele><time>2026-04-12T09:16:23Z</time></trkpt><trkpt lat="42.04990269336216" lon="13.146970059845804"><ele>1355.25</ele><time>2026-04-12T09:16:24Z</time></trkpt><trkpt lat="42.04980417445141" lon="13.147097347271135"><ele>1352.0</ele><time>2026-04-12T09:16:25Z</time></trkpt><trkpt lat="42.049736427044024" lon="13.147222524374783"><ele>1354.3999999999999</ele><time>2026-04-12T09:16:26Z</time></trkpt><trkpt lat="42.049666397195004" lon="13.147332292620767"><ele>1356.8</ele><time>2026-04-12T09:16:27Z</time></trkpt><trkpt lat="42.049592642287095" lon="13.147446146950244"><ele>1359.2</ele><time>2026-04-12T09:16:28Z</time></trkpt><trkpt lat="42.049517669831104" lon="13.147522242746248"><ele>1361.6</ele><time>2026-04-12T09:16:28.999Z</time></trkpt><trkpt lat="42.04943354415356" lon="13.147589550522234"><ele>1364.0</ele><time>2026-04-12T09:16:29.999Z</time></trkpt><trkpt lat="42.04933928547057" lon="13.147651233386236"><ele>1364.0</ele><time>2026-04-12T09:16:30.999Z</time></trkpt><trkpt lat="42.04923888311496" lon="13.147707834412458"><ele>1364.0</ele><time>2026-04-12T09:16:31.999Z</time></trkpt><trkpt lat="42.04915016529162" lon="13.147798463797198"><ele>1364.0</ele><time>2026-04-12T09:16:32.999Z</time></trkpt><trkpt lat="42.04906755122714" lon="13.147899541372498"><ele>1364.0</ele><time>2026-04-12T09:16:33.999Z</time></trkpt><trkpt lat="42.04899100277654" lon="13.14802000532071"><ele>1365.0</ele><time>2026-04-12T09:16:34.999Z</time></trkpt><trkpt lat="42.04890738269637" lon="13.148083494184293"><ele>1366.0</ele><time>2026-04-12T09:16:35.999Z</time></trkpt><trkpt lat="42.048816959807766" lon="13.148156534977495"><ele>1367.0</ele><time>2026-04-12T09:16:36.999Z</time></trkpt><trkpt lat="42.048760541541604" lon="13.148226437243506"><ele>1368.0</ele><time>2026-04-12T09:16:37.999Z</time></trkpt><trkpt lat="42.04866580965301" lon="13.148283612566734"><ele>1369.0</ele><time>2026-04-12T09:16:39.999Z</time></trkpt><trkpt lat="42.048709792097895" lon="13.148471994190162"><ele>1369.0</ele><time>2026-04-12T09:16:40.999Z</time></trkpt><trkpt lat="42.048738575668025" lon="13.14859083205705"><ele>1369.0</ele><time>2026-04-12T09:16:41.999Z</time></trkpt><trkpt lat="42.048798079191386" lon="13.148726656724145"><ele>1369.0</ele><time>2026-04-12T09:16:42.999Z</time></trkpt><trkpt lat="42.04884280263253" lon="13.148837481414077"><ele>1369.0</ele><time>2026-04-12T09:16:43.999Z</time></trkpt><trkpt lat="42.04887865245085" lon="13.148925341393024"><ele>1369.0</ele><time>2026-04-12T09:16:44.999Z</time></trkpt><trkpt lat="42.04891078336953" lon="13.14900354284309"><ele>1369.0</ele><time>2026-04-12T09:16:45.999Z</time></trkpt><trkpt lat="42.048944816690664" lon="13.149094500262882"><ele>1369.75</ele><time>2026-04-12T09:16:46.999Z</time></trkpt><trkpt lat="42.04881883198174" lon="13.14932026443679"><ele>1370.5</ele><time>2026-04-12T09:16:47.999Z</time></trkpt><trkpt lat="42.04880308963137" lon="13.149480888922984"><ele>1371.25</ele><time>2026-04-12T09:16:48.999Z</time></trkpt><trkpt lat="42.0488063932527" lon="13.149633185893439"><ele>1372.0</ele><time>2026-04-12T09:16:49.999Z</time></trkpt><trkpt lat="42.04884460625159" lon="13.149756050093234"><ele>1373.8</ele><time>2026-04-12T09:16:50.999Z</time></trkpt><trkpt lat="42.048908965901155" lon="13.149900053968238"><ele>1375.6</ele><time>2026-04-12T09:16:51.999Z</time></trkpt><trkpt lat="42.04898149868682" lon="13.150012026244273"><ele>1377.3999999999999</ele><time>2026-04-12T09:16:52.999Z</time></trkpt><trkpt lat="42.049027419877106" lon="13.150110086397154"><ele>1379.1999999999998</ele><time>2026-04-12T09:16:53.999Z</time></trkpt><trkpt lat="42.04905214366262" lon="13.15025257482423"><ele>1381.0</ele><time>2026-04-12T09:16:54.999Z</time></trkpt><trkpt lat="42.04905418772152" lon="13.15040986568839"><ele>1381.0</ele><time>2026-04-12T09:16:55.999Z</time></trkpt><trkpt lat="42.04907123337085" lon="13.15056197761394"><ele>1381.0</ele><time>2026-04-12T09:16:56.999Z</time></trkpt><trkpt lat="42.04911797748986" lon="13.15069196214141"><ele>1381.0</ele><time>2026-04-12T09:16:57.999Z</time></trkpt><trkpt lat="42.04918597360736" lon="13.15080974438466"><ele>1381.0</ele><time>2026-04-12T09:16:58.999Z</time></trkpt><trkpt lat="42.04925975702341" lon="13.15091161006252"><ele>1381.0</ele><time>2026-04-12T09:16:59.999Z</time></trkpt><trkpt lat="42.04934744101921" lon="13.151014761785284"><ele>1379.0</ele><time>2026-04-12T09:17:00.999Z</time></trkpt><trkpt lat="42.049422893729066" lon="13.151120213601448"><ele>1377.0</ele><time>2026-04-12T09:17:01.999Z</time></trkpt><trkpt lat="42.04948850317748" lon="13.151241817523925"><ele>1375.0</ele><time>2026-04-12T09:17:02.999Z</time></trkpt><trkpt lat="42.04956638750794" lon="13.151368913249138"><ele>1373.0</ele><time>2026-04-12T09:17:03.999Z</time></trkpt><trkpt lat="42.04965395892369" lon="13.151490346226321"><ele>1376.6000000000001</ele><time>2026-04-12T09:17:04.999Z</time></trkpt><trkpt lat="42.049727003653146" lon="13.151609200090435"><ele>1380.2</ele><time>2026-04-12T09:17:05.999Z</time></trkpt><trkpt lat="42.04979371647215" lon="13.151716073596209"><ele>1383.8</ele><time>2026-04-12T09:17:06.999Z</time></trkpt><trkpt lat="42.04984399003871" lon="13.151833346621435"><ele>1387.4</ele><time>2026-04-12T09:17:07.999Z</time></trkpt><trkpt lat="42.04988189394197" lon="13.151941995424842"><ele>1391.0</ele><time>2026-04-12T09:17:08.999Z</time></trkpt><trkpt lat="42.04991037546694" lon="13.152042391735534"><ele>1391.0</ele><time>2026-04-12T09:17:09.999Z</time></trkpt><trkpt lat="42.0499551027642" lon="13.152102385246144"><ele>1391.0</ele><time>2026-04-12T09:17:10.999Z</time></trkpt><trkpt lat="42.050019320363944" lon="13.152127704874774"><ele>1391.0</ele><time>2026-04-12T09:17:11.999Z</time></trkpt><trkpt lat="42.05009418892748" lon="13.152116246464562"><ele>1391.0</ele><time>2026-04-12T09:17:12.999Z</time></trkpt><trkpt lat="42.05017161817327" lon="13.152066584348823"><ele>1391.0</ele><time>2026-04-12T09:17:13.999Z</time></trkpt><trkpt lat="42.05025221584628" lon="13.151982187866992"><ele>1391.0</ele><time>2026-04-12T09:17:14.999Z</time></trkpt><trkpt lat="42.050306628594456" lon="13.151878568891215"><ele>1387.4</ele><time>2026-04-12T09:17:15.999Z</time></trkpt><trkpt lat="42.050340957535646" lon="13.151771535484452"><ele>1383.8</ele><time>2026-04-12T09:17:16.999Z</time></trkpt><trkpt lat="42.050385999274404" lon="13.151653722019065"><ele>1380.2</ele><time>2026-04-12T09:17:17.999Z</time></trkpt><trkpt lat="42.05043957122777" lon="13.15155420723561"><ele>1376.6000000000001</ele><time>2026-04-12T09:17:18.999Z</time></trkpt><trkpt lat="42.050502506021516" lon="13.151476006134803"><ele>1373.0</ele><time>2026-04-12T09:17:19.999Z</time></trkpt><trkpt lat="42.05057353200283" lon="13.151406127786425"><ele>1372.7142857142858</ele><time>2026-04-12T09:17:20.999Z</time></trkpt><trkpt lat="42.05063511855167" lon="13.151357894405711"><ele>1372.4285714285713</ele><time>2026-04-12T09:17:21.999Z</time></trkpt><trkpt lat="42.05069700355383" lon="13.15131455419604"><ele>1372.142857142857</ele><time>2026-04-12T09:17:23.999Z</time></trkpt><trkpt lat="42.05076705634434" lon="13.151367202064526"><ele>1371.857142857143</ele><time>2026-04-12T09:17:25.998Z</time></trkpt><trkpt lat="42.050798319726546" lon="13.151440883553287"><ele>1371.5714285714287</ele><time>2026-04-12T09:17:26.998Z</time></trkpt><trkpt lat="42.050810869176935" lon="13.151529246867593"><ele>1371.2857142857142</ele><time>2026-04-12T09:17:27.998Z</time></trkpt><trkpt lat="42.05083578677157" lon="13.151638260866052"><ele>1371.0</ele><time>2026-04-12T09:17:28.998Z</time></trkpt><trkpt lat="42.0508695832671" lon="13.151729562890118"><ele>1371.0</ele><time>2026-04-12T09:17:29.998Z</time></trkpt><trkpt lat="42.05089800077523" lon="13.151835440529895"><ele>1371.0</ele><time>2026-04-12T09:17:30.998Z</time></trkpt><trkpt lat="42.05093689082097" lon="13.151962900643753"><ele>1371.0</ele><time>2026-04-12T09:17:31.998Z</time></trkpt><trkpt lat="42.0509758246164" lon="13.152092289233812"><ele>1371.0</ele><time>2026-04-12T09:17:32.998Z</time></trkpt><trkpt lat="42.05103243328285" lon="13.152215599996554"><ele>1371.0</ele><time>2026-04-12T09:17:33.998Z</time></trkpt><trkpt lat="42.05110993041907" lon="13.152336435344726"><ele>1374.0</ele><time>2026-04-12T09:17:34.998Z</time></trkpt><trkpt lat="42.051182500561126" lon="13.15243062284153"><ele>1377.0</ele><time>2026-04-12T09:17:35.998Z</time></trkpt><trkpt lat="42.05124127551455" lon="13.152517211284858"><ele>1380.0</ele><time>2026-04-12T09:17:36.998Z</time></trkpt><trkpt lat="42.051329901274485" lon="13.152629237924712"><ele>1383.0</ele><time>2026-04-12T09:17:38.998Z</time></trkpt><trkpt lat="42.051431402815716" lon="13.152621796666445"><ele>1386.0</ele><time>2026-04-12T09:17:40.998Z</time></trkpt><trkpt lat="42.05149454934531" lon="13.15256265765686"><ele>1386.0</ele><time>2026-04-12T09:17:41.998Z</time></trkpt><trkpt lat="42.051561355711556" lon="13.152477284374418"><ele>1386.0</ele><time>2026-04-12T09:17:42.998Z</time></trkpt><trkpt lat="42.05162073221759" lon="13.152377748162987"><ele>1386.0</ele><time>2026-04-12T09:17:43.998Z</time></trkpt><trkpt lat="42.05167877716408" lon="13.152301310114888"><ele>1386.0</ele><time>2026-04-12T09:17:44.998Z</time></trkpt><trkpt lat="42.051746684234445" lon="13.152217997248929"><ele>1386.0</ele><time>2026-04-12T09:17:45.998Z</time></trkpt><trkpt lat="42.051824618327316" lon="13.152143063406223"><ele>1381.8333333333333</ele><time>2026-04-12T09:17:46.998Z</time></trkpt><trkpt lat="42.05190020589655" lon="13.152093429795036"><ele>1377.6666666666667</ele><time>2026-04-12T09:17:47.998Z</time></trkpt><trkpt lat="42.05199508532102" lon="13.15204531664845"><ele>1373.5</ele><time>2026-04-12T09:17:48.998Z</time></trkpt><trkpt lat="42.05206731499303" lon="13.151988400563882"><ele>1369.3333333333335</ele><time>2026-04-12T09:17:49.998Z</time></trkpt><trkpt lat="42.05213146245684" lon="13.151936546600183"><ele>1365.1666666666667</ele><time>2026-04-12T09:17:50.998Z</time></trkpt><trkpt lat="42.052206464810524" lon="13.151894967055958"><ele>1361.0</ele><time>2026-04-12T09:17:52.998Z</time></trkpt><trkpt lat="42.05224593745034" lon="13.151997764594292"><ele>1361.0</ele><time>2026-04-12T09:17:55.998Z</time></trkpt><trkpt lat="42.05222093315897" lon="13.152079532469475"><ele>1361.0</ele><time>2026-04-12T09:17:56.998Z</time></trkpt><trkpt lat="42.05217831264711" lon="13.152167031703438"><ele>1361.0</ele><time>2026-04-12T09:17:57.998Z</time></trkpt><trkpt lat="42.05213081251824" lon="13.15223909248405"><ele>1361.0</ele><time>2026-04-12T09:17:59Z</time></trkpt><trkpt lat="42.05201700108891" lon="13.152338386259167"><ele>1361.0</ele><time>2026-04-12T09:18:01Z</time></trkpt><trkpt lat="42.05196618152507" lon="13.152410441115972"><ele>1361.0</ele><time>2026-04-12T09:18:02Z</time></trkpt><trkpt lat="42.051937795499654" lon="13.152521276599794"><ele>1363.3333333333335</ele><time>2026-04-12T09:18:03Z</time></trkpt><trkpt lat="42.05192646268838" lon="13.15262598342299"><ele>1365.6666666666667</ele><time>2026-04-12T09:18:04Z</time></trkpt><trkpt lat="42.051923781819404" lon="13.15272919827571"><ele>1368.0</ele><time>2026-04-12T09:18:05Z</time></trkpt><trkpt lat="42.051906411749165" lon="13.152843955339932"><ele>1370.3333333333333</ele><time>2026-04-12T09:18:06Z</time></trkpt><trkpt lat="42.051871071342106" lon="13.15293989205034"><ele>1372.6666666666665</ele><time>2026-04-12T09:18:07Z</time></trkpt><trkpt lat="42.05187731185852" lon="13.153098212863096"><ele>1375.0</ele><time>2026-04-12T09:18:09Z</time></trkpt><trkpt lat="42.051901476796914" lon="13.15321151337399"><ele>1377.4</ele><time>2026-04-12T09:18:10Z</time></trkpt><trkpt lat="42.05195277549278" lon="13.153308325905556"><ele>1379.8</ele><time>2026-04-12T09:18:11Z</time></trkpt><trkpt lat="42.0520267601217" lon="13.153402600951477"><ele>1382.1999999999998</ele><time>2026-04-12T09:18:12Z</time></trkpt><trkpt lat="42.05211842959413" lon="13.153483252365504"><ele>1384.6</ele><time>2026-04-12T09:18:13Z</time></trkpt><trkpt lat="42.05222039923927" lon="13.153558831758964"><ele>1387.0</ele><time>2026-04-12T09:18:14Z</time></trkpt><trkpt lat="42.05229413787593" lon="13.153641466287848"><ele>1387.0</ele><time>2026-04-12T09:18:15Z</time></trkpt><trkpt lat="42.052354810346024" lon="13.153718153932916"><ele>1387.0</ele><time>2026-04-12T09:18:16Z</time></trkpt><trkpt lat="42.05240297419334" lon="13.153783238895503"><ele>1387.0</ele><time>2026-04-12T09:18:17Z</time></trkpt><trkpt lat="42.052467125672145" lon="13.153925206480254"><ele>1387.0</ele><time>2026-04-12T09:18:19Z</time></trkpt><trkpt lat="42.05249693017662" lon="13.154009126479991"><ele>1387.0</ele><time>2026-04-12T09:18:20Z</time></trkpt><trkpt lat="42.052519388067616" lon="13.154124450800998"><ele>1387.0</ele><time>2026-04-12T09:18:21Z</time></trkpt><trkpt lat="42.05254040019258" lon="13.154257148619736"><ele>1389.1999999999998</ele><time>2026-04-12T09:18:22Z</time></trkpt><trkpt lat="42.052558640696134" lon="13.154370177084713"><ele>1391.4</ele><time>2026-04-12T09:18:23Z</time></trkpt><trkpt lat="42.052542232226315" lon="13.154557911394512"><ele>1393.6</ele><time>2026-04-12T09:18:25Z</time></trkpt><trkpt lat="42.05251741850794" lon="13.15469219434529"><ele>1395.8000000000002</ele><time>2026-04-12T09:18:26Z</time></trkpt><trkpt lat="42.05247607903235" lon="13.154828857345356"><ele>1398.0</ele><time>2026-04-12T09:18:27Z</time></trkpt><trkpt lat="42.0524359624478" lon="13.154961262583548"><ele>1398.0</ele><time>2026-04-12T09:18:28Z</time></trkpt><trkpt lat="42.05242283276151" lon="13.155058717914855"><ele>1398.0</ele><time>2026-04-12T09:18:29Z</time></trkpt><trkpt lat="42.05239909435163" lon="13.155143661114549"><ele>1398.0</ele><time>2026-04-12T09:18:30Z</time></trkpt><trkpt lat="42.05234529256809" lon="13.155271726237624"><ele>1398.0</ele><time>2026-04-12T09:18:31Z</time></trkpt><trkpt lat="42.05232157486812" lon="13.15542262918034"><ele>1398.0</ele><time>2026-04-12T09:18:32Z</time></trkpt><trkpt lat="42.05229148263382" lon="13.155559567562067"><ele>1398.0</ele><time>2026-04-12T09:18:33Z</time></trkpt><trkpt lat="42.05226829655822" lon="13.155691314072515"><ele>1398.0</ele><time>2026-04-12T09:18:34Z</time></trkpt><trkpt lat="42.05225158647193" lon="13.155846300858254"><ele>1398.0</ele><time>2026-04-12T09:18:34.999Z</time></trkpt><trkpt lat="42.05224452042367" lon="13.155979003318736"><ele>1398.0</ele><time>2026-04-12T09:18:35.999Z</time></trkpt><trkpt lat="42.05224281738717" lon="13.156093602290932"><ele>1398.0</ele><time>2026-04-12T09:18:36.999Z</time></trkpt><trkpt lat="42.05224380373303" lon="13.156201581616777"><ele>1395.4</ele><time>2026-04-12T09:18:37.999Z</time></trkpt><trkpt lat="42.05222820930161" lon="13.156334977682947"><ele>1392.8000000000002</ele><time>2026-04-12T09:18:38.999Z</time></trkpt><trkpt lat="42.052207260175415" lon="13.156447388089733"><ele>1390.2</ele><time>2026-04-12T09:18:39.999Z</time></trkpt><trkpt lat="42.05217571078179" lon="13.156570933758186"><ele>1387.6</ele><time>2026-04-12T09:18:40.999Z</time></trkpt><trkpt lat="42.05213247717441" lon="13.156696440485678"><ele>1385.0</ele><time>2026-04-12T09:18:41.999Z</time></trkpt><trkpt lat="42.05209462516785" lon="13.156835682073197"><ele>1383.2</ele><time>2026-04-12T09:18:42.999Z</time></trkpt><trkpt lat="42.05206843510456" lon="13.156983699814713"><ele>1381.4</ele><time>2026-04-12T09:18:43.999Z</time></trkpt><trkpt lat="42.05205678711035" lon="13.157101914547008"><ele>1379.6</ele><time>2026-04-12T09:18:44.999Z</time></trkpt><trkpt lat="42.052052672682784" lon="13.157216671178828"><ele>1377.8</ele><time>2026-04-12T09:18:45.999Z</time></trkpt><trkpt lat="42.052064998570984" lon="13.157340060398953"><ele>1376.0</ele><time>2026-04-12T09:18:46.999Z</time></trkpt><trkpt lat="42.05209538570764" lon="13.157468769624263"><ele>1375.6666666666667</ele><time>2026-04-12T09:18:47.999Z</time></trkpt><trkpt lat="42.052143068271896" lon="13.15762441964672"><ele>1375.3333333333335</ele><time>2026-04-12T09:18:48.999Z</time></trkpt><trkpt lat="42.0521993780529" lon="13.15770965532762"><ele>1375.0</ele><time>2026-04-12T09:18:49.999Z</time></trkpt><trkpt lat="42.05224286141575" lon="13.157795902838004"><ele>1374.6666666666667</ele><time>2026-04-12T09:18:50.999Z</time></trkpt><trkpt lat="42.05227578598034" lon="13.157878252526856"><ele>1374.3333333333333</ele><time>2026-04-12T09:18:51.999Z</time></trkpt><trkpt lat="42.05228164178944" lon="13.157993119183871"><ele>1374.0</ele><time>2026-04-12T09:18:53.999Z</time></trkpt><trkpt lat="42.05226379811271" lon="13.158092394507053"><ele>1374.0</ele><time>2026-04-12T09:18:54.999Z</time></trkpt><trkpt lat="42.05223988173402" lon="13.158225192199405"><ele>1374.0</ele><time>2026-04-12T09:18:55.999Z</time></trkpt><trkpt lat="42.05224073079775" lon="13.158313810528723"><ele>1374.0</ele><time>2026-04-12T09:18:56.999Z</time></trkpt><trkpt lat="42.0522587286786" lon="13.158416597675659"><ele>1374.0</ele><time>2026-04-12T09:18:57.999Z</time></trkpt><trkpt lat="42.05228746524967" lon="13.158522610054314"><ele>1374.0</ele><time>2026-04-12T09:18:58.999Z</time></trkpt><trkpt lat="42.05230502246995" lon="13.15862982981518"><ele>1374.0</ele><time>2026-04-12T09:18:59.999Z</time></trkpt><trkpt lat="42.05230629456919" lon="13.158735019531857"><ele>1374.0</ele><time>2026-04-12T09:19:00.999Z</time></trkpt><trkpt lat="42.05228616439505" lon="13.158917471112323"><ele>1374.0</ele><time>2026-04-12T09:19:02.999Z</time></trkpt><trkpt lat="42.05226481240763" lon="13.159043748816398"><ele>1374.0</ele><time>2026-04-12T09:19:03.999Z</time></trkpt><trkpt lat="42.052227934939985" lon="13.159186718346572"><ele>1374.0</ele><time>2026-04-12T09:19:04.999Z</time></trkpt><trkpt lat="42.052188388907496" lon="13.159343711168397"><ele>1372.2</ele><time>2026-04-12T09:19:05.999Z</time></trkpt><trkpt lat="42.05215822538404" lon="13.159455919425008"><ele>1370.4</ele><time>2026-04-12T09:19:06.999Z</time></trkpt><trkpt lat="42.052122346807984" lon="13.159558626162468"><ele>1368.6</ele><time>2026-04-12T09:19:07.999Z</time></trkpt><trkpt lat="42.05207711583991" lon="13.15968079556952"><ele>1366.8</ele><time>2026-04-12T09:19:08.999Z</time></trkpt><trkpt lat="42.052047911564436" lon="13.159812973254253"><ele>1365.0</ele><time>2026-04-12T09:19:09.999Z</time></trkpt><trkpt lat="42.052041528713445" lon="13.159960609164118"><ele>1362.8</ele><time>2026-04-12T09:19:10.999Z</time></trkpt><trkpt lat="42.05203829780535" lon="13.160113684128595"><ele>1360.6</ele><time>2026-04-12T09:19:11.999Z</time></trkpt><trkpt lat="42.05204248572112" lon="13.160223719594928"><ele>1358.4</ele><time>2026-04-12T09:19:12.999Z</time></trkpt><trkpt lat="42.05202538564023" lon="13.16034663990685"><ele>1356.2</ele><time>2026-04-12T09:19:13.999Z</time></trkpt><trkpt lat="42.05200751310936" lon="13.160480113269468"><ele>1354.0</ele><time>2026-04-12T09:19:14.999Z</time></trkpt><trkpt lat="42.051960272297165" lon="13.160615247821223"><ele>1351.8000000000002</ele><time>2026-04-12T09:19:15.999Z</time></trkpt><trkpt lat="42.051940916591974" lon="13.160763816009728"><ele>1349.6000000000001</ele><time>2026-04-12T09:19:16.999Z</time></trkpt><trkpt lat="42.051903738905175" lon="13.160908051957241"><ele>1347.4</ele><time>2026-04-12T09:19:17.999Z</time></trkpt><trkpt lat="42.051853417287134" lon="13.161036482231363"><ele>1345.2</ele><time>2026-04-12T09:19:18.999Z</time></trkpt><trkpt lat="42.05180192730563" lon="13.16116642575822"><ele>1343.0</ele><time>2026-04-12T09:19:19.999Z</time></trkpt><trkpt lat="42.05176357875639" lon="13.161298707298503"><ele>1343.0</ele><time>2026-04-12T09:19:20.999Z</time></trkpt><trkpt lat="42.05173989937859" lon="13.161425825692623"><ele>1343.0</ele><time>2026-04-12T09:19:21.999Z</time></trkpt><trkpt lat="42.05173423878286" lon="13.161559452562106"><ele>1343.0</ele><time>2026-04-12T09:19:22.999Z</time></trkpt><trkpt lat="42.05172873161255" lon="13.161687183130622"><ele>1343.0</ele><time>2026-04-12T09:19:23.999Z</time></trkpt><trkpt lat="42.05170664106229" lon="13.161817293512902"><ele>1343.0</ele><time>2026-04-12T09:19:24.999Z</time></trkpt><trkpt lat="42.05166730218221" lon="13.161946859743194"><ele>1345.5</ele><time>2026-04-12T09:19:25.999Z</time></trkpt><trkpt lat="42.051619799121596" lon="13.162071679982628"><ele>1348.0</ele><time>2026-04-12T09:19:26.999Z</time></trkpt><trkpt lat="42.05155510429271" lon="13.1622301974013"><ele>1350.5</ele><time>2026-04-12T09:19:27.999Z</time></trkpt><trkpt lat="42.0515116721235" lon="13.162384241969681"><ele>1353.0</ele><time>2026-04-12T09:19:28.999Z</time></trkpt><trkpt lat="42.05148170948561" lon="13.162542132205822"><ele>1353.0</ele><time>2026-04-12T09:19:29.999Z</time></trkpt><trkpt lat="42.05148516066324" lon="13.162687724630635"><ele>1353.0</ele><time>2026-04-12T09:19:30.999Z</time></trkpt><trkpt lat="42.05149794743147" lon="13.162838256672734"><ele>1353.0</ele><time>2026-04-12T09:19:31.998Z</time></trkpt><trkpt lat="42.05149972056517" lon="13.162936631275818"><ele>1353.0</ele><time>2026-04-12T09:19:32.998Z</time></trkpt><trkpt lat="42.05150678261325" lon="13.163025693883617"><ele>1353.0</ele><time>2026-04-12T09:19:33.998Z</time></trkpt><trkpt lat="42.051524234191035" lon="13.163163340466074"><ele>1351.8333333333333</ele><time>2026-04-12T09:19:35.998Z</time></trkpt><trkpt lat="42.05152606279091" lon="13.16327229451456"><ele>1350.6666666666667</ele><time>2026-04-12T09:19:37.998Z</time></trkpt><trkpt lat="42.051484262753895" lon="13.163353016654286"><ele>1349.5</ele><time>2026-04-12T09:19:44.998Z</time></trkpt><trkpt lat="42.05141882379783" lon="13.163456902822318"><ele>1348.3333333333335</ele><time>2026-04-12T09:19:46.998Z</time></trkpt><trkpt lat="42.051376757579845" lon="13.163521342036573"><ele>1347.1666666666667</ele><time>2026-04-12T09:19:47.998Z</time></trkpt><trkpt lat="42.051340823650364" lon="13.163602536766321"><ele>1346.0</ele><time>2026-04-12T09:19:48.998Z</time></trkpt><trkpt lat="42.05129503164921" lon="13.163671656173452"><ele>1346.0</ele><time>2026-04-12T09:19:49.998Z</time></trkpt><trkpt lat="42.05119043561337" lon="13.163803780529628"><ele>1346.0</ele><time>2026-04-12T09:19:51.998Z</time></trkpt><trkpt lat="42.051119188172216" lon="13.163891671742247"><ele>1346.0</ele><time>2026-04-12T09:19:52.998Z</time></trkpt><trkpt lat="42.051044632372594" lon="13.164001992973295"><ele>1346.0</ele><time>2026-04-12T09:19:53.998Z</time></trkpt><trkpt lat="42.05096436989209" lon="13.16409561092078"><ele>1344.4</ele><time>2026-04-12T09:19:54.998Z</time></trkpt><trkpt lat="42.050883073101424" lon="13.164189674703849"><ele>1342.8</ele><time>2026-04-12T09:19:55.998Z</time></trkpt><trkpt lat="42.0508217921987" lon="13.164288560124255"><ele>1341.2</ele><time>2026-04-12T09:19:56.998Z</time></trkpt><trkpt lat="42.05074576141403" lon="13.16443301214556"><ele>1339.6000000000001</ele><time>2026-04-12T09:19:58.998Z</time></trkpt><trkpt lat="42.05071292019997" lon="13.164546127449377"><ele>1338.0</ele><time>2026-04-12T09:19:59.998Z</time></trkpt><trkpt lat="42.05067881097354" lon="13.164674802952316"><ele>1340.6000000000001</ele><time>2026-04-12T09:20:00.998Z</time></trkpt><trkpt lat="42.05064175425295" lon="13.164771971700697"><ele>1343.2</ele><time>2026-04-12T09:20:01.998Z</time></trkpt><trkpt lat="42.05056868249887" lon="13.164888620244287"><ele>1345.8</ele><time>2026-04-12T09:20:03.998Z</time></trkpt><trkpt lat="42.05048654788101" lon="13.16497613662737"><ele>1348.4</ele><time>2026-04-12T09:20:06Z</time></trkpt><trkpt lat="42.050435181822515" lon="13.165032081453887"><ele>1351.0</ele><time>2026-04-12T09:20:07Z</time></trkpt><trkpt lat="42.05036737832277" lon="13.165109320014492"><ele>1351.0</ele><time>2026-04-12T09:20:08Z</time></trkpt><trkpt lat="42.050296875014965" lon="13.165178975928436"><ele>1351.0</ele><time>2026-04-12T09:20:09Z</time></trkpt><trkpt lat="42.050239765885976" lon="13.165227265958311"><ele>1351.0</ele><time>2026-04-12T09:20:10Z</time></trkpt><trkpt lat="42.05019141366236" lon="13.16528697668912"><ele>1351.0</ele><time>2026-04-12T09:20:11Z</time></trkpt><trkpt lat="42.05014067374861" lon="13.165362026960986"><ele>1351.0</ele><time>2026-04-12T09:20:12Z</time></trkpt><trkpt lat="42.05009913805654" lon="13.16547151386096"><ele>1351.0</ele><time>2026-04-12T09:20:13Z</time></trkpt><trkpt lat="42.05002301501925" lon="13.165534681151046"><ele>1355.8</ele><time>2026-04-12T09:20:15Z</time></trkpt><trkpt lat="42.049897879912464" lon="13.165490661324156"><ele>1360.6</ele><time>2026-04-12T09:20:17Z</time></trkpt><trkpt lat="42.04984649149338" lon="13.165357237839505"><ele>1365.4</ele><time>2026-04-12T09:20:19Z</time></trkpt><trkpt lat="42.0498153717859" lon="13.165251200474819"><ele>1370.2</ele><time>2026-04-12T09:20:20Z</time></trkpt><trkpt lat="42.049788429644195" lon="13.165173639996118"><ele>1375.0</ele><time>2026-04-12T09:20:21Z</time></trkpt><trkpt lat="42.04972286153864" lon="13.165162160307895"><ele>1375.0</ele><time>2026-04-12T09:20:23Z</time></trkpt><trkpt lat="42.04961331468611" lon="13.165250430356206"><ele>1375.0</ele><time>2026-04-12T09:20:25Z</time></trkpt><trkpt lat="42.049547888713924" lon="13.165320214902469"><ele>1375.0</ele><time>2026-04-12T09:20:26Z</time></trkpt><trkpt lat="42.04949343562112" lon="13.165381966216467"><ele>1375.0</ele><time>2026-04-12T09:20:27Z</time></trkpt><trkpt lat="42.04943224177641" lon="13.165427044122296"><ele>1375.0</ele><time>2026-04-12T09:20:28Z</time></trkpt><trkpt lat="42.049366244308445" lon="13.165476984099767"><ele>1375.0</ele><time>2026-04-12T09:20:29Z</time></trkpt><trkpt lat="42.04928664450077" lon="13.165528640357948"><ele>1375.0</ele><time>2026-04-12T09:20:30Z</time></trkpt><trkpt lat="42.049198797666975" lon="13.165568451822084"><ele>1375.0</ele><time>2026-04-12T09:20:31Z</time></trkpt><trkpt lat="42.04910838518054" lon="13.165629746209916"><ele>1375.0</ele><time>2026-04-12T09:20:32Z</time></trkpt><trkpt lat="42.04902405233274" lon="13.16568007087707"><ele>1375.0</ele><time>2026-04-12T09:20:33Z</time></trkpt><trkpt lat="42.04893900478415" lon="13.165711112480533"><ele>1375.0</ele><time>2026-04-12T09:20:34Z</time></trkpt><trkpt lat="42.048864428788804" lon="13.165726047836129"><ele>1377.6</ele><time>2026-04-12T09:20:35Z</time></trkpt><trkpt lat="42.04878252541381" lon="13.16574828704379"><ele>1380.2</ele><time>2026-04-12T09:20:36Z</time></trkpt><trkpt lat="42.048703563173206" lon="13.165792953716863"><ele>1382.8000000000002</ele><time>2026-04-12T09:20:37Z</time></trkpt><trkpt lat="42.04864080664655" lon="13.16584491480986"><ele>1385.4</ele><time>2026-04-12T09:20:38Z</time></trkpt><trkpt lat="42.048563195532" lon="13.165999225679704"><ele>1388.0</ele><time>2026-04-12T09:20:39.999Z</time></trkpt><trkpt lat="42.048557252895726" lon="13.166111976867597"><ele>1388.0</ele><time>2026-04-12T09:20:40.999Z</time></trkpt><trkpt lat="42.04854591654903" lon="13.166207674420534"><ele>1388.0</ele><time>2026-04-12T09:20:41.999Z</time></trkpt><trkpt lat="42.04852780661538" lon="13.166360738240549"><ele>1388.0</ele><time>2026-04-12T09:20:43.999Z</time></trkpt><trkpt lat="42.04849624088418" lon="13.16649557378228"><ele>1388.0</ele><time>2026-04-12T09:20:45.999Z</time></trkpt><trkpt lat="42.04847239191709" lon="13.166574305922605"><ele>1388.0</ele><time>2026-04-12T09:20:46.999Z</time></trkpt><trkpt lat="42.04840282614533" lon="13.166678071905977"><ele>1387.6000000000001</ele><time>2026-04-12T09:20:48.999Z</time></trkpt><trkpt lat="42.048336946916066" lon="13.166799081830002"><ele>1387.2</ele><time>2026-04-12T09:20:50.999Z</time></trkpt><trkpt lat="42.04831912861748" lon="13.166918027513065"><ele>1386.8</ele><time>2026-04-12T09:20:52.999Z</time></trkpt><trkpt lat="42.04837944854031" lon="13.166975304816678"><ele>1386.4</ele><time>2026-04-12T09:20:54.999Z</time></trkpt><trkpt lat="42.04850394290008" lon="13.166948640498324"><ele>1386.0</ele><time>2026-04-12T09:20:56.999Z</time></trkpt><trkpt lat="42.04857011944291" lon="13.166945746637493"><ele>1386.0</ele><time>2026-04-12T09:20:59.999Z</time></trkpt><trkpt lat="42.048567533032845" lon="13.167045649360592"><ele>1386.0</ele><time>2026-04-12T09:21:01.999Z</time></trkpt><trkpt lat="42.048462028086" lon="13.167149111874345"><ele>1386.0</ele><time>2026-04-12T09:21:03.999Z</time></trkpt><trkpt lat="42.04839776207272" lon="13.16720820469166"><ele>1386.0</ele><time>2026-04-12T09:21:04.999Z</time></trkpt><trkpt lat="42.04834285700704" lon="13.167264810010012"><ele>1386.0</ele><time>2026-04-12T09:21:05.999Z</time></trkpt><trkpt lat="42.04829837245451" lon="13.167343354020636"><ele>1386.0</ele><time>2026-04-12T09:21:06.999Z</time></trkpt><trkpt lat="42.048254659719746" lon="13.167412720342215"><ele>1391.5</ele><time>2026-04-12T09:21:07.999Z</time></trkpt><trkpt lat="42.04819041547039" lon="13.167470008936787"><ele>1397.0</ele><time>2026-04-12T09:21:08.999Z</time></trkpt><trkpt lat="42.048137880704154" lon="13.167521615811303"><ele>1402.5</ele><time>2026-04-12T09:21:09.999Z</time></trkpt><trkpt lat="42.048086326421604" lon="13.167612722305867"><ele>1408.0</ele><time>2026-04-12T09:21:10.999Z</time></trkpt><trkpt lat="42.04801705978323" lon="13.167687204813003"><ele>1413.5</ele><time>2026-04-12T09:21:11.999Z</time></trkpt><trkpt lat="42.047956065492166" lon="13.167757619414964"><ele>1419.0</ele><time>2026-04-12T09:21:12.999Z</time></trkpt><trkpt lat="42.047902022503855" lon="13.16782760942395"><ele>1419.0</ele><time>2026-04-12T09:21:13.999Z</time></trkpt><trkpt lat="42.04785774353116" lon="13.167905250477327"><ele>1419.0</ele><time>2026-04-12T09:21:14.999Z</time></trkpt><trkpt lat="42.047783089607755" lon="13.168059709828844"><ele>1419.0</ele><time>2026-04-12T09:21:16.999Z</time></trkpt><trkpt lat="42.047721314672195" lon="13.168107883940598"><ele>1419.0</ele><time>2026-04-12T09:21:17.999Z</time></trkpt><trkpt lat="42.04765273185485" lon="13.168178574075183"><ele>1419.0</ele><time>2026-04-12T09:21:18.999Z</time></trkpt><trkpt lat="42.04758457706001" lon="13.168263651123628"><ele>1419.3333333333333</ele><time>2026-04-12T09:21:19.999Z</time></trkpt><trkpt lat="42.04754377198879" lon="13.168335742034019"><ele>1419.6666666666667</ele><time>2026-04-12T09:21:20.999Z</time></trkpt><trkpt lat="42.047500010594945" lon="13.168471025738636"><ele>1420.0</ele><time>2026-04-12T09:21:22.999Z</time></trkpt><trkpt lat="42.04747244523587" lon="13.168557584215451"><ele>1420.3333333333335</ele><time>2026-04-12T09:21:23.999Z</time></trkpt><trkpt lat="42.04743299789713" lon="13.16866002239097"><ele>1420.6666666666667</ele><time>2026-04-12T09:21:24.999Z</time></trkpt><trkpt lat="42.04737284342185" lon="13.168775141089029"><ele>1421.0</ele><time>2026-04-12T09:21:25.999Z</time></trkpt><trkpt lat="42.04730300726017" lon="13.168882376670481"><ele>1423.0</ele><time>2026-04-12T09:21:26.999Z</time></trkpt><trkpt lat="42.04724168108277" lon="13.169007789091372"><ele>1425.0</ele><time>2026-04-12T09:21:27.999Z</time></trkpt><trkpt lat="42.04719187270721" lon="13.169134412472696"><ele>1427.0</ele><time>2026-04-12T09:21:28.999Z</time></trkpt><trkpt lat="42.0471452500911" lon="13.169225792742582"><ele>1429.0</ele><time>2026-04-12T09:21:29.999Z</time></trkpt><trkpt lat="42.047111028626624" lon="13.169310476387674"><ele>1431.0</ele><time>2026-04-12T09:21:30.999Z</time></trkpt><trkpt lat="42.046992362583715" lon="13.169445781246738"><ele>1431.0</ele><time>2026-04-12T09:21:32.999Z</time></trkpt><trkpt lat="42.046890350783634" lon="13.169495569928115"><ele>1431.0</ele><time>2026-04-12T09:21:33.999Z</time></trkpt><trkpt lat="42.046777887297125" lon="13.169570717281298"><ele>1431.0</ele><time>2026-04-12T09:21:34.999Z</time></trkpt><trkpt lat="42.046705484376815" lon="13.16960853305121"><ele>1431.0</ele><time>2026-04-12T09:21:35.998Z</time></trkpt><trkpt lat="42.0466102581643" lon="13.16965022569772"><ele>1431.0</ele><time>2026-04-12T09:21:36.998Z</time></trkpt><trkpt lat="42.046516203419785" lon="13.169692951878154"><ele>1432.6666666666667</ele><time>2026-04-12T09:21:37.998Z</time></trkpt><trkpt lat="42.046429011185516" lon="13.169746629591774"><ele>1434.3333333333333</ele><time>2026-04-12T09:21:38.998Z</time></trkpt><trkpt lat="42.04634245074836" lon="13.169807427452255"><ele>1436.0</ele><time>2026-04-12T09:21:39.998Z</time></trkpt><trkpt lat="42.04627778978627" lon="13.169846698509984"><ele>1437.6666666666665</ele><time>2026-04-12T09:21:40.998Z</time></trkpt><trkpt lat="42.04621200203492" lon="13.169923748801843"><ele>1439.3333333333333</ele><time>2026-04-12T09:21:41.998Z</time></trkpt><trkpt lat="42.04616490161241" lon="13.170017073921112"><ele>1441.0</ele><time>2026-04-12T09:21:42.998Z</time></trkpt><trkpt lat="42.046105742510015" lon="13.170112179709484"><ele>1441.0</ele><time>2026-04-12T09:21:43.998Z</time></trkpt><trkpt lat="42.04604843496295" lon="13.170223610607758"><ele>1441.0</ele><time>2026-04-12T09:21:44.998Z</time></trkpt><trkpt lat="42.045987391431964" lon="13.170323182176038"><ele>1441.0</ele><time>2026-04-12T09:21:45.998Z</time></trkpt><trkpt lat="42.04592598045935" lon="13.170425481006461"><ele>1441.0</ele><time>2026-04-12T09:21:46.998Z</time></trkpt><trkpt lat="42.04585602595537" lon="13.17050601266219"><ele>1441.0</ele><time>2026-04-12T09:21:47.998Z</time></trkpt><trkpt lat="42.04577285292266" lon="13.170583584542367"><ele>1441.8</ele><time>2026-04-12T09:21:48.998Z</time></trkpt><trkpt lat="42.04568472011956" lon="13.17067779844872"><ele>1442.6</ele><time>2026-04-12T09:21:49.998Z</time></trkpt><trkpt lat="42.0456100363466" lon="13.17073672515719"><ele>1443.4</ele><time>2026-04-12T09:21:50.998Z</time></trkpt><trkpt lat="42.04554113668701" lon="13.170774166649663"><ele>1444.2</ele><time>2026-04-12T09:21:51.998Z</time></trkpt><trkpt lat="42.045465126083336" lon="13.170796209119993"><ele>1445.0</ele><time>2026-04-12T09:21:52.998Z</time></trkpt><trkpt lat="42.04536423784126" lon="13.170827218893423"><ele>1444.9999999999998</ele><time>2026-04-12T09:21:53.998Z</time></trkpt><trkpt lat="42.04529148237539" lon="13.170852995099596"><ele>1445.0</ele><time>2026-04-12T09:21:54.998Z</time></trkpt><trkpt lat="42.04523254386241" lon="13.170884552936782"><ele>1445.0</ele><time>2026-04-12T09:21:55.998Z</time></trkpt><trkpt lat="42.045171114751454" lon="13.170942772664691"><ele>1445.0</ele><time>2026-04-12T09:21:57.998Z</time></trkpt><trkpt lat="42.045237430009536" lon="13.170889954501966"><ele>1445.0</ele><time>2026-04-12T09:24:04.998Z</time></trkpt><trkpt lat="42.04518146442719" lon="13.17094269953689"><ele>1444.9999999999998</ele><time>2026-04-12T09:27:19.999Z</time></trkpt><trkpt lat="42.04510558346335" lon="13.171002925583986"><ele>1445.0</ele><time>2026-04-12T09:27:21.999Z</time></trkpt><trkpt lat="42.04503035008767" lon="13.171085961019697"><ele>1445.0</ele><time>2026-04-12T09:27:22.999Z</time></trkpt><trkpt lat="42.04496472875726" lon="13.17115769617111"><ele>1445.0</ele><time>2026-04-12T09:27:23.999Z</time></trkpt><trkpt lat="42.04487705256903" lon="13.171186483328263"><ele>1445.0</ele><time>2026-04-12T09:27:24.999Z</time></trkpt><trkpt lat="42.04480374762155" lon="13.171227570689624"><ele>1445.0</ele><time>2026-04-12T09:27:25.999Z</time></trkpt><trkpt lat="42.04472003561846" lon="13.171289665135925"><ele>1445.0</ele><time>2026-04-12T09:27:26.999Z</time></trkpt><trkpt lat="42.044634317889546" lon="13.171345244403948"><ele>1445.0</ele><time>2026-04-12T09:27:27.999Z</time></trkpt><trkpt lat="42.04453869917878" lon="13.171413725349431"><ele>1444.5</ele><time>2026-04-12T09:27:28.999Z</time></trkpt><trkpt lat="42.04443578053666" lon="13.171451980549108"><ele>1444.0</ele><time>2026-04-12T09:27:29.999Z</time></trkpt><trkpt lat="42.04435429610627" lon="13.17152622065884"><ele>1443.5</ele><time>2026-04-12T09:27:30.999Z</time></trkpt><trkpt lat="42.044286226540194" lon="13.171592815666742"><ele>1443.0</ele><time>2026-04-12T09:27:31.999Z</time></trkpt><trkpt lat="42.0442247731716" lon="13.171668013278431"><ele>1442.5</ele><time>2026-04-12T09:27:32.999Z</time></trkpt><trkpt lat="42.04419482054213" lon="13.171750689745018"><ele>1442.0</ele><time>2026-04-12T09:27:33.999Z</time></trkpt><trkpt lat="42.04417500768948" lon="13.17192886878331"><ele>1442.0</ele><time>2026-04-12T09:27:35.999Z</time></trkpt><trkpt lat="42.04419371082032" lon="13.172019453661118"><ele>1442.0</ele><time>2026-04-12T09:27:36.999Z</time></trkpt><trkpt lat="42.04422632855927" lon="13.17210536454006"><ele>1442.0</ele><time>2026-04-12T09:27:37.999Z</time></trkpt><trkpt lat="42.044249861919205" lon="13.17220543460586"><ele>1442.0</ele><time>2026-04-12T09:27:38.999Z</time></trkpt><trkpt lat="42.04425599352095" lon="13.172364055645605"><ele>1442.0</ele><time>2026-04-12T09:27:40.998Z</time></trkpt><trkpt lat="42.04424384801363" lon="13.172453480432758"><ele>1442.0</ele><time>2026-04-12T09:27:41.998Z</time></trkpt><trkpt lat="42.04418451968096" lon="13.172525555826928"><ele>1441.2857142857142</ele><time>2026-04-12T09:27:42.998Z</time></trkpt><trkpt lat="42.044150451821416" lon="13.172606240401937"><ele>1440.5714285714284</ele><time>2026-04-12T09:27:43.998Z</time></trkpt><trkpt lat="42.044128521893754" lon="13.172696134776071"><ele>1439.857142857143</ele><time>2026-04-12T09:27:44.998Z</time></trkpt><trkpt lat="42.04407403033034" lon="13.172766373663494"><ele>1439.142857142857</ele><time>2026-04-12T09:27:45.998Z</time></trkpt><trkpt lat="42.044038179206616" lon="13.172837233104483"><ele>1438.4285714285713</ele><time>2026-04-12T09:27:46.998Z</time></trkpt><trkpt lat="42.043996408386825" lon="13.172911826210722"><ele>1437.7142857142858</ele><time>2026-04-12T09:27:47.998Z</time></trkpt><trkpt lat="42.04394952209423" lon="13.172994175907789"><ele>1437.0</ele><time>2026-04-12T09:27:48.998Z</time></trkpt><trkpt lat="42.043898233149804" lon="13.17308292788583"><ele>1438.3999999999999</ele><time>2026-04-12T09:27:49.998Z</time></trkpt><trkpt lat="42.04385648993381" lon="13.17318702969458"><ele>1439.8</ele><time>2026-04-12T09:27:50.998Z</time></trkpt><trkpt lat="42.04379062601273" lon="13.173288506162638"><ele>1441.2</ele><time>2026-04-12T09:27:51.998Z</time></trkpt><trkpt lat="42.04371927218438" lon="13.173404890984333"><ele>1442.6</ele><time>2026-04-12T09:27:52.998Z</time></trkpt><trkpt lat="42.04364983339192" lon="13.173515204093466"><ele>1444.0</ele><time>2026-04-12T09:27:53.998Z</time></trkpt><trkpt lat="42.043583972165074" lon="13.173619407387823"><ele>1444.0</ele><time>2026-04-12T09:27:54.998Z</time></trkpt><trkpt lat="42.04351678005413" lon="13.173723324323488"><ele>1444.0</ele><time>2026-04-12T09:27:55.998Z</time></trkpt><trkpt lat="42.04346315893701" lon="13.17379663747516"><ele>1444.0</ele><time>2026-04-12T09:27:56.998Z</time></trkpt><trkpt lat="42.04342152727767" lon="13.173870198293328"><ele>1444.0</ele><time>2026-04-12T09:27:57.998Z</time></trkpt><trkpt lat="42.04336226424867" lon="13.173965808068457"><ele>1444.0</ele><time>2026-04-12T09:27:59.998Z</time></trkpt><trkpt lat="42.04329373887961" lon="13.174080634054183"><ele>1444.0</ele><time>2026-04-12T09:28:01.998Z</time></trkpt><trkpt lat="42.04324224028702" lon="13.174168168604512"><ele>1445.6666666666665</ele><time>2026-04-12T09:28:02.998Z</time></trkpt><trkpt lat="42.04317896270233" lon="13.174232138206792"><ele>1447.3333333333333</ele><time>2026-04-12T09:28:03.998Z</time></trkpt><trkpt lat="42.04312589212966" lon="13.174308458637405"><ele>1449.0</ele><time>2026-04-12T09:28:04.998Z</time></trkpt><trkpt lat="42.043070507702744" lon="13.174377517702368"><ele>1450.6666666666667</ele><time>2026-04-12T09:28:05.998Z</time></trkpt><trkpt lat="42.043010824762696" lon="13.17444018756335"><ele>1452.3333333333335</ele><time>2026-04-12T09:28:06.998Z</time></trkpt><trkpt lat="42.042927633954754" lon="13.174515805986008"><ele>1454.0</ele><time>2026-04-12T09:28:07.998Z</time></trkpt><trkpt lat="42.04285571821041" lon="13.174592507065677"><ele>1454.0</ele><time>2026-04-12T09:28:08.998Z</time></trkpt><trkpt lat="42.042788709830354" lon="13.17466612277463"><ele>1454.0</ele><time>2026-04-12T09:28:09.998Z</time></trkpt><trkpt lat="42.042723822002806" lon="13.174758882004879"><ele>1454.0</ele><time>2026-04-12T09:28:10.998Z</time></trkpt><trkpt lat="42.042642227483434" lon="13.174834920125058"><ele>1454.0</ele><time>2026-04-12T09:28:11.998Z</time></trkpt><trkpt lat="42.042564276324626" lon="13.174957325809192"><ele>1454.0</ele><time>2026-04-12T09:28:12.998Z</time></trkpt><trkpt lat="42.04246602886482" lon="13.175068211588908"><ele>1454.5</ele><time>2026-04-12T09:28:13.998Z</time></trkpt><trkpt lat="42.04237369104617" lon="13.175186192770322"><ele>1455.0</ele><time>2026-04-12T09:28:14.998Z</time></trkpt><trkpt lat="42.042289258986415" lon="13.175330891179595"><ele>1455.5</ele><time>2026-04-12T09:28:15.998Z</time></trkpt><trkpt lat="42.042196054894895" lon="13.175476768855921"><ele>1456.0</ele><time>2026-04-12T09:28:16.998Z</time></trkpt><trkpt lat="42.042108713393425" lon="13.175633214544126"><ele>1455.6</ele><time>2026-04-12T09:28:17.998Z</time></trkpt><trkpt lat="42.04204445039299" lon="13.175756751825428"><ele>1455.1999999999998</ele><time>2026-04-12T09:28:18.998Z</time></trkpt><trkpt lat="42.04197608397482" lon="13.175874319199755"><ele>1454.8000000000002</ele><time>2026-04-12T09:28:19.998Z</time></trkpt><trkpt lat="42.04193971946145" lon="13.17600623273726"><ele>1454.4</ele><time>2026-04-12T09:28:20.998Z</time></trkpt><trkpt lat="42.04188771596082" lon="13.17611117069507"><ele>1454.0</ele><time>2026-04-12T09:28:21.998Z</time></trkpt><trkpt lat="42.04183387922129" lon="13.176234309342894"><ele>1454.0</ele><time>2026-04-12T09:28:22.998Z</time></trkpt><trkpt lat="42.04175020457625" lon="13.176370803462055"><ele>1454.0</ele><time>2026-04-12T09:28:23.998Z</time></trkpt><trkpt lat="42.04165997087749" lon="13.176495260243493"><ele>1454.0</ele><time>2026-04-12T09:28:24.998Z</time></trkpt><trkpt lat="42.04155372178235" lon="13.176618431756378"><ele>1454.0</ele><time>2026-04-12T09:28:25.998Z</time></trkpt><trkpt lat="42.04146506428086" lon="13.176745408588715"><ele>1453.6</ele><time>2026-04-12T09:28:26.998Z</time></trkpt><trkpt lat="42.04137414655896" lon="13.176845629381015"><ele>1453.2</ele><time>2026-04-12T09:28:27.999Z</time></trkpt><trkpt lat="42.04129551431394" lon="13.176932645476473"><ele>1452.8</ele><time>2026-04-12T09:28:28.999Z</time></trkpt><trkpt lat="42.04123784209011" lon="13.177035893381358"><ele>1452.3999999999999</ele><time>2026-04-12T09:28:29.999Z</time></trkpt><trkpt lat="42.04118979708628" lon="13.17712832238897"><ele>1452.0</ele><time>2026-04-12T09:28:30.999Z</time></trkpt><trkpt lat="42.04115689181462" lon="13.177225800042862"><ele>1452.0</ele><time>2026-04-12T09:28:31.999Z</time></trkpt><trkpt lat="42.04111547370226" lon="13.177311935689074"><ele>1452.0</ele><time>2026-04-12T09:28:32.999Z</time></trkpt><trkpt lat="42.04108488903076" lon="13.177406514777243"><ele>1452.0</ele><time>2026-04-12T09:28:33.999Z</time></trkpt><trkpt lat="42.04104558501819" lon="13.177501097113936"><ele>1452.0</ele><time>2026-04-12T09:28:34.999Z</time></trkpt><trkpt lat="42.041046617383415" lon="13.17761884635276"><ele>1452.0</ele><time>2026-04-12T09:28:35.999Z</time></trkpt><trkpt lat="42.041044053637755" lon="13.177751668323303"><ele>1452.0</ele><time>2026-04-12T09:28:36.999Z</time></trkpt><trkpt lat="42.04106228071226" lon="13.177884260313334"><ele>1450.6</ele><time>2026-04-12T09:28:37.999Z</time></trkpt><trkpt lat="42.041049668133276" lon="13.178026069211107"><ele>1449.1999999999998</ele><time>2026-04-12T09:28:38.999Z</time></trkpt><trkpt lat="42.041035934040515" lon="13.178153319371013"><ele>1447.8</ele><time>2026-04-12T09:28:39.999Z</time></trkpt><trkpt lat="42.04101306968806" lon="13.178264435469929"><ele>1446.4</ele><time>2026-04-12T09:28:40.999Z</time></trkpt><trkpt lat="42.04098190017334" lon="13.178374486629101"><ele>1445.0</ele><time>2026-04-12T09:28:41.999Z</time></trkpt><trkpt lat="42.04096207662345" lon="13.17852162963148"><ele>1443.0</ele><time>2026-04-12T09:28:42.999Z</time></trkpt><trkpt lat="42.04091329344151" lon="13.178667331432635"><ele>1441.0</ele><time>2026-04-12T09:28:43.999Z</time></trkpt><trkpt lat="42.040879054946025" lon="13.178802169639022"><ele>1439.0</ele><time>2026-04-12T09:28:44.999Z</time></trkpt><trkpt lat="42.040840304630805" lon="13.178938067939969"><ele>1437.0</ele><time>2026-04-12T09:28:45.999Z</time></trkpt><trkpt lat="42.04080834728256" lon="13.179089898083138"><ele>1439.0</ele><time>2026-04-12T09:28:46.999Z</time></trkpt><trkpt lat="42.040744762384975" lon="13.17921193858051"><ele>1441.0</ele><time>2026-04-12T09:28:47.999Z</time></trkpt><trkpt lat="42.040688277449775" lon="13.179353196161992"><ele>1443.0</ele><time>2026-04-12T09:28:48.999Z</time></trkpt><trkpt lat="42.040650876827975" lon="13.17950779883672"><ele>1445.0</ele><time>2026-04-12T09:28:49.999Z</time></trkpt><trkpt lat="42.04060532029208" lon="13.179663414786972"><ele>1445.0</ele><time>2026-04-12T09:28:50.999Z</time></trkpt><trkpt lat="42.04055019933385" lon="13.179788415725588"><ele>1445.0</ele><time>2026-04-12T09:28:51.999Z</time></trkpt><trkpt lat="42.04049138893439" lon="13.179929996684502"><ele>1445.0</ele><time>2026-04-12T09:28:52.999Z</time></trkpt><trkpt lat="42.04044260825638" lon="13.180076851431462"><ele>1445.0</ele><time>2026-04-12T09:28:53.999Z</time></trkpt><trkpt lat="42.04040171715208" lon="13.180240210979797"><ele>1441.5</ele><time>2026-04-12T09:28:54.999Z</time></trkpt><trkpt lat="42.040336318082886" lon="13.18039603757398"><ele>1438.0</ele><time>2026-04-12T09:28:55.999Z</time></trkpt><trkpt lat="42.04029696745259" lon="13.180543319206356"><ele>1434.5</ele><time>2026-04-12T09:28:56.999Z</time></trkpt><trkpt lat="42.040232850570504" lon="13.180682440379279"><ele>1431.0</ele><time>2026-04-12T09:28:57.999Z</time></trkpt><trkpt lat="42.040176405465196" lon="13.180828610073467"><ele>1429.75</ele><time>2026-04-12T09:28:58.999Z</time></trkpt><trkpt lat="42.04012654161616" lon="13.180995490954903"><ele>1428.5</ele><time>2026-04-12T09:28:59.999Z</time></trkpt><trkpt lat="42.04006554359969" lon="13.181151351437368"><ele>1427.25</ele><time>2026-04-12T09:29:00.999Z</time></trkpt><trkpt lat="42.039996440500836" lon="13.181293752435963"><ele>1426.0</ele><time>2026-04-12T09:29:01.999Z</time></trkpt><trkpt lat="42.039941841362484" lon="13.181441361291586"><ele>1424.5</ele><time>2026-04-12T09:29:02.999Z</time></trkpt><trkpt lat="42.03988695484899" lon="13.181587293299364"><ele>1423.0</ele><time>2026-04-12T09:29:03.999Z</time></trkpt><trkpt lat="42.03983355457752" lon="13.181728374072012"><ele>1421.5</ele><time>2026-04-12T09:29:04.999Z</time></trkpt><trkpt lat="42.03978663993584" lon="13.181900149460965"><ele>1420.0</ele><time>2026-04-12T09:29:05.999Z</time></trkpt><trkpt lat="42.03972586107686" lon="13.182067324359512"><ele>1420.0</ele><time>2026-04-12T09:29:06.999Z</time></trkpt><trkpt lat="42.03967706345768" lon="13.182236856539784"><ele>1420.0</ele><time>2026-04-12T09:29:07.999Z</time></trkpt><trkpt lat="42.03962367919605" lon="13.182406589949508"><ele>1420.0</ele><time>2026-04-12T09:29:08.999Z</time></trkpt><trkpt lat="42.03957671731689" lon="13.182570059438081"><ele>1420.0</ele><time>2026-04-12T09:29:09.999Z</time></trkpt><trkpt lat="42.0395372695852" lon="13.18271320395522"><ele>1419.2</ele><time>2026-04-12T09:29:10.999Z</time></trkpt><trkpt lat="42.039502580794384" lon="13.18284189869749"><ele>1418.4</ele><time>2026-04-12T09:29:11.999Z</time></trkpt><trkpt lat="42.0394369789739" lon="13.182971882995037"><ele>1417.6</ele><time>2026-04-12T09:29:12.999Z</time></trkpt><trkpt lat="42.03937918338064" lon="13.183102910477645"><ele>1416.8</ele><time>2026-04-12T09:29:13.999Z</time></trkpt><trkpt lat="42.03931415807958" lon="13.183227243165774"><ele>1416.0</ele><time>2026-04-12T09:29:14.999Z</time></trkpt><trkpt lat="42.03922597531331" lon="13.183348844733782"><ele>1415.0</ele><time>2026-04-12T09:29:15.999Z</time></trkpt><trkpt lat="42.03915600325058" lon="13.183470277107123"><ele>1414.0</ele><time>2026-04-12T09:29:16.999Z</time></trkpt><trkpt lat="42.039100213480474" lon="13.183603603982817"><ele>1413.0</ele><time>2026-04-12T09:29:17.999Z</time></trkpt><trkpt lat="42.039028539282036" lon="13.18374786589523"><ele>1412.0</ele><time>2026-04-12T09:29:18.999Z</time></trkpt><trkpt lat="42.03893393563901" lon="13.183875742478163"><ele>1414.0</ele><time>2026-04-12T09:29:19.999Z</time></trkpt><trkpt lat="42.0388347631317" lon="13.184009700339148"><ele>1416.0</ele><time>2026-04-12T09:29:20.999Z</time></trkpt><trkpt lat="42.03885237452344" lon="13.184252783806699"><ele>1418.0</ele><time>2026-04-12T09:29:21.999Z</time></trkpt><trkpt lat="42.03875567215925" lon="13.184422489442245"><ele>1418.0</ele><time>2026-04-12T09:29:22.999Z</time></trkpt><trkpt lat="42.03865357738402" lon="13.184547581910763"><ele>1418.0</ele><time>2026-04-12T09:29:23.999Z</time></trkpt><trkpt lat="42.0385392060301" lon="13.184651128328284"><ele>1418.0</ele><time>2026-04-12T09:29:24.999Z</time></trkpt><trkpt lat="42.03844543385787" lon="13.184739383935897"><ele>1418.0</ele><time>2026-04-12T09:29:25.999Z</time></trkpt><trkpt lat="42.038349776964544" lon="13.184836941849959"><ele>1418.25</ele><time>2026-04-12T09:29:26.999Z</time></trkpt><trkpt lat="42.038248876591695" lon="13.184953144960378"><ele>1418.5</ele><time>2026-04-12T09:29:27.999Z</time></trkpt><trkpt lat="42.038157264836826" lon="13.185060698900001"><ele>1418.75</ele><time>2026-04-12T09:29:28.999Z</time></trkpt><trkpt lat="42.03808554334631" lon="13.185163642102971"><ele>1419.0</ele><time>2026-04-12T09:29:29.999Z</time></trkpt><trkpt lat="42.03801091135389" lon="13.185262095504463"><ele>1419.0</ele><time>2026-04-12T09:29:30.999Z</time></trkpt><trkpt lat="42.03794098129665" lon="13.185391057045788"><ele>1419.0</ele><time>2026-04-12T09:29:31.999Z</time></trkpt><trkpt lat="42.037846710172865" lon="13.185497687947347"><ele>1419.0</ele><time>2026-04-12T09:29:32.999Z</time></trkpt><trkpt lat="42.03777886970941" lon="13.18561978785577"><ele>1419.0</ele><time>2026-04-12T09:29:33.999Z</time></trkpt><trkpt lat="42.037716339365595" lon="13.185753418737807"><ele>1417.6</ele><time>2026-04-12T09:29:34.999Z</time></trkpt><trkpt lat="42.03764892150367" lon="13.185889952819457"><ele>1416.2</ele><time>2026-04-12T09:29:35.999Z</time></trkpt><trkpt lat="42.037603185207836" lon="13.186028878614765"><ele>1414.8</ele><time>2026-04-12T09:29:36.999Z</time></trkpt><trkpt lat="42.03753811956956" lon="13.186130406575048"><ele>1413.3999999999999</ele><time>2026-04-12T09:29:37.999Z</time></trkpt><trkpt lat="42.03745597802102" lon="13.186201129296"><ele>1412.0</ele><time>2026-04-12T09:29:38.999Z</time></trkpt><trkpt lat="42.037372776815786" lon="13.186310308299511"><ele>1414.0</ele><time>2026-04-12T09:29:39.998Z</time></trkpt><trkpt lat="42.03728634717194" lon="13.186416359716135"><ele>1416.0</ele><time>2026-04-12T09:29:40.998Z</time></trkpt><trkpt lat="42.03718376856811" lon="13.186526643049502"><ele>1418.0</ele><time>2026-04-12T09:29:41.998Z</time></trkpt><trkpt lat="42.037087556057585" lon="13.186623087311808"><ele>1420.0</ele><time>2026-04-12T09:29:42.998Z</time></trkpt><trkpt lat="42.03701280506693" lon="13.186732576294009"><ele>1420.0</ele><time>2026-04-12T09:29:43.998Z</time></trkpt><trkpt lat="42.0369445053556" lon="13.186872204026546"><ele>1420.0</ele><time>2026-04-12T09:29:44.998Z</time></trkpt><trkpt lat="42.03685713013599" lon="13.187007859102389"><ele>1420.0</ele><time>2026-04-12T09:29:45.998Z</time></trkpt><trkpt lat="42.036791469638636" lon="13.187126374058815"><ele>1420.0</ele><time>2026-04-12T09:29:46.998Z</time></trkpt><trkpt lat="42.03674923051684" lon="13.187226976267022"><ele>1420.0</ele><time>2026-04-12T09:29:47.998Z</time></trkpt><trkpt lat="42.03669017977833" lon="13.187326310036312"><ele>1420.0</ele><time>2026-04-12T09:29:48.998Z</time></trkpt><trkpt lat="42.03659847729763" lon="13.187380347121298"><ele>1420.0</ele><time>2026-04-12T09:29:49.998Z</time></trkpt><trkpt lat="42.036490256410445" lon="13.187432229502736"><ele>1420.0</ele><time>2026-04-12T09:29:50.998Z</time></trkpt><trkpt lat="42.036371508633565" lon="13.187491963343628"><ele>1420.0</ele><time>2026-04-12T09:29:51.998Z</time></trkpt><trkpt lat="42.036271229667484" lon="13.187573195953224"><ele>1419.75</ele><time>2026-04-12T09:29:52.998Z</time></trkpt><trkpt lat="42.036155247874966" lon="13.187646324637035"><ele>1419.5</ele><time>2026-04-12T09:29:53.998Z</time></trkpt><trkpt lat="42.036056197370655" lon="13.187746517314292"><ele>1419.25</ele><time>2026-04-12T09:29:54.998Z</time></trkpt><trkpt lat="42.03594709345899" lon="13.187814522959112"><ele>1419.0</ele><time>2026-04-12T09:29:55.998Z</time></trkpt><trkpt lat="42.03585064761832" lon="13.1879181457887"><ele>1420.5</ele><time>2026-04-12T09:29:56.998Z</time></trkpt><trkpt lat="42.03576174508245" lon="13.188030748712722"><ele>1422.0</ele><time>2026-04-12T09:29:57.998Z</time></trkpt><trkpt lat="42.03565885710479" lon="13.188141574859692"><ele>1423.5</ele><time>2026-04-12T09:29:58.998Z</time></trkpt><trkpt lat="42.035572429416554" lon="13.188250591648623"><ele>1425.0</ele><time>2026-04-12T09:29:59.998Z</time></trkpt><trkpt lat="42.035494414714165" lon="13.188348997064713"><ele>1425.0</ele><time>2026-04-12T09:30:00.998Z</time></trkpt><trkpt lat="42.03541570219517" lon="13.188437943247482"><ele>1425.0</ele><time>2026-04-12T09:30:01.998Z</time></trkpt><trkpt lat="42.03534681090218" lon="13.188563848395463"><ele>1425.0</ele><time>2026-04-12T09:30:02.998Z</time></trkpt><trkpt lat="42.035290670289996" lon="13.188724892585125"><ele>1425.0</ele><time>2026-04-12T09:30:03.998Z</time></trkpt><trkpt lat="42.03524087317434" lon="13.188882405536525"><ele>1422.8</ele><time>2026-04-12T09:30:04.998Z</time></trkpt><trkpt lat="42.035205483679576" lon="13.189033613130295"><ele>1420.6</ele><time>2026-04-12T09:30:05.998Z</time></trkpt><trkpt lat="42.03516080340674" lon="13.189168480475255"><ele>1418.4</ele><time>2026-04-12T09:30:06.998Z</time></trkpt><trkpt lat="42.03512518256444" lon="13.189295074502606"><ele>1416.2</ele><time>2026-04-12T09:30:07.998Z</time></trkpt><trkpt lat="42.03505079690006" lon="13.189417900823518"><ele>1414.0</ele><time>2026-04-12T09:30:08.998Z</time></trkpt><trkpt lat="42.03497733429724" lon="13.189522991239858"><ele>1414.6</ele><time>2026-04-12T09:30:09.998Z</time></trkpt><trkpt lat="42.034902775627366" lon="13.189610305614135"><ele>1415.2</ele><time>2026-04-12T09:30:10.998Z</time></trkpt><trkpt lat="42.034818100486646" lon="13.189690284262044"><ele>1415.8</ele><time>2026-04-12T09:30:11.998Z</time></trkpt><trkpt lat="42.03473421710946" lon="13.189742256036933"><ele>1416.3999999999999</ele><time>2026-04-12T09:30:12.998Z</time></trkpt><trkpt lat="42.03465378347297" lon="13.189809707412888"><ele>1417.0</ele><time>2026-04-12T09:30:13.998Z</time></trkpt><trkpt lat="42.03458145161781" lon="13.18987846035894"><ele>1417.0</ele><time>2026-04-12T09:30:14.998Z</time></trkpt><trkpt lat="42.03451760591279" lon="13.189917971448146"><ele>1417.0</ele><time>2026-04-12T09:30:15.998Z</time></trkpt><trkpt lat="42.03445757295225" lon="13.189953147929158"><ele>1417.0</ele><time>2026-04-12T09:30:16.998Z</time></trkpt><trkpt lat="42.03433288687806" lon="13.18999994237065"><ele>1417.0</ele><time>2026-04-12T09:30:18.998Z</time></trkpt><trkpt lat="42.03424685942703" lon="13.1900524897824"><ele>1417.0</ele><time>2026-04-12T09:30:19.998Z</time></trkpt><trkpt lat="42.03415856862665" lon="13.190101228781433"><ele>1420.3999999999999</ele><time>2026-04-12T09:30:20.998Z</time></trkpt><trkpt lat="42.03409784373935" lon="13.190127041434252"><ele>1423.8</ele><time>2026-04-12T09:30:21.998Z</time></trkpt><trkpt lat="42.034042797568894" lon="13.190181855507262"><ele>1427.2</ele><time>2026-04-12T09:30:22.998Z</time></trkpt><trkpt lat="42.03394742308742" lon="13.190321268552166"><ele>1430.6</ele><time>2026-04-12T09:30:24.998Z</time></trkpt><trkpt lat="42.03388888276868" lon="13.190442535464058"><ele>1434.0</ele><time>2026-04-12T09:30:25.998Z</time></trkpt><trkpt lat="42.03384265492424" lon="13.190537269284775"><ele>1434.0</ele><time>2026-04-12T09:30:26.998Z</time></trkpt><trkpt lat="42.03379628462059" lon="13.190618328038598"><ele>1434.0</ele><time>2026-04-12T09:30:27.998Z</time></trkpt><trkpt lat="42.03374512822716" lon="13.190700934584363"><ele>1434.0</ele><time>2026-04-12T09:30:28.998Z</time></trkpt><trkpt lat="42.03370012390834" lon="13.190773556339186"><ele>1434.0</ele><time>2026-04-12T09:30:29.998Z</time></trkpt><trkpt lat="42.03364392273718" lon="13.190864246201055"><ele>1434.0</ele><time>2026-04-12T09:30:30.998Z</time></trkpt><trkpt lat="42.03358400914496" lon="13.19096324793912"><ele>1434.0</ele><time>2026-04-12T09:30:31.998Z</time></trkpt><trkpt lat="42.03353252978511" lon="13.191048921723262"><ele>1432.8333333333333</ele><time>2026-04-12T09:30:32.999Z</time></trkpt><trkpt lat="42.033467873030716" lon="13.191156525765177"><ele>1431.6666666666667</ele><time>2026-04-12T09:30:33.999Z</time></trkpt><trkpt lat="42.033416368532244" lon="13.191242241199697"><ele>1430.5</ele><time>2026-04-12T09:30:34.999Z</time></trkpt><trkpt lat="42.03333688418255" lon="13.19136596248222"><ele>1429.3333333333335</ele><time>2026-04-12T09:30:36.999Z</time></trkpt><trkpt lat="42.03328775415071" lon="13.191441077990826"><ele>1428.1666666666667</ele><time>2026-04-12T09:30:37.999Z</time></trkpt><trkpt lat="42.03324581350421" lon="13.191512547279924"><ele>1427.0</ele><time>2026-04-12T09:30:38.999Z</time></trkpt><trkpt lat="42.033214841402156" lon="13.191587340133552"><ele>1427.0</ele><time>2026-04-12T09:30:39.999Z</time></trkpt><trkpt lat="42.03319120359061" lon="13.191668422248743"><ele>1427.0</ele><time>2026-04-12T09:30:40.999Z</time></trkpt><trkpt lat="42.03313522182236" lon="13.191802947381252"><ele>1427.0</ele><time>2026-04-12T09:30:42.999Z</time></trkpt><trkpt lat="42.03309029564824" lon="13.191874048655285"><ele>1427.0</ele><time>2026-04-12T09:30:43.999Z</time></trkpt><trkpt lat="42.03304229941587" lon="13.191953885318553"><ele>1427.0</ele><time>2026-04-12T09:30:44.999Z</time></trkpt><trkpt lat="42.0329980601321" lon="13.192078584225584"><ele>1427.0</ele><time>2026-04-12T09:30:46.999Z</time></trkpt><trkpt lat="42.03297778243302" lon="13.192168861914812"><ele>1427.0</ele><time>2026-04-12T09:30:48.999Z</time></trkpt><trkpt lat="42.03295992334147" lon="13.19229060887932"><ele>1427.0</ele><time>2026-04-12T09:30:50.999Z</time></trkpt><trkpt lat="42.032929442844356" lon="13.192375906791376"><ele>1427.0</ele><time>2026-04-12T09:30:51.999Z</time></trkpt><trkpt lat="42.0329160766136" lon="13.192474071722469"><ele>1427.0</ele><time>2026-04-12T09:30:52.999Z</time></trkpt><trkpt lat="42.032898315902834" lon="13.192587623308405"><ele>1427.0</ele><time>2026-04-12T09:30:53.999Z</time></trkpt><trkpt lat="42.03288487120393" lon="13.192699233855658"><ele>1427.0</ele><time>2026-04-12T09:30:54.999Z</time></trkpt><trkpt lat="42.0328635847402" lon="13.19284148350485"><ele>1425.1999999999998</ele><time>2026-04-12T09:30:56.999Z</time></trkpt><trkpt lat="42.03282245096571" lon="13.192968550493516"><ele>1423.4</ele><time>2026-04-12T09:30:58.999Z</time></trkpt><trkpt lat="42.03277858214679" lon="13.193064527599748"><ele>1421.6</ele><time>2026-04-12T09:30:59.999Z</time></trkpt><trkpt lat="42.03271916368813" lon="13.193185182078054"><ele>1419.8000000000002</ele><time>2026-04-12T09:31:00.999Z</time></trkpt><trkpt lat="42.032675375329646" lon="13.193258606880987"><ele>1418.0</ele><time>2026-04-12T09:31:01.999Z</time></trkpt><trkpt lat="42.03259308888674" lon="13.193412810972763"><ele>1419.1666666666667</ele><time>2026-04-12T09:31:03.999Z</time></trkpt><trkpt lat="42.03253039029944" lon="13.193512191366809"><ele>1420.3333333333335</ele><time>2026-04-12T09:31:04.999Z</time></trkpt><trkpt lat="42.032483593416785" lon="13.19359888358028"><ele>1421.5</ele><time>2026-04-12T09:31:05.999Z</time></trkpt><trkpt lat="42.032450592696215" lon="13.193678298614634"><ele>1422.6666666666667</ele><time>2026-04-12T09:31:06.999Z</time></trkpt><trkpt lat="42.032403064707665" lon="13.193748213975061"><ele>1423.8333333333333</ele><time>2026-04-12T09:31:07.999Z</time></trkpt><trkpt lat="42.03235726354353" lon="13.193826558085808"><ele>1425.0</ele><time>2026-04-12T09:31:08.999Z</time></trkpt><trkpt lat="42.032314792918754" lon="13.193905659652959"><ele>1425.0</ele><time>2026-04-12T09:31:09.999Z</time></trkpt><trkpt lat="42.03227734013041" lon="13.193985614978338"><ele>1425.0</ele><time>2026-04-12T09:31:10.999Z</time></trkpt><trkpt lat="42.03222111816198" lon="13.194097206050687"><ele>1425.0</ele><time>2026-04-12T09:31:11.999Z</time></trkpt><trkpt lat="42.03215451094582" lon="13.194216366584223"><ele>1425.0</ele><time>2026-04-12T09:31:12.999Z</time></trkpt><trkpt lat="42.03212210369689" lon="13.194338215232083"><ele>1425.0</ele><time>2026-04-12T09:31:13.999Z</time></trkpt><trkpt lat="42.0321151194872" lon="13.194481421607213"><ele>1422.0</ele><time>2026-04-12T09:31:14.999Z</time></trkpt><trkpt lat="42.032109387334536" lon="13.19462728150624"><ele>1419.0</ele><time>2026-04-12T09:31:15.999Z</time></trkpt><trkpt lat="42.03209985790926" lon="13.194760586877699"><ele>1416.0</ele><time>2026-04-12T09:31:16.999Z</time></trkpt><trkpt lat="42.032089349883805" lon="13.194901596259927"><ele>1413.0</ele><time>2026-04-12T09:31:17.999Z</time></trkpt><trkpt lat="42.032071121149144" lon="13.195027927210747"><ele>1410.0</ele><time>2026-04-12T09:31:18.999Z</time></trkpt><trkpt lat="42.03204559066276" lon="13.195140597954564"><ele>1408.8333333333333</ele><time>2026-04-12T09:31:19.999Z</time></trkpt><trkpt lat="42.03200092042809" lon="13.195262666734155"><ele>1407.6666666666667</ele><time>2026-04-12T09:31:20.999Z</time></trkpt><trkpt lat="42.03196345587386" lon="13.19536303914609"><ele>1406.5</ele><time>2026-04-12T09:31:21.999Z</time></trkpt><trkpt lat="42.03191728429283" lon="13.195436232017046"><ele>1405.3333333333335</ele><time>2026-04-12T09:31:22.999Z</time></trkpt><trkpt lat="42.03188798023753" lon="13.195524333111019"><ele>1404.1666666666667</ele><time>2026-04-12T09:31:23.999Z</time></trkpt><trkpt lat="42.031818106790055" lon="13.195603257232104"><ele>1403.0</ele><time>2026-04-12T09:31:24.999Z</time></trkpt><trkpt lat="42.03176147718423" lon="13.195692990001444"><ele>1401.8000000000002</ele><time>2026-04-12T09:31:25.999Z</time></trkpt><trkpt lat="42.03171161686234" lon="13.195807108301548"><ele>1400.6</ele><time>2026-04-12T09:31:26.999Z</time></trkpt><trkpt lat="42.03162742273349" lon="13.195924332016315"><ele>1399.4</ele><time>2026-04-12T09:31:27.999Z</time></trkpt><trkpt lat="42.031587446469594" lon="13.196007436462162"><ele>1398.1999999999998</ele><time>2026-04-12T09:31:29.999Z</time></trkpt><trkpt lat="42.031543660109286" lon="13.196095543130111"><ele>1397.0</ele><time>2026-04-12T09:31:31.999Z</time></trkpt><trkpt lat="42.031482480673986" lon="13.196220484279861"><ele>1397.0</ele><time>2026-04-12T09:31:33.999Z</time></trkpt><trkpt lat="42.03142868524449" lon="13.196335300693004"><ele>1397.0</ele><time>2026-04-12T09:31:35.999Z</time></trkpt><trkpt lat="42.03135743576986" lon="13.196453909102367"><ele>1397.0</ele><time>2026-04-12T09:31:37.999Z</time></trkpt><trkpt lat="42.031309906644914" lon="13.196556787064877"><ele>1397.0</ele><time>2026-04-12T09:31:39.999Z</time></trkpt><trkpt lat="42.031261348574176" lon="13.196667862855957"><ele>1397.0</ele><time>2026-04-12T09:31:42Z</time></trkpt><trkpt lat="42.03121907422446" lon="13.196768237295435"><ele>1394.8</ele><time>2026-04-12T09:31:43.999Z</time></trkpt><trkpt lat="42.03117851125931" lon="13.196873439562697"><ele>1392.6</ele><time>2026-04-12T09:31:45.999Z</time></trkpt><trkpt lat="42.031118242772486" lon="13.19703865100525"><ele>1390.3999999999999</ele><time>2026-04-12T09:31:47.999Z</time></trkpt><trkpt lat="42.031083148052225" lon="13.19714199527468"><ele>1388.1999999999998</ele><time>2026-04-12T09:31:48.999Z</time></trkpt><trkpt lat="42.03106559594108" lon="13.197249333261762"><ele>1386.0</ele><time>2026-04-12T09:31:49.999Z</time></trkpt><trkpt lat="42.031038368095594" lon="13.19732999481522"><ele>1384.7142857142858</ele><time>2026-04-12T09:31:50.999Z</time></trkpt><trkpt lat="42.03100153715881" lon="13.197420294087884"><ele>1383.4285714285716</ele><time>2026-04-12T09:31:51.999Z</time></trkpt><trkpt lat="42.03097329848615" lon="13.19749814307209"><ele>1382.142857142857</ele><time>2026-04-12T09:31:52.999Z</time></trkpt><trkpt lat="42.03094958812278" lon="13.197584428465492"><ele>1380.857142857143</ele><time>2026-04-12T09:31:53.999Z</time></trkpt><trkpt lat="42.03091475126956" lon="13.197680126541487"><ele>1379.5714285714287</ele><time>2026-04-12T09:31:54.999Z</time></trkpt><trkpt lat="42.03089765071061" lon="13.197775847399782"><ele>1378.2857142857142</ele><time>2026-04-12T09:31:55.999Z</time></trkpt><trkpt lat="42.03088519069979" lon="13.19786774924664"><ele>1377.0</ele><time>2026-04-12T09:31:56.999Z</time></trkpt><trkpt lat="42.030862750873816" lon="13.198000744459359"><ele>1377.0</ele><time>2026-04-12T09:31:58.999Z</time></trkpt><trkpt lat="42.030848044249026" lon="13.198129541680656"><ele>1377.0</ele><time>2026-04-12T09:32:00.999Z</time></trkpt><trkpt lat="42.03083597572565" lon="13.198278942661737"><ele>1377.0</ele><time>2026-04-12T09:32:02.999Z</time></trkpt><trkpt lat="42.03085268878036" lon="13.198424959437544"><ele>1377.0</ele><time>2026-04-12T09:32:04.999Z</time></trkpt><trkpt lat="42.03086777468903" lon="13.198511019101872"><ele>1377.0</ele><time>2026-04-12T09:32:05.999Z</time></trkpt><trkpt lat="42.03091233548947" lon="13.198671526875506"><ele>1375.8</ele><time>2026-04-12T09:32:07.999Z</time></trkpt><trkpt lat="42.030942408271045" lon="13.198747300647508"><ele>1374.6</ele><time>2026-04-12T09:32:08.999Z</time></trkpt><trkpt lat="42.03099708676954" lon="13.198875764293962"><ele>1373.3999999999999</ele><time>2026-04-12T09:32:10.999Z</time></trkpt><trkpt lat="42.031055615841886" lon="13.198982089593022"><ele>1372.1999999999998</ele><time>2026-04-12T09:32:12.999Z</time></trkpt><trkpt lat="42.031129927240556" lon="13.199126785461328"><ele>1371.0</ele><time>2026-04-12T09:32:14.999Z</time></trkpt><trkpt lat="42.03117298227948" lon="13.199213091557128"><ele>1370.1999999999998</ele><time>2026-04-12T09:32:15.999Z</time></trkpt><trkpt lat="42.03121789181111" lon="13.199297151043407"><ele>1369.3999999999999</ele><time>2026-04-12T09:32:16.999Z</time></trkpt><trkpt lat="42.031248323570686" lon="13.19938620665874"><ele>1368.6</ele><time>2026-04-12T09:32:17.999Z</time></trkpt><trkpt lat="42.031331442644074" lon="13.199519368597677"><ele>1367.8</ele><time>2026-04-12T09:32:19.999Z</time></trkpt><trkpt lat="42.031384348465494" lon="13.199593318900297"><ele>1367.0</ele><time>2026-04-12T09:32:20.999Z</time></trkpt><trkpt lat="42.03148753525071" lon="13.199683266404959"><ele>1367.0</ele><time>2026-04-12T09:32:22.999Z</time></trkpt><trkpt lat="42.03154755116128" lon="13.199754781740996"><ele>1367.0</ele><time>2026-04-12T09:32:23.999Z</time></trkpt><trkpt lat="42.0316443246726" lon="13.19984272626637"><ele>1367.0</ele><time>2026-04-12T09:32:24.999Z</time></trkpt><trkpt lat="42.031722325991446" lon="13.199943601469863"><ele>1367.0</ele><time>2026-04-12T09:32:25.999Z</time></trkpt><trkpt lat="42.03178218438902" lon="13.200042284956085"><ele>1367.0</ele><time>2026-04-12T09:32:26.999Z</time></trkpt><trkpt lat="42.0318295862501" lon="13.200154171766316"><ele>1365.0</ele><time>2026-04-12T09:32:27.999Z</time></trkpt><trkpt lat="42.03187299266645" lon="13.200292493492839"><ele>1363.0</ele><time>2026-04-12T09:32:28.999Z</time></trkpt><trkpt lat="42.031915703690096" lon="13.200402783964472"><ele>1361.0</ele><time>2026-04-12T09:32:29.999Z</time></trkpt><trkpt lat="42.03195244300984" lon="13.20049707321793"><ele>1359.0</ele><time>2026-04-12T09:32:30.999Z</time></trkpt><trkpt lat="42.031997937287336" lon="13.200608719442343"><ele>1357.0</ele><time>2026-04-12T09:32:31.999Z</time></trkpt><trkpt lat="42.032060843834714" lon="13.20073199081153"><ele>1356.8333333333333</ele><time>2026-04-12T09:32:32.999Z</time></trkpt><trkpt lat="42.03214447414855" lon="13.200847513053146"><ele>1356.6666666666665</ele><time>2026-04-12T09:32:33.999Z</time></trkpt><trkpt lat="42.032222271044986" lon="13.200914207018933"><ele>1356.5</ele><time>2026-04-12T09:32:34.999Z</time></trkpt><trkpt lat="42.03227676271761" lon="13.200979359763375"><ele>1356.3333333333333</ele><time>2026-04-12T09:32:35.999Z</time></trkpt><trkpt lat="42.032344158525085" lon="13.201041142347846"><ele>1356.1666666666667</ele><time>2026-04-12T09:32:37.999Z</time></trkpt><trkpt lat="42.0324132734942" lon="13.201029546424202"><ele>1356.0</ele><time>2026-04-12T09:32:40Z</time></trkpt><trkpt lat="42.032476475230055" lon="13.201035829247912"><ele>1352.8333333333333</ele><time>2026-04-12T09:32:41Z</time></trkpt><trkpt lat="42.03255942832245" lon="13.20102334890339"><ele>1349.6666666666667</ele><time>2026-04-12T09:32:42Z</time></trkpt><trkpt lat="42.032639055342706" lon="13.201035634176668"><ele>1346.5</ele><time>2026-04-12T09:32:43Z</time></trkpt><trkpt lat="42.032720820464704" lon="13.201026780716738"><ele>1343.3333333333335</ele><time>2026-04-12T09:32:44Z</time></trkpt><trkpt lat="42.03278540552673" lon="13.20102850788006"><ele>1340.1666666666667</ele><time>2026-04-12T09:32:45Z</time></trkpt><trkpt lat="42.03288915986735" lon="13.201060075474723"><ele>1337.0</ele><time>2026-04-12T09:32:47Z</time></trkpt><trkpt lat="42.03296577480576" lon="13.20106785376915"><ele>1337.0</ele><time>2026-04-12T09:32:49Z</time></trkpt><trkpt lat="42.033052602567004" lon="13.20108414891569"><ele>1337.0</ele><time>2026-04-12T09:33:14Z</time></trkpt><trkpt lat="42.033119130668176" lon="13.20107087742172"><ele>1337.0</ele><time>2026-04-12T09:37:19Z</time></trkpt><trkpt lat="42.03312131687878" lon="13.201157984568725"><ele>1337.0</ele><time>2026-04-12T09:37:24Z</time></trkpt><trkpt lat="42.0330469104567" lon="13.201081110599839"><ele>1337.0</ele><time>2026-04-12T09:37:27Z</time></trkpt><trkpt lat="42.032960694532434" lon="13.201049414693125"><ele>1337.0</ele><time>2026-04-12T09:37:29Z</time></trkpt><trkpt lat="42.03288102544011" lon="13.201091807214791"><ele>1337.0</ele><time>2026-04-12T09:37:31Z</time></trkpt><trkpt lat="42.03279605267502" lon="13.201158518600923"><ele>1337.0</ele><time>2026-04-12T09:37:33Z</time></trkpt><trkpt lat="42.032733569038626" lon="13.201212169804089"><ele>1337.0</ele><time>2026-04-12T09:37:34Z</time></trkpt><trkpt lat="42.03266863815037" lon="13.201277760129862"><ele>1337.0</ele><time>2026-04-12T09:37:35Z</time></trkpt><trkpt lat="42.03261574201398" lon="13.201339143577803"><ele>1337.0</ele><time>2026-04-12T09:37:36Z</time></trkpt><trkpt lat="42.03252960505084" lon="13.201415394655664"><ele>1337.0</ele><time>2026-04-12T09:37:38Z</time></trkpt><trkpt lat="42.0324347839301" lon="13.20150329901175"><ele>1338.8333333333335</ele><time>2026-04-12T09:37:40Z</time></trkpt><trkpt lat="42.03238765926803" lon="13.201560100115943"><ele>1340.6666666666667</ele><time>2026-04-12T09:37:41Z</time></trkpt><trkpt lat="42.032288231495144" lon="13.201665831815275"><ele>1342.5</ele><time>2026-04-12T09:37:43Z</time></trkpt><trkpt lat="42.032231550089875" lon="13.20173724763964"><ele>1344.3333333333333</ele><time>2026-04-12T09:37:45Z</time></trkpt><trkpt lat="42.03215868870172" lon="13.201828278900907"><ele>1346.1666666666665</ele><time>2026-04-12T09:37:47Z</time></trkpt><trkpt lat="42.03209631958049" lon="13.201883778611622"><ele>1348.0</ele><time>2026-04-12T09:37:49Z</time></trkpt><trkpt lat="42.03204218742559" lon="13.201963515975798"><ele>1348.0</ele><time>2026-04-12T09:37:52Z</time></trkpt><trkpt lat="42.03198365761344" lon="13.202049658761176"><ele>1348.0</ele><time>2026-04-12T09:39:15Z</time></trkpt><trkpt lat="42.03194807619558" lon="13.202120855142601"><ele>1348.0</ele><time>2026-04-12T09:39:17Z</time></trkpt><trkpt lat="42.03189302787877" lon="13.202284029909501"><ele>1348.0</ele><time>2026-04-12T09:39:19Z</time></trkpt><trkpt lat="42.031857069489405" lon="13.202392567428964"><ele>1348.0</ele><time>2026-04-12T09:39:20Z</time></trkpt><trkpt lat="42.0318311134429" lon="13.202480863880819"><ele>1348.0</ele><time>2026-04-12T09:39:21Z</time></trkpt><trkpt lat="42.03181194670944" lon="13.202629141551053"><ele>1345.6000000000001</ele><time>2026-04-12T09:39:23Z</time></trkpt><trkpt lat="42.03182673366082" lon="13.202769623136762"><ele>1343.2</ele><time>2026-04-12T09:39:25Z</time></trkpt><trkpt lat="42.03183185806173" lon="13.202967033011195"><ele>1340.8</ele><time>2026-04-12T09:39:27Z</time></trkpt><trkpt lat="42.0318244183072" lon="13.203075477207332"><ele>1338.4</ele><time>2026-04-12T09:39:28Z</time></trkpt><trkpt lat="42.031806027013765" lon="13.203179220222637"><ele>1336.0</ele><time>2026-04-12T09:39:29Z</time></trkpt><trkpt lat="42.03178423304123" lon="13.203287710218662"><ele>1336.0</ele><time>2026-04-12T09:39:30Z</time></trkpt><trkpt lat="42.03175868431825" lon="13.203414398448118"><ele>1336.0</ele><time>2026-04-12T09:39:31Z</time></trkpt><trkpt lat="42.03174202234552" lon="13.203522288742073"><ele>1336.0</ele><time>2026-04-12T09:39:32Z</time></trkpt><trkpt lat="42.031731851335216" lon="13.203619354562624"><ele>1336.0</ele><time>2026-04-12T09:39:33Z</time></trkpt><trkpt lat="42.03172356727311" lon="13.203721780537625"><ele>1336.0</ele><time>2026-04-12T09:39:34Z</time></trkpt><trkpt lat="42.03170949408545" lon="13.203849024157105"><ele>1336.0</ele><time>2026-04-12T09:39:35Z</time></trkpt><trkpt lat="42.03169661786733" lon="13.203982719332625"><ele>1335.4</ele><time>2026-04-12T09:39:36Z</time></trkpt><trkpt lat="42.031671913545765" lon="13.204099484095881"><ele>1334.8</ele><time>2026-04-12T09:39:37Z</time></trkpt><trkpt lat="42.03164065661457" lon="13.204211778260307"><ele>1334.2</ele><time>2026-04-12T09:39:38Z</time></trkpt><trkpt lat="42.031593867135854" lon="13.204358946259575"><ele>1333.6000000000001</ele><time>2026-04-12T09:39:39Z</time></trkpt><trkpt lat="42.031566352572085" lon="13.204497415426617"><ele>1333.0</ele><time>2026-04-12T09:39:40Z</time></trkpt><trkpt lat="42.03153352997404" lon="13.204658409970996"><ele>1332.8000000000002</ele><time>2026-04-12T09:39:41Z</time></trkpt><trkpt lat="42.03146704735681" lon="13.204718856135205"><ele>1332.6</ele><time>2026-04-12T09:39:43Z</time></trkpt><trkpt lat="42.03142219922532" lon="13.20482119758815"><ele>1332.4</ele><time>2026-04-12T09:39:44Z</time></trkpt><trkpt lat="42.03135449366636" lon="13.204924965880538"><ele>1332.1999999999998</ele><time>2026-04-12T09:39:45Z</time></trkpt><trkpt lat="42.03127360440876" lon="13.205010725674825"><ele>1332.0</ele><time>2026-04-12T09:39:46Z</time></trkpt><trkpt lat="42.03117201263827" lon="13.205083982114083"><ele>1331.3999999999999</ele><time>2026-04-12T09:39:47Z</time></trkpt><trkpt lat="42.03109489649587" lon="13.205157140628652"><ele>1330.8</ele><time>2026-04-12T09:39:48Z</time></trkpt><trkpt lat="42.03101843033907" lon="13.205249547721934"><ele>1330.2</ele><time>2026-04-12T09:39:49Z</time></trkpt><trkpt lat="42.03092607355729" lon="13.20534417134253"><ele>1329.6</ele><time>2026-04-12T09:39:50Z</time></trkpt><trkpt lat="42.030846328114286" lon="13.205421084268366"><ele>1329.0</ele><time>2026-04-12T09:39:51Z</time></trkpt><trkpt lat="42.030769482973575" lon="13.205504215530294"><ele>1329.0</ele><time>2026-04-12T09:39:52Z</time></trkpt><trkpt lat="42.03069897905128" lon="13.205593111152739"><ele>1329.0</ele><time>2026-04-12T09:39:53Z</time></trkpt><trkpt lat="42.03065181576372" lon="13.205681735832433"><ele>1329.0</ele><time>2026-04-12T09:39:54Z</time></trkpt><trkpt lat="42.03060897499456" lon="13.20577650656662"><ele>1329.0</ele><time>2026-04-12T09:39:55Z</time></trkpt><trkpt lat="42.03055151741278" lon="13.205838345497714"><ele>1329.0</ele><time>2026-04-12T09:39:56Z</time></trkpt><trkpt lat="42.030473494544175" lon="13.205905083637498"><ele>1329.0</ele><time>2026-04-12T09:39:57Z</time></trkpt><trkpt lat="42.030374759279546" lon="13.205968157453023"><ele>1329.0</ele><time>2026-04-12T09:39:58Z</time></trkpt><trkpt lat="42.03026961791991" lon="13.206041666995882"><ele>1329.0</ele><time>2026-04-12T09:39:58.999Z</time></trkpt><trkpt lat="42.0301882099226" lon="13.206099301510182"><ele>1329.0</ele><time>2026-04-12T09:39:59.999Z</time></trkpt><trkpt lat="42.0301208910451" lon="13.206157389010372"><ele>1329.0</ele><time>2026-04-12T09:40:00.999Z</time></trkpt><trkpt lat="42.03006781790915" lon="13.206230476121831"><ele>1329.0</ele><time>2026-04-12T09:40:01.999Z</time></trkpt><trkpt lat="42.030029937710644" lon="13.206321546538693"><ele>1329.0</ele><time>2026-04-12T09:40:02.999Z</time></trkpt><trkpt lat="42.03000183335758" lon="13.20641943058313"><ele>1328.8000000000002</ele><time>2026-04-12T09:40:03.999Z</time></trkpt><trkpt lat="42.02998544903816" lon="13.206540200150924"><ele>1328.6000000000001</ele><time>2026-04-12T09:40:04.999Z</time></trkpt><trkpt lat="42.029977910152375" lon="13.206676935602948"><ele>1328.4</ele><time>2026-04-12T09:40:05.999Z</time></trkpt><trkpt lat="42.02996445344349" lon="13.206831058097006"><ele>1328.2</ele><time>2026-04-12T09:40:06.999Z</time></trkpt><trkpt lat="42.0299405385897" lon="13.206996415910124"><ele>1328.0</ele><time>2026-04-12T09:40:07.999Z</time></trkpt><trkpt lat="42.029907118837436" lon="13.207151674647879"><ele>1329.0</ele><time>2026-04-12T09:40:08.999Z</time></trkpt><trkpt lat="42.02986828172837" lon="13.207289315030474"><ele>1330.0</ele><time>2026-04-12T09:40:09.999Z</time></trkpt><trkpt lat="42.02983433771123" lon="13.20744262341892"><ele>1331.0</ele><time>2026-04-12T09:40:10.999Z</time></trkpt><trkpt lat="42.02981296331282" lon="13.20759006638989"><ele>1332.0</ele><time>2026-04-12T09:40:11.999Z</time></trkpt><trkpt lat="42.02979366016363" lon="13.207718850072926"><ele>1333.0</ele><time>2026-04-12T09:40:12.999Z</time></trkpt><trkpt lat="42.029774688592504" lon="13.207818530306172"><ele>1333.0</ele><time>2026-04-12T09:40:13.999Z</time></trkpt><trkpt lat="42.029752461968116" lon="13.207924814108987"><ele>1333.0</ele><time>2026-04-12T09:40:14.999Z</time></trkpt><trkpt lat="42.02972031900937" lon="13.208074602686755"><ele>1333.0</ele><time>2026-04-12T09:40:16.999Z</time></trkpt><trkpt lat="42.02971284533363" lon="13.208169341718873"><ele>1333.0</ele><time>2026-04-12T09:40:17.999Z</time></trkpt><trkpt lat="42.02972094296821" lon="13.208271665617755"><ele>1333.0</ele><time>2026-04-12T09:40:18.999Z</time></trkpt><trkpt lat="42.029722037575866" lon="13.20836531207379"><ele>1333.0</ele><time>2026-04-12T09:40:19.999Z</time></trkpt><trkpt lat="42.02974348094208" lon="13.208484705579764"><ele>1333.5</ele><time>2026-04-12T09:40:21.999Z</time></trkpt><trkpt lat="42.029782292122135" lon="13.208561407130125"><ele>1334.0</ele><time>2026-04-12T09:40:23.999Z</time></trkpt><trkpt lat="42.029804099135546" lon="13.208665356996592"><ele>1334.5</ele><time>2026-04-12T09:40:25.999Z</time></trkpt><trkpt lat="42.02982498896743" lon="13.208748891245662"><ele>1335.0</ele><time>2026-04-12T09:40:26.999Z</time></trkpt><trkpt lat="42.02986144945939" lon="13.208892379513024"><ele>1335.5</ele><time>2026-04-12T09:40:28.999Z</time></trkpt><trkpt lat="42.02991033920956" lon="13.208996760973035"><ele>1336.0</ele><time>2026-04-12T09:40:30.999Z</time></trkpt><trkpt lat="42.02998100872134" lon="13.2091082661961"><ele>1333.0</ele><time>2026-04-12T09:40:32.999Z</time></trkpt><trkpt lat="42.0299914117431" lon="13.209206449621796"><ele>1330.0</ele><time>2026-04-12T09:40:34.999Z</time></trkpt><trkpt lat="42.02999824360736" lon="13.20929998779898"><ele>1327.0</ele><time>2026-04-12T09:40:36.999Z</time></trkpt><trkpt lat="42.03003077513275" lon="13.209438795560308"><ele>1324.0</ele><time>2026-04-12T09:40:37.999Z</time></trkpt><trkpt lat="42.0300690152762" lon="13.209560038210293"><ele>1321.0</ele><time>2026-04-12T09:40:38.999Z</time></trkpt><trkpt lat="42.03010648184514" lon="13.209659208185412"><ele>1318.0</ele><time>2026-04-12T09:40:39.999Z</time></trkpt><trkpt lat="42.030131780980824" lon="13.209752150988983"><ele>1317.8333333333333</ele><time>2026-04-12T09:40:40.999Z</time></trkpt><trkpt lat="42.03015149196964" lon="13.209859785275917"><ele>1317.6666666666665</ele><time>2026-04-12T09:40:41.999Z</time></trkpt><trkpt lat="42.03017527030581" lon="13.209975626311296"><ele>1317.5</ele><time>2026-04-12T09:40:42.999Z</time></trkpt><trkpt lat="42.03020477086098" lon="13.210074953937642"><ele>1317.3333333333333</ele><time>2026-04-12T09:40:43.999Z</time></trkpt><trkpt lat="42.03023944173758" lon="13.210172483981399"><ele>1317.1666666666667</ele><time>2026-04-12T09:40:44.999Z</time></trkpt><trkpt lat="42.03029056274641" lon="13.210284485368133"><ele>1317.0</ele><time>2026-04-12T09:40:45.999Z</time></trkpt><trkpt lat="42.030344045962785" lon="13.210384029651129"><ele>1317.0</ele><time>2026-04-12T09:40:46.999Z</time></trkpt><trkpt lat="42.03040049167889" lon="13.2105162552442"><ele>1317.0</ele><time>2026-04-12T09:40:47.999Z</time></trkpt><trkpt lat="42.03043382109885" lon="13.210642502067216"><ele>1317.0</ele><time>2026-04-12T09:40:48.999Z</time></trkpt><trkpt lat="42.03045680056798" lon="13.210754598604028"><ele>1317.0</ele><time>2026-04-12T09:40:49.999Z</time></trkpt><trkpt lat="42.03048430149455" lon="13.21085953973711"><ele>1317.0</ele><time>2026-04-12T09:40:50.999Z</time></trkpt><trkpt lat="42.03052830244791" lon="13.210961752646522"><ele>1317.6</ele><time>2026-04-12T09:40:51.999Z</time></trkpt><trkpt lat="42.03059021900435" lon="13.21105858562325"><ele>1318.1999999999998</ele><time>2026-04-12T09:40:52.999Z</time></trkpt><trkpt lat="42.030635435425914" lon="13.211160619882333"><ele>1318.8</ele><time>2026-04-12T09:40:53.999Z</time></trkpt><trkpt lat="42.03065161442597" lon="13.211266229144766"><ele>1319.4</ele><time>2026-04-12T09:40:54.999Z</time></trkpt><trkpt lat="42.03068960331862" lon="13.211387804668725"><ele>1320.0</ele><time>2026-04-12T09:40:55.998Z</time></trkpt><trkpt lat="42.030714311042274" lon="13.211518598395674"><ele>1320.0</ele><time>2026-04-12T09:40:56.998Z</time></trkpt><trkpt lat="42.030753549434756" lon="13.211656853361234"><ele>1320.0</ele><time>2026-04-12T09:40:57.998Z</time></trkpt><trkpt lat="42.030787465374914" lon="13.211768281407917"><ele>1320.0</ele><time>2026-04-12T09:40:58.998Z</time></trkpt><trkpt lat="42.030817525091585" lon="13.21185489135512"><ele>1320.0</ele><time>2026-04-12T09:40:59.998Z</time></trkpt><trkpt lat="42.03085232551668" lon="13.212025307047545"><ele>1320.0</ele><time>2026-04-12T09:41:01.998Z</time></trkpt><trkpt lat="42.0308635661117" lon="13.212127570193484"><ele>1317.6666666666667</ele><time>2026-04-12T09:41:03Z</time></trkpt><trkpt lat="42.03085768050959" lon="13.212231491595878"><ele>1315.3333333333333</ele><time>2026-04-12T09:41:04Z</time></trkpt><trkpt lat="42.03084553896366" lon="13.212341734159754"><ele>1313.0</ele><time>2026-04-12T09:41:05Z</time></trkpt><trkpt lat="42.0308481310465" lon="13.212464256254696"><ele>1310.6666666666665</ele><time>2026-04-12T09:41:06Z</time></trkpt><trkpt lat="42.0308492745784" lon="13.21256297093602"><ele>1308.3333333333333</ele><time>2026-04-12T09:41:07Z</time></trkpt><trkpt lat="42.03083200080988" lon="13.21265036447785"><ele>1306.0</ele><time>2026-04-12T09:41:08Z</time></trkpt><trkpt lat="42.03081362519001" lon="13.2127370194104"><ele>1306.8333333333333</ele><time>2026-04-12T09:41:09Z</time></trkpt><trkpt lat="42.03077808964815" lon="13.212916369475678"><ele>1307.6666666666665</ele><time>2026-04-12T09:41:11Z</time></trkpt><trkpt lat="42.03073910807834" lon="13.213019221433395"><ele>1308.5</ele><time>2026-04-12T09:41:12Z</time></trkpt><trkpt lat="42.03069930496992" lon="13.213110324771796"><ele>1309.3333333333333</ele><time>2026-04-12T09:41:13Z</time></trkpt><trkpt lat="42.03066562968587" lon="13.213187854354022"><ele>1310.1666666666667</ele><time>2026-04-12T09:41:15Z</time></trkpt><trkpt lat="42.03063035841587" lon="13.213278193782077"><ele>1311.0</ele><time>2026-04-12T09:41:17Z</time></trkpt><trkpt lat="42.030565846030214" lon="13.213435514243196"><ele>1311.0</ele><time>2026-04-12T09:41:19Z</time></trkpt><trkpt lat="42.03052397373229" lon="13.213541788265658"><ele>1311.0</ele><time>2026-04-12T09:41:20Z</time></trkpt><trkpt lat="42.030480485274445" lon="13.213633355774153"><ele>1311.0</ele><time>2026-04-12T09:41:21Z</time></trkpt><trkpt lat="42.0304415940621" lon="13.213720622668532"><ele>1311.0</ele><time>2026-04-12T09:41:22Z</time></trkpt><trkpt lat="42.0303936122138" lon="13.213826553397832"><ele>1311.0</ele><time>2026-04-12T09:41:23Z</time></trkpt><trkpt lat="42.03035481288933" lon="13.213946739071181"><ele>1311.0</ele><time>2026-04-12T09:41:24Z</time></trkpt><trkpt lat="42.03031359518971" lon="13.214075974659758"><ele>1309.8</ele><time>2026-04-12T09:41:25Z</time></trkpt><trkpt lat="42.03029917314757" lon="13.214179918354187"><ele>1308.6</ele><time>2026-04-12T09:41:26Z</time></trkpt><trkpt lat="42.03027890448481" lon="13.214300039349611"><ele>1307.4</ele><time>2026-04-12T09:41:27Z</time></trkpt><trkpt lat="42.0302308038333" lon="13.21443461595356"><ele>1306.2</ele><time>2026-04-12T09:41:29Z</time></trkpt><trkpt lat="42.03018469495838" lon="13.214566481679963"><ele>1305.0</ele><time>2026-04-12T09:41:31Z</time></trkpt><trkpt lat="42.03014821886856" lon="13.214691014131766"><ele>1305.0</ele><time>2026-04-12T09:41:33Z</time></trkpt><trkpt lat="42.03010951568464" lon="13.214810434653023"><ele>1305.0</ele><time>2026-04-12T09:41:34Z</time></trkpt><trkpt lat="42.03007417260152" lon="13.214924511532773"><ele>1305.0</ele><time>2026-04-12T09:41:35Z</time></trkpt><trkpt lat="42.0300324897648" lon="13.215046998158735"><ele>1305.0</ele><time>2026-04-12T09:41:36Z</time></trkpt><trkpt lat="42.02998574790468" lon="13.215172171392155"><ele>1305.0</ele><time>2026-04-12T09:41:37Z</time></trkpt><trkpt lat="42.02993875252811" lon="13.215292937784422"><ele>1305.0</ele><time>2026-04-12T09:41:38Z</time></trkpt><trkpt lat="42.02989012297593" lon="13.215418927447397"><ele>1305.0</ele><time>2026-04-12T09:41:39Z</time></trkpt><trkpt lat="42.029839558240496" lon="13.215553947308427"><ele>1305.0</ele><time>2026-04-12T09:41:40Z</time></trkpt><trkpt lat="42.02978326232982" lon="13.215699226132491"><ele>1305.0</ele><time>2026-04-12T09:41:41Z</time></trkpt><trkpt lat="42.029729141592995" lon="13.215825482358923"><ele>1305.0</ele><time>2026-04-12T09:41:42Z</time></trkpt><trkpt lat="42.029669849855175" lon="13.21596010885208"><ele>1305.0</ele><time>2026-04-12T09:41:43Z</time></trkpt><trkpt lat="42.0296140111063" lon="13.216091863295812"><ele>1305.0</ele><time>2026-04-12T09:41:44Z</time></trkpt><trkpt lat="42.0295637823137" lon="13.216223413333445"><ele>1305.0</ele><time>2026-04-12T09:41:45Z</time></trkpt><trkpt lat="42.02951507213101" lon="13.216352357985857"><ele>1305.0</ele><time>2026-04-12T09:41:46Z</time></trkpt><trkpt lat="42.02945683242387" lon="13.216485840494636"><ele>1305.0</ele><time>2026-04-12T09:41:47Z</time></trkpt><trkpt lat="42.02939851181427" lon="13.216611897563437"><ele>1306.0</ele><time>2026-04-12T09:41:48Z</time></trkpt><trkpt lat="42.02934470184619" lon="13.216738479941363"><ele>1307.0</ele><time>2026-04-12T09:41:49Z</time></trkpt><trkpt lat="42.029300620902205" lon="13.216857676121293"><ele>1308.0</ele><time>2026-04-12T09:41:50Z</time></trkpt><trkpt lat="42.029249352287074" lon="13.216983691931299"><ele>1309.0</ele><time>2026-04-12T09:41:51Z</time></trkpt><trkpt lat="42.02918147458389" lon="13.217108075546976"><ele>1310.0</ele><time>2026-04-12T09:41:52Z</time></trkpt><trkpt lat="42.02910461640771" lon="13.217241236084188"><ele>1306.25</ele><time>2026-04-12T09:41:53Z</time></trkpt><trkpt lat="42.02900892665865" lon="13.21738039783885"><ele>1302.5</ele><time>2026-04-12T09:41:53.999Z</time></trkpt><trkpt lat="42.02891289270832" lon="13.21750061040851"><ele>1298.75</ele><time>2026-04-12T09:41:54.999Z</time></trkpt><trkpt lat="42.028809554496334" lon="13.217622108485525"><ele>1295.0</ele><time>2026-04-12T09:41:55.999Z</time></trkpt><trkpt lat="42.02869907714767" lon="13.217740416907889"><ele>1295.0</ele><time>2026-04-12T09:41:56.999Z</time></trkpt><trkpt lat="42.028595184893234" lon="13.21784220295421"><ele>1295.0</ele><time>2026-04-12T09:41:57.999Z</time></trkpt><trkpt lat="42.02848624880121" lon="13.217937335010264"><ele>1295.0</ele><time>2026-04-12T09:41:58.999Z</time></trkpt><trkpt lat="42.028377966020365" lon="13.218033693524202"><ele>1295.0</ele><time>2026-04-12T09:41:59.999Z</time></trkpt><trkpt lat="42.02828090998426" lon="13.218117645670517"><ele>1294.4</ele><time>2026-04-12T09:42:00.999Z</time></trkpt><trkpt lat="42.028220281143554" lon="13.218175984659288"><ele>1293.8</ele><time>2026-04-12T09:42:01.999Z</time></trkpt><trkpt lat="42.02810919590991" lon="13.218270474544267"><ele>1293.1999999999998</ele><time>2026-04-12T09:42:02.999Z</time></trkpt><trkpt lat="42.028012234265695" lon="13.21833691260362"><ele>1292.6</ele><time>2026-04-12T09:42:03.999Z</time></trkpt><trkpt lat="42.02791466122161" lon="13.218380339401003"><ele>1292.0</ele><time>2026-04-12T09:42:04.999Z</time></trkpt><trkpt lat="42.02781481709869" lon="13.218409628249713"><ele>1292.0</ele><time>2026-04-12T09:42:05.999Z</time></trkpt><trkpt lat="42.027703544421456" lon="13.218417705237542"><ele>1292.0</ele><time>2026-04-12T09:42:06.999Z</time></trkpt><trkpt lat="42.027593643536186" lon="13.218396293002975"><ele>1292.0</ele><time>2026-04-12T09:42:07.999Z</time></trkpt><trkpt lat="42.02747703169013" lon="13.218359495216763"><ele>1292.0</ele><time>2026-04-12T09:42:08.999Z</time></trkpt><trkpt lat="42.027357872800756" lon="13.218325474522992"><ele>1292.1999999999998</ele><time>2026-04-12T09:42:09.999Z</time></trkpt><trkpt lat="42.02725381572691" lon="13.218303893204748"><ele>1292.4</ele><time>2026-04-12T09:42:10.999Z</time></trkpt><trkpt lat="42.027162947990384" lon="13.218284092819006"><ele>1292.6</ele><time>2026-04-12T09:42:11.999Z</time></trkpt><trkpt lat="42.02707228754701" lon="13.218266989009857"><ele>1292.8000000000002</ele><time>2026-04-12T09:42:12.999Z</time></trkpt><trkpt lat="42.02697489796348" lon="13.218266416216677"><ele>1293.0</ele><time>2026-04-12T09:42:13.999Z</time></trkpt><trkpt lat="42.026869140094185" lon="13.218292831984135"><ele>1293.0</ele><time>2026-04-12T09:42:14.999Z</time></trkpt><trkpt lat="42.02676646857892" lon="13.218342780799993"><ele>1293.0</ele><time>2026-04-12T09:42:15.999Z</time></trkpt><trkpt lat="42.02665874547998" lon="13.218424417838467"><ele>1293.0</ele><time>2026-04-12T09:42:16.999Z</time></trkpt><trkpt lat="42.02654104679106" lon="13.21852064726833"><ele>1293.0</ele><time>2026-04-12T09:42:17.999Z</time></trkpt><trkpt lat="42.026441812817744" lon="13.218596483465467"><ele>1294.5</ele><time>2026-04-12T09:42:18.999Z</time></trkpt><trkpt lat="42.026353167784684" lon="13.218653976003495"><ele>1296.0</ele><time>2026-04-12T09:42:19.999Z</time></trkpt><trkpt lat="42.02625116550454" lon="13.218720466498189"><ele>1297.5</ele><time>2026-04-12T09:42:20.999Z</time></trkpt><trkpt lat="42.02614381007062" lon="13.218793570808812"><ele>1299.0</ele><time>2026-04-12T09:42:21.999Z</time></trkpt><trkpt lat="42.026041399387154" lon="13.218873525770526"><ele>1299.0</ele><time>2026-04-12T09:42:22.999Z</time></trkpt><trkpt lat="42.02594254736598" lon="13.21896405680322"><ele>1299.0</ele><time>2026-04-12T09:42:23.999Z</time></trkpt><trkpt lat="42.025851747675375" lon="13.219060504144187"><ele>1299.0</ele><time>2026-04-12T09:42:24.999Z</time></trkpt><trkpt lat="42.025762286019656" lon="13.219168360505423"><ele>1299.0</ele><time>2026-04-12T09:42:25.999Z</time></trkpt><trkpt lat="42.02567415003449" lon="13.219289314101893"><ele>1299.8333333333333</ele><time>2026-04-12T09:42:26.999Z</time></trkpt><trkpt lat="42.0256032599635" lon="13.21939155264353"><ele>1300.6666666666667</ele><time>2026-04-12T09:42:27.999Z</time></trkpt><trkpt lat="42.02554073658942" lon="13.21947826857251"><ele>1301.5</ele><time>2026-04-12T09:42:28.999Z</time></trkpt><trkpt lat="42.025486496859386" lon="13.219553868604617"><ele>1302.3333333333335</ele><time>2026-04-12T09:42:29.999Z</time></trkpt><trkpt lat="42.02543117021197" lon="13.21961900165025"><ele>1303.1666666666667</ele><time>2026-04-12T09:42:30.999Z</time></trkpt><trkpt lat="42.025375612965426" lon="13.219673207034367"><ele>1304.0</ele><time>2026-04-12T09:42:31.999Z</time></trkpt><trkpt lat="42.02533133472709" lon="13.219736084329773"><ele>1302.0</ele><time>2026-04-12T09:42:32.999Z</time></trkpt><trkpt lat="42.0253107917475" lon="13.219839919229363"><ele>1300.0</ele><time>2026-04-12T09:42:33.999Z</time></trkpt><trkpt lat="42.025302479017256" lon="13.219958467890875"><ele>1298.0</ele><time>2026-04-12T09:42:34.999Z</time></trkpt><trkpt lat="42.025298878489274" lon="13.220074002879311"><ele>1296.0</ele><time>2026-04-12T09:42:35.999Z</time></trkpt><trkpt lat="42.02530804998487" lon="13.22018170492028"><ele>1294.0</ele><time>2026-04-12T09:42:36.999Z</time></trkpt><trkpt lat="42.025297796081745" lon="13.220266899801123"><ele>1292.0</ele><time>2026-04-12T09:42:37.999Z</time></trkpt><trkpt lat="42.02526055815183" lon="13.220356464346082"><ele>1292.0</ele><time>2026-04-12T09:42:38.999Z</time></trkpt><trkpt lat="42.02520795204594" lon="13.220449512196419"><ele>1292.0</ele><time>2026-04-12T09:42:39.999Z</time></trkpt><trkpt lat="42.02514703848375" lon="13.220547757649486"><ele>1292.0</ele><time>2026-04-12T09:42:40.999Z</time></trkpt><trkpt lat="42.02506984384405" lon="13.220619217443849"><ele>1292.0</ele><time>2026-04-12T09:42:41.999Z</time></trkpt><trkpt lat="42.024986636661296" lon="13.220706669052246"><ele>1292.0</ele><time>2026-04-12T09:42:42.999Z</time></trkpt><trkpt lat="42.024917493957375" lon="13.220787639642642"><ele>1295.0</ele><time>2026-04-12T09:42:43.999Z</time></trkpt><trkpt lat="42.02486346697406" lon="13.220848456280873"><ele>1298.0</ele><time>2026-04-12T09:42:44.999Z</time></trkpt><trkpt lat="42.024762366853174" lon="13.22092162717834"><ele>1301.0</ele><time>2026-04-12T09:42:46.999Z</time></trkpt><trkpt lat="42.024673480569234" lon="13.221009971495498"><ele>1304.0</ele><time>2026-04-12T09:42:48.999Z</time></trkpt><trkpt lat="42.02458508913329" lon="13.221081976953343"><ele>1307.0</ele><time>2026-04-12T09:42:50.999Z</time></trkpt><trkpt lat="42.02453067497836" lon="13.221146441578933"><ele>1307.0</ele><time>2026-04-12T09:42:51.999Z</time></trkpt><trkpt lat="42.02449407451693" lon="13.221228058287476"><ele>1307.0</ele><time>2026-04-12T09:42:52.998Z</time></trkpt><trkpt lat="42.024477246500936" lon="13.22131218020297"><ele>1307.0</ele><time>2026-04-12T09:42:53.998Z</time></trkpt><trkpt lat="42.02445860234732" lon="13.221409506306976"><ele>1307.0</ele><time>2026-04-12T09:42:54.998Z</time></trkpt><trkpt lat="42.02444837577277" lon="13.221511082422786"><ele>1307.0</ele><time>2026-04-12T09:42:55.998Z</time></trkpt><trkpt lat="42.02443812253348" lon="13.221622870900923"><ele>1307.0</ele><time>2026-04-12T09:42:56.998Z</time></trkpt><trkpt lat="42.024437002531336" lon="13.221748020568125"><ele>1305.1999999999998</ele><time>2026-04-12T09:42:57.998Z</time></trkpt><trkpt lat="42.02443281921652" lon="13.221865512284369"><ele>1303.4</ele><time>2026-04-12T09:42:58.998Z</time></trkpt><trkpt lat="42.02443280552281" lon="13.221995449954692"><ele>1301.6</ele><time>2026-04-12T09:42:59.998Z</time></trkpt><trkpt lat="42.024436608109866" lon="13.222140190942614"><ele>1299.8000000000002</ele><time>2026-04-12T09:43:00.998Z</time></trkpt><trkpt lat="42.024430376290795" lon="13.22228157461124"><ele>1298.0</ele><time>2026-04-12T09:43:01.998Z</time></trkpt><trkpt lat="42.02441991058342" lon="13.222421285942403"><ele>1296.0</ele><time>2026-04-12T09:43:02.998Z</time></trkpt><trkpt lat="42.02440910916576" lon="13.222540004634647"><ele>1294.0</ele><time>2026-04-12T09:43:03.998Z</time></trkpt><trkpt lat="42.02439115141703" lon="13.222661680464228"><ele>1292.0</ele><time>2026-04-12T09:43:04.998Z</time></trkpt><trkpt lat="42.02436890912629" lon="13.222788912716348"><ele>1290.0</ele><time>2026-04-12T09:43:05.998Z</time></trkpt><trkpt lat="42.02435161458941" lon="13.222912624928691"><ele>1288.0</ele><time>2026-04-12T09:43:06.998Z</time></trkpt><trkpt lat="42.02431462462601" lon="13.223034121045657"><ele>1288.2</ele><time>2026-04-12T09:43:07.998Z</time></trkpt><trkpt lat="42.02426452299471" lon="13.223155336385165"><ele>1288.4</ele><time>2026-04-12T09:43:09Z</time></trkpt><trkpt lat="42.02421154519317" lon="13.22328075316289"><ele>1288.6000000000001</ele><time>2026-04-12T09:43:10Z</time></trkpt><trkpt lat="42.02414927263521" lon="13.223405080175226"><ele>1288.8000000000002</ele><time>2026-04-12T09:43:11Z</time></trkpt><trkpt lat="42.0240870588062" lon="13.223533445319582"><ele>1289.0</ele><time>2026-04-12T09:43:12Z</time></trkpt><trkpt lat="42.02403550463396" lon="13.22363572836626"><ele>1289.0</ele><time>2026-04-12T09:43:13Z</time></trkpt><trkpt lat="42.023995591154716" lon="13.22372871988536"><ele>1289.0</ele><time>2026-04-12T09:43:14Z</time></trkpt><trkpt lat="42.02395136851567" lon="13.223802224846478"><ele>1289.0</ele><time>2026-04-12T09:43:15Z</time></trkpt><trkpt lat="42.02388625318541" lon="13.223868692708493"><ele>1289.0</ele><time>2026-04-12T09:43:16Z</time></trkpt><trkpt lat="42.02380291052571" lon="13.223948743105703"><ele>1289.0</ele><time>2026-04-12T09:43:17Z</time></trkpt><trkpt lat="42.02372502760827" lon="13.224022824087793"><ele>1289.0</ele><time>2026-04-12T09:43:18Z</time></trkpt><trkpt lat="42.023642814037125" lon="13.224076181933574"><ele>1289.2</ele><time>2026-04-12T09:43:19Z</time></trkpt><trkpt lat="42.02355589018161" lon="13.224155093656348"><ele>1289.4</ele><time>2026-04-12T09:43:20Z</time></trkpt><trkpt lat="42.02348938661099" lon="13.224235043003343"><ele>1289.6</ele><time>2026-04-12T09:43:21Z</time></trkpt><trkpt lat="42.023416350170706" lon="13.224332549938577"><ele>1289.8</ele><time>2026-04-12T09:43:22Z</time></trkpt><trkpt lat="42.02336324422507" lon="13.224449575816466"><ele>1290.0</ele><time>2026-04-12T09:43:23Z</time></trkpt><trkpt lat="42.02332274396303" lon="13.22458436090813"><ele>1290.2</ele><time>2026-04-12T09:43:24Z</time></trkpt><trkpt lat="42.023289018362334" lon="13.22471188053289"><ele>1290.4</ele><time>2026-04-12T09:43:25Z</time></trkpt><trkpt lat="42.02325073485556" lon="13.22484434382946"><ele>1290.6</ele><time>2026-04-12T09:43:26Z</time></trkpt><trkpt lat="42.02319579277416" lon="13.2249835804758"><ele>1290.8</ele><time>2026-04-12T09:43:27Z</time></trkpt><trkpt lat="42.02315043815433" lon="13.225099819719867"><ele>1291.0</ele><time>2026-04-12T09:43:28Z</time></trkpt><trkpt lat="42.02310959852728" lon="13.225189030422895"><ele>1290.3333333333333</ele><time>2026-04-12T09:43:29Z</time></trkpt><trkpt lat="42.02306381882144" lon="13.225290740459869"><ele>1289.6666666666665</ele><time>2026-04-12T09:43:30Z</time></trkpt><trkpt lat="42.023018517956906" lon="13.225387494354514"><ele>1289.0</ele><time>2026-04-12T09:43:31Z</time></trkpt><trkpt lat="42.02297662311036" lon="13.225485537274858"><ele>1288.3333333333333</ele><time>2026-04-12T09:43:32Z</time></trkpt><trkpt lat="42.02293885411242" lon="13.225574164075901"><ele>1287.6666666666667</ele><time>2026-04-12T09:43:33Z</time></trkpt><trkpt lat="42.0229013165435" lon="13.225656072288807"><ele>1287.0</ele><time>2026-04-12T09:43:34Z</time></trkpt><trkpt lat="42.0228421366703" lon="13.225777041046335"><ele>1286.3999999999999</ele><time>2026-04-12T09:43:36Z</time></trkpt><trkpt lat="42.02276484981173" lon="13.22590674593711"><ele>1285.8</ele><time>2026-04-12T09:43:38Z</time></trkpt><trkpt lat="42.02271846016207" lon="13.225979495818668"><ele>1285.2</ele><time>2026-04-12T09:43:39Z</time></trkpt><trkpt lat="42.02266420532222" lon="13.226086279359548"><ele>1284.6</ele><time>2026-04-12T09:43:41Z</time></trkpt><trkpt lat="42.02259695593729" lon="13.226174786433377"><ele>1284.0</ele><time>2026-04-12T09:43:43Z</time></trkpt><trkpt lat="42.022514174064874" lon="13.226239602281117"><ele>1284.2</ele><time>2026-04-12T09:43:45Z</time></trkpt><trkpt lat="42.022462510093696" lon="13.22636267236916"><ele>1284.4</ele><time>2026-04-12T09:43:47Z</time></trkpt><trkpt lat="42.02246626170897" lon="13.22652267518267"><ele>1284.6</ele><time>2026-04-12T09:43:49Z</time></trkpt><trkpt lat="42.02249161663678" lon="13.226611505113816"><ele>1284.8</ele><time>2026-04-12T09:43:50Z</time></trkpt><trkpt lat="42.0225397597434" lon="13.226745453766977"><ele>1285.0</ele><time>2026-04-12T09:43:52Z</time></trkpt><trkpt lat="42.02263285868448" lon="13.226805654557117"><ele>1285.0</ele><time>2026-04-12T09:43:53.999Z</time></trkpt><trkpt lat="42.022700175773764" lon="13.226829787646023"><ele>1285.0</ele><time>2026-04-12T09:43:55.999Z</time></trkpt><trkpt lat="42.02276139945952" lon="13.226879474764058"><ele>1285.0</ele><time>2026-04-12T09:43:57.999Z</time></trkpt><trkpt lat="42.02284477479857" lon="13.226955773316444"><ele>1285.0</ele><time>2026-04-12T09:44:27.999Z</time></trkpt><trkpt lat="42.02291518702914" lon="13.227002093648277"><ele>1285.0</ele><time>2026-04-12T09:44:29.999Z</time></trkpt><trkpt lat="42.02299948635904" lon="13.227048249576475"><ele>1285.0</ele><time>2026-04-12T09:44:31.999Z</time></trkpt><trkpt lat="42.02306635980735" lon="13.227116066887282"><ele>1285.0</ele><time>2026-04-12T09:44:33.999Z</time></trkpt><trkpt lat="42.023165660000785" lon="13.227204873768978"><ele>1285.0</ele><time>2026-04-12T09:44:35.999Z</time></trkpt><trkpt lat="42.023260116754216" lon="13.227257821817656"><ele>1285.0</ele><time>2026-04-12T09:44:37.999Z</time></trkpt><trkpt lat="42.0233505644544" lon="13.22731837829606"><ele>1285.0</ele><time>2026-04-12T09:44:39.999Z</time></trkpt><trkpt lat="42.02343794487743" lon="13.227391026490714"><ele>1285.0</ele><time>2026-04-12T09:44:41.999Z</time></trkpt><trkpt lat="42.02354126972632" lon="13.227522622638736"><ele>1285.3333333333333</ele><time>2026-04-12T09:44:43.999Z</time></trkpt><trkpt lat="42.02359223463796" lon="13.227608742622898"><ele>1285.6666666666665</ele><time>2026-04-12T09:44:44.999Z</time></trkpt><trkpt lat="42.023641627680355" lon="13.227672015068"><ele>1286.0</ele><time>2026-04-12T09:44:45.999Z</time></trkpt><trkpt lat="42.02369377430242" lon="13.227743229750928"><ele>1286.3333333333333</ele><time>2026-04-12T09:44:46.999Z</time></trkpt><trkpt lat="42.02375808832557" lon="13.227819936994399"><ele>1286.6666666666667</ele><time>2026-04-12T09:44:47.999Z</time></trkpt><trkpt lat="42.023818846639735" lon="13.22789668545678"><ele>1287.0</ele><time>2026-04-12T09:44:48.999Z</time></trkpt><trkpt lat="42.02388560886005" lon="13.227976492689104"><ele>1287.0</ele><time>2026-04-12T09:44:49.999Z</time></trkpt><trkpt lat="42.02394902076969" lon="13.228059535779257"><ele>1287.0</ele><time>2026-04-12T09:44:50.999Z</time></trkpt><trkpt lat="42.02401317872312" lon="13.2281571913396"><ele>1287.0</ele><time>2026-04-12T09:44:51.999Z</time></trkpt><trkpt lat="42.02406880420785" lon="13.228258999774159"><ele>1287.0</ele><time>2026-04-12T09:44:52.999Z</time></trkpt><trkpt lat="42.024109413663965" lon="13.228335244272623"><ele>1287.0</ele><time>2026-04-12T09:44:53.998Z</time></trkpt><trkpt lat="42.02415319680028" lon="13.22842225829728"><ele>1287.0</ele><time>2026-04-12T09:44:54.998Z</time></trkpt><trkpt lat="42.024202609567595" lon="13.228520389316827"><ele>1288.0</ele><time>2026-04-12T09:44:55.998Z</time></trkpt><trkpt lat="42.02425021805756" lon="13.228619821327792"><ele>1289.0</ele><time>2026-04-12T09:44:56.998Z</time></trkpt><trkpt lat="42.024306001720795" lon="13.228743659540337"><ele>1290.0</ele><time>2026-04-12T09:44:58.998Z</time></trkpt><trkpt lat="42.02435301034874" lon="13.228833588167854"><ele>1291.0</ele><time>2026-04-12T09:45:00.998Z</time></trkpt><trkpt lat="42.02441480937106" lon="13.228904915452558"><ele>1292.0</ele><time>2026-04-12T09:45:03.998Z</time></trkpt><trkpt lat="42.02447896444908" lon="13.228956396221161"><ele>1293.0</ele><time>2026-04-12T09:45:06.998Z</time></trkpt><trkpt lat="42.02456816214457" lon="13.229020419058312"><ele>1293.0</ele><time>2026-04-12T09:45:09.998Z</time></trkpt><trkpt lat="42.02463879114563" lon="13.229072416798568"><ele>1293.0</ele><time>2026-04-12T09:45:11.998Z</time></trkpt><trkpt lat="42.02468514621132" lon="13.229201579564513"><ele>1293.0</ele><time>2026-04-12T09:45:14Z</time></trkpt><trkpt lat="42.0247012656756" lon="13.229299220831404"><ele>1293.0</ele><time>2026-04-12T09:45:15Z</time></trkpt><trkpt lat="42.02471306334431" lon="13.229423682017096"><ele>1293.0</ele><time>2026-04-12T09:45:16Z</time></trkpt><trkpt lat="42.02473619359373" lon="13.229542237072032"><ele>1293.0</ele><time>2026-04-12T09:45:17Z</time></trkpt><trkpt lat="42.024767931126426" lon="13.229672088985938"><ele>1293.0</ele><time>2026-04-12T09:45:18Z</time></trkpt><trkpt lat="42.024801655859555" lon="13.22979361867109"><ele>1293.0</ele><time>2026-04-12T09:45:19Z</time></trkpt><trkpt lat="42.024827172948335" lon="13.229897444334629"><ele>1293.0</ele><time>2026-04-12T09:45:20Z</time></trkpt><trkpt lat="42.024842187670124" lon="13.229995435559793"><ele>1293.0</ele><time>2026-04-12T09:45:21Z</time></trkpt><trkpt lat="42.02487580637422" lon="13.230090000094403"><ele>1293.0</ele><time>2026-04-12T09:45:22Z</time></trkpt><trkpt lat="42.02491901517817" lon="13.23019412694005"><ele>1293.0</ele><time>2026-04-12T09:45:23Z</time></trkpt><trkpt lat="42.02495415233856" lon="13.230311584197343"><ele>1291.6666666666667</ele><time>2026-04-12T09:45:24Z</time></trkpt><trkpt lat="42.02498460594008" lon="13.230415029361042"><ele>1290.3333333333333</ele><time>2026-04-12T09:45:25Z</time></trkpt><trkpt lat="42.02501470909539" lon="13.230519844128128"><ele>1289.0</ele><time>2026-04-12T09:45:26Z</time></trkpt><trkpt lat="42.02505114938415" lon="13.230638971552729"><ele>1287.6666666666665</ele><time>2026-04-12T09:45:27Z</time></trkpt><trkpt lat="42.02508104698023" lon="13.230731984142015"><ele>1286.3333333333333</ele><time>2026-04-12T09:45:28Z</time></trkpt><trkpt lat="42.025128676386494" lon="13.2308274265519"><ele>1285.0</ele><time>2026-04-12T09:45:29Z</time></trkpt><trkpt lat="42.0251710663001" lon="13.230911015394407"><ele>1284.1666666666665</ele><time>2026-04-12T09:45:30Z</time></trkpt><trkpt lat="42.025217359700974" lon="13.230981527767005"><ele>1283.3333333333333</ele><time>2026-04-12T09:45:31Z</time></trkpt><trkpt lat="42.025276481022644" lon="13.231069045920414"><ele>1282.5</ele><time>2026-04-12T09:45:32Z</time></trkpt><trkpt lat="42.025316536695684" lon="13.231174566046269"><ele>1281.6666666666667</ele><time>2026-04-12T09:45:33Z</time></trkpt><trkpt lat="42.02533944744128" lon="13.231267115546443"><ele>1280.8333333333335</ele><time>2026-04-12T09:45:34Z</time></trkpt><trkpt lat="42.02536887514138" lon="13.231360510840315"><ele>1280.0</ele><time>2026-04-12T09:45:35Z</time></trkpt><trkpt lat="42.025417648696184" lon="13.23148118837682"><ele>1280.0</ele><time>2026-04-12T09:45:37Z</time></trkpt><trkpt lat="42.02547129939852" lon="13.231560575140392"><ele>1280.0</ele><time>2026-04-12T09:45:40Z</time></trkpt><trkpt lat="42.02551658384106" lon="13.231648943293274"><ele>1280.0</ele><time>2026-04-12T09:45:44Z</time></trkpt><trkpt lat="42.02556804588462" lon="13.231725183354259"><ele>1280.0</ele><time>2026-04-12T09:45:47Z</time></trkpt><trkpt lat="42.025600613636236" lon="13.2318012514225"><ele>1280.0</ele><time>2026-04-12T09:45:49Z</time></trkpt><trkpt lat="42.025601039149954" lon="13.231926682566808"><ele>1280.0</ele><time>2026-04-12T09:45:51Z</time></trkpt><trkpt lat="42.02556529436647" lon="13.232070240425992"><ele>1280.0</ele><time>2026-04-12T09:45:52.999Z</time></trkpt><trkpt lat="42.02551661820746" lon="13.232165236196792"><ele>1280.0</ele><time>2026-04-12T09:45:54.999Z</time></trkpt><trkpt lat="42.025471839588654" lon="13.23225923124108"><ele>1280.0</ele><time>2026-04-12T09:45:56.999Z</time></trkpt><trkpt lat="42.02540026134101" lon="13.232338102068171"><ele>1280.0</ele><time>2026-04-12T09:45:58.999Z</time></trkpt><trkpt lat="42.02535513596108" lon="13.232415535388991"><ele>1280.0</ele><time>2026-04-12T09:45:59.999Z</time></trkpt><trkpt lat="42.02530013831288" lon="13.232508857714908"><ele>1280.0</ele><time>2026-04-12T09:46:00.999Z</time></trkpt><trkpt lat="42.025260411629915" lon="13.232575202587512"><ele>1280.0</ele><time>2026-04-12T09:46:01.999Z</time></trkpt><trkpt lat="42.02520863140946" lon="13.23265565363481"><ele>1280.0</ele><time>2026-04-12T09:46:02.999Z</time></trkpt><trkpt lat="42.025141072290374" lon="13.232745830260974"><ele>1280.0</ele><time>2026-04-12T09:46:03.999Z</time></trkpt><trkpt lat="42.025142439300716" lon="13.232842345948587"><ele>1280.0</ele><time>2026-04-12T09:46:04.999Z</time></trkpt><trkpt lat="42.025139295238446" lon="13.232934007016194"><ele>1280.0</ele><time>2026-04-12T09:46:05.999Z</time></trkpt><trkpt lat="42.02513905400417" lon="13.233024636545043"><ele>1280.0</ele><time>2026-04-12T09:46:06.999Z</time></trkpt><trkpt lat="42.02502850180088" lon="13.233176850159124"><ele>1280.0</ele><time>2026-04-12T09:46:07.999Z</time></trkpt><trkpt lat="42.02498359158375" lon="13.233260203285212"><ele>1280.0</ele><time>2026-04-12T09:46:08.999Z</time></trkpt><trkpt lat="42.02492854783981" lon="13.233339980411925"><ele>1280.0</ele><time>2026-04-12T09:46:09.999Z</time></trkpt><trkpt lat="42.02486966534398" lon="13.233424686763401"><ele>1280.0</ele><time>2026-04-12T09:46:10.999Z</time></trkpt><trkpt lat="42.024803905315814" lon="13.23350923514023"><ele>1280.0</ele><time>2026-04-12T09:46:11.999Z</time></trkpt><trkpt lat="42.02474636323849" lon="13.23361870501599"><ele>1280.0</ele><time>2026-04-12T09:46:12.999Z</time></trkpt><trkpt lat="42.02468106106317" lon="13.233721986894816"><ele>1280.8</ele><time>2026-04-12T09:46:13.999Z</time></trkpt><trkpt lat="42.0245970932292" lon="13.23382065713394"><ele>1281.6</ele><time>2026-04-12T09:46:14.999Z</time></trkpt><trkpt lat="42.02451416995494" lon="13.233917774806272"><ele>1282.4</ele><time>2026-04-12T09:46:15.999Z</time></trkpt><trkpt lat="42.02443735027697" lon="13.234019372548497"><ele>1283.2</ele><time>2026-04-12T09:46:16.999Z</time></trkpt><trkpt lat="42.02435621750473" lon="13.234122648563298"><ele>1284.0</ele><time>2026-04-12T09:46:17.999Z</time></trkpt><trkpt lat="42.02426782582511" lon="13.234241039063004"><ele>1284.0</ele><time>2026-04-12T09:46:18.999Z</time></trkpt><trkpt lat="42.024179671040415" lon="13.2343684583796"><ele>1284.0</ele><time>2026-04-12T09:46:19.999Z</time></trkpt><trkpt lat="42.024100247781945" lon="13.234511897152947"><ele>1284.0</ele><time>2026-04-12T09:46:20.999Z</time></trkpt><trkpt lat="42.024024799754294" lon="13.234656684201223"><ele>1284.0</ele><time>2026-04-12T09:46:21.999Z</time></trkpt><trkpt lat="42.02395349846565" lon="13.234772241442858"><ele>1283.0</ele><time>2026-04-12T09:46:22.999Z</time></trkpt><trkpt lat="42.023888607904674" lon="13.234883614755423"><ele>1282.0</ele><time>2026-04-12T09:46:23.999Z</time></trkpt><trkpt lat="42.02380435635324" lon="13.234971109926672"><ele>1281.0</ele><time>2026-04-12T09:46:24.999Z</time></trkpt><trkpt lat="42.023716103347766" lon="13.235053233535844"><ele>1280.0</ele><time>2026-04-12T09:46:25.999Z</time></trkpt><trkpt lat="42.02363259450648" lon="13.235139814257805"><ele>1279.0</ele><time>2026-04-12T09:46:26.999Z</time></trkpt><trkpt lat="42.02355484990241" lon="13.235234123077449"><ele>1279.0</ele><time>2026-04-12T09:46:27.999Z</time></trkpt><trkpt lat="42.0234803764564" lon="13.235338424022439"><ele>1279.0</ele><time>2026-04-12T09:46:28.999Z</time></trkpt><trkpt lat="42.023433458748606" lon="13.235410246416809"><ele>1279.0</ele><time>2026-04-12T09:46:29.999Z</time></trkpt><trkpt lat="42.02338296233018" lon="13.235468456677562"><ele>1279.0</ele><time>2026-04-12T09:46:30.999Z</time></trkpt><trkpt lat="42.02330215749034" lon="13.235541643053716"><ele>1279.0</ele><time>2026-04-12T09:46:31.999Z</time></trkpt><trkpt lat="42.023214105965785" lon="13.235619610768124"><ele>1279.0</ele><time>2026-04-12T09:46:32.999Z</time></trkpt><trkpt lat="42.023112575667135" lon="13.235701737977907"><ele>1278.0</ele><time>2026-04-12T09:46:33.999Z</time></trkpt><trkpt lat="42.02301350566192" lon="13.235758713597715"><ele>1277.0</ele><time>2026-04-12T09:46:34.999Z</time></trkpt><trkpt lat="42.022912640500756" lon="13.23578973817189"><ele>1276.0</ele><time>2026-04-12T09:46:35.999Z</time></trkpt><trkpt lat="42.022806594102725" lon="13.235808209803425"><ele>1275.0</ele><time>2026-04-12T09:46:36.999Z</time></trkpt><trkpt lat="42.02267408714838" lon="13.235831832581088"><ele>1275.0</ele><time>2026-04-12T09:46:37.999Z</time></trkpt><trkpt lat="42.02253694903624" lon="13.235860632197952"><ele>1275.0</ele><time>2026-04-12T09:46:38.999Z</time></trkpt><trkpt lat="42.022387395799726" lon="13.235882973882033"><ele>1275.0</ele><time>2026-04-12T09:46:39.999Z</time></trkpt><trkpt lat="42.02228384472921" lon="13.235895945392471"><ele>1275.0</ele><time>2026-04-12T09:46:40.999Z</time></trkpt><trkpt lat="42.02219543443195" lon="13.235911218195412"><ele>1275.6</ele><time>2026-04-12T09:46:41.999Z</time></trkpt><trkpt lat="42.02210307041803" lon="13.235936289462595"><ele>1276.2</ele><time>2026-04-12T09:46:42.999Z</time></trkpt><trkpt lat="42.022016671033064" lon="13.235942960241"><ele>1276.8</ele><time>2026-04-12T09:46:43.999Z</time></trkpt><trkpt lat="42.0219308835796" lon="13.2359209899268"><ele>1277.4</ele><time>2026-04-12T09:46:44.999Z</time></trkpt><trkpt lat="42.02182116801373" lon="13.235889062262364"><ele>1278.0</ele><time>2026-04-12T09:46:45.999Z</time></trkpt><trkpt lat="42.021705871428104" lon="13.235848302430696"><ele>1278.4</ele><time>2026-04-12T09:46:46.999Z</time></trkpt><trkpt lat="42.021605861522936" lon="13.235813800695672"><ele>1278.8</ele><time>2026-04-12T09:46:47.999Z</time></trkpt><trkpt lat="42.021513152015785" lon="13.23579793913181"><ele>1279.2</ele><time>2026-04-12T09:46:48.999Z</time></trkpt><trkpt lat="42.02141437141414" lon="13.235790034793572"><ele>1279.6</ele><time>2026-04-12T09:46:49.999Z</time></trkpt><trkpt lat="42.02132469920518" lon="13.235790154412987"><ele>1280.0</ele><time>2026-04-12T09:46:50.999Z</time></trkpt><trkpt lat="42.02125509959053" lon="13.23579947386671"><ele>1280.0</ele><time>2026-04-12T09:46:51.999Z</time></trkpt><trkpt lat="42.021163395372284" lon="13.235835859394045"><ele>1280.0</ele><time>2026-04-12T09:46:53.998Z</time></trkpt><trkpt lat="42.021020674434475" lon="13.235873331552881"><ele>1280.0</ele><time>2026-04-12T09:46:55.998Z</time></trkpt><trkpt lat="42.02094477662063" lon="13.2359149146732"><ele>1280.0</ele><time>2026-04-12T09:46:56.998Z</time></trkpt><trkpt lat="42.0208653165794" lon="13.235968978862614"><ele>1280.0</ele><time>2026-04-12T09:46:57.998Z</time></trkpt><trkpt lat="42.0207908850736" lon="13.236024685893197"><ele>1279.5</ele><time>2026-04-12T09:46:58.998Z</time></trkpt><trkpt lat="42.020731733298746" lon="13.23607746418542"><ele>1279.0</ele><time>2026-04-12T09:46:59.998Z</time></trkpt><trkpt lat="42.02066712636556" lon="13.236153569641507"><ele>1278.5</ele><time>2026-04-12T09:47:00.998Z</time></trkpt><trkpt lat="42.02060158599434" lon="13.236225782268509"><ele>1278.0</ele><time>2026-04-12T09:47:01.998Z</time></trkpt><trkpt lat="42.02052921435359" lon="13.236299357925471"><ele>1277.5</ele><time>2026-04-12T09:47:02.998Z</time></trkpt><trkpt lat="42.020476374248304" lon="13.236369343092703"><ele>1277.0</ele><time>2026-04-12T09:47:03.998Z</time></trkpt><trkpt lat="42.02042578265044" lon="13.236448231257958"><ele>1277.0</ele><time>2026-04-12T09:47:04.998Z</time></trkpt><trkpt lat="42.02036657485191" lon="13.236480375435795"><ele>1277.0</ele><time>2026-04-12T09:47:05.998Z</time></trkpt><trkpt lat="42.02029091892477" lon="13.236467753904089"><ele>1277.0</ele><time>2026-04-12T09:47:06.998Z</time></trkpt><trkpt lat="42.02018200417211" lon="13.236457016685488"><ele>1277.0</ele><time>2026-04-12T09:47:07.998Z</time></trkpt><trkpt lat="42.02007353588355" lon="13.236443279321046"><ele>1277.0</ele><time>2026-04-12T09:47:08.998Z</time></trkpt><trkpt lat="42.01996015853907" lon="13.236441069931828"><ele>1277.0</ele><time>2026-04-12T09:47:09.998Z</time></trkpt><trkpt lat="42.01983085855502" lon="13.236440744684424"><ele>1277.0</ele><time>2026-04-12T09:47:10.998Z</time></trkpt><trkpt lat="42.01968670011454" lon="13.23644809589471"><ele>1277.0</ele><time>2026-04-12T09:47:11.998Z</time></trkpt><trkpt lat="42.0195558691051" lon="13.236469587528227"><ele>1277.0</ele><time>2026-04-12T09:47:12.998Z</time></trkpt><trkpt lat="42.01943070586624" lon="13.236502021158577"><ele>1277.25</ele><time>2026-04-12T09:47:13.998Z</time></trkpt><trkpt lat="42.01933034084053" lon="13.23654448751783"><ele>1277.5</ele><time>2026-04-12T09:47:14.998Z</time></trkpt><trkpt lat="42.01921569965617" lon="13.236603290460298"><ele>1277.75</ele><time>2026-04-12T09:47:15.998Z</time></trkpt><trkpt lat="42.01910362172037" lon="13.23664783071784"><ele>1278.0</ele><time>2026-04-12T09:47:16.998Z</time></trkpt><trkpt lat="42.019001703977224" lon="13.236694624211628"><ele>1278.0</ele><time>2026-04-12T09:47:17.998Z</time></trkpt><trkpt lat="42.01890749193115" lon="13.236743980899265"><ele>1278.0</ele><time>2026-04-12T09:47:18.998Z</time></trkpt><trkpt lat="42.018828126155825" lon="13.236778414775438"><ele>1278.0</ele><time>2026-04-12T09:47:20Z</time></trkpt><trkpt lat="42.018744075301356" lon="13.236811893557087"><ele>1278.0</ele><time>2026-04-12T09:47:21Z</time></trkpt><trkpt lat="42.018671368857596" lon="13.236836568830702"><ele>1278.0</ele><time>2026-04-12T09:47:22Z</time></trkpt><trkpt lat="42.01859566415004" lon="13.236891398270947"><ele>1278.0</ele><time>2026-04-12T09:47:23Z</time></trkpt><trkpt lat="42.018511642036884" lon="13.236947075011729"><ele>1278.0</ele><time>2026-04-12T09:47:24Z</time></trkpt><trkpt lat="42.018429109996546" lon="13.236986454643962"><ele>1278.0</ele><time>2026-04-12T09:47:25Z</time></trkpt><trkpt lat="42.01835020339166" lon="13.23703202894679"><ele>1278.0</ele><time>2026-04-12T09:47:26Z</time></trkpt><trkpt lat="42.01828928878741" lon="13.23707024354835"><ele>1278.0</ele><time>2026-04-12T09:47:27Z</time></trkpt><trkpt lat="42.01818955505996" lon="13.237150763457004"><ele>1278.0</ele><time>2026-04-12T09:47:29Z</time></trkpt><trkpt lat="42.01812788696127" lon="13.237185806273954"><ele>1278.0</ele><time>2026-04-12T09:47:30Z</time></trkpt><trkpt lat="42.01805299110357" lon="13.237217550612256"><ele>1278.0</ele><time>2026-04-12T09:47:31Z</time></trkpt><trkpt lat="42.01796554624829" lon="13.237264478169067"><ele>1278.0</ele><time>2026-04-12T09:47:32Z</time></trkpt><trkpt lat="42.017882471079155" lon="13.237298430262912"><ele>1278.0</ele><time>2026-04-12T09:47:33Z</time></trkpt><trkpt lat="42.017783578674276" lon="13.23734832813732"><ele>1278.0</ele><time>2026-04-12T09:47:34Z</time></trkpt><trkpt lat="42.01769898309851" lon="13.237383116145624"><ele>1278.0</ele><time>2026-04-12T09:47:35Z</time></trkpt><trkpt lat="42.0176296376412" lon="13.237413688517726"><ele>1278.0</ele><time>2026-04-12T09:47:36Z</time></trkpt><trkpt lat="42.01756201329975" lon="13.237455916206114"><ele>1278.0</ele><time>2026-04-12T09:47:37Z</time></trkpt><trkpt lat="42.017488718203666" lon="13.237503600358972"><ele>1278.0</ele><time>2026-04-12T09:47:38Z</time></trkpt><trkpt lat="42.01736536615989" lon="13.237612493460622"><ele>1278.0</ele><time>2026-04-12T09:47:40Z</time></trkpt><trkpt lat="42.0172963073348" lon="13.237661318595734"><ele>1278.0</ele><time>2026-04-12T09:47:41Z</time></trkpt><trkpt lat="42.01722315039501" lon="13.23771325287291"><ele>1278.0</ele><time>2026-04-12T09:47:42Z</time></trkpt><trkpt lat="42.01710379529707" lon="13.237814625038698"><ele>1278.2</ele><time>2026-04-12T09:47:44Z</time></trkpt><trkpt lat="42.01701933944178" lon="13.237886474779406"><ele>1278.4</ele><time>2026-04-12T09:47:45Z</time></trkpt><trkpt lat="42.016924974756414" lon="13.23796714884112"><ele>1278.6000000000001</ele><time>2026-04-12T09:47:46Z</time></trkpt><trkpt lat="42.016842245837964" lon="13.238055748548568"><ele>1278.8</ele><time>2026-04-12T09:47:47Z</time></trkpt><trkpt lat="42.01675873821433" lon="13.238170941953252"><ele>1279.0</ele><time>2026-04-12T09:47:48Z</time></trkpt><trkpt lat="42.01667988550267" lon="13.238270896014582"><ele>1278.5</ele><time>2026-04-12T09:47:49Z</time></trkpt><trkpt lat="42.01660532855788" lon="13.23834885189116"><ele>1278.0</ele><time>2026-04-12T09:47:50Z</time></trkpt><trkpt lat="42.01655270199529" lon="13.23841721968479"><ele>1277.5</ele><time>2026-04-12T09:47:51Z</time></trkpt><trkpt lat="42.016516862170256" lon="13.238488541661178"><ele>1277.0</ele><time>2026-04-12T09:47:52Z</time></trkpt><trkpt lat="42.01650017627189" lon="13.238609271834346"><ele>1276.5</ele><time>2026-04-12T09:47:54Z</time></trkpt><trkpt lat="42.01641455391216" lon="13.238641298957727"><ele>1276.0</ele><time>2026-04-12T09:47:56Z</time></trkpt><trkpt lat="42.016351485917475" lon="13.238660240378607"><ele>1276.0</ele><time>2026-04-12T09:47:57Z</time></trkpt><trkpt lat="42.01629575396194" lon="13.238717116369875"><ele>1276.0</ele><time>2026-04-12T09:47:57.999Z</time></trkpt><trkpt lat="42.016229880172396" lon="13.238791106795057"><ele>1276.0</ele><time>2026-04-12T09:47:58.999Z</time></trkpt><trkpt lat="42.01616220122978" lon="13.23887253420782"><ele>1276.0</ele><time>2026-04-12T09:48:00.999Z</time></trkpt><trkpt lat="42.01610842761546" lon="13.23892972967891"><ele>1276.0</ele><time>2026-04-12T09:48:02.999Z</time></trkpt><trkpt lat="42.01604614197459" lon="13.2389849160525"><ele>1276.0</ele><time>2026-04-12T09:48:04.999Z</time></trkpt><trkpt lat="42.01600132883692" lon="13.239055634158493"><ele>1276.8333333333333</ele><time>2026-04-12T09:48:05.999Z</time></trkpt><trkpt lat="42.015962209132326" lon="13.23913992741511"><ele>1277.6666666666665</ele><time>2026-04-12T09:48:06.999Z</time></trkpt><trkpt lat="42.01591707574009" lon="13.239262084086162"><ele>1278.5</ele><time>2026-04-12T09:48:08.999Z</time></trkpt><trkpt lat="42.01586503382943" lon="13.239389895198434"><ele>1279.3333333333333</ele><time>2026-04-12T09:48:10.999Z</time></trkpt><trkpt lat="42.01579614265747" lon="13.239428884241601"><ele>1280.1666666666667</ele><time>2026-04-12T09:48:12.999Z</time></trkpt><trkpt lat="42.015731032467315" lon="13.23948799730108"><ele>1281.0</ele><time>2026-04-12T09:48:14.999Z</time></trkpt><trkpt lat="42.01564346037591" lon="13.239604419562541"><ele>1280.3999999999999</ele><time>2026-04-12T09:48:16.999Z</time></trkpt><trkpt lat="42.01554311483451" lon="13.2396964992277"><ele>1279.8</ele><time>2026-04-12T09:48:18.999Z</time></trkpt><trkpt lat="42.01547907902828" lon="13.239745639125498"><ele>1279.1999999999998</ele><time>2026-04-12T09:48:19.999Z</time></trkpt><trkpt lat="42.01541499878159" lon="13.239778790896322"><ele>1278.6</ele><time>2026-04-12T09:48:20.999Z</time></trkpt><trkpt lat="42.01530963899378" lon="13.239849046602115"><ele>1278.0</ele><time>2026-04-12T09:48:22.999Z</time></trkpt><trkpt lat="42.01519888099736" lon="13.239920673427964"><ele>1278.0</ele><time>2026-04-12T09:48:24.999Z</time></trkpt><trkpt lat="42.015130123781226" lon="13.239956878556052"><ele>1278.0</ele><time>2026-04-12T09:48:25.999Z</time></trkpt><trkpt lat="42.01503939917985" lon="13.24004450962567"><ele>1278.0</ele><time>2026-04-12T09:48:26.999Z</time></trkpt><trkpt lat="42.0149380184547" lon="13.240120423877245"><ele>1278.0</ele><time>2026-04-12T09:48:27.999Z</time></trkpt><trkpt lat="42.01482554021148" lon="13.240258085051344"><ele>1277.0</ele><time>2026-04-12T09:48:29.999Z</time></trkpt><trkpt lat="42.01472923624242" lon="13.24032937450757"><ele>1276.0</ele><time>2026-04-12T09:48:30.999Z</time></trkpt><trkpt lat="42.01465145994999" lon="13.240383352440013"><ele>1275.0</ele><time>2026-04-12T09:48:31.999Z</time></trkpt><trkpt lat="42.0145557880279" lon="13.24045009062687"><ele>1274.0</ele><time>2026-04-12T09:48:33.999Z</time></trkpt><trkpt lat="42.01448173561735" lon="13.24053762945787"><ele>1273.0</ele><time>2026-04-12T09:48:35.999Z</time></trkpt><trkpt lat="42.01442595022193" lon="13.240593225738339"><ele>1275.1666666666665</ele><time>2026-04-12T09:48:37.999Z</time></trkpt><trkpt lat="42.01436484682166" lon="13.240643546106101"><ele>1277.3333333333333</ele><time>2026-04-12T09:48:39.999Z</time></trkpt><trkpt lat="42.014293401693116" lon="13.240688442711111"><ele>1279.5</ele><time>2026-04-12T09:48:41.999Z</time></trkpt><trkpt lat="42.014194712878634" lon="13.240740750155235"><ele>1281.6666666666667</ele><time>2026-04-12T09:48:43.999Z</time></trkpt><trkpt lat="42.014114326853054" lon="13.240796905859023"><ele>1283.8333333333335</ele><time>2026-04-12T09:48:45.999Z</time></trkpt><trkpt lat="42.01405465663067" lon="13.240843365862084"><ele>1286.0</ele><time>2026-04-12T09:48:47.999Z</time></trkpt><trkpt lat="42.01397154672847" lon="13.240912259492013"><ele>1286.0</ele><time>2026-04-12T09:48:50.999Z</time></trkpt><trkpt lat="42.013909731645036" lon="13.24101915411438"><ele>1286.0</ele><time>2026-04-12T09:48:52.999Z</time></trkpt><trkpt lat="42.0138561310841" lon="13.241074397264091"><ele>1286.0</ele><time>2026-04-12T09:48:53.999Z</time></trkpt><trkpt lat="42.0138021152279" lon="13.241125753510087"><ele>1286.0</ele><time>2026-04-12T09:48:54.999Z</time></trkpt><trkpt lat="42.01374571671472" lon="13.241188737545894"><ele>1286.0</ele><time>2026-04-12T09:48:55.999Z</time></trkpt><trkpt lat="42.01369025344746" lon="13.241240084108806"><ele>1286.0</ele><time>2026-04-12T09:48:56.999Z</time></trkpt><trkpt lat="42.0135821865882" lon="13.241282794684478"><ele>1286.0</ele><time>2026-04-12T09:48:58.999Z</time></trkpt><trkpt lat="42.01351759544167" lon="13.241301991058632"><ele>1286.0</ele><time>2026-04-12T09:48:59.999Z</time></trkpt><trkpt lat="42.01344315072387" lon="13.24132298705807"><ele>1286.0</ele><time>2026-04-12T09:49:00.999Z</time></trkpt><trkpt lat="42.01336505825671" lon="13.241360296779417"><ele>1286.0</ele><time>2026-04-12T09:49:02.998Z</time></trkpt><trkpt lat="42.01329968740228" lon="13.241369329749334"><ele>1286.0</ele><time>2026-04-12T09:49:04.998Z</time></trkpt><trkpt lat="42.01322175903208" lon="13.241368225561807"><ele>1286.0</ele><time>2026-04-12T09:49:06.998Z</time></trkpt><trkpt lat="42.013123458063816" lon="13.241282496642626"><ele>1287.0</ele><time>2026-04-12T09:49:08.998Z</time></trkpt><trkpt lat="42.01301293682518" lon="13.241179217965621"><ele>1288.0</ele><time>2026-04-12T09:49:10.998Z</time></trkpt><trkpt lat="42.012936898775536" lon="13.241121931111389"><ele>1289.0</ele><time>2026-04-12T09:49:12.998Z</time></trkpt><trkpt lat="42.012830288728175" lon="13.241094135172235"><ele>1290.0</ele><time>2026-04-12T09:49:14.998Z</time></trkpt><trkpt lat="42.01275566017729" lon="13.24110174659075"><ele>1291.0</ele><time>2026-04-12T09:49:15.998Z</time></trkpt><trkpt lat="42.01267257041766" lon="13.241129786042125"><ele>1291.0</ele><time>2026-04-12T09:49:16.998Z</time></trkpt><trkpt lat="42.01259664687608" lon="13.241181909372676"><ele>1291.0</ele><time>2026-04-12T09:49:17.998Z</time></trkpt><trkpt lat="42.01251450873183" lon="13.241245015002644"><ele>1291.0</ele><time>2026-04-12T09:49:18.998Z</time></trkpt><trkpt lat="42.01243214361343" lon="13.241305744659648"><ele>1291.0</ele><time>2026-04-12T09:49:19.998Z</time></trkpt><trkpt lat="42.01234927843308" lon="13.241373625791171"><ele>1291.0</ele><time>2026-04-12T09:49:20.998Z</time></trkpt><trkpt lat="42.012261446599176" lon="13.241434783101425"><ele>1290.25</ele><time>2026-04-12T09:49:21.998Z</time></trkpt><trkpt lat="42.01216152427669" lon="13.24150573301568"><ele>1289.5</ele><time>2026-04-12T09:49:22.998Z</time></trkpt><trkpt lat="42.01206285860995" lon="13.241596689976438"><ele>1288.75</ele><time>2026-04-12T09:49:23.998Z</time></trkpt><trkpt lat="42.01194334127945" lon="13.241665023283199"><ele>1288.0</ele><time>2026-04-12T09:49:24.998Z</time></trkpt><trkpt lat="42.011830451822846" lon="13.241728354428124"><ele>1288.0</ele><time>2026-04-12T09:49:26Z</time></trkpt><trkpt lat="42.01172820412803" lon="13.241803975038515"><ele>1288.0</ele><time>2026-04-12T09:49:27Z</time></trkpt><trkpt lat="42.01162295974206" lon="13.24188611033747"><ele>1288.0</ele><time>2026-04-12T09:49:28Z</time></trkpt><trkpt lat="42.011535169377346" lon="13.241967579098281"><ele>1288.0</ele><time>2026-04-12T09:49:29Z</time></trkpt><trkpt lat="42.011455686751894" lon="13.242020062067434"><ele>1288.0</ele><time>2026-04-12T09:49:30Z</time></trkpt><trkpt lat="42.011393273741575" lon="13.24205477162172"><ele>1289.4</ele><time>2026-04-12T09:49:31Z</time></trkpt><trkpt lat="42.011305118944875" lon="13.242152751357292"><ele>1290.8000000000002</ele><time>2026-04-12T09:49:33Z</time></trkpt><trkpt lat="42.01118252169641" lon="13.242243905885585"><ele>1292.2</ele><time>2026-04-12T09:49:35Z</time></trkpt><trkpt lat="42.01109857196823" lon="13.242251470273754"><ele>1293.6</ele><time>2026-04-12T09:49:36Z</time></trkpt><trkpt lat="42.011013569181884" lon="13.242244468847042"><ele>1295.0</ele><time>2026-04-12T09:49:37Z</time></trkpt><trkpt lat="42.01093566777477" lon="13.242270668831171"><ele>1294.8</ele><time>2026-04-12T09:49:38Z</time></trkpt><trkpt lat="42.01084971066987" lon="13.242326222878706"><ele>1294.6</ele><time>2026-04-12T09:49:39Z</time></trkpt><trkpt lat="42.0107552017549" lon="13.242393586618176"><ele>1294.4</ele><time>2026-04-12T09:49:40Z</time></trkpt><trkpt lat="42.01068246824546" lon="13.242468967518263"><ele>1294.2</ele><time>2026-04-12T09:49:41Z</time></trkpt><trkpt lat="42.01061949071675" lon="13.24253600169192"><ele>1294.0</ele><time>2026-04-12T09:49:42Z</time></trkpt><trkpt lat="42.01052845031646" lon="13.242591690980376"><ele>1294.0</ele><time>2026-04-12T09:49:43Z</time></trkpt><trkpt lat="42.0104365966767" lon="13.24264298017659"><ele>1294.0</ele><time>2026-04-12T09:49:44Z</time></trkpt><trkpt lat="42.010344095554785" lon="13.242696972008977"><ele>1294.0</ele><time>2026-04-12T09:49:45Z</time></trkpt><trkpt lat="42.010259974842796" lon="13.242778030075966"><ele>1294.0</ele><time>2026-04-12T09:49:46Z</time></trkpt><trkpt lat="42.01018849990177" lon="13.24287413898129"><ele>1294.0</ele><time>2026-04-12T09:49:47Z</time></trkpt><trkpt lat="42.01012518503348" lon="13.242974008254556"><ele>1294.0</ele><time>2026-04-12T09:49:48Z</time></trkpt><trkpt lat="42.01008903286761" lon="13.243044290973357"><ele>1294.0</ele><time>2026-04-12T09:49:49Z</time></trkpt><trkpt lat="42.010051590533635" lon="13.243177515878527"><ele>1294.0</ele><time>2026-04-12T09:49:51Z</time></trkpt><trkpt lat="42.00997557927704" lon="13.243310744340866"><ele>1294.0</ele><time>2026-04-12T09:49:52.999Z</time></trkpt><trkpt lat="42.00990002916107" lon="13.243404654466708"><ele>1294.0</ele><time>2026-04-12T09:49:54.999Z</time></trkpt><trkpt lat="42.00982361216041" lon="13.243498670678878"><ele>1292.0</ele><time>2026-04-12T09:49:56.999Z</time></trkpt><trkpt lat="42.00976972709025" lon="13.243562135527842"><ele>1290.0</ele><time>2026-04-12T09:49:57.999Z</time></trkpt><trkpt lat="42.009714368301154" lon="13.243608285937183"><ele>1288.0</ele><time>2026-04-12T09:49:58.999Z</time></trkpt><trkpt lat="42.00965289447435" lon="13.243631122034575"><ele>1286.0</ele><time>2026-04-12T09:49:59.999Z</time></trkpt><trkpt lat="42.00953841415059" lon="13.243684266716855"><ele>1284.0</ele><time>2026-04-12T09:50:01.999Z</time></trkpt><trkpt lat="42.00947029220575" lon="13.243698614497402"><ele>1282.0</ele><time>2026-04-12T09:50:02.999Z</time></trkpt><trkpt lat="42.00940063451021" lon="13.243695185655772"><ele>1282.0</ele><time>2026-04-12T09:50:03.999Z</time></trkpt><trkpt lat="42.00931720680293" lon="13.24368921189307"><ele>1282.0</ele><time>2026-04-12T09:50:04.999Z</time></trkpt><trkpt lat="42.00921828234354" lon="13.24370008853933"><ele>1282.0</ele><time>2026-04-12T09:50:05.999Z</time></trkpt><trkpt lat="42.009121647602846" lon="13.243725922654793"><ele>1282.0</ele><time>2026-04-12T09:50:06.999Z</time></trkpt><trkpt lat="42.00904327453551" lon="13.243754937116314"><ele>1282.0</ele><time>2026-04-12T09:50:07.999Z</time></trkpt><trkpt lat="42.00894923581446" lon="13.243777942806485"><ele>1281.8</ele><time>2026-04-12T09:50:08.999Z</time></trkpt><trkpt lat="42.00884131087141" lon="13.243805749972223"><ele>1281.6</ele><time>2026-04-12T09:50:09.999Z</time></trkpt><trkpt lat="42.00874910868282" lon="13.24383384812225"><ele>1281.3999999999999</ele><time>2026-04-12T09:50:10.999Z</time></trkpt><trkpt lat="42.00864244120418" lon="13.243868640677148"><ele>1281.1999999999998</ele><time>2026-04-12T09:50:11.999Z</time></trkpt><trkpt lat="42.00853499715996" lon="13.243921550592233"><ele>1281.0</ele><time>2026-04-12T09:50:12.999Z</time></trkpt><trkpt lat="42.008440381453276" lon="13.243980103978556"><ele>1281.0</ele><time>2026-04-12T09:50:13.999Z</time></trkpt><trkpt lat="42.008339267049585" lon="13.244041313409618"><ele>1281.0</ele><time>2026-04-12T09:50:14.999Z</time></trkpt><trkpt lat="42.00824867359834" lon="13.24410702476483"><ele>1281.0</ele><time>2026-04-12T09:50:15.999Z</time></trkpt><trkpt lat="42.008163134372936" lon="13.244194442786153"><ele>1281.0</ele><time>2026-04-12T09:50:16.999Z</time></trkpt><trkpt lat="42.00809282537524" lon="13.244276492253826"><ele>1281.0</ele><time>2026-04-12T09:50:17.999Z</time></trkpt><trkpt lat="42.00803444658952" lon="13.244347849770113"><ele>1280.3333333333333</ele><time>2026-04-12T09:50:18.999Z</time></trkpt><trkpt lat="42.00798336149019" lon="13.244426031605403"><ele>1279.6666666666667</ele><time>2026-04-12T09:50:19.999Z</time></trkpt><trkpt lat="42.007954701406234" lon="13.24451827988599"><ele>1279.0</ele><time>2026-04-12T09:50:20.999Z</time></trkpt><trkpt lat="42.007925821249096" lon="13.24459658838585"><ele>1278.3333333333335</ele><time>2026-04-12T09:50:21.999Z</time></trkpt><trkpt lat="42.00789225287959" lon="13.244676461370949"><ele>1277.6666666666667</ele><time>2026-04-12T09:50:22.999Z</time></trkpt><trkpt lat="42.007838969001604" lon="13.244780096357282"><ele>1277.0</ele><time>2026-04-12T09:50:23.999Z</time></trkpt><trkpt lat="42.00779746898462" lon="13.244874051003888"><ele>1276.7142857142856</ele><time>2026-04-12T09:50:24.999Z</time></trkpt><trkpt lat="42.00776146461063" lon="13.24497618982641"><ele>1276.4285714285713</ele><time>2026-04-12T09:50:25.999Z</time></trkpt><trkpt lat="42.00773783883606" lon="13.245054770867693"><ele>1276.142857142857</ele><time>2026-04-12T09:50:26.999Z</time></trkpt><trkpt lat="42.00770861389247" lon="13.245138759223137"><ele>1275.8571428571427</ele><time>2026-04-12T09:50:27.999Z</time></trkpt><trkpt lat="42.007671279418226" lon="13.245224591109869"><ele>1275.5714285714284</ele><time>2026-04-12T09:50:28.999Z</time></trkpt><trkpt lat="42.00763154612802" lon="13.245299856348701"><ele>1275.2857142857142</ele><time>2026-04-12T09:50:29.999Z</time></trkpt><trkpt lat="42.00758681385051" lon="13.245372762523049"><ele>1275.0</ele><time>2026-04-12T09:50:30.999Z</time></trkpt><trkpt lat="42.00749710189658" lon="13.245464503588924"><ele>1276.3333333333333</ele><time>2026-04-12T09:50:32.999Z</time></trkpt><trkpt lat="42.00743390537587" lon="13.245521953704111"><ele>1277.6666666666667</ele><time>2026-04-12T09:50:33.999Z</time></trkpt><trkpt lat="42.00735918153755" lon="13.245601370730578"><ele>1279.0</ele><time>2026-04-12T09:50:34.999Z</time></trkpt><trkpt lat="42.0073224880124" lon="13.245677552011918"><ele>1280.3333333333335</ele><time>2026-04-12T09:50:35.999Z</time></trkpt><trkpt lat="42.00725851693614" lon="13.245805454726714"><ele>1281.6666666666667</ele><time>2026-04-12T09:50:37.999Z</time></trkpt><trkpt lat="42.00719472567272" lon="13.245895591177762"><ele>1283.0</ele><time>2026-04-12T09:50:39.999Z</time></trkpt><trkpt lat="42.007143245527296" lon="13.245969546479452"><ele>1283.0</ele><time>2026-04-12T09:50:41.999Z</time></trkpt><trkpt lat="42.00709115766742" lon="13.246055395515702"><ele>1283.0</ele><time>2026-04-12T09:50:44.999Z</time></trkpt><trkpt lat="42.00704449422277" lon="13.24612738811911"><ele>1283.0</ele><time>2026-04-12T09:50:46.999Z</time></trkpt><trkpt lat="42.00700641318177" lon="13.24622148758242"><ele>1283.0</ele><time>2026-04-12T09:50:48.999Z</time></trkpt><trkpt lat="42.006966404557915" lon="13.246325555448188"><ele>1283.0</ele><time>2026-04-12T09:50:50.999Z</time></trkpt><trkpt lat="42.006902267768616" lon="13.246392314492052"><ele>1283.0</ele><time>2026-04-12T09:50:52.999Z</time></trkpt><trkpt lat="42.00684007276415" lon="13.246476190342682"><ele>1283.8333333333335</ele><time>2026-04-12T09:50:54.999Z</time></trkpt><trkpt lat="42.00680190357163" lon="13.246581516085145"><ele>1284.6666666666667</ele><time>2026-04-12T09:50:56.999Z</time></trkpt><trkpt lat="42.00675410219504" lon="13.246688315091367"><ele>1285.5</ele><time>2026-04-12T09:50:58.999Z</time></trkpt><trkpt lat="42.00668958607374" lon="13.246804579324362"><ele>1286.3333333333333</ele><time>2026-04-12T09:51:00.998Z</time></trkpt><trkpt lat="42.006646038515626" lon="13.246893299399792"><ele>1287.1666666666665</ele><time>2026-04-12T09:51:02.998Z</time></trkpt><trkpt lat="42.006604944423465" lon="13.246980650916734"><ele>1288.0</ele><time>2026-04-12T09:51:04.998Z</time></trkpt><trkpt lat="42.0065455694512" lon="13.247068811817021"><ele>1288.0</ele><time>2026-04-12T09:51:06.998Z</time></trkpt><trkpt lat="42.006488661196514" lon="13.247146932858636"><ele>1288.0</ele><time>2026-04-12T09:51:08.998Z</time></trkpt><trkpt lat="42.006438504179904" lon="13.247241213119503"><ele>1288.0</ele><time>2026-04-12T09:51:10.998Z</time></trkpt><trkpt lat="42.00640429594982" lon="13.247314196373386"><ele>1288.0</ele><time>2026-04-12T09:51:11.998Z</time></trkpt><trkpt lat="42.0063421735918" lon="13.247379640292479"><ele>1288.0</ele><time>2026-04-12T09:51:13.998Z</time></trkpt><trkpt lat="42.00627301795182" lon="13.247458520008133"><ele>1288.0</ele><time>2026-04-12T09:51:15.998Z</time></trkpt><trkpt lat="42.00622397453038" lon="13.247555755595954"><ele>1285.8000000000002</ele><time>2026-04-12T09:51:17.998Z</time></trkpt><trkpt lat="42.00617220976973" lon="13.247631913355153"><ele>1283.6000000000001</ele><time>2026-04-12T09:51:19.998Z</time></trkpt><trkpt lat="42.00614070025955" lon="13.24775866186757"><ele>1281.4</ele><time>2026-04-12T09:51:21.998Z</time></trkpt><trkpt lat="42.00609673377066" lon="13.2478786328039"><ele>1279.2</ele><time>2026-04-12T09:51:23.998Z</time></trkpt><trkpt lat="42.006069271166" lon="13.24802280614757"><ele>1277.0</ele><time>2026-04-12T09:51:25.998Z</time></trkpt><trkpt lat="42.00603777103578" lon="13.248139693170888"><ele>1275.8333333333335</ele><time>2026-04-12T09:51:27.998Z</time></trkpt><trkpt lat="42.00602466923149" lon="13.248227356359598"><ele>1274.6666666666667</ele><time>2026-04-12T09:51:29.998Z</time></trkpt><trkpt lat="42.00603721137282" lon="13.248312632554367"><ele>1273.5</ele><time>2026-04-12T09:51:32Z</time></trkpt><trkpt lat="42.00603442193339" lon="13.248400241371757"><ele>1272.3333333333333</ele><time>2026-04-12T09:51:36Z</time></trkpt><trkpt lat="42.00600801616985" lon="13.248538571196876"><ele>1271.1666666666665</ele><time>2026-04-12T09:51:39Z</time></trkpt><trkpt lat="42.00594191237435" lon="13.24862706365121"><ele>1270.0</ele><time>2026-04-12T09:51:41Z</time></trkpt><trkpt lat="42.00588231050585" lon="13.248659229673956"><ele>1270.0</ele><time>2026-04-12T09:51:45Z</time></trkpt><trkpt lat="42.005852467945914" lon="13.248743648784618"><ele>1270.0</ele><time>2026-04-12T09:51:50Z</time></trkpt><trkpt lat="42.00581647182839" lon="13.24883796832078"><ele>1270.0</ele><time>2026-04-12T09:51:53Z</time></trkpt><trkpt lat="42.005765950967834" lon="13.248920159220782"><ele>1270.0</ele><time>2026-04-12T09:51:57Z</time></trkpt><trkpt lat="42.00570569121284" lon="13.24901032553922"><ele>1270.0</ele><time>2026-04-12T09:52:01Z</time></trkpt><trkpt lat="42.005620782020856" lon="13.24911501993643"><ele>1270.0</ele><time>2026-04-12T09:52:03.999Z</time></trkpt><trkpt lat="42.00556835347226" lon="13.249204460304565"><ele>1270.5</ele><time>2026-04-12T09:52:05.999Z</time></trkpt><trkpt lat="42.005520333170175" lon="13.249277599594787"><ele>1271.0</ele><time>2026-04-12T09:52:07.999Z</time></trkpt><trkpt lat="42.00547149339168" lon="13.249385401605387"><ele>1271.5</ele><time>2026-04-12T09:52:10.999Z</time></trkpt><trkpt lat="42.00541539665188" lon="13.249478585710676"><ele>1272.0</ele><time>2026-04-12T09:52:12.999Z</time></trkpt><trkpt lat="42.00537688025625" lon="13.249563310963355"><ele>1272.5</ele><time>2026-04-12T09:52:14.999Z</time></trkpt><trkpt lat="42.00532525553158" lon="13.249701456616014"><ele>1273.0</ele><time>2026-04-12T09:52:16.999Z</time></trkpt><trkpt lat="42.00523259638029" lon="13.249795903216794"><ele>1271.6</ele><time>2026-04-12T09:52:18.999Z</time></trkpt><trkpt lat="42.00509754865703" lon="13.24983743704443"><ele>1270.1999999999998</ele><time>2026-04-12T09:52:20.999Z</time></trkpt><trkpt lat="42.00500754190753" lon="13.24986549601712"><ele>1268.8</ele><time>2026-04-12T09:52:21.999Z</time></trkpt><trkpt lat="42.00493759849997" lon="13.249885153200225"><ele>1267.3999999999999</ele><time>2026-04-12T09:52:22.999Z</time></trkpt><trkpt lat="42.0048248348969" lon="13.249972383136505"><ele>1266.0</ele><time>2026-04-12T09:52:24.999Z</time></trkpt><trkpt lat="42.00475762215665" lon="13.249997061267345"><ele>1266.0</ele><time>2026-04-12T09:52:25.999Z</time></trkpt><trkpt lat="42.004705652656156" lon="13.250045325667818"><ele>1266.0</ele><time>2026-04-12T09:52:26.999Z</time></trkpt><trkpt lat="42.004641466664445" lon="13.250114873650046"><ele>1266.0</ele><time>2026-04-12T09:52:27.999Z</time></trkpt><trkpt lat="42.004580388639056" lon="13.250204643938735"><ele>1266.0</ele><time>2026-04-12T09:52:28.999Z</time></trkpt><trkpt lat="42.004536329156636" lon="13.250267869876408"><ele>1266.0</ele><time>2026-04-12T09:52:29.999Z</time></trkpt><trkpt lat="42.004438357338515" lon="13.25038061103759"><ele>1266.0</ele><time>2026-04-12T09:52:31.999Z</time></trkpt><trkpt lat="42.00436498085267" lon="13.250448452319777"><ele>1266.0</ele><time>2026-04-12T09:52:32.999Z</time></trkpt><trkpt lat="42.00428150022957" lon="13.250509607541876"><ele>1266.0</ele><time>2026-04-12T09:52:33.999Z</time></trkpt><trkpt lat="42.00420546610865" lon="13.250563106239673"><ele>1266.0</ele><time>2026-04-12T09:52:34.999Z</time></trkpt><trkpt lat="42.0041292187058" lon="13.250633650900019"><ele>1266.0</ele><time>2026-04-12T09:52:35.999Z</time></trkpt><trkpt lat="42.00403935331761" lon="13.25071425795911"><ele>1266.0</ele><time>2026-04-12T09:52:36.999Z</time></trkpt><trkpt lat="42.00393802016827" lon="13.250788044691376"><ele>1265.25</ele><time>2026-04-12T09:52:37.999Z</time></trkpt><trkpt lat="42.003825538634814" lon="13.250854969618377"><ele>1264.5</ele><time>2026-04-12T09:52:38.999Z</time></trkpt><trkpt lat="42.00373668911345" lon="13.250921558316909"><ele>1263.75</ele><time>2026-04-12T09:52:39.999Z</time></trkpt><trkpt lat="42.003645281113634" lon="13.251004230777394"><ele>1263.0</ele><time>2026-04-12T09:52:40.999Z</time></trkpt><trkpt lat="42.00354904050696" lon="13.251094247785163"><ele>1263.0</ele><time>2026-04-12T09:52:41.999Z</time></trkpt><trkpt lat="42.00345330342071" lon="13.251186539924001"><ele>1263.0</ele><time>2026-04-12T09:52:42.999Z</time></trkpt><trkpt lat="42.003360172138024" lon="13.251286291393177"><ele>1263.0</ele><time>2026-04-12T09:52:43.999Z</time></trkpt><trkpt lat="42.00326525322111" lon="13.251393945773291"><ele>1263.0</ele><time>2026-04-12T09:52:44.999Z</time></trkpt><trkpt lat="42.003164889515" lon="13.25150873219518"><ele>1263.25</ele><time>2026-04-12T09:52:45.999Z</time></trkpt><trkpt lat="42.003071733769815" lon="13.25163081604717"><ele>1263.5</ele><time>2026-04-12T09:52:46.999Z</time></trkpt><trkpt lat="42.002980191538214" lon="13.251760385531854"><ele>1263.75</ele><time>2026-04-12T09:52:47.999Z</time></trkpt><trkpt lat="42.00288531214131" lon="13.251896952768298"><ele>1264.0</ele><time>2026-04-12T09:52:48.999Z</time></trkpt><trkpt lat="42.00279680207273" lon="13.252010379367785"><ele>1264.0</ele><time>2026-04-12T09:52:49.999Z</time></trkpt><trkpt lat="42.00270959862512" lon="13.252112306437963"><ele>1264.0</ele><time>2026-04-12T09:52:50.999Z</time></trkpt><trkpt lat="42.002622938347194" lon="13.252243142426366"><ele>1264.0</ele><time>2026-04-12T09:52:51.999Z</time></trkpt><trkpt lat="42.00254315611655" lon="13.252383354994892"><ele>1264.0</ele><time>2026-04-12T09:52:52.999Z</time></trkpt><trkpt lat="42.002458967593874" lon="13.252523072736034"><ele>1265.5</ele><time>2026-04-12T09:52:53.999Z</time></trkpt><trkpt lat="42.00236997354224" lon="13.252656793543736"><ele>1267.0</ele><time>2026-04-12T09:52:54.999Z</time></trkpt><trkpt lat="42.00227837212825" lon="13.252765302641068"><ele>1268.5</ele><time>2026-04-12T09:52:55.999Z</time></trkpt><trkpt lat="42.00218266031561" lon="13.25285350310978"><ele>1270.0</ele><time>2026-04-12T09:52:56.999Z</time></trkpt><trkpt lat="42.00208481623394" lon="13.252939163974633"><ele>1270.0</ele><time>2026-04-12T09:52:57.999Z</time></trkpt><trkpt lat="42.00200709812504" lon="13.253031755868312"><ele>1270.0</ele><time>2026-04-12T09:52:58.999Z</time></trkpt><trkpt lat="42.00194851609733" lon="13.253148423198178"><ele>1270.0</ele><time>2026-04-12T09:52:59.999Z</time></trkpt><trkpt lat="42.00190664068934" lon="13.253285370783535"><ele>1270.0</ele><time>2026-04-12T09:53:00.999Z</time></trkpt><trkpt lat="42.001878805855604" lon="13.253430974638052"><ele>1270.0</ele><time>2026-04-12T09:53:01.999Z</time></trkpt><trkpt lat="42.00186172603613" lon="13.253556994657878"><ele>1267.0</ele><time>2026-04-12T09:53:02.999Z</time></trkpt><trkpt lat="42.00185274236511" lon="13.25366166451519"><ele>1264.0</ele><time>2026-04-12T09:53:03.999Z</time></trkpt><trkpt lat="42.00183516392446" lon="13.253787162814596"><ele>1261.0</ele><time>2026-04-12T09:53:04.999Z</time></trkpt><trkpt lat="42.001788392600766" lon="13.253926460823578"><ele>1258.0</ele><time>2026-04-12T09:53:05.999Z</time></trkpt><trkpt lat="42.00174004075335" lon="13.254072588413221"><ele>1255.0</ele><time>2026-04-12T09:53:06.999Z</time></trkpt><trkpt lat="42.00170618882963" lon="13.254201212283945"><ele>1256.6</ele><time>2026-04-12T09:53:07.999Z</time></trkpt><trkpt lat="42.0016510139483" lon="13.254328030920776"><ele>1258.2</ele><time>2026-04-12T09:53:08.999Z</time></trkpt><trkpt lat="42.00159303955818" lon="13.254457279395035"><ele>1259.8</ele><time>2026-04-12T09:53:09.999Z</time></trkpt><trkpt lat="42.001547642381574" lon="13.254561851034747"><ele>1261.4</ele><time>2026-04-12T09:53:10.999Z</time></trkpt><trkpt lat="42.00151765333388" lon="13.25464437028444"><ele>1263.0</ele><time>2026-04-12T09:53:11.999Z</time></trkpt><trkpt lat="42.00147792864155" lon="13.254769499437868"><ele>1260.4</ele><time>2026-04-12T09:53:13.998Z</time></trkpt><trkpt lat="42.00140562617927" lon="13.254909163457599"><ele>1257.8</ele><time>2026-04-12T09:53:15.998Z</time></trkpt><trkpt lat="42.0013421948302" lon="13.255003500886257"><ele>1255.2</ele><time>2026-04-12T09:53:16.998Z</time></trkpt><trkpt lat="42.00126986125387" lon="13.255126212332788"><ele>1252.6</ele><time>2026-04-12T09:53:17.998Z</time></trkpt><trkpt lat="42.001220193303" lon="13.255232160731639"><ele>1250.0</ele><time>2026-04-12T09:53:18.998Z</time></trkpt><trkpt lat="42.00117967669289" lon="13.255336437576755"><ele>1250.0</ele><time>2026-04-12T09:53:19.998Z</time></trkpt><trkpt lat="42.001122731295816" lon="13.255442867524081"><ele>1250.0</ele><time>2026-04-12T09:53:20.998Z</time></trkpt><trkpt lat="42.00105273029922" lon="13.255538186029767"><ele>1250.0</ele><time>2026-04-12T09:53:21.998Z</time></trkpt><trkpt lat="42.0009857963112" lon="13.255621430108683"><ele>1250.0</ele><time>2026-04-12T09:53:22.998Z</time></trkpt><trkpt lat="42.000934960151234" lon="13.255703834766285"><ele>1250.0</ele><time>2026-04-12T09:53:23.998Z</time></trkpt><trkpt lat="42.00087197504373" lon="13.25580855410406"><ele>1252.8</ele><time>2026-04-12T09:53:25.998Z</time></trkpt><trkpt lat="42.0008179959642" lon="13.255909169380617"><ele>1255.6</ele><time>2026-04-12T09:53:27.998Z</time></trkpt><trkpt lat="42.00074312287502" lon="13.256081480895594"><ele>1258.4</ele><time>2026-04-12T09:53:29.998Z</time></trkpt><trkpt lat="42.00068941461024" lon="13.256184707737804"><ele>1261.2</ele><time>2026-04-12T09:53:30.998Z</time></trkpt><trkpt lat="42.00064939638661" lon="13.25625581534062"><ele>1264.0</ele><time>2026-04-12T09:53:31.998Z</time></trkpt><trkpt lat="42.000608030260615" lon="13.256334861976184"><ele>1264.0</ele><time>2026-04-12T09:53:32.998Z</time></trkpt><trkpt lat="42.00052930867806" lon="13.256432471343212"><ele>1264.0</ele><time>2026-04-12T09:53:33.998Z</time></trkpt><trkpt lat="42.00049512091714" lon="13.25654926589393"><ele>1264.0</ele><time>2026-04-12T09:53:35.998Z</time></trkpt><trkpt lat="42.000496739796006" lon="13.25663920933643"><ele>1264.0</ele><time>2026-04-12T09:53:38Z</time></trkpt><trkpt lat="42.000468718416165" lon="13.256737831329383"><ele>1264.0</ele><time>2026-04-12T09:53:41Z</time></trkpt><trkpt lat="42.00040613342107" lon="13.256865595949593"><ele>1262.4</ele><time>2026-04-12T09:53:44Z</time></trkpt><trkpt lat="42.000391383186" lon="13.257029585372129"><ele>1260.8000000000002</ele><time>2026-04-12T09:53:46Z</time></trkpt><trkpt lat="42.00037702841229" lon="13.257141754573503"><ele>1259.1999999999998</ele><time>2026-04-12T09:53:47Z</time></trkpt><trkpt lat="42.00033658610686" lon="13.257216887189713"><ele>1257.6</ele><time>2026-04-12T09:53:48Z</time></trkpt><trkpt lat="42.000276710096735" lon="13.257272490921364"><ele>1256.0</ele><time>2026-04-12T09:53:49Z</time></trkpt><trkpt lat="42.00016702375934" lon="13.257311466367131"><ele>1256.0</ele><time>2026-04-12T09:53:51Z</time></trkpt><trkpt lat="42.00008663084792" lon="13.2573477745915"><ele>1256.0</ele><time>2026-04-12T09:53:53Z</time></trkpt><trkpt lat="42.000044315568005" lon="13.25743935639319"><ele>1256.0</ele><time>2026-04-12T09:53:55Z</time></trkpt><trkpt lat="42.00001670162511" lon="13.257563640618143"><ele>1256.0</ele><time>2026-04-12T09:53:57Z</time></trkpt><trkpt lat="41.99999199397049" lon="13.257655315494972"><ele>1256.0</ele><time>2026-04-12T09:53:59Z</time></trkpt><trkpt lat="41.999921443543286" lon="13.257760902491617"><ele>1256.0</ele><time>2026-04-12T09:54:01Z</time></trkpt><trkpt lat="41.9998614793176" lon="13.257799497866232"><ele>1256.0</ele><time>2026-04-12T09:54:02Z</time></trkpt><trkpt lat="41.99980587287644" lon="13.25788813183504"><ele>1256.0</ele><time>2026-04-12T09:54:05Z</time></trkpt><trkpt lat="41.99974128370118" lon="13.257905598148326"><ele>1256.0</ele><time>2026-04-12T09:54:06Z</time></trkpt><trkpt lat="41.99962173806512" lon="13.257991421956406"><ele>1256.0</ele><time>2026-04-12T09:54:08Z</time></trkpt><trkpt lat="41.999564939051695" lon="13.258062144491547"><ele>1256.0</ele><time>2026-04-12T09:54:08.999Z</time></trkpt><trkpt lat="41.99950956305294" lon="13.258148662094529"><ele>1258.6</ele><time>2026-04-12T09:54:09.999Z</time></trkpt><trkpt lat="41.9994662072031" lon="13.258231194489698"><ele>1261.1999999999998</ele><time>2026-04-12T09:54:10.999Z</time></trkpt><trkpt lat="41.99941367734963" lon="13.25833122500454"><ele>1263.8000000000002</ele><time>2026-04-12T09:54:11.999Z</time></trkpt><trkpt lat="41.99934781348469" lon="13.258455784940667"><ele>1266.4</ele><time>2026-04-12T09:54:12.999Z</time></trkpt><trkpt lat="41.99928094058326" lon="13.258555302779053"><ele>1269.0</ele><time>2026-04-12T09:54:13.999Z</time></trkpt><trkpt lat="41.99920506049617" lon="13.258655273846632"><ele>1268.5</ele><time>2026-04-12T09:54:15.999Z</time></trkpt><trkpt lat="41.999160095136176" lon="13.258731605767931"><ele>1268.0</ele><time>2026-04-12T09:54:16.999Z</time></trkpt><trkpt lat="41.99911487731227" lon="13.25879709687429"><ele>1267.5</ele><time>2026-04-12T09:54:17.999Z</time></trkpt><trkpt lat="41.999026120899565" lon="13.2588881001364"><ele>1267.0</ele><time>2026-04-12T09:54:18.999Z</time></trkpt><trkpt lat="41.99893807858937" lon="13.258958375274599"><ele>1266.5</ele><time>2026-04-12T09:54:19.999Z</time></trkpt><trkpt lat="41.998852189227236" lon="13.259013021899522"><ele>1266.0</ele><time>2026-04-12T09:54:20.999Z</time></trkpt><trkpt lat="41.998766829698546" lon="13.259083967341365"><ele>1266.0</ele><time>2026-04-12T09:54:21.999Z</time></trkpt><trkpt lat="41.998685223576146" lon="13.259125695136515"><ele>1266.0</ele><time>2026-04-12T09:54:22.999Z</time></trkpt><trkpt lat="41.9986244909821" lon="13.259168413161838"><ele>1266.0</ele><time>2026-04-12T09:54:23.999Z</time></trkpt><trkpt lat="41.998563896989126" lon="13.259209024438858"><ele>1266.0</ele><time>2026-04-12T09:54:24.999Z</time></trkpt><trkpt lat="41.99847964966195" lon="13.25925431247647"><ele>1266.0</ele><time>2026-04-12T09:54:26.999Z</time></trkpt><trkpt lat="41.99840075687713" lon="13.259281836579405"><ele>1266.0</ele><time>2026-04-12T09:54:28.999Z</time></trkpt><trkpt lat="41.99832493247224" lon="13.259317658517178"><ele>1264.8333333333333</ele><time>2026-04-12T09:54:30.999Z</time></trkpt><trkpt lat="41.99826593876645" lon="13.25935293347594"><ele>1263.6666666666667</ele><time>2026-04-12T09:54:31.999Z</time></trkpt><trkpt lat="41.99820531524732" lon="13.259384298707422"><ele>1262.5</ele><time>2026-04-12T09:54:32.999Z</time></trkpt><trkpt lat="41.99813393490781" lon="13.259413332441419"><ele>1261.3333333333335</ele><time>2026-04-12T09:54:33.999Z</time></trkpt><trkpt lat="41.99804420190746" lon="13.259445313448378"><ele>1260.1666666666667</ele><time>2026-04-12T09:54:34.999Z</time></trkpt><trkpt lat="41.99796977733114" lon="13.259486404084075"><ele>1259.0</ele><time>2026-04-12T09:54:35.999Z</time></trkpt><trkpt lat="41.997890734405274" lon="13.259531163327715"><ele>1259.0</ele><time>2026-04-12T09:54:37.999Z</time></trkpt><trkpt lat="41.9978154539029" lon="13.25951491182634"><ele>1259.0</ele><time>2026-04-12T09:54:39.999Z</time></trkpt><trkpt lat="41.997745821736544" lon="13.259488890002675"><ele>1259.0</ele><time>2026-04-12T09:54:40.999Z</time></trkpt><trkpt lat="41.997658083213885" lon="13.25944988839341"><ele>1259.0</ele><time>2026-04-12T09:54:41.999Z</time></trkpt><trkpt lat="41.99756866653292" lon="13.25945872629974"><ele>1259.0</ele><time>2026-04-12T09:54:42.999Z</time></trkpt><trkpt lat="41.99748722644386" lon="13.25948892387712"><ele>1259.0</ele><time>2026-04-12T09:54:43.999Z</time></trkpt><trkpt lat="41.99741598298716" lon="13.259560269952091"><ele>1261.1666666666667</ele><time>2026-04-12T09:54:44.999Z</time></trkpt><trkpt lat="41.99737085367008" lon="13.259641106043563"><ele>1263.3333333333335</ele><time>2026-04-12T09:54:45.999Z</time></trkpt><trkpt lat="41.99733099609853" lon="13.259755072659804"><ele>1265.5</ele><time>2026-04-12T09:54:46.999Z</time></trkpt><trkpt lat="41.99730448154402" lon="13.259865921811146"><ele>1267.6666666666667</ele><time>2026-04-12T09:54:47.999Z</time></trkpt><trkpt lat="41.99727873160094" lon="13.259975515494865"><ele>1269.8333333333333</ele><time>2026-04-12T09:54:48.999Z</time></trkpt><trkpt lat="41.99725187955305" lon="13.260093957631005"><ele>1272.0</ele><time>2026-04-12T09:54:49.999Z</time></trkpt><trkpt lat="41.99720873150522" lon="13.260205780427642"><ele>1272.0</ele><time>2026-04-12T09:54:50.999Z</time></trkpt><trkpt lat="41.997163727168335" lon="13.260329315879096"><ele>1272.0</ele><time>2026-04-12T09:54:51.999Z</time></trkpt><trkpt lat="41.99712593030907" lon="13.260442233852912"><ele>1272.0</ele><time>2026-04-12T09:54:52.999Z</time></trkpt><trkpt lat="41.99709786320279" lon="13.260536834211736"><ele>1272.0</ele><time>2026-04-12T09:54:53.999Z</time></trkpt><trkpt lat="41.99706200967425" lon="13.260622585401707"><ele>1272.0</ele><time>2026-04-12T09:54:54.999Z</time></trkpt><trkpt lat="41.997007652333664" lon="13.260738223207197"><ele>1272.0</ele><time>2026-04-12T09:54:55.999Z</time></trkpt><trkpt lat="41.99695786067216" lon="13.260848375799897"><ele>1273.6666666666667</ele><time>2026-04-12T09:54:56.999Z</time></trkpt><trkpt lat="41.99690051302508" lon="13.260966937551286"><ele>1275.3333333333333</ele><time>2026-04-12T09:54:57.999Z</time></trkpt><trkpt lat="41.99685449674767" lon="13.26102672005039"><ele>1277.0</ele><time>2026-04-12T09:54:58.999Z</time></trkpt><trkpt lat="41.99678753117526" lon="13.26106972883871"><ele>1278.6666666666665</ele><time>2026-04-12T09:55:00.999Z</time></trkpt><trkpt lat="41.996703527969984" lon="13.26113469124795"><ele>1280.3333333333333</ele><time>2026-04-12T09:55:02.999Z</time></trkpt><trkpt lat="41.99664297287708" lon="13.261185956318961"><ele>1282.0</ele><time>2026-04-12T09:55:04.999Z</time></trkpt><trkpt lat="41.99649742387167" lon="13.261284244214767"><ele>1282.0</ele><time>2026-04-12T09:55:07.999Z</time></trkpt><trkpt lat="41.99639767564115" lon="13.26134180159152"><ele>1282.0</ele><time>2026-04-12T09:55:09.999Z</time></trkpt><trkpt lat="41.99632038489614" lon="13.261396452915527"><ele>1282.0</ele><time>2026-04-12T09:55:11.999Z</time></trkpt><trkpt lat="41.996261910802815" lon="13.261478829404618"><ele>1282.0</ele><time>2026-04-12T09:55:13.999Z</time></trkpt><trkpt lat="41.99621615182055" lon="13.26158101993211"><ele>1282.0</ele><time>2026-04-12T09:55:16.998Z</time></trkpt><trkpt lat="41.996179388137165" lon="13.261655411682415"><ele>1282.0</ele><time>2026-04-12T09:55:18.998Z</time></trkpt><trkpt lat="41.99611450855768" lon="13.26174648784342"><ele>1284.1999999999998</ele><time>2026-04-12T09:55:21.998Z</time></trkpt><trkpt lat="41.9960507995228" lon="13.26186023704671"><ele>1286.4</ele><time>2026-04-12T09:55:24.998Z</time></trkpt><trkpt lat="41.99602853103936" lon="13.261972326291117"><ele>1288.6</ele><time>2026-04-12T09:55:26.998Z</time></trkpt><trkpt lat="41.995968712124665" lon="13.26210824959769"><ele>1290.8000000000002</ele><time>2026-04-12T09:55:28.998Z</time></trkpt><trkpt lat="41.995903969026884" lon="13.262204619074208"><ele>1293.0</ele><time>2026-04-12T09:55:30.998Z</time></trkpt><trkpt lat="41.995855138866446" lon="13.262272027058026"><ele>1291.4</ele><time>2026-04-12T09:55:32.998Z</time></trkpt><trkpt lat="41.995789037812486" lon="13.262388889525479"><ele>1289.8000000000002</ele><time>2026-04-12T09:55:34.998Z</time></trkpt><trkpt lat="41.99574540163715" lon="13.262511322359101"><ele>1288.2</ele><time>2026-04-12T09:55:36.998Z</time></trkpt><trkpt lat="41.99568280392897" lon="13.262622626449389"><ele>1286.6</ele><time>2026-04-12T09:55:38.998Z</time></trkpt><trkpt lat="41.99560992717913" lon="13.262746680467409"><ele>1285.0</ele><time>2026-04-12T09:55:40.998Z</time></trkpt><trkpt lat="41.99555720507906" lon="13.262820287015996"><ele>1285.0</ele><time>2026-04-12T09:55:41.998Z</time></trkpt><trkpt lat="41.99550904333002" lon="13.26288272374692"><ele>1285.0</ele><time>2026-04-12T09:55:42.998Z</time></trkpt><trkpt lat="41.995400156464285" lon="13.263074815295203"><ele>1285.0</ele><time>2026-04-12T09:55:45Z</time></trkpt><trkpt lat="41.99536098389316" lon="13.26315390670962"><ele>1285.0</ele><time>2026-04-12T09:55:46Z</time></trkpt><trkpt lat="41.99531555313634" lon="13.263238144890042"><ele>1285.0</ele><time>2026-04-12T09:55:47Z</time></trkpt><trkpt lat="41.99527641621963" lon="13.263341831555541"><ele>1285.8</ele><time>2026-04-12T09:55:48Z</time></trkpt><trkpt lat="41.99523157480851" lon="13.263463524918652"><ele>1286.6</ele><time>2026-04-12T09:55:49Z</time></trkpt><trkpt lat="41.99518868165935" lon="13.263549375029962"><ele>1287.4</ele><time>2026-04-12T09:55:50Z</time></trkpt><trkpt lat="41.995131391165145" lon="13.263638594028333"><ele>1288.2</ele><time>2026-04-12T09:55:51Z</time></trkpt><trkpt lat="41.99506506652234" lon="13.263736214662416"><ele>1289.0</ele><time>2026-04-12T09:55:52Z</time></trkpt><trkpt lat="41.994992784918956" lon="13.263813367704083"><ele>1287.4</ele><time>2026-04-12T09:55:53Z</time></trkpt><trkpt lat="41.994917583671715" lon="13.263880538476437"><ele>1285.8000000000002</ele><time>2026-04-12T09:55:54Z</time></trkpt><trkpt lat="41.99482811345026" lon="13.26394253048198"><ele>1284.1999999999998</ele><time>2026-04-12T09:55:55Z</time></trkpt><trkpt lat="41.99474706110508" lon="13.264001383767644"><ele>1282.6</ele><time>2026-04-12T09:55:56Z</time></trkpt><trkpt lat="41.99466582909485" lon="13.264080899958854"><ele>1281.0</ele><time>2026-04-12T09:55:57Z</time></trkpt><trkpt lat="41.99457991701185" lon="13.264174931907581"><ele>1281.0</ele><time>2026-04-12T09:55:58Z</time></trkpt><trkpt lat="41.994516183981325" lon="13.264274653919365"><ele>1281.0</ele><time>2026-04-12T09:55:59Z</time></trkpt><trkpt lat="41.99445802603325" lon="13.264376991311543"><ele>1281.0</ele><time>2026-04-12T09:56:00Z</time></trkpt><trkpt lat="41.99440859334107" lon="13.2644317676143"><ele>1281.0</ele><time>2026-04-12T09:56:01Z</time></trkpt><trkpt lat="41.99434115467702" lon="13.264543386845174"><ele>1281.0</ele><time>2026-04-12T09:56:03Z</time></trkpt><trkpt lat="41.99430115645899" lon="13.264671675275839"><ele>1280.8</ele><time>2026-04-12T09:56:05Z</time></trkpt><trkpt lat="41.99423145667161" lon="13.264823855317774"><ele>1280.6</ele><time>2026-04-12T09:56:07Z</time></trkpt><trkpt lat="41.994168908458626" lon="13.264905589715486"><ele>1280.4</ele><time>2026-04-12T09:56:08Z</time></trkpt><trkpt lat="41.99409128757084" lon="13.264984063685505"><ele>1280.2</ele><time>2026-04-12T09:56:09Z</time></trkpt><trkpt lat="41.994002313568686" lon="13.265058648052328"><ele>1280.0</ele><time>2026-04-12T09:56:10Z</time></trkpt><trkpt lat="41.9939057491793" lon="13.265147830541562"><ele>1280.0</ele><time>2026-04-12T09:56:10.999Z</time></trkpt><trkpt lat="41.99380964934916" lon="13.265250215283103"><ele>1280.0</ele><time>2026-04-12T09:56:11.999Z</time></trkpt><trkpt lat="41.99369799745176" lon="13.265337846118703"><ele>1280.0</ele><time>2026-04-12T09:56:12.999Z</time></trkpt><trkpt lat="41.99360457486095" lon="13.26542884444604"><ele>1280.0</ele><time>2026-04-12T09:56:13.999Z</time></trkpt><trkpt lat="41.993516522125816" lon="13.265510959538567"><ele>1281.75</ele><time>2026-04-12T09:56:14.999Z</time></trkpt><trkpt lat="41.99342292902621" lon="13.265613471441913"><ele>1283.5</ele><time>2026-04-12T09:56:15.999Z</time></trkpt><trkpt lat="41.99331703578848" lon="13.265710903853229"><ele>1285.25</ele><time>2026-04-12T09:56:16.999Z</time></trkpt><trkpt lat="41.993217370890434" lon="13.265818047071265"><ele>1287.0</ele><time>2026-04-12T09:56:17.999Z</time></trkpt><trkpt lat="41.993117085174624" lon="13.265915337470632"><ele>1288.0</ele><time>2026-04-12T09:56:18.999Z</time></trkpt><trkpt lat="41.99300621678185" lon="13.266017717316627"><ele>1289.0</ele><time>2026-04-12T09:56:19.999Z</time></trkpt><trkpt lat="41.99289609799347" lon="13.266114675451036"><ele>1290.0</ele><time>2026-04-12T09:56:20.999Z</time></trkpt><trkpt lat="41.992791602351254" lon="13.266195252217313"><ele>1291.0</ele><time>2026-04-12T09:56:21.999Z</time></trkpt><trkpt lat="41.99268411453226" lon="13.266278777701606"><ele>1291.0</ele><time>2026-04-12T09:56:22.999Z</time></trkpt><trkpt lat="41.99258509772876" lon="13.266371172802705"><ele>1291.0</ele><time>2026-04-12T09:56:23.999Z</time></trkpt><trkpt lat="41.992477527100704" lon="13.266458506965606"><ele>1291.0</ele><time>2026-04-12T09:56:24.999Z</time></trkpt><trkpt lat="41.99238102798464" lon="13.266542231739814"><ele>1291.0</ele><time>2026-04-12T09:56:25.999Z</time></trkpt><trkpt lat="41.992314191440634" lon="13.266624854981805"><ele>1291.75</ele><time>2026-04-12T09:56:26.999Z</time></trkpt><trkpt lat="41.99223400341941" lon="13.266708823503464"><ele>1292.5</ele><time>2026-04-12T09:56:27.999Z</time></trkpt><trkpt lat="41.99212936016191" lon="13.266786513302925"><ele>1293.25</ele><time>2026-04-12T09:56:28.999Z</time></trkpt><trkpt lat="41.99202261548073" lon="13.266859902110536"><ele>1294.0</ele><time>2026-04-12T09:56:29.999Z</time></trkpt><trkpt lat="41.99192019176742" lon="13.266932702393657"><ele>1294.0</ele><time>2026-04-12T09:56:30.999Z</time></trkpt><trkpt lat="41.99181585759937" lon="13.267018143326434"><ele>1294.0</ele><time>2026-04-12T09:56:31.999Z</time></trkpt><trkpt lat="41.99170999417162" lon="13.267091524781161"><ele>1294.0</ele><time>2026-04-12T09:56:32.999Z</time></trkpt><trkpt lat="41.991604039313685" lon="13.267167031175742"><ele>1294.0</ele><time>2026-04-12T09:56:33.999Z</time></trkpt><trkpt lat="41.991514502328144" lon="13.267234175551081"><ele>1295.3333333333333</ele><time>2026-04-12T09:56:34.999Z</time></trkpt><trkpt lat="41.99143270592302" lon="13.267301972095623"><ele>1296.6666666666665</ele><time>2026-04-12T09:56:35.999Z</time></trkpt><trkpt lat="41.99134369971176" lon="13.267385937608111"><ele>1298.0</ele><time>2026-04-12T09:56:36.999Z</time></trkpt><trkpt lat="41.991281014832076" lon="13.267433871810077"><ele>1299.3333333333333</ele><time>2026-04-12T09:56:37.999Z</time></trkpt><trkpt lat="41.99121591986961" lon="13.267490799472467"><ele>1300.6666666666667</ele><time>2026-04-12T09:56:38.999Z</time></trkpt><trkpt lat="41.991154017098935" lon="13.267570668173803"><ele>1302.0</ele><time>2026-04-12T09:56:39.999Z</time></trkpt><trkpt lat="41.991070659252316" lon="13.267660781160128"><ele>1302.0</ele><time>2026-04-12T09:56:40.999Z</time></trkpt><trkpt lat="41.991008569923224" lon="13.267758399182616"><ele>1302.0</ele><time>2026-04-12T09:56:41.999Z</time></trkpt><trkpt lat="41.990945770821746" lon="13.267834302074213"><ele>1302.0</ele><time>2026-04-12T09:56:42.999Z</time></trkpt><trkpt lat="41.990899837340045" lon="13.26790888234777"><ele>1302.0</ele><time>2026-04-12T09:56:43.999Z</time></trkpt><trkpt lat="41.99084260607883" lon="13.267959521888692"><ele>1302.0</ele><time>2026-04-12T09:56:44.999Z</time></trkpt><trkpt lat="41.99078719817253" lon="13.268000365756103"><ele>1302.0</ele><time>2026-04-12T09:56:45.999Z</time></trkpt><trkpt lat="41.99070654645199" lon="13.268044198143343"><ele>1304.6</ele><time>2026-04-12T09:56:46.999Z</time></trkpt><trkpt lat="41.99061999195644" lon="13.268060564395878"><ele>1307.1999999999998</ele><time>2026-04-12T09:56:47.999Z</time></trkpt><trkpt lat="41.99053161076781" lon="13.268057118837685"><ele>1309.8</ele><time>2026-04-12T09:56:48.999Z</time></trkpt><trkpt lat="41.99042341067051" lon="13.268056866278531"><ele>1312.4</ele><time>2026-04-12T09:56:49.999Z</time></trkpt><trkpt lat="41.990314573810785" lon="13.268058128792758"><ele>1315.0</ele><time>2026-04-12T09:56:50.999Z</time></trkpt><trkpt lat="41.99023373489253" lon="13.26805966675773"><ele>1315.0</ele><time>2026-04-12T09:56:51.999Z</time></trkpt><trkpt lat="41.99010411102527" lon="13.26802889542743"><ele>1315.0</ele><time>2026-04-12T09:56:53.999Z</time></trkpt><trkpt lat="41.99002815072048" lon="13.267991261238269"><ele>1315.0</ele><time>2026-04-12T09:56:54.999Z</time></trkpt><trkpt lat="41.989966559334455" lon="13.267964937276503"><ele>1315.0</ele><time>2026-04-12T09:56:55.999Z</time></trkpt><trkpt lat="41.98986910901221" lon="13.26796119990873"><ele>1315.0</ele><time>2026-04-12T09:56:58.999Z</time></trkpt><trkpt lat="41.989837048074726" lon="13.268097575461505"><ele>1318.4</ele><time>2026-04-12T09:57:00.999Z</time></trkpt><trkpt lat="41.989764218741975" lon="13.268205165158452"><ele>1321.8</ele><time>2026-04-12T09:57:02.999Z</time></trkpt><trkpt lat="41.989686784407205" lon="13.268300475946269"><ele>1325.1999999999998</ele><time>2026-04-12T09:57:03.999Z</time></trkpt><trkpt lat="41.98963165631489" lon="13.268356935670564"><ele>1328.6</ele><time>2026-04-12T09:57:04.999Z</time></trkpt><trkpt lat="41.98958840411866" lon="13.268447145297424"><ele>1332.0</ele><time>2026-04-12T09:57:06.999Z</time></trkpt><trkpt lat="41.9895027182024" lon="13.268422274725559"><ele>1332.0</ele><time>2026-04-12T09:57:08.999Z</time></trkpt><trkpt lat="41.989397627561395" lon="13.268484891326986"><ele>1332.0</ele><time>2026-04-12T09:57:10.999Z</time></trkpt><trkpt lat="41.98933237231424" lon="13.268606994824292"><ele>1332.0</ele><time>2026-04-12T09:57:12.999Z</time></trkpt><trkpt lat="41.98927349017545" lon="13.268712281279733"><ele>1332.0</ele><time>2026-04-12T09:57:14.999Z</time></trkpt><trkpt lat="41.98920699320602" lon="13.268832769024097"><ele>1332.0</ele><time>2026-04-12T09:57:16.999Z</time></trkpt><trkpt lat="41.98916251311707" lon="13.268919997668"><ele>1335.3333333333333</ele><time>2026-04-12T09:57:17.999Z</time></trkpt><trkpt lat="41.9890744871106" lon="13.26904645667607"><ele>1338.6666666666667</ele><time>2026-04-12T09:57:19.998Z</time></trkpt><trkpt lat="41.989018708063156" lon="13.26910415600377"><ele>1342.0</ele><time>2026-04-12T09:57:20.998Z</time></trkpt><trkpt lat="41.98896407243987" lon="13.2691642865553"><ele>1345.3333333333335</ele><time>2026-04-12T09:57:21.998Z</time></trkpt><trkpt lat="41.98891013479262" lon="13.269233917226694"><ele>1348.6666666666667</ele><time>2026-04-12T09:57:22.998Z</time></trkpt><trkpt lat="41.98885994839212" lon="13.269321984601255"><ele>1352.0</ele><time>2026-04-12T09:57:23.998Z</time></trkpt><trkpt lat="41.98877684793161" lon="13.26940410740627"><ele>1352.0</ele><time>2026-04-12T09:57:25.998Z</time></trkpt><trkpt lat="41.98872999104073" lon="13.269470116176672"><ele>1352.0</ele><time>2026-04-12T09:57:26.998Z</time></trkpt><trkpt lat="41.988669296054226" lon="13.269502620785596"><ele>1352.0</ele><time>2026-04-12T09:57:29.998Z</time></trkpt><trkpt lat="41.98860597538302" lon="13.2695308830004"><ele>1352.0</ele><time>2026-04-12T09:57:32.998Z</time></trkpt><trkpt lat="41.988534014932576" lon="13.269486439644353"><ele>1352.0</ele><time>2026-04-12T09:57:35.998Z</time></trkpt><trkpt lat="41.98850757847441" lon="13.269352154473186"><ele>1352.0</ele><time>2026-04-12T09:57:38.998Z</time></trkpt><trkpt lat="41.988468775463915" lon="13.269270357070226"><ele>1352.0</ele><time>2026-04-12T09:57:40.998Z</time></trkpt><trkpt lat="41.988432625955284" lon="13.269177854939642"><ele>1352.0</ele><time>2026-04-12T09:57:42.998Z</time></trkpt><trkpt lat="41.988384358641426" lon="13.269100011415333"><ele>1352.0</ele><time>2026-04-12T09:57:44.998Z</time></trkpt><trkpt lat="41.988301414024825" lon="13.269131855937982"><ele>1352.0</ele><time>2026-04-12T09:57:47.998Z</time></trkpt><trkpt lat="41.98825089266918" lon="13.269247388262142"><ele>1352.0</ele><time>2026-04-12T09:57:51Z</time></trkpt><trkpt lat="41.98822328672765" lon="13.26932654207052"><ele>1352.0</ele><time>2026-04-12T09:57:53Z</time></trkpt><trkpt lat="41.9880962234835" lon="13.269367558790728"><ele>1356.5</ele><time>2026-04-12T09:57:55Z</time></trkpt><trkpt lat="41.98798589868444" lon="13.26935373089374"><ele>1361.0</ele><time>2026-04-12T09:57:57Z</time></trkpt><trkpt lat="41.987892801531224" lon="13.269336429266689"><ele>1365.5</ele><time>2026-04-12T09:57:59Z</time></trkpt><trkpt lat="41.98780404037336" lon="13.269366423344188"><ele>1370.0</ele><time>2026-04-12T09:58:01Z</time></trkpt><trkpt lat="41.98774038254308" lon="13.269368636261486"><ele>1374.5</ele><time>2026-04-12T09:58:08Z</time></trkpt><trkpt lat="41.98773374619539" lon="13.269481462028983"><ele>1379.0</ele><time>2026-04-12T09:58:17Z</time></trkpt><trkpt lat="41.987743189015454" lon="13.2695743413406"><ele>1379.0</ele><time>2026-04-12T09:58:18Z</time></trkpt><trkpt lat="41.98775237655895" lon="13.269695737054755"><ele>1379.0</ele><time>2026-04-12T09:58:18.999Z</time></trkpt><trkpt lat="41.987753354836215" lon="13.269788846116604"><ele>1379.0</ele><time>2026-04-12T09:58:19.999Z</time></trkpt><trkpt lat="41.9877614128078" lon="13.269952532203156"><ele>1379.0</ele><time>2026-04-12T09:58:21.999Z</time></trkpt><trkpt lat="41.9876935860022" lon="13.270052555904616"><ele>1379.0</ele><time>2026-04-12T09:58:23.999Z</time></trkpt><trkpt lat="41.98758775214046" lon="13.270031791354828"><ele>1381.5</ele><time>2026-04-12T09:58:25.999Z</time></trkpt><trkpt lat="41.9875092552777" lon="13.270021430831957"><ele>1384.0</ele><time>2026-04-12T09:58:26.999Z</time></trkpt><trkpt lat="41.9874396984528" lon="13.27002762773461"><ele>1386.5</ele><time>2026-04-12T09:58:27.999Z</time></trkpt><trkpt lat="41.987331797533415" lon="13.270088109515177"><ele>1389.0</ele><time>2026-04-12T09:58:29.999Z</time></trkpt><trkpt lat="41.98729573417171" lon="13.27019799825119"><ele>1391.5</ele><time>2026-04-12T09:58:30.999Z</time></trkpt><trkpt lat="41.98728404514052" lon="13.270297646151564"><ele>1394.0</ele><time>2026-04-12T09:58:31.999Z</time></trkpt><trkpt lat="41.987269974128125" lon="13.270387323625743"><ele>1394.0</ele><time>2026-04-12T09:58:32.999Z</time></trkpt><trkpt lat="41.987254938938555" lon="13.270491271902072"><ele>1394.0</ele><time>2026-04-12T09:58:33.999Z</time></trkpt><trkpt lat="41.98724213379941" lon="13.27058060052061"><ele>1394.0</ele><time>2026-04-12T09:58:34.999Z</time></trkpt><trkpt lat="41.98723068627867" lon="13.2706910222946"><ele>1394.0</ele><time>2026-04-12T09:58:35.999Z</time></trkpt><trkpt lat="41.987218456214606" lon="13.27081827472049"><ele>1394.0</ele><time>2026-04-12T09:58:36.999Z</time></trkpt><trkpt lat="41.98720399238737" lon="13.270935754689665"><ele>1394.0</ele><time>2026-04-12T09:58:37.999Z</time></trkpt><trkpt lat="41.987175464200284" lon="13.271048451715469"><ele>1395.6</ele><time>2026-04-12T09:58:38.999Z</time></trkpt><trkpt lat="41.98713348152379" lon="13.271141664921702"><ele>1397.2</ele><time>2026-04-12T09:58:39.999Z</time></trkpt><trkpt lat="41.98708079944505" lon="13.271222988690806"><ele>1398.8</ele><time>2026-04-12T09:58:40.999Z</time></trkpt><trkpt lat="41.98701043609263" lon="13.271326830887634"><ele>1400.3999999999999</ele><time>2026-04-12T09:58:41.999Z</time></trkpt><trkpt lat="41.98692309118414" lon="13.271428975406804"><ele>1402.0</ele><time>2026-04-12T09:58:42.999Z</time></trkpt><trkpt lat="41.9868319734098" lon="13.271528112346077"><ele>1404.0</ele><time>2026-04-12T09:58:43.999Z</time></trkpt><trkpt lat="41.98674342558294" lon="13.271625433573066"><ele>1406.0</ele><time>2026-04-12T09:58:44.999Z</time></trkpt><trkpt lat="41.986662010706866" lon="13.271714915014348"><ele>1408.0</ele><time>2026-04-12T09:58:45.999Z</time></trkpt><trkpt lat="41.98658827853112" lon="13.271795485394467"><ele>1410.0</ele><time>2026-04-12T09:58:46.999Z</time></trkpt><trkpt lat="41.98651421071269" lon="13.271871870107343"><ele>1412.0</ele><time>2026-04-12T09:58:47.999Z</time></trkpt><trkpt lat="41.986439636423775" lon="13.271964098508493"><ele>1412.1999999999998</ele><time>2026-04-12T09:58:48.999Z</time></trkpt><trkpt lat="41.986380362545574" lon="13.272071945041187"><ele>1412.4</ele><time>2026-04-12T09:58:49.999Z</time></trkpt><trkpt lat="41.986290925365154" lon="13.272151109956473"><ele>1412.6</ele><time>2026-04-12T09:58:50.999Z</time></trkpt><trkpt lat="41.986180470019356" lon="13.272199779925321"><ele>1412.8000000000002</ele><time>2026-04-12T09:58:51.999Z</time></trkpt><trkpt lat="41.98609843994317" lon="13.272270851940998"><ele>1413.0</ele><time>2026-04-12T09:58:52.999Z</time></trkpt><trkpt lat="41.98603678428267" lon="13.27235643416552"><ele>1413.4</ele><time>2026-04-12T09:58:53.999Z</time></trkpt><trkpt lat="41.98597087093736" lon="13.272412364635533"><ele>1413.8000000000002</ele><time>2026-04-12T09:58:54.999Z</time></trkpt><trkpt lat="41.985896162173404" lon="13.272485414657908"><ele>1414.2</ele><time>2026-04-12T09:58:55.999Z</time></trkpt><trkpt lat="41.985799100329004" lon="13.272559209306761"><ele>1414.6</ele><time>2026-04-12T09:58:56.999Z</time></trkpt><trkpt lat="41.98571077758701" lon="13.272637665394717"><ele>1415.0</ele><time>2026-04-12T09:58:57.999Z</time></trkpt><trkpt lat="41.98563531558601" lon="13.272701693996613"><ele>1413.8</ele><time>2026-04-12T09:58:58.999Z</time></trkpt><trkpt lat="41.98554682729685" lon="13.27275944141315"><ele>1412.6</ele><time>2026-04-12T09:58:59.999Z</time></trkpt><trkpt lat="41.98546328677934" lon="13.27283249970305"><ele>1411.4</ele><time>2026-04-12T09:59:00.999Z</time></trkpt><trkpt lat="41.985376518199885" lon="13.272912770099111"><ele>1410.2</ele><time>2026-04-12T09:59:01.999Z</time></trkpt><trkpt lat="41.98531854438173" lon="13.272986435119087"><ele>1409.0</ele><time>2026-04-12T09:59:02.999Z</time></trkpt><trkpt lat="41.98526547649551" lon="13.273040924862329"><ele>1412.4</ele><time>2026-04-12T09:59:03.999Z</time></trkpt><trkpt lat="41.98520519040816" lon="13.273120663189653"><ele>1415.8000000000002</ele><time>2026-04-12T09:59:04.999Z</time></trkpt><trkpt lat="41.9851571479829" lon="13.273225550363387"><ele>1419.1999999999998</ele><time>2026-04-12T09:59:05.999Z</time></trkpt><trkpt lat="41.985129813857895" lon="13.273358461156796"><ele>1422.6</ele><time>2026-04-12T09:59:06.999Z</time></trkpt><trkpt lat="41.98510416103614" lon="13.273495684654883"><ele>1426.0</ele><time>2026-04-12T09:59:07.999Z</time></trkpt><trkpt lat="41.985104668699165" lon="13.27359960127526"><ele>1426.0</ele><time>2026-04-12T09:59:08.999Z</time></trkpt><trkpt lat="41.985077496693656" lon="13.273681489966519"><ele>1426.0</ele><time>2026-04-12T09:59:09.999Z</time></trkpt><trkpt lat="41.98507378805076" lon="13.27377522935422"><ele>1426.0</ele><time>2026-04-12T09:59:10.999Z</time></trkpt><trkpt lat="41.984966052950796" lon="13.273870443278978"><ele>1426.0</ele><time>2026-04-12T09:59:11.999Z</time></trkpt><trkpt lat="41.98487392861981" lon="13.273939909997559"><ele>1426.0</ele><time>2026-04-12T09:59:12.999Z</time></trkpt><trkpt lat="41.98480357376477" lon="13.27400683763547"><ele>1425.0</ele><time>2026-04-12T09:59:13.999Z</time></trkpt><trkpt lat="41.98474201416898" lon="13.274061600165071"><ele>1424.0</ele><time>2026-04-12T09:59:14.999Z</time></trkpt><trkpt lat="41.9846406683074" lon="13.274144258410704"><ele>1423.0</ele><time>2026-04-12T09:59:16.999Z</time></trkpt><trkpt lat="41.984559739856984" lon="13.27420839891404"><ele>1422.0</ele><time>2026-04-12T09:59:18.999Z</time></trkpt><trkpt lat="41.984494297094706" lon="13.274259798579093"><ele>1421.0</ele><time>2026-04-12T09:59:20.999Z</time></trkpt><trkpt lat="41.98441436659018" lon="13.27432064774728"><ele>1421.0</ele><time>2026-04-12T09:59:22.999Z</time></trkpt><trkpt lat="41.98434377538339" lon="13.274373215242885"><ele>1421.0</ele><time>2026-04-12T09:59:24.999Z</time></trkpt><trkpt lat="41.984223186472" lon="13.274446228073579"><ele>1421.0</ele><time>2026-04-12T09:59:26.999Z</time></trkpt><trkpt lat="41.98414383864629" lon="13.274508621316567"><ele>1421.0</ele><time>2026-04-12T09:59:27.998Z</time></trkpt><trkpt lat="41.98408058039466" lon="13.274560915959501"><ele>1421.0</ele><time>2026-04-12T09:59:28.998Z</time></trkpt><trkpt lat="41.984017852996516" lon="13.274615949322687"><ele>1421.1999999999998</ele><time>2026-04-12T09:59:29.998Z</time></trkpt><trkpt lat="41.983945773201974" lon="13.274681067382849"><ele>1421.3999999999999</ele><time>2026-04-12T09:59:30.998Z</time></trkpt><trkpt lat="41.98387804295248" lon="13.274740426913555"><ele>1421.6</ele><time>2026-04-12T09:59:31.998Z</time></trkpt><trkpt lat="41.983805321640816" lon="13.274797154531651"><ele>1421.8</ele><time>2026-04-12T09:59:32.998Z</time></trkpt><trkpt lat="41.98371634118176" lon="13.274865635351352"><ele>1422.0</ele><time>2026-04-12T09:59:33.998Z</time></trkpt><trkpt lat="41.98360558868616" lon="13.274944505910193"><ele>1422.0</ele><time>2026-04-12T09:59:34.998Z</time></trkpt><trkpt lat="41.98349706035166" lon="13.27502606122323"><ele>1422.0</ele><time>2026-04-12T09:59:35.998Z</time></trkpt><trkpt lat="41.98340150116158" lon="13.27511456314723"><ele>1422.0</ele><time>2026-04-12T09:59:36.998Z</time></trkpt><trkpt lat="41.983302868441186" lon="13.275210145036132"><ele>1422.0</ele><time>2026-04-12T09:59:37.998Z</time></trkpt><trkpt lat="41.98319629599412" lon="13.275310189672412"><ele>1421.25</ele><time>2026-04-12T09:59:38.998Z</time></trkpt><trkpt lat="41.98307969015245" lon="13.275410932856435"><ele>1420.5</ele><time>2026-04-12T09:59:39.998Z</time></trkpt><trkpt lat="41.98297446193815" lon="13.27549712062649"><ele>1419.75</ele><time>2026-04-12T09:59:40.998Z</time></trkpt><trkpt lat="41.98288068454359" lon="13.275572695008826"><ele>1419.0</ele><time>2026-04-12T09:59:41.998Z</time></trkpt><trkpt lat="41.98278712509229" lon="13.2756619899661"><ele>1419.0</ele><time>2026-04-12T09:59:42.998Z</time></trkpt><trkpt lat="41.98268962895086" lon="13.275760560365548"><ele>1419.0</ele><time>2026-04-12T09:59:43.998Z</time></trkpt><trkpt lat="41.98259583251103" lon="13.27585610768813"><ele>1419.0</ele><time>2026-04-12T09:59:44.998Z</time></trkpt><trkpt lat="41.98251078863394" lon="13.27594245543648"><ele>1419.0</ele><time>2026-04-12T09:59:45.998Z</time></trkpt><trkpt lat="41.98243311274769" lon="13.276013999032585"><ele>1419.0</ele><time>2026-04-12T09:59:46.998Z</time></trkpt><trkpt lat="41.982363588538476" lon="13.276084721377284"><ele>1417.6666666666667</ele><time>2026-04-12T09:59:47.998Z</time></trkpt><trkpt lat="41.982298524968975" lon="13.276156334510159"><ele>1416.3333333333333</ele><time>2026-04-12T09:59:48.998Z</time></trkpt><trkpt lat="41.9822427300061" lon="13.276224556309595"><ele>1415.0</ele><time>2026-04-12T09:59:49.998Z</time></trkpt><trkpt lat="41.98218977049661" lon="13.276278668251884"><ele>1413.6666666666665</ele><time>2026-04-12T09:59:50.998Z</time></trkpt><trkpt lat="41.98213508988314" lon="13.276320858499874"><ele>1412.3333333333333</ele><time>2026-04-12T09:59:51.998Z</time></trkpt><trkpt lat="41.98205085773292" lon="13.27637137375374"><ele>1411.0</ele><time>2026-04-12T09:59:53.998Z</time></trkpt><trkpt lat="41.98194812258635" lon="13.27626733383373"><ele>1411.0</ele><time>2026-04-12T09:59:54.998Z</time></trkpt><trkpt lat="41.981873662960545" lon="13.276203179212194"><ele>1411.0</ele><time>2026-04-12T09:59:56Z</time></trkpt><trkpt lat="41.9817906605193" lon="13.276134731527067"><ele>1411.0</ele><time>2026-04-12T09:59:57Z</time></trkpt><trkpt lat="41.98171543835761" lon="13.276081125510725"><ele>1411.0</ele><time>2026-04-12T09:59:58Z</time></trkpt><trkpt lat="41.98163656823014" lon="13.276024581495138"><ele>1411.0</ele><time>2026-04-12T09:59:59Z</time></trkpt><trkpt lat="41.98154766862532" lon="13.275951166235618"><ele>1410.4</ele><time>2026-04-12T10:00:00Z</time></trkpt><trkpt lat="41.98145891891472" lon="13.275874685428475"><ele>1409.8</ele><time>2026-04-12T10:00:01Z</time></trkpt><trkpt lat="41.98138564882574" lon="13.275808670293914"><ele>1409.2</ele><time>2026-04-12T10:00:02Z</time></trkpt><trkpt lat="41.9813169879936" lon="13.275722011494807"><ele>1408.6000000000001</ele><time>2026-04-12T10:00:03Z</time></trkpt><trkpt lat="41.98126527832317" lon="13.27560876837247"><ele>1408.0</ele><time>2026-04-12T10:00:04Z</time></trkpt><trkpt lat="41.98121702815147" lon="13.275484422957678"><ele>1408.0</ele><time>2026-04-12T10:00:05Z</time></trkpt><trkpt lat="41.98117662076124" lon="13.275390164794041"><ele>1408.0</ele><time>2026-04-12T10:00:06Z</time></trkpt><trkpt lat="41.981144951411785" lon="13.275310269004754"><ele>1408.0</ele><time>2026-04-12T10:00:07Z</time></trkpt><trkpt lat="41.98110300331706" lon="13.275228530602206"><ele>1408.0</ele><time>2026-04-12T10:00:08Z</time></trkpt><trkpt lat="41.98105546355399" lon="13.275141310946038"><ele>1408.0</ele><time>2026-04-12T10:00:09Z</time></trkpt><trkpt lat="41.98101015203604" lon="13.27504792802398"><ele>1408.0</ele><time>2026-04-12T10:00:10Z</time></trkpt><trkpt lat="41.98096941142966" lon="13.274949134671138"><ele>1408.0</ele><time>2026-04-12T10:00:11Z</time></trkpt><trkpt lat="41.98092523070576" lon="13.274845721821034"><ele>1408.0</ele><time>2026-04-12T10:00:12Z</time></trkpt><trkpt lat="41.9808820023229" lon="13.27474518230416"><ele>1408.0</ele><time>2026-04-12T10:00:13Z</time></trkpt><trkpt lat="41.98082942046272" lon="13.274625712400564"><ele>1408.0</ele><time>2026-04-12T10:00:15Z</time></trkpt><trkpt lat="41.980802005746746" lon="13.274527039229293"><ele>1408.0</ele><time>2026-04-12T10:00:17Z</time></trkpt><trkpt lat="41.98078477449992" lon="13.274415002226727"><ele>1408.0</ele><time>2026-04-12T10:00:19Z</time></trkpt><trkpt lat="41.98078420670354" lon="13.274256375883217"><ele>1407.6666666666665</ele><time>2026-04-12T10:00:21Z</time></trkpt><trkpt lat="41.98082060592675" lon="13.274125339951318"><ele>1407.3333333333333</ele><time>2026-04-12T10:00:23Z</time></trkpt><trkpt lat="41.98088728645129" lon="13.274037953424527"><ele>1407.0</ele><time>2026-04-12T10:00:25Z</time></trkpt><trkpt lat="41.98095530989258" lon="13.273986745822844"><ele>1406.6666666666667</ele><time>2026-04-12T10:00:26.999Z</time></trkpt><trkpt lat="41.98103158819518" lon="13.273940899599232"><ele>1406.3333333333335</ele><time>2026-04-12T10:00:30.999Z</time></trkpt><trkpt lat="41.981099172003596" lon="13.27391164833357"><ele>1406.0</ele><time>2026-04-12T10:00:32.999Z</time></trkpt><trkpt lat="41.9811691697151" lon="13.273889040296492"><ele>1407.6</ele><time>2026-04-12T10:00:34.999Z</time></trkpt><trkpt lat="41.98129184316524" lon="13.273831882446165"><ele>1409.1999999999998</ele><time>2026-04-12T10:00:36.999Z</time></trkpt><trkpt lat="41.981365901050864" lon="13.273796658091673"><ele>1410.8000000000002</ele><time>2026-04-12T10:00:37.999Z</time></trkpt><trkpt lat="41.98144706740489" lon="13.273779425472526"><ele>1412.4</ele><time>2026-04-12T10:00:38.999Z</time></trkpt><trkpt lat="41.981533769439615" lon="13.273780878989728"><ele>1414.0</ele><time>2026-04-12T10:00:39.999Z</time></trkpt><trkpt lat="41.98161277153507" lon="13.273802686006169"><ele>1414.3333333333333</ele><time>2026-04-12T10:00:40.999Z</time></trkpt><trkpt lat="41.981683804406295" lon="13.273824885499716"><ele>1414.6666666666665</ele><time>2026-04-12T10:00:41.999Z</time></trkpt><trkpt lat="41.98176075363331" lon="13.27383775148446"><ele>1415.0</ele><time>2026-04-12T10:00:42.999Z</time></trkpt><trkpt lat="41.981838572914306" lon="13.273829951786889"><ele>1415.3333333333333</ele><time>2026-04-12T10:00:43.999Z</time></trkpt><trkpt lat="41.981926155766885" lon="13.273810953460313"><ele>1415.6666666666667</ele><time>2026-04-12T10:00:44.999Z</time></trkpt><trkpt lat="41.98201356805873" lon="13.273797062917769"><ele>1416.0</ele><time>2026-04-12T10:00:45.999Z</time></trkpt><trkpt lat="41.98210556171441" lon="13.273779371747922"><ele>1416.0</ele><time>2026-04-12T10:00:46.999Z</time></trkpt><trkpt lat="41.982171485981354" lon="13.27375962551274"><ele>1416.0</ele><time>2026-04-12T10:00:47.999Z</time></trkpt><trkpt lat="41.9822538176813" lon="13.273739437644434"><ele>1416.0</ele><time>2026-04-12T10:00:49.999Z</time></trkpt><trkpt lat="41.98235495682319" lon="13.273726945671251"><ele>1416.0</ele><time>2026-04-12T10:00:51.999Z</time></trkpt><trkpt lat="41.98242864362355" lon="13.273719993879167"><ele>1416.0</ele><time>2026-04-12T10:00:52.999Z</time></trkpt><trkpt lat="41.98251463953958" lon="13.273717768254294"><ele>1416.0</ele><time>2026-04-12T10:00:53.999Z</time></trkpt><trkpt lat="41.98262112110252" lon="13.27372421495463"><ele>1415.8</ele><time>2026-04-12T10:00:54.999Z</time></trkpt><trkpt lat="41.98273964285595" lon="13.273735011376086"><ele>1415.6</ele><time>2026-04-12T10:00:55.999Z</time></trkpt><trkpt lat="41.98284526358546" lon="13.273750019459209"><ele>1415.4</ele><time>2026-04-12T10:00:56.999Z</time></trkpt><trkpt lat="41.98293318349056" lon="13.273768409527854"><ele>1415.2</ele><time>2026-04-12T10:00:57.999Z</time></trkpt><trkpt lat="41.98301513454243" lon="13.273798272798697"><ele>1415.0</ele><time>2026-04-12T10:00:58.999Z</time></trkpt><trkpt lat="41.98308412914468" lon="13.273843467908817"><ele>1415.0</ele><time>2026-04-12T10:00:59.999Z</time></trkpt><trkpt lat="41.98315432053787" lon="13.27389467711204"><ele>1415.0</ele><time>2026-04-12T10:01:00.999Z</time></trkpt><trkpt lat="41.983219265597135" lon="13.273955994742275"><ele>1415.0</ele><time>2026-04-12T10:01:01.999Z</time></trkpt><trkpt lat="41.98327934166156" lon="13.274037640049597"><ele>1415.0</ele><time>2026-04-12T10:01:02.999Z</time></trkpt><trkpt lat="41.98332977646394" lon="13.274121486661574"><ele>1415.0</ele><time>2026-04-12T10:01:03.999Z</time></trkpt><trkpt lat="41.98336099735242" lon="13.274198857943523"><ele>1415.0</ele><time>2026-04-12T10:01:04.999Z</time></trkpt><trkpt lat="41.98342005337858" lon="13.274322981123955"><ele>1414.8</ele><time>2026-04-12T10:01:06.999Z</time></trkpt><trkpt lat="41.983482633629514" lon="13.27445160245014"><ele>1414.6</ele><time>2026-04-12T10:01:08.999Z</time></trkpt><trkpt lat="41.98354755944162" lon="13.274590992302919"><ele>1414.4</ele><time>2026-04-12T10:01:10.999Z</time></trkpt><trkpt lat="41.98358332081019" lon="13.274675476624095"><ele>1414.2</ele><time>2026-04-12T10:01:11.999Z</time></trkpt><trkpt lat="41.98361868086963" lon="13.274759272353101"><ele>1414.0</ele><time>2026-04-12T10:01:12.999Z</time></trkpt><trkpt lat="41.983648005720816" lon="13.274872834104928"><ele>1414.0</ele><time>2026-04-12T10:01:14.999Z</time></trkpt><trkpt lat="41.983502242841126" lon="13.2750210039743"><ele>1414.0</ele><time>2026-04-12T10:01:17.999Z</time></trkpt><trkpt lat="41.983432490245306" lon="13.275106761260872"><ele>1414.0</ele><time>2026-04-12T10:01:18.999Z</time></trkpt><trkpt lat="41.983352444853416" lon="13.275165187448422"><ele>1414.0</ele><time>2026-04-12T10:01:19.999Z</time></trkpt><trkpt lat="41.98326886943582" lon="13.27523795789563"><ele>1414.0</ele><time>2026-04-12T10:01:20.999Z</time></trkpt><trkpt lat="41.983178308363264" lon="13.27531950896368"><ele>1414.0</ele><time>2026-04-12T10:01:21.999Z</time></trkpt><trkpt lat="41.98308142282351" lon="13.27540206444823"><ele>1414.0</ele><time>2026-04-12T10:01:22.999Z</time></trkpt><trkpt lat="41.98299048431998" lon="13.275483916682479"><ele>1414.0</ele><time>2026-04-12T10:01:23.999Z</time></trkpt><trkpt lat="41.98291059455083" lon="13.27555572906219"><ele>1414.0</ele><time>2026-04-12T10:01:24.999Z</time></trkpt><trkpt lat="41.98283953270498" lon="13.275619120531632"><ele>1413.5</ele><time>2026-04-12T10:01:25.999Z</time></trkpt><trkpt lat="41.98277496189267" lon="13.275681140008905"><ele>1413.0</ele><time>2026-04-12T10:01:26.999Z</time></trkpt><trkpt lat="41.98270403594949" lon="13.275743104358645"><ele>1412.5</ele><time>2026-04-12T10:01:27.999Z</time></trkpt><trkpt lat="41.982634825832235" lon="13.275804629310263"><ele>1412.0</ele><time>2026-04-12T10:01:28.998Z</time></trkpt><trkpt lat="41.98257123517062" lon="13.275865431118152"><ele>1411.5</ele><time>2026-04-12T10:01:29.998Z</time></trkpt><trkpt lat="41.98251519297115" lon="13.275923841984824"><ele>1411.0</ele><time>2026-04-12T10:01:30.998Z</time></trkpt><trkpt lat="41.98245582359417" lon="13.275985873044604"><ele>1411.0</ele><time>2026-04-12T10:01:31.998Z</time></trkpt><trkpt lat="41.98239812442756" lon="13.276053375376017"><ele>1411.0</ele><time>2026-04-12T10:01:32.998Z</time></trkpt><trkpt lat="41.98233680273177" lon="13.276126981382514"><ele>1411.0</ele><time>2026-04-12T10:01:33.998Z</time></trkpt><trkpt lat="41.98227844685324" lon="13.276180786042294"><ele>1411.0</ele><time>2026-04-12T10:01:34.998Z</time></trkpt><trkpt lat="41.98218417871559" lon="13.276257009320197"><ele>1411.0</ele><time>2026-04-12T10:01:36.998Z</time></trkpt><trkpt lat="41.98212642922223" lon="13.276316644685442"><ele>1411.0</ele><time>2026-04-12T10:01:38.998Z</time></trkpt><trkpt lat="41.98206555912692" lon="13.276345797087657"><ele>1411.0</ele><time>2026-04-12T10:01:56.998Z</time></trkpt><trkpt lat="41.98196058410081" lon="13.276271495406013"><ele>1411.0</ele><time>2026-04-12T10:01:59.998Z</time></trkpt><trkpt lat="41.981902196866784" lon="13.276210857292147"><ele>1411.0</ele><time>2026-04-12T10:02:02Z</time></trkpt><trkpt lat="41.98184605983138" lon="13.276157351223295"><ele>1411.0</ele><time>2026-04-12T10:02:04Z</time></trkpt><trkpt lat="41.98178188211979" lon="13.276109553317495"><ele>1411.0</ele><time>2026-04-12T10:02:06Z</time></trkpt><trkpt lat="41.981727244354744" lon="13.276062745234777"><ele>1411.0</ele><time>2026-04-12T10:02:08Z</time></trkpt><trkpt lat="41.981648017071954" lon="13.275989926143195"><ele>1410.5</ele><time>2026-04-12T10:02:11Z</time></trkpt><trkpt lat="41.98157113205104" lon="13.275943962787563"><ele>1410.0</ele><time>2026-04-12T10:02:13Z</time></trkpt><trkpt lat="41.981504517708935" lon="13.275888122617008"><ele>1409.5</ele><time>2026-04-12T10:02:15Z</time></trkpt><trkpt lat="41.9814520952311" lon="13.275832282447894"><ele>1409.0</ele><time>2026-04-12T10:02:17Z</time></trkpt><trkpt lat="41.981392018221484" lon="13.275764478396924"><ele>1408.5</ele><time>2026-04-12T10:02:19Z</time></trkpt><trkpt lat="41.98133333654797" lon="13.275680212135038"><ele>1408.0</ele><time>2026-04-12T10:02:21Z</time></trkpt><trkpt lat="41.981279062229476" lon="13.27560038391689"><ele>1408.0</ele><time>2026-04-12T10:02:23Z</time></trkpt><trkpt lat="41.981238860686915" lon="13.275514465292058"><ele>1408.0</ele><time>2026-04-12T10:02:26Z</time></trkpt><trkpt lat="41.98120199776207" lon="13.275438499016737"><ele>1408.0</ele><time>2026-04-12T10:02:30.999Z</time></trkpt><trkpt lat="41.98117459883244" lon="13.27533091695072"><ele>1408.0</ele><time>2026-04-12T10:02:35.999Z</time></trkpt><trkpt lat="41.98120466711663" lon="13.275408950272189"><ele>1408.0</ele><time>2026-04-12T10:03:47.999Z</time></trkpt><trkpt lat="41.9812983988321" lon="13.275410482028752"><ele>1408.0</ele><time>2026-04-12T10:04:31Z</time></trkpt><trkpt lat="41.98135096103679" lon="13.275340620463286"><ele>1408.0</ele><time>2026-04-12T10:12:25.999Z</time></trkpt><trkpt lat="41.981317569855676" lon="13.27541484428887"><ele>1408.0</ele><time>2026-04-12T10:12:38Z</time></trkpt><trkpt lat="41.98137881970273" lon="13.275310427244653"><ele>1408.0</ele><time>2026-04-12T10:12:45Z</time></trkpt><trkpt lat="41.981283280880504" lon="13.275365194221108"><ele>1408.0</ele><time>2026-04-12T10:13:10Z</time></trkpt><trkpt lat="41.981336096490715" lon="13.275312209744692"><ele>1408.0</ele><time>2026-04-12T10:13:43.999Z</time></trkpt><trkpt lat="41.98128865277345" lon="13.275368154845296"><ele>1408.0</ele><time>2026-04-12T10:14:17.999Z</time></trkpt><trkpt lat="41.98125898609923" lon="13.275449316759296"><ele>1408.0</ele><time>2026-04-12T10:15:54.999Z</time></trkpt><trkpt lat="41.98131466178728" lon="13.27539968621795"><ele>1408.0</ele><time>2026-04-12T10:16:00.999Z</time></trkpt><trkpt lat="41.98138534212288" lon="13.27521386857378"><ele>1408.0</ele><time>2026-04-12T10:16:05.999Z</time></trkpt><trkpt lat="41.98146561967954" lon="13.275240475065102"><ele>1408.0</ele><time>2026-04-12T10:16:06.999Z</time></trkpt><trkpt lat="41.9813779721304" lon="13.27542865248755"><ele>1408.0</ele><time>2026-04-12T10:16:07.999Z</time></trkpt><trkpt lat="41.98129738774661" lon="13.27525854129261"><ele>1408.0</ele><time>2026-04-12T10:16:47.022Z</time></trkpt><trkpt lat="41.98125074664559" lon="13.275319145324524"><ele>1408.0</ele><time>2026-04-12T10:17:16.018Z</time></trkpt><trkpt lat="41.98122318691137" lon="13.27540377691956"><ele>1408.0</ele><time>2026-04-12T10:17:23.017Z</time></trkpt><trkpt lat="41.98118303715402" lon="13.275486706427776"><ele>1408.0</ele><time>2026-04-12T10:17:30.016Z</time></trkpt><trkpt lat="41.981102172440835" lon="13.275643564104744"><ele>1408.0</ele><time>2026-04-12T10:17:43.014Z</time></trkpt><trkpt lat="41.98101821014932" lon="13.275721373028327"><ele>1408.0</ele><time>2026-04-12T10:17:54.017Z</time></trkpt><trkpt lat="41.981067675337556" lon="13.275646646084244"><ele>1408.0</ele><time>2026-04-12T10:18:13.016Z</time></trkpt><trkpt lat="41.98114271640096" lon="13.275531206461876"><ele>1408.0</ele><time>2026-04-12T10:18:21.019Z</time></trkpt><trkpt lat="41.98121779114516" lon="13.275431444422015"><ele>1408.0</ele><time>2026-04-12T10:18:23.018Z</time></trkpt><trkpt lat="41.98124404640107" lon="13.275347535639577"><ele>1408.0</ele><time>2026-04-12T10:18:58.017Z</time></trkpt><trkpt lat="41.98120833687119" lon="13.275418526771205"><ele>1408.0</ele><time>2026-04-12T10:19:19.019Z</time></trkpt><trkpt lat="41.981130275586324" lon="13.275543969137573"><ele>1408.0</ele><time>2026-04-12T10:19:24.018Z</time></trkpt><trkpt lat="41.9811848414862" lon="13.275469804604521"><ele>1408.0</ele><time>2026-04-12T10:19:25.017Z</time></trkpt><trkpt lat="41.98124450380113" lon="13.275391251520862"><ele>1408.0</ele><time>2026-04-12T10:19:27.018Z</time></trkpt><trkpt lat="41.98129880645664" lon="13.275314670303304"><ele>1408.0</ele><time>2026-04-12T10:19:29.018Z</time></trkpt><trkpt lat="41.98124230862661" lon="13.275360248192792"><ele>1408.0</ele><time>2026-04-12T10:19:42.019Z</time></trkpt><trkpt lat="41.98128951755438" lon="13.275290616559158"><ele>1408.0</ele><time>2026-04-12T10:19:46.019Z</time></trkpt><trkpt lat="41.981336824575564" lon="13.275223675921982"><ele>1408.0</ele><time>2026-04-12T10:19:50.022Z</time></trkpt><trkpt lat="41.981307972239996" lon="13.275315236615315"><ele>1408.0</ele><time>2026-04-12T10:19:57.019Z</time></trkpt><trkpt lat="41.981261637687076" lon="13.275375878146326"><ele>1408.0</ele><time>2026-04-12T10:20:16.02Z</time></trkpt><trkpt lat="41.981325464507236" lon="13.275265085902776"><ele>1408.0</ele><time>2026-04-12T10:22:30.999Z</time></trkpt><trkpt lat="41.98122561475382" lon="13.275378800404397"><ele>1408.0</ele><time>2026-04-12T10:22:37.999Z</time></trkpt><trkpt lat="41.9812903702672" lon="13.275388025878602"><ele>1408.0</ele><time>2026-04-12T10:22:46.999Z</time></trkpt><trkpt lat="41.98122436151502" lon="13.275374756066153"><ele>1408.0</ele><time>2026-04-12T10:23:09.999Z</time></trkpt><trkpt lat="41.98116202643235" lon="13.275306037495538"><ele>1408.0</ele><time>2026-04-12T10:25:25.998Z</time></trkpt><trkpt lat="41.98123983440603" lon="13.275331870358169"><ele>1408.0</ele><time>2026-04-12T10:35:56.999Z</time></trkpt><trkpt lat="41.981176045589926" lon="13.275320643070728"><ele>1408.0</ele><time>2026-04-12T10:36:12.998Z</time></trkpt><trkpt lat="41.98117011224283" lon="13.275424859664842"><ele>1408.0</ele><time>2026-04-12T10:38:25Z</time></trkpt><trkpt lat="41.981223832135896" lon="13.275529742456682"><ele>1407.4</ele><time>2026-04-12T10:38:27Z</time></trkpt><trkpt lat="41.98130885009575" lon="13.275682727346272"><ele>1406.8000000000002</ele><time>2026-04-12T10:38:29Z</time></trkpt><trkpt lat="41.98136352805996" lon="13.275775435482924"><ele>1406.2</ele><time>2026-04-12T10:38:30Z</time></trkpt><trkpt lat="41.98138137190024" lon="13.275894060519446"><ele>1405.6</ele><time>2026-04-12T10:38:31Z</time></trkpt><trkpt lat="41.98142980262413" lon="13.275978137522598"><ele>1405.0</ele><time>2026-04-12T10:38:32Z</time></trkpt><trkpt lat="41.981449180838304" lon="13.276060863478591"><ele>1405.0</ele><time>2026-04-12T10:38:33Z</time></trkpt><trkpt lat="41.98140513734164" lon="13.276195138733677"><ele>1405.0</ele><time>2026-04-12T10:38:34Z</time></trkpt><trkpt lat="41.98133327119473" lon="13.276280866823454"><ele>1405.0</ele><time>2026-04-12T10:38:35Z</time></trkpt><trkpt lat="41.98126014947789" lon="13.276388191874569"><ele>1405.0</ele><time>2026-04-12T10:38:36Z</time></trkpt><trkpt lat="41.981169729131544" lon="13.276492866918009"><ele>1405.0</ele><time>2026-04-12T10:38:37Z</time></trkpt><trkpt lat="41.98108039667167" lon="13.27659865575015"><ele>1405.0</ele><time>2026-04-12T10:38:38Z</time></trkpt><trkpt lat="41.98098268052614" lon="13.27672180077962"><ele>1405.0</ele><time>2026-04-12T10:38:39Z</time></trkpt><trkpt lat="41.9808996899699" lon="13.27686417317286"><ele>1405.0</ele><time>2026-04-12T10:38:40Z</time></trkpt><trkpt lat="41.980820760537064" lon="13.277035949693026"><ele>1405.0</ele><time>2026-04-12T10:38:41Z</time></trkpt><trkpt lat="41.98072037204479" lon="13.277205567023302"><ele>1404.25</ele><time>2026-04-12T10:38:42Z</time></trkpt><trkpt lat="41.980638700389356" lon="13.277391098988865"><ele>1403.5</ele><time>2026-04-12T10:38:43Z</time></trkpt><trkpt lat="41.9805656012391" lon="13.277555909803665"><ele>1402.75</ele><time>2026-04-12T10:38:44Z</time></trkpt><trkpt lat="41.98049377883485" lon="13.277701145711443"><ele>1402.0</ele><time>2026-04-12T10:38:45Z</time></trkpt><trkpt lat="41.980421099190494" lon="13.277822663740501"><ele>1402.0</ele><time>2026-04-12T10:38:46Z</time></trkpt><trkpt lat="41.98034660699285" lon="13.277923581458085"><ele>1402.0</ele><time>2026-04-12T10:38:47Z</time></trkpt><trkpt lat="41.98027608042577" lon="13.27800824871086"><ele>1402.0</ele><time>2026-04-12T10:38:48Z</time></trkpt><trkpt lat="41.980216930973796" lon="13.278093662828507"><ele>1402.0</ele><time>2026-04-12T10:38:49Z</time></trkpt><trkpt lat="41.98014485732067" lon="13.278166213661182"><ele>1402.0</ele><time>2026-04-12T10:38:50Z</time></trkpt><trkpt lat="41.98007256865463" lon="13.278243470845544"><ele>1401.5</ele><time>2026-04-12T10:38:51Z</time></trkpt><trkpt lat="41.98000475420342" lon="13.27831637212902"><ele>1401.0</ele><time>2026-04-12T10:38:52Z</time></trkpt><trkpt lat="41.97993766286296" lon="13.278366498080095"><ele>1400.5</ele><time>2026-04-12T10:38:53Z</time></trkpt><trkpt lat="41.97988692677042" lon="13.278434710768794"><ele>1400.0</ele><time>2026-04-12T10:38:54Z</time></trkpt><trkpt lat="41.979829993619155" lon="13.278472869363169"><ele>1399.5</ele><time>2026-04-12T10:38:55Z</time></trkpt><trkpt lat="41.979740403917425" lon="13.278505966406842"><ele>1399.0</ele><time>2026-04-12T10:38:57Z</time></trkpt><trkpt lat="41.97968043292071" lon="13.278585714219087"><ele>1399.0</ele><time>2026-04-12T10:38:59Z</time></trkpt><trkpt lat="41.97962737427666" lon="13.278669348157312"><ele>1399.0</ele><time>2026-04-12T10:39:00Z</time></trkpt><trkpt lat="41.979541655077576" lon="13.278735556354626"><ele>1399.0</ele><time>2026-04-12T10:39:01Z</time></trkpt><trkpt lat="41.97946776638603" lon="13.278829609229405"><ele>1399.0</ele><time>2026-04-12T10:39:02Z</time></trkpt><trkpt lat="41.97939587583762" lon="13.278927903067697"><ele>1399.0</ele><time>2026-04-12T10:39:03Z</time></trkpt><trkpt lat="41.97931978827677" lon="13.279038420978683"><ele>1399.1666666666665</ele><time>2026-04-12T10:39:04Z</time></trkpt><trkpt lat="41.979249255459365" lon="13.279149655471082"><ele>1399.3333333333333</ele><time>2026-04-12T10:39:05Z</time></trkpt><trkpt lat="41.97919291136042" lon="13.279242928084257"><ele>1399.5</ele><time>2026-04-12T10:39:06Z</time></trkpt><trkpt lat="41.97914844746306" lon="13.279318013284017"><ele>1399.6666666666667</ele><time>2026-04-12T10:39:07Z</time></trkpt><trkpt lat="41.97910631575088" lon="13.279393528715197"><ele>1399.8333333333335</ele><time>2026-04-12T10:39:09Z</time></trkpt><trkpt lat="41.979089534351985" lon="13.27947561973497"><ele>1400.0</ele><time>2026-04-12T10:39:30.999Z</time></trkpt><trkpt lat="41.97906933955975" lon="13.279872379675412"><ele>1400.0</ele><time>2026-04-12T10:39:31.999Z</time></trkpt><trkpt lat="41.97920273753055" lon="13.279670483117405"><ele>1400.0</ele><time>2026-04-12T10:39:44.999Z</time></trkpt><trkpt lat="41.97918208665518" lon="13.279540550030154"><ele>1400.0</ele><time>2026-04-12T10:39:51.999Z</time></trkpt><trkpt lat="41.979135803294554" lon="13.279415848414299"><ele>1400.0</ele><time>2026-04-12T10:41:08.999Z</time></trkpt><trkpt lat="41.97915156027059" lon="13.279310184730061"><ele>1399.8</ele><time>2026-04-12T10:41:20.999Z</time></trkpt><trkpt lat="41.97924111198026" lon="13.279202411024345"><ele>1399.6</ele><time>2026-04-12T10:41:22.999Z</time></trkpt><trkpt lat="41.9793228444726" lon="13.279131916789332"><ele>1399.4</ele><time>2026-04-12T10:41:23.999Z</time></trkpt><trkpt lat="41.97939133135474" lon="13.279050859175351"><ele>1399.2</ele><time>2026-04-12T10:41:24.999Z</time></trkpt><trkpt lat="41.97945571941775" lon="13.278951550123944"><ele>1399.0</ele><time>2026-04-12T10:41:25.999Z</time></trkpt><trkpt lat="41.97953168823412" lon="13.27883246111947"><ele>1399.0</ele><time>2026-04-12T10:41:26.999Z</time></trkpt><trkpt lat="41.97961223336733" lon="13.278723892517306"><ele>1399.0</ele><time>2026-04-12T10:41:27.999Z</time></trkpt><trkpt lat="41.97970411018018" lon="13.278622331117022"><ele>1399.0</ele><time>2026-04-12T10:41:28.999Z</time></trkpt><trkpt lat="41.979804346831706" lon="13.278520226067288"><ele>1399.0</ele><time>2026-04-12T10:41:29.999Z</time></trkpt><trkpt lat="41.979911005131285" lon="13.278419438055385"><ele>1399.75</ele><time>2026-04-12T10:41:30.999Z</time></trkpt><trkpt lat="41.9800241493134" lon="13.278319191505581"><ele>1400.5</ele><time>2026-04-12T10:41:31.999Z</time></trkpt><trkpt lat="41.98014055216076" lon="13.27820326631133"><ele>1401.25</ele><time>2026-04-12T10:41:32.999Z</time></trkpt><trkpt lat="41.980256085322225" lon="13.278071580745308"><ele>1402.0</ele><time>2026-04-12T10:41:33.999Z</time></trkpt><trkpt lat="41.980378881737494" lon="13.277942665785288"><ele>1402.0</ele><time>2026-04-12T10:41:34.999Z</time></trkpt><trkpt lat="41.98048919372201" lon="13.277795373878016"><ele>1402.0</ele><time>2026-04-12T10:41:35.999Z</time></trkpt><trkpt lat="41.980574463762096" lon="13.277590012798624"><ele>1402.0</ele><time>2026-04-12T10:41:36.999Z</time></trkpt><trkpt lat="41.98067031679888" lon="13.277416327995363"><ele>1401.6666666666665</ele><time>2026-04-12T10:41:37.999Z</time></trkpt><trkpt lat="41.980777000989406" lon="13.2772290014864"><ele>1401.3333333333333</ele><time>2026-04-12T10:41:38.999Z</time></trkpt><trkpt lat="41.98086883071564" lon="13.277026503790271"><ele>1401.0</ele><time>2026-04-12T10:41:39.999Z</time></trkpt><trkpt lat="41.980968478878616" lon="13.276856881602864"><ele>1402.0</ele><time>2026-04-12T10:41:40.999Z</time></trkpt><trkpt lat="41.981066404347374" lon="13.276709904686095"><ele>1403.0</ele><time>2026-04-12T10:41:41.999Z</time></trkpt><trkpt lat="41.9811718185726" lon="13.276564822987309"><ele>1404.0</ele><time>2026-04-12T10:41:42.999Z</time></trkpt><trkpt lat="41.98127944775861" lon="13.276442778955763"><ele>1405.0</ele><time>2026-04-12T10:41:43.999Z</time></trkpt><trkpt lat="41.98134733340528" lon="13.27631658359636"><ele>1405.0</ele><time>2026-04-12T10:41:44.999Z</time></trkpt><trkpt lat="41.981432652325005" lon="13.276230006193147"><ele>1405.0</ele><time>2026-04-12T10:41:45.999Z</time></trkpt><trkpt lat="41.981493840033714" lon="13.276121161963792"><ele>1405.0</ele><time>2026-04-12T10:41:46.999Z</time></trkpt><trkpt lat="41.98154001926963" lon="13.276006339201045"><ele>1405.0</ele><time>2026-04-12T10:41:47.999Z</time></trkpt><trkpt lat="41.98156441540923" lon="13.275904144506606"><ele>1405.0</ele><time>2026-04-12T10:41:48.999Z</time></trkpt><trkpt lat="41.98132662654458" lon="13.275704021953274"><ele>1405.6</ele><time>2026-04-12T10:41:49.999Z</time></trkpt><trkpt lat="41.98125156676292" lon="13.275574338240322"><ele>1406.2</ele><time>2026-04-12T10:41:50.999Z</time></trkpt><trkpt lat="41.981179987575985" lon="13.275431379525816"><ele>1406.8000000000002</ele><time>2026-04-12T10:41:51.999Z</time></trkpt><trkpt lat="41.981127745794105" lon="13.275308736128107"><ele>1407.4</ele><time>2026-04-12T10:41:52.999Z</time></trkpt><trkpt lat="41.981078731514415" lon="13.275200853004463"><ele>1408.0</ele><time>2026-04-12T10:41:53.999Z</time></trkpt><trkpt lat="41.98102474010647" lon="13.275091821764251"><ele>1408.0</ele><time>2026-04-12T10:41:54.999Z</time></trkpt><trkpt lat="41.980973609849485" lon="13.274978832930891"><ele>1408.0</ele><time>2026-04-12T10:41:55.999Z</time></trkpt><trkpt lat="41.98093048665964" lon="13.274880925565629"><ele>1408.0</ele><time>2026-04-12T10:41:56.999Z</time></trkpt><trkpt lat="41.98089438691148" lon="13.274799855202657"><ele>1408.0</ele><time>2026-04-12T10:41:57.998Z</time></trkpt><trkpt lat="41.98086485481327" lon="13.27472496387847"><ele>1408.0</ele><time>2026-04-12T10:41:58.998Z</time></trkpt><trkpt lat="41.98082672805275" lon="13.274584407341115"><ele>1408.0</ele><time>2026-04-12T10:42:00.998Z</time></trkpt><trkpt lat="41.9808067542568" lon="13.27450077150764"><ele>1407.6666666666665</ele><time>2026-04-12T10:42:01.998Z</time></trkpt><trkpt lat="41.980790620738496" lon="13.274410338836896"><ele>1407.3333333333333</ele><time>2026-04-12T10:42:02.998Z</time></trkpt><trkpt lat="41.98079347292995" lon="13.274247906032022"><ele>1407.0</ele><time>2026-04-12T10:42:04.998Z</time></trkpt><trkpt lat="41.980810903791415" lon="13.274166234787446"><ele>1406.6666666666667</ele><time>2026-04-12T10:42:05.998Z</time></trkpt><trkpt lat="41.98088251915291" lon="13.274036807323293"><ele>1406.3333333333335</ele><time>2026-04-12T10:42:07.998Z</time></trkpt><trkpt lat="41.9809480995029" lon="13.273984970050101"><ele>1406.0</ele><time>2026-04-12T10:42:08.998Z</time></trkpt><trkpt lat="41.981031566616785" lon="13.273945487129657"><ele>1407.3333333333335</ele><time>2026-04-12T10:42:09.998Z</time></trkpt><trkpt lat="41.981118266262605" lon="13.27390864152997"><ele>1408.6666666666667</ele><time>2026-04-12T10:42:10.998Z</time></trkpt><trkpt lat="41.98119351195353" lon="13.273893746259148"><ele>1410.0</ele><time>2026-04-12T10:42:11.998Z</time></trkpt><trkpt lat="41.981269038897345" lon="13.273865205459263"><ele>1411.3333333333333</ele><time>2026-04-12T10:42:12.998Z</time></trkpt><trkpt lat="41.981342438212586" lon="13.27382687144348"><ele>1412.6666666666665</ele><time>2026-04-12T10:42:13.998Z</time></trkpt><trkpt lat="41.98141766925705" lon="13.27379327376033"><ele>1414.0</ele><time>2026-04-12T10:42:14.998Z</time></trkpt><trkpt lat="41.981498461218976" lon="13.273771779167877"><ele>1414.0</ele><time>2026-04-12T10:42:15.998Z</time></trkpt><trkpt lat="41.981573323773546" lon="13.273748598693293"><ele>1414.0</ele><time>2026-04-12T10:42:16.998Z</time></trkpt><trkpt lat="41.9816392160012" lon="13.273689331462075"><ele>1414.0</ele><time>2026-04-12T10:42:17.998Z</time></trkpt><trkpt lat="41.981688504999475" lon="13.27359066523538"><ele>1414.0</ele><time>2026-04-12T10:42:18.998Z</time></trkpt><trkpt lat="41.98171413622651" lon="13.273464912685988"><ele>1414.0</ele><time>2026-04-12T10:42:19.998Z</time></trkpt><trkpt lat="41.98172675602956" lon="13.27335752951237"><ele>1414.0</ele><time>2026-04-12T10:42:20.998Z</time></trkpt><trkpt lat="41.98172995463914" lon="13.273231729077231"><ele>1416.1666666666665</ele><time>2026-04-12T10:42:21.998Z</time></trkpt><trkpt lat="41.98173478229354" lon="13.273105474496047"><ele>1418.3333333333333</ele><time>2026-04-12T10:42:22.998Z</time></trkpt><trkpt lat="41.981755449868146" lon="13.27297741449899"><ele>1420.5</ele><time>2026-04-12T10:42:23.998Z</time></trkpt><trkpt lat="41.98179562911212" lon="13.272874874117305"><ele>1422.6666666666667</ele><time>2026-04-12T10:42:24.998Z</time></trkpt><trkpt lat="41.98185483745745" lon="13.272808318680944"><ele>1424.8333333333335</ele><time>2026-04-12T10:42:25.998Z</time></trkpt><trkpt lat="41.981913329635304" lon="13.272774486440808"><ele>1427.0</ele><time>2026-04-12T10:42:26.998Z</time></trkpt><trkpt lat="41.98198420317513" lon="13.272720467860207"><ele>1427.0</ele><time>2026-04-12T10:42:28.998Z</time></trkpt><trkpt lat="41.98203849458094" lon="13.272652305100234"><ele>1427.0</ele><time>2026-04-12T10:42:30.999Z</time></trkpt><trkpt lat="41.98196758039782" lon="13.272433713696058"><ele>1427.0</ele><time>2026-04-12T10:42:31.999Z</time></trkpt><trkpt lat="41.98191393464385" lon="13.272376544348168"><ele>1427.0</ele><time>2026-04-12T10:42:32.999Z</time></trkpt><trkpt lat="41.98183167851776" lon="13.272334913723189"><ele>1427.0</ele><time>2026-04-12T10:42:33.999Z</time></trkpt><trkpt lat="41.98173725962597" lon="13.272306202883854"><ele>1430.0</ele><time>2026-04-12T10:42:34.999Z</time></trkpt><trkpt lat="41.98164569061944" lon="13.272270619655448"><ele>1433.0</ele><time>2026-04-12T10:42:35.999Z</time></trkpt><trkpt lat="41.98155752897578" lon="13.2722621463299"><ele>1436.0</ele><time>2026-04-12T10:42:36.999Z</time></trkpt><trkpt lat="41.98145955533844" lon="13.272259095901909"><ele>1439.0</ele><time>2026-04-12T10:42:37.999Z</time></trkpt><trkpt lat="41.98134193337162" lon="13.272257381603872"><ele>1442.0</ele><time>2026-04-12T10:42:38.999Z</time></trkpt><trkpt lat="41.98124661530806" lon="13.27225705996349"><ele>1442.0</ele><time>2026-04-12T10:42:39.999Z</time></trkpt><trkpt lat="41.98116890823503" lon="13.272253495277754"><ele>1442.0</ele><time>2026-04-12T10:42:40.999Z</time></trkpt><trkpt lat="41.98110506635296" lon="13.27218743151415"><ele>1442.0</ele><time>2026-04-12T10:42:41.999Z</time></trkpt><trkpt lat="41.981075029128256" lon="13.272099107079974"><ele>1442.0</ele><time>2026-04-12T10:42:42.999Z</time></trkpt><trkpt lat="41.98107420725976" lon="13.272002422062123"><ele>1442.0</ele><time>2026-04-12T10:42:43.999Z</time></trkpt><trkpt lat="41.98109014087606" lon="13.27188815928515"><ele>1442.0</ele><time>2026-04-12T10:42:44.999Z</time></trkpt><trkpt lat="41.98107735465856" lon="13.271761706809569"><ele>1442.0</ele><time>2026-04-12T10:42:45.999Z</time></trkpt><trkpt lat="41.9810809030094" lon="13.271665659406754"><ele>1442.0</ele><time>2026-04-12T10:42:46.999Z</time></trkpt><trkpt lat="41.98103550356099" lon="13.271559439711867"><ele>1442.0</ele><time>2026-04-12T10:42:47.999Z</time></trkpt><trkpt lat="41.98092213137491" lon="13.271517101088163"><ele>1442.0</ele><time>2026-04-12T10:42:48.999Z</time></trkpt><trkpt lat="41.98080726835425" lon="13.271546833421445"><ele>1442.0</ele><time>2026-04-12T10:42:49.999Z</time></trkpt><trkpt lat="41.98071451838157" lon="13.2715490783403"><ele>1441.3333333333335</ele><time>2026-04-12T10:42:50.999Z</time></trkpt><trkpt lat="41.980633741786704" lon="13.271550517451745"><ele>1440.6666666666667</ele><time>2026-04-12T10:42:51.999Z</time></trkpt><trkpt lat="41.98054546251495" lon="13.2715520902319"><ele>1440.0</ele><time>2026-04-12T10:42:52.999Z</time></trkpt><trkpt lat="41.980466033562024" lon="13.271554110336352"><ele>1439.3333333333333</ele><time>2026-04-12T10:42:53.999Z</time></trkpt><trkpt lat="41.980379277064635" lon="13.271563996856859"><ele>1438.6666666666665</ele><time>2026-04-12T10:42:54.999Z</time></trkpt><trkpt lat="41.98029592821062" lon="13.271613439735631"><ele>1438.0</ele><time>2026-04-12T10:42:55.999Z</time></trkpt><trkpt lat="41.98022979976973" lon="13.27164286283309"><ele>1438.0</ele><time>2026-04-12T10:42:56.999Z</time></trkpt><trkpt lat="41.98012726550283" lon="13.27167752863572"><ele>1438.0</ele><time>2026-04-12T10:42:58.999Z</time></trkpt><trkpt lat="41.98003456933166" lon="13.271722650385215"><ele>1438.0</ele><time>2026-04-12T10:43:00.999Z</time></trkpt><trkpt lat="41.979938829660426" lon="13.271792179506265"><ele>1438.0</ele><time>2026-04-12T10:43:02.999Z</time></trkpt><trkpt lat="41.979843684997554" lon="13.271839123026997"><ele>1438.0</ele><time>2026-04-12T10:43:04.999Z</time></trkpt><trkpt lat="41.979719098399265" lon="13.271891178513556"><ele>1440.0</ele><time>2026-04-12T10:43:06.999Z</time></trkpt><trkpt lat="41.979651076969645" lon="13.271932054859732"><ele>1442.0</ele><time>2026-04-12T10:43:07.999Z</time></trkpt><trkpt lat="41.97958870135492" lon="13.271976886320278"><ele>1444.0</ele><time>2026-04-12T10:43:08.999Z</time></trkpt><trkpt lat="41.979523924059244" lon="13.272032644891679"><ele>1446.0</ele><time>2026-04-12T10:43:09.999Z</time></trkpt><trkpt lat="41.97946663096248" lon="13.272097001292302"><ele>1448.0</ele><time>2026-04-12T10:43:10.999Z</time></trkpt><trkpt lat="41.97940287593523" lon="13.272158924328906"><ele>1450.0</ele><time>2026-04-12T10:43:11.999Z</time></trkpt><trkpt lat="41.979343566279255" lon="13.272218743232868"><ele>1450.8333333333333</ele><time>2026-04-12T10:43:12.999Z</time></trkpt><trkpt lat="41.97928733541096" lon="13.272286608850463"><ele>1451.6666666666665</ele><time>2026-04-12T10:43:13.999Z</time></trkpt><trkpt lat="41.97922413214746" lon="13.272354878744732"><ele>1452.5</ele><time>2026-04-12T10:43:14.999Z</time></trkpt><trkpt lat="41.979138832042274" lon="13.272414482351762"><ele>1453.3333333333333</ele><time>2026-04-12T10:43:15.999Z</time></trkpt><trkpt lat="41.97907301563473" lon="13.27250112551729"><ele>1454.1666666666667</ele><time>2026-04-12T10:43:16.999Z</time></trkpt><trkpt lat="41.979010494715496" lon="13.272561315995853"><ele>1455.0</ele><time>2026-04-12T10:43:17.999Z</time></trkpt><trkpt lat="41.97894423127413" lon="13.272640186134026"><ele>1455.0</ele><time>2026-04-12T10:43:18.999Z</time></trkpt><trkpt lat="41.97886499331267" lon="13.272718164392446"><ele>1455.0</ele><time>2026-04-12T10:43:19.999Z</time></trkpt><trkpt lat="41.97877117974102" lon="13.272810445801227"><ele>1455.0</ele><time>2026-04-12T10:43:20.999Z</time></trkpt><trkpt lat="41.97869480390523" lon="13.272900153429823"><ele>1455.0</ele><time>2026-04-12T10:43:21.999Z</time></trkpt><trkpt lat="41.978617111260036" lon="13.272996740710315"><ele>1455.0</ele><time>2026-04-12T10:43:22.999Z</time></trkpt><trkpt lat="41.97855545820497" lon="13.273071617813713"><ele>1452.6</ele><time>2026-04-12T10:43:23.999Z</time></trkpt><trkpt lat="41.97847131674547" lon="13.273150518260346"><ele>1450.2</ele><time>2026-04-12T10:43:25.999Z</time></trkpt><trkpt lat="41.97835564266888" lon="13.273146331068867"><ele>1447.8000000000002</ele><time>2026-04-12T10:43:27.999Z</time></trkpt><trkpt lat="41.97828664255034" lon="13.2730017959859"><ele>1445.4</ele><time>2026-04-12T10:43:29.999Z</time></trkpt><trkpt lat="41.97827424950109" lon="13.272879529468085"><ele>1443.0</ele><time>2026-04-12T10:43:30.999Z</time></trkpt><trkpt lat="41.97822748152124" lon="13.27278220363462"><ele>1448.2</ele><time>2026-04-12T10:43:31.999Z</time></trkpt><trkpt lat="41.97813365206218" lon="13.27262045590673"><ele>1453.4</ele><time>2026-04-12T10:43:33.999Z</time></trkpt><trkpt lat="41.978050894759726" lon="13.27258536226548"><ele>1458.6000000000001</ele><time>2026-04-12T10:43:34.999Z</time></trkpt><trkpt lat="41.977960545849484" lon="13.272597774486297"><ele>1463.8000000000002</ele><time>2026-04-12T10:43:35.999Z</time></trkpt><trkpt lat="41.977874742821456" lon="13.272609630551322"><ele>1469.0</ele><time>2026-04-12T10:43:36.999Z</time></trkpt><trkpt lat="41.977790231939025" lon="13.272633196234361"><ele>1469.0</ele><time>2026-04-12T10:43:37.999Z</time></trkpt><trkpt lat="41.97767785156411" lon="13.272667315591308"><ele>1469.0</ele><time>2026-04-12T10:43:38.999Z</time></trkpt><trkpt lat="41.977564421533586" lon="13.272722347493685"><ele>1469.0</ele><time>2026-04-12T10:43:39.999Z</time></trkpt><trkpt lat="41.97744611151164" lon="13.272738821622013"><ele>1469.0</ele><time>2026-04-12T10:43:40.999Z</time></trkpt><trkpt lat="41.97734131298781" lon="13.272769688912204"><ele>1469.6</ele><time>2026-04-12T10:43:41.999Z</time></trkpt><trkpt lat="41.97725743100994" lon="13.272793595681174"><ele>1470.2</ele><time>2026-04-12T10:43:42.999Z</time></trkpt><trkpt lat="41.97716465765151" lon="13.272819796311138"><ele>1470.8</ele><time>2026-04-12T10:43:43.999Z</time></trkpt><trkpt lat="41.97707742532291" lon="13.272851704610138"><ele>1471.3999999999999</ele><time>2026-04-12T10:43:44.999Z</time></trkpt><trkpt lat="41.97696614777956" lon="13.272871760705437"><ele>1472.0</ele><time>2026-04-12T10:43:45.999Z</time></trkpt><trkpt lat="41.97685650208181" lon="13.272883417243406"><ele>1472.0</ele><time>2026-04-12T10:43:46.999Z</time></trkpt><trkpt lat="41.976751604784326" lon="13.272878124528631"><ele>1472.0</ele><time>2026-04-12T10:43:47.999Z</time></trkpt><trkpt lat="41.97665800517623" lon="13.27286502998486"><ele>1472.0</ele><time>2026-04-12T10:43:48.999Z</time></trkpt><trkpt lat="41.976580454774464" lon="13.272820709045094"><ele>1472.0</ele><time>2026-04-12T10:43:49.999Z</time></trkpt><trkpt lat="41.97649918301992" lon="13.272814090265012"><ele>1472.0</ele><time>2026-04-12T10:43:50.999Z</time></trkpt><trkpt lat="41.9764228286534" lon="13.272784354818945"><ele>1472.0</ele><time>2026-04-12T10:43:51.999Z</time></trkpt><trkpt lat="41.97634785703343" lon="13.272731580621372"><ele>1472.1999999999998</ele><time>2026-04-12T10:43:52.999Z</time></trkpt><trkpt lat="41.97626472664582" lon="13.27269755462313"><ele>1472.4</ele><time>2026-04-12T10:43:53.999Z</time></trkpt><trkpt lat="41.97618137207351" lon="13.272661963058647"><ele>1472.6</ele><time>2026-04-12T10:43:54.999Z</time></trkpt><trkpt lat="41.976090808019485" lon="13.272623387875647"><ele>1472.8000000000002</ele><time>2026-04-12T10:43:55.999Z</time></trkpt><trkpt lat="41.97597067038604" lon="13.272588448732908"><ele>1473.0</ele><time>2026-04-12T10:43:56.998Z</time></trkpt><trkpt lat="41.97586563850701" lon="13.272538955043796"><ele>1472.2</ele><time>2026-04-12T10:43:57.998Z</time></trkpt><trkpt lat="41.97576985350864" lon="13.27248775226428"><ele>1471.4</ele><time>2026-04-12T10:43:58.998Z</time></trkpt><trkpt lat="41.97566554348363" lon="13.272437930655192"><ele>1470.6000000000001</ele><time>2026-04-12T10:43:59.998Z</time></trkpt><trkpt lat="41.975562800822246" lon="13.272391196797976"><ele>1469.8000000000002</ele><time>2026-04-12T10:44:00.998Z</time></trkpt><trkpt lat="41.975456954917966" lon="13.272325250799181"><ele>1469.0</ele><time>2026-04-12T10:44:01.998Z</time></trkpt><trkpt lat="41.97536817636784" lon="13.272284601652768"><ele>1469.0</ele><time>2026-04-12T10:44:02.998Z</time></trkpt><trkpt lat="41.975297629449955" lon="13.272254023149157"><ele>1469.0</ele><time>2026-04-12T10:44:03.998Z</time></trkpt><trkpt lat="41.975238074809575" lon="13.272225697327876"><ele>1469.0</ele><time>2026-04-12T10:44:04.998Z</time></trkpt><trkpt lat="41.97512980841616" lon="13.272227555977972"><ele>1469.0</ele><time>2026-04-12T10:44:06.998Z</time></trkpt><trkpt lat="41.97507554594595" lon="13.272274369448532"><ele>1469.0</ele><time>2026-04-12T10:44:07.998Z</time></trkpt><trkpt lat="41.97501549924856" lon="13.272332745398769"><ele>1469.0</ele><time>2026-04-12T10:44:08.998Z</time></trkpt><trkpt lat="41.97495648214177" lon="13.272420039511951"><ele>1470.1666666666667</ele><time>2026-04-12T10:44:09.998Z</time></trkpt><trkpt lat="41.97489331242712" lon="13.272510844696006"><ele>1471.3333333333335</ele><time>2026-04-12T10:44:10.998Z</time></trkpt><trkpt lat="41.974813909827" lon="13.272558727867303"><ele>1472.5</ele><time>2026-04-12T10:44:11.998Z</time></trkpt><trkpt lat="41.97474044943854" lon="13.27262001635849"><ele>1473.6666666666667</ele><time>2026-04-12T10:44:12.998Z</time></trkpt><trkpt lat="41.97466304314217" lon="13.272667512877307"><ele>1474.8333333333333</ele><time>2026-04-12T10:44:13.998Z</time></trkpt><trkpt lat="41.974595327225934" lon="13.272700156957447"><ele>1476.0</ele><time>2026-04-12T10:44:14.998Z</time></trkpt><trkpt lat="41.9745119627104" lon="13.272670796845894"><ele>1476.0</ele><time>2026-04-12T10:44:15.998Z</time></trkpt><trkpt lat="41.97443027777088" lon="13.27266658132769"><ele>1476.0</ele><time>2026-04-12T10:44:16.998Z</time></trkpt><trkpt lat="41.97434148043767" lon="13.272640015773028"><ele>1476.0</ele><time>2026-04-12T10:44:17.998Z</time></trkpt><trkpt lat="41.974229823489765" lon="13.272649792477905"><ele>1476.0</ele><time>2026-04-12T10:44:18.998Z</time></trkpt><trkpt lat="41.97412277830561" lon="13.272641452455028"><ele>1476.0</ele><time>2026-04-12T10:44:19.998Z</time></trkpt><trkpt lat="41.97402814465526" lon="13.272648704287986"><ele>1478.1666666666667</ele><time>2026-04-12T10:44:20.998Z</time></trkpt><trkpt lat="41.97394551156812" lon="13.272669545411656"><ele>1480.3333333333333</ele><time>2026-04-12T10:44:21.998Z</time></trkpt><trkpt lat="41.97386854864922" lon="13.272667545433537"><ele>1482.5</ele><time>2026-04-12T10:44:22.998Z</time></trkpt><trkpt lat="41.97377991358645" lon="13.272670200064583"><ele>1484.6666666666665</ele><time>2026-04-12T10:44:23.998Z</time></trkpt><trkpt lat="41.97370563166187" lon="13.272670059748876"><ele>1486.8333333333333</ele><time>2026-04-12T10:44:24.998Z</time></trkpt><trkpt lat="41.97361212780034" lon="13.272672629134505"><ele>1489.0</ele><time>2026-04-12T10:44:25.998Z</time></trkpt><trkpt lat="41.973516940410846" lon="13.272674188415413"><ele>1489.0</ele><time>2026-04-12T10:44:26.998Z</time></trkpt><trkpt lat="41.97342078754431" lon="13.272692492258235"><ele>1489.0</ele><time>2026-04-12T10:44:27.998Z</time></trkpt><trkpt lat="41.973324648041974" lon="13.272711999504937"><ele>1489.0</ele><time>2026-04-12T10:44:28.998Z</time></trkpt><trkpt lat="41.97323347392281" lon="13.272710772227706"><ele>1489.0</ele><time>2026-04-12T10:44:29.998Z</time></trkpt><trkpt lat="41.97315785790175" lon="13.27272003174016"><ele>1489.0</ele><time>2026-04-12T10:44:30.998Z</time></trkpt><trkpt lat="41.97308515935952" lon="13.272710675591322"><ele>1489.0</ele><time>2026-04-12T10:44:31.998Z</time></trkpt><trkpt lat="41.97295399884921" lon="13.272692430436605"><ele>1489.3333333333333</ele><time>2026-04-12T10:44:33.998Z</time></trkpt><trkpt lat="41.972880456783486" lon="13.272679590861125"><ele>1489.6666666666665</ele><time>2026-04-12T10:44:34.998Z</time></trkpt><trkpt lat="41.97281687696586" lon="13.272683214691842"><ele>1490.0</ele><time>2026-04-12T10:44:35.998Z</time></trkpt><trkpt lat="41.97272852595823" lon="13.272675266551326"><ele>1490.3333333333333</ele><time>2026-04-12T10:44:36.999Z</time></trkpt><trkpt lat="41.97265495130475" lon="13.272714865388815"><ele>1490.6666666666667</ele><time>2026-04-12T10:44:37.999Z</time></trkpt><trkpt lat="41.97257431179619" lon="13.272733673101962"><ele>1491.0</ele><time>2026-04-12T10:44:38.999Z</time></trkpt><trkpt lat="41.97247107352143" lon="13.272805135477896"><ele>1488.8</ele><time>2026-04-12T10:44:39.999Z</time></trkpt><trkpt lat="41.97237114647115" lon="13.272889449975876"><ele>1486.6</ele><time>2026-04-12T10:44:40.999Z</time></trkpt><trkpt lat="41.97229180685338" lon="13.272955455156508"><ele>1484.4</ele><time>2026-04-12T10:44:41.999Z</time></trkpt><trkpt lat="41.97221101674003" lon="13.273020178990928"><ele>1482.2</ele><time>2026-04-12T10:44:42.999Z</time></trkpt><trkpt lat="41.972135185763214" lon="13.273080929662811"><ele>1480.0</ele><time>2026-04-12T10:44:43.999Z</time></trkpt><trkpt lat="41.972067736966004" lon="13.273135666344178"><ele>1480.0</ele><time>2026-04-12T10:44:44.999Z</time></trkpt><trkpt lat="41.9720031159079" lon="13.273189544657189"><ele>1480.0</ele><time>2026-04-12T10:44:45.999Z</time></trkpt><trkpt lat="41.971946479968516" lon="13.273261999003028"><ele>1480.0</ele><time>2026-04-12T10:44:46.999Z</time></trkpt><trkpt lat="41.971896812894094" lon="13.273318161983653"><ele>1480.0</ele><time>2026-04-12T10:44:47.999Z</time></trkpt><trkpt lat="41.97182684914749" lon="13.27337003808983"><ele>1480.0</ele><time>2026-04-12T10:44:48.999Z</time></trkpt><trkpt lat="41.971767065940774" lon="13.273460737724035"><ele>1480.0</ele><time>2026-04-12T10:44:49.999Z</time></trkpt><trkpt lat="41.97171011574628" lon="13.27357558931865"><ele>1475.4</ele><time>2026-04-12T10:44:50.999Z</time></trkpt><trkpt lat="41.971660531684016" lon="13.273680283037267"><ele>1470.8</ele><time>2026-04-12T10:44:51.999Z</time></trkpt><trkpt lat="41.97160259912588" lon="13.273783111494344"><ele>1466.1999999999998</ele><time>2026-04-12T10:44:53.999Z</time></trkpt><trkpt lat="41.97151710185938" lon="13.273861579980021"><ele>1461.6</ele><time>2026-04-12T10:44:55.999Z</time></trkpt><trkpt lat="41.971444717439915" lon="13.273859883069413"><ele>1457.0</ele><time>2026-04-12T10:44:56.999Z</time></trkpt><trkpt lat="41.97137016854734" lon="13.273801014508122"><ele>1457.0</ele><time>2026-04-12T10:44:57.999Z</time></trkpt><trkpt lat="41.97129024496523" lon="13.273714589906369"><ele>1457.0</ele><time>2026-04-12T10:44:58.999Z</time></trkpt><trkpt lat="41.97123757508446" lon="13.273621858854126"><ele>1457.0</ele><time>2026-04-12T10:44:59.999Z</time></trkpt><trkpt lat="41.97119221649886" lon="13.27353680015295"><ele>1457.0</ele><time>2026-04-12T10:45:00.999Z</time></trkpt><trkpt lat="41.97114166407059" lon="13.273484545583756"><ele>1457.0</ele><time>2026-04-12T10:45:01.999Z</time></trkpt><trkpt lat="41.971036870131066" lon="13.273413574039633"><ele>1457.0</ele><time>2026-04-12T10:45:03.999Z</time></trkpt><trkpt lat="41.97095470026023" lon="13.273445400496497"><ele>1457.0</ele><time>2026-04-12T10:45:04.999Z</time></trkpt><trkpt lat="41.97087513252886" lon="13.273448136232664"><ele>1457.0</ele><time>2026-04-12T10:45:05.999Z</time></trkpt><trkpt lat="41.97075341425512" lon="13.273400975272832"><ele>1457.0</ele><time>2026-04-12T10:45:07.999Z</time></trkpt><trkpt lat="41.97063862382822" lon="13.2733825595172"><ele>1457.0</ele><time>2026-04-12T10:45:09.999Z</time></trkpt><trkpt lat="41.97052371547825" lon="13.273665858593859"><ele>1456.1666666666667</ele><time>2026-04-12T10:45:11.999Z</time></trkpt><trkpt lat="41.970456835001556" lon="13.273720828159302"><ele>1455.3333333333335</ele><time>2026-04-12T10:45:12.999Z</time></trkpt><trkpt lat="41.97038076768183" lon="13.273777349871962"><ele>1454.5</ele><time>2026-04-12T10:45:13.999Z</time></trkpt><trkpt lat="41.9703144033452" lon="13.273823425293072"><ele>1453.6666666666667</ele><time>2026-04-12T10:45:14.999Z</time></trkpt><trkpt lat="41.970249918852616" lon="13.273858776354183"><ele>1452.8333333333333</ele><time>2026-04-12T10:45:15.999Z</time></trkpt><trkpt lat="41.97017479680371" lon="13.273903032557712"><ele>1452.0</ele><time>2026-04-12T10:45:16.999Z</time></trkpt><trkpt lat="41.97007439844704" lon="13.273964139858759"><ele>1457.75</ele><time>2026-04-12T10:45:17.999Z</time></trkpt><trkpt lat="41.96997456099556" lon="13.274006120108583"><ele>1463.5</ele><time>2026-04-12T10:45:18.999Z</time></trkpt><trkpt lat="41.96986955532798" lon="13.274047666960055"><ele>1469.25</ele><time>2026-04-12T10:45:19.999Z</time></trkpt><trkpt lat="41.969765122538185" lon="13.274095331178216"><ele>1475.0</ele><time>2026-04-12T10:45:20.999Z</time></trkpt><trkpt lat="41.96964347353209" lon="13.274154853291522"><ele>1475.0</ele><time>2026-04-12T10:45:21.999Z</time></trkpt><trkpt lat="41.969513742662436" lon="13.274194431046167"><ele>1475.0</ele><time>2026-04-12T10:45:22.999Z</time></trkpt><trkpt lat="41.969385678940895" lon="13.274235501704744"><ele>1475.0</ele><time>2026-04-12T10:45:23.999Z</time></trkpt><trkpt lat="41.96926987122025" lon="13.274266432829984"><ele>1475.0</ele><time>2026-04-12T10:45:24.999Z</time></trkpt><trkpt lat="41.969191133278976" lon="13.27428506937742"><ele>1472.4</ele><time>2026-04-12T10:45:25.999Z</time></trkpt><trkpt lat="41.96907977348402" lon="13.2743403158735"><ele>1469.8</ele><time>2026-04-12T10:45:27.999Z</time></trkpt><trkpt lat="41.96901640070303" lon="13.27439258059208"><ele>1467.1999999999998</ele><time>2026-04-12T10:45:28.999Z</time></trkpt><trkpt lat="41.96896719932312" lon="13.274487129693364"><ele>1464.6</ele><time>2026-04-12T10:45:29.999Z</time></trkpt><trkpt lat="41.96891652240329" lon="13.274610816716102"><ele>1462.0</ele><time>2026-04-12T10:45:30.999Z</time></trkpt><trkpt lat="41.96885437413557" lon="13.274742225642928"><ele>1465.0</ele><time>2026-04-12T10:45:31.999Z</time></trkpt><trkpt lat="41.96882016508473" lon="13.274882128267976"><ele>1468.0</ele><time>2026-04-12T10:45:32.999Z</time></trkpt><trkpt lat="41.968749150989204" lon="13.275013186827454"><ele>1471.0</ele><time>2026-04-12T10:45:33.999Z</time></trkpt><trkpt lat="41.968686329076576" lon="13.275130610000483"><ele>1474.0</ele><time>2026-04-12T10:45:34.999Z</time></trkpt><trkpt lat="41.96863775320518" lon="13.27520260447409"><ele>1477.0</ele><time>2026-04-12T10:45:35.999Z</time></trkpt><trkpt lat="41.96856591760982" lon="13.275278821668918"><ele>1477.0</ele><time>2026-04-12T10:45:36.999Z</time></trkpt><trkpt lat="41.96849729398611" lon="13.275354573765014"><ele>1477.0</ele><time>2026-04-12T10:45:37.999Z</time></trkpt><trkpt lat="41.9684170654393" lon="13.275393202636318"><ele>1477.0</ele><time>2026-04-12T10:45:38.999Z</time></trkpt><trkpt lat="41.96830934210983" lon="13.27540807975972"><ele>1477.0</ele><time>2026-04-12T10:45:39.999Z</time></trkpt><trkpt lat="41.96818809343565" lon="13.275418549351487"><ele>1477.0</ele><time>2026-04-12T10:45:40.999Z</time></trkpt><trkpt lat="41.96805686626457" lon="13.275398329659296"><ele>1472.5</ele><time>2026-04-12T10:45:41.999Z</time></trkpt><trkpt lat="41.9679431393353" lon="13.275373882810756"><ele>1468.0</ele><time>2026-04-12T10:45:42.999Z</time></trkpt><trkpt lat="41.96781170887164" lon="13.2753187380895"><ele>1463.5</ele><time>2026-04-12T10:45:43.999Z</time></trkpt><trkpt lat="41.967674286475436" lon="13.275277179682952"><ele>1459.0</ele><time>2026-04-12T10:45:44.999Z</time></trkpt><trkpt lat="41.967576151843645" lon="13.27525777177076"><ele>1457.4</ele><time>2026-04-12T10:45:45.999Z</time></trkpt><trkpt lat="41.967504201554924" lon="13.275247319684059"><ele>1455.8000000000002</ele><time>2026-04-12T10:45:46.999Z</time></trkpt><trkpt lat="41.967399255088864" lon="13.2752674860868"><ele>1454.1999999999998</ele><time>2026-04-12T10:45:48.999Z</time></trkpt><trkpt lat="41.9673067207974" lon="13.275346338715545"><ele>1452.6</ele><time>2026-04-12T10:45:50.999Z</time></trkpt><trkpt lat="41.96719699684243" lon="13.275466916729266"><ele>1451.0</ele><time>2026-04-12T10:45:52.999Z</time></trkpt><trkpt lat="41.96712643011548" lon="13.275553445937573"><ele>1456.3333333333335</ele><time>2026-04-12T10:45:53.999Z</time></trkpt><trkpt lat="41.96706153805459" lon="13.275624812357842"><ele>1461.6666666666667</ele><time>2026-04-12T10:45:54.999Z</time></trkpt><trkpt lat="41.96700526759309" lon="13.275694630903718"><ele>1467.0</ele><time>2026-04-12T10:45:55.999Z</time></trkpt><trkpt lat="41.966952529661306" lon="13.275776890542096"><ele>1472.3333333333333</ele><time>2026-04-12T10:45:56.999Z</time></trkpt><trkpt lat="41.96689889305332" lon="13.27585051169757"><ele>1477.6666666666665</ele><time>2026-04-12T10:45:57.999Z</time></trkpt><trkpt lat="41.966841641265766" lon="13.275939449845673"><ele>1483.0</ele><time>2026-04-12T10:45:58.999Z</time></trkpt><trkpt lat="41.96677258927185" lon="13.276043091076675"><ele>1483.0</ele><time>2026-04-12T10:45:59.999Z</time></trkpt><trkpt lat="41.966712037926555" lon="13.276125571305691"><ele>1483.0</ele><time>2026-04-12T10:46:00.999Z</time></trkpt><trkpt lat="41.96663626199579" lon="13.276210784573452"><ele>1483.0</ele><time>2026-04-12T10:46:01.999Z</time></trkpt><trkpt lat="41.966550348604294" lon="13.276280853840012"><ele>1483.0</ele><time>2026-04-12T10:46:02.999Z</time></trkpt><trkpt lat="41.96647161154578" lon="13.276357370364039"><ele>1483.0</ele><time>2026-04-12T10:46:03.998Z</time></trkpt><trkpt lat="41.966424244123075" lon="13.276418496095772"><ele>1483.0</ele><time>2026-04-12T10:46:04.998Z</time></trkpt><trkpt lat="41.96636091750415" lon="13.276499150395091"><ele>1484.8000000000002</ele><time>2026-04-12T10:46:05.998Z</time></trkpt><trkpt lat="41.96632359335772" lon="13.276572863939483"><ele>1486.6</ele><time>2026-04-12T10:46:06.998Z</time></trkpt><trkpt lat="41.96625605804406" lon="13.276698039825929"><ele>1488.4</ele><time>2026-04-12T10:46:08.998Z</time></trkpt><trkpt lat="41.966176292951346" lon="13.276790663731632"><ele>1490.1999999999998</ele><time>2026-04-12T10:46:09.998Z</time></trkpt><trkpt lat="41.966051843380754" lon="13.276815895050362"><ele>1492.0</ele><time>2026-04-12T10:46:11.998Z</time></trkpt><trkpt lat="41.96596162342555" lon="13.276795932024152"><ele>1492.0</ele><time>2026-04-12T10:46:12.998Z</time></trkpt><trkpt lat="41.96588918492487" lon="13.27678950511027"><ele>1492.0</ele><time>2026-04-12T10:46:13.998Z</time></trkpt><trkpt lat="41.965828573838536" lon="13.276815401594902"><ele>1492.0</ele><time>2026-04-12T10:46:14.998Z</time></trkpt><trkpt lat="41.9657540946811" lon="13.276920563823037"><ele>1492.0</ele><time>2026-04-12T10:46:16.998Z</time></trkpt><trkpt lat="41.96571086909867" lon="13.277011285925136"><ele>1492.0</ele><time>2026-04-12T10:46:17.998Z</time></trkpt><trkpt lat="41.96565474485798" lon="13.277113475181649"><ele>1492.0</ele><time>2026-04-12T10:46:18.998Z</time></trkpt><trkpt lat="41.965588379208604" lon="13.27721000781135"><ele>1493.3999999999999</ele><time>2026-04-12T10:46:19.998Z</time></trkpt><trkpt lat="41.965525081991515" lon="13.27731049828452"><ele>1494.8</ele><time>2026-04-12T10:46:20.998Z</time></trkpt><trkpt lat="41.965459879154515" lon="13.277427962069229"><ele>1496.2</ele><time>2026-04-12T10:46:21.998Z</time></trkpt><trkpt lat="41.96541727845751" lon="13.277523910641726"><ele>1497.6</ele><time>2026-04-12T10:46:22.998Z</time></trkpt><trkpt lat="41.96536366216006" lon="13.277606405591419"><ele>1499.0</ele><time>2026-04-12T10:46:23.998Z</time></trkpt><trkpt lat="41.96529208346138" lon="13.277670964880723"><ele>1499.0</ele><time>2026-04-12T10:46:24.998Z</time></trkpt><trkpt lat="41.96521205221299" lon="13.277713778024857"><ele>1499.0</ele><time>2026-04-12T10:46:25.998Z</time></trkpt><trkpt lat="41.96513239161578" lon="13.277760612189303"><ele>1499.0</ele><time>2026-04-12T10:46:26.998Z</time></trkpt><trkpt lat="41.96506546717125" lon="13.277823386783576"><ele>1499.0</ele><time>2026-04-12T10:46:27.998Z</time></trkpt><trkpt lat="41.96501410655526" lon="13.277932249767064"><ele>1499.0</ele><time>2026-04-12T10:46:28.998Z</time></trkpt><trkpt lat="41.96497534655587" lon="13.278056637717139"><ele>1496.25</ele><time>2026-04-12T10:46:29.998Z</time></trkpt><trkpt lat="41.96491519839627" lon="13.278232790877139"><ele>1493.5</ele><time>2026-04-12T10:46:30.998Z</time></trkpt><trkpt lat="41.964857377476086" lon="13.278410936529111"><ele>1490.75</ele><time>2026-04-12T10:46:31.998Z</time></trkpt><trkpt lat="41.96484324121234" lon="13.278535319654445"><ele>1488.0</ele><time>2026-04-12T10:46:32.998Z</time></trkpt><trkpt lat="41.96479517581851" lon="13.278649569319393"><ele>1488.0</ele><time>2026-04-12T10:46:33.998Z</time></trkpt><trkpt lat="41.964745020935425" lon="13.278769866721223"><ele>1488.0</ele><time>2026-04-12T10:46:34.998Z</time></trkpt><trkpt lat="41.964676988020464" lon="13.278917282663956"><ele>1488.0</ele><time>2026-04-12T10:46:35.998Z</time></trkpt><trkpt lat="41.96461578002301" lon="13.279030307103268"><ele>1488.0</ele><time>2026-04-12T10:46:36.998Z</time></trkpt><trkpt lat="41.96456407832986" lon="13.279148074870003"><ele>1488.0</ele><time>2026-04-12T10:46:37.998Z</time></trkpt><trkpt lat="41.96450316479941" lon="13.279244995930757"><ele>1486.8000000000002</ele><time>2026-04-12T10:46:38.998Z</time></trkpt><trkpt lat="41.96443172043186" lon="13.279306764325943"><ele>1485.6</ele><time>2026-04-12T10:46:39.998Z</time></trkpt><trkpt lat="41.9643518085759" lon="13.279359235787222"><ele>1484.4</ele><time>2026-04-12T10:46:40.998Z</time></trkpt><trkpt lat="41.96424914626283" lon="13.27942402087841"><ele>1483.1999999999998</ele><time>2026-04-12T10:46:42.999Z</time></trkpt><trkpt lat="41.96417217836628" lon="13.279525244674472"><ele>1482.0</ele><time>2026-04-12T10:46:44.999Z</time></trkpt><trkpt lat="41.964135625475485" lon="13.279604796808426"><ele>1482.0</ele><time>2026-04-12T10:46:45.999Z</time></trkpt><trkpt lat="41.96409519183276" lon="13.279678544017223"><ele>1482.0</ele><time>2026-04-12T10:46:47.999Z</time></trkpt><trkpt lat="41.963987336342356" lon="13.27973086132155"><ele>1482.0</ele><time>2026-04-12T10:46:49.999Z</time></trkpt><trkpt lat="41.96390302531955" lon="13.279764888945692"><ele>1482.0</ele><time>2026-04-12T10:46:50.999Z</time></trkpt><trkpt lat="41.963835457218124" lon="13.279791893492533"><ele>1482.0</ele><time>2026-04-12T10:46:51.999Z</time></trkpt><trkpt lat="41.96374194882699" lon="13.279879043343042"><ele>1488.25</ele><time>2026-04-12T10:46:53.999Z</time></trkpt><trkpt lat="41.963651377718314" lon="13.28001162382331"><ele>1494.5</ele><time>2026-04-12T10:46:55.999Z</time></trkpt><trkpt lat="41.96351816217734" lon="13.280166342153423"><ele>1500.75</ele><time>2026-04-12T10:46:57.999Z</time></trkpt><trkpt lat="41.96348720620087" lon="13.280257677039847"><ele>1507.0</ele><time>2026-04-12T10:46:58.999Z</time></trkpt><trkpt lat="41.96345086911835" lon="13.280351053231856"><ele>1507.0</ele><time>2026-04-12T10:46:59.999Z</time></trkpt><trkpt lat="41.96339409808198" lon="13.28043504869801"><ele>1507.0</ele><time>2026-04-12T10:47:00.999Z</time></trkpt><trkpt lat="41.9633375409697" lon="13.280501522229645"><ele>1507.0</ele><time>2026-04-12T10:47:01.999Z</time></trkpt><trkpt lat="41.96327354852758" lon="13.280564576991267"><ele>1507.0</ele><time>2026-04-12T10:47:02.999Z</time></trkpt><trkpt lat="41.96321692502412" lon="13.280635542576492"><ele>1507.0</ele><time>2026-04-12T10:47:03.999Z</time></trkpt><trkpt lat="41.96316023632629" lon="13.280705321663559"><ele>1507.0</ele><time>2026-04-12T10:47:04.999Z</time></trkpt><trkpt lat="41.96310769025888" lon="13.280767150345516"><ele>1506.8333333333333</ele><time>2026-04-12T10:47:05.999Z</time></trkpt><trkpt lat="41.96308811820115" lon="13.280890022960131"><ele>1506.6666666666665</ele><time>2026-04-12T10:47:07.999Z</time></trkpt><trkpt lat="41.96306983236234" lon="13.281027393082958"><ele>1506.5</ele><time>2026-04-12T10:47:09.999Z</time></trkpt><trkpt lat="41.963039386103326" lon="13.281132610064114"><ele>1506.3333333333333</ele><time>2026-04-12T10:47:10.999Z</time></trkpt><trkpt lat="41.96299721320164" lon="13.28123107622629"><ele>1506.1666666666667</ele><time>2026-04-12T10:47:11.999Z</time></trkpt><trkpt lat="41.962972095293416" lon="13.28130929476771"><ele>1506.0</ele><time>2026-04-12T10:47:12.999Z</time></trkpt><trkpt lat="41.96295034119832" lon="13.281391240789786"><ele>1510.8</ele><time>2026-04-12T10:47:13.999Z</time></trkpt><trkpt lat="41.9629264330948" lon="13.281513007508481"><ele>1515.6</ele><time>2026-04-12T10:47:14.999Z</time></trkpt><trkpt lat="41.962901786080344" lon="13.281621460851156"><ele>1520.4</ele><time>2026-04-12T10:47:15.999Z</time></trkpt><trkpt lat="41.962831231383475" lon="13.281801061103977"><ele>1525.2</ele><time>2026-04-12T10:47:17.999Z</time></trkpt><trkpt lat="41.96278139680055" lon="13.281921293882775"><ele>1530.0</ele><time>2026-04-12T10:47:18.999Z</time></trkpt><trkpt lat="41.9627261159853" lon="13.281994298281768"><ele>1530.0</ele><time>2026-04-12T10:47:19.999Z</time></trkpt><trkpt lat="41.962671886350606" lon="13.282137764951115"><ele>1530.0</ele><time>2026-04-12T10:47:20.999Z</time></trkpt><trkpt lat="41.96261591821053" lon="13.282233964027883"><ele>1530.0</ele><time>2026-04-12T10:47:21.999Z</time></trkpt><trkpt lat="41.96253223830061" lon="13.282332485177085"><ele>1530.0</ele><time>2026-04-12T10:47:22.999Z</time></trkpt><trkpt lat="41.96249413465795" lon="13.282406024996748"><ele>1530.0</ele><time>2026-04-12T10:47:23.999Z</time></trkpt><trkpt lat="41.96244341674539" lon="13.282503236173095"><ele>1527.6</ele><time>2026-04-12T10:47:25.999Z</time></trkpt><trkpt lat="41.96241763110885" lon="13.282618217432628"><ele>1525.2</ele><time>2026-04-12T10:47:27.999Z</time></trkpt><trkpt lat="41.962371879527886" lon="13.282777830225493"><ele>1522.8000000000002</ele><time>2026-04-12T10:47:29.999Z</time></trkpt><trkpt lat="41.96231899106677" lon="13.282848989091162"><ele>1520.4</ele><time>2026-04-12T10:47:30.999Z</time></trkpt><trkpt lat="41.96226069424643" lon="13.282958917175472"><ele>1518.0</ele><time>2026-04-12T10:47:31.999Z</time></trkpt><trkpt lat="41.96218659286705" lon="13.28307104665606"><ele>1520.8333333333333</ele><time>2026-04-12T10:47:32.999Z</time></trkpt><trkpt lat="41.96211754204607" lon="13.283186116847626"><ele>1523.6666666666667</ele><time>2026-04-12T10:47:33.999Z</time></trkpt><trkpt lat="41.96205557285653" lon="13.283286023853279"><ele>1526.5</ele><time>2026-04-12T10:47:34.999Z</time></trkpt><trkpt lat="41.962003908006984" lon="13.283364736215328"><ele>1529.3333333333335</ele><time>2026-04-12T10:47:35.999Z</time></trkpt><trkpt lat="41.96194896137304" lon="13.2834424484796"><ele>1532.1666666666667</ele><time>2026-04-12T10:47:36.999Z</time></trkpt><trkpt lat="41.96188633033793" lon="13.283514661673077"><ele>1535.0</ele><time>2026-04-12T10:47:37.999Z</time></trkpt><trkpt lat="41.96182866900659" lon="13.28356208358796"><ele>1535.0</ele><time>2026-04-12T10:47:38.999Z</time></trkpt><trkpt lat="41.961798971649536" lon="13.283636800054268"><ele>1535.0</ele><time>2026-04-12T10:47:40.999Z</time></trkpt><trkpt lat="41.96172412471076" lon="13.283711896043421"><ele>1535.0</ele><time>2026-04-12T10:47:42.999Z</time></trkpt><trkpt lat="41.96165861429352" lon="13.28376520981005"><ele>1535.0</ele><time>2026-04-12T10:47:44.999Z</time></trkpt><trkpt lat="41.96159597604671" lon="13.28385213070726"><ele>1535.0</ele><time>2026-04-12T10:47:46.999Z</time></trkpt><trkpt lat="41.96152720192622" lon="13.283925656262443"><ele>1535.0</ele><time>2026-04-12T10:47:48.999Z</time></trkpt><trkpt lat="41.96146545908111" lon="13.28397950216559"><ele>1531.8333333333335</ele><time>2026-04-12T10:47:50.999Z</time></trkpt><trkpt lat="41.96141237389899" lon="13.284052692096674"><ele>1528.6666666666667</ele><time>2026-04-12T10:47:53.999Z</time></trkpt><trkpt lat="41.961362357637626" lon="13.284137675840498"><ele>1525.5</ele><time>2026-04-12T10:47:56.999Z</time></trkpt><trkpt lat="41.961304296158545" lon="13.284215685416356"><ele>1522.3333333333333</ele><time>2026-04-12T10:47:58.999Z</time></trkpt><trkpt lat="41.961236558639925" lon="13.284317381028453"><ele>1519.1666666666665</ele><time>2026-04-12T10:48:00.999Z</time></trkpt><trkpt lat="41.9611536246275" lon="13.284378430694652"><ele>1516.0</ele><time>2026-04-12T10:48:02.999Z</time></trkpt><trkpt lat="41.961085922520446" lon="13.284443619058361"><ele>1516.0</ele><time>2026-04-12T10:48:04.999Z</time></trkpt><trkpt lat="41.96104719352612" lon="13.284513807144162"><ele>1516.0</ele><time>2026-04-12T10:48:06.999Z</time></trkpt><trkpt lat="41.961035066850904" lon="13.284597230639875"><ele>1516.0</ele><time>2026-04-12T10:48:08.999Z</time></trkpt><trkpt lat="41.96095035361142" lon="13.284749065388155"><ele>1516.0</ele><time>2026-04-12T10:48:09.999Z</time></trkpt><trkpt lat="41.960902117428546" lon="13.28485820368776"><ele>1516.0</ele><time>2026-04-12T10:48:11.999Z</time></trkpt><trkpt lat="41.96081777182643" lon="13.284969294302297"><ele>1510.8</ele><time>2026-04-12T10:48:13.999Z</time></trkpt><trkpt lat="41.96075494397346" lon="13.284998251181255"><ele>1505.6</ele><time>2026-04-12T10:48:14.999Z</time></trkpt><trkpt lat="41.96065238117876" lon="13.285056820035107"><ele>1500.4</ele><time>2026-04-12T10:48:16.999Z</time></trkpt><trkpt lat="41.96060333260995" lon="13.285190903361826"><ele>1495.2</ele><time>2026-04-12T10:48:18.998Z</time></trkpt><trkpt lat="41.960560112320024" lon="13.285321746676793"><ele>1490.0</ele><time>2026-04-12T10:48:19.998Z</time></trkpt><trkpt lat="41.96052075602741" lon="13.28546053720546"><ele>1490.0</ele><time>2026-04-12T10:48:20.998Z</time></trkpt><trkpt lat="41.96045233933914" lon="13.285570546017054"><ele>1490.0</ele><time>2026-04-12T10:48:21.998Z</time></trkpt><trkpt lat="41.96040272881221" lon="13.285636914181186"><ele>1490.0</ele><time>2026-04-12T10:48:22.998Z</time></trkpt><trkpt lat="41.96032282866265" lon="13.285689075070465"><ele>1490.0</ele><time>2026-04-12T10:48:23.998Z</time></trkpt><trkpt lat="41.96024022893564" lon="13.285715942248595"><ele>1490.0</ele><time>2026-04-12T10:48:24.998Z</time></trkpt><trkpt lat="41.96015649181303" lon="13.285736226124927"><ele>1490.0</ele><time>2026-04-12T10:48:25.998Z</time></trkpt><trkpt lat="41.96006496525318" lon="13.285791696570834"><ele>1488.0</ele><time>2026-04-12T10:48:26.998Z</time></trkpt><trkpt lat="41.959983175239685" lon="13.285852400372702"><ele>1486.0</ele><time>2026-04-12T10:48:27.998Z</time></trkpt><trkpt lat="41.95988079629421" lon="13.285930447213893"><ele>1484.0</ele><time>2026-04-12T10:48:28.998Z</time></trkpt><trkpt lat="41.95982352138516" lon="13.285976597186107"><ele>1482.0</ele><time>2026-04-12T10:48:29.998Z</time></trkpt><trkpt lat="41.95974980026832" lon="13.286104978266206"><ele>1480.0</ele><time>2026-04-12T10:48:31.998Z</time></trkpt><trkpt lat="41.95971752314244" lon="13.286218538056284"><ele>1480.0</ele><time>2026-04-12T10:48:32.998Z</time></trkpt><trkpt lat="41.959699026601704" lon="13.286352255935366"><ele>1480.0</ele><time>2026-04-12T10:48:33.998Z</time></trkpt><trkpt lat="41.959652181096644" lon="13.286468324311869"><ele>1480.0</ele><time>2026-04-12T10:48:34.998Z</time></trkpt><trkpt lat="41.95959289490618" lon="13.286545887170355"><ele>1480.0</ele><time>2026-04-12T10:48:35.998Z</time></trkpt><trkpt lat="41.95952681349853" lon="13.28662585120446"><ele>1480.0</ele><time>2026-04-12T10:48:36.998Z</time></trkpt><trkpt lat="41.95945121317081" lon="13.28667447229195"><ele>1477.0</ele><time>2026-04-12T10:48:37.998Z</time></trkpt><trkpt lat="41.95938911851691" lon="13.286740964489711"><ele>1474.0</ele><time>2026-04-12T10:48:38.998Z</time></trkpt><trkpt lat="41.95932925720332" lon="13.286847864606505"><ele>1471.0</ele><time>2026-04-12T10:48:39.998Z</time></trkpt><trkpt lat="41.959289492732545" lon="13.286954447739154"><ele>1468.0</ele><time>2026-04-12T10:48:40.998Z</time></trkpt><trkpt lat="41.959231973016045" lon="13.287068146068187"><ele>1465.0</ele><time>2026-04-12T10:48:41.998Z</time></trkpt><trkpt lat="41.95916980406177" lon="13.287157983334101"><ele>1465.0</ele><time>2026-04-12T10:48:42.998Z</time></trkpt><trkpt lat="41.95911326252686" lon="13.287236877183306"><ele>1465.0</ele><time>2026-04-12T10:48:43.998Z</time></trkpt><trkpt lat="41.95905621045601" lon="13.28733577924599"><ele>1465.0</ele><time>2026-04-12T10:48:44.998Z</time></trkpt><trkpt lat="41.959029514183776" lon="13.287464927954693"><ele>1465.0</ele><time>2026-04-12T10:48:45.998Z</time></trkpt><trkpt lat="41.959012653363864" lon="13.28759651237816"><ele>1465.0</ele><time>2026-04-12T10:48:46.998Z</time></trkpt><trkpt lat="41.95899535395171" lon="13.287715103909187"><ele>1468.25</ele><time>2026-04-12T10:48:47.998Z</time></trkpt><trkpt lat="41.95897862406893" lon="13.287869464926299"><ele>1471.5</ele><time>2026-04-12T10:48:48.999Z</time></trkpt><trkpt lat="41.95895737110308" lon="13.288027009508282"><ele>1474.75</ele><time>2026-04-12T10:48:49.999Z</time></trkpt><trkpt lat="41.958954826802504" lon="13.28818535828836"><ele>1478.0</ele><time>2026-04-12T10:48:50.999Z</time></trkpt><trkpt lat="41.95896617128613" lon="13.288336042749284"><ele>1478.8333333333335</ele><time>2026-04-12T10:48:51.999Z</time></trkpt><trkpt lat="41.958970509051476" lon="13.288502351128088"><ele>1479.6666666666667</ele><time>2026-04-12T10:48:52.999Z</time></trkpt><trkpt lat="41.95897710982781" lon="13.28861811558405"><ele>1480.5</ele><time>2026-04-12T10:48:53.999Z</time></trkpt><trkpt lat="41.9589905161793" lon="13.288700931426561"><ele>1481.3333333333333</ele><time>2026-04-12T10:48:54.999Z</time></trkpt><trkpt lat="41.9590112236263" lon="13.288794067552873"><ele>1482.1666666666665</ele><time>2026-04-12T10:48:55.999Z</time></trkpt><trkpt lat="41.95901053766274" lon="13.288901992420287"><ele>1483.0</ele><time>2026-04-12T10:48:56.999Z</time></trkpt><trkpt lat="41.959044705996945" lon="13.28899275498035"><ele>1483.0</ele><time>2026-04-12T10:48:57.999Z</time></trkpt><trkpt lat="41.958991095036644" lon="13.28916345786241"><ele>1483.0</ele><time>2026-04-12T10:49:00Z</time></trkpt><trkpt lat="41.95892811695623" lon="13.289273357544717"><ele>1483.0</ele><time>2026-04-12T10:49:01Z</time></trkpt><trkpt lat="41.958878794076696" lon="13.289372592894132"><ele>1483.0</ele><time>2026-04-12T10:49:02Z</time></trkpt><trkpt lat="41.958813587505844" lon="13.289425860865968"><ele>1483.0</ele><time>2026-04-12T10:49:05Z</time></trkpt><trkpt lat="41.95869023736573" lon="13.2894281465569"><ele>1483.0</ele><time>2026-04-12T10:49:07Z</time></trkpt><trkpt lat="41.95861671068042" lon="13.289442977161542"><ele>1483.0</ele><time>2026-04-12T10:49:08Z</time></trkpt><trkpt lat="41.95855668087172" lon="13.28950400055192"><ele>1483.0</ele><time>2026-04-12T10:49:09Z</time></trkpt><trkpt lat="41.95850373740617" lon="13.289580299218093"><ele>1483.0</ele><time>2026-04-12T10:49:09.999Z</time></trkpt><trkpt lat="41.95846364755736" lon="13.289677557552565"><ele>1483.0</ele><time>2026-04-12T10:49:10.999Z</time></trkpt><trkpt lat="41.958428792751455" lon="13.289799655613072"><ele>1483.0</ele><time>2026-04-12T10:49:11.999Z</time></trkpt><trkpt lat="41.95840188432811" lon="13.289935380760667"><ele>1482.3333333333333</ele><time>2026-04-12T10:49:12.999Z</time></trkpt><trkpt lat="41.95838640580334" lon="13.290063893598521"><ele>1481.6666666666665</ele><time>2026-04-12T10:49:13.999Z</time></trkpt><trkpt lat="41.958394489945626" lon="13.290185823876879"><ele>1481.0</ele><time>2026-04-12T10:49:14.999Z</time></trkpt><trkpt lat="41.95837799288264" lon="13.290295009595212"><ele>1480.3333333333333</ele><time>2026-04-12T10:49:15.999Z</time></trkpt><trkpt lat="41.95836655464291" lon="13.29038574286646"><ele>1479.6666666666667</ele><time>2026-04-12T10:49:16.999Z</time></trkpt><trkpt lat="41.95829191585801" lon="13.29042620924832"><ele>1479.0</ele><time>2026-04-12T10:49:17.999Z</time></trkpt><trkpt lat="41.95821828011622" lon="13.290481543271348"><ele>1479.0</ele><time>2026-04-12T10:49:18.999Z</time></trkpt><trkpt lat="41.95813246313778" lon="13.2905217440606"><ele>1479.0</ele><time>2026-04-12T10:49:19.999Z</time></trkpt><trkpt lat="41.95803720843181" lon="13.290586435230573"><ele>1479.0</ele><time>2026-04-12T10:49:20.999Z</time></trkpt><trkpt lat="41.95795006169874" lon="13.290660200692475"><ele>1479.0</ele><time>2026-04-12T10:49:21.999Z</time></trkpt><trkpt lat="41.957879802866415" lon="13.290732034921422"><ele>1479.0</ele><time>2026-04-12T10:49:22.999Z</time></trkpt><trkpt lat="41.957806170417435" lon="13.29079016393252"><ele>1481.8000000000002</ele><time>2026-04-12T10:49:23.999Z</time></trkpt><trkpt lat="41.9577539005001" lon="13.29084949385136"><ele>1484.6000000000001</ele><time>2026-04-12T10:49:24.999Z</time></trkpt><trkpt lat="41.957707456535736" lon="13.291021608053004"><ele>1487.4</ele><time>2026-04-12T10:49:26.999Z</time></trkpt><trkpt lat="41.957683173639346" lon="13.291167670585065"><ele>1490.2</ele><time>2026-04-12T10:49:27.999Z</time></trkpt><trkpt lat="41.95767531880854" lon="13.291306435781635"><ele>1493.0</ele><time>2026-04-12T10:49:28.999Z</time></trkpt><trkpt lat="41.95765949120628" lon="13.2914520096344"><ele>1495.5</ele><time>2026-04-12T10:49:29.999Z</time></trkpt><trkpt lat="41.957675159415935" lon="13.291541078130253"><ele>1498.0</ele><time>2026-04-12T10:49:30.999Z</time></trkpt><trkpt lat="41.957674755629945" lon="13.291643524373718"><ele>1500.5</ele><time>2026-04-12T10:49:31.999Z</time></trkpt><trkpt lat="41.95764194150659" lon="13.29174637045616"><ele>1503.0</ele><time>2026-04-12T10:49:32.999Z</time></trkpt><trkpt lat="41.95760339717119" lon="13.291828646313004"><ele>1505.5</ele><time>2026-04-12T10:49:33.999Z</time></trkpt><trkpt lat="41.95758324265512" lon="13.291924709287105"><ele>1508.0</ele><time>2026-04-12T10:49:34.999Z</time></trkpt><trkpt lat="41.957556029695496" lon="13.292045970231722"><ele>1503.6000000000001</ele><time>2026-04-12T10:49:36.999Z</time></trkpt><trkpt lat="41.957485650577404" lon="13.292101061923121"><ele>1499.2</ele><time>2026-04-12T10:49:37.999Z</time></trkpt><trkpt lat="41.957404476016876" lon="13.292114990746223"><ele>1494.8</ele><time>2026-04-12T10:49:38.999Z</time></trkpt><trkpt lat="41.95732696304856" lon="13.292076304441622"><ele>1490.4</ele><time>2026-04-12T10:49:39.999Z</time></trkpt><trkpt lat="41.95722472067489" lon="13.29201228781776"><ele>1486.0</ele><time>2026-04-12T10:49:40.999Z</time></trkpt><trkpt lat="41.95714065492192" lon="13.291941871268389"><ele>1486.0</ele><time>2026-04-12T10:49:41.999Z</time></trkpt><trkpt lat="41.957063060969354" lon="13.291903086482144"><ele>1486.0</ele><time>2026-04-12T10:49:42.999Z</time></trkpt><trkpt lat="41.9569814755782" lon="13.29189819819038"><ele>1486.0</ele><time>2026-04-12T10:49:43.999Z</time></trkpt><trkpt lat="41.95687742317382" lon="13.291895985131834"><ele>1486.0</ele><time>2026-04-12T10:49:44.999Z</time></trkpt><trkpt lat="41.95679525783796" lon="13.291909689389323"><ele>1486.0</ele><time>2026-04-12T10:49:45.999Z</time></trkpt><trkpt lat="41.95672145067959" lon="13.29193443760411"><ele>1486.0</ele><time>2026-04-12T10:49:46.999Z</time></trkpt><trkpt lat="41.95666791254584" lon="13.29198114460963"><ele>1485.4</ele><time>2026-04-12T10:49:47.999Z</time></trkpt><trkpt lat="41.95663041395916" lon="13.292141867724672"><ele>1484.8</ele><time>2026-04-12T10:49:49.999Z</time></trkpt><trkpt lat="41.9566030992871" lon="13.292272292347276"><ele>1484.2</ele><time>2026-04-12T10:49:50.999Z</time></trkpt><trkpt lat="41.956562312546666" lon="13.29237554629935"><ele>1483.6000000000001</ele><time>2026-04-12T10:49:51.999Z</time></trkpt><trkpt lat="41.956503305227244" lon="13.292426250479181"><ele>1483.0</ele><time>2026-04-12T10:49:52.999Z</time></trkpt><trkpt lat="41.95643282175494" lon="13.292434511084844"><ele>1485.8000000000002</ele><time>2026-04-12T10:49:53.999Z</time></trkpt><trkpt lat="41.95636669585286" lon="13.292403409578275"><ele>1488.6</ele><time>2026-04-12T10:49:54.999Z</time></trkpt><trkpt lat="41.956284524700514" lon="13.29234702097338"><ele>1491.4</ele><time>2026-04-12T10:49:55.999Z</time></trkpt><trkpt lat="41.95619909360381" lon="13.292318855030844"><ele>1494.1999999999998</ele><time>2026-04-12T10:49:56.999Z</time></trkpt><trkpt lat="41.956068762851984" lon="13.292309198609798"><ele>1497.0</ele><time>2026-04-12T10:49:57.999Z</time></trkpt><trkpt lat="41.955943209777345" lon="13.292258231555206"><ele>1496.3999999999999</ele><time>2026-04-12T10:49:58.999Z</time></trkpt><trkpt lat="41.95584262533109" lon="13.292230864158274"><ele>1495.8</ele><time>2026-04-12T10:49:59.999Z</time></trkpt><trkpt lat="41.9557408545514" lon="13.292226795136061"><ele>1495.2</ele><time>2026-04-12T10:50:00.999Z</time></trkpt><trkpt lat="41.95563532508418" lon="13.29221565294586"><ele>1494.6</ele><time>2026-04-12T10:50:01.999Z</time></trkpt><trkpt lat="41.955541694351744" lon="13.29223786868368"><ele>1494.0</ele><time>2026-04-12T10:50:02.999Z</time></trkpt><trkpt lat="41.95546596628916" lon="13.292280945110008"><ele>1494.0</ele><time>2026-04-12T10:50:03.999Z</time></trkpt><trkpt lat="41.9554233910869" lon="13.292347463924912"><ele>1494.0</ele><time>2026-04-12T10:50:04.999Z</time></trkpt><trkpt lat="41.95537846638062" lon="13.292502180012146"><ele>1494.0</ele><time>2026-04-12T10:50:06.999Z</time></trkpt><trkpt lat="41.95532801349815" lon="13.292644186688708"><ele>1494.0</ele><time>2026-04-12T10:50:07.999Z</time></trkpt><trkpt lat="41.955293129361635" lon="13.29276115382451"><ele>1494.0</ele><time>2026-04-12T10:50:08.999Z</time></trkpt><trkpt lat="41.955242859557195" lon="13.292848974478407"><ele>1494.0</ele><time>2026-04-12T10:50:09.999Z</time></trkpt><trkpt lat="41.9551967684257" lon="13.2929422749638"><ele>1494.0</ele><time>2026-04-12T10:50:10.999Z</time></trkpt><trkpt lat="41.9550825668834" lon="13.292935423579104"><ele>1494.0</ele><time>2026-04-12T10:50:11.999Z</time></trkpt><trkpt lat="41.95500210251287" lon="13.29293454777092"><ele>1494.0</ele><time>2026-04-12T10:50:12.999Z</time></trkpt><trkpt lat="41.95491957338279" lon="13.29292079217909"><ele>1494.0</ele><time>2026-04-12T10:50:13.999Z</time></trkpt><trkpt lat="41.95484295590223" lon="13.292957508941548"><ele>1494.0</ele><time>2026-04-12T10:50:14.999Z</time></trkpt><trkpt lat="41.95478322413208" lon="13.293001682652323"><ele>1493.5</ele><time>2026-04-12T10:50:15.999Z</time></trkpt><trkpt lat="41.954727485436386" lon="13.29313670126845"><ele>1493.0</ele><time>2026-04-12T10:50:17.999Z</time></trkpt><trkpt lat="41.95471471322723" lon="13.293223067174548"><ele>1492.5</ele><time>2026-04-12T10:50:18.999Z</time></trkpt><trkpt lat="41.95470846142613" lon="13.293331973076963"><ele>1492.0</ele><time>2026-04-12T10:50:19.999Z</time></trkpt><trkpt lat="41.95471625169094" lon="13.29345271465252"><ele>1491.5</ele><time>2026-04-12T10:50:20.999Z</time></trkpt><trkpt lat="41.9547064577047" lon="13.293579957077865"><ele>1491.0</ele><time>2026-04-12T10:50:21.999Z</time></trkpt><trkpt lat="41.95465636773505" lon="13.2936980986299"><ele>1491.0</ele><time>2026-04-12T10:50:22.999Z</time></trkpt><trkpt lat="41.954574179129736" lon="13.293824682436105"><ele>1491.0</ele><time>2026-04-12T10:50:23.999Z</time></trkpt><trkpt lat="41.95447123437872" lon="13.293931659414826"><ele>1491.0</ele><time>2026-04-12T10:50:24.999Z</time></trkpt><trkpt lat="41.95437767387294" lon="13.29404194143167"><ele>1491.0</ele><time>2026-04-12T10:50:25.999Z</time></trkpt><trkpt lat="41.954278079430686" lon="13.294107280801068"><ele>1489.8</ele><time>2026-04-12T10:50:26.999Z</time></trkpt><trkpt lat="41.95419286038613" lon="13.294170588745873"><ele>1488.6</ele><time>2026-04-12T10:50:27.999Z</time></trkpt><trkpt lat="41.95412344176311" lon="13.294243626556314"><ele>1487.4</ele><time>2026-04-12T10:50:28.999Z</time></trkpt><trkpt lat="41.954044234813004" lon="13.294391547578323"><ele>1486.2</ele><time>2026-04-12T10:50:30.999Z</time></trkpt><trkpt lat="41.95401818141158" lon="13.294505071286128"><ele>1485.0</ele><time>2026-04-12T10:50:31.998Z</time></trkpt><trkpt lat="41.953976096709496" lon="13.2946541429697"><ele>1487.0</ele><time>2026-04-12T10:50:32.998Z</time></trkpt><trkpt lat="41.953919228908205" lon="13.294811588734945"><ele>1489.0</ele><time>2026-04-12T10:50:33.998Z</time></trkpt><trkpt lat="41.95385583206957" lon="13.29495126153541"><ele>1491.0</ele><time>2026-04-12T10:50:34.998Z</time></trkpt><trkpt lat="41.95379032017719" lon="13.295049129452819"><ele>1493.0</ele><time>2026-04-12T10:50:35.998Z</time></trkpt><trkpt lat="41.95368842728564" lon="13.29509405436019"><ele>1493.0</ele><time>2026-04-12T10:50:36.998Z</time></trkpt><trkpt lat="41.95359663289629" lon="13.29516260609128"><ele>1493.0</ele><time>2026-04-12T10:50:37.998Z</time></trkpt><trkpt lat="41.95349057952463" lon="13.295189669738708"><ele>1493.0</ele><time>2026-04-12T10:50:38.998Z</time></trkpt><trkpt lat="41.95338632366475" lon="13.29516676149168"><ele>1493.0</ele><time>2026-04-12T10:50:39.998Z</time></trkpt><trkpt lat="41.953281052135715" lon="13.29514367727006"><ele>1493.0</ele><time>2026-04-12T10:50:40.998Z</time></trkpt><trkpt lat="41.953182798743114" lon="13.295115090360142"><ele>1491.1666666666667</ele><time>2026-04-12T10:50:41.998Z</time></trkpt><trkpt lat="41.9530956235345" lon="13.29510255113574"><ele>1489.3333333333335</ele><time>2026-04-12T10:50:42.998Z</time></trkpt><trkpt lat="41.95302236233336" lon="13.295092616179168"><ele>1487.5</ele><time>2026-04-12T10:50:43.998Z</time></trkpt><trkpt lat="41.952944891079746" lon="13.295093339019855"><ele>1485.6666666666667</ele><time>2026-04-12T10:50:44.998Z</time></trkpt><trkpt lat="41.952874888557524" lon="13.295131771227783"><ele>1483.8333333333333</ele><time>2026-04-12T10:50:45.998Z</time></trkpt><trkpt lat="41.9528260978387" lon="13.29519594605177"><ele>1482.0</ele><time>2026-04-12T10:50:46.998Z</time></trkpt><trkpt lat="41.95272471472223" lon="13.295312073712662"><ele>1482.0</ele><time>2026-04-12T10:50:48.998Z</time></trkpt><trkpt lat="41.95264498291247" lon="13.295384810727993"><ele>1482.0</ele><time>2026-04-12T10:50:49.998Z</time></trkpt><trkpt lat="41.95255930350387" lon="13.295440121337906"><ele>1482.0</ele><time>2026-04-12T10:50:50.998Z</time></trkpt><trkpt lat="41.95247460133745" lon="13.29548403567368"><ele>1482.0</ele><time>2026-04-12T10:50:51.998Z</time></trkpt><trkpt lat="41.95238250166801" lon="13.295525398036803"><ele>1482.0</ele><time>2026-04-12T10:50:52.998Z</time></trkpt><trkpt lat="41.95231673267935" lon="13.295571788633662"><ele>1481.6</ele><time>2026-04-12T10:50:53.998Z</time></trkpt><trkpt lat="41.95225147925419" lon="13.295630115140506"><ele>1481.1999999999998</ele><time>2026-04-12T10:50:55Z</time></trkpt><trkpt lat="41.95214198457756" lon="13.295722816638566"><ele>1480.8</ele><time>2026-04-12T10:50:57Z</time></trkpt><trkpt lat="41.95204554829943" lon="13.295798657205914"><ele>1480.4</ele><time>2026-04-12T10:50:59Z</time></trkpt><trkpt lat="41.951962912077995" lon="13.29588656215997"><ele>1480.0</ele><time>2026-04-12T10:51:01Z</time></trkpt><trkpt lat="41.95192927772653" lon="13.295990523304635"><ele>1480.0</ele><time>2026-04-12T10:51:04Z</time></trkpt><trkpt lat="41.951907559488255" lon="13.296126076589527"><ele>1480.0</ele><time>2026-04-12T10:51:06Z</time></trkpt><trkpt lat="41.9518568166438" lon="13.296283080229125"><ele>1480.0</ele><time>2026-04-12T10:51:08Z</time></trkpt><trkpt lat="41.95182242839068" lon="13.296360878356364"><ele>1480.0</ele><time>2026-04-12T10:51:09Z</time></trkpt><trkpt lat="41.95177916514205" lon="13.2964356744886"><ele>1480.0</ele><time>2026-04-12T10:51:10Z</time></trkpt><trkpt lat="41.951751089093904" lon="13.296578799101328"><ele>1479.7142857142856</ele><time>2026-04-12T10:51:12Z</time></trkpt><trkpt lat="41.95175418331394" lon="13.296676537056864"><ele>1479.4285714285713</ele><time>2026-04-12T10:51:13Z</time></trkpt><trkpt lat="41.95173501051858" lon="13.296774367017536"><ele>1479.142857142857</ele><time>2026-04-12T10:51:14Z</time></trkpt><trkpt lat="41.951714228179014" lon="13.296865641309216"><ele>1478.8571428571427</ele><time>2026-04-12T10:51:15Z</time></trkpt><trkpt lat="41.95170485292098" lon="13.296972440267705"><ele>1478.5714285714287</ele><time>2026-04-12T10:51:16Z</time></trkpt><trkpt lat="41.95167933652246" lon="13.297062468364642"><ele>1478.2857142857142</ele><time>2026-04-12T10:51:17Z</time></trkpt><trkpt lat="41.951663369293435" lon="13.297165932729218"><ele>1478.0</ele><time>2026-04-12T10:51:18Z</time></trkpt><trkpt lat="41.95164643471019" lon="13.297270525219021"><ele>1478.1666666666667</ele><time>2026-04-12T10:51:19Z</time></trkpt><trkpt lat="41.95163655971666" lon="13.297368126497052"><ele>1478.3333333333335</ele><time>2026-04-12T10:51:20Z</time></trkpt><trkpt lat="41.951643543769016" lon="13.297463969328499"><ele>1478.5</ele><time>2026-04-12T10:51:21Z</time></trkpt><trkpt lat="41.95166745879865" lon="13.297567033071127"><ele>1478.6666666666667</ele><time>2026-04-12T10:51:21.999Z</time></trkpt><trkpt lat="41.95170107067168" lon="13.297678997312747"><ele>1478.8333333333333</ele><time>2026-04-12T10:51:22.999Z</time></trkpt><trkpt lat="41.951723345534155" lon="13.297795540546955"><ele>1479.0</ele><time>2026-04-12T10:51:23.999Z</time></trkpt><trkpt lat="41.95174877306397" lon="13.297876156953611"><ele>1479.0</ele><time>2026-04-12T10:51:24.999Z</time></trkpt><trkpt lat="41.95177132424063" lon="13.29795799213957"><ele>1479.0</ele><time>2026-04-12T10:51:25.999Z</time></trkpt><trkpt lat="41.951785206451994" lon="13.298103659104852"><ele>1479.0</ele><time>2026-04-12T10:51:27.999Z</time></trkpt><trkpt lat="41.95168289781149" lon="13.298199468392854"><ele>1479.0</ele><time>2026-04-12T10:51:29.999Z</time></trkpt><trkpt lat="41.9515965075099" lon="13.298190952365054"><ele>1479.0</ele><time>2026-04-12T10:51:30.999Z</time></trkpt><trkpt lat="41.95151934531118" lon="13.29814425809076"><ele>1478.5</ele><time>2026-04-12T10:51:31.999Z</time></trkpt><trkpt lat="41.95143791019544" lon="13.298088925354467"><ele>1478.0</ele><time>2026-04-12T10:51:32.999Z</time></trkpt><trkpt lat="41.951373511486196" lon="13.29805026761882"><ele>1477.5</ele><time>2026-04-12T10:51:33.999Z</time></trkpt><trkpt lat="41.95130103579101" lon="13.29802419298738"><ele>1477.0</ele><time>2026-04-12T10:51:34.999Z</time></trkpt><trkpt lat="41.9512234638956" lon="13.298009443693473"><ele>1476.5</ele><time>2026-04-12T10:51:35.999Z</time></trkpt><trkpt lat="41.95113347068585" lon="13.298019502019246"><ele>1476.0</ele><time>2026-04-12T10:51:36.999Z</time></trkpt><trkpt lat="41.95104224814953" lon="13.298019032302028"><ele>1475.0</ele><time>2026-04-12T10:51:37.999Z</time></trkpt><trkpt lat="41.95095336756784" lon="13.298025439778037"><ele>1474.0</ele><time>2026-04-12T10:51:38.999Z</time></trkpt><trkpt lat="41.95084597699266" lon="13.298040104897499"><ele>1473.0</ele><time>2026-04-12T10:51:39.999Z</time></trkpt><trkpt lat="41.95072762181521" lon="13.298055307391195"><ele>1472.0</ele><time>2026-04-12T10:51:40.999Z</time></trkpt><trkpt lat="41.950618862841054" lon="13.298065559487593"><ele>1471.0</ele><time>2026-04-12T10:51:41.999Z</time></trkpt><trkpt lat="41.95050966724213" lon="13.29808103039686"><ele>1470.4</ele><time>2026-04-12T10:51:42.999Z</time></trkpt><trkpt lat="41.95039773013908" lon="13.298089483577979"><ele>1469.8</ele><time>2026-04-12T10:51:43.999Z</time></trkpt><trkpt lat="41.9502933514341" lon="13.298071248526112"><ele>1469.2</ele><time>2026-04-12T10:51:44.999Z</time></trkpt><trkpt lat="41.950192524835515" lon="13.298035227017307"><ele>1468.6000000000001</ele><time>2026-04-12T10:51:45.999Z</time></trkpt><trkpt lat="41.95008397967847" lon="13.297981296957243"><ele>1468.0</ele><time>2026-04-12T10:51:46.999Z</time></trkpt><trkpt lat="41.949965939325736" lon="13.297904221076658"><ele>1467.0</ele><time>2026-04-12T10:51:47.999Z</time></trkpt><trkpt lat="41.94985896476278" lon="13.297815639914413"><ele>1466.0</ele><time>2026-04-12T10:51:48.999Z</time></trkpt><trkpt lat="41.94975424952315" lon="13.297726571348871"><ele>1465.0</ele><time>2026-04-12T10:51:49.999Z</time></trkpt><trkpt lat="41.949641680864914" lon="13.297633865185412"><ele>1464.0</ele><time>2026-04-12T10:51:50.999Z</time></trkpt><trkpt lat="41.949520193872594" lon="13.297531296622404"><ele>1464.0</ele><time>2026-04-12T10:51:51.999Z</time></trkpt><trkpt lat="41.949409213942516" lon="13.297443634822043"><ele>1464.0</ele><time>2026-04-12T10:51:52.999Z</time></trkpt><trkpt lat="41.94931109994761" lon="13.297379869546505"><ele>1464.0</ele><time>2026-04-12T10:51:53.999Z</time></trkpt><trkpt lat="41.94922003971747" lon="13.297309676398452"><ele>1464.0</ele><time>2026-04-12T10:51:54.999Z</time></trkpt><trkpt lat="41.949145041853036" lon="13.297258747811181"><ele>1464.0</ele><time>2026-04-12T10:51:55.999Z</time></trkpt><trkpt lat="41.94905615305272" lon="13.297219252528807"><ele>1464.0</ele><time>2026-04-12T10:51:56.999Z</time></trkpt><trkpt lat="41.94895343973306" lon="13.297184466994254"><ele>1464.0</ele><time>2026-04-12T10:51:57.999Z</time></trkpt><trkpt lat="41.94885373694495" lon="13.297139184803909"><ele>1464.0</ele><time>2026-04-12T10:51:58.999Z</time></trkpt><trkpt lat="41.94873124853497" lon="13.297085400070278"><ele>1464.0</ele><time>2026-04-12T10:51:59.999Z</time></trkpt><trkpt lat="41.94861866390801" lon="13.297035691466748"><ele>1464.0</ele><time>2026-04-12T10:52:00.999Z</time></trkpt><trkpt lat="41.948509272972544" lon="13.297000715614322"><ele>1464.0</ele><time>2026-04-12T10:52:01.999Z</time></trkpt><trkpt lat="41.94841543904555" lon="13.296981229281645"><ele>1464.0</ele><time>2026-04-12T10:52:02.999Z</time></trkpt><trkpt lat="41.94832076138981" lon="13.296990456628818"><ele>1464.0</ele><time>2026-04-12T10:52:03.999Z</time></trkpt><trkpt lat="41.948243846996306" lon="13.297037837309219"><ele>1464.0</ele><time>2026-04-12T10:52:04.999Z</time></trkpt><trkpt lat="41.94817665473596" lon="13.297087003747452"><ele>1463.2</ele><time>2026-04-12T10:52:05.999Z</time></trkpt><trkpt lat="41.948107089554846" lon="13.297141970369365"><ele>1462.4</ele><time>2026-04-12T10:52:06.999Z</time></trkpt><trkpt lat="41.94804424083752" lon="13.297197126247259"><ele>1461.6</ele><time>2026-04-12T10:52:07.999Z</time></trkpt><trkpt lat="41.94796373890191" lon="13.29726610053727"><ele>1460.8</ele><time>2026-04-12T10:52:08.999Z</time></trkpt><trkpt lat="41.94787155099338" lon="13.297340002545758"><ele>1460.0</ele><time>2026-04-12T10:52:09.999Z</time></trkpt><trkpt lat="41.94778632338236" lon="13.297408839069725"><ele>1461.6</ele><time>2026-04-12T10:52:10.999Z</time></trkpt><trkpt lat="41.947705078036456" lon="13.29749552350254"><ele>1463.2</ele><time>2026-04-12T10:52:11.999Z</time></trkpt><trkpt lat="41.947638563721505" lon="13.297608256186983"><ele>1464.8000000000002</ele><time>2026-04-12T10:52:12.999Z</time></trkpt><trkpt lat="41.94757997404535" lon="13.297723763108333"><ele>1466.4</ele><time>2026-04-12T10:52:13.999Z</time></trkpt><trkpt lat="41.94753776259821" lon="13.297811938434288"><ele>1468.0</ele><time>2026-04-12T10:52:14.999Z</time></trkpt><trkpt lat="41.94750225551542" lon="13.297901499844407"><ele>1468.5</ele><time>2026-04-12T10:52:15.999Z</time></trkpt><trkpt lat="41.947464853644675" lon="13.298058231816826"><ele>1469.0</ele><time>2026-04-12T10:52:17.999Z</time></trkpt><trkpt lat="41.947432354609674" lon="13.298157380002726"><ele>1469.5</ele><time>2026-04-12T10:52:18.999Z</time></trkpt><trkpt lat="41.9474050298125" lon="13.298250833597885"><ele>1470.0</ele><time>2026-04-12T10:52:19.999Z</time></trkpt><trkpt lat="41.94740338278953" lon="13.298355355988653"><ele>1470.5</ele><time>2026-04-12T10:52:20.999Z</time></trkpt><trkpt lat="41.947401852170245" lon="13.298476539338578"><ele>1471.0</ele><time>2026-04-12T10:52:21.999Z</time></trkpt><trkpt lat="41.94741842706694" lon="13.29857106351741"><ele>1471.2857142857142</ele><time>2026-04-12T10:52:22.999Z</time></trkpt><trkpt lat="41.94743403866674" lon="13.298657419117966"><ele>1471.5714285714287</ele><time>2026-04-12T10:52:23.999Z</time></trkpt><trkpt lat="41.9474516020422" lon="13.298764524123284"><ele>1471.8571428571427</ele><time>2026-04-12T10:52:24.999Z</time></trkpt><trkpt lat="41.94745123241312" lon="13.298852951425282"><ele>1472.142857142857</ele><time>2026-04-12T10:52:25.999Z</time></trkpt><trkpt lat="41.94744253115559" lon="13.298942360552335"><ele>1472.4285714285713</ele><time>2026-04-12T10:52:26.999Z</time></trkpt><trkpt lat="41.94741546327398" lon="13.299023384608494"><ele>1472.7142857142856</ele><time>2026-04-12T10:52:27.999Z</time></trkpt><trkpt lat="41.94737134981796" lon="13.299106531906189"><ele>1473.0</ele><time>2026-04-12T10:52:28.999Z</time></trkpt><trkpt lat="41.94731263648047" lon="13.299164088113747"><ele>1473.0</ele><time>2026-04-12T10:52:29.999Z</time></trkpt><trkpt lat="41.94722849350805" lon="13.299205562872691"><ele>1473.0</ele><time>2026-04-12T10:52:30.999Z</time></trkpt><trkpt lat="41.94715188191103" lon="13.299227146100344"><ele>1473.0</ele><time>2026-04-12T10:52:31.999Z</time></trkpt><trkpt lat="41.947064902865854" lon="13.299249972471593"><ele>1473.0</ele><time>2026-04-12T10:52:32.999Z</time></trkpt><trkpt lat="41.94698005284224" lon="13.299260189032367"><ele>1473.0</ele><time>2026-04-12T10:52:33.999Z</time></trkpt><trkpt lat="41.9469020534052" lon="13.299233764307234"><ele>1473.0</ele><time>2026-04-12T10:52:34.999Z</time></trkpt><trkpt lat="41.94681986032591" lon="13.299184758193324"><ele>1473.0</ele><time>2026-04-12T10:52:35.999Z</time></trkpt><trkpt lat="41.94674208686583" lon="13.299126963438969"><ele>1473.0</ele><time>2026-04-12T10:52:36.999Z</time></trkpt><trkpt lat="41.9466780199582" lon="13.299048332689559"><ele>1473.0</ele><time>2026-04-12T10:52:37.998Z</time></trkpt><trkpt lat="41.94661728558086" lon="13.298968054991937"><ele>1473.0</ele><time>2026-04-12T10:52:38.998Z</time></trkpt><trkpt lat="41.946559786984125" lon="13.29890436735248"><ele>1473.0</ele><time>2026-04-12T10:52:39.998Z</time></trkpt><trkpt lat="41.9464256712176" lon="13.298900704526298"><ele>1473.0</ele><time>2026-04-12T10:52:41.998Z</time></trkpt><trkpt lat="41.94634581833714" lon="13.298918869280072"><ele>1473.0</ele><time>2026-04-12T10:52:42.998Z</time></trkpt><trkpt lat="41.946274695610995" lon="13.298929110674198"><ele>1473.0</ele><time>2026-04-12T10:52:43.998Z</time></trkpt><trkpt lat="41.94616703702561" lon="13.298889756293871"><ele>1473.0</ele><time>2026-04-12T10:52:44.998Z</time></trkpt><trkpt lat="41.94608212974039" lon="13.29890169591643"><ele>1473.0</ele><time>2026-04-12T10:52:45.998Z</time></trkpt><trkpt lat="41.945878449312254" lon="13.298895078670732"><ele>1475.6000000000001</ele><time>2026-04-12T10:52:47.998Z</time></trkpt><trkpt lat="41.945795572803675" lon="13.298895166843817"><ele>1478.2</ele><time>2026-04-12T10:52:48.998Z</time></trkpt><trkpt lat="41.945713287599744" lon="13.298888638627226"><ele>1480.8</ele><time>2026-04-12T10:52:49.998Z</time></trkpt><trkpt lat="41.945614798551084" lon="13.29886514531145"><ele>1483.4</ele><time>2026-04-12T10:52:50.998Z</time></trkpt><trkpt lat="41.94550849844061" lon="13.298825326935548"><ele>1486.0</ele><time>2026-04-12T10:52:51.998Z</time></trkpt><trkpt lat="41.94541150316522" lon="13.298778005085776"><ele>1486.0</ele><time>2026-04-12T10:52:52.998Z</time></trkpt><trkpt lat="41.945315757171315" lon="13.298743349943189"><ele>1486.0</ele><time>2026-04-12T10:52:53.998Z</time></trkpt><trkpt lat="41.945226637290325" lon="13.298737462561023"><ele>1486.0</ele><time>2026-04-12T10:52:54.998Z</time></trkpt><trkpt lat="41.9451604641267" lon="13.298767955370309"><ele>1486.0</ele><time>2026-04-12T10:52:55.998Z</time></trkpt><trkpt lat="41.9450935945152" lon="13.298813110722861"><ele>1486.0</ele><time>2026-04-12T10:52:56.998Z</time></trkpt><trkpt lat="41.9449842223497" lon="13.29885927070732"><ele>1486.0</ele><time>2026-04-12T10:52:58.998Z</time></trkpt><trkpt lat="41.9449111062685" lon="13.29888985059158"><ele>1486.6</ele><time>2026-04-12T10:52:59.998Z</time></trkpt><trkpt lat="41.94479495959309" lon="13.298926767583808"><ele>1487.1999999999998</ele><time>2026-04-12T10:53:01Z</time></trkpt><trkpt lat="41.94468193627419" lon="13.298958551527688"><ele>1487.8000000000002</ele><time>2026-04-12T10:53:02Z</time></trkpt><trkpt lat="41.94458569204236" lon="13.29898458850362"><ele>1488.4</ele><time>2026-04-12T10:53:03Z</time></trkpt><trkpt lat="41.94448964323209" lon="13.299019386393413"><ele>1489.0</ele><time>2026-04-12T10:53:04Z</time></trkpt><trkpt lat="41.94441239183277" lon="13.299065932895179"><ele>1489.0</ele><time>2026-04-12T10:53:05Z</time></trkpt><trkpt lat="41.94431652801289" lon="13.299123094381128"><ele>1489.0</ele><time>2026-04-12T10:53:06Z</time></trkpt><trkpt lat="41.944209693764925" lon="13.299191704292188"><ele>1489.0</ele><time>2026-04-12T10:53:07Z</time></trkpt><trkpt lat="41.944114621744795" lon="13.299260695639115"><ele>1489.0</ele><time>2026-04-12T10:53:08Z</time></trkpt><trkpt lat="41.9440301079784" lon="13.29930865743063"><ele>1489.0</ele><time>2026-04-12T10:53:09Z</time></trkpt><trkpt lat="41.9439411830339" lon="13.29931688864177"><ele>1489.6</ele><time>2026-04-12T10:53:10Z</time></trkpt><trkpt lat="41.94384695295752" lon="13.299285849576822"><ele>1490.2</ele><time>2026-04-12T10:53:11Z</time></trkpt><trkpt lat="41.943746301566755" lon="13.299288898140006"><ele>1490.8</ele><time>2026-04-12T10:53:12Z</time></trkpt><trkpt lat="41.943645240845356" lon="13.299291388112753"><ele>1491.3999999999999</ele><time>2026-04-12T10:53:13Z</time></trkpt><trkpt lat="41.9435450848281" lon="13.299334068680354"><ele>1492.0</ele><time>2026-04-12T10:53:14Z</time></trkpt><trkpt lat="41.943452291346134" lon="13.299378521974354"><ele>1492.0</ele><time>2026-04-12T10:53:15Z</time></trkpt><trkpt lat="41.94338039371082" lon="13.299418586913891"><ele>1492.0</ele><time>2026-04-12T10:53:16Z</time></trkpt><trkpt lat="41.943304125428405" lon="13.299471116805888"><ele>1492.0</ele><time>2026-04-12T10:53:18Z</time></trkpt><trkpt lat="41.94324219367434" lon="13.299421609299104"><ele>1492.0</ele><time>2026-04-12T10:53:20Z</time></trkpt><trkpt lat="41.9431824936619" lon="13.299335922677297"><ele>1492.0</ele><time>2026-04-12T10:53:22Z</time></trkpt><trkpt lat="41.94311170317683" lon="13.299248320054534"><ele>1492.0</ele><time>2026-04-12T10:53:24Z</time></trkpt><trkpt lat="41.943067092950564" lon="13.299168845929506"><ele>1492.0</ele><time>2026-04-12T10:53:26Z</time></trkpt><trkpt lat="41.94303050854049" lon="13.299064648328347"><ele>1492.0</ele><time>2026-04-12T10:53:29Z</time></trkpt><trkpt lat="41.94300598567051" lon="13.298970002171098"><ele>1492.0</ele><time>2026-04-12T10:53:31Z</time></trkpt><trkpt lat="41.942957260540474" lon="13.298896949351438"><ele>1492.0</ele><time>2026-04-12T10:53:33Z</time></trkpt><trkpt lat="41.94289499152995" lon="13.29881967882661"><ele>1492.0</ele><time>2026-04-12T10:53:35Z</time></trkpt><trkpt lat="41.942868491828726" lon="13.298713024279508"><ele>1492.0</ele><time>2026-04-12T10:55:30Z</time></trkpt><trkpt lat="41.94281908879959" lon="13.298616438776321"><ele>1492.0</ele><time>2026-04-12T10:55:33Z</time></trkpt><trkpt lat="41.942854622879565" lon="13.298727315190241"><ele>1492.0</ele><time>2026-04-12T10:56:32.999Z</time></trkpt><trkpt lat="41.94285764996331" lon="13.298817168443744"><ele>1492.0</ele><time>2026-04-12T10:56:34.999Z</time></trkpt><trkpt lat="41.94286635518329" lon="13.298911537858247"><ele>1492.0</ele><time>2026-04-12T10:56:37.999Z</time></trkpt><trkpt lat="41.94292298518269" lon="13.299033359345984"><ele>1492.0</ele><time>2026-04-12T10:56:39.999Z</time></trkpt><trkpt lat="41.94295448412477" lon="13.299110216676034"><ele>1492.0</ele><time>2026-04-12T10:56:41.999Z</time></trkpt><trkpt lat="41.94300318355551" lon="13.299217021407545"><ele>1492.0</ele><time>2026-04-12T10:56:45.999Z</time></trkpt><trkpt lat="41.94306777049074" lon="13.299323190012876"><ele>1492.0</ele><time>2026-04-12T10:56:48.999Z</time></trkpt><trkpt lat="41.94309852315644" lon="13.299450276629923"><ele>1492.0</ele><time>2026-04-12T10:56:50.999Z</time></trkpt><trkpt lat="41.94312913240956" lon="13.299607151998114"><ele>1492.0</ele><time>2026-04-12T10:56:52.999Z</time></trkpt><trkpt lat="41.94313080949698" lon="13.299692089233329"><ele>1492.0</ele><time>2026-04-12T10:56:53.999Z</time></trkpt><trkpt lat="41.94312235268175" lon="13.299779409101511"><ele>1492.3333333333333</ele><time>2026-04-12T10:56:54.999Z</time></trkpt><trkpt lat="41.94311637163522" lon="13.299887651428387"><ele>1492.6666666666665</ele><time>2026-04-12T10:56:55.999Z</time></trkpt><trkpt lat="41.94311830617961" lon="13.299998247580607"><ele>1493.0</ele><time>2026-04-12T10:56:56.999Z</time></trkpt><trkpt lat="41.94312878816955" lon="13.300112190257147"><ele>1493.3333333333333</ele><time>2026-04-12T10:56:57.999Z</time></trkpt><trkpt lat="41.94313469784264" lon="13.300217113322976"><ele>1493.6666666666667</ele><time>2026-04-12T10:56:58.999Z</time></trkpt><trkpt lat="41.943148092321145" lon="13.300334713517259"><ele>1494.0</ele><time>2026-04-12T10:56:59.999Z</time></trkpt><trkpt lat="41.943151730319904" lon="13.300467762074728"><ele>1495.0</ele><time>2026-04-12T10:57:00.999Z</time></trkpt><trkpt lat="41.943148085538596" lon="13.300587993110785"><ele>1496.0</ele><time>2026-04-12T10:57:01.999Z</time></trkpt><trkpt lat="41.94316453996337" lon="13.30070759666606"><ele>1497.0</ele><time>2026-04-12T10:57:02.999Z</time></trkpt><trkpt lat="41.9431871839824" lon="13.300843648755084"><ele>1498.0</ele><time>2026-04-12T10:57:03.999Z</time></trkpt><trkpt lat="41.9431903235909" lon="13.300973913931813"><ele>1499.0</ele><time>2026-04-12T10:57:04.999Z</time></trkpt><trkpt lat="41.94317993519785" lon="13.301084523381055"><ele>1499.0</ele><time>2026-04-12T10:57:05.999Z</time></trkpt><trkpt lat="41.94318203893662" lon="13.3011941799653"><ele>1499.0</ele><time>2026-04-12T10:57:06.999Z</time></trkpt><trkpt lat="41.943239425476726" lon="13.301357155715255"><ele>1499.0</ele><time>2026-04-12T10:57:08.999Z</time></trkpt><trkpt lat="41.94328083766263" lon="13.301438598241125"><ele>1499.0</ele><time>2026-04-12T10:57:09.998Z</time></trkpt><trkpt lat="41.94331739715088" lon="13.30161336088784"><ele>1499.0</ele><time>2026-04-12T10:57:12Z</time></trkpt><trkpt lat="41.94331919342937" lon="13.301705313506991"><ele>1499.5</ele><time>2026-04-12T10:57:13Z</time></trkpt><trkpt lat="41.94329126741388" lon="13.301796146431192"><ele>1500.0</ele><time>2026-04-12T10:57:14Z</time></trkpt><trkpt lat="41.943262314360155" lon="13.301901849784423"><ele>1500.5</ele><time>2026-04-12T10:57:15Z</time></trkpt><trkpt lat="41.94324205570302" lon="13.301982317778759"><ele>1501.0</ele><time>2026-04-12T10:57:16Z</time></trkpt><trkpt lat="41.94325030610043" lon="13.302118339733928"><ele>1501.5</ele><time>2026-04-12T10:57:18Z</time></trkpt><trkpt lat="41.94326446091418" lon="13.302204042622968"><ele>1502.0</ele><time>2026-04-12T10:57:19Z</time></trkpt><trkpt lat="41.943271563499984" lon="13.30233879443368"><ele>1502.6666666666667</ele><time>2026-04-12T10:57:21Z</time></trkpt><trkpt lat="41.94323084763838" lon="13.30241712294529"><ele>1503.3333333333335</ele><time>2026-04-12T10:57:22Z</time></trkpt><trkpt lat="41.943170814330415" lon="13.302484848210524"><ele>1504.0</ele><time>2026-04-12T10:57:23Z</time></trkpt><trkpt lat="41.94310620721637" lon="13.302584753072205"><ele>1504.6666666666667</ele><time>2026-04-12T10:57:24Z</time></trkpt><trkpt lat="41.94303891270384" lon="13.302679905763261"><ele>1505.3333333333333</ele><time>2026-04-12T10:57:25Z</time></trkpt><trkpt lat="41.9429746281392" lon="13.30276805582554"><ele>1506.0</ele><time>2026-04-12T10:57:26Z</time></trkpt><trkpt lat="41.94291209524541" lon="13.302858553564853"><ele>1506.0</ele><time>2026-04-12T10:57:27Z</time></trkpt><trkpt lat="41.942857057959415" lon="13.30290634015792"><ele>1506.0</ele><time>2026-04-12T10:57:28Z</time></trkpt><trkpt lat="41.94276235528671" lon="13.30298371343355"><ele>1506.0</ele><time>2026-04-12T10:57:29Z</time></trkpt><trkpt lat="41.942683290508526" lon="13.303047063873564"><ele>1506.0</ele><time>2026-04-12T10:57:30Z</time></trkpt><trkpt lat="41.942594384642604" lon="13.303121360792044"><ele>1506.0</ele><time>2026-04-12T10:57:31Z</time></trkpt><trkpt lat="41.9425334964528" lon="13.30317039697308"><ele>1506.0</ele><time>2026-04-12T10:57:32Z</time></trkpt><trkpt lat="41.94245954612791" lon="13.3032411874947"><ele>1506.6666666666667</ele><time>2026-04-12T10:57:33Z</time></trkpt><trkpt lat="41.94242358745574" lon="13.303311445611891"><ele>1507.3333333333333</ele><time>2026-04-12T10:57:34Z</time></trkpt><trkpt lat="41.94238251420788" lon="13.303474209535"><ele>1508.0</ele><time>2026-04-12T10:57:36Z</time></trkpt><trkpt lat="41.9423442170358" lon="13.303548091277788"><ele>1508.6666666666665</ele><time>2026-04-12T10:57:37Z</time></trkpt><trkpt lat="41.942285290489345" lon="13.303596333361815"><ele>1509.3333333333333</ele><time>2026-04-12T10:57:38Z</time></trkpt><trkpt lat="41.94222939707273" lon="13.303653102076748"><ele>1510.0</ele><time>2026-04-12T10:57:39Z</time></trkpt><trkpt lat="41.942182265437744" lon="13.303723506332899"><ele>1510.0</ele><time>2026-04-12T10:57:40Z</time></trkpt><trkpt lat="41.942154428179016" lon="13.303805076253967"><ele>1510.0</ele><time>2026-04-12T10:57:41Z</time></trkpt><trkpt lat="41.94212132965311" lon="13.30393815206201"><ele>1510.0</ele><time>2026-04-12T10:57:42Z</time></trkpt><trkpt lat="41.942097540547095" lon="13.304090007687654"><ele>1510.0</ele><time>2026-04-12T10:57:44Z</time></trkpt><trkpt lat="41.94205340026823" lon="13.304159460183932"><ele>1510.0</ele><time>2026-04-12T10:57:45Z</time></trkpt><trkpt lat="41.942003038664836" lon="13.304213000954073"><ele>1510.0</ele><time>2026-04-12T10:57:46Z</time></trkpt><trkpt lat="41.941941389186475" lon="13.304284984349804"><ele>1511.0</ele><time>2026-04-12T10:57:47Z</time></trkpt><trkpt lat="41.941867844582376" lon="13.304366729977026"><ele>1512.0</ele><time>2026-04-12T10:57:48Z</time></trkpt><trkpt lat="41.941819183808455" lon="13.304459607493868"><ele>1513.0</ele><time>2026-04-12T10:57:49Z</time></trkpt><trkpt lat="41.9417618707852" lon="13.304569277556103"><ele>1514.0</ele><time>2026-04-12T10:57:50Z</time></trkpt><trkpt lat="41.94171978916272" lon="13.304670935058324"><ele>1515.0</ele><time>2026-04-12T10:57:51Z</time></trkpt><trkpt lat="41.94165294094187" lon="13.30477309800914"><ele>1516.6</ele><time>2026-04-12T10:57:52Z</time></trkpt><trkpt lat="41.94157736698342" lon="13.304871733598993"><ele>1518.2</ele><time>2026-04-12T10:57:53Z</time></trkpt><trkpt lat="41.941508981578075" lon="13.30492566982969"><ele>1519.8000000000002</ele><time>2026-04-12T10:57:54Z</time></trkpt><trkpt lat="41.94140572326252" lon="13.304942239209403"><ele>1521.4</ele><time>2026-04-12T10:57:56Z</time></trkpt><trkpt lat="41.941295338619774" lon="13.304913428631389"><ele>1523.0</ele><time>2026-04-12T10:57:58Z</time></trkpt><trkpt lat="41.9412214497293" lon="13.304898699846987"><ele>1523.0</ele><time>2026-04-12T10:57:58.999Z</time></trkpt><trkpt lat="41.94113624457792" lon="13.304890608677315"><ele>1523.0</ele><time>2026-04-12T10:57:59.999Z</time></trkpt><trkpt lat="41.94105800176882" lon="13.30486616248854"><ele>1523.0</ele><time>2026-04-12T10:58:00.999Z</time></trkpt><trkpt lat="41.940981025405655" lon="13.304810622587965"><ele>1523.0</ele><time>2026-04-12T10:58:01.999Z</time></trkpt><trkpt lat="41.94087639465751" lon="13.304767021477854"><ele>1523.0</ele><time>2026-04-12T10:58:03.999Z</time></trkpt><trkpt lat="41.94080808382895" lon="13.304710731586132"><ele>1523.0</ele><time>2026-04-12T10:58:04.999Z</time></trkpt><trkpt lat="41.94075778336966" lon="13.304656468885623"><ele>1523.75</ele><time>2026-04-12T10:58:05.999Z</time></trkpt><trkpt lat="41.940634032163125" lon="13.304650473634224"><ele>1524.5</ele><time>2026-04-12T10:58:07.999Z</time></trkpt><trkpt lat="41.94047786990202" lon="13.304701275229055"><ele>1525.25</ele><time>2026-04-12T10:58:09.999Z</time></trkpt><trkpt lat="41.940387786701216" lon="13.304742464900075"><ele>1526.0</ele><time>2026-04-12T10:58:10.999Z</time></trkpt><trkpt lat="41.940307214812464" lon="13.30479851667566"><ele>1526.0</ele><time>2026-04-12T10:58:11.999Z</time></trkpt><trkpt lat="41.94021980077841" lon="13.304854928525756"><ele>1526.0</ele><time>2026-04-12T10:58:12.999Z</time></trkpt><trkpt lat="41.94008623756528" lon="13.304944443862432"><ele>1526.0</ele><time>2026-04-12T10:58:13.999Z</time></trkpt><trkpt lat="41.93997308614348" lon="13.305038953409154"><ele>1526.0</ele><time>2026-04-12T10:58:14.999Z</time></trkpt><trkpt lat="41.939875671280454" lon="13.305111753119808"><ele>1526.4</ele><time>2026-04-12T10:58:15.999Z</time></trkpt><trkpt lat="41.939786915286454" lon="13.305195495554399"><ele>1526.8</ele><time>2026-04-12T10:58:16.999Z</time></trkpt><trkpt lat="41.93971220171251" lon="13.30527820820315"><ele>1527.2</ele><time>2026-04-12T10:58:18.999Z</time></trkpt><trkpt lat="41.93966583627847" lon="13.305397919143076"><ele>1527.6000000000001</ele><time>2026-04-12T10:58:20.999Z</time></trkpt><trkpt lat="41.939710465627456" lon="13.305499805004734"><ele>1528.0</ele><time>2026-04-12T10:58:22.999Z</time></trkpt><trkpt lat="41.939811392502946" lon="13.305574885886008"><ele>1528.5</ele><time>2026-04-12T10:58:24.999Z</time></trkpt><trkpt lat="41.939868661738835" lon="13.30561198920883"><ele>1529.0</ele><time>2026-04-12T10:58:25.999Z</time></trkpt><trkpt lat="41.93994663525022" lon="13.305718567826275"><ele>1529.5</ele><time>2026-04-12T10:58:27.999Z</time></trkpt><trkpt lat="41.93997968084775" lon="13.305835182100182"><ele>1530.0</ele><time>2026-04-12T10:58:28.999Z</time></trkpt><trkpt lat="41.93998879637306" lon="13.305934900233447"><ele>1530.5</ele><time>2026-04-12T10:58:29.999Z</time></trkpt><trkpt lat="41.939970332495285" lon="13.306055487790681"><ele>1531.0</ele><time>2026-04-12T10:58:31.999Z</time></trkpt><trkpt lat="41.93992729559421" lon="13.306172322039922"><ele>1531.0</ele><time>2026-04-12T10:58:34.999Z</time></trkpt><trkpt lat="41.93989459933925" lon="13.306264024000702"><ele>1531.0</ele><time>2026-04-12T10:58:36.999Z</time></trkpt><trkpt lat="41.93983853605771" lon="13.306423606569734"><ele>1531.0</ele><time>2026-04-12T10:58:38.999Z</time></trkpt><trkpt lat="41.939847488202595" lon="13.306555201724358"><ele>1531.0</ele><time>2026-04-12T10:58:40.999Z</time></trkpt><trkpt lat="41.93988254243139" lon="13.306685518723711"><ele>1531.0</ele><time>2026-04-12T10:58:42.999Z</time></trkpt><trkpt lat="41.939895635981664" lon="13.306784408072193"><ele>1532.1666666666665</ele><time>2026-04-12T10:58:43.999Z</time></trkpt><trkpt lat="41.93990817771725" lon="13.306880445289647"><ele>1533.3333333333333</ele><time>2026-04-12T10:58:44.999Z</time></trkpt><trkpt lat="41.93990406333455" lon="13.306976804438044"><ele>1534.5</ele><time>2026-04-12T10:58:46.999Z</time></trkpt><trkpt lat="41.93985177093449" lon="13.307140692645746"><ele>1535.6666666666665</ele><time>2026-04-12T10:58:48.999Z</time></trkpt><trkpt lat="41.9398215181282" lon="13.307216639338753"><ele>1536.8333333333333</ele><time>2026-04-12T10:58:49.999Z</time></trkpt><trkpt lat="41.93977943821223" lon="13.307299486666665"><ele>1538.0</ele><time>2026-04-12T10:58:50.999Z</time></trkpt><trkpt lat="41.93971361128957" lon="13.307404277419934"><ele>1539.75</ele><time>2026-04-12T10:58:51.999Z</time></trkpt><trkpt lat="41.939640962103155" lon="13.307535916986856"><ele>1541.5</ele><time>2026-04-12T10:58:52.999Z</time></trkpt><trkpt lat="41.939549125704225" lon="13.307684324101146"><ele>1543.25</ele><time>2026-04-12T10:58:53.999Z</time></trkpt><trkpt lat="41.939489357319935" lon="13.307808011326646"><ele>1545.0</ele><time>2026-04-12T10:58:54.999Z</time></trkpt><trkpt lat="41.93943454169442" lon="13.307893549772736"><ele>1545.0</ele><time>2026-04-12T10:58:55.999Z</time></trkpt><trkpt lat="41.93938569371483" lon="13.307972362307058"><ele>1545.0</ele><time>2026-04-12T10:58:56.999Z</time></trkpt><trkpt lat="41.939274787250135" lon="13.308049751126967"><ele>1545.0</ele><time>2026-04-12T10:58:58.999Z</time></trkpt><trkpt lat="41.93922375032192" lon="13.30812814273726"><ele>1545.0</ele><time>2026-04-12T10:59:00.999Z</time></trkpt><trkpt lat="41.93920963294197" lon="13.30825126971601"><ele>1545.0</ele><time>2026-04-12T10:59:02.999Z</time></trkpt><trkpt lat="41.939187742735655" lon="13.308361621019998"><ele>1545.2</ele><time>2026-04-12T10:59:03.999Z</time></trkpt><trkpt lat="41.93916480454578" lon="13.308444576640927"><ele>1545.4</ele><time>2026-04-12T10:59:04.999Z</time></trkpt><trkpt lat="41.939098035827904" lon="13.30854914210613"><ele>1545.6</ele><time>2026-04-12T10:59:06.999Z</time></trkpt><trkpt lat="41.93900011024254" lon="13.308666438580039"><ele>1545.8</ele><time>2026-04-12T10:59:08.998Z</time></trkpt><trkpt lat="41.93894669554452" lon="13.308730439436278"><ele>1546.0</ele><time>2026-04-12T10:59:09.998Z</time></trkpt><trkpt lat="41.93887831543628" lon="13.308801481901245"><ele>1546.0000000000002</ele><time>2026-04-12T10:59:11.998Z</time></trkpt><trkpt lat="41.93881139016042" lon="13.30890568189901"><ele>1546.0</ele><time>2026-04-12T10:59:13.998Z</time></trkpt><trkpt lat="41.93874949417446" lon="13.308964527026776"><ele>1546.0</ele><time>2026-04-12T10:59:14.998Z</time></trkpt><trkpt lat="41.938681632948445" lon="13.309037385547612"><ele>1546.0</ele><time>2026-04-12T10:59:15.998Z</time></trkpt><trkpt lat="41.93860784382873" lon="13.309116384669638"><ele>1546.0000000000002</ele><time>2026-04-12T10:59:16.998Z</time></trkpt><trkpt lat="41.93855516020502" lon="13.309176459992488"><ele>1546.0</ele><time>2026-04-12T10:59:18Z</time></trkpt><trkpt lat="41.93849720767642" lon="13.309235544954257"><ele>1547.8</ele><time>2026-04-12T10:59:19Z</time></trkpt><trkpt lat="41.938430634156" lon="13.309328119237128"><ele>1549.6</ele><time>2026-04-12T10:59:20Z</time></trkpt><trkpt lat="41.93837213610876" lon="13.309412175486049"><ele>1551.4</ele><time>2026-04-12T10:59:21Z</time></trkpt><trkpt lat="41.93831926750294" lon="13.309528833340321"><ele>1553.2</ele><time>2026-04-12T10:59:22Z</time></trkpt><trkpt lat="41.93827014956165" lon="13.309667554598407"><ele>1555.0</ele><time>2026-04-12T10:59:23Z</time></trkpt><trkpt lat="41.93822027128547" lon="13.309805572907733"><ele>1555.8</ele><time>2026-04-12T10:59:24Z</time></trkpt><trkpt lat="41.9381695060303" lon="13.309943893860561"><ele>1556.6</ele><time>2026-04-12T10:59:25Z</time></trkpt><trkpt lat="41.938129714397846" lon="13.310089527155002"><ele>1557.4</ele><time>2026-04-12T10:59:26Z</time></trkpt><trkpt lat="41.93810153331077" lon="13.310233374618573"><ele>1558.2</ele><time>2026-04-12T10:59:27Z</time></trkpt><trkpt lat="41.93807865898888" lon="13.310354724717717"><ele>1559.0</ele><time>2026-04-12T10:59:28Z</time></trkpt><trkpt lat="41.93803769000304" lon="13.310484619343233"><ele>1559.8333333333333</ele><time>2026-04-12T10:59:29Z</time></trkpt><trkpt lat="41.93799366434736" lon="13.310600267297582"><ele>1560.6666666666665</ele><time>2026-04-12T10:59:30Z</time></trkpt><trkpt lat="41.937942719534554" lon="13.310695365969464"><ele>1561.5</ele><time>2026-04-12T10:59:31Z</time></trkpt><trkpt lat="41.937897070516215" lon="13.310784533866201"><ele>1562.3333333333335</ele><time>2026-04-12T10:59:33Z</time></trkpt><trkpt lat="41.937880543887545" lon="13.310876233587335"><ele>1563.1666666666667</ele><time>2026-04-12T10:59:35Z</time></trkpt><trkpt lat="41.937900971224536" lon="13.311019955132155"><ele>1564.0</ele><time>2026-04-12T10:59:37Z</time></trkpt><trkpt lat="41.93793029399441" lon="13.311126422395906"><ele>1564.0000000000002</ele><time>2026-04-12T10:59:38Z</time></trkpt><trkpt lat="41.93795408417027" lon="13.311216499883399"><ele>1564.0</ele><time>2026-04-12T10:59:39Z</time></trkpt><trkpt lat="41.937948985098615" lon="13.311309433334475"><ele>1564.0</ele><time>2026-04-12T10:59:40Z</time></trkpt><trkpt lat="41.9379316955272" lon="13.311401034716404"><ele>1564.0</ele><time>2026-04-12T10:59:41Z</time></trkpt><trkpt lat="41.93788926741761" lon="13.311484557358222"><ele>1564.0000000000002</ele><time>2026-04-12T10:59:42Z</time></trkpt><trkpt lat="41.93783635284389" lon="13.311560068631108"><ele>1564.0</ele><time>2026-04-12T10:59:43Z</time></trkpt><trkpt lat="41.93776449496321" lon="13.311637136171946"><ele>1563.8333333333335</ele><time>2026-04-12T10:59:44Z</time></trkpt><trkpt lat="41.93770231309058" lon="13.311711140612902"><ele>1563.6666666666667</ele><time>2026-04-12T10:59:45Z</time></trkpt><trkpt lat="41.937638187303136" lon="13.31176077175025"><ele>1563.5</ele><time>2026-04-12T10:59:46Z</time></trkpt><trkpt lat="41.937571060472074" lon="13.3118109701641"><ele>1563.3333333333335</ele><time>2026-04-12T10:59:48Z</time></trkpt><trkpt lat="41.93749951799264" lon="13.311867349056495"><ele>1563.1666666666667</ele><time>2026-04-12T10:59:50Z</time></trkpt><trkpt lat="41.937403637692725" lon="13.311894017345779"><ele>1563.0</ele><time>2026-04-12T10:59:52Z</time></trkpt><trkpt lat="41.93733425358301" lon="13.311916879531804"><ele>1563.0</ele><time>2026-04-12T10:59:53Z</time></trkpt><trkpt lat="41.937295722840204" lon="13.312013869591075"><ele>1563.0</ele><time>2026-04-12T10:59:55Z</time></trkpt><trkpt lat="41.937354388575976" lon="13.312110949906888"><ele>1563.0</ele><time>2026-04-12T10:59:57.999Z</time></trkpt><trkpt lat="41.937413821287855" lon="13.312220333238155"><ele>1563.0</ele><time>2026-04-12T10:59:59.999Z</time></trkpt><trkpt lat="41.93741348076682" lon="13.312411638361828"><ele>1563.0</ele><time>2026-04-12T11:00:01.999Z</time></trkpt><trkpt lat="41.93742011511712" lon="13.312524933735112"><ele>1562.1666666666667</ele><time>2026-04-12T11:00:02.999Z</time></trkpt><trkpt lat="41.937430951696044" lon="13.312636080899077"><ele>1561.3333333333335</ele><time>2026-04-12T11:00:03.999Z</time></trkpt><trkpt lat="41.937377963576104" lon="13.312767553845388"><ele>1560.5</ele><time>2026-04-12T11:00:06.999Z</time></trkpt><trkpt lat="41.93730612243011" lon="13.312819286617302"><ele>1559.6666666666667</ele><time>2026-04-12T11:00:07.999Z</time></trkpt><trkpt lat="41.93723390382311" lon="13.312873875443277"><ele>1558.8333333333335</ele><time>2026-04-12T11:00:08.999Z</time></trkpt><trkpt lat="41.937153499966655" lon="13.312883623546517"><ele>1558.0</ele><time>2026-04-12T11:00:10.999Z</time></trkpt><trkpt lat="41.937083670000796" lon="13.31291014378102"><ele>1558.0</ele><time>2026-04-12T11:00:12.999Z</time></trkpt><trkpt lat="41.937000089111805" lon="13.312926969444211"><ele>1558.0</ele><time>2026-04-12T11:00:14.999Z</time></trkpt><trkpt lat="41.93693869256166" lon="13.312903158532258"><ele>1558.0</ele><time>2026-04-12T11:00:16.999Z</time></trkpt><trkpt lat="41.93681330233226" lon="13.312907968426643"><ele>1558.0</ele><time>2026-04-12T11:00:19.999Z</time></trkpt><trkpt lat="41.93671116149905" lon="13.31292980852789"><ele>1558.0</ele><time>2026-04-12T11:00:21.999Z</time></trkpt><trkpt lat="41.93658601114359" lon="13.312917998727094"><ele>1560.5</ele><time>2026-04-12T11:00:23.999Z</time></trkpt><trkpt lat="41.93645919364571" lon="13.31290346540406"><ele>1563.0</ele><time>2026-04-12T11:00:25.999Z</time></trkpt><trkpt lat="41.93632255446783" lon="13.312920691930431"><ele>1565.5</ele><time>2026-04-12T11:00:27.999Z</time></trkpt><trkpt lat="41.93624115897365" lon="13.31293495507304"><ele>1568.0</ele><time>2026-04-12T11:00:28.999Z</time></trkpt><trkpt lat="41.9361143803611" lon="13.312941214162787"><ele>1568.0</ele><time>2026-04-12T11:00:29.999Z</time></trkpt><trkpt lat="41.93599283325113" lon="13.31293913474166"><ele>1568.0</ele><time>2026-04-12T11:00:30.999Z</time></trkpt><trkpt lat="41.93588274568337" lon="13.31294172625865"><ele>1568.0</ele><time>2026-04-12T11:00:31.999Z</time></trkpt><trkpt lat="41.93579025473985" lon="13.312970361604478"><ele>1568.0</ele><time>2026-04-12T11:00:32.999Z</time></trkpt><trkpt lat="41.935697275144186" lon="13.313020185217011"><ele>1568.0</ele><time>2026-04-12T11:00:33.999Z</time></trkpt><trkpt lat="41.93560898670204" lon="13.313056506279034"><ele>1569.1666666666665</ele><time>2026-04-12T11:00:34.999Z</time></trkpt><trkpt lat="41.93554388565714" lon="13.313056980407035"><ele>1570.3333333333333</ele><time>2026-04-12T11:00:35.999Z</time></trkpt><trkpt lat="41.93543559864478" lon="13.31305459363783"><ele>1571.5</ele><time>2026-04-12T11:00:37.999Z</time></trkpt><trkpt lat="41.9353571220605" lon="13.31305874962252"><ele>1572.6666666666665</ele><time>2026-04-12T11:00:39.999Z</time></trkpt><trkpt lat="41.93529412968509" lon="13.313053028115995"><ele>1573.8333333333333</ele><time>2026-04-12T11:00:41.999Z</time></trkpt><trkpt lat="41.93519614784979" lon="13.3130338086441"><ele>1575.0</ele><time>2026-04-12T11:00:43.999Z</time></trkpt><trkpt lat="41.93511143105993" lon="13.313051244065377"><ele>1575.6666666666667</ele><time>2026-04-12T11:00:45.999Z</time></trkpt><trkpt lat="41.934996170901904" lon="13.313077381670004"><ele>1576.3333333333335</ele><time>2026-04-12T11:00:47.999Z</time></trkpt><trkpt lat="41.93492335778238" lon="13.31310753831155"><ele>1577.0</ele><time>2026-04-12T11:00:48.999Z</time></trkpt><trkpt lat="41.934868565431856" lon="13.313152965191787"><ele>1577.6666666666667</ele><time>2026-04-12T11:00:49.999Z</time></trkpt><trkpt lat="41.93481065635118" lon="13.313192423829792"><ele>1578.3333333333335</ele><time>2026-04-12T11:00:50.999Z</time></trkpt><trkpt lat="41.934729688597805" lon="13.31327510736768"><ele>1579.0</ele><time>2026-04-12T11:00:52.999Z</time></trkpt><trkpt lat="41.934657559465826" lon="13.313317041108492"><ele>1579.0</ele><time>2026-04-12T11:00:53.999Z</time></trkpt><trkpt lat="41.93456749478149" lon="13.313412676313671"><ele>1579.0</ele><time>2026-04-12T11:00:55.999Z</time></trkpt><trkpt lat="41.93446042621993" lon="13.313478626506125"><ele>1579.0</ele><time>2026-04-12T11:00:57.999Z</time></trkpt><trkpt lat="41.93439035871378" lon="13.313496130944518"><ele>1579.0</ele><time>2026-04-12T11:00:58.999Z</time></trkpt><trkpt lat="41.93426589871698" lon="13.313542574476564"><ele>1579.0</ele><time>2026-04-12T11:01:00.999Z</time></trkpt><trkpt lat="41.93419106175124" lon="13.313589530486677"><ele>1580.8000000000002</ele><time>2026-04-12T11:01:01.999Z</time></trkpt><trkpt lat="41.93412463914216" lon="13.31363721090072"><ele>1582.6000000000001</ele><time>2026-04-12T11:01:02.999Z</time></trkpt><trkpt lat="41.93405741402489" lon="13.313672709591494"><ele>1584.4</ele><time>2026-04-12T11:01:03.999Z</time></trkpt><trkpt lat="41.933953665851156" lon="13.313694210326446"><ele>1586.2</ele><time>2026-04-12T11:01:05.999Z</time></trkpt><trkpt lat="41.933828352821685" lon="13.31375285231302"><ele>1588.0</ele><time>2026-04-12T11:01:07.998Z</time></trkpt><trkpt lat="41.933763731717995" lon="13.313784392848445"><ele>1588.0</ele><time>2026-04-12T11:01:08.998Z</time></trkpt><trkpt lat="41.933664876271806" lon="13.31384011059946"><ele>1588.0</ele><time>2026-04-12T11:01:09.998Z</time></trkpt><trkpt lat="41.9335724236584" lon="13.313895166730513"><ele>1588.0</ele><time>2026-04-12T11:01:10.998Z</time></trkpt><trkpt lat="41.93347596345958" lon="13.31393806143597"><ele>1588.0</ele><time>2026-04-12T11:01:11.998Z</time></trkpt><trkpt lat="41.93337414965517" lon="13.313953396689922"><ele>1588.0</ele><time>2026-04-12T11:01:12.998Z</time></trkpt><trkpt lat="41.93325174690227" lon="13.313975880861245"><ele>1588.0</ele><time>2026-04-12T11:01:13.998Z</time></trkpt><trkpt lat="41.933147981877966" lon="13.314010776900213"><ele>1588.0</ele><time>2026-04-12T11:01:14.998Z</time></trkpt><trkpt lat="41.93306220948127" lon="13.314043183356262"><ele>1588.0</ele><time>2026-04-12T11:01:15.998Z</time></trkpt><trkpt lat="41.93297798352674" lon="13.31406408521776"><ele>1588.0</ele><time>2026-04-12T11:01:16.998Z</time></trkpt><trkpt lat="41.93288401140929" lon="13.314071299441272"><ele>1588.0</ele><time>2026-04-12T11:01:17.998Z</time></trkpt><trkpt lat="41.93278735718819" lon="13.314072937908088"><ele>1588.0</ele><time>2026-04-12T11:01:18.998Z</time></trkpt><trkpt lat="41.932697530794464" lon="13.314065728226332"><ele>1588.0</ele><time>2026-04-12T11:01:19.998Z</time></trkpt><trkpt lat="41.932604861657566" lon="13.314048346069715"><ele>1588.0</ele><time>2026-04-12T11:01:20.998Z</time></trkpt><trkpt lat="41.93249740557475" lon="13.314020761711681"><ele>1588.0</ele><time>2026-04-12T11:01:21.998Z</time></trkpt><trkpt lat="41.93237374849622" lon="13.313995887141553"><ele>1588.0</ele><time>2026-04-12T11:01:23Z</time></trkpt><trkpt lat="41.93226696605028" lon="13.313987663401537"><ele>1587.6000000000001</ele><time>2026-04-12T11:01:24Z</time></trkpt><trkpt lat="41.932174009805664" lon="13.313983262315304"><ele>1587.2</ele><time>2026-04-12T11:01:25Z</time></trkpt><trkpt lat="41.93208509720238" lon="13.31398133277457"><ele>1586.8</ele><time>2026-04-12T11:01:26Z</time></trkpt><trkpt lat="41.93198908789842" lon="13.313988691830435"><ele>1586.4</ele><time>2026-04-12T11:01:27Z</time></trkpt><trkpt lat="41.93189601803882" lon="13.313994593688724"><ele>1586.0</ele><time>2026-04-12T11:01:28Z</time></trkpt><trkpt lat="41.93180312098374" lon="13.314040273706462"><ele>1586.1666666666665</ele><time>2026-04-12T11:01:29Z</time></trkpt><trkpt lat="41.931708645661715" lon="13.314082222391674"><ele>1586.3333333333333</ele><time>2026-04-12T11:01:30Z</time></trkpt><trkpt lat="41.931616514522545" lon="13.31412310114795"><ele>1586.5</ele><time>2026-04-12T11:01:31Z</time></trkpt><trkpt lat="41.931529690693" lon="13.314145071134224"><ele>1586.6666666666665</ele><time>2026-04-12T11:01:32Z</time></trkpt><trkpt lat="41.93143968384771" lon="13.314165330431122"><ele>1586.8333333333333</ele><time>2026-04-12T11:01:33Z</time></trkpt><trkpt lat="41.93136757235549" lon="13.314173037773228"><ele>1587.0</ele><time>2026-04-12T11:01:34Z</time></trkpt><trkpt lat="41.93129242422146" lon="13.314171394896926"><ele>1587.0</ele><time>2026-04-12T11:01:36Z</time></trkpt><trkpt lat="41.93128059221875" lon="13.314256293330219"><ele>1587.0</ele><time>2026-04-12T11:01:39Z</time></trkpt><trkpt lat="41.93128168478824" lon="13.314341969821719"><ele>1587.0</ele><time>2026-04-12T11:01:53.999Z</time></trkpt><trkpt lat="41.931338851641776" lon="13.314394139588"><ele>1587.0</ele><time>2026-04-12T11:01:56.999Z</time></trkpt><trkpt lat="41.9313954952915" lon="13.314438324154962"><ele>1587.0</ele><time>2026-04-12T11:02:11.999Z</time></trkpt><trkpt lat="41.9314254010247" lon="13.314522326168284"><ele>1587.0</ele><time>2026-04-12T11:02:29.999Z</time></trkpt><trkpt lat="41.93147840092571" lon="13.314590362899292"><ele>1587.0</ele><time>2026-04-12T11:02:31.999Z</time></trkpt><trkpt lat="41.93143985016386" lon="13.314515998912631"><ele>1587.0</ele><time>2026-04-12T11:02:44.999Z</time></trkpt><trkpt lat="41.9313704962041" lon="13.314433661507707"><ele>1587.0</ele><time>2026-04-12T11:02:47.999Z</time></trkpt><trkpt lat="41.93129879236988" lon="13.314404710881764"><ele>1587.0</ele><time>2026-04-12T11:02:49.999Z</time></trkpt><trkpt lat="41.93126116385167" lon="13.31431024083138"><ele>1587.0</ele><time>2026-04-12T11:02:51.999Z</time></trkpt><trkpt lat="41.931257220089805" lon="13.314215506742112"><ele>1587.0</ele><time>2026-04-12T11:02:53.999Z</time></trkpt><trkpt lat="41.93121311911806" lon="13.314148218431239"><ele>1587.0</ele><time>2026-04-12T11:02:56.999Z</time></trkpt><trkpt lat="41.931230196998236" lon="13.3142632731593"><ele>1587.0</ele><time>2026-04-12T11:11:22.999Z</time></trkpt><trkpt lat="41.93129862763038" lon="13.314321912276075"><ele>1587.0</ele><time>2026-04-12T11:11:24.999Z</time></trkpt><trkpt lat="41.93133359388557" lon="13.314407869382364"><ele>1587.0</ele><time>2026-04-12T11:11:26.999Z</time></trkpt><trkpt lat="41.93142098991159" lon="13.314507481403123"><ele>1587.0</ele><time>2026-04-12T11:11:28.999Z</time></trkpt><trkpt lat="41.93145327096524" lon="13.314632364296349"><ele>1587.0</ele><time>2026-04-12T11:11:30.999Z</time></trkpt><trkpt lat="41.93137573476443" lon="13.314700681035168"><ele>1588.3999999999999</ele><time>2026-04-12T11:11:33.999Z</time></trkpt><trkpt lat="41.93125265556436" lon="13.314765354506685"><ele>1589.8</ele><time>2026-04-12T11:11:35.999Z</time></trkpt><trkpt lat="41.93117413446732" lon="13.314813329696397"><ele>1591.2</ele><time>2026-04-12T11:11:36.999Z</time></trkpt><trkpt lat="41.93109366386382" lon="13.314871704776392"><ele>1592.6</ele><time>2026-04-12T11:11:37.999Z</time></trkpt><trkpt lat="41.93100908559399" lon="13.31494368633226"><ele>1594.0</ele><time>2026-04-12T11:11:38.999Z</time></trkpt><trkpt lat="41.93093102486814" lon="13.315003620471467"><ele>1595.0000000000002</ele><time>2026-04-12T11:11:39.999Z</time></trkpt><trkpt lat="41.93086349857998" lon="13.315065136436948"><ele>1596.0</ele><time>2026-04-12T11:11:40.999Z</time></trkpt><trkpt lat="41.93081457897124" lon="13.31514081934007"><ele>1597.0</ele><time>2026-04-12T11:11:41.999Z</time></trkpt><trkpt lat="41.93074902203836" lon="13.315225703603657"><ele>1598.0</ele><time>2026-04-12T11:11:42.999Z</time></trkpt><trkpt lat="41.930667647489045" lon="13.315322801255038"><ele>1599.0000000000002</ele><time>2026-04-12T11:11:43.999Z</time></trkpt><trkpt lat="41.93059884635765" lon="13.315407499813622"><ele>1600.0</ele><time>2026-04-12T11:11:44.999Z</time></trkpt><trkpt lat="41.930540582691336" lon="13.315493346799649"><ele>1601.2</ele><time>2026-04-12T11:11:45.999Z</time></trkpt><trkpt lat="41.9304711875598" lon="13.315637252689593"><ele>1602.4</ele><time>2026-04-12T11:11:47.999Z</time></trkpt><trkpt lat="41.93043106166279" lon="13.31572014656488"><ele>1603.6</ele><time>2026-04-12T11:11:48.999Z</time></trkpt><trkpt lat="41.93033235574575" lon="13.315757232398338"><ele>1604.8</ele><time>2026-04-12T11:11:51Z</time></trkpt><trkpt lat="41.93028270177278" lon="13.315828689350282"><ele>1606.0</ele><time>2026-04-12T11:11:52Z</time></trkpt><trkpt lat="41.930219781464665" lon="13.31591590864756"><ele>1606.0000000000002</ele><time>2026-04-12T11:11:53Z</time></trkpt><trkpt lat="41.9301721862013" lon="13.315988501724194"><ele>1606.0</ele><time>2026-04-12T11:11:54Z</time></trkpt><trkpt lat="41.93012335785014" lon="13.316053023423175"><ele>1606.0</ele><time>2026-04-12T11:11:55Z</time></trkpt><trkpt lat="41.930126733721984" lon="13.316148870950865"><ele>1606.0</ele><time>2026-04-12T11:11:57Z</time></trkpt><trkpt lat="41.930141674076964" lon="13.316258604922753"><ele>1606.0000000000002</ele><time>2026-04-12T11:12:00Z</time></trkpt><trkpt lat="41.9301064307429" lon="13.316386212773994"><ele>1606.0</ele><time>2026-04-12T11:12:05Z</time></trkpt><trkpt lat="41.930054243896144" lon="13.316499207167942"><ele>1606.8333333333335</ele><time>2026-04-12T11:12:07Z</time></trkpt><trkpt lat="41.92998788621439" lon="13.316632267343905"><ele>1607.6666666666667</ele><time>2026-04-12T11:12:09Z</time></trkpt><trkpt lat="41.92994181499958" lon="13.316723371062524"><ele>1608.5</ele><time>2026-04-12T11:12:10Z</time></trkpt><trkpt lat="41.92989405642961" lon="13.316787756993346"><ele>1609.3333333333335</ele><time>2026-04-12T11:12:11Z</time></trkpt><trkpt lat="41.92982273441617" lon="13.31684799623842"><ele>1610.1666666666667</ele><time>2026-04-12T11:12:12Z</time></trkpt><trkpt lat="41.92975195266986" lon="13.316892026508869"><ele>1611.0</ele><time>2026-04-12T11:12:13Z</time></trkpt><trkpt lat="41.929669588750386" lon="13.316932302269965"><ele>1611.0</ele><time>2026-04-12T11:12:14Z</time></trkpt><trkpt lat="41.92956382358128" lon="13.316982313534409"><ele>1611.0</ele><time>2026-04-12T11:12:15Z</time></trkpt><trkpt lat="41.92948939921878" lon="13.31702597870729"><ele>1611.0</ele><time>2026-04-12T11:12:16Z</time></trkpt><trkpt lat="41.92942531870494" lon="13.317072714364668"><ele>1611.0</ele><time>2026-04-12T11:12:17Z</time></trkpt><trkpt lat="41.9293499495017" lon="13.317123530517371"><ele>1611.0</ele><time>2026-04-12T11:12:18Z</time></trkpt><trkpt lat="41.92928180109316" lon="13.317181138615986"><ele>1611.0</ele><time>2026-04-12T11:12:19Z</time></trkpt><trkpt lat="41.92923198287687" lon="13.317270922338743"><ele>1611.6666666666667</ele><time>2026-04-12T11:12:21Z</time></trkpt><trkpt lat="41.92917129897777" lon="13.31734157515005"><ele>1612.3333333333335</ele><time>2026-04-12T11:12:22Z</time></trkpt><trkpt lat="41.92911202624155" lon="13.317415983673733"><ele>1613.0</ele><time>2026-04-12T11:12:23Z</time></trkpt><trkpt lat="41.929046972454344" lon="13.317497969606151"><ele>1613.6666666666667</ele><time>2026-04-12T11:12:24Z</time></trkpt><trkpt lat="41.92903568255798" lon="13.317618311832284"><ele>1614.3333333333335</ele><time>2026-04-12T11:12:26Z</time></trkpt><trkpt lat="41.929028982673024" lon="13.317729337067433"><ele>1615.0</ele><time>2026-04-12T11:12:27Z</time></trkpt><trkpt lat="41.929034174856916" lon="13.31781635378182"><ele>1615.0</ele><time>2026-04-12T11:12:28Z</time></trkpt><trkpt lat="41.929037894487514" lon="13.317904535756693"><ele>1615.0</ele><time>2026-04-12T11:12:29Z</time></trkpt><trkpt lat="41.92908158021614" lon="13.318031984228858"><ele>1615.0</ele><time>2026-04-12T11:12:31Z</time></trkpt><trkpt lat="41.929160680249545" lon="13.318166875403122"><ele>1615.0</ele><time>2026-04-12T11:12:33Z</time></trkpt><trkpt lat="41.929210627583004" lon="13.318262737414932"><ele>1615.0</ele><time>2026-04-12T11:12:34Z</time></trkpt><trkpt lat="41.929243291702875" lon="13.318345168847546"><ele>1614.8</ele><time>2026-04-12T11:12:35Z</time></trkpt><trkpt lat="41.92926538140691" lon="13.318511678467914"><ele>1614.6</ele><time>2026-04-12T11:12:37Z</time></trkpt><trkpt lat="41.9292571949518" lon="13.318596074190179"><ele>1614.4</ele><time>2026-04-12T11:12:38Z</time></trkpt><trkpt lat="41.929240768197445" lon="13.318685769360636"><ele>1614.2</ele><time>2026-04-12T11:12:39Z</time></trkpt><trkpt lat="41.92923562729221" lon="13.318821723528828"><ele>1614.0</ele><time>2026-04-12T11:12:41Z</time></trkpt><trkpt lat="41.92924653952847" lon="13.318943186592785"><ele>1615.5</ele><time>2026-04-12T11:12:43Z</time></trkpt><trkpt lat="41.92925841458922" lon="13.319049395948266"><ele>1617.0</ele><time>2026-04-12T11:12:45Z</time></trkpt><trkpt lat="41.929271581260195" lon="13.319139505631348"><ele>1618.5</ele><time>2026-04-12T11:12:49Z</time></trkpt><trkpt lat="41.92930583669248" lon="13.319238037316333"><ele>1620.0</ele><time>2026-04-12T11:12:52Z</time></trkpt><trkpt lat="41.92934235310289" lon="13.319352311682778"><ele>1621.5</ele><time>2026-04-12T11:12:55.999Z</time></trkpt><trkpt lat="41.92935734293563" lon="13.319471806042367"><ele>1623.0</ele><time>2026-04-12T11:12:57.999Z</time></trkpt><trkpt lat="41.9293741484823" lon="13.319590983688427"><ele>1623.0</ele><time>2026-04-12T11:12:59.999Z</time></trkpt><trkpt lat="41.9294052116704" lon="13.319695221136573"><ele>1623.0</ele><time>2026-04-12T11:13:01.999Z</time></trkpt><trkpt lat="41.92946763415833" lon="13.319722695359092"><ele>1623.0</ele><time>2026-04-12T11:13:03.999Z</time></trkpt><trkpt lat="41.929532977420756" lon="13.319720724158325"><ele>1623.0</ele><time>2026-04-12T11:13:05.999Z</time></trkpt><trkpt lat="41.92960005231364" lon="13.319753839798675"><ele>1623.0</ele><time>2026-04-12T11:13:07.999Z</time></trkpt><trkpt lat="41.92968405044092" lon="13.319779610167831"><ele>1623.0</ele><time>2026-04-12T11:13:10.999Z</time></trkpt><trkpt lat="41.929758434972754" lon="13.319750020830693"><ele>1623.0</ele><time>2026-04-12T11:13:13.999Z</time></trkpt><trkpt lat="41.929841252916134" lon="13.319750243136767"><ele>1623.0</ele><time>2026-04-12T11:13:17.999Z</time></trkpt><trkpt lat="41.9299534513794" lon="13.31977415557364"><ele>1623.0</ele><time>2026-04-12T11:13:19.999Z</time></trkpt><trkpt lat="41.93002149438586" lon="13.319728329180254"><ele>1623.0</ele><time>2026-04-12T11:13:21.999Z</time></trkpt><trkpt lat="41.93010418074206" lon="13.319656659943634"><ele>1623.0</ele><time>2026-04-12T11:13:23.999Z</time></trkpt><trkpt lat="41.93017427661218" lon="13.319627829014363"><ele>1623.0</ele><time>2026-04-12T11:13:25.999Z</time></trkpt><trkpt lat="41.93023152549917" lon="13.319681237303655"><ele>1622.5</ele><time>2026-04-12T11:13:28.999Z</time></trkpt><trkpt lat="41.93028113649475" lon="13.319770004006902"><ele>1622.0</ele><time>2026-04-12T11:13:30.999Z</time></trkpt><trkpt lat="41.93034560216493" lon="13.319822497037146"><ele>1621.5</ele><time>2026-04-12T11:13:34.999Z</time></trkpt><trkpt lat="41.93040414007133" lon="13.319854481410653"><ele>1621.0</ele><time>2026-04-12T11:13:37.999Z</time></trkpt><trkpt lat="41.93047601106533" lon="13.319889574917987"><ele>1620.5</ele><time>2026-04-12T11:13:40.999Z</time></trkpt><trkpt lat="41.93055625047735" lon="13.319900838737334"><ele>1620.0</ele><time>2026-04-12T11:13:43.999Z</time></trkpt><trkpt lat="41.9306489053139" lon="13.319896968138217"><ele>1619.9999999999998</ele><time>2026-04-12T11:13:46.999Z</time></trkpt><trkpt lat="41.930696249670454" lon="13.31981524496565"><ele>1620.0</ele><time>2026-04-12T11:13:49.999Z</time></trkpt><trkpt lat="41.93074025601438" lon="13.319739983383025"><ele>1620.0</ele><time>2026-04-12T11:13:51.999Z</time></trkpt><trkpt lat="41.930762692466" lon="13.319652692218433"><ele>1620.0</ele><time>2026-04-12T11:13:53.998Z</time></trkpt><trkpt lat="41.930779399182626" lon="13.319564491970757"><ele>1620.0</ele><time>2026-04-12T11:13:57Z</time></trkpt><trkpt lat="41.93084017783553" lon="13.319503620166557"><ele>1619.9999999999998</ele><time>2026-04-12T11:14:00Z</time></trkpt><trkpt lat="41.93090344222364" lon="13.319456247104316"><ele>1620.0</ele><time>2026-04-12T11:14:03Z</time></trkpt><trkpt lat="41.930988995633726" lon="13.31944891035529"><ele>1618.8571428571427</ele><time>2026-04-12T11:14:09Z</time></trkpt><trkpt lat="41.93106736874662" lon="13.319499046047133"><ele>1617.7142857142858</ele><time>2026-04-12T11:14:13Z</time></trkpt><trkpt lat="41.93111989371477" lon="13.31956456729004"><ele>1616.5714285714284</ele><time>2026-04-12T11:14:19Z</time></trkpt><trkpt lat="41.931172675689076" lon="13.319617631183476"><ele>1615.4285714285713</ele><time>2026-04-12T11:14:22.999Z</time></trkpt><trkpt lat="41.93122219161659" lon="13.319690290349483"><ele>1614.2857142857142</ele><time>2026-04-12T11:14:26.999Z</time></trkpt><trkpt lat="41.931297401488536" lon="13.31967499960409"><ele>1613.142857142857</ele><time>2026-04-12T11:14:27.999Z</time></trkpt><trkpt lat="41.931364243408176" lon="13.319701145134745"><ele>1612.0</ele><time>2026-04-12T11:14:35.999Z</time></trkpt><trkpt lat="41.93143277040074" lon="13.319714648884428"><ele>1611.1666666666667</ele><time>2026-04-12T11:14:37.999Z</time></trkpt><trkpt lat="41.931489391691" lon="13.319767867029416"><ele>1610.3333333333335</ele><time>2026-04-12T11:14:38.999Z</time></trkpt><trkpt lat="41.93156656889817" lon="13.319845132142882"><ele>1609.5</ele><time>2026-04-12T11:14:40.999Z</time></trkpt><trkpt lat="41.931633287769664" lon="13.319885965095766"><ele>1608.6666666666665</ele><time>2026-04-12T11:14:42.999Z</time></trkpt><trkpt lat="41.931660190467156" lon="13.319975195459875"><ele>1607.8333333333333</ele><time>2026-04-12T11:14:44.999Z</time></trkpt><trkpt lat="41.93161282593732" lon="13.320092946922642"><ele>1607.0</ele><time>2026-04-12T11:14:47.999Z</time></trkpt><trkpt lat="41.93161263560234" lon="13.320219829256352"><ele>1606.9999999999998</ele><time>2026-04-12T11:14:50.998Z</time></trkpt><trkpt lat="41.931619597490844" lon="13.32032784825473"><ele>1607.0</ele><time>2026-04-12T11:14:53.998Z</time></trkpt><trkpt lat="41.93160880565522" lon="13.320418114621722"><ele>1607.0</ele><time>2026-04-12T11:14:55.998Z</time></trkpt><trkpt lat="41.93158375851594" lon="13.320514396359565"><ele>1607.0</ele><time>2026-04-12T11:14:57.998Z</time></trkpt><trkpt lat="41.93150919940674" lon="13.320587928079725"><ele>1606.9999999999998</ele><time>2026-04-12T11:15:02.998Z</time></trkpt><trkpt lat="41.93145551867569" lon="13.320663937473288"><ele>1607.0</ele><time>2026-04-12T11:15:04.998Z</time></trkpt><trkpt lat="41.93142912170043" lon="13.320748260648514"><ele>1607.3999999999999</ele><time>2026-04-12T11:15:06.998Z</time></trkpt><trkpt lat="41.93139436522902" lon="13.320878057640002"><ele>1607.8</ele><time>2026-04-12T11:15:07.998Z</time></trkpt><trkpt lat="41.93138674549073" lon="13.32102706453754"><ele>1608.2</ele><time>2026-04-12T11:15:09.998Z</time></trkpt><trkpt lat="41.93137494556624" lon="13.321176572659732"><ele>1608.6</ele><time>2026-04-12T11:15:11.998Z</time></trkpt><trkpt lat="41.93138464446983" lon="13.321262369539285"><ele>1609.0</ele><time>2026-04-12T11:15:12.998Z</time></trkpt><trkpt lat="41.9313923184033" lon="13.321365995105422"><ele>1610.1666666666667</ele><time>2026-04-12T11:15:13.998Z</time></trkpt><trkpt lat="41.93142362576581" lon="13.321488492634122"><ele>1611.3333333333335</ele><time>2026-04-12T11:15:15.998Z</time></trkpt><trkpt lat="41.93145518797138" lon="13.321578982304862"><ele>1612.5</ele><time>2026-04-12T11:15:26.998Z</time></trkpt><trkpt lat="41.93143590408812" lon="13.3216687161611"><ele>1613.6666666666665</ele><time>2026-04-12T11:15:27.998Z</time></trkpt><trkpt lat="41.931398250507215" lon="13.321758397147484"><ele>1614.8333333333333</ele><time>2026-04-12T11:15:29.998Z</time></trkpt><trkpt lat="41.93136277418934" lon="13.32185318322052"><ele>1616.0</ele><time>2026-04-12T11:15:31.998Z</time></trkpt><trkpt lat="41.9313393291761" lon="13.321965942393016"><ele>1616.0</ele><time>2026-04-12T11:15:34.998Z</time></trkpt><trkpt lat="41.93131876728076" lon="13.322048112633052"><ele>1616.0</ele><time>2026-04-12T11:15:36.998Z</time></trkpt><trkpt lat="41.9313052684619" lon="13.322140484896913"><ele>1616.0</ele><time>2026-04-12T11:15:38.998Z</time></trkpt><trkpt lat="41.931319660376374" lon="13.322228907723181"><ele>1616.0</ele><time>2026-04-12T11:15:40.998Z</time></trkpt><trkpt lat="41.93133753811173" lon="13.322329587735082"><ele>1616.0</ele><time>2026-04-12T11:15:42.997Z</time></trkpt><trkpt lat="41.93136287519789" lon="13.322445509590905"><ele>1616.0</ele><time>2026-04-12T11:15:44.997Z</time></trkpt><trkpt lat="41.93140156920721" lon="13.322534296257992"><ele>1616.0</ele><time>2026-04-12T11:15:47.997Z</time></trkpt><trkpt lat="41.931445758696995" lon="13.322688681305422"><ele>1616.4999999999998</ele><time>2026-04-12T11:15:49.997Z</time></trkpt><trkpt lat="41.93151663540661" lon="13.322709497814634"><ele>1617.0</ele><time>2026-04-12T11:15:53.997Z</time></trkpt><trkpt lat="41.93158867880684" lon="13.322777185484819"><ele>1617.5</ele><time>2026-04-12T11:15:56.997Z</time></trkpt><trkpt lat="41.931659256481204" lon="13.322825090704438"><ele>1618.0</ele><time>2026-04-12T11:15:59.997Z</time></trkpt><trkpt lat="41.93172338535013" lon="13.322860965808623"><ele>1618.4999999999998</ele><time>2026-04-12T11:16:02.999Z</time></trkpt><trkpt lat="41.93176620410582" lon="13.322931934527444"><ele>1619.0</ele><time>2026-04-12T11:16:05.999Z</time></trkpt><trkpt lat="41.93178550366297" lon="13.323030894144102"><ele>1620.1666666666665</ele><time>2026-04-12T11:16:08.999Z</time></trkpt><trkpt lat="41.93177995718883" lon="13.323132041106286"><ele>1621.3333333333333</ele><time>2026-04-12T11:16:29Z</time></trkpt><trkpt lat="41.931753457310464" lon="13.323212588133602"><ele>1622.5</ele><time>2026-04-12T11:16:39.999Z</time></trkpt><trkpt lat="41.93172313498214" lon="13.323296539727586"><ele>1623.6666666666665</ele><time>2026-04-12T11:17:03.999Z</time></trkpt><trkpt lat="41.93169224392409" lon="13.323415900936443"><ele>1624.8333333333333</ele><time>2026-04-12T11:17:50.998Z</time></trkpt><trkpt lat="41.9317269136226" lon="13.323513629097816"><ele>1626.0</ele><time>2026-04-12T11:18:25Z</time></trkpt><trkpt lat="41.93173861321309" lon="13.323604922302785"><ele>1626.0</ele><time>2026-04-12T11:18:45Z</time></trkpt><trkpt lat="41.9317224776782" lon="13.323698308004403"><ele>1626.0</ele><time>2026-04-12T11:19:32.999Z</time></trkpt><trkpt lat="41.93170236158276" lon="13.323798520535592"><ele>1626.0</ele><time>2026-04-12T11:20:22.999Z</time></trkpt><trkpt lat="41.93169135864312" lon="13.323910827600256"><ele>1626.0</ele><time>2026-04-12T11:21:17.999Z</time></trkpt><trkpt lat="41.93168097887923" lon="13.323994773008543"><ele>1626.0</ele><time>2026-04-12T11:21:38.999Z</time></trkpt><trkpt lat="41.931672590783194" lon="13.324087918290232"><ele>1626.0</ele><time>2026-04-12T11:22:17.998Z</time></trkpt><trkpt lat="41.93164981833223" lon="13.324181728223333"><ele>1626.0</ele><time>2026-04-12T11:23:15.999Z</time></trkpt><trkpt lat="41.931607903415745" lon="13.324259702341404"><ele>1627.142857142857</ele><time>2026-04-12T11:26:24.998Z</time></trkpt><trkpt lat="41.931587204323655" lon="13.324343880215373"><ele>1628.2857142857142</ele><time>2026-04-12T11:26:33Z</time></trkpt><trkpt lat="41.93158090358049" lon="13.324432266759743"><ele>1629.4285714285713</ele><time>2026-04-12T11:26:43Z</time></trkpt><trkpt lat="41.931541576154046" lon="13.324507232164882"><ele>1630.5714285714284</ele><time>2026-04-12T11:26:53Z</time></trkpt><trkpt lat="41.931514163670386" lon="13.324608807760809"><ele>1631.7142857142858</ele><time>2026-04-12T11:26:58Z</time></trkpt><trkpt lat="41.93149306098819" lon="13.324694382723418"><ele>1632.8571428571427</ele><time>2026-04-12T11:28:15.999Z</time></trkpt><trkpt lat="41.931465819523574" lon="13.324776635091558"><ele>1634.0</ele><time>2026-04-12T11:29:28.999Z</time></trkpt><trkpt lat="41.93149801744356" lon="13.324696130896665"><ele>1633.9999999999998</ele><time>2026-04-12T11:29:40.999Z</time></trkpt><trkpt lat="41.93148657218588" lon="13.324800765215672"><ele>1634.0</ele><time>2026-04-12T11:30:31.998Z</time></trkpt><trkpt lat="41.93148936961039" lon="13.324898595947566"><ele>1634.0</ele><time>2026-04-12T11:30:34.998Z</time></trkpt><trkpt lat="41.931468948017766" lon="13.325001882867848"><ele>1634.0</ele><time>2026-04-12T11:30:38.998Z</time></trkpt><trkpt lat="41.93142296653249" lon="13.325062220650375"><ele>1634.0</ele><time>2026-04-12T11:30:41.998Z</time></trkpt><trkpt lat="41.93138474369137" lon="13.325147862691818"><ele>1633.9999999999998</ele><time>2026-04-12T11:30:43.998Z</time></trkpt><trkpt lat="41.93133501160662" lon="13.325202768464024"><ele>1634.0</ele><time>2026-04-12T11:30:45.999Z</time></trkpt><trkpt lat="41.93127808997638" lon="13.325300134027492"><ele>1633.9999999999998</ele><time>2026-04-12T11:30:49.999Z</time></trkpt><trkpt lat="41.93120984357264" lon="13.325406276121157"><ele>1634.0</ele><time>2026-04-12T11:30:52.999Z</time></trkpt><trkpt lat="41.93116833752927" lon="13.325483583105077"><ele>1634.0</ele><time>2026-04-12T11:30:54.999Z</time></trkpt><trkpt lat="41.93113834606393" lon="13.325562377884983"><ele>1634.0</ele><time>2026-04-12T11:30:56.999Z</time></trkpt><trkpt lat="41.931104791254484" lon="13.325655306264636"><ele>1633.9999999999998</ele><time>2026-04-12T11:30:58.999Z</time></trkpt><trkpt lat="41.931042420731735" lon="13.325751868598754"><ele>1634.0</ele><time>2026-04-12T11:31:01.999Z</time></trkpt><trkpt lat="41.931002353763574" lon="13.325819893799155"><ele>1634.2857142857142</ele><time>2026-04-12T11:31:03.999Z</time></trkpt><trkpt lat="41.930957868676515" lon="13.325910691069085"><ele>1634.5714285714284</ele><time>2026-04-12T11:31:05.999Z</time></trkpt><trkpt lat="41.930958835299606" lon="13.326014848660748"><ele>1634.8571428571427</ele><time>2026-04-12T11:31:08.999Z</time></trkpt><trkpt lat="41.93097888945434" lon="13.326128155994587"><ele>1635.142857142857</ele><time>2026-04-12T11:31:11.999Z</time></trkpt><trkpt lat="41.93100046306261" lon="13.32620877663218"><ele>1635.4285714285716</ele><time>2026-04-12T11:31:15.999Z</time></trkpt><trkpt lat="41.93095134107906" lon="13.32626263125923"><ele>1635.7142857142856</ele><time>2026-04-12T11:31:17.999Z</time></trkpt><trkpt lat="41.930968125470635" lon="13.326354897879924"><ele>1636.0</ele><time>2026-04-12T11:32:21.999Z</time></trkpt><trkpt lat="41.930980663966814" lon="13.326441034411127"><ele>1637.5000000000002</ele><time>2026-04-12T11:32:26.999Z</time></trkpt><trkpt lat="41.93098243588283" lon="13.326545458542862"><ele>1639.0</ele><time>2026-04-12T11:32:34.998Z</time></trkpt><trkpt lat="41.93096390325291" lon="13.326635019523154"><ele>1640.5</ele><time>2026-04-12T11:32:42.998Z</time></trkpt><trkpt lat="41.93099508661276" lon="13.326708593233935"><ele>1642.0</ele><time>2026-04-12T11:32:48.998Z</time></trkpt><trkpt lat="41.931023929090344" lon="13.32678758341728"><ele>1643.5000000000002</ele><time>2026-04-12T11:32:52Z</time></trkpt><trkpt lat="41.93107341007986" lon="13.32689421261586"><ele>1645.0</ele><time>2026-04-12T11:32:55Z</time></trkpt><trkpt lat="41.93112509888343" lon="13.326985861395297"><ele>1645.0</ele><time>2026-04-12T11:32:56Z</time></trkpt><trkpt lat="41.93115131860825" lon="13.327092929964923"><ele>1645.0</ele><time>2026-04-12T11:32:58Z</time></trkpt><trkpt lat="41.931185197345" lon="13.327171917128872"><ele>1645.0</ele><time>2026-04-12T11:32:59Z</time></trkpt><trkpt lat="41.93126370916409" lon="13.327282582593131"><ele>1645.0</ele><time>2026-04-12T11:33:01Z</time></trkpt><trkpt lat="41.931321056519984" lon="13.327394419953574"><ele>1645.0</ele><time>2026-04-12T11:33:03Z</time></trkpt><trkpt lat="41.931365956231915" lon="13.327496944516808"><ele>1645.4285714285713</ele><time>2026-04-12T11:33:05Z</time></trkpt><trkpt lat="41.93141628173989" lon="13.327557015103793"><ele>1645.857142857143</ele><time>2026-04-12T11:33:08Z</time></trkpt><trkpt lat="41.93148216939215" lon="13.32759174483433"><ele>1646.2857142857142</ele><time>2026-04-12T11:33:12Z</time></trkpt><trkpt lat="41.93153962350928" lon="13.327627720705637"><ele>1646.7142857142858</ele><time>2026-04-12T11:33:16Z</time></trkpt><trkpt lat="41.931615060776664" lon="13.327623549889278"><ele>1647.142857142857</ele><time>2026-04-12T11:33:25.999Z</time></trkpt><trkpt lat="41.931658325312945" lon="13.327558351154979"><ele>1647.5714285714284</ele><time>2026-04-12T11:33:27.999Z</time></trkpt><trkpt lat="41.93171451786245" lon="13.327492902568256"><ele>1648.0</ele><time>2026-04-12T11:33:31.999Z</time></trkpt><trkpt lat="41.9317837083696" lon="13.32748277817298"><ele>1648.0000000000002</ele><time>2026-04-12T11:33:35.999Z</time></trkpt><trkpt lat="41.93186408682235" lon="13.327503607695927"><ele>1648.0</ele><time>2026-04-12T11:33:39.999Z</time></trkpt><trkpt lat="41.93192733861822" lon="13.327534150308155"><ele>1648.0</ele><time>2026-04-12T11:34:26.999Z</time></trkpt><trkpt lat="41.932004894627745" lon="13.327527705724895"><ele>1648.0</ele><time>2026-04-12T11:34:34.999Z</time></trkpt><trkpt lat="41.93208125866374" lon="13.32756705319231"><ele>1648.0000000000002</ele><time>2026-04-12T11:34:37.999Z</time></trkpt><trkpt lat="41.93214621511702" lon="13.327598874126767"><ele>1648.0</ele><time>2026-04-12T11:34:39.999Z</time></trkpt><trkpt lat="41.93221845767322" lon="13.327609340423377"><ele>1648.0000000000002</ele><time>2026-04-12T11:34:41.999Z</time></trkpt><trkpt lat="41.9323067303624" lon="13.32760106319856"><ele>1648.0</ele><time>2026-04-12T11:34:43.998Z</time></trkpt><trkpt lat="41.93237112450761" lon="13.327676424932925"><ele>1648.0</ele><time>2026-04-12T11:34:47.998Z</time></trkpt><trkpt lat="41.932352885906035" lon="13.327762243090572"><ele>1648.0</ele><time>2026-04-12T11:34:50.998Z</time></trkpt><trkpt lat="41.932320623879114" lon="13.327865865749185"><ele>1648.0000000000002</ele><time>2026-04-12T11:35:14Z</time></trkpt><trkpt lat="41.93224788070971" lon="13.32790316910401"><ele>1648.0</ele><time>2026-04-12T11:35:19Z</time></trkpt><trkpt lat="41.93217661271929" lon="13.327941316188003"><ele>1648.0</ele><time>2026-04-12T11:35:28.999Z</time></trkpt><trkpt lat="41.93210190844971" lon="13.328012749396294"><ele>1648.0</ele><time>2026-04-12T11:35:32.999Z</time></trkpt><trkpt lat="41.93197301682308" lon="13.328097416226555"><ele>1648.0</ele><time>2026-04-12T11:35:35.999Z</time></trkpt><trkpt lat="41.93191157460077" lon="13.328146665885672"><ele>1648.0</ele><time>2026-04-12T11:35:37.999Z</time></trkpt><trkpt lat="41.93182925531789" lon="13.32820142102117"><ele>1648.0</ele><time>2026-04-12T11:35:39.999Z</time></trkpt><trkpt lat="41.931779736625785" lon="13.328273366283117"><ele>1649.4285714285713</ele><time>2026-04-12T11:35:45Z</time></trkpt><trkpt lat="41.931712646833276" lon="13.328347657263205"><ele>1650.857142857143</ele><time>2026-04-12T11:35:50Z</time></trkpt><trkpt lat="41.93164898265728" lon="13.328376923301045"><ele>1652.2857142857142</ele><time>2026-04-12T11:35:52Z</time></trkpt><trkpt lat="41.931578428407434" lon="13.328418065746055"><ele>1653.7142857142858</ele><time>2026-04-12T11:35:55Z</time></trkpt><trkpt lat="41.931514971709" lon="13.328430156099133"><ele>1655.142857142857</ele><time>2026-04-12T11:36:52.999Z</time></trkpt><trkpt lat="41.93145109874913" lon="13.328452946462324"><ele>1656.5714285714284</ele><time>2026-04-12T11:37:07.001Z</time></trkpt><trkpt lat="41.93137335841924" lon="13.328483037710447"><ele>1658.0</ele><time>2026-04-12T11:39:45Z</time></trkpt><trkpt lat="41.931313458748185" lon="13.328531192918076"><ele>1657.9999999999998</ele><time>2026-04-12T11:39:48Z</time></trkpt><trkpt lat="41.93127646500775" lon="13.328616748715033"><ele>1658.0</ele><time>2026-04-12T11:39:52Z</time></trkpt><trkpt lat="41.931240130337116" lon="13.32870320125818"><ele>1658.0</ele><time>2026-04-12T11:39:59Z</time></trkpt><trkpt lat="41.93120731922869" lon="13.32878136395539"><ele>1658.0</ele><time>2026-04-12T11:40:02Z</time></trkpt><trkpt lat="41.931153856099066" lon="13.328896081921231"><ele>1657.9999999999998</ele><time>2026-04-12T11:40:05Z</time></trkpt><trkpt lat="41.93110037431436" lon="13.329011075330733"><ele>1658.0</ele><time>2026-04-12T11:53:13.999Z</time></trkpt><trkpt lat="41.93104721336225" lon="13.329056608549553"><ele>1657.857142857143</ele><time>2026-04-12T11:53:20.999Z</time></trkpt><trkpt lat="41.93098437590054" lon="13.329111228922608"><ele>1657.7142857142858</ele><time>2026-04-12T11:53:24.999Z</time></trkpt><trkpt lat="41.930921932069126" lon="13.329170616311242"><ele>1657.5714285714284</ele><time>2026-04-12T11:53:36.998Z</time></trkpt><trkpt lat="41.93086471216047" lon="13.329210477350303"><ele>1657.4285714285716</ele><time>2026-04-12T11:53:39.998Z</time></trkpt><trkpt lat="41.93085706313544" lon="13.329294730698589"><ele>1657.2857142857144</ele><time>2026-04-12T11:59:44.998Z</time></trkpt><trkpt lat="41.9309201003085" lon="13.32930352917668"><ele>1657.142857142857</ele><time>2026-04-12T12:03:10.999Z</time></trkpt><trkpt lat="41.93098244389084" lon="13.329273754671139"><ele>1657.0</ele><time>2026-04-12T12:07:36Z</time></trkpt><trkpt lat="41.93105828863215" lon="13.32926139766966"><ele>1657.0</ele><time>2026-04-12T12:07:43.999Z</time></trkpt><trkpt lat="41.93113515436395" lon="13.329248699685797"><ele>1657.0</ele><time>2026-04-12T12:07:48.999Z</time></trkpt><trkpt lat="41.9312082166116" lon="13.329212996911801"><ele>1657.0</ele><time>2026-04-12T12:07:53.999Z</time></trkpt><trkpt lat="41.931274917511104" lon="13.329174791129489"><ele>1657.0</ele><time>2026-04-12T12:07:56.999Z</time></trkpt><trkpt lat="41.93134671866527" lon="13.32913176887073"><ele>1657.0</ele><time>2026-04-12T12:08:04.999Z</time></trkpt><trkpt lat="41.93140632729576" lon="13.32908489495283"><ele>1657.0</ele><time>2026-04-12T12:08:18.999Z</time></trkpt><trkpt lat="41.93146525166256" lon="13.329043925719027"><ele>1657.0</ele><time>2026-04-12T12:08:22.999Z</time></trkpt><trkpt lat="41.93152827449983" lon="13.329066493666833"><ele>1657.0</ele><time>2026-04-12T12:10:56Z</time></trkpt><trkpt lat="41.93158145482641" lon="13.329010965395959"><ele>1657.0</ele><time>2026-04-12T12:13:22Z</time></trkpt><trkpt lat="41.9316612531273" lon="13.328993246698126"><ele>1657.0</ele><time>2026-04-12T12:13:27Z</time></trkpt><trkpt lat="41.93172928282782" lon="13.328967202303897"><ele>1657.0</ele><time>2026-04-12T12:13:31Z</time></trkpt><trkpt lat="41.93178836723717" lon="13.328931566456436"><ele>1657.0</ele><time>2026-04-12T12:13:36Z</time></trkpt><trkpt lat="41.93185955082988" lon="13.328890044306345"><ele>1657.0</ele><time>2026-04-12T12:13:45Z</time></trkpt><trkpt lat="41.9319230168114" lon="13.328867858465092"><ele>1657.0</ele><time>2026-04-12T12:13:49Z</time></trkpt><trkpt lat="41.93199090656381" lon="13.328908088540649"><ele>1655.8333333333335</ele><time>2026-04-12T12:13:53.999Z</time></trkpt><trkpt lat="41.93192573096417" lon="13.328850615537021"><ele>1654.6666666666667</ele><time>2026-04-12T12:14:56.001Z</time></trkpt><trkpt lat="41.93202179848768" lon="13.328835611831387"><ele>1653.5</ele><time>2026-04-12T12:15:12Z</time></trkpt><trkpt lat="41.93208877743372" lon="13.328835096799994"><ele>1652.3333333333335</ele><time>2026-04-12T12:15:15Z</time></trkpt><trkpt lat="41.93215768608635" lon="13.328835620306819"><ele>1651.1666666666667</ele><time>2026-04-12T12:15:20Z</time></trkpt><trkpt lat="41.93226157692174" lon="13.328845172425336"><ele>1650.0</ele><time>2026-04-12T12:21:49Z</time></trkpt><trkpt lat="41.93232826785801" lon="13.328843656077483"><ele>1650.0</ele><time>2026-04-12T12:21:53Z</time></trkpt><trkpt lat="41.93239309932418" lon="13.328843493083196"><ele>1650.0</ele><time>2026-04-12T12:21:56.999Z</time></trkpt><trkpt lat="41.932468113206326" lon="13.328828345942297"><ele>1650.0</ele><time>2026-04-12T12:22:01.999Z</time></trkpt><trkpt lat="41.932537592937045" lon="13.328807614140041"><ele>1650.0</ele><time>2026-04-12T12:22:10.999Z</time></trkpt><trkpt lat="41.93259888803222" lon="13.328777098414418"><ele>1650.0</ele><time>2026-04-12T12:22:14.999Z</time></trkpt><trkpt lat="41.93266207103859" lon="13.328743625798237"><ele>1650.0</ele><time>2026-04-12T12:22:19.999Z</time></trkpt><trkpt lat="41.93273482564224" lon="13.32871971410824"><ele>1650.0</ele><time>2026-04-12T12:23:12Z</time></trkpt><trkpt lat="41.93279229873841" lon="13.328685058041575"><ele>1648.2857142857142</ele><time>2026-04-12T12:23:15Z</time></trkpt><trkpt lat="41.93285469809559" lon="13.328669381251768"><ele>1646.5714285714287</ele><time>2026-04-12T12:23:20Z</time></trkpt><trkpt lat="41.93293010033181" lon="13.328616472886948"><ele>1644.857142857143</ele><time>2026-04-12T12:23:24Z</time></trkpt><trkpt lat="41.93298492959385" lon="13.328568208265242"><ele>1643.142857142857</ele><time>2026-04-12T12:23:28Z</time></trkpt><trkpt lat="41.933040056578925" lon="13.328525107192087"><ele>1641.4285714285716</ele><time>2026-04-12T12:23:31Z</time></trkpt><trkpt lat="41.93311747817322" lon="13.328477242394039"><ele>1639.7142857142858</ele><time>2026-04-12T12:23:35Z</time></trkpt><trkpt lat="41.93318085404968" lon="13.328404685891122"><ele>1638.0</ele><time>2026-04-12T12:23:40Z</time></trkpt><trkpt lat="41.93323738634585" lon="13.328358233920088"><ele>1638.0</ele><time>2026-04-12T12:23:44Z</time></trkpt><trkpt lat="41.93330484954471" lon="13.328307710470279"><ele>1638.0</ele><time>2026-04-12T12:23:48Z</time></trkpt><trkpt lat="41.9333665947937" lon="13.328267533717018"><ele>1638.0</ele><time>2026-04-12T12:23:52Z</time></trkpt><trkpt lat="41.93342496220115" lon="13.328221481755094"><ele>1638.0</ele><time>2026-04-12T12:23:55.999Z</time></trkpt><trkpt lat="41.9334860644809" lon="13.328151346721688"><ele>1638.0</ele><time>2026-04-12T12:23:59.999Z</time></trkpt><trkpt lat="41.93352989290157" lon="13.328087422240142"><ele>1638.0</ele><time>2026-04-12T12:24:06.999Z</time></trkpt><trkpt lat="41.933586059232006" lon="13.328021693619952"><ele>1638.0</ele><time>2026-04-12T12:24:09.999Z</time></trkpt><trkpt lat="41.93364486418402" lon="13.327961912347172"><ele>1635.7142857142858</ele><time>2026-04-12T12:24:14.999Z</time></trkpt><trkpt lat="41.93368569261131" lon="13.327883472352559"><ele>1633.4285714285716</ele><time>2026-04-12T12:25:31Z</time></trkpt><trkpt lat="41.9337461566906" lon="13.327858145462145"><ele>1631.142857142857</ele><time>2026-04-12T12:25:51Z</time></trkpt><trkpt lat="41.93379706448339" lon="13.32780314919733"><ele>1628.857142857143</ele><time>2026-04-12T12:25:54Z</time></trkpt><trkpt lat="41.93384693796674" lon="13.327741064685913"><ele>1626.5714285714287</ele><time>2026-04-12T12:25:59.999Z</time></trkpt><trkpt lat="41.933898216256324" lon="13.327682143410774"><ele>1624.2857142857142</ele><time>2026-04-12T12:26:22.999Z</time></trkpt><trkpt lat="41.933965112820104" lon="13.327632006909921"><ele>1622.0</ele><time>2026-04-12T12:26:27.999Z</time></trkpt><trkpt lat="41.9340307003672" lon="13.327594845450886"><ele>1622.0</ele><time>2026-04-12T12:26:32.999Z</time></trkpt><trkpt lat="41.93408391504301" lon="13.327539837375154"><ele>1622.0</ele><time>2026-04-12T12:26:44.999Z</time></trkpt><trkpt lat="41.93414164800511" lon="13.327479515680645"><ele>1622.0</ele><time>2026-04-12T12:26:47.998Z</time></trkpt><trkpt lat="41.93418701049307" lon="13.327395538592679"><ele>1622.0</ele><time>2026-04-12T12:26:49.998Z</time></trkpt><trkpt lat="41.934233554946864" lon="13.327301482175669"><ele>1622.0</ele><time>2026-04-12T12:26:51.998Z</time></trkpt><trkpt lat="41.93427770715117" lon="13.327223921845116"><ele>1622.0</ele><time>2026-04-12T12:26:53.998Z</time></trkpt><trkpt lat="41.934325425040385" lon="13.327166146785212"><ele>1622.0</ele><time>2026-04-12T12:26:56.998Z</time></trkpt><trkpt lat="41.934391180413606" lon="13.327092271355454"><ele>1620.1999999999998</ele><time>2026-04-12T12:26:59.998Z</time></trkpt><trkpt lat="41.93446105349966" lon="13.3270230956202"><ele>1618.4</ele><time>2026-04-12T12:27:02.998Z</time></trkpt><trkpt lat="41.93453447336572" lon="13.32691097729885"><ele>1616.6</ele><time>2026-04-12T12:27:06.998Z</time></trkpt><trkpt lat="41.93459236292482" lon="13.326824457927431"><ele>1614.8000000000002</ele><time>2026-04-12T12:27:09.998Z</time></trkpt><trkpt lat="41.934634321196384" lon="13.326719015385017"><ele>1613.0</ele><time>2026-04-12T12:27:11.998Z</time></trkpt><trkpt lat="41.934671598937484" lon="13.326623429794417"><ele>1612.9999999999998</ele><time>2026-04-12T12:27:13.998Z</time></trkpt><trkpt lat="41.93474431174277" lon="13.32654275416088"><ele>1613.0</ele><time>2026-04-12T12:27:15.998Z</time></trkpt><trkpt lat="41.93479410604606" lon="13.326447801683024"><ele>1613.0</ele><time>2026-04-12T12:27:18.998Z</time></trkpt><trkpt lat="41.93484311005028" lon="13.326387751349962"><ele>1613.0</ele><time>2026-04-12T12:27:22Z</time></trkpt><trkpt lat="41.934894449765075" lon="13.326276054615805"><ele>1612.9999999999998</ele><time>2026-04-12T12:27:24Z</time></trkpt><trkpt lat="41.9349290469767" lon="13.326193427358387"><ele>1613.0</ele><time>2026-04-12T12:27:25Z</time></trkpt><trkpt lat="41.934969193471865" lon="13.32611461055246"><ele>1612.9999999999998</ele><time>2026-04-12T12:27:27Z</time></trkpt><trkpt lat="41.93501234204314" lon="13.326017347727273"><ele>1613.0</ele><time>2026-04-12T12:27:30Z</time></trkpt><trkpt lat="41.935059245849956" lon="13.325899651770195"><ele>1613.0</ele><time>2026-04-12T12:27:32Z</time></trkpt><trkpt lat="41.93513932750289" lon="13.325803416488284"><ele>1613.0</ele><time>2026-04-12T12:27:34Z</time></trkpt><trkpt lat="41.9351776223836" lon="13.3257341978035"><ele>1612.9999999999998</ele><time>2026-04-12T12:27:35Z</time></trkpt><trkpt lat="41.9352350216031" lon="13.325653265257733"><ele>1613.0</ele><time>2026-04-12T12:27:37Z</time></trkpt><trkpt lat="41.93525287434164" lon="13.325541387128702"><ele>1612.8333333333333</ele><time>2026-04-12T12:27:40Z</time></trkpt><trkpt lat="41.93528251748192" lon="13.32544269577228"><ele>1612.6666666666665</ele><time>2026-04-12T12:27:42Z</time></trkpt><trkpt lat="41.93531369700031" lon="13.32535862506002"><ele>1612.5</ele><time>2026-04-12T12:27:44Z</time></trkpt><trkpt lat="41.935384857750904" lon="13.32522474390273"><ele>1612.3333333333335</ele><time>2026-04-12T12:27:46Z</time></trkpt><trkpt lat="41.935422157897214" lon="13.325149832928735"><ele>1612.1666666666667</ele><time>2026-04-12T12:27:47Z</time></trkpt><trkpt lat="41.935457836593876" lon="13.32507293346244"><ele>1612.0</ele><time>2026-04-12T12:27:48Z</time></trkpt><trkpt lat="41.935491149462" lon="13.324997528992588"><ele>1612.0000000000002</ele><time>2026-04-12T12:27:49Z</time></trkpt><trkpt lat="41.935522420422394" lon="13.324921267886062"><ele>1612.0</ele><time>2026-04-12T12:27:50Z</time></trkpt><trkpt lat="41.93553988935896" lon="13.324821199975204"><ele>1612.0</ele><time>2026-04-12T12:27:51Z</time></trkpt><trkpt lat="41.93556150227873" lon="13.324714459773158"><ele>1612.0</ele><time>2026-04-12T12:27:52Z</time></trkpt><trkpt lat="41.93557454406028" lon="13.324615506346264"><ele>1612.0000000000002</ele><time>2026-04-12T12:27:53Z</time></trkpt><trkpt lat="41.935587441452085" lon="13.324504064539655"><ele>1612.0</ele><time>2026-04-12T12:27:54Z</time></trkpt><trkpt lat="41.935605354816" lon="13.32441187324239"><ele>1611.8</ele><time>2026-04-12T12:27:55Z</time></trkpt><trkpt lat="41.93562526494001" lon="13.324241723385084"><ele>1611.6</ele><time>2026-04-12T12:27:56.999Z</time></trkpt><trkpt lat="41.93564306859941" lon="13.324139925433462"><ele>1611.3999999999999</ele><time>2026-04-12T12:27:57.999Z</time></trkpt><trkpt lat="41.93567998599845" lon="13.323987715296848"><ele>1611.1999999999998</ele><time>2026-04-12T12:27:59.999Z</time></trkpt><trkpt lat="41.93571928346793" lon="13.323844372289697"><ele>1611.0</ele><time>2026-04-12T12:28:01.999Z</time></trkpt><trkpt lat="41.935751427568064" lon="13.323708423163524"><ele>1610.1999999999998</ele><time>2026-04-12T12:28:03.999Z</time></trkpt><trkpt lat="41.9357813014751" lon="13.323628467699194"><ele>1609.3999999999999</ele><time>2026-04-12T12:28:04.999Z</time></trkpt><trkpt lat="41.93582850715933" lon="13.323511298647404"><ele>1608.6</ele><time>2026-04-12T12:28:06.999Z</time></trkpt><trkpt lat="41.93589849842947" lon="13.323384108703449"><ele>1607.8</ele><time>2026-04-12T12:28:08.999Z</time></trkpt><trkpt lat="41.9359383575158" lon="13.323310009530584"><ele>1607.0</ele><time>2026-04-12T12:28:09.999Z</time></trkpt><trkpt lat="41.93599435647308" lon="13.32318181647763"><ele>1605.3999999999999</ele><time>2026-04-12T12:28:11.999Z</time></trkpt><trkpt lat="41.93606466824097" lon="13.323076825857962"><ele>1603.8</ele><time>2026-04-12T12:28:13.999Z</time></trkpt><trkpt lat="41.936151391504644" lon="13.322992888520506"><ele>1602.2</ele><time>2026-04-12T12:28:15.999Z</time></trkpt><trkpt lat="41.93623038829815" lon="13.322925583355458"><ele>1600.6</ele><time>2026-04-12T12:28:17.999Z</time></trkpt><trkpt lat="41.93630437091211" lon="13.322865944826974"><ele>1599.0</ele><time>2026-04-12T12:28:20.999Z</time></trkpt><trkpt lat="41.936365708706695" lon="13.322823714786436"><ele>1598.9999999999998</ele><time>2026-04-12T12:28:22.999Z</time></trkpt><trkpt lat="41.93641580689451" lon="13.322755743149006"><ele>1599.0</ele><time>2026-04-12T12:28:24.999Z</time></trkpt><trkpt lat="41.93646434762513" lon="13.322695793426616"><ele>1599.0</ele><time>2026-04-12T12:28:26.999Z</time></trkpt><trkpt lat="41.93653150269874" lon="13.32263280514319"><ele>1599.0</ele><time>2026-04-12T12:28:28.999Z</time></trkpt><trkpt lat="41.936592666686145" lon="13.322586864248535"><ele>1599.0</ele><time>2026-04-12T12:28:30.999Z</time></trkpt><trkpt lat="41.93665425467941" lon="13.322535121973635"><ele>1598.9999999999998</ele><time>2026-04-12T12:28:32.999Z</time></trkpt><trkpt lat="41.93672341739597" lon="13.32248449799695"><ele>1599.0</ele><time>2026-04-12T12:28:34.999Z</time></trkpt><trkpt lat="41.936784342446956" lon="13.322402020940347"><ele>1598.8000000000002</ele><time>2026-04-12T12:28:36.999Z</time></trkpt><trkpt lat="41.93682420953291" lon="13.322324803737045"><ele>1598.6000000000001</ele><time>2026-04-12T12:28:38.999Z</time></trkpt><trkpt lat="41.93690125584668" lon="13.322237961938297"><ele>1598.4</ele><time>2026-04-12T12:28:41.999Z</time></trkpt><trkpt lat="41.93697626047585" lon="13.322123616401615"><ele>1598.2</ele><time>2026-04-12T12:28:43.999Z</time></trkpt><trkpt lat="41.93705780139731" lon="13.322000509114323"><ele>1598.0</ele><time>2026-04-12T12:28:45.999Z</time></trkpt><trkpt lat="41.937124348773374" lon="13.321880843720619"><ele>1596.0</ele><time>2026-04-12T12:28:47.998Z</time></trkpt><trkpt lat="41.93717869815331" lon="13.321818926965753"><ele>1594.0</ele><time>2026-04-12T12:28:49.998Z</time></trkpt><trkpt lat="41.937264301194745" lon="13.321720307359106"><ele>1592.0</ele><time>2026-04-12T12:28:51.998Z</time></trkpt><trkpt lat="41.93736483811414" lon="13.321653651539007"><ele>1590.0</ele><time>2026-04-12T12:28:53.998Z</time></trkpt><trkpt lat="41.93743732040461" lon="13.32163803047099"><ele>1588.0</ele><time>2026-04-12T12:28:55.998Z</time></trkpt><trkpt lat="41.93752053631552" lon="13.321583801449755"><ele>1588.0000000000002</ele><time>2026-04-12T12:28:57.998Z</time></trkpt><trkpt lat="41.93757259266335" lon="13.321508690137515"><ele>1588.0</ele><time>2026-04-12T12:28:59.998Z</time></trkpt><trkpt lat="41.93761526923661" lon="13.32141265362959"><ele>1588.0</ele><time>2026-04-12T12:29:01.998Z</time></trkpt><trkpt lat="41.93764629624437" lon="13.321331017344017"><ele>1588.0</ele><time>2026-04-12T12:29:03.998Z</time></trkpt><trkpt lat="41.93769129049367" lon="13.321222999028077"><ele>1588.0000000000002</ele><time>2026-04-12T12:29:06.998Z</time></trkpt><trkpt lat="41.937708878259485" lon="13.321131113184505"><ele>1588.0</ele><time>2026-04-12T12:29:09.998Z</time></trkpt><trkpt lat="41.937745899232425" lon="13.321039682156448"><ele>1587.4285714285713</ele><time>2026-04-12T12:29:11.998Z</time></trkpt><trkpt lat="41.93775861225488" lon="13.320954732533444"><ele>1586.8571428571427</ele><time>2026-04-12T12:29:13.998Z</time></trkpt><trkpt lat="41.93777912389208" lon="13.32083815649549"><ele>1586.2857142857142</ele><time>2026-04-12T12:29:16.998Z</time></trkpt><trkpt lat="41.93779285391403" lon="13.320744174677777"><ele>1585.7142857142858</ele><time>2026-04-12T12:29:18.998Z</time></trkpt><trkpt lat="41.93779443815688" lon="13.320650696667363"><ele>1585.142857142857</ele><time>2026-04-12T12:29:20.998Z</time></trkpt><trkpt lat="41.93778102576933" lon="13.320557720859844"><ele>1584.5714285714287</ele><time>2026-04-12T12:29:22.998Z</time></trkpt><trkpt lat="41.93776664012154" lon="13.32045254234774"><ele>1584.0</ele><time>2026-04-12T12:29:24.998Z</time></trkpt><trkpt lat="41.93776530649446" lon="13.320326166047723"><ele>1583.3333333333333</ele><time>2026-04-12T12:29:27Z</time></trkpt><trkpt lat="41.93779979752837" lon="13.320214301698888"><ele>1582.6666666666665</ele><time>2026-04-12T12:29:29Z</time></trkpt><trkpt lat="41.937832783039056" lon="13.320114059983934"><ele>1582.0</ele><time>2026-04-12T12:29:32Z</time></trkpt><trkpt lat="41.93789741409043" lon="13.320064482058275"><ele>1581.3333333333333</ele><time>2026-04-12T12:29:34Z</time></trkpt><trkpt lat="41.93791418709335" lon="13.319974542332371"><ele>1580.6666666666665</ele><time>2026-04-12T12:29:37Z</time></trkpt><trkpt lat="41.93793754099338" lon="13.319857470283218"><ele>1580.0</ele><time>2026-04-12T12:29:39Z</time></trkpt><trkpt lat="41.93796038878079" lon="13.319775834221206"><ele>1579.3333333333333</ele><time>2026-04-12T12:29:42Z</time></trkpt><trkpt lat="41.937982399610476" lon="13.319673328630886"><ele>1578.6666666666665</ele><time>2026-04-12T12:29:45Z</time></trkpt><trkpt lat="41.93795995652373" lon="13.319565058744407"><ele>1578.0</ele><time>2026-04-12T12:29:48Z</time></trkpt><trkpt lat="41.93792565517973" lon="13.319457481245081"><ele>1577.3333333333335</ele><time>2026-04-12T12:29:50Z</time></trkpt><trkpt lat="41.937928837800264" lon="13.319321307490759"><ele>1576.6666666666667</ele><time>2026-04-12T12:29:52Z</time></trkpt><trkpt lat="41.93790087903058" lon="13.319214072295347"><ele>1576.0</ele><time>2026-04-12T12:29:54Z</time></trkpt><trkpt lat="41.9378671136282" lon="13.319110418844009"><ele>1576.0</ele><time>2026-04-12T12:29:56.999Z</time></trkpt><trkpt lat="41.93785661502148" lon="13.319025683815251"><ele>1576.0</ele><time>2026-04-12T12:30:01.999Z</time></trkpt><trkpt lat="41.93784376431684" lon="13.318941447812428"><ele>1576.0</ele><time>2026-04-12T12:37:27.999Z</time></trkpt><trkpt lat="41.93788517135724" lon="13.318868489000447"><ele>1576.0</ele><time>2026-04-12T12:38:55.999Z</time></trkpt><trkpt lat="41.93791389079017" lon="13.318774631733257"><ele>1576.0</ele><time>2026-04-12T12:39:00.999Z</time></trkpt><trkpt lat="41.93791731387882" lon="13.318677862052386"><ele>1576.0</ele><time>2026-04-12T12:39:03.999Z</time></trkpt><trkpt lat="41.93791283159669" lon="13.318552618823562"><ele>1576.0</ele><time>2026-04-12T12:39:06.999Z</time></trkpt><trkpt lat="41.93790440942278" lon="13.318428499992201"><ele>1575.8</ele><time>2026-04-12T12:39:08.999Z</time></trkpt><trkpt lat="41.93788666990549" lon="13.31832902188223"><ele>1575.6</ele><time>2026-04-12T12:39:10.999Z</time></trkpt><trkpt lat="41.937848610556024" lon="13.318235671655012"><ele>1575.4</ele><time>2026-04-12T12:39:12.999Z</time></trkpt><trkpt lat="41.93780462404647" lon="13.318107789778606"><ele>1575.2</ele><time>2026-04-12T12:39:14.999Z</time></trkpt><trkpt lat="41.93777231914077" lon="13.317994965034657"><ele>1575.0</ele><time>2026-04-12T12:39:17.999Z</time></trkpt><trkpt lat="41.93773857280747" lon="13.317868483917438"><ele>1574.5</ele><time>2026-04-12T12:39:19.999Z</time></trkpt><trkpt lat="41.93771220056436" lon="13.31774981072943"><ele>1574.0</ele><time>2026-04-12T12:39:21.999Z</time></trkpt><trkpt lat="41.937669830137004" lon="13.317635604711866"><ele>1573.5</ele><time>2026-04-12T12:39:22.999Z</time></trkpt><trkpt lat="41.93767461148375" lon="13.31754920667324"><ele>1573.0</ele><time>2026-04-12T12:39:25.999Z</time></trkpt><trkpt lat="41.937695865487576" lon="13.317443737112953"><ele>1572.5</ele><time>2026-04-12T12:39:28.999Z</time></trkpt><trkpt lat="41.9377481280281" lon="13.317350237817251"><ele>1572.0</ele><time>2026-04-12T12:39:30.999Z</time></trkpt><trkpt lat="41.9377828336631" lon="13.317272366221939"><ele>1571.1666666666667</ele><time>2026-04-12T12:39:33.999Z</time></trkpt><trkpt lat="41.93779193630603" lon="13.317166782839665"><ele>1570.3333333333335</ele><time>2026-04-12T12:39:37.999Z</time></trkpt><trkpt lat="41.93780789067609" lon="13.317079212650896"><ele>1569.5</ele><time>2026-04-12T12:39:39.999Z</time></trkpt><trkpt lat="41.93778824041598" lon="13.316985091854068"><ele>1568.6666666666667</ele><time>2026-04-12T12:39:41.999Z</time></trkpt><trkpt lat="41.93784467855402" lon="13.316923636992543"><ele>1567.8333333333335</ele><time>2026-04-12T12:39:43.999Z</time></trkpt><trkpt lat="41.937919043918555" lon="13.316838582500848"><ele>1567.0</ele><time>2026-04-12T12:39:46.998Z</time></trkpt><trkpt lat="41.93796308361151" lon="13.316758680362422"><ele>1567.0</ele><time>2026-04-12T12:39:48.998Z</time></trkpt><trkpt lat="41.93800830063267" lon="13.316687796165148"><ele>1567.0</ele><time>2026-04-12T12:39:51.998Z</time></trkpt><trkpt lat="41.938061749184335" lon="13.316642198484134"><ele>1567.0</ele><time>2026-04-12T12:39:53.998Z</time></trkpt><trkpt lat="41.93813977585876" lon="13.316559287116105"><ele>1567.0</ele><time>2026-04-12T12:39:57Z</time></trkpt><trkpt lat="41.93816791236491" lon="13.316472361987287"><ele>1567.0</ele><time>2026-04-12T12:39:59Z</time></trkpt><trkpt lat="41.938207341414824" lon="13.316394944145909"><ele>1567.0</ele><time>2026-04-12T12:40:01Z</time></trkpt><trkpt lat="41.93824548782176" lon="13.316322017524"><ele>1567.0</ele><time>2026-04-12T12:40:03Z</time></trkpt><trkpt lat="41.938274125155786" lon="13.316214198877462"><ele>1566.1999999999998</ele><time>2026-04-12T12:40:05Z</time></trkpt><trkpt lat="41.93829979000915" lon="13.316094071087173"><ele>1565.4</ele><time>2026-04-12T12:40:07Z</time></trkpt><trkpt lat="41.93832246447478" lon="13.315981774158058"><ele>1564.6</ele><time>2026-04-12T12:40:09Z</time></trkpt><trkpt lat="41.93835624660194" lon="13.315904937386087"><ele>1563.8000000000002</ele><time>2026-04-12T12:40:12Z</time></trkpt><trkpt lat="41.93843270922484" lon="13.315745889979988"><ele>1563.0</ele><time>2026-04-12T12:40:14Z</time></trkpt><trkpt lat="41.93853179164645" lon="13.31566630654465"><ele>1563.0</ele><time>2026-04-12T12:40:16Z</time></trkpt><trkpt lat="41.9386110387113" lon="13.315605052907525"><ele>1563.0</ele><time>2026-04-12T12:40:18Z</time></trkpt><trkpt lat="41.93865570841007" lon="13.315504236443756"><ele>1563.0</ele><time>2026-04-12T12:40:20Z</time></trkpt><trkpt lat="41.93868439601746" lon="13.315400598921064"><ele>1563.0</ele><time>2026-04-12T12:40:22Z</time></trkpt><trkpt lat="41.938709761748754" lon="13.315296054030005"><ele>1563.0</ele><time>2026-04-12T12:40:25Z</time></trkpt><trkpt lat="41.93875352445342" lon="13.31522029179134"><ele>1563.0</ele><time>2026-04-12T12:40:27Z</time></trkpt><trkpt lat="41.93881678457949" lon="13.315191951020907"><ele>1560.8000000000002</ele><time>2026-04-12T12:40:29Z</time></trkpt><trkpt lat="41.938883667562514" lon="13.315199303828305"><ele>1558.6</ele><time>2026-04-12T12:40:31Z</time></trkpt><trkpt lat="41.93896365436471" lon="13.315181368552208"><ele>1556.4</ele><time>2026-04-12T12:40:34Z</time></trkpt><trkpt lat="41.93906591839165" lon="13.315143632369312"><ele>1554.1999999999998</ele><time>2026-04-12T13:03:57.999Z</time></trkpt><trkpt lat="41.93918066730166" lon="13.315122274910848"><ele>1552.0</ele><time>2026-04-12T13:03:59.999Z</time></trkpt><trkpt lat="41.939214584656554" lon="13.315022777740694"><ele>1552.0000000000002</ele><time>2026-04-12T13:04:01.999Z</time></trkpt><trkpt lat="41.93919013332443" lon="13.314866580138128"><ele>1552.0</ele><time>2026-04-12T13:04:03.999Z</time></trkpt><trkpt lat="41.9391715837718" lon="13.314761804793553"><ele>1552.0</ele><time>2026-04-12T13:04:04.999Z</time></trkpt><trkpt lat="41.939147124273944" lon="13.314672448402774"><ele>1552.0</ele><time>2026-04-12T13:04:05.999Z</time></trkpt><trkpt lat="41.93911552232022" lon="13.314593208335442"><ele>1552.0000000000002</ele><time>2026-04-12T13:04:06.999Z</time></trkpt><trkpt lat="41.939063929401435" lon="13.314514537879106"><ele>1552.0</ele><time>2026-04-12T13:04:07.999Z</time></trkpt><trkpt lat="41.9390096946269" lon="13.314469333253644"><ele>1551.3999999999999</ele><time>2026-04-12T13:04:08.999Z</time></trkpt><trkpt lat="41.93892410462962" lon="13.31435067079201"><ele>1550.8</ele><time>2026-04-12T13:04:10.998Z</time></trkpt><trkpt lat="41.93888110168534" lon="13.314281974334603"><ele>1550.2</ele><time>2026-04-12T13:04:11.998Z</time></trkpt><trkpt lat="41.938845247289" lon="13.314155402978885"><ele>1549.6</ele><time>2026-04-12T13:04:13.998Z</time></trkpt><trkpt lat="41.93880911614446" lon="13.313994454189698"><ele>1549.0</ele><time>2026-04-12T13:04:15.998Z</time></trkpt><trkpt lat="41.93881038761992" lon="13.313844511260573"><ele>1548.8333333333335</ele><time>2026-04-12T13:04:17.998Z</time></trkpt><trkpt lat="41.93883001150138" lon="13.31375529502155"><ele>1548.6666666666667</ele><time>2026-04-12T13:04:18.998Z</time></trkpt><trkpt lat="41.938860202130485" lon="13.313672239972039"><ele>1548.5</ele><time>2026-04-12T13:04:19.998Z</time></trkpt><trkpt lat="41.93889688482561" lon="13.313579489382748"><ele>1548.3333333333335</ele><time>2026-04-12T13:04:20.998Z</time></trkpt><trkpt lat="41.93892964870419" lon="13.313483451809626"><ele>1548.1666666666667</ele><time>2026-04-12T13:04:21.998Z</time></trkpt><trkpt lat="41.93896477125059" lon="13.31338194730614"><ele>1548.0</ele><time>2026-04-12T13:04:22.998Z</time></trkpt><trkpt lat="41.93899617989154" lon="13.313282933594367"><ele>1548.0</ele><time>2026-04-12T13:04:23.998Z</time></trkpt><trkpt lat="41.93902540938415" lon="13.313206466272094"><ele>1548.0</ele><time>2026-04-12T13:04:24.998Z</time></trkpt><trkpt lat="41.93907107709249" lon="13.313071239952157"><ele>1548.0</ele><time>2026-04-12T13:04:26.998Z</time></trkpt><trkpt lat="41.93911484120651" lon="13.312982740252863"><ele>1548.0</ele><time>2026-04-12T13:04:27.998Z</time></trkpt><trkpt lat="41.93915210314877" lon="13.312899732473422"><ele>1548.0</ele><time>2026-04-12T13:04:28.998Z</time></trkpt><trkpt lat="41.9391834632975" lon="13.312820985131792"><ele>1548.0</ele><time>2026-04-12T13:04:29.998Z</time></trkpt><trkpt lat="41.939208805833154" lon="13.31273420991554"><ele>1548.1666666666667</ele><time>2026-04-12T13:04:30.998Z</time></trkpt><trkpt lat="41.939262053183" lon="13.31262527714045"><ele>1548.3333333333335</ele><time>2026-04-12T13:04:32.998Z</time></trkpt><trkpt lat="41.93930082721645" lon="13.312535420937994"><ele>1548.5</ele><time>2026-04-12T13:04:34.998Z</time></trkpt><trkpt lat="41.939299665282306" lon="13.312408460488193"><ele>1548.6666666666667</ele><time>2026-04-12T13:04:36.998Z</time></trkpt><trkpt lat="41.93930847751833" lon="13.312275039093262"><ele>1548.8333333333335</ele><time>2026-04-12T13:04:39.998Z</time></trkpt><trkpt lat="41.939283035735066" lon="13.312175364272033"><ele>1549.0</ele><time>2026-04-12T13:04:41.998Z</time></trkpt><trkpt lat="41.93922524544774" lon="13.312091159581257"><ele>1550.3333333333335</ele><time>2026-04-12T13:04:43.998Z</time></trkpt><trkpt lat="41.93916571526996" lon="13.311991492019418"><ele>1551.6666666666667</ele><time>2026-04-12T13:04:45.998Z</time></trkpt><trkpt lat="41.939107453316204" lon="13.311905479399"><ele>1553.0</ele><time>2026-04-12T13:04:48.998Z</time></trkpt><trkpt lat="41.93904955612385" lon="13.311856243014317"><ele>1554.3333333333335</ele><time>2026-04-12T13:04:50.998Z</time></trkpt><trkpt lat="41.93899392483035" lon="13.311781263964175"><ele>1555.6666666666667</ele><time>2026-04-12T13:04:52.998Z</time></trkpt><trkpt lat="41.93896686167722" lon="13.311684753859543"><ele>1557.0</ele><time>2026-04-12T13:04:57.998Z</time></trkpt><trkpt lat="41.93895342164952" lon="13.311570258333347"><ele>1557.0</ele><time>2026-04-12T13:05:00.997Z</time></trkpt><trkpt lat="41.938937302747696" lon="13.311458122972542"><ele>1557.0</ele><time>2026-04-12T13:05:02.997Z</time></trkpt><trkpt lat="41.93892945417085" lon="13.311367295163384"><ele>1557.0</ele><time>2026-04-12T13:05:04.997Z</time></trkpt><trkpt lat="41.9389431940086" lon="13.311260073974713"><ele>1557.0</ele><time>2026-04-12T13:05:08Z</time></trkpt><trkpt lat="41.93893088550331" lon="13.31116447887999"><ele>1557.0</ele><time>2026-04-12T13:05:10Z</time></trkpt><trkpt lat="41.938902499643994" lon="13.311051414188462"><ele>1557.0</ele><time>2026-04-12T13:05:12Z</time></trkpt><trkpt lat="41.93884400927358" lon="13.310984031250246"><ele>1558.0</ele><time>2026-04-12T13:05:15Z</time></trkpt><trkpt lat="41.93877939007102" lon="13.310911034322961"><ele>1559.0</ele><time>2026-04-12T13:05:20Z</time></trkpt><trkpt lat="41.93874379616146" lon="13.310823033318572"><ele>1560.0</ele><time>2026-04-12T13:05:24Z</time></trkpt><trkpt lat="41.93868009992271" lon="13.310719418033141"><ele>1561.0</ele><time>2026-04-12T13:05:28.999Z</time></trkpt><trkpt lat="41.93863566656008" lon="13.310648826387466"><ele>1562.0</ele><time>2026-04-12T13:05:30.999Z</time></trkpt><trkpt lat="41.93857228270324" lon="13.31058342285498"><ele>1563.0</ele><time>2026-04-12T13:05:32.999Z</time></trkpt><trkpt lat="41.938498050895625" lon="13.31050967523147"><ele>1563.0</ele><time>2026-04-12T13:05:34.999Z</time></trkpt><trkpt lat="41.93843699623178" lon="13.310414359595528"><ele>1563.0</ele><time>2026-04-12T13:05:36.999Z</time></trkpt><trkpt lat="41.93839391773047" lon="13.310342285205927"><ele>1563.0</ele><time>2026-04-12T13:05:37.999Z</time></trkpt><trkpt lat="41.938346566301234" lon="13.310266165281517"><ele>1563.0</ele><time>2026-04-12T13:05:38.999Z</time></trkpt><trkpt lat="41.93828165132884" lon="13.310172452858088"><ele>1563.0</ele><time>2026-04-12T13:05:40.999Z</time></trkpt><trkpt lat="41.93825489787854" lon="13.31007699733233"><ele>1563.0</ele><time>2026-04-12T13:05:42.999Z</time></trkpt><trkpt lat="41.93826920977866" lon="13.309957867723488"><ele>1562.3333333333333</ele><time>2026-04-12T13:05:44.999Z</time></trkpt><trkpt lat="41.93831112202714" lon="13.3098357987634"><ele>1561.6666666666665</ele><time>2026-04-12T13:05:46.999Z</time></trkpt><trkpt lat="41.93836621087544" lon="13.309709629821242"><ele>1561.0</ele><time>2026-04-12T13:05:48.999Z</time></trkpt><trkpt lat="41.938398390650036" lon="13.309635052404172"><ele>1560.3333333333333</ele><time>2026-04-12T13:05:49.999Z</time></trkpt><trkpt lat="41.93842198537586" lon="13.309553674636001"><ele>1559.6666666666665</ele><time>2026-04-12T13:05:50.999Z</time></trkpt><trkpt lat="41.93846960996381" lon="13.30942891483228"><ele>1559.0</ele><time>2026-04-12T13:05:52.999Z</time></trkpt><trkpt lat="41.93851924517799" lon="13.309335929086075"><ele>1558.2</ele><time>2026-04-12T13:05:54.999Z</time></trkpt><trkpt lat="41.93859153285226" lon="13.30916062337575"><ele>1557.4</ele><time>2026-04-12T13:05:57.999Z</time></trkpt><trkpt lat="41.938665663588345" lon="13.309044249440863"><ele>1556.6</ele><time>2026-04-12T13:05:59.999Z</time></trkpt><trkpt lat="41.93871533403573" lon="13.308990695636282"><ele>1555.8</ele><time>2026-04-12T13:06:00.999Z</time></trkpt><trkpt lat="41.93880951304534" lon="13.30892231649499"><ele>1555.0</ele><time>2026-04-12T13:06:02.999Z</time></trkpt><trkpt lat="41.93886925479846" lon="13.308876724887751"><ele>1554.6666666666667</ele><time>2026-04-12T13:06:04.999Z</time></trkpt><trkpt lat="41.93890748581838" lon="13.308798528050314"><ele>1554.3333333333335</ele><time>2026-04-12T13:06:07.999Z</time></trkpt><trkpt lat="41.93897491505686" lon="13.308724744867067"><ele>1554.0</ele><time>2026-04-12T13:06:10.999Z</time></trkpt><trkpt lat="41.939032907518865" lon="13.30866259086868"><ele>1553.6666666666665</ele><time>2026-04-12T13:06:12.999Z</time></trkpt><trkpt lat="41.93911350220028" lon="13.308575616860546"><ele>1553.3333333333333</ele><time>2026-04-12T13:06:14.998Z</time></trkpt><trkpt lat="41.93919635381502" lon="13.308489215318346"><ele>1553.0</ele><time>2026-04-12T13:06:16.998Z</time></trkpt><trkpt lat="41.939256973048934" lon="13.308336663504912"><ele>1552.9999999999998</ele><time>2026-04-12T13:06:18.998Z</time></trkpt><trkpt lat="41.939258184773024" lon="13.308238084216354"><ele>1553.0</ele><time>2026-04-12T13:06:19.998Z</time></trkpt><trkpt lat="41.939275881253586" lon="13.3081190212022"><ele>1553.0</ele><time>2026-04-12T13:06:21.998Z</time></trkpt><trkpt lat="41.93934309859497" lon="13.308017626363691"><ele>1553.0</ele><time>2026-04-12T13:06:23.998Z</time></trkpt><trkpt lat="41.939396615652996" lon="13.307966217136208"><ele>1552.9999999999998</ele><time>2026-04-12T13:06:24.998Z</time></trkpt><trkpt lat="41.93945295335274" lon="13.307918014731316"><ele>1553.0</ele><time>2026-04-12T13:06:25.998Z</time></trkpt><trkpt lat="41.93950869152365" lon="13.307870615135515"><ele>1551.6666666666665</ele><time>2026-04-12T13:06:26.998Z</time></trkpt><trkpt lat="41.93957401323797" lon="13.30775577738431"><ele>1550.3333333333333</ele><time>2026-04-12T13:06:28.998Z</time></trkpt><trkpt lat="41.93960391835648" lon="13.307674471460635"><ele>1549.0</ele><time>2026-04-12T13:06:29.998Z</time></trkpt><trkpt lat="41.93965414828714" lon="13.307588758424256"><ele>1547.6666666666665</ele><time>2026-04-12T13:06:30.998Z</time></trkpt><trkpt lat="41.93971497557647" lon="13.30750395071128"><ele>1546.3333333333333</ele><time>2026-04-12T13:06:31.998Z</time></trkpt><trkpt lat="41.9397628901966" lon="13.307412941723499"><ele>1545.0</ele><time>2026-04-12T13:06:32.998Z</time></trkpt><trkpt lat="41.93981891246211" lon="13.30731723881449"><ele>1544.0</ele><time>2026-04-12T13:06:33.998Z</time></trkpt><trkpt lat="41.93986872310549" lon="13.307232806996987"><ele>1543.0</ele><time>2026-04-12T13:06:34.998Z</time></trkpt><trkpt lat="41.939906649050876" lon="13.307144878772469"><ele>1542.0</ele><time>2026-04-12T13:06:35.998Z</time></trkpt><trkpt lat="41.93993977587209" lon="13.3070696260246"><ele>1541.0</ele><time>2026-04-12T13:06:36.998Z</time></trkpt><trkpt lat="41.939964125849066" lon="13.306989206498924"><ele>1540.0</ele><time>2026-04-12T13:06:38.998Z</time></trkpt><trkpt lat="41.93993965123308" lon="13.306903096627533"><ele>1539.0</ele><time>2026-04-12T13:06:41.998Z</time></trkpt><trkpt lat="41.93991752202654" lon="13.306782785698385"><ele>1538.0</ele><time>2026-04-12T13:06:43.998Z</time></trkpt><trkpt lat="41.93989870594684" lon="13.306611527037903"><ele>1537.9999999999998</ele><time>2026-04-12T13:06:45.998Z</time></trkpt><trkpt lat="41.93988729502719" lon="13.306506314882986"><ele>1538.0</ele><time>2026-04-12T13:06:46.998Z</time></trkpt><trkpt lat="41.93988546182024" lon="13.306364512796414"><ele>1538.0</ele><time>2026-04-12T13:06:48.998Z</time></trkpt><trkpt lat="41.93994453020758" lon="13.306268610852305"><ele>1538.0</ele><time>2026-04-12T13:06:50.998Z</time></trkpt><trkpt lat="41.939974127816754" lon="13.306192018425836"><ele>1537.9999999999998</ele><time>2026-04-12T13:06:52.998Z</time></trkpt><trkpt lat="41.94000221272365" lon="13.306114321539734"><ele>1538.0</ele><time>2026-04-12T13:06:53.998Z</time></trkpt><trkpt lat="41.940039550138806" lon="13.305986892033575"><ele>1536.8333333333333</ele><time>2026-04-12T13:06:55.998Z</time></trkpt><trkpt lat="41.94003677879788" lon="13.305869170119628"><ele>1535.6666666666665</ele><time>2026-04-12T13:06:57.998Z</time></trkpt><trkpt lat="41.94001754856166" lon="13.30577572289749"><ele>1534.5</ele><time>2026-04-12T13:06:58.998Z</time></trkpt><trkpt lat="41.939992239393966" lon="13.305684147297834"><ele>1533.3333333333333</ele><time>2026-04-12T13:06:59.998Z</time></trkpt><trkpt lat="41.9399536402352" lon="13.305605834366753"><ele>1532.1666666666665</ele><time>2026-04-12T13:07:00.998Z</time></trkpt><trkpt lat="41.93989419419811" lon="13.305551167349613"><ele>1531.0</ele><time>2026-04-12T13:07:01.998Z</time></trkpt><trkpt lat="41.93982380870569" lon="13.305509585197715"><ele>1530.5</ele><time>2026-04-12T13:07:02.998Z</time></trkpt><trkpt lat="41.93976187894327" lon="13.305476102986"><ele>1530.0</ele><time>2026-04-12T13:07:03.997Z</time></trkpt><trkpt lat="41.93971016746654" lon="13.305374536894245"><ele>1529.5</ele><time>2026-04-12T13:07:05.997Z</time></trkpt><trkpt lat="41.9397439508077" lon="13.305293576546472"><ele>1529.0</ele><time>2026-04-12T13:07:07.997Z</time></trkpt><trkpt lat="41.939810468127725" lon="13.305182750802603"><ele>1528.5</ele><time>2026-04-12T13:07:09.997Z</time></trkpt><trkpt lat="41.93986543945272" lon="13.305136340433284"><ele>1528.0</ele><time>2026-04-12T13:07:10.997Z</time></trkpt><trkpt lat="41.939950994896655" lon="13.305072770762333"><ele>1528.0</ele><time>2026-04-12T13:07:11.997Z</time></trkpt><trkpt lat="41.94004458425704" lon="13.304995748360405"><ele>1528.0</ele><time>2026-04-12T13:07:13Z</time></trkpt><trkpt lat="41.9401504790115" lon="13.304912784519775"><ele>1528.0</ele><time>2026-04-12T13:07:14Z</time></trkpt><trkpt lat="41.94026124245716" lon="13.304849698786652"><ele>1528.0</ele><time>2026-04-12T13:07:15Z</time></trkpt><trkpt lat="41.94036181475106" lon="13.304791624974666"><ele>1527.8333333333333</ele><time>2026-04-12T13:07:16Z</time></trkpt><trkpt lat="41.940444566246754" lon="13.304749055035222"><ele>1527.6666666666665</ele><time>2026-04-12T13:07:17Z</time></trkpt><trkpt lat="41.94052272383164" lon="13.304738236167402"><ele>1527.5</ele><time>2026-04-12T13:07:18Z</time></trkpt><trkpt lat="41.9405881866487" lon="13.30470460468818"><ele>1527.3333333333333</ele><time>2026-04-12T13:07:19Z</time></trkpt><trkpt lat="41.94064665494669" lon="13.304671101717188"><ele>1527.1666666666667</ele><time>2026-04-12T13:07:20.001Z</time></trkpt><trkpt lat="41.94071087097413" lon="13.304648243175928"><ele>1527.0</ele><time>2026-04-12T13:07:21.001Z</time></trkpt><trkpt lat="41.940797375135126" lon="13.304610553059678"><ele>1527.0</ele><time>2026-04-12T13:07:23.001Z</time></trkpt><trkpt lat="41.940879131611304" lon="13.304689505459235"><ele>1527.0</ele><time>2026-04-12T13:07:25.001Z</time></trkpt><trkpt lat="41.94097735357559" lon="13.304789997995021"><ele>1527.0</ele><time>2026-04-12T13:07:27.001Z</time></trkpt><trkpt lat="41.941044696581784" lon="13.304820887185624"><ele>1527.0</ele><time>2026-04-12T13:07:28.001Z</time></trkpt><trkpt lat="41.9411206355303" lon="13.3048486351764"><ele>1527.0</ele><time>2026-04-12T13:07:29.001Z</time></trkpt><trkpt lat="41.94119914850688" lon="13.304896397748227"><ele>1526.3333333333333</ele><time>2026-04-12T13:07:30.001Z</time></trkpt><trkpt lat="41.94127093707156" lon="13.304902904530083"><ele>1525.6666666666667</ele><time>2026-04-12T13:07:31Z</time></trkpt><trkpt lat="41.941360611741416" lon="13.3049032307946"><ele>1525.0</ele><time>2026-04-12T13:07:32Z</time></trkpt><trkpt lat="41.94144349781702" lon="13.30489511148328"><ele>1524.3333333333335</ele><time>2026-04-12T13:07:33Z</time></trkpt><trkpt lat="41.94151291529989" lon="13.30488664748736"><ele>1523.6666666666667</ele><time>2026-04-12T13:07:34Z</time></trkpt><trkpt lat="41.94158157425734" lon="13.304862697412196"><ele>1523.0</ele><time>2026-04-12T13:07:35Z</time></trkpt><trkpt lat="41.941634212749946" lon="13.304810759464953"><ele>1522.4</ele><time>2026-04-12T13:07:36Z</time></trkpt><trkpt lat="41.941699137158494" lon="13.304734520041992"><ele>1521.8000000000002</ele><time>2026-04-12T13:07:37Z</time></trkpt><trkpt lat="41.941761928978046" lon="13.30464886716662"><ele>1521.2</ele><time>2026-04-12T13:07:38Z</time></trkpt><trkpt lat="41.94183253996554" lon="13.304533113393553"><ele>1520.6</ele><time>2026-04-12T13:07:39Z</time></trkpt><trkpt lat="41.941876317759466" lon="13.304433332982436"><ele>1520.0</ele><time>2026-04-12T13:07:40Z</time></trkpt><trkpt lat="41.94191322061871" lon="13.304342737602646"><ele>1519.1666666666667</ele><time>2026-04-12T13:07:41Z</time></trkpt><trkpt lat="41.941966820658635" lon="13.304237212255877"><ele>1518.3333333333335</ele><time>2026-04-12T13:07:42Z</time></trkpt><trkpt lat="41.94204198316869" lon="13.30416510878381"><ele>1517.5</ele><time>2026-04-12T13:07:43Z</time></trkpt><trkpt lat="41.94210159130525" lon="13.30408564329444"><ele>1516.6666666666667</ele><time>2026-04-12T13:07:44Z</time></trkpt><trkpt lat="41.94214981132842" lon="13.30402314854254"><ele>1515.8333333333333</ele><time>2026-04-12T13:07:45Z</time></trkpt><trkpt lat="41.94217562489263" lon="13.303918421047577"><ele>1515.0</ele><time>2026-04-12T13:07:47Z</time></trkpt><trkpt lat="41.942169357364996" lon="13.303777084049969"><ele>1514.2857142857142</ele><time>2026-04-12T13:07:49Z</time></trkpt><trkpt lat="41.94218457432836" lon="13.303690895004086"><ele>1513.5714285714284</ele><time>2026-04-12T13:07:50Z</time></trkpt><trkpt lat="41.94221505808652" lon="13.303612998915066"><ele>1512.8571428571427</ele><time>2026-04-12T13:07:51Z</time></trkpt><trkpt lat="41.94226022624458" lon="13.303546613625606"><ele>1512.142857142857</ele><time>2026-04-12T13:07:52Z</time></trkpt><trkpt lat="41.94231466818777" lon="13.30348682162602"><ele>1511.4285714285716</ele><time>2026-04-12T13:07:53Z</time></trkpt><trkpt lat="41.94236336963146" lon="13.303422018946701"><ele>1510.7142857142856</ele><time>2026-04-12T13:07:54Z</time></trkpt><trkpt lat="41.94239292664684" lon="13.303324999353496"><ele>1510.0</ele><time>2026-04-12T13:07:55Z</time></trkpt><trkpt lat="41.94242562511523" lon="13.303246779429077"><ele>1510.0</ele><time>2026-04-12T13:07:56Z</time></trkpt><trkpt lat="41.9424686259785" lon="13.303174530682504"><ele>1510.0</ele><time>2026-04-12T13:07:57Z</time></trkpt><trkpt lat="41.942522268042985" lon="13.303128300054425"><ele>1510.0</ele><time>2026-04-12T13:07:58Z</time></trkpt><trkpt lat="41.942636493526535" lon="13.303049435688774"><ele>1510.0</ele><time>2026-04-12T13:08:00Z</time></trkpt><trkpt lat="41.942724471777765" lon="13.302967722230001"><ele>1510.0</ele><time>2026-04-12T13:08:01Z</time></trkpt><trkpt lat="41.94280818931518" lon="13.302888878668963"><ele>1509.3333333333333</ele><time>2026-04-12T13:08:02Z</time></trkpt><trkpt lat="41.9428913587821" lon="13.302827650694494"><ele>1508.6666666666665</ele><time>2026-04-12T13:08:03Z</time></trkpt><trkpt lat="41.942966298377264" lon="13.302766267019928"><ele>1508.0</ele><time>2026-04-12T13:08:04Z</time></trkpt><trkpt lat="41.94302418895412" lon="13.302702504238688"><ele>1507.3333333333333</ele><time>2026-04-12T13:08:05Z</time></trkpt><trkpt lat="41.94307068154553" lon="13.302636125209192"><ele>1506.6666666666667</ele><time>2026-04-12T13:08:06Z</time></trkpt><trkpt lat="41.943124761794394" lon="13.302545676306524"><ele>1506.0</ele><time>2026-04-12T13:08:07Z</time></trkpt><trkpt lat="41.94317950798233" lon="13.302461497420735"><ele>1506.0</ele><time>2026-04-12T13:08:08Z</time></trkpt><trkpt lat="41.943235581629125" lon="13.302371784919686"><ele>1506.0</ele><time>2026-04-12T13:08:09Z</time></trkpt><trkpt lat="41.94326975813116" lon="13.302295959104711"><ele>1506.0</ele><time>2026-04-12T13:08:10Z</time></trkpt><trkpt lat="41.943311513996946" lon="13.302192462849526"><ele>1506.0</ele><time>2026-04-12T13:08:12Z</time></trkpt><trkpt lat="41.94328594417456" lon="13.302061521351364"><ele>1506.0</ele><time>2026-04-12T13:08:14Z</time></trkpt><trkpt lat="41.943256804498326" lon="13.301915532016558"><ele>1505.3333333333333</ele><time>2026-04-12T13:08:16Z</time></trkpt><trkpt lat="41.94325000468184" lon="13.301817150928988"><ele>1504.6666666666667</ele><time>2026-04-12T13:08:17Z</time></trkpt><trkpt lat="41.94326440953423" lon="13.301648206233558"><ele>1504.0</ele><time>2026-04-12T13:08:18.999Z</time></trkpt><trkpt lat="41.94329910441376" lon="13.301571761640927"><ele>1503.3333333333335</ele><time>2026-04-12T13:08:19.999Z</time></trkpt><trkpt lat="41.943313560683514" lon="13.30148629260724"><ele>1502.6666666666667</ele><time>2026-04-12T13:08:20.999Z</time></trkpt><trkpt lat="41.94330405893538" lon="13.30139346991273"><ele>1502.0</ele><time>2026-04-12T13:08:21.999Z</time></trkpt><trkpt lat="41.94327460228708" lon="13.301302759489825"><ele>1501.5</ele><time>2026-04-12T13:08:22.999Z</time></trkpt><trkpt lat="41.943243065274004" lon="13.301218139820048"><ele>1501.0</ele><time>2026-04-12T13:08:23.999Z</time></trkpt><trkpt lat="41.943207868116446" lon="13.301124664064336"><ele>1500.5</ele><time>2026-04-12T13:08:24.999Z</time></trkpt><trkpt lat="41.943183229564205" lon="13.301015363895758"><ele>1500.0</ele><time>2026-04-12T13:08:25.999Z</time></trkpt><trkpt lat="41.94317054157332" lon="13.300903358361804"><ele>1499.5</ele><time>2026-04-12T13:08:26.999Z</time></trkpt><trkpt lat="41.943171779343366" lon="13.300789986752001"><ele>1499.0</ele><time>2026-04-12T13:08:27.999Z</time></trkpt><trkpt lat="41.94316330119212" lon="13.300631035078293"><ele>1498.0</ele><time>2026-04-12T13:08:28.999Z</time></trkpt><trkpt lat="41.943149962355925" lon="13.30048882558"><ele>1497.0</ele><time>2026-04-12T13:08:29.999Z</time></trkpt><trkpt lat="41.9431360062572" lon="13.300332397038645"><ele>1496.0</ele><time>2026-04-12T13:08:30.999Z</time></trkpt><trkpt lat="41.94313330204133" lon="13.300179597952434"><ele>1495.0</ele><time>2026-04-12T13:08:31.999Z</time></trkpt><trkpt lat="41.94312971187102" lon="13.300039741547348"><ele>1494.0</ele><time>2026-04-12T13:08:32.999Z</time></trkpt><trkpt lat="41.943120825572564" lon="13.299901572146412"><ele>1494.0</ele><time>2026-04-12T13:08:33.999Z</time></trkpt><trkpt lat="41.9431178574024" lon="13.29978433251488"><ele>1494.0</ele><time>2026-04-12T13:08:34.999Z</time></trkpt><trkpt lat="41.94315039969947" lon="13.299609296548233"><ele>1494.0</ele><time>2026-04-12T13:08:36.999Z</time></trkpt><trkpt lat="41.94321443850327" lon="13.299547017346862"><ele>1494.0</ele><time>2026-04-12T13:08:37.999Z</time></trkpt><trkpt lat="41.94327777242053" lon="13.299485454269849"><ele>1494.0</ele><time>2026-04-12T13:08:38.999Z</time></trkpt><trkpt lat="41.943366697200126" lon="13.299427909592453"><ele>1493.6</ele><time>2026-04-12T13:08:39.999Z</time></trkpt><trkpt lat="41.94350095311489" lon="13.299369941580919"><ele>1493.2</ele><time>2026-04-12T13:08:40.999Z</time></trkpt><trkpt lat="41.94361606845514" lon="13.299316138702874"><ele>1492.8</ele><time>2026-04-12T13:08:41.999Z</time></trkpt><trkpt lat="41.943702487268936" lon="13.299287894368577"><ele>1492.3999999999999</ele><time>2026-04-12T13:08:42.999Z</time></trkpt><trkpt lat="41.943774066213166" lon="13.299270676081262"><ele>1492.0</ele><time>2026-04-12T13:08:43.999Z</time></trkpt><trkpt lat="41.9438426037313" lon="13.29924980957176"><ele>1492.0</ele><time>2026-04-12T13:08:44.999Z</time></trkpt><trkpt lat="41.943906230388514" lon="13.299253307745444"><ele>1492.0</ele><time>2026-04-12T13:08:45.999Z</time></trkpt><trkpt lat="41.94399070887708" lon="13.299256365151875"><ele>1492.0</ele><time>2026-04-12T13:08:46.999Z</time></trkpt><trkpt lat="41.94406931889446" lon="13.299258347972224"><ele>1492.0</ele><time>2026-04-12T13:08:47.999Z</time></trkpt><trkpt lat="41.94414068514176" lon="13.29924967747868"><ele>1492.0</ele><time>2026-04-12T13:08:48.999Z</time></trkpt><trkpt lat="41.94424672222863" lon="13.299214028438564"><ele>1492.0</ele><time>2026-04-12T13:08:49.999Z</time></trkpt><trkpt lat="41.94432603856413" lon="13.299140002570859"><ele>1491.5</ele><time>2026-04-12T13:08:50.999Z</time></trkpt><trkpt lat="41.944400514079504" lon="13.29906731151168"><ele>1491.0</ele><time>2026-04-12T13:08:51.999Z</time></trkpt><trkpt lat="41.9444643034344" lon="13.299022993168807"><ele>1490.5</ele><time>2026-04-12T13:08:52.999Z</time></trkpt><trkpt lat="41.94454749634041" lon="13.298974652654023"><ele>1490.0</ele><time>2026-04-12T13:08:53.999Z</time></trkpt><trkpt lat="41.94460920806887" lon="13.298951311042812"><ele>1489.5</ele><time>2026-04-12T13:08:54.999Z</time></trkpt><trkpt lat="41.94468802128799" lon="13.298926944348638"><ele>1489.0</ele><time>2026-04-12T13:08:55.999Z</time></trkpt><trkpt lat="41.944774906745984" lon="13.298905502330065"><ele>1488.5</ele><time>2026-04-12T13:08:56.999Z</time></trkpt><trkpt lat="41.94486093980075" lon="13.298880854971044"><ele>1488.0</ele><time>2026-04-12T13:08:57.999Z</time></trkpt><trkpt lat="41.944931661659496" lon="13.298856348443795"><ele>1487.5</ele><time>2026-04-12T13:08:58.999Z</time></trkpt><trkpt lat="41.94504137445815" lon="13.298827306678607"><ele>1487.0</ele><time>2026-04-12T13:09:00.999Z</time></trkpt><trkpt lat="41.945132221033795" lon="13.298820875438668"><ele>1486.5</ele><time>2026-04-12T13:09:01.999Z</time></trkpt><trkpt lat="41.94521071766958" lon="13.298807910754311"><ele>1486.0</ele><time>2026-04-12T13:09:02.999Z</time></trkpt><trkpt lat="41.94528543028553" lon="13.298770601146995"><ele>1486.0</ele><time>2026-04-12T13:09:03.999Z</time></trkpt><trkpt lat="41.94536067280326" lon="13.298731016186633"><ele>1486.0</ele><time>2026-04-12T13:09:04.999Z</time></trkpt><trkpt lat="41.94545011099264" lon="13.298749264845561"><ele>1486.0</ele><time>2026-04-12T13:09:05.999Z</time></trkpt><trkpt lat="41.94552210176999" lon="13.298758992730846"><ele>1486.0</ele><time>2026-04-12T13:09:06.998Z</time></trkpt><trkpt lat="41.945594595040944" lon="13.29879259360766"><ele>1486.0</ele><time>2026-04-12T13:09:07.998Z</time></trkpt><trkpt lat="41.9456805340158" lon="13.298842928227984"><ele>1486.0</ele><time>2026-04-12T13:09:08.998Z</time></trkpt><trkpt lat="41.9457847394103" lon="13.298874741358858"><ele>1486.0</ele><time>2026-04-12T13:09:09.998Z</time></trkpt><trkpt lat="41.945866147418506" lon="13.298894707084552"><ele>1486.0</ele><time>2026-04-12T13:09:10.998Z</time></trkpt><trkpt lat="41.94593136262585" lon="13.298911344234144"><ele>1486.0</ele><time>2026-04-12T13:09:11.998Z</time></trkpt><trkpt lat="41.9460066160604" lon="13.29891319538399"><ele>1486.0</ele><time>2026-04-12T13:09:12.998Z</time></trkpt><trkpt lat="41.94613004381819" lon="13.29890437167887"><ele>1486.0</ele><time>2026-04-12T13:09:14.998Z</time></trkpt><trkpt lat="41.94621801818805" lon="13.298884308640467"><ele>1486.0</ele><time>2026-04-12T13:09:15.998Z</time></trkpt><trkpt lat="41.94630349863374" lon="13.298883997753741"><ele>1484.857142857143</ele><time>2026-04-12T13:09:16.998Z</time></trkpt><trkpt lat="41.9463736516089" lon="13.29889312761456"><ele>1483.7142857142856</ele><time>2026-04-12T13:09:18.001Z</time></trkpt><trkpt lat="41.94644950762033" lon="13.298890944228203"><ele>1482.5714285714284</ele><time>2026-04-12T13:09:19.001Z</time></trkpt><trkpt lat="41.9465175444171" lon="13.298888224270637"><ele>1481.4285714285716</ele><time>2026-04-12T13:09:20.001Z</time></trkpt><trkpt lat="41.94658687822976" lon="13.29890137652892"><ele>1480.2857142857142</ele><time>2026-04-12T13:09:21.001Z</time></trkpt><trkpt lat="41.946651315786326" lon="13.298948028891266"><ele>1479.142857142857</ele><time>2026-04-12T13:09:22.001Z</time></trkpt><trkpt lat="41.94671459471635" lon="13.299025727551982"><ele>1478.0</ele><time>2026-04-12T13:09:23.001Z</time></trkpt><trkpt lat="41.946795579825036" lon="13.299124673206741"><ele>1477.0</ele><time>2026-04-12T13:09:24.001Z</time></trkpt><trkpt lat="41.94688460553386" lon="13.299217010991503"><ele>1476.0</ele><time>2026-04-12T13:09:25.001Z</time></trkpt><trkpt lat="41.947004014945534" lon="13.299264136916998"><ele>1475.0</ele><time>2026-04-12T13:09:26.001Z</time></trkpt><trkpt lat="41.94710016875411" lon="13.299311796541927"><ele>1474.0</ele><time>2026-04-12T13:09:27.001Z</time></trkpt><trkpt lat="41.947193300026534" lon="13.299345258071495"><ele>1473.0</ele><time>2026-04-12T13:09:28.001Z</time></trkpt><trkpt lat="41.94726320709432" lon="13.299341093542676"><ele>1473.0</ele><time>2026-04-12T13:09:29.001Z</time></trkpt><trkpt lat="41.94733950112047" lon="13.299320248534533"><ele>1473.0</ele><time>2026-04-12T13:09:30.001Z</time></trkpt><trkpt lat="41.94740854844947" lon="13.299275322131603"><ele>1473.0</ele><time>2026-04-12T13:09:31.001Z</time></trkpt><trkpt lat="41.947461261931956" lon="13.299203714033304"><ele>1473.0</ele><time>2026-04-12T13:09:32.001Z</time></trkpt><trkpt lat="41.947507099973265" lon="13.299107884378644"><ele>1473.0</ele><time>2026-04-12T13:09:33.001Z</time></trkpt><trkpt lat="41.947532863214896" lon="13.298990262319137"><ele>1473.0</ele><time>2026-04-12T13:09:34Z</time></trkpt><trkpt lat="41.94751873321048" lon="13.298872310193056"><ele>1473.1666666666667</ele><time>2026-04-12T13:09:35Z</time></trkpt><trkpt lat="41.94748527205483" lon="13.298781553280813"><ele>1473.3333333333333</ele><time>2026-04-12T13:09:36Z</time></trkpt><trkpt lat="41.94743782854187" lon="13.298694138177586"><ele>1473.5</ele><time>2026-04-12T13:09:37Z</time></trkpt><trkpt lat="41.94740084532553" lon="13.298608215291068"><ele>1473.6666666666665</ele><time>2026-04-12T13:09:38Z</time></trkpt><trkpt lat="41.94738037211798" lon="13.29849634189601"><ele>1473.8333333333333</ele><time>2026-04-12T13:09:39Z</time></trkpt><trkpt lat="41.9474039446536" lon="13.298383117257476"><ele>1474.0</ele><time>2026-04-12T13:09:40Z</time></trkpt><trkpt lat="41.94738894004822" lon="13.298298090935148"><ele>1474.0</ele><time>2026-04-12T13:09:41Z</time></trkpt><trkpt lat="41.94743053712168" lon="13.298140066158565"><ele>1474.0</ele><time>2026-04-12T13:09:43Z</time></trkpt><trkpt lat="41.9474688920888" lon="13.298054745631145"><ele>1474.0</ele><time>2026-04-12T13:09:44Z</time></trkpt><trkpt lat="41.94751234016359" lon="13.297971247506128"><ele>1474.0</ele><time>2026-04-12T13:09:45Z</time></trkpt><trkpt lat="41.94755395419074" lon="13.297863459076627"><ele>1474.0</ele><time>2026-04-12T13:09:46Z</time></trkpt><trkpt lat="41.94759054275132" lon="13.297750017058497"><ele>1472.8000000000002</ele><time>2026-04-12T13:09:47Z</time></trkpt><trkpt lat="41.94763351408153" lon="13.297638562161229"><ele>1471.6000000000001</ele><time>2026-04-12T13:09:48Z</time></trkpt><trkpt lat="41.94772614260462" lon="13.297471246425383"><ele>1470.4</ele><time>2026-04-12T13:09:50Z</time></trkpt><trkpt lat="41.94779460535323" lon="13.297388865838903"><ele>1469.2</ele><time>2026-04-12T13:09:51Z</time></trkpt><trkpt lat="41.94787869985769" lon="13.297306666691238"><ele>1468.0</ele><time>2026-04-12T13:09:52Z</time></trkpt><trkpt lat="41.947977936307694" lon="13.297248807548897"><ele>1467.2</ele><time>2026-04-12T13:09:53Z</time></trkpt><trkpt lat="41.9480749765385" lon="13.297168530486921"><ele>1466.4</ele><time>2026-04-12T13:09:54Z</time></trkpt><trkpt lat="41.94815961327947" lon="13.29709920907528"><ele>1465.6000000000001</ele><time>2026-04-12T13:09:55Z</time></trkpt><trkpt lat="41.94824289193257" lon="13.297047272472632"><ele>1464.8000000000002</ele><time>2026-04-12T13:09:56Z</time></trkpt><trkpt lat="41.948335335730015" lon="13.297002645353263"><ele>1464.0</ele><time>2026-04-12T13:09:57Z</time></trkpt><trkpt lat="41.94843458075243" lon="13.296977388890733"><ele>1464.0</ele><time>2026-04-12T13:09:58Z</time></trkpt><trkpt lat="41.94853970351338" lon="13.29697774410721"><ele>1464.0</ele><time>2026-04-12T13:09:59Z</time></trkpt><trkpt lat="41.94864423886848" lon="13.29699812886208"><ele>1464.0</ele><time>2026-04-12T13:10:00Z</time></trkpt><trkpt lat="41.94874947169806" lon="13.29702135480632"><ele>1464.0</ele><time>2026-04-12T13:10:01Z</time></trkpt><trkpt lat="41.948854375775646" lon="13.297054735148588"><ele>1464.0</ele><time>2026-04-12T13:10:02Z</time></trkpt><trkpt lat="41.948956740121794" lon="13.297097882842067"><ele>1464.0</ele><time>2026-04-12T13:10:03Z</time></trkpt><trkpt lat="41.94904172252877" lon="13.297135341391822"><ele>1464.0</ele><time>2026-04-12T13:10:04Z</time></trkpt><trkpt lat="41.949121697710964" lon="13.297191551753917"><ele>1464.0</ele><time>2026-04-12T13:10:05Z</time></trkpt><trkpt lat="41.949231268181954" lon="13.297244170984357"><ele>1464.0</ele><time>2026-04-12T13:10:06Z</time></trkpt><trkpt lat="41.94932367400174" lon="13.297320591105493"><ele>1464.0</ele><time>2026-04-12T13:10:07Z</time></trkpt><trkpt lat="41.949409490769334" lon="13.29741516071586"><ele>1464.0</ele><time>2026-04-12T13:10:08Z</time></trkpt><trkpt lat="41.94950382410269" lon="13.297514948175124"><ele>1464.0</ele><time>2026-04-12T13:10:09Z</time></trkpt><trkpt lat="41.94961830556452" lon="13.29760921613268"><ele>1464.0</ele><time>2026-04-12T13:10:10Z</time></trkpt><trkpt lat="41.94973634630168" lon="13.297683032230566"><ele>1464.0</ele><time>2026-04-12T13:10:11Z</time></trkpt><trkpt lat="41.949860041197645" lon="13.297769307990162"><ele>1464.0</ele><time>2026-04-12T13:10:12Z</time></trkpt><trkpt lat="41.94998333784778" lon="13.297856380288215"><ele>1464.0</ele><time>2026-04-12T13:10:13Z</time></trkpt><trkpt lat="41.95013725282375" lon="13.297955526812693"><ele>1464.0</ele><time>2026-04-12T13:10:14Z</time></trkpt><trkpt lat="41.95029727539042" lon="13.298050415069055"><ele>1464.8000000000002</ele><time>2026-04-12T13:10:15Z</time></trkpt><trkpt lat="41.950380000691965" lon="13.298046757031123"><ele>1465.6000000000001</ele><time>2026-04-12T13:10:16Z</time></trkpt><trkpt lat="41.9505096426583" lon="13.29804969904919"><ele>1466.4</ele><time>2026-04-12T13:10:17Z</time></trkpt><trkpt lat="41.95061697448274" lon="13.298047078950027"><ele>1467.2</ele><time>2026-04-12T13:10:18Z</time></trkpt><trkpt lat="41.95073949721451" lon="13.298038410288887"><ele>1468.0</ele><time>2026-04-12T13:10:19Z</time></trkpt><trkpt lat="41.95084024302438" lon="13.298018822947054"><ele>1468.6000000000001</ele><time>2026-04-12T13:10:20Z</time></trkpt><trkpt lat="41.95093035315842" lon="13.298011040593272"><ele>1469.2</ele><time>2026-04-12T13:10:20.999Z</time></trkpt><trkpt lat="41.95101609414373" lon="13.298028786305547"><ele>1469.8</ele><time>2026-04-12T13:10:21.999Z</time></trkpt><trkpt lat="41.95110179351352" lon="13.298028092000504"><ele>1470.4</ele><time>2026-04-12T13:10:22.999Z</time></trkpt><trkpt lat="41.95119900214111" lon="13.298013609462986"><ele>1471.0</ele><time>2026-04-12T13:10:23.999Z</time></trkpt><trkpt lat="41.951297723562455" lon="13.298020481322686"><ele>1471.0</ele><time>2026-04-12T13:10:24.999Z</time></trkpt><trkpt lat="41.95138853007575" lon="13.298026178432641"><ele>1471.0</ele><time>2026-04-12T13:10:25.999Z</time></trkpt><trkpt lat="41.95146833007929" lon="13.298025633042224"><ele>1471.0</ele><time>2026-04-12T13:10:26.999Z</time></trkpt><trkpt lat="41.951541779606416" lon="13.298026763950835"><ele>1471.0</ele><time>2026-04-12T13:10:27.999Z</time></trkpt><trkpt lat="41.951634886849114" lon="13.297939511593317"><ele>1471.0</ele><time>2026-04-12T13:10:29.999Z</time></trkpt><trkpt lat="41.95164724656403" lon="13.2978493402215"><ele>1471.0</ele><time>2026-04-12T13:10:30.999Z</time></trkpt><trkpt lat="41.95166365913267" lon="13.297765071302637"><ele>1471.0</ele><time>2026-04-12T13:10:31.999Z</time></trkpt><trkpt lat="41.95167614260313" lon="13.297673784460875"><ele>1471.0</ele><time>2026-04-12T13:10:32.999Z</time></trkpt><trkpt lat="41.95167549204616" lon="13.297574125565319"><ele>1471.0</ele><time>2026-04-12T13:10:33.999Z</time></trkpt><trkpt lat="41.951671045042204" lon="13.297453316848577"><ele>1471.0</ele><time>2026-04-12T13:10:34.999Z</time></trkpt><trkpt lat="41.95166469869779" lon="13.29731342118661"><ele>1471.0</ele><time>2026-04-12T13:10:35.999Z</time></trkpt><trkpt lat="41.95166346995256" lon="13.29720044224657"><ele>1471.0</ele><time>2026-04-12T13:10:36.999Z</time></trkpt><trkpt lat="41.95166710946453" lon="13.297115531382723"><ele>1472.4</ele><time>2026-04-12T13:10:37.999Z</time></trkpt><trkpt lat="41.95172241841047" lon="13.296951025768522"><ele>1473.8</ele><time>2026-04-12T13:10:39.999Z</time></trkpt><trkpt lat="41.95174217049013" lon="13.296847001333754"><ele>1475.2</ele><time>2026-04-12T13:10:40.999Z</time></trkpt><trkpt lat="41.95175872350024" lon="13.296732913950084"><ele>1476.6000000000001</ele><time>2026-04-12T13:10:41.999Z</time></trkpt><trkpt lat="41.951778125152074" lon="13.296626883060812"><ele>1478.0</ele><time>2026-04-12T13:10:42.999Z</time></trkpt><trkpt lat="41.95179586449957" lon="13.296533803845264"><ele>1478.0</ele><time>2026-04-12T13:10:43.999Z</time></trkpt><trkpt lat="41.95180430385483" lon="13.296426935622241"><ele>1478.0</ele><time>2026-04-12T13:10:44.999Z</time></trkpt><trkpt lat="41.951860563414854" lon="13.296274280624585"><ele>1478.0</ele><time>2026-04-12T13:10:46.999Z</time></trkpt><trkpt lat="41.95190307045116" lon="13.296192905948924"><ele>1478.0</ele><time>2026-04-12T13:10:47.999Z</time></trkpt><trkpt lat="41.95193551111822" lon="13.296041006421326"><ele>1478.0</ele><time>2026-04-12T13:10:49.999Z</time></trkpt><trkpt lat="41.951957603492865" lon="13.295956927525303"><ele>1478.4</ele><time>2026-04-12T13:10:51.999Z</time></trkpt><trkpt lat="41.95199243212452" lon="13.29584808696528"><ele>1478.8000000000002</ele><time>2026-04-12T13:18:40.999Z</time></trkpt><trkpt lat="41.952036784850094" lon="13.29575184302001"><ele>1479.2</ele><time>2026-04-12T13:18:42.999Z</time></trkpt><trkpt lat="41.95210297739195" lon="13.295673857358"><ele>1479.6</ele><time>2026-04-12T13:18:44.999Z</time></trkpt><trkpt lat="41.952186903254876" lon="13.295643166060993"><ele>1480.0</ele><time>2026-04-12T13:18:46.999Z</time></trkpt><trkpt lat="41.95229528787175" lon="13.295612598407889"><ele>1480.3333333333333</ele><time>2026-04-12T13:18:48.999Z</time></trkpt><trkpt lat="41.952399054731735" lon="13.295552760291914"><ele>1480.6666666666665</ele><time>2026-04-12T13:18:50.999Z</time></trkpt><trkpt lat="41.952452568611086" lon="13.29549476556347"><ele>1481.0</ele><time>2026-04-12T13:18:52.999Z</time></trkpt><trkpt lat="41.95250628995911" lon="13.295448457615933"><ele>1481.3333333333333</ele><time>2026-04-12T13:18:54.999Z</time></trkpt><trkpt lat="41.952583104633796" lon="13.29541075157226"><ele>1481.6666666666667</ele><time>2026-04-12T13:18:56.999Z</time></trkpt><trkpt lat="41.952670470943886" lon="13.295349717333833"><ele>1482.0</ele><time>2026-04-12T13:18:58.999Z</time></trkpt><trkpt lat="41.95273844006729" lon="13.295306311931672"><ele>1482.0</ele><time>2026-04-12T13:18:59.999Z</time></trkpt><trkpt lat="41.952798098725815" lon="13.29525497498645"><ele>1482.0</ele><time>2026-04-12T13:19:00.999Z</time></trkpt><trkpt lat="41.95285699935874" lon="13.295197434004958"><ele>1482.0</ele><time>2026-04-12T13:19:01.999Z</time></trkpt><trkpt lat="41.95296281833633" lon="13.29511811759432"><ele>1482.0</ele><time>2026-04-12T13:19:03.999Z</time></trkpt><trkpt lat="41.95306328315538" lon="13.295083450115033"><ele>1482.0</ele><time>2026-04-12T13:19:05.999Z</time></trkpt><trkpt lat="41.95312761157093" lon="13.295086459776451"><ele>1482.0</ele><time>2026-04-12T13:19:06.999Z</time></trkpt><trkpt lat="41.95321847721284" lon="13.29510065443739"><ele>1482.0</ele><time>2026-04-12T13:19:07.999Z</time></trkpt><trkpt lat="41.95329621626146" lon="13.295113495323342"><ele>1482.0</ele><time>2026-04-12T13:19:08.999Z</time></trkpt><trkpt lat="41.953374971648415" lon="13.295125161932779"><ele>1482.0</ele><time>2026-04-12T13:19:09.999Z</time></trkpt><trkpt lat="41.953440202730995" lon="13.295128367280295"><ele>1482.0</ele><time>2026-04-12T13:19:10.999Z</time></trkpt><trkpt lat="41.95351478584044" lon="13.295124480029159"><ele>1482.0</ele><time>2026-04-12T13:19:11.999Z</time></trkpt><trkpt lat="41.95360292502102" lon="13.295110858161305"><ele>1482.0</ele><time>2026-04-12T13:19:12.999Z</time></trkpt><trkpt lat="41.95371365897846" lon="13.295047971050002"><ele>1482.6</ele><time>2026-04-12T13:19:13.999Z</time></trkpt><trkpt lat="41.95379646831705" lon="13.294993982236555"><ele>1483.1999999999998</ele><time>2026-04-12T13:19:14.998Z</time></trkpt><trkpt lat="41.95386319683357" lon="13.294921090065909"><ele>1483.8</ele><time>2026-04-12T13:19:15.998Z</time></trkpt><trkpt lat="41.95393435815804" lon="13.294828144913083"><ele>1484.4</ele><time>2026-04-12T13:19:16.998Z</time></trkpt><trkpt lat="41.95399170144692" lon="13.29471071732804"><ele>1485.0</ele><time>2026-04-12T13:19:17.998Z</time></trkpt><trkpt lat="41.95402328181337" lon="13.294598055298511"><ele>1485.0</ele><time>2026-04-12T13:19:18.998Z</time></trkpt><trkpt lat="41.95404865589233" lon="13.294473003784661"><ele>1485.0</ele><time>2026-04-12T13:19:19.998Z</time></trkpt><trkpt lat="41.95407741548004" lon="13.294347461844524"><ele>1485.0</ele><time>2026-04-12T13:19:20.998Z</time></trkpt><trkpt lat="41.95411658089459" lon="13.294232537785112"><ele>1485.0</ele><time>2026-04-12T13:19:21.998Z</time></trkpt><trkpt lat="41.9541710331272" lon="13.294149011934753"><ele>1485.0</ele><time>2026-04-12T13:19:22.998Z</time></trkpt><trkpt lat="41.95425308109763" lon="13.29409434053974"><ele>1486.2</ele><time>2026-04-12T13:19:23.998Z</time></trkpt><trkpt lat="41.954330921206086" lon="13.294019974052048"><ele>1487.4</ele><time>2026-04-12T13:19:24.998Z</time></trkpt><trkpt lat="41.954416945977194" lon="13.293952541593288"><ele>1488.6</ele><time>2026-04-12T13:19:25.998Z</time></trkpt><trkpt lat="41.9545023059831" lon="13.293874602438791"><ele>1489.8</ele><time>2026-04-12T13:19:26.998Z</time></trkpt><trkpt lat="41.954577832534234" lon="13.293777492282729"><ele>1491.0</ele><time>2026-04-12T13:19:27.998Z</time></trkpt><trkpt lat="41.95463805152577" lon="13.293658780940712"><ele>1491.0</ele><time>2026-04-12T13:19:28.998Z</time></trkpt><trkpt lat="41.954710217939244" lon="13.293540979216289"><ele>1491.0</ele><time>2026-04-12T13:19:29.998Z</time></trkpt><trkpt lat="41.954770739834494" lon="13.293432343747996"><ele>1491.0</ele><time>2026-04-12T13:19:30.998Z</time></trkpt><trkpt lat="41.954809791982775" lon="13.293333609074928"><ele>1491.0</ele><time>2026-04-12T13:19:31.998Z</time></trkpt><trkpt lat="41.95481505777978" lon="13.29324903565496"><ele>1491.0</ele><time>2026-04-12T13:19:32.998Z</time></trkpt><trkpt lat="41.954770241408205" lon="13.293118322687619"><ele>1491.6</ele><time>2026-04-12T13:19:34.998Z</time></trkpt><trkpt lat="41.95477549977382" lon="13.293025350307815"><ele>1492.1999999999998</ele><time>2026-04-12T13:19:35.998Z</time></trkpt><trkpt lat="41.954808689917684" lon="13.292915880304774"><ele>1492.8000000000002</ele><time>2026-04-12T13:19:36.998Z</time></trkpt><trkpt lat="41.95486375507933" lon="13.292841806708653"><ele>1493.4</ele><time>2026-04-12T13:19:37.998Z</time></trkpt><trkpt lat="41.95500145760536" lon="13.292836097440459"><ele>1494.0</ele><time>2026-04-12T13:19:39.998Z</time></trkpt><trkpt lat="41.955079035850964" lon="13.292848712832471"><ele>1494.0</ele><time>2026-04-12T13:19:40.998Z</time></trkpt><trkpt lat="41.9551564119088" lon="13.292849597422435"><ele>1494.0</ele><time>2026-04-12T13:19:41.998Z</time></trkpt><trkpt lat="41.95524237630513" lon="13.292815758608995"><ele>1494.0</ele><time>2026-04-12T13:19:42.998Z</time></trkpt><trkpt lat="41.95530795788576" lon="13.292727792086042"><ele>1494.0</ele><time>2026-04-12T13:19:43.998Z</time></trkpt><trkpt lat="41.95539098542924" lon="13.292622634316448"><ele>1494.0</ele><time>2026-04-12T13:19:44.998Z</time></trkpt><trkpt lat="41.95542198881645" lon="13.292494496531992"><ele>1494.0</ele><time>2026-04-12T13:19:45.998Z</time></trkpt><trkpt lat="41.95543842807645" lon="13.292367252976877"><ele>1494.0</ele><time>2026-04-12T13:19:47Z</time></trkpt><trkpt lat="41.95552741457017" lon="13.292247083977498"><ele>1494.0</ele><time>2026-04-12T13:19:49Z</time></trkpt><trkpt lat="41.955594829782754" lon="13.292212708945975"><ele>1494.0</ele><time>2026-04-12T13:19:50Z</time></trkpt><trkpt lat="41.95569162122941" lon="13.292198038221944"><ele>1494.0</ele><time>2026-04-12T13:19:51Z</time></trkpt><trkpt lat="41.95577733279729" lon="13.292205667475146"><ele>1494.6</ele><time>2026-04-12T13:19:52Z</time></trkpt><trkpt lat="41.95587988947612" lon="13.29221314854545"><ele>1495.2</ele><time>2026-04-12T13:19:53Z</time></trkpt><trkpt lat="41.95597610248111" lon="13.292236645802118"><ele>1495.8</ele><time>2026-04-12T13:19:54Z</time></trkpt><trkpt lat="41.95605127069078" lon="13.292254047221505"><ele>1496.3999999999999</ele><time>2026-04-12T13:19:55Z</time></trkpt><trkpt lat="41.95613658869321" lon="13.29227892940075"><ele>1497.0</ele><time>2026-04-12T13:19:56Z</time></trkpt><trkpt lat="41.956228777805954" lon="13.292295562864098"><ele>1497.0</ele><time>2026-04-12T13:19:57Z</time></trkpt><trkpt lat="41.95630556937676" lon="13.292318701076143"><ele>1497.0</ele><time>2026-04-12T13:19:58Z</time></trkpt><trkpt lat="41.956383969658766" lon="13.292337686017685"><ele>1497.0</ele><time>2026-04-12T13:19:59Z</time></trkpt><trkpt lat="41.95647636922157" lon="13.292370127256266"><ele>1497.0</ele><time>2026-04-12T13:20:01Z</time></trkpt><trkpt lat="41.95657420854866" lon="13.29227828095417"><ele>1497.0</ele><time>2026-04-12T13:20:03Z</time></trkpt><trkpt lat="41.95661168949519" lon="13.292198962759784"><ele>1497.0</ele><time>2026-04-12T13:20:04Z</time></trkpt><trkpt lat="41.95664664732048" lon="13.292085402279392"><ele>1494.8</ele><time>2026-04-12T13:20:05Z</time></trkpt><trkpt lat="41.95667230187238" lon="13.291975486725013"><ele>1492.6</ele><time>2026-04-12T13:20:06Z</time></trkpt><trkpt lat="41.95675029569439" lon="13.29187941588533"><ele>1490.3999999999999</ele><time>2026-04-12T13:20:08Z</time></trkpt><trkpt lat="41.956830393025484" lon="13.291865514155925"><ele>1488.1999999999998</ele><time>2026-04-12T13:20:09Z</time></trkpt><trkpt lat="41.95692065598463" lon="13.291872471900973"><ele>1486.0</ele><time>2026-04-12T13:20:10Z</time></trkpt><trkpt lat="41.957013013658845" lon="13.291872931843661"><ele>1486.0</ele><time>2026-04-12T13:20:11Z</time></trkpt><trkpt lat="41.95709639971257" lon="13.29188467218188"><ele>1486.0</ele><time>2026-04-12T13:20:12Z</time></trkpt><trkpt lat="41.95715908054737" lon="13.291906039400034"><ele>1486.0</ele><time>2026-04-12T13:20:13Z</time></trkpt><trkpt lat="41.957220038836425" lon="13.291956652376847"><ele>1486.0</ele><time>2026-04-12T13:20:14Z</time></trkpt><trkpt lat="41.95729458923574" lon="13.292020030617163"><ele>1486.0</ele><time>2026-04-12T13:20:15Z</time></trkpt><trkpt lat="41.95736850186802" lon="13.292056283465975"><ele>1486.0</ele><time>2026-04-12T13:20:16Z</time></trkpt><trkpt lat="41.957439320716915" lon="13.29205062095834"><ele>1489.6666666666665</ele><time>2026-04-12T13:20:17Z</time></trkpt><trkpt lat="41.95753851506559" lon="13.2920007057571"><ele>1493.3333333333333</ele><time>2026-04-12T13:20:19Z</time></trkpt><trkpt lat="41.957584633848384" lon="13.291924234543112"><ele>1497.0</ele><time>2026-04-12T13:20:20Z</time></trkpt><trkpt lat="41.957601058568" lon="13.291839591470625"><ele>1500.6666666666667</ele><time>2026-04-12T13:20:21Z</time></trkpt><trkpt lat="41.95760248749015" lon="13.291724193510738"><ele>1504.3333333333335</ele><time>2026-04-12T13:20:22Z</time></trkpt><trkpt lat="41.95762499842238" lon="13.291612505581757"><ele>1508.0</ele><time>2026-04-12T13:20:23Z</time></trkpt><trkpt lat="41.95766940743274" lon="13.291507414745064"><ele>1505.0</ele><time>2026-04-12T13:20:24Z</time></trkpt><trkpt lat="41.957700288360016" lon="13.291402970373719"><ele>1502.0</ele><time>2026-04-12T13:20:25Z</time></trkpt><trkpt lat="41.957690274565586" lon="13.291281963707023"><ele>1499.0</ele><time>2026-04-12T13:20:26Z</time></trkpt><trkpt lat="41.95768422350051" lon="13.291149731200276"><ele>1496.0</ele><time>2026-04-12T13:20:27Z</time></trkpt><trkpt lat="41.95770659419936" lon="13.29100902502245"><ele>1493.0</ele><time>2026-04-12T13:20:28Z</time></trkpt><trkpt lat="41.95773080419725" lon="13.290857842789421"><ele>1493.0</ele><time>2026-04-12T13:20:29Z</time></trkpt><trkpt lat="41.95779797173101" lon="13.290758835903763"><ele>1493.0</ele><time>2026-04-12T13:20:30.999Z</time></trkpt><trkpt lat="41.95785494089161" lon="13.290714628212712"><ele>1493.0</ele><time>2026-04-12T13:20:31.999Z</time></trkpt><trkpt lat="41.95793017572934" lon="13.290666837240293"><ele>1493.0</ele><time>2026-04-12T13:20:32.999Z</time></trkpt><trkpt lat="41.95800533394058" lon="13.290612580617287"><ele>1493.0</ele><time>2026-04-12T13:20:33.999Z</time></trkpt><trkpt lat="41.958061705337784" lon="13.290555152138571"><ele>1493.0</ele><time>2026-04-12T13:20:34.999Z</time></trkpt><trkpt lat="41.9581354030032" lon="13.2904848958617"><ele>1492.8333333333335</ele><time>2026-04-12T13:20:35.999Z</time></trkpt><trkpt lat="41.95820837294672" lon="13.290422966614885"><ele>1492.6666666666667</ele><time>2026-04-12T13:20:36.999Z</time></trkpt><trkpt lat="41.958283926304425" lon="13.2903735211291"><ele>1492.5</ele><time>2026-04-12T13:20:37.999Z</time></trkpt><trkpt lat="41.958338923856864" lon="13.29032745113374"><ele>1492.3333333333333</ele><time>2026-04-12T13:20:38.999Z</time></trkpt><trkpt lat="41.958384868462524" lon="13.290243699759"><ele>1492.1666666666665</ele><time>2026-04-12T13:20:39.999Z</time></trkpt><trkpt lat="41.95840078941306" lon="13.290159076718453"><ele>1492.0</ele><time>2026-04-12T13:20:40.999Z</time></trkpt><trkpt lat="41.95841325909905" lon="13.290027587694658"><ele>1492.0</ele><time>2026-04-12T13:20:41.999Z</time></trkpt><trkpt lat="41.958419051996714" lon="13.289874365293754"><ele>1492.0</ele><time>2026-04-12T13:20:42.999Z</time></trkpt><trkpt lat="41.95844214118232" lon="13.28974647512407"><ele>1492.0</ele><time>2026-04-12T13:20:43.999Z</time></trkpt><trkpt lat="41.95848653414248" lon="13.28963871463034"><ele>1492.0</ele><time>2026-04-12T13:20:44.999Z</time></trkpt><trkpt lat="41.958531365926284" lon="13.289533092873928"><ele>1492.0</ele><time>2026-04-12T13:20:45.999Z</time></trkpt><trkpt lat="41.958581385285335" lon="13.289458659351109"><ele>1490.1999999999998</ele><time>2026-04-12T13:20:46.999Z</time></trkpt><trkpt lat="41.95866054886752" lon="13.289397020113128"><ele>1488.4</ele><time>2026-04-12T13:20:48.999Z</time></trkpt><trkpt lat="41.95873505069267" lon="13.289391544534402"><ele>1486.6</ele><time>2026-04-12T13:20:50.999Z</time></trkpt><trkpt lat="41.9588689568326" lon="13.28937785545156"><ele>1484.8000000000002</ele><time>2026-04-12T13:20:52.999Z</time></trkpt><trkpt lat="41.95895716901401" lon="13.289279308936207"><ele>1483.0</ele><time>2026-04-12T13:20:54.999Z</time></trkpt><trkpt lat="41.958975843323394" lon="13.289196331601433"><ele>1483.0</ele><time>2026-04-12T13:20:55.999Z</time></trkpt><trkpt lat="41.95900410300457" lon="13.289086484474243"><ele>1483.0</ele><time>2026-04-12T13:20:56.999Z</time></trkpt><trkpt lat="41.95903429789736" lon="13.289010949970276"><ele>1483.0</ele><time>2026-04-12T13:20:57.999Z</time></trkpt><trkpt lat="41.959064024311424" lon="13.288926025407614"><ele>1483.0</ele><time>2026-04-12T13:20:58.999Z</time></trkpt><trkpt lat="41.959086147652805" lon="13.288830515357947"><ele>1483.0</ele><time>2026-04-12T13:20:59.999Z</time></trkpt><trkpt lat="41.95906666648506" lon="13.288730683828025"><ele>1483.0</ele><time>2026-04-12T13:21:00.999Z</time></trkpt><trkpt lat="41.95903012147651" lon="13.288636199705635"><ele>1483.0</ele><time>2026-04-12T13:21:01.999Z</time></trkpt><trkpt lat="41.958997485423815" lon="13.288536529048919"><ele>1483.0</ele><time>2026-04-12T13:21:02.999Z</time></trkpt><trkpt lat="41.9589687627144" lon="13.28840979496716"><ele>1483.0</ele><time>2026-04-12T13:21:03.999Z</time></trkpt><trkpt lat="41.95896369497498" lon="13.288273570314066"><ele>1483.0</ele><time>2026-04-12T13:21:04.999Z</time></trkpt><trkpt lat="41.958983159978224" lon="13.288155271880282"><ele>1483.0</ele><time>2026-04-12T13:21:05.999Z</time></trkpt><trkpt lat="41.958987975711636" lon="13.288012004004209"><ele>1482.0</ele><time>2026-04-12T13:21:06.999Z</time></trkpt><trkpt lat="41.958992318102005" lon="13.287896830945606"><ele>1481.0</ele><time>2026-04-12T13:21:07.999Z</time></trkpt><trkpt lat="41.95900939747983" lon="13.287768699955315"><ele>1480.0</ele><time>2026-04-12T13:21:08.999Z</time></trkpt><trkpt lat="41.9590248746513" lon="13.28764983585812"><ele>1479.0</ele><time>2026-04-12T13:21:09.999Z</time></trkpt><trkpt lat="41.95904765736313" lon="13.287533277028865"><ele>1478.0</ele><time>2026-04-12T13:21:10.999Z</time></trkpt><trkpt lat="41.959083614306614" lon="13.287409024361672"><ele>1478.0</ele><time>2026-04-12T13:21:11.999Z</time></trkpt><trkpt lat="41.95911434526944" lon="13.2872948380352"><ele>1478.0</ele><time>2026-04-12T13:21:12.999Z</time></trkpt><trkpt lat="41.9591537516348" lon="13.28719409565144"><ele>1478.0</ele><time>2026-04-12T13:21:13.999Z</time></trkpt><trkpt lat="41.9592170354284" lon="13.287108038653866"><ele>1478.0</ele><time>2026-04-12T13:21:14.999Z</time></trkpt><trkpt lat="41.95928355676421" lon="13.287017813422699"><ele>1478.0</ele><time>2026-04-12T13:21:15.999Z</time></trkpt><trkpt lat="41.95934159022472" lon="13.286924206711536"><ele>1483.0</ele><time>2026-04-12T13:21:16.998Z</time></trkpt><trkpt lat="41.95937404064072" lon="13.286814922656085"><ele>1488.0</ele><time>2026-04-12T13:21:17.998Z</time></trkpt><trkpt lat="41.959440987648236" lon="13.286676719712009"><ele>1493.0</ele><time>2026-04-12T13:21:19.998Z</time></trkpt><trkpt lat="41.959509389240665" lon="13.286623397525974"><ele>1498.0</ele><time>2026-04-12T13:21:20.998Z</time></trkpt><trkpt lat="41.959578147627404" lon="13.286573651483176"><ele>1503.0</ele><time>2026-04-12T13:21:21.998Z</time></trkpt><trkpt lat="41.95965493148261" lon="13.28649617465659"><ele>1499.1666666666667</ele><time>2026-04-12T13:21:22.998Z</time></trkpt><trkpt lat="41.95969563900887" lon="13.286412567375233"><ele>1495.3333333333333</ele><time>2026-04-12T13:21:23.998Z</time></trkpt><trkpt lat="41.959711149495064" lon="13.28632976581281"><ele>1491.5</ele><time>2026-04-12T13:21:24.998Z</time></trkpt><trkpt lat="41.959742884673325" lon="13.28622935298168"><ele>1487.6666666666665</ele><time>2026-04-12T13:21:25.998Z</time></trkpt><trkpt lat="41.9597709392165" lon="13.286126525772593"><ele>1483.8333333333333</ele><time>2026-04-12T13:21:26.998Z</time></trkpt><trkpt lat="41.95981072470668" lon="13.286023378024995"><ele>1480.0</ele><time>2026-04-12T13:21:28.998Z</time></trkpt><trkpt lat="41.95989406437683" lon="13.285904027772217"><ele>1480.0</ele><time>2026-04-12T13:21:30.998Z</time></trkpt><trkpt lat="41.95998248405379" lon="13.285859875778245"><ele>1480.0</ele><time>2026-04-12T13:21:31.998Z</time></trkpt><trkpt lat="41.96006577615274" lon="13.285810667906548"><ele>1480.0</ele><time>2026-04-12T13:21:32.998Z</time></trkpt><trkpt lat="41.96014386759641" lon="13.285760986376644"><ele>1480.0</ele><time>2026-04-12T13:21:33.998Z</time></trkpt><trkpt lat="41.96022315586519" lon="13.285727461030524"><ele>1480.0</ele><time>2026-04-12T13:21:34.998Z</time></trkpt><trkpt lat="41.96028479124974" lon="13.28565331146051"><ele>1480.0</ele><time>2026-04-12T13:21:35.998Z</time></trkpt><trkpt lat="41.96038948738861" lon="13.285633540935807"><ele>1481.6666666666665</ele><time>2026-04-12T13:21:36.998Z</time></trkpt><trkpt lat="41.96046410935114" lon="13.285582589590337"><ele>1483.3333333333333</ele><time>2026-04-12T13:21:37.998Z</time></trkpt><trkpt lat="41.960514092806285" lon="13.28550515384601"><ele>1485.0</ele><time>2026-04-12T13:21:38.998Z</time></trkpt><trkpt lat="41.96055307895721" lon="13.285391924741031"><ele>1486.6666666666667</ele><time>2026-04-12T13:21:39.998Z</time></trkpt><trkpt lat="41.96059728447805" lon="13.285274658713725"><ele>1488.3333333333335</ele><time>2026-04-12T13:21:40.998Z</time></trkpt><trkpt lat="41.96061795957531" lon="13.285169931394128"><ele>1490.0</ele><time>2026-04-12T13:21:41.998Z</time></trkpt><trkpt lat="41.96066252993438" lon="13.285065079702456"><ele>1490.0</ele><time>2026-04-12T13:21:43.998Z</time></trkpt><trkpt lat="41.960716402437946" lon="13.285013589898213"><ele>1490.0</ele><time>2026-04-12T13:21:44.998Z</time></trkpt><trkpt lat="41.960829294992585" lon="13.28495154766954"><ele>1490.0</ele><time>2026-04-12T13:21:46.998Z</time></trkpt><trkpt lat="41.96091150169392" lon="13.284848827192222"><ele>1490.0</ele><time>2026-04-12T13:21:48.998Z</time></trkpt><trkpt lat="41.960937211705684" lon="13.284767399387661"><ele>1490.0</ele><time>2026-04-12T13:21:49.998Z</time></trkpt><trkpt lat="41.96094860967496" lon="13.284669525158796"><ele>1490.0</ele><time>2026-04-12T13:21:50.998Z</time></trkpt><trkpt lat="41.96096290772425" lon="13.28458462013677"><ele>1495.2</ele><time>2026-04-12T13:21:51.998Z</time></trkpt><trkpt lat="41.96103882455093" lon="13.284484552388871"><ele>1500.4</ele><time>2026-04-12T13:21:55Z</time></trkpt><trkpt lat="41.96114331858624" lon="13.284411443332605"><ele>1505.6</ele><time>2026-04-12T13:21:57Z</time></trkpt><trkpt lat="41.961226367497396" lon="13.284311830175607"><ele>1510.8</ele><time>2026-04-12T13:21:59Z</time></trkpt><trkpt lat="41.961265201871555" lon="13.284243413090056"><ele>1516.0</ele><time>2026-04-12T13:22:00Z</time></trkpt><trkpt lat="41.961308816496135" lon="13.284174485697799"><ele>1516.0</ele><time>2026-04-12T13:22:02Z</time></trkpt><trkpt lat="41.96136845063412" lon="13.28408288345779"><ele>1516.0</ele><time>2026-04-12T13:22:04Z</time></trkpt><trkpt lat="41.96146729649995" lon="13.283973768127538"><ele>1516.0</ele><time>2026-04-12T13:22:06Z</time></trkpt><trkpt lat="41.96155982022655" lon="13.283879745179505"><ele>1516.0</ele><time>2026-04-12T13:22:08Z</time></trkpt><trkpt lat="41.96165257044454" lon="13.283772828623135"><ele>1519.1666666666665</ele><time>2026-04-12T13:22:10Z</time></trkpt><trkpt lat="41.961712142921805" lon="13.283694255008308"><ele>1522.3333333333333</ele><time>2026-04-12T13:22:11Z</time></trkpt><trkpt lat="41.96177252394716" lon="13.283632525214683"><ele>1525.5</ele><time>2026-04-12T13:22:12Z</time></trkpt><trkpt lat="41.96183513307266" lon="13.283578071344019"><ele>1528.6666666666667</ele><time>2026-04-12T13:22:13Z</time></trkpt><trkpt lat="41.961894579359736" lon="13.283502246267753"><ele>1531.8333333333335</ele><time>2026-04-12T13:22:14Z</time></trkpt><trkpt lat="41.96197467940057" lon="13.283420417961741"><ele>1535.0</ele><time>2026-04-12T13:22:15Z</time></trkpt><trkpt lat="41.96203933846243" lon="13.28333228396178"><ele>1535.0</ele><time>2026-04-12T13:22:16Z</time></trkpt><trkpt lat="41.9620904784845" lon="13.28324045056579"><ele>1535.0</ele><time>2026-04-12T13:22:17Z</time></trkpt><trkpt lat="41.96214694211824" lon="13.283146318993687"><ele>1535.0</ele><time>2026-04-12T13:22:18Z</time></trkpt><trkpt lat="41.96220343602584" lon="13.283049634441072"><ele>1535.0</ele><time>2026-04-12T13:22:19Z</time></trkpt><trkpt lat="41.962257437467855" lon="13.282956042237366"><ele>1535.0</ele><time>2026-04-12T13:22:20Z</time></trkpt><trkpt lat="41.962290983731535" lon="13.282877666292276"><ele>1535.0</ele><time>2026-04-12T13:22:21Z</time></trkpt><trkpt lat="41.96237303698238" lon="13.282731466858554"><ele>1534.0</ele><time>2026-04-12T13:22:23Z</time></trkpt><trkpt lat="41.962435147741445" lon="13.282591030900823"><ele>1533.0</ele><time>2026-04-12T13:22:25Z</time></trkpt><trkpt lat="41.96248852349081" lon="13.282485053511461"><ele>1532.0</ele><time>2026-04-12T13:22:26Z</time></trkpt><trkpt lat="41.962529463614096" lon="13.282389657007503"><ele>1531.0</ele><time>2026-04-12T13:22:27Z</time></trkpt><trkpt lat="41.962579112113765" lon="13.282298125198993"><ele>1530.0</ele><time>2026-04-12T13:22:28Z</time></trkpt><trkpt lat="41.96263414672315" lon="13.282224727678882"><ele>1530.0</ele><time>2026-04-12T13:22:29Z</time></trkpt><trkpt lat="41.96268269738705" lon="13.28214776281843"><ele>1530.0</ele><time>2026-04-12T13:22:30Z</time></trkpt><trkpt lat="41.96274391703247" lon="13.282039723407063"><ele>1530.0</ele><time>2026-04-12T13:22:31Z</time></trkpt><trkpt lat="41.96278345991543" lon="13.281941298023964"><ele>1530.0</ele><time>2026-04-12T13:22:32Z</time></trkpt><trkpt lat="41.96281690712112" lon="13.281840253474414"><ele>1530.0</ele><time>2026-04-12T13:22:32.999Z</time></trkpt><trkpt lat="41.96285333836441" lon="13.281731280775551"><ele>1530.0</ele><time>2026-04-12T13:22:33.999Z</time></trkpt><trkpt lat="41.96288003689324" lon="13.28163410980702"><ele>1530.0</ele><time>2026-04-12T13:22:34.999Z</time></trkpt><trkpt lat="41.96292351712283" lon="13.281523586866387"><ele>1530.0</ele><time>2026-04-12T13:22:35.999Z</time></trkpt><trkpt lat="41.96294936508796" lon="13.281445646339185"><ele>1530.0</ele><time>2026-04-12T13:22:36.999Z</time></trkpt><trkpt lat="41.962961790421566" lon="13.281352566207369"><ele>1530.0</ele><time>2026-04-12T13:22:37.999Z</time></trkpt><trkpt lat="41.9629788304477" lon="13.28124847458205"><ele>1530.0</ele><time>2026-04-12T13:22:38.999Z</time></trkpt><trkpt lat="41.963022212784615" lon="13.281121861927492"><ele>1530.0</ele><time>2026-04-12T13:22:40.999Z</time></trkpt><trkpt lat="41.9630457184057" lon="13.281009102287209"><ele>1525.2</ele><time>2026-04-12T13:22:42.999Z</time></trkpt><trkpt lat="41.96308611346331" lon="13.280878797377111"><ele>1520.4</ele><time>2026-04-12T13:22:44.999Z</time></trkpt><trkpt lat="41.9631456706117" lon="13.280700639382264"><ele>1515.6</ele><time>2026-04-12T13:22:46.999Z</time></trkpt><trkpt lat="41.963226801607114" lon="13.280576014952358"><ele>1510.8</ele><time>2026-04-12T13:22:48.999Z</time></trkpt><trkpt lat="41.963287407678244" lon="13.28051854787971"><ele>1506.0</ele><time>2026-04-12T13:22:49.999Z</time></trkpt><trkpt lat="41.96335461339122" lon="13.280476681357472"><ele>1506.1666666666667</ele><time>2026-04-12T13:22:50.999Z</time></trkpt><trkpt lat="41.96342212759258" lon="13.280399864169429"><ele>1506.3333333333333</ele><time>2026-04-12T13:22:51.999Z</time></trkpt><trkpt lat="41.96348890731974" lon="13.280324426934378"><ele>1506.5</ele><time>2026-04-12T13:22:52.999Z</time></trkpt><trkpt lat="41.96353600710678" lon="13.280266214555878"><ele>1506.6666666666665</ele><time>2026-04-12T13:22:53.999Z</time></trkpt><trkpt lat="41.96356298005129" lon="13.2801724926282"><ele>1506.8333333333333</ele><time>2026-04-12T13:22:54.999Z</time></trkpt><trkpt lat="41.963583083090484" lon="13.280080205037812"><ele>1507.0</ele><time>2026-04-12T13:22:55.999Z</time></trkpt><trkpt lat="41.963619429597394" lon="13.280009576077006"><ele>1507.0</ele><time>2026-04-12T13:22:56.999Z</time></trkpt><trkpt lat="41.96366009294608" lon="13.279944492888426"><ele>1507.0</ele><time>2026-04-12T13:22:57.999Z</time></trkpt><trkpt lat="41.96371614485855" lon="13.279889340218906"><ele>1507.0</ele><time>2026-04-12T13:22:58.999Z</time></trkpt><trkpt lat="41.96379309769557" lon="13.279811686676505"><ele>1507.0</ele><time>2026-04-12T13:23:00.999Z</time></trkpt><trkpt lat="41.96388292553806" lon="13.279747827896124"><ele>1507.0</ele><time>2026-04-12T13:23:02.999Z</time></trkpt><trkpt lat="41.96394398822895" lon="13.279718696363195"><ele>1507.0</ele><time>2026-04-12T13:23:03.999Z</time></trkpt><trkpt lat="41.96406678382131" lon="13.279660062661106"><ele>1506.1999999999998</ele><time>2026-04-12T13:23:05.999Z</time></trkpt><trkpt lat="41.964127159016016" lon="13.27957046532939"><ele>1505.4</ele><time>2026-04-12T13:23:07.999Z</time></trkpt><trkpt lat="41.96414211184134" lon="13.279469394602916"><ele>1504.6</ele><time>2026-04-12T13:23:09.999Z</time></trkpt><trkpt lat="41.96419786492877" lon="13.279419489621578"><ele>1503.8000000000002</ele><time>2026-04-12T13:23:10.999Z</time></trkpt><trkpt lat="41.964312702614826" lon="13.279350558861438"><ele>1503.0</ele><time>2026-04-12T13:23:12.999Z</time></trkpt><trkpt lat="41.96440682982195" lon="13.27925258566423"><ele>1503.0</ele><time>2026-04-12T13:23:13.999Z</time></trkpt><trkpt lat="41.9644807787621" lon="13.279189875966239"><ele>1503.0</ele><time>2026-04-12T13:23:14.999Z</time></trkpt><trkpt lat="41.96454415193622" lon="13.279123452068877"><ele>1503.0</ele><time>2026-04-12T13:23:15.999Z</time></trkpt><trkpt lat="41.96459065840089" lon="13.279050752101325"><ele>1503.0</ele><time>2026-04-12T13:23:16.999Z</time></trkpt><trkpt lat="41.96461939999192" lon="13.278965252541827"><ele>1503.0</ele><time>2026-04-12T13:23:17.999Z</time></trkpt><trkpt lat="41.964652114048405" lon="13.278855662934792"><ele>1503.0</ele><time>2026-04-12T13:23:18.999Z</time></trkpt><trkpt lat="41.96467841537034" lon="13.278758513762549"><ele>1500.5</ele><time>2026-04-12T13:23:19.998Z</time></trkpt><trkpt lat="41.96471744467684" lon="13.278682076617315"><ele>1498.0</ele><time>2026-04-12T13:23:20.998Z</time></trkpt><trkpt lat="41.9647546341051" lon="13.278594917133905"><ele>1495.5</ele><time>2026-04-12T13:23:21.998Z</time></trkpt><trkpt lat="41.964794104785156" lon="13.278506173295492"><ele>1493.0</ele><time>2026-04-12T13:23:22.998Z</time></trkpt><trkpt lat="41.96484206810952" lon="13.278388986495019"><ele>1490.5</ele><time>2026-04-12T13:23:23.998Z</time></trkpt><trkpt lat="41.96488085416713" lon="13.278279899204794"><ele>1488.0</ele><time>2026-04-12T13:23:24.998Z</time></trkpt><trkpt lat="41.96492100986467" lon="13.27815782016684"><ele>1490.2</ele><time>2026-04-12T13:23:25.998Z</time></trkpt><trkpt lat="41.96496846624187" lon="13.278023681258997"><ele>1492.4</ele><time>2026-04-12T13:23:26.998Z</time></trkpt><trkpt lat="41.965018060237284" lon="13.277902620484687"><ele>1494.6000000000001</ele><time>2026-04-12T13:23:27.998Z</time></trkpt><trkpt lat="41.96506910756978" lon="13.277808630663017"><ele>1496.8000000000002</ele><time>2026-04-12T13:23:28.998Z</time></trkpt><trkpt lat="41.965138714470946" lon="13.277716310330065"><ele>1499.0</ele><time>2026-04-12T13:23:29.998Z</time></trkpt><trkpt lat="41.965205828058714" lon="13.277649741442"><ele>1499.0</ele><time>2026-04-12T13:23:30.998Z</time></trkpt><trkpt lat="41.96526933974831" lon="13.277591781058032"><ele>1499.0</ele><time>2026-04-12T13:23:31.998Z</time></trkpt><trkpt lat="41.96536724113085" lon="13.27754486633051"><ele>1499.0</ele><time>2026-04-12T13:23:32.998Z</time></trkpt><trkpt lat="41.96544865124894" lon="13.277472818989587"><ele>1499.0</ele><time>2026-04-12T13:23:33.998Z</time></trkpt><trkpt lat="41.96551326039781" lon="13.277357107497672"><ele>1499.0</ele><time>2026-04-12T13:23:34.998Z</time></trkpt><trkpt lat="41.965564464882505" lon="13.277251293094647"><ele>1497.8333333333335</ele><time>2026-04-12T13:23:35.998Z</time></trkpt><trkpt lat="41.965617998608884" lon="13.277160189375694"><ele>1496.6666666666667</ele><time>2026-04-12T13:23:36.998Z</time></trkpt><trkpt lat="41.965670233095814" lon="13.277073089131857"><ele>1495.5</ele><time>2026-04-12T13:23:37.998Z</time></trkpt><trkpt lat="41.9657140011458" lon="13.276992687063913"><ele>1494.3333333333333</ele><time>2026-04-12T13:23:38.998Z</time></trkpt><trkpt lat="41.965776887764065" lon="13.27688862770178"><ele>1493.1666666666665</ele><time>2026-04-12T13:23:40.998Z</time></trkpt><trkpt lat="41.96582061740184" lon="13.27682220775929"><ele>1492.0</ele><time>2026-04-12T13:23:41.998Z</time></trkpt><trkpt lat="41.96589268149785" lon="13.27674971453664"><ele>1492.0</ele><time>2026-04-12T13:23:43.998Z</time></trkpt><trkpt lat="41.965989111267454" lon="13.276738128756042"><ele>1492.0</ele><time>2026-04-12T13:23:45.998Z</time></trkpt><trkpt lat="41.966054809089314" lon="13.27674994071883"><ele>1492.0</ele><time>2026-04-12T13:23:46.998Z</time></trkpt><trkpt lat="41.96611920874995" lon="13.276748625444773"><ele>1492.0</ele><time>2026-04-12T13:23:47.998Z</time></trkpt><trkpt lat="41.966193212079084" lon="13.2766880475341"><ele>1492.0</ele><time>2026-04-12T13:23:48.998Z</time></trkpt><trkpt lat="41.966260905657286" lon="13.276618696420282"><ele>1492.0</ele><time>2026-04-12T13:23:49.998Z</time></trkpt><trkpt lat="41.966319251820025" lon="13.27652625288383"><ele>1487.5</ele><time>2026-04-12T13:23:50.998Z</time></trkpt><trkpt lat="41.966370940116946" lon="13.276415902113532"><ele>1483.0</ele><time>2026-04-12T13:23:51.998Z</time></trkpt><trkpt lat="41.966417965288784" lon="13.276326453441214"><ele>1478.5</ele><time>2026-04-12T13:23:52.998Z</time></trkpt><trkpt lat="41.96647972381297" lon="13.276246732213945"><ele>1474.0</ele><time>2026-04-12T13:23:53.998Z</time></trkpt><trkpt lat="41.966536545459064" lon="13.27617803483979"><ele>1469.5</ele><time>2026-04-12T13:23:54.998Z</time></trkpt><trkpt lat="41.96659702256919" lon="13.276114134665304"><ele>1465.0</ele><time>2026-04-12T13:23:55.998Z</time></trkpt><trkpt lat="41.96666967507545" lon="13.276058292354373"><ele>1462.6666666666665</ele><time>2026-04-12T13:23:56.998Z</time></trkpt><trkpt lat="41.966743023650245" lon="13.275988484646895"><ele>1460.3333333333333</ele><time>2026-04-12T13:23:58Z</time></trkpt><trkpt lat="41.96679884765929" lon="13.275905642822533"><ele>1458.0</ele><time>2026-04-12T13:23:59Z</time></trkpt><trkpt lat="41.96685035448018" lon="13.275816029160463"><ele>1455.6666666666667</ele><time>2026-04-12T13:24:00Z</time></trkpt><trkpt lat="41.96690293064407" lon="13.275726320072769"><ele>1453.3333333333335</ele><time>2026-04-12T13:24:01Z</time></trkpt><trkpt lat="41.966961812479475" lon="13.275648595236559"><ele>1451.0</ele><time>2026-04-12T13:24:02Z</time></trkpt><trkpt lat="41.96701523718299" lon="13.275579818786557"><ele>1451.0</ele><time>2026-04-12T13:24:03Z</time></trkpt><trkpt lat="41.9670793657485" lon="13.275509172088015"><ele>1451.0</ele><time>2026-04-12T13:24:04Z</time></trkpt><trkpt lat="41.96718358284689" lon="13.27541718158318"><ele>1451.0</ele><time>2026-04-12T13:24:06Z</time></trkpt><trkpt lat="41.96727381500688" lon="13.275326274365556"><ele>1451.0</ele><time>2026-04-12T13:24:08Z</time></trkpt><trkpt lat="41.96736132698592" lon="13.275263827152175"><ele>1451.0</ele><time>2026-04-12T13:24:10Z</time></trkpt><trkpt lat="41.967482843609304" lon="13.275219416758699"><ele>1452.6</ele><time>2026-04-12T13:24:12Z</time></trkpt><trkpt lat="41.96759018007082" lon="13.275232697165755"><ele>1454.1999999999998</ele><time>2026-04-12T13:24:14Z</time></trkpt><trkpt lat="41.96774617609178" lon="13.275254318289162"><ele>1455.8000000000002</ele><time>2026-04-12T13:24:16Z</time></trkpt><trkpt lat="41.96781828562347" lon="13.275274993448313"><ele>1457.4</ele><time>2026-04-12T13:24:17Z</time></trkpt><trkpt lat="41.96789809806408" lon="13.275265830561688"><ele>1459.0</ele><time>2026-04-12T13:24:18Z</time></trkpt><trkpt lat="41.967987878714176" lon="13.275299054311425"><ele>1459.0</ele><time>2026-04-12T13:24:19Z</time></trkpt><trkpt lat="41.96806047063699" lon="13.275323416683754"><ele>1459.0</ele><time>2026-04-12T13:24:20Z</time></trkpt><trkpt lat="41.96814475668937" lon="13.275344183371397"><ele>1459.0</ele><time>2026-04-12T13:24:21Z</time></trkpt><trkpt lat="41.9682333970308" lon="13.275357032017338"><ele>1459.0</ele><time>2026-04-12T13:24:22Z</time></trkpt><trkpt lat="41.968320794084896" lon="13.275353965445063"><ele>1459.0</ele><time>2026-04-12T13:24:23Z</time></trkpt><trkpt lat="41.968411697469655" lon="13.275320861204156"><ele>1459.0</ele><time>2026-04-12T13:24:24Z</time></trkpt><trkpt lat="41.968501610340475" lon="13.275284933258932"><ele>1459.6</ele><time>2026-04-12T13:24:25Z</time></trkpt><trkpt lat="41.968581906583594" lon="13.27522633247207"><ele>1460.2</ele><time>2026-04-12T13:24:26Z</time></trkpt><trkpt lat="41.96864531147769" lon="13.275146900037276"><ele>1460.8</ele><time>2026-04-12T13:24:27Z</time></trkpt><trkpt lat="41.96869798043693" lon="13.275032966769077"><ele>1461.3999999999999</ele><time>2026-04-12T13:24:28Z</time></trkpt><trkpt lat="41.96874830393886" lon="13.274892878262039"><ele>1462.0</ele><time>2026-04-12T13:24:29Z</time></trkpt><trkpt lat="41.96881588949424" lon="13.274747763445866"><ele>1462.0</ele><time>2026-04-12T13:24:30Z</time></trkpt><trkpt lat="41.96888908652034" lon="13.274621119881251"><ele>1462.0</ele><time>2026-04-12T13:24:31Z</time></trkpt><trkpt lat="41.96896618838789" lon="13.274481435948195"><ele>1462.0</ele><time>2026-04-12T13:24:32Z</time></trkpt><trkpt lat="41.969020408772295" lon="13.274389775994266"><ele>1462.0</ele><time>2026-04-12T13:24:33Z</time></trkpt><trkpt lat="41.969084068624184" lon="13.274304478532361"><ele>1462.0</ele><time>2026-04-12T13:24:33.999Z</time></trkpt><trkpt lat="41.9691925284332" lon="13.274225854548579"><ele>1464.6</ele><time>2026-04-12T13:24:35.999Z</time></trkpt><trkpt lat="41.96928136443895" lon="13.274212870217626"><ele>1467.1999999999998</ele><time>2026-04-12T13:24:36.999Z</time></trkpt><trkpt lat="41.969355085945395" lon="13.274217127294795"><ele>1469.8</ele><time>2026-04-12T13:24:37.999Z</time></trkpt><trkpt lat="41.96944893162607" lon="13.27419666849769"><ele>1472.4</ele><time>2026-04-12T13:24:38.999Z</time></trkpt><trkpt lat="41.96954976055167" lon="13.27414825610797"><ele>1475.0</ele><time>2026-04-12T13:24:39.999Z</time></trkpt><trkpt lat="41.969646795318816" lon="13.274100748179992"><ele>1475.0</ele><time>2026-04-12T13:24:40.999Z</time></trkpt><trkpt lat="41.96974269586452" lon="13.274049173665427"><ele>1475.0</ele><time>2026-04-12T13:24:41.999Z</time></trkpt><trkpt lat="41.96984527987554" lon="13.27400224486731"><ele>1475.0</ele><time>2026-04-12T13:24:42.999Z</time></trkpt><trkpt lat="41.96993958209928" lon="13.27396546098568"><ele>1475.0</ele><time>2026-04-12T13:24:43.999Z</time></trkpt><trkpt lat="41.97001689528313" lon="13.273919067471041"><ele>1475.0</ele><time>2026-04-12T13:24:44.999Z</time></trkpt><trkpt lat="41.970104824295554" lon="13.273886073144107"><ele>1471.1666666666667</ele><time>2026-04-12T13:24:45.999Z</time></trkpt><trkpt lat="41.97016950672378" lon="13.27384673412095"><ele>1467.3333333333335</ele><time>2026-04-12T13:24:46.999Z</time></trkpt><trkpt lat="41.970234208232654" lon="13.27381098606688"><ele>1463.5</ele><time>2026-04-12T13:24:47.999Z</time></trkpt><trkpt lat="41.97035511298494" lon="13.273734477602824"><ele>1459.6666666666667</ele><time>2026-04-12T13:24:49.999Z</time></trkpt><trkpt lat="41.9704120784758" lon="13.27369096759724"><ele>1455.8333333333333</ele><time>2026-04-12T13:24:50.999Z</time></trkpt><trkpt lat="41.97047732894411" lon="13.27365144805307"><ele>1452.0</ele><time>2026-04-12T13:24:51.999Z</time></trkpt><trkpt lat="41.97056881899621" lon="13.273560270008886"><ele>1452.0</ele><time>2026-04-12T13:24:53.999Z</time></trkpt><trkpt lat="41.97063954116162" lon="13.273491152022094"><ele>1452.0</ele><time>2026-04-12T13:24:55.999Z</time></trkpt><trkpt lat="41.97071789292396" lon="13.273443231237708"><ele>1452.0</ele><time>2026-04-12T13:24:58.999Z</time></trkpt><trkpt lat="41.97078397751625" lon="13.273376177890333"><ele>1452.0</ele><time>2026-04-12T13:25:08.999Z</time></trkpt><trkpt lat="41.970826328564186" lon="13.273302246912081"><ele>1452.0</ele><time>2026-04-12T13:25:10.999Z</time></trkpt><trkpt lat="41.970910105702295" lon="13.273256222138645"><ele>1452.0</ele><time>2026-04-12T13:25:13.999Z</time></trkpt><trkpt lat="41.970981501355894" lon="13.273249201661985"><ele>1452.7142857142856</ele><time>2026-04-12T13:25:15.999Z</time></trkpt><trkpt lat="41.97104510192366" lon="13.273228966202302"><ele>1453.4285714285713</ele><time>2026-04-12T13:25:17.999Z</time></trkpt><trkpt lat="41.971119832159935" lon="13.273250689829263"><ele>1454.142857142857</ele><time>2026-04-12T13:25:20.998Z</time></trkpt><trkpt lat="41.97118122511646" lon="13.273274321650444"><ele>1454.8571428571427</ele><time>2026-04-12T13:25:22.998Z</time></trkpt><trkpt lat="41.9712376282856" lon="13.27333450300254"><ele>1455.5714285714287</ele><time>2026-04-12T13:25:24.998Z</time></trkpt><trkpt lat="41.97131103537204" lon="13.273382724838365"><ele>1456.2857142857142</ele><time>2026-04-12T13:25:26.998Z</time></trkpt><trkpt lat="41.97139620793623" lon="13.273376436932773"><ele>1457.0</ele><time>2026-04-12T13:25:28.998Z</time></trkpt><trkpt lat="41.97147646628507" lon="13.273306088327134"><ele>1457.0</ele><time>2026-04-12T13:25:30.998Z</time></trkpt><trkpt lat="41.971525291484916" lon="13.273164597832436"><ele>1457.0</ele><time>2026-04-12T13:25:32.998Z</time></trkpt><trkpt lat="41.97155444741648" lon="13.273008314942153"><ele>1457.0</ele><time>2026-04-12T13:25:34.998Z</time></trkpt><trkpt lat="41.971551788416704" lon="13.272921005102807"><ele>1457.0</ele><time>2026-04-12T13:25:35.998Z</time></trkpt><trkpt lat="41.97153445207239" lon="13.272834334308877"><ele>1457.0</ele><time>2026-04-12T13:25:36.998Z</time></trkpt><trkpt lat="41.971488915038506" lon="13.27276449216157"><ele>1457.0</ele><time>2026-04-12T13:25:37.998Z</time></trkpt><trkpt lat="41.97142667576579" lon="13.272675696692652"><ele>1457.1666666666667</ele><time>2026-04-12T13:25:38.998Z</time></trkpt><trkpt lat="41.97137470939821" lon="13.272601350413947"><ele>1457.3333333333335</ele><time>2026-04-12T13:25:39.998Z</time></trkpt><trkpt lat="41.971327259013705" lon="13.272522114168682"><ele>1457.5</ele><time>2026-04-12T13:25:40.998Z</time></trkpt><trkpt lat="41.97127884258348" lon="13.272429365851043"><ele>1457.6666666666667</ele><time>2026-04-12T13:25:41.998Z</time></trkpt><trkpt lat="41.971230396418804" lon="13.272341251565402"><ele>1457.8333333333333</ele><time>2026-04-12T13:25:42.998Z</time></trkpt><trkpt lat="41.97119429158188" lon="13.272248841611491"><ele>1458.0</ele><time>2026-04-12T13:25:43.998Z</time></trkpt><trkpt lat="41.971164292907794" lon="13.272170153108345"><ele>1458.0</ele><time>2026-04-12T13:25:44.998Z</time></trkpt><trkpt lat="41.97112116353515" lon="13.272072103234894"><ele>1458.0</ele><time>2026-04-12T13:25:45.998Z</time></trkpt><trkpt lat="41.97109274118457" lon="13.271981873180058"><ele>1458.0</ele><time>2026-04-12T13:25:46.998Z</time></trkpt><trkpt lat="41.971061946518134" lon="13.271856045176403"><ele>1458.0</ele><time>2026-04-12T13:25:47.998Z</time></trkpt><trkpt lat="41.97103194921856" lon="13.271712102277926"><ele>1458.0</ele><time>2026-04-12T13:25:48.998Z</time></trkpt><trkpt lat="41.97098790666307" lon="13.271579148417654"><ele>1458.0</ele><time>2026-04-12T13:25:49.998Z</time></trkpt><trkpt lat="41.970968397093415" lon="13.271457393785338"><ele>1458.0</ele><time>2026-04-12T13:25:50.998Z</time></trkpt><trkpt lat="41.97093554101264" lon="13.271351556236034"><ele>1458.0</ele><time>2026-04-12T13:25:51.998Z</time></trkpt><trkpt lat="41.97091045126667" lon="13.271261531252463"><ele>1458.0</ele><time>2026-04-12T13:25:52.998Z</time></trkpt><trkpt lat="41.970892636086354" lon="13.271107849381915"><ele>1458.0</ele><time>2026-04-12T13:25:54.998Z</time></trkpt><trkpt lat="41.9709045974767" lon="13.271018679544948"><ele>1458.0</ele><time>2026-04-12T13:25:55.998Z</time></trkpt><trkpt lat="41.97093298587531" lon="13.270934764954282"><ele>1456.4285714285716</ele><time>2026-04-12T13:25:56.998Z</time></trkpt><trkpt lat="41.970971523230546" lon="13.27084614029127"><ele>1454.8571428571427</ele><time>2026-04-12T13:25:57.998Z</time></trkpt><trkpt lat="41.971018530317075" lon="13.27077147716619"><ele>1453.2857142857142</ele><time>2026-04-12T13:25:58.998Z</time></trkpt><trkpt lat="41.97105907872542" lon="13.270698624709835"><ele>1451.7142857142858</ele><time>2026-04-12T13:25:59.998Z</time></trkpt><trkpt lat="41.971105548863086" lon="13.270618380672056"><ele>1450.1428571428573</ele><time>2026-04-12T13:26:00.998Z</time></trkpt><trkpt lat="41.971157009741106" lon="13.27053556158075"><ele>1448.5714285714284</ele><time>2026-04-12T13:26:01.998Z</time></trkpt><trkpt lat="41.97120329805078" lon="13.270452983270735"><ele>1447.0</ele><time>2026-04-12T13:26:02.998Z</time></trkpt><trkpt lat="41.97125214900736" lon="13.270364981617439"><ele>1443.3999999999999</ele><time>2026-04-12T13:26:04Z</time></trkpt><trkpt lat="41.97128920084375" lon="13.270230283918824"><ele>1439.8</ele><time>2026-04-12T13:26:05Z</time></trkpt><trkpt lat="41.97133962002693" lon="13.270125115620038"><ele>1436.2</ele><time>2026-04-12T13:26:06Z</time></trkpt><trkpt lat="41.97138500545351" lon="13.27003522294364"><ele>1432.6</ele><time>2026-04-12T13:26:07Z</time></trkpt><trkpt lat="41.971435951025505" lon="13.269939834661383"><ele>1429.0</ele><time>2026-04-12T13:26:08Z</time></trkpt><trkpt lat="41.97148867259031" lon="13.26983979066714"><ele>1431.3333333333333</ele><time>2026-04-12T13:26:09Z</time></trkpt><trkpt lat="41.97153207159477" lon="13.269736118318946"><ele>1433.6666666666665</ele><time>2026-04-12T13:26:10Z</time></trkpt><trkpt lat="41.97157736884494" lon="13.269656708806233"><ele>1436.0</ele><time>2026-04-12T13:26:11Z</time></trkpt><trkpt lat="41.97162217974828" lon="13.26957279004705"><ele>1438.3333333333333</ele><time>2026-04-12T13:26:12Z</time></trkpt><trkpt lat="41.97166521806646" lon="13.269496504490268"><ele>1440.6666666666667</ele><time>2026-04-12T13:26:13Z</time></trkpt><trkpt lat="41.97172115466042" lon="13.269417211757537"><ele>1443.0</ele><time>2026-04-12T13:26:14Z</time></trkpt><trkpt lat="41.97177783828466" lon="13.269321618384053"><ele>1443.0</ele><time>2026-04-12T13:26:15Z</time></trkpt><trkpt lat="41.97182290880718" lon="13.26922234062688"><ele>1443.0</ele><time>2026-04-12T13:26:16Z</time></trkpt><trkpt lat="41.97185152196633" lon="13.269102086453868"><ele>1443.0</ele><time>2026-04-12T13:26:17Z</time></trkpt><trkpt lat="41.971872849574744" lon="13.268983817202846"><ele>1443.0</ele><time>2026-04-12T13:26:18Z</time></trkpt><trkpt lat="41.971892319575915" lon="13.268868403091467"><ele>1443.0</ele><time>2026-04-12T13:26:19Z</time></trkpt><trkpt lat="41.971900822283494" lon="13.268767924438794"><ele>1443.0</ele><time>2026-04-12T13:26:20Z</time></trkpt><trkpt lat="41.971907824635885" lon="13.268657273536267"><ele>1439.4</ele><time>2026-04-12T13:26:21Z</time></trkpt><trkpt lat="41.971937313740824" lon="13.268541683828474"><ele>1435.8000000000002</ele><time>2026-04-12T13:26:22Z</time></trkpt><trkpt lat="41.971973893072125" lon="13.268427468944717"><ele>1432.2</ele><time>2026-04-12T13:26:23Z</time></trkpt><trkpt lat="41.97202219794598" lon="13.268323931018701"><ele>1428.6</ele><time>2026-04-12T13:26:24Z</time></trkpt><trkpt lat="41.97206194764426" lon="13.268218345727393"><ele>1425.0</ele><time>2026-04-12T13:26:25Z</time></trkpt><trkpt lat="41.97211250193628" lon="13.268102963301668"><ele>1421.3333333333333</ele><time>2026-04-12T13:26:26Z</time></trkpt><trkpt lat="41.972176300928815" lon="13.268012720193866"><ele>1417.6666666666667</ele><time>2026-04-12T13:26:27Z</time></trkpt><trkpt lat="41.97224827033337" lon="13.267944381023746"><ele>1414.0</ele><time>2026-04-12T13:26:28Z</time></trkpt><trkpt lat="41.972316351055476" lon="13.267874448482903"><ele>1410.3333333333335</ele><time>2026-04-12T13:26:29Z</time></trkpt><trkpt lat="41.97239566291338" lon="13.2678148854987"><ele>1406.6666666666667</ele><time>2026-04-12T13:26:30Z</time></trkpt><trkpt lat="41.97245825316698" lon="13.26774008230258"><ele>1403.0</ele><time>2026-04-12T13:26:31Z</time></trkpt><trkpt lat="41.972515979800036" lon="13.267651127438565"><ele>1403.0</ele><time>2026-04-12T13:26:33Z</time></trkpt><trkpt lat="41.972559511940915" lon="13.267549627218568"><ele>1403.0</ele><time>2026-04-12T13:26:35Z</time></trkpt><trkpt lat="41.9725429169506" lon="13.267435600972913"><ele>1403.0</ele><time>2026-04-12T13:26:37.999Z</time></trkpt><trkpt lat="41.97245093660819" lon="13.26741124062996"><ele>1403.0</ele><time>2026-04-12T13:26:39.999Z</time></trkpt><trkpt lat="41.9723454992274" lon="13.267503308011445"><ele>1403.0</ele><time>2026-04-12T13:26:41.999Z</time></trkpt><trkpt lat="41.97228379791628" lon="13.267579330611529"><ele>1403.0</ele><time>2026-04-12T13:26:42.999Z</time></trkpt><trkpt lat="41.9722219831474" lon="13.267633860770085"><ele>1403.0</ele><time>2026-04-12T13:26:43.999Z</time></trkpt><trkpt lat="41.97215324119771" lon="13.267679489395476"><ele>1403.0</ele><time>2026-04-12T13:26:44.999Z</time></trkpt><trkpt lat="41.972093965797235" lon="13.267727055285953"><ele>1403.0</ele><time>2026-04-12T13:26:45.999Z</time></trkpt><trkpt lat="41.972010343439734" lon="13.267778586386974"><ele>1403.0</ele><time>2026-04-12T13:26:46.999Z</time></trkpt><trkpt lat="41.97192359919149" lon="13.26784015945752"><ele>1403.0</ele><time>2026-04-12T13:26:47.999Z</time></trkpt><trkpt lat="41.971833301631136" lon="13.26788588522301"><ele>1403.0</ele><time>2026-04-12T13:26:48.999Z</time></trkpt><trkpt lat="41.9717382981264" lon="13.267931948148293"><ele>1403.0</ele><time>2026-04-12T13:26:49.999Z</time></trkpt><trkpt lat="41.97166538118872" lon="13.267925198605353"><ele>1403.0</ele><time>2026-04-12T13:26:50.999Z</time></trkpt><trkpt lat="41.97160219686766" lon="13.26792518544313"><ele>1403.0</ele><time>2026-04-12T13:26:51.999Z</time></trkpt><trkpt lat="41.971537315813976" lon="13.267925185439815"><ele>1403.0</ele><time>2026-04-12T13:26:52.999Z</time></trkpt><trkpt lat="41.971480988269654" lon="13.267842375212549"><ele>1403.0</ele><time>2026-04-12T13:26:56.999Z</time></trkpt><trkpt lat="41.971367326395345" lon="13.267728255335724"><ele>1399.5</ele><time>2026-04-12T13:26:58.999Z</time></trkpt><trkpt lat="41.97130402324587" lon="13.267661105799354"><ele>1396.0</ele><time>2026-04-12T13:26:59.999Z</time></trkpt><trkpt lat="41.97123282758685" lon="13.267597020519396"><ele>1392.5</ele><time>2026-04-12T13:27:00.999Z</time></trkpt><trkpt lat="41.97117431338621" lon="13.26753463917553"><ele>1389.0</ele><time>2026-04-12T13:27:01.999Z</time></trkpt><trkpt lat="41.97109391950271" lon="13.267420401877468"><ele>1385.5</ele><time>2026-04-12T13:27:03.999Z</time></trkpt><trkpt lat="41.97103031964567" lon="13.267358718608934"><ele>1382.0</ele><time>2026-04-12T13:27:05.999Z</time></trkpt><trkpt lat="41.97099490663882" lon="13.26728337772426"><ele>1380.0</ele><time>2026-04-12T13:27:07.999Z</time></trkpt><trkpt lat="41.971032855313965" lon="13.266986204735769"><ele>1378.0</ele><time>2026-04-12T13:27:09.999Z</time></trkpt><trkpt lat="41.971026683099275" lon="13.266877052388686"><ele>1376.0</ele><time>2026-04-12T13:27:10.999Z</time></trkpt><trkpt lat="41.971033699888324" lon="13.26678371851274"><ele>1374.0</ele><time>2026-04-12T13:27:11.999Z</time></trkpt><trkpt lat="41.971072355243564" lon="13.2667128364203"><ele>1372.0</ele><time>2026-04-12T13:27:12.999Z</time></trkpt><trkpt lat="41.971125668750275" lon="13.266647587761682"><ele>1372.0</ele><time>2026-04-12T13:27:13.999Z</time></trkpt><trkpt lat="41.97119269203775" lon="13.266544556454265"><ele>1372.0</ele><time>2026-04-12T13:27:14.999Z</time></trkpt><trkpt lat="41.97123876517831" lon="13.266444771987384"><ele>1372.0</ele><time>2026-04-12T13:27:15.999Z</time></trkpt><trkpt lat="41.97127967460935" lon="13.266317919488714"><ele>1372.0</ele><time>2026-04-12T13:27:16.999Z</time></trkpt><trkpt lat="41.971305914168795" lon="13.266175940863882"><ele>1372.0</ele><time>2026-04-12T13:27:17.999Z</time></trkpt><trkpt lat="41.971334796013984" lon="13.266028359913374"><ele>1369.75</ele><time>2026-04-12T13:27:18.999Z</time></trkpt><trkpt lat="41.971361632074945" lon="13.265865235841352"><ele>1367.5</ele><time>2026-04-12T13:27:19.999Z</time></trkpt><trkpt lat="41.971391700427176" lon="13.265703000382501"><ele>1365.25</ele><time>2026-04-12T13:27:20.999Z</time></trkpt><trkpt lat="41.97141773537618" lon="13.265557062578447"><ele>1363.0</ele><time>2026-04-12T13:27:21.999Z</time></trkpt><trkpt lat="41.97144446767699" lon="13.265407485272243"><ele>1361.2</ele><time>2026-04-12T13:27:22.999Z</time></trkpt><trkpt lat="41.97147601966199" lon="13.265255492079401"><ele>1359.4</ele><time>2026-04-12T13:27:23.998Z</time></trkpt><trkpt lat="41.971509389939946" lon="13.26513011427331"><ele>1357.6000000000001</ele><time>2026-04-12T13:27:24.998Z</time></trkpt><trkpt lat="41.97155088069325" lon="13.265022024733568"><ele>1355.8000000000002</ele><time>2026-04-12T13:27:25.998Z</time></trkpt><trkpt lat="41.9716009132803" lon="13.264923591561027"><ele>1354.0</ele><time>2026-04-12T13:27:26.998Z</time></trkpt><trkpt lat="41.971650997378624" lon="13.26484484010855"><ele>1353.75</ele><time>2026-04-12T13:27:27.998Z</time></trkpt><trkpt lat="41.97172287606248" lon="13.264740751070116"><ele>1353.5</ele><time>2026-04-12T13:27:28.998Z</time></trkpt><trkpt lat="41.971801207388346" lon="13.264631591561596"><ele>1353.25</ele><time>2026-04-12T13:27:29.998Z</time></trkpt><trkpt lat="41.97186879322952" lon="13.264505068961583"><ele>1353.0</ele><time>2026-04-12T13:27:30.998Z</time></trkpt><trkpt lat="41.971956978219055" lon="13.264384087017467"><ele>1353.0</ele><time>2026-04-12T13:27:31.998Z</time></trkpt><trkpt lat="41.97205479460719" lon="13.264268270271252"><ele>1353.0</ele><time>2026-04-12T13:27:32.998Z</time></trkpt><trkpt lat="41.97215727352511" lon="13.264153167693811"><ele>1353.0</ele><time>2026-04-12T13:27:33.998Z</time></trkpt><trkpt lat="41.97226032741385" lon="13.264041724678938"><ele>1353.0</ele><time>2026-04-12T13:27:34.998Z</time></trkpt><trkpt lat="41.97236243347338" lon="13.263926356040182"><ele>1352.75</ele><time>2026-04-12T13:27:35.998Z</time></trkpt><trkpt lat="41.97246778767955" lon="13.263822696060405"><ele>1352.5</ele><time>2026-04-12T13:27:36.998Z</time></trkpt><trkpt lat="41.97258752640724" lon="13.263727896492773"><ele>1352.25</ele><time>2026-04-12T13:27:37.998Z</time></trkpt><trkpt lat="41.97270953468315" lon="13.263642925390533"><ele>1352.0</ele><time>2026-04-12T13:27:38.998Z</time></trkpt><trkpt lat="41.97282120442574" lon="13.263559607527283"><ele>1351.8333333333335</ele><time>2026-04-12T13:27:39.998Z</time></trkpt><trkpt lat="41.97290653570632" lon="13.26347330986259"><ele>1351.6666666666667</ele><time>2026-04-12T13:27:40.998Z</time></trkpt><trkpt lat="41.97297377070386" lon="13.263390347776031"><ele>1351.5</ele><time>2026-04-12T13:27:41.998Z</time></trkpt><trkpt lat="41.97301216720548" lon="13.263305127666495"><ele>1351.3333333333333</ele><time>2026-04-12T13:27:42.998Z</time></trkpt><trkpt lat="41.97306109701127" lon="13.263236756795639"><ele>1351.1666666666665</ele><time>2026-04-12T13:27:43.998Z</time></trkpt><trkpt lat="41.973141162545126" lon="13.263150566734437"><ele>1351.0</ele><time>2026-04-12T13:27:44.998Z</time></trkpt><trkpt lat="41.97321310517656" lon="13.26306125529724"><ele>1351.0</ele><time>2026-04-12T13:27:45.998Z</time></trkpt><trkpt lat="41.973278039677716" lon="13.262967259894351"><ele>1351.0</ele><time>2026-04-12T13:27:46.998Z</time></trkpt><trkpt lat="41.973349943820814" lon="13.262854329067874"><ele>1351.0</ele><time>2026-04-12T13:27:47.998Z</time></trkpt><trkpt lat="41.97343009040798" lon="13.262722676234715"><ele>1351.0</ele><time>2026-04-12T13:27:48.998Z</time></trkpt><trkpt lat="41.97350230080876" lon="13.262599619558015"><ele>1351.0</ele><time>2026-04-12T13:27:49.998Z</time></trkpt><trkpt lat="41.97357260913106" lon="13.262475891263747"><ele>1350.6</ele><time>2026-04-12T13:27:50.998Z</time></trkpt><trkpt lat="41.97363320501042" lon="13.26235338228738"><ele>1350.1999999999998</ele><time>2026-04-12T13:27:51.998Z</time></trkpt><trkpt lat="41.97367714581737" lon="13.262232084231783"><ele>1349.8000000000002</ele><time>2026-04-12T13:27:52.998Z</time></trkpt><trkpt lat="41.973717539347284" lon="13.262097505666334"><ele>1349.4</ele><time>2026-04-12T13:27:53.998Z</time></trkpt><trkpt lat="41.97376307057998" lon="13.261975344388368"><ele>1349.0</ele><time>2026-04-12T13:27:54.998Z</time></trkpt><trkpt lat="41.973824452647484" lon="13.261855950118932"><ele>1349.0</ele><time>2026-04-12T13:27:55.998Z</time></trkpt><trkpt lat="41.97389127783376" lon="13.261744626419732"><ele>1349.0</ele><time>2026-04-12T13:27:56.998Z</time></trkpt><trkpt lat="41.97395185298805" lon="13.261645892142743"><ele>1349.0</ele><time>2026-04-12T13:27:57.998Z</time></trkpt><trkpt lat="41.97402215016507" lon="13.261541171050261"><ele>1349.0</ele><time>2026-04-12T13:27:58.998Z</time></trkpt><trkpt lat="41.97409914914806" lon="13.261436694750559"><ele>1349.0</ele><time>2026-04-12T13:27:59.998Z</time></trkpt><trkpt lat="41.974184280933194" lon="13.261324083061602"><ele>1348.8000000000002</ele><time>2026-04-12T13:28:00.998Z</time></trkpt><trkpt lat="41.97425983752632" lon="13.261215156207655"><ele>1348.6000000000001</ele><time>2026-04-12T13:28:01.998Z</time></trkpt><trkpt lat="41.97432737872443" lon="13.26111881434891"><ele>1348.4</ele><time>2026-04-12T13:28:02.998Z</time></trkpt><trkpt lat="41.974397566098965" lon="13.261003148364896"><ele>1348.2</ele><time>2026-04-12T13:28:03.998Z</time></trkpt><trkpt lat="41.97446424143537" lon="13.260872756037736"><ele>1348.0</ele><time>2026-04-12T13:28:04.998Z</time></trkpt><trkpt lat="41.974539142887075" lon="13.260728985250621"><ele>1347.5</ele><time>2026-04-12T13:28:05.998Z</time></trkpt><trkpt lat="41.97460485778216" lon="13.260593380632718"><ele>1347.0</ele><time>2026-04-12T13:28:06.998Z</time></trkpt><trkpt lat="41.97468156854265" lon="13.260482035042951"><ele>1346.5</ele><time>2026-04-12T13:28:07.998Z</time></trkpt><trkpt lat="41.97477497727425" lon="13.260365333764554"><ele>1346.0</ele><time>2026-04-12T13:28:08.998Z</time></trkpt><trkpt lat="41.97487661679959" lon="13.260249884559945"><ele>1346.0</ele><time>2026-04-12T13:28:10Z</time></trkpt><trkpt lat="41.97497945908108" lon="13.26013498308852"><ele>1346.0</ele><time>2026-04-12T13:28:11Z</time></trkpt><trkpt lat="41.97506216193267" lon="13.260042581848072"><ele>1346.0</ele><time>2026-04-12T13:28:12Z</time></trkpt><trkpt lat="41.97510890940557" lon="13.259960731852225"><ele>1346.0</ele><time>2026-04-12T13:28:13Z</time></trkpt><trkpt lat="41.97513957514624" lon="13.25986807716967"><ele>1346.0</ele><time>2026-04-12T13:28:14Z</time></trkpt><trkpt lat="41.975160712496006" lon="13.259757840356002"><ele>1346.2857142857144</ele><time>2026-04-12T13:28:15Z</time></trkpt><trkpt lat="41.97517923782567" lon="13.259667299947878"><ele>1346.5714285714284</ele><time>2026-04-12T13:28:16Z</time></trkpt><trkpt lat="41.97519839105984" lon="13.259583760176474"><ele>1346.857142857143</ele><time>2026-04-12T13:28:17Z</time></trkpt><trkpt lat="41.975230642603876" lon="13.259433633878372"><ele>1347.1428571428573</ele><time>2026-04-12T13:28:19Z</time></trkpt><trkpt lat="41.9752395574198" lon="13.259343527702569"><ele>1347.4285714285716</ele><time>2026-04-12T13:28:20Z</time></trkpt><trkpt lat="41.97524687260582" lon="13.259257471577646"><ele>1347.7142857142858</ele><time>2026-04-12T13:28:21Z</time></trkpt><trkpt lat="41.97524712421535" lon="13.259171418224525"><ele>1348.0</ele><time>2026-04-12T13:28:22Z</time></trkpt><trkpt lat="41.975255560583925" lon="13.259085361539306"><ele>1348.0</ele><time>2026-04-12T13:28:23Z</time></trkpt><trkpt lat="41.975279919749816" lon="13.258989260619622"><ele>1348.0</ele><time>2026-04-12T13:28:24Z</time></trkpt><trkpt lat="41.97531192248167" lon="13.258902246266516"><ele>1348.0</ele><time>2026-04-12T13:28:25Z</time></trkpt><trkpt lat="41.975353135879196" lon="13.258802583633312"><ele>1348.0</ele><time>2026-04-12T13:28:26Z</time></trkpt><trkpt lat="41.97539922899373" lon="13.25869397643171"><ele>1348.0</ele><time>2026-04-12T13:28:27Z</time></trkpt><trkpt lat="41.97544625813285" lon="13.25857261206283"><ele>1348.0</ele><time>2026-04-12T13:28:28Z</time></trkpt><trkpt lat="41.9754908075974" lon="13.258437484867892"><ele>1345.75</ele><time>2026-04-12T13:28:29Z</time></trkpt><trkpt lat="41.97553715610654" lon="13.25829795294179"><ele>1343.5</ele><time>2026-04-12T13:28:30Z</time></trkpt><trkpt lat="41.975585529579014" lon="13.258161417705514"><ele>1341.25</ele><time>2026-04-12T13:28:31Z</time></trkpt><trkpt lat="41.97563999451891" lon="13.258015081151235"><ele>1339.0</ele><time>2026-04-12T13:28:32Z</time></trkpt><trkpt lat="41.97568853769085" lon="13.25787297622337"><ele>1338.4</ele><time>2026-04-12T13:28:33Z</time></trkpt><trkpt lat="41.975731448070604" lon="13.257737378475811"><ele>1337.8000000000002</ele><time>2026-04-12T13:28:34Z</time></trkpt><trkpt lat="41.975780950609966" lon="13.257588844412108"><ele>1337.1999999999998</ele><time>2026-04-12T13:28:35Z</time></trkpt><trkpt lat="41.97583447418312" lon="13.257447337959372"><ele>1336.6</ele><time>2026-04-12T13:28:36Z</time></trkpt><trkpt lat="41.97588020966694" lon="13.25733667613746"><ele>1336.0</ele><time>2026-04-12T13:28:37Z</time></trkpt><trkpt lat="41.97592507229408" lon="13.25722466821654"><ele>1336.0</ele><time>2026-04-12T13:28:37.999Z</time></trkpt><trkpt lat="41.97597393512819" lon="13.257123015827053"><ele>1336.0</ele><time>2026-04-12T13:28:38.999Z</time></trkpt><trkpt lat="41.976042294019386" lon="13.257020683199494"><ele>1336.0</ele><time>2026-04-12T13:28:39.999Z</time></trkpt><trkpt lat="41.97610014580815" lon="13.256934355210229"><ele>1336.0</ele><time>2026-04-12T13:28:40.999Z</time></trkpt><trkpt lat="41.97614931005976" lon="13.256837378686699"><ele>1336.0</ele><time>2026-04-12T13:28:41.999Z</time></trkpt><trkpt lat="41.97618042611618" lon="13.256746575085327"><ele>1336.0</ele><time>2026-04-12T13:28:42.999Z</time></trkpt><trkpt lat="41.97620826000195" lon="13.256653107899488"><ele>1336.0</ele><time>2026-04-12T13:28:43.999Z</time></trkpt><trkpt lat="41.97623597102539" lon="13.256567853176552"><ele>1336.0</ele><time>2026-04-12T13:28:44.999Z</time></trkpt><trkpt lat="41.97626764109547" lon="13.256442815114658"><ele>1336.0</ele><time>2026-04-12T13:28:46.999Z</time></trkpt><trkpt lat="41.97623541076353" lon="13.256320668214048"><ele>1336.0</ele><time>2026-04-12T13:28:48.999Z</time></trkpt><trkpt lat="41.97619126122128" lon="13.256160893506909"><ele>1336.0</ele><time>2026-04-12T13:28:50.999Z</time></trkpt><trkpt lat="41.97616372184138" lon="13.256038616778866"><ele>1336.1999999999998</ele><time>2026-04-12T13:28:51.999Z</time></trkpt><trkpt lat="41.976136850632514" lon="13.255910293736653"><ele>1336.3999999999999</ele><time>2026-04-12T13:28:52.999Z</time></trkpt><trkpt lat="41.97610586971532" lon="13.255777505154347"><ele>1336.6</ele><time>2026-04-12T13:28:53.999Z</time></trkpt><trkpt lat="41.97606711380906" lon="13.25563650805065"><ele>1336.8</ele><time>2026-04-12T13:28:54.999Z</time></trkpt><trkpt lat="41.976021350475236" lon="13.255480964743526"><ele>1337.0</ele><time>2026-04-12T13:28:55.999Z</time></trkpt><trkpt lat="41.97598455716728" lon="13.25533333618803"><ele>1336.25</ele><time>2026-04-12T13:28:56.999Z</time></trkpt><trkpt lat="41.97595905883019" lon="13.255178030028674"><ele>1335.5</ele><time>2026-04-12T13:28:57.999Z</time></trkpt><trkpt lat="41.97593545509211" lon="13.255023641147183"><ele>1334.75</ele><time>2026-04-12T13:28:58.999Z</time></trkpt><trkpt lat="41.975911210367286" lon="13.25487005090736"><ele>1334.0</ele><time>2026-04-12T13:28:59.999Z</time></trkpt><trkpt lat="41.97588616621797" lon="13.254742558133472"><ele>1332.6</ele><time>2026-04-12T13:29:00.999Z</time></trkpt><trkpt lat="41.97586679636939" lon="13.254613987293116"><ele>1331.2</ele><time>2026-04-12T13:29:01.999Z</time></trkpt><trkpt lat="41.97585596035604" lon="13.254487640583983"><ele>1329.8</ele><time>2026-04-12T13:29:02.999Z</time></trkpt><trkpt lat="41.975854765753894" lon="13.254342844858119"><ele>1328.3999999999999</ele><time>2026-04-12T13:29:03.999Z</time></trkpt><trkpt lat="41.97587367571473" lon="13.254189634975772"><ele>1327.0</ele><time>2026-04-12T13:29:04.999Z</time></trkpt><trkpt lat="41.9759066742329" lon="13.254034169474382"><ele>1326.75</ele><time>2026-04-12T13:29:05.999Z</time></trkpt><trkpt lat="41.97595611195857" lon="13.253881452547095"><ele>1326.5</ele><time>2026-04-12T13:29:06.999Z</time></trkpt><trkpt lat="41.97602043942432" lon="13.253736583242175"><ele>1326.25</ele><time>2026-04-12T13:29:07.999Z</time></trkpt><trkpt lat="41.97609200413542" lon="13.253588931910143"><ele>1326.0</ele><time>2026-04-12T13:29:08.999Z</time></trkpt><trkpt lat="41.97614692594005" lon="13.253452942394492"><ele>1326.0</ele><time>2026-04-12T13:29:09.999Z</time></trkpt><trkpt lat="41.976184970606575" lon="13.253303866752722"><ele>1326.0</ele><time>2026-04-12T13:29:10.999Z</time></trkpt><trkpt lat="41.976205406464196" lon="13.253151392437305"><ele>1326.0</ele><time>2026-04-12T13:29:11.999Z</time></trkpt><trkpt lat="41.97620851841505" lon="13.252986813020986"><ele>1326.0</ele><time>2026-04-12T13:29:12.999Z</time></trkpt><trkpt lat="41.97620611817739" lon="13.252814345558521"><ele>1325.75</ele><time>2026-04-12T13:29:13.999Z</time></trkpt><trkpt lat="41.976207731389756" lon="13.252630002280934"><ele>1325.5</ele><time>2026-04-12T13:29:14.999Z</time></trkpt><trkpt lat="41.9762146373081" lon="13.252441036437375"><ele>1325.25</ele><time>2026-04-12T13:29:15.999Z</time></trkpt><trkpt lat="41.97621067810693" lon="13.252259110156993"><ele>1325.0</ele><time>2026-04-12T13:29:16.999Z</time></trkpt><trkpt lat="41.97619133348681" lon="13.25206471507935"><ele>1324.8</ele><time>2026-04-12T13:29:17.999Z</time></trkpt><trkpt lat="41.97616337640181" lon="13.251898515613583"><ele>1324.6</ele><time>2026-04-12T13:29:18.999Z</time></trkpt><trkpt lat="41.976127222194464" lon="13.2517567615338"><ele>1324.4</ele><time>2026-04-12T13:29:19.999Z</time></trkpt><trkpt lat="41.976089002978426" lon="13.251633762413475"><ele>1324.2</ele><time>2026-04-12T13:29:20.999Z</time></trkpt><trkpt lat="41.97606023064835" lon="13.251523702746612"><ele>1324.0</ele><time>2026-04-12T13:29:21.999Z</time></trkpt><trkpt lat="41.976052821546666" lon="13.251423560285087"><ele>1324.0</ele><time>2026-04-12T13:29:22.998Z</time></trkpt><trkpt lat="41.976060524428725" lon="13.251338586588124"><ele>1324.0</ele><time>2026-04-12T13:29:23.998Z</time></trkpt><trkpt lat="41.97609275330794" lon="13.251244686501497"><ele>1324.0</ele><time>2026-04-12T13:29:24.998Z</time></trkpt><trkpt lat="41.9761529246054" lon="13.251159035679667"><ele>1324.0</ele><time>2026-04-12T13:29:25.998Z</time></trkpt><trkpt lat="41.97623353964544" lon="13.251080508488466"><ele>1324.0</ele><time>2026-04-12T13:29:26.998Z</time></trkpt><trkpt lat="41.976323145517476" lon="13.251009764154057"><ele>1324.0</ele><time>2026-04-12T13:29:27.998Z</time></trkpt><trkpt lat="41.97641065096587" lon="13.250959139896414"><ele>1324.0</ele><time>2026-04-12T13:29:28.998Z</time></trkpt><trkpt lat="41.976510389086364" lon="13.250886960785424"><ele>1324.0</ele><time>2026-04-12T13:29:29.998Z</time></trkpt><trkpt lat="41.97662687147741" lon="13.25080101204782"><ele>1324.0</ele><time>2026-04-12T13:29:30.998Z</time></trkpt><trkpt lat="41.976749848048726" lon="13.25072285563765"><ele>1324.0</ele><time>2026-04-12T13:29:31.998Z</time></trkpt><trkpt lat="41.976877871773716" lon="13.250631867210195"><ele>1324.5</ele><time>2026-04-12T13:29:32.998Z</time></trkpt><trkpt lat="41.977014628374825" lon="13.250537169571336"><ele>1325.0</ele><time>2026-04-12T13:29:33.998Z</time></trkpt><trkpt lat="41.977135611709414" lon="13.250457599297121"><ele>1325.5</ele><time>2026-04-12T13:29:34.998Z</time></trkpt><trkpt lat="41.97723133438351" lon="13.250403142188972"><ele>1326.0</ele><time>2026-04-12T13:29:35.998Z</time></trkpt><trkpt lat="41.97733248573646" lon="13.250344596375525"><ele>1326.0</ele><time>2026-04-12T13:29:36.998Z</time></trkpt><trkpt lat="41.97742765963462" lon="13.25026718928184"><ele>1326.0</ele><time>2026-04-12T13:29:37.998Z</time></trkpt><trkpt lat="41.97752259764574" lon="13.250170339866209"><ele>1326.0</ele><time>2026-04-12T13:29:38.998Z</time></trkpt><trkpt lat="41.9776022687104" lon="13.250079541169384"><ele>1326.0</ele><time>2026-04-12T13:29:39.998Z</time></trkpt><trkpt lat="41.977665038429585" lon="13.250000114863633"><ele>1326.0</ele><time>2026-04-12T13:29:40.998Z</time></trkpt><trkpt lat="41.977726892900165" lon="13.24993133314862"><ele>1327.0</ele><time>2026-04-12T13:29:41.998Z</time></trkpt><trkpt lat="41.9777732065016" lon="13.249868223200204"><ele>1328.0</ele><time>2026-04-12T13:29:42.998Z</time></trkpt><trkpt lat="41.977852394786424" lon="13.24978393429132"><ele>1329.0</ele><time>2026-04-12T13:29:43.998Z</time></trkpt><trkpt lat="41.97793976308461" lon="13.24969814614352"><ele>1330.0</ele><time>2026-04-12T13:29:44.998Z</time></trkpt><trkpt lat="41.97803219344778" lon="13.249605531402974"><ele>1331.0</ele><time>2026-04-12T13:29:45.998Z</time></trkpt><trkpt lat="41.9781201142844" lon="13.249506982911404"><ele>1331.5</ele><time>2026-04-12T13:29:46.998Z</time></trkpt><trkpt lat="41.97818939091559" lon="13.249431568759839"><ele>1332.0</ele><time>2026-04-12T13:29:47.998Z</time></trkpt><trkpt lat="41.978234927899315" lon="13.249370375010553"><ele>1332.5</ele><time>2026-04-12T13:29:48.998Z</time></trkpt><trkpt lat="41.9783184929806" lon="13.249227891737819"><ele>1333.0</ele><time>2026-04-12T13:29:50.998Z</time></trkpt><trkpt lat="41.978355974515395" lon="13.249135564012649"><ele>1333.5</ele><time>2026-04-12T13:29:51.998Z</time></trkpt><trkpt lat="41.97838487048412" lon="13.24904210254673"><ele>1334.0</ele><time>2026-04-12T13:29:52.998Z</time></trkpt><trkpt lat="41.97841104603188" lon="13.24892092920053"><ele>1335.4</ele><time>2026-04-12T13:29:53.998Z</time></trkpt><trkpt lat="41.978428928326466" lon="13.248791969678262"><ele>1336.8000000000002</ele><time>2026-04-12T13:29:54.998Z</time></trkpt><trkpt lat="41.978453510889196" lon="13.248676912536284"><ele>1338.1999999999998</ele><time>2026-04-12T13:29:55.998Z</time></trkpt><trkpt lat="41.97847153037945" lon="13.24857685691253"><ele>1339.6</ele><time>2026-04-12T13:29:56.998Z</time></trkpt><trkpt lat="41.97849851763846" lon="13.248459040665615"><ele>1341.0</ele><time>2026-04-12T13:29:57.998Z</time></trkpt><trkpt lat="41.978534154459105" lon="13.248331955056564"><ele>1341.0</ele><time>2026-04-12T13:29:58.998Z</time></trkpt><trkpt lat="41.9785828041843" lon="13.24819712701287"><ele>1341.0</ele><time>2026-04-12T13:29:59.998Z</time></trkpt><trkpt lat="41.9786197830667" lon="13.248063121462414"><ele>1341.0</ele><time>2026-04-12T13:30:00.998Z</time></trkpt><trkpt lat="41.97863963922254" lon="13.247928051049648"><ele>1341.0</ele><time>2026-04-12T13:30:01.998Z</time></trkpt><trkpt lat="41.97866177430644" lon="13.24777430239104"><ele>1341.0</ele><time>2026-04-12T13:30:02.998Z</time></trkpt><trkpt lat="41.97867593980505" lon="13.247611924202978"><ele>1341.0</ele><time>2026-04-12T13:30:03.998Z</time></trkpt><trkpt lat="41.97869071009796" lon="13.247444637937095"><ele>1341.0</ele><time>2026-04-12T13:30:04.998Z</time></trkpt><trkpt lat="41.97870942341054" lon="13.247264798078685"><ele>1341.0</ele><time>2026-04-12T13:30:05.998Z</time></trkpt><trkpt lat="41.97871903255477" lon="13.247109698823204"><ele>1341.0</ele><time>2026-04-12T13:30:06.998Z</time></trkpt><trkpt lat="41.9787126104854" lon="13.24695281244581"><ele>1341.0</ele><time>2026-04-12T13:30:07.998Z</time></trkpt><trkpt lat="41.97869026950343" lon="13.246810141244076"><ele>1341.0</ele><time>2026-04-12T13:30:08.997Z</time></trkpt><trkpt lat="41.978660646792115" lon="13.246671856413741"><ele>1341.0</ele><time>2026-04-12T13:30:09.997Z</time></trkpt><trkpt lat="41.978626885609444" lon="13.246527282553313"><ele>1341.0</ele><time>2026-04-12T13:30:10.997Z</time></trkpt><trkpt lat="41.978590004204634" lon="13.246392145158493"><ele>1341.0</ele><time>2026-04-12T13:30:11.997Z</time></trkpt><trkpt lat="41.978557870571784" lon="13.246262657422692"><ele>1342.6</ele><time>2026-04-12T13:30:12.997Z</time></trkpt><trkpt lat="41.97854296295078" lon="13.2461362649672"><ele>1344.1999999999998</ele><time>2026-04-12T13:30:13.997Z</time></trkpt><trkpt lat="41.97853026191788" lon="13.24598390601852"><ele>1345.8000000000002</ele><time>2026-04-12T13:30:14.997Z</time></trkpt><trkpt lat="41.9785213575731" lon="13.245835878617596"><ele>1347.4</ele><time>2026-04-12T13:30:16Z</time></trkpt><trkpt lat="41.978521739754584" lon="13.245669838932729"><ele>1349.0</ele><time>2026-04-12T13:30:17Z</time></trkpt><trkpt lat="41.97852946739191" lon="13.245496254388543"><ele>1349.25</ele><time>2026-04-12T13:30:18Z</time></trkpt><trkpt lat="41.97854474684612" lon="13.245300658000405"><ele>1349.5</ele><time>2026-04-12T13:30:19Z</time></trkpt><trkpt lat="41.978556252679816" lon="13.24510025175109"><ele>1349.75</ele><time>2026-04-12T13:30:20Z</time></trkpt><trkpt lat="41.97856549097803" lon="13.244904749548802"><ele>1350.0</ele><time>2026-04-12T13:30:21Z</time></trkpt><trkpt lat="41.97856403613979" lon="13.244739953569997"><ele>1349.0</ele><time>2026-04-12T13:30:22Z</time></trkpt><trkpt lat="41.97856240703547" lon="13.244570717342414"><ele>1348.0</ele><time>2026-04-12T13:30:23Z</time></trkpt><trkpt lat="41.97856954072245" lon="13.24439323677258"><ele>1347.0</ele><time>2026-04-12T13:30:24Z</time></trkpt><trkpt lat="41.97859320634267" lon="13.244248483934266"><ele>1346.0</ele><time>2026-04-12T13:30:25Z</time></trkpt><trkpt lat="41.978628028481474" lon="13.244136451649426"><ele>1346.0</ele><time>2026-04-12T13:30:26Z</time></trkpt><trkpt lat="41.97867776901225" lon="13.244047571968565"><ele>1346.0</ele><time>2026-04-12T13:30:27Z</time></trkpt><trkpt lat="41.97873790107538" lon="13.243968714270588"><ele>1346.0</ele><time>2026-04-12T13:30:28Z</time></trkpt><trkpt lat="41.97881860921054" lon="13.243904829876941"><ele>1346.0</ele><time>2026-04-12T13:30:29Z</time></trkpt><trkpt lat="41.978917938134416" lon="13.243853160820874"><ele>1346.0</ele><time>2026-04-12T13:30:30Z</time></trkpt><trkpt lat="41.97903232559824" lon="13.243798602423292"><ele>1345.75</ele><time>2026-04-12T13:30:31Z</time></trkpt><trkpt lat="41.979129382063135" lon="13.243723003583757"><ele>1345.5</ele><time>2026-04-12T13:30:32Z</time></trkpt><trkpt lat="41.97921739527138" lon="13.243627132770365"><ele>1345.25</ele><time>2026-04-12T13:30:33Z</time></trkpt><trkpt lat="41.979302860575906" lon="13.243510995924945"><ele>1345.0</ele><time>2026-04-12T13:30:34Z</time></trkpt><trkpt lat="41.97940828621814" lon="13.24339016015471"><ele>1345.0</ele><time>2026-04-12T13:30:35Z</time></trkpt><trkpt lat="41.979515011823054" lon="13.243281206700937"><ele>1345.0</ele><time>2026-04-12T13:30:36Z</time></trkpt><trkpt lat="41.97959347260082" lon="13.243195150115444"><ele>1345.0</ele><time>2026-04-12T13:30:37Z</time></trkpt><trkpt lat="41.979640196838815" lon="13.243116342539503"><ele>1345.0</ele><time>2026-04-12T13:30:38Z</time></trkpt><trkpt lat="41.97967673613103" lon="13.243034492138408"><ele>1345.0</ele><time>2026-04-12T13:30:39Z</time></trkpt><trkpt lat="41.979685701911684" lon="13.242866978905488"><ele>1343.0</ele><time>2026-04-12T13:30:41Z</time></trkpt><trkpt lat="41.979672837782495" lon="13.242766076236505"><ele>1341.0</ele><time>2026-04-12T13:30:42Z</time></trkpt><trkpt lat="41.97965560011269" lon="13.242657794272905"><ele>1339.0</ele><time>2026-04-12T13:30:42.999Z</time></trkpt><trkpt lat="41.9796458445301" lon="13.242537171581004"><ele>1337.0</ele><time>2026-04-12T13:30:43.999Z</time></trkpt><trkpt lat="41.979654759870094" lon="13.24239572037713"><ele>1335.0</ele><time>2026-04-12T13:30:44.999Z</time></trkpt><trkpt lat="41.97968295256988" lon="13.242243542660141"><ele>1334.0</ele><time>2026-04-12T13:30:45.999Z</time></trkpt><trkpt lat="41.97972066150377" lon="13.24208728798052"><ele>1333.0</ele><time>2026-04-12T13:30:46.999Z</time></trkpt><trkpt lat="41.97976020298246" lon="13.241912029597913"><ele>1332.0</ele><time>2026-04-12T13:30:47.999Z</time></trkpt><trkpt lat="41.97980852105658" lon="13.24171912036372"><ele>1331.0</ele><time>2026-04-12T13:30:48.999Z</time></trkpt><trkpt lat="41.97984997236797" lon="13.241533296364022"><ele>1332.1999999999998</ele><time>2026-04-12T13:30:49.999Z</time></trkpt><trkpt lat="41.979883918325775" lon="13.241375980015988"><ele>1333.3999999999999</ele><time>2026-04-12T13:30:50.999Z</time></trkpt><trkpt lat="41.97991455756148" lon="13.241245751511487"><ele>1334.6</ele><time>2026-04-12T13:30:51.999Z</time></trkpt><trkpt lat="41.97994096026528" lon="13.241131356624917"><ele>1335.8</ele><time>2026-04-12T13:30:52.999Z</time></trkpt><trkpt lat="41.97994652014199" lon="13.241030257674929"><ele>1337.0</ele><time>2026-04-12T13:30:53.999Z</time></trkpt><trkpt lat="41.97993012949568" lon="13.240907431536588"><ele>1337.0</ele><time>2026-04-12T13:30:54.999Z</time></trkpt><trkpt lat="41.979891051317715" lon="13.24077943134977"><ele>1337.0</ele><time>2026-04-12T13:30:55.999Z</time></trkpt><trkpt lat="41.979842023491514" lon="13.240665231609167"><ele>1337.0</ele><time>2026-04-12T13:30:56.999Z</time></trkpt><trkpt lat="41.979775280048806" lon="13.24054487833617"><ele>1337.0</ele><time>2026-04-12T13:30:57.999Z</time></trkpt><trkpt lat="41.979711247370375" lon="13.240446042176982"><ele>1337.0</ele><time>2026-04-12T13:30:58.999Z</time></trkpt><trkpt lat="41.97964385593585" lon="13.240380949281844"><ele>1337.8</ele><time>2026-04-12T13:30:59.999Z</time></trkpt><trkpt lat="41.97957397191764" lon="13.24035929223654"><ele>1338.6</ele><time>2026-04-12T13:31:00.999Z</time></trkpt><trkpt lat="41.979493947131196" lon="13.240348146029717"><ele>1339.3999999999999</ele><time>2026-04-12T13:31:01.999Z</time></trkpt><trkpt lat="41.979398873745076" lon="13.240298519103787"><ele>1340.1999999999998</ele><time>2026-04-12T13:31:02.999Z</time></trkpt><trkpt lat="41.97932313240926" lon="13.24023008510154"><ele>1341.0</ele><time>2026-04-12T13:31:03.999Z</time></trkpt><trkpt lat="41.97924114104893" lon="13.240138346593609"><ele>1341.0</ele><time>2026-04-12T13:31:04.999Z</time></trkpt><trkpt lat="41.979149467736775" lon="13.240037327459056"><ele>1341.0</ele><time>2026-04-12T13:31:05.999Z</time></trkpt><trkpt lat="41.97905304979852" lon="13.23993031417298"><ele>1341.0</ele><time>2026-04-12T13:31:06.999Z</time></trkpt><trkpt lat="41.9789809546355" lon="13.239853611291956"><ele>1341.0</ele><time>2026-04-12T13:31:07.999Z</time></trkpt><trkpt lat="41.978905077859096" lon="13.23977742371845"><ele>1341.0</ele><time>2026-04-12T13:31:08.999Z</time></trkpt><trkpt lat="41.97885776545012" lon="13.239691764004231"><ele>1341.25</ele><time>2026-04-12T13:31:09.999Z</time></trkpt><trkpt lat="41.97882859744631" lon="13.239572808627512"><ele>1341.5</ele><time>2026-04-12T13:31:10.999Z</time></trkpt><trkpt lat="41.97882675020011" lon="13.239428281444264"><ele>1341.75</ele><time>2026-04-12T13:31:11.999Z</time></trkpt><trkpt lat="41.9788181342661" lon="13.239261471076572"><ele>1342.0</ele><time>2026-04-12T13:31:12.999Z</time></trkpt><trkpt lat="41.97880673701588" lon="13.239086408189753"><ele>1342.6</ele><time>2026-04-12T13:31:13.999Z</time></trkpt><trkpt lat="41.97879934667663" lon="13.238942556586068"><ele>1343.1999999999998</ele><time>2026-04-12T13:31:14.999Z</time></trkpt><trkpt lat="41.97880100870864" lon="13.238838742566806"><ele>1343.8</ele><time>2026-04-12T13:31:15.999Z</time></trkpt><trkpt lat="41.97874848181249" lon="13.238727510238883"><ele>1344.4</ele><time>2026-04-12T13:31:17.999Z</time></trkpt><trkpt lat="41.97868943694208" lon="13.238614201978832"><ele>1345.0</ele><time>2026-04-12T13:31:19.999Z</time></trkpt><trkpt lat="41.978654981581656" lon="13.238531995218835"><ele>1345.0</ele><time>2026-04-12T13:31:20.999Z</time></trkpt><trkpt lat="41.978613584497886" lon="13.238426612952134"><ele>1345.0</ele><time>2026-04-12T13:31:21.999Z</time></trkpt><trkpt lat="41.97856244450976" lon="13.238327465866467"><ele>1345.0</ele><time>2026-04-12T13:31:22.999Z</time></trkpt><trkpt lat="41.97850311073587" lon="13.238220077908188"><ele>1345.0</ele><time>2026-04-12T13:31:23.999Z</time></trkpt><trkpt lat="41.97844993036997" lon="13.238132041173362"><ele>1345.0</ele><time>2026-04-12T13:31:24.999Z</time></trkpt><trkpt lat="41.97839409872049" lon="13.238008501635612"><ele>1345.1666666666665</ele><time>2026-04-12T13:31:26.999Z</time></trkpt><trkpt lat="41.978377026844896" lon="13.237916514885809"><ele>1345.3333333333333</ele><time>2026-04-12T13:31:27.999Z</time></trkpt><trkpt lat="41.97836166436004" lon="13.237806631405746"><ele>1345.5</ele><time>2026-04-12T13:31:28.999Z</time></trkpt><trkpt lat="41.97833832730098" lon="13.237680014219597"><ele>1345.6666666666667</ele><time>2026-04-12T13:31:29.999Z</time></trkpt><trkpt lat="41.978310137732194" lon="13.237582808543701"><ele>1345.8333333333335</ele><time>2026-04-12T13:31:30.998Z</time></trkpt><trkpt lat="41.978296023548126" lon="13.237499222593133"><ele>1346.0</ele><time>2026-04-12T13:31:31.998Z</time></trkpt><trkpt lat="41.97830289736038" lon="13.237390969838971"><ele>1345.0</ele><time>2026-04-12T13:31:32.998Z</time></trkpt><trkpt lat="41.978329562031085" lon="13.237265692602929"><ele>1344.0</ele><time>2026-04-12T13:31:33.998Z</time></trkpt><trkpt lat="41.97837171756329" lon="13.237132018938997"><ele>1343.0</ele><time>2026-04-12T13:31:34.998Z</time></trkpt><trkpt lat="41.97841613983389" lon="13.237030907434491"><ele>1342.0</ele><time>2026-04-12T13:31:35.998Z</time></trkpt><trkpt lat="41.9784503122029" lon="13.236929974496249"><ele>1341.0</ele><time>2026-04-12T13:31:36.998Z</time></trkpt><trkpt lat="41.9784901307002" lon="13.236813057890096"><ele>1341.0</ele><time>2026-04-12T13:31:37.998Z</time></trkpt><trkpt lat="41.97853935722829" lon="13.236677017688423"><ele>1341.0</ele><time>2026-04-12T13:31:38.998Z</time></trkpt><trkpt lat="41.978579769453546" lon="13.236549743534038"><ele>1341.0</ele><time>2026-04-12T13:31:39.998Z</time></trkpt><trkpt lat="41.978623287541545" lon="13.236420124020125"><ele>1341.0</ele><time>2026-04-12T13:31:40.998Z</time></trkpt><trkpt lat="41.978665914229886" lon="13.236301735206922"><ele>1341.0</ele><time>2026-04-12T13:31:41.998Z</time></trkpt><trkpt lat="41.97871969781354" lon="13.236182573620463"><ele>1338.0</ele><time>2026-04-12T13:31:42.998Z</time></trkpt><trkpt lat="41.97877357957178" lon="13.236069874791543"><ele>1335.0</ele><time>2026-04-12T13:31:43.998Z</time></trkpt><trkpt lat="41.97883790394324" lon="13.23594573356405"><ele>1332.0</ele><time>2026-04-12T13:31:44.998Z</time></trkpt><trkpt lat="41.97890210749149" lon="13.23585012459023"><ele>1329.0</ele><time>2026-04-12T13:31:45.998Z</time></trkpt><trkpt lat="41.978977819914995" lon="13.23575861667396"><ele>1326.0</ele><time>2026-04-12T13:31:46.998Z</time></trkpt><trkpt lat="41.97906513343493" lon="13.235661099584455"><ele>1324.3333333333333</ele><time>2026-04-12T13:31:47.998Z</time></trkpt><trkpt lat="41.97913968015151" lon="13.235572244957222"><ele>1322.6666666666667</ele><time>2026-04-12T13:31:48.998Z</time></trkpt><trkpt lat="41.97920374524099" lon="13.235487714527851"><ele>1321.0</ele><time>2026-04-12T13:31:49.998Z</time></trkpt><trkpt lat="41.97926871377229" lon="13.23541604691815"><ele>1319.3333333333335</ele><time>2026-04-12T13:31:50.998Z</time></trkpt><trkpt lat="41.979344634885734" lon="13.235356746510616"><ele>1317.6666666666667</ele><time>2026-04-12T13:31:51.998Z</time></trkpt><trkpt lat="41.9794260472744" lon="13.23532107715926"><ele>1316.0</ele><time>2026-04-12T13:31:52.998Z</time></trkpt><trkpt lat="41.97952153749737" lon="13.235287305722352"><ele>1315.1999999999998</ele><time>2026-04-12T13:31:53.998Z</time></trkpt><trkpt lat="41.9796144075614" lon="13.23524417022842"><ele>1314.3999999999999</ele><time>2026-04-12T13:31:54.998Z</time></trkpt><trkpt lat="41.97970435715303" lon="13.235198663775847"><ele>1313.6</ele><time>2026-04-12T13:31:55.998Z</time></trkpt><trkpt lat="41.97978804630619" lon="13.23515605920083"><ele>1312.8</ele><time>2026-04-12T13:31:56.998Z</time></trkpt><trkpt lat="41.97986889245388" lon="13.23511109466326"><ele>1312.0</ele><time>2026-04-12T13:31:57.998Z</time></trkpt><trkpt lat="41.97996262242508" lon="13.235062728354627"><ele>1309.3999999999999</ele><time>2026-04-12T13:31:58.998Z</time></trkpt><trkpt lat="41.98005242854689" lon="13.235014412836053"><ele>1306.8</ele><time>2026-04-12T13:31:59.998Z</time></trkpt><trkpt lat="41.98012006940718" lon="13.234973391771575"><ele>1304.2</ele><time>2026-04-12T13:32:00.998Z</time></trkpt><trkpt lat="41.9801930003677" lon="13.234925115799847"><ele>1301.6</ele><time>2026-04-12T13:32:01.998Z</time></trkpt><trkpt lat="41.98029974020058" lon="13.234863279820443"><ele>1299.0</ele><time>2026-04-12T13:32:03.998Z</time></trkpt><trkpt lat="41.980413469210035" lon="13.234826617061913"><ele>1299.0</ele><time>2026-04-12T13:32:05.998Z</time></trkpt><trkpt lat="41.980476464266815" lon="13.234806992123886"><ele>1299.0</ele><time>2026-04-12T13:32:06.998Z</time></trkpt><trkpt lat="41.98056746778706" lon="13.234781816719472"><ele>1299.0</ele><time>2026-04-12T13:32:08.998Z</time></trkpt><trkpt lat="41.980664156874454" lon="13.234778057500844"><ele>1299.0</ele><time>2026-04-12T13:32:10.998Z</time></trkpt><trkpt lat="41.98075597913844" lon="13.234757227608648"><ele>1299.0</ele><time>2026-04-12T13:32:12.998Z</time></trkpt><trkpt lat="41.980820800036" lon="13.23474482868773"><ele>1299.0</ele><time>2026-04-12T13:32:13.998Z</time></trkpt><trkpt lat="41.98089080194111" lon="13.23473874601703"><ele>1297.5</ele><time>2026-04-12T13:32:14.998Z</time></trkpt><trkpt lat="41.98100757834932" lon="13.234687683984442"><ele>1296.0</ele><time>2026-04-12T13:32:16.998Z</time></trkpt><trkpt lat="41.981051143273355" lon="13.234624442069771"><ele>1294.5</ele><time>2026-04-12T13:32:17.997Z</time></trkpt><trkpt lat="41.98109057011764" lon="13.234532838892727"><ele>1293.0</ele><time>2026-04-12T13:32:18.997Z</time></trkpt><trkpt lat="41.98114056190045" lon="13.234430401352324"><ele>1291.5</ele><time>2026-04-12T13:32:19.997Z</time></trkpt><trkpt lat="41.98118240626013" lon="13.234331631035483"><ele>1290.0</ele><time>2026-04-12T13:32:20.997Z</time></trkpt><trkpt lat="41.9812219546825" lon="13.234234042860491"><ele>1290.0</ele><time>2026-04-12T13:32:22Z</time></trkpt><trkpt lat="41.98130481255817" lon="13.234083810308851"><ele>1290.0</ele><time>2026-04-12T13:32:24Z</time></trkpt><trkpt lat="41.981356818731264" lon="13.233997182355"><ele>1290.0</ele><time>2026-04-12T13:32:25Z</time></trkpt><trkpt lat="41.98140135997138" lon="13.233928327031274"><ele>1290.0</ele><time>2026-04-12T13:32:26Z</time></trkpt><trkpt lat="41.9814505479383" lon="13.233847343634027"><ele>1290.0</ele><time>2026-04-12T13:32:27Z</time></trkpt><trkpt lat="41.98150574148255" lon="13.233750108302274"><ele>1288.6666666666667</ele><time>2026-04-12T13:32:28Z</time></trkpt><trkpt lat="41.98157014135861" lon="13.233666468012988"><ele>1287.3333333333333</ele><time>2026-04-12T13:32:29Z</time></trkpt><trkpt lat="41.98162684054746" lon="13.23360528847652"><ele>1286.0</ele><time>2026-04-12T13:32:30Z</time></trkpt><trkpt lat="41.98168218633158" lon="13.233533890993625"><ele>1284.6666666666665</ele><time>2026-04-12T13:32:31Z</time></trkpt><trkpt lat="41.98174870889661" lon="13.233487992987962"><ele>1283.3333333333333</ele><time>2026-04-12T13:32:32Z</time></trkpt><trkpt lat="41.981822872912694" lon="13.233441346780765"><ele>1282.0</ele><time>2026-04-12T13:32:33Z</time></trkpt><trkpt lat="41.98189429049855" lon="13.23340048609949"><ele>1282.0</ele><time>2026-04-12T13:32:34Z</time></trkpt><trkpt lat="41.98196901148207" lon="13.233283391851657"><ele>1282.0</ele><time>2026-04-12T13:32:36Z</time></trkpt><trkpt lat="41.98193191254269" lon="13.23311750344328"><ele>1282.0</ele><time>2026-04-12T13:32:38Z</time></trkpt><trkpt lat="41.98190291788758" lon="13.23302204661304"><ele>1282.0</ele><time>2026-04-12T13:32:39Z</time></trkpt><trkpt lat="41.981894132466444" lon="13.232937064965347"><ele>1282.0</ele><time>2026-04-12T13:32:40Z</time></trkpt><trkpt lat="41.9818947935614" lon="13.232846361310346"><ele>1282.0</ele><time>2026-04-12T13:32:41Z</time></trkpt><trkpt lat="41.981880080662" lon="13.232716254599271"><ele>1282.0</ele><time>2026-04-12T13:32:42Z</time></trkpt><trkpt lat="41.981872872707825" lon="13.23259806993757"><ele>1282.0</ele><time>2026-04-12T13:32:43Z</time></trkpt><trkpt lat="41.981871098375265" lon="13.232476247855278"><ele>1282.0</ele><time>2026-04-12T13:32:44Z</time></trkpt><trkpt lat="41.981866975286444" lon="13.232357150560917"><ele>1282.0</ele><time>2026-04-12T13:32:45Z</time></trkpt><trkpt lat="41.981866196828605" lon="13.232260156108577"><ele>1282.0</ele><time>2026-04-12T13:32:45.999Z</time></trkpt><trkpt lat="41.98186094577862" lon="13.232142336474014"><ele>1282.0</ele><time>2026-04-12T13:32:46.999Z</time></trkpt><trkpt lat="41.98186554445964" lon="13.232049014730368"><ele>1282.0</ele><time>2026-04-12T13:32:47.999Z</time></trkpt><trkpt lat="41.98187955187809" lon="13.231956235781388"><ele>1282.0</ele><time>2026-04-12T13:32:48.999Z</time></trkpt><trkpt lat="41.98189646736183" lon="13.231840886344312"><ele>1282.0</ele><time>2026-04-12T13:32:49.999Z</time></trkpt><trkpt lat="41.9819243795795" lon="13.231728576375096"><ele>1282.0</ele><time>2026-04-12T13:32:50.999Z</time></trkpt><trkpt lat="41.98195027306693" lon="13.23160514855309"><ele>1282.0</ele><time>2026-04-12T13:32:51.999Z</time></trkpt><trkpt lat="41.98197369166523" lon="13.23145794240073"><ele>1280.6</ele><time>2026-04-12T13:32:52.999Z</time></trkpt><trkpt lat="41.98199905800785" lon="13.23131297470847"><ele>1279.1999999999998</ele><time>2026-04-12T13:32:53.999Z</time></trkpt><trkpt lat="41.982030782788684" lon="13.231163453206415"><ele>1277.8</ele><time>2026-04-12T13:32:54.999Z</time></trkpt><trkpt lat="41.982060580441356" lon="13.231030073930386"><ele>1276.4</ele><time>2026-04-12T13:32:55.999Z</time></trkpt><trkpt lat="41.982095712069196" lon="13.230897447002716"><ele>1275.0</ele><time>2026-04-12T13:32:56.999Z</time></trkpt><trkpt lat="41.98213225092393" lon="13.230752231673293"><ele>1273.25</ele><time>2026-04-12T13:32:57.999Z</time></trkpt><trkpt lat="41.982167913076886" lon="13.23059312534444"><ele>1271.5</ele><time>2026-04-12T13:32:58.999Z</time></trkpt><trkpt lat="41.98219914330012" lon="13.23043939837613"><ele>1269.75</ele><time>2026-04-12T13:32:59.999Z</time></trkpt><trkpt lat="41.98222813021167" lon="13.23030333914037"><ele>1268.0</ele><time>2026-04-12T13:33:00.999Z</time></trkpt><trkpt lat="41.982253861860826" lon="13.230169516808175"><ele>1268.0</ele><time>2026-04-12T13:33:01.999Z</time></trkpt><trkpt lat="41.98228076137144" lon="13.230029976613473"><ele>1268.0</ele><time>2026-04-12T13:33:02.999Z</time></trkpt><trkpt lat="41.98230852947685" lon="13.229882623445423"><ele>1268.0</ele><time>2026-04-12T13:33:03.999Z</time></trkpt><trkpt lat="41.98233648246836" lon="13.229742975831275"><ele>1268.0</ele><time>2026-04-12T13:33:04.999Z</time></trkpt><trkpt lat="41.982365414029864" lon="13.22961650646636"><ele>1268.0</ele><time>2026-04-12T13:33:05.999Z</time></trkpt><trkpt lat="41.982395548563325" lon="13.229490769626185"><ele>1268.6</ele><time>2026-04-12T13:33:06.999Z</time></trkpt><trkpt lat="41.9824177255486" lon="13.229357622512119"><ele>1269.1999999999998</ele><time>2026-04-12T13:33:07.999Z</time></trkpt><trkpt lat="41.98243728550618" lon="13.229222732556856"><ele>1269.8</ele><time>2026-04-12T13:33:08.999Z</time></trkpt><trkpt lat="41.98244791981931" lon="13.229108867761058"><ele>1270.3999999999999</ele><time>2026-04-12T13:33:09.999Z</time></trkpt><trkpt lat="41.98244719188711" lon="13.22902204876541"><ele>1271.0</ele><time>2026-04-12T13:33:10.999Z</time></trkpt><trkpt lat="41.98243623667225" lon="13.228881102286133"><ele>1271.0</ele><time>2026-04-12T13:33:12.999Z</time></trkpt><trkpt lat="41.9824289616193" lon="13.228725485157094"><ele>1271.0</ele><time>2026-04-12T13:33:14.999Z</time></trkpt><trkpt lat="41.982428877721816" lon="13.228636240217751"><ele>1271.0</ele><time>2026-04-12T13:33:15.999Z</time></trkpt><trkpt lat="41.98242820293478" lon="13.228471138298223"><ele>1271.0</ele><time>2026-04-12T13:33:17.999Z</time></trkpt><trkpt lat="41.982423425843145" lon="13.228367011642776"><ele>1271.0</ele><time>2026-04-12T13:33:18.999Z</time></trkpt><trkpt lat="41.982428235500954" lon="13.228254212048805"><ele>1269.3333333333335</ele><time>2026-04-12T13:33:19.999Z</time></trkpt><trkpt lat="41.9824321493137" lon="13.228125416865563"><ele>1267.6666666666667</ele><time>2026-04-12T13:33:20.999Z</time></trkpt><trkpt lat="41.98243766196932" lon="13.228019376434101"><ele>1266.0</ele><time>2026-04-12T13:33:21.999Z</time></trkpt><trkpt lat="41.98245197641172" lon="13.227920263640673"><ele>1264.3333333333333</ele><time>2026-04-12T13:33:22.999Z</time></trkpt><trkpt lat="41.982465196462805" lon="13.227814638784901"><ele>1262.6666666666665</ele><time>2026-04-12T13:33:23.999Z</time></trkpt><trkpt lat="41.982489293120494" lon="13.227704925395223"><ele>1261.0</ele><time>2026-04-12T13:33:24.999Z</time></trkpt><trkpt lat="41.98252505289045" lon="13.227592316893372"><ele>1261.3333333333333</ele><time>2026-04-12T13:33:25.999Z</time></trkpt><trkpt lat="41.98255378463064" lon="13.227500228978657"><ele>1261.6666666666665</ele><time>2026-04-12T13:33:26.999Z</time></trkpt><trkpt lat="41.98257892568187" lon="13.227413576188214"><ele>1262.0</ele><time>2026-04-12T13:33:27.999Z</time></trkpt><trkpt lat="41.982609715855446" lon="13.22732877885617"><ele>1262.3333333333333</ele><time>2026-04-12T13:33:28.999Z</time></trkpt><trkpt lat="41.98265591132914" lon="13.227243445483285"><ele>1262.6666666666667</ele><time>2026-04-12T13:33:29.999Z</time></trkpt><trkpt lat="41.982709808722014" lon="13.22715483558652"><ele>1263.0</ele><time>2026-04-12T13:33:30.999Z</time></trkpt><trkpt lat="41.98276358660436" lon="13.227076612381497"><ele>1263.0</ele><time>2026-04-12T13:33:31.999Z</time></trkpt><trkpt lat="41.982818010487016" lon="13.227014077539733"><ele>1263.0</ele><time>2026-04-12T13:33:32.998Z</time></trkpt><trkpt lat="41.98287954247574" lon="13.226944293024696"><ele>1263.0</ele><time>2026-04-12T13:33:33.998Z</time></trkpt><trkpt lat="41.98294904491812" lon="13.226875101732322"><ele>1263.0</ele><time>2026-04-12T13:33:34.998Z</time></trkpt><trkpt lat="41.983019854179865" lon="13.226796994727827"><ele>1263.0</ele><time>2026-04-12T13:33:35.998Z</time></trkpt><trkpt lat="41.98307756832027" lon="13.22672306279195"><ele>1263.0</ele><time>2026-04-12T13:33:36.998Z</time></trkpt><trkpt lat="41.98314035278544" lon="13.226646169703203"><ele>1263.0</ele><time>2026-04-12T13:33:37.998Z</time></trkpt><trkpt lat="41.9832068622878" lon="13.226585833081543"><ele>1263.0</ele><time>2026-04-12T13:33:38.998Z</time></trkpt><trkpt lat="41.98329029432214" lon="13.226513774503701"><ele>1263.0</ele><time>2026-04-12T13:33:39.998Z</time></trkpt><trkpt lat="41.98336890249648" lon="13.226453433853326"><ele>1263.0</ele><time>2026-04-12T13:33:40.998Z</time></trkpt><trkpt lat="41.98344822349367" lon="13.226378286486543"><ele>1263.0</ele><time>2026-04-12T13:33:41.998Z</time></trkpt><trkpt lat="41.983531028933825" lon="13.226297144241922"><ele>1265.0</ele><time>2026-04-12T13:33:42.998Z</time></trkpt><trkpt lat="41.9836138999471" lon="13.226222927607735"><ele>1267.0</ele><time>2026-04-12T13:33:43.998Z</time></trkpt><trkpt lat="41.983685455538165" lon="13.226168206038112"><ele>1269.0</ele><time>2026-04-12T13:33:44.998Z</time></trkpt><trkpt lat="41.98375593784787" lon="13.226114027285496"><ele>1271.0</ele><time>2026-04-12T13:33:45.998Z</time></trkpt><trkpt lat="41.98382332610492" lon="13.226051139715524"><ele>1273.0</ele><time>2026-04-12T13:33:46.998Z</time></trkpt><trkpt lat="41.98387055617319" lon="13.225970536969871"><ele>1275.0</ele><time>2026-04-12T13:33:47.998Z</time></trkpt><trkpt lat="41.983906065085705" lon="13.2258619875786"><ele>1275.0</ele><time>2026-04-12T13:33:48.998Z</time></trkpt><trkpt lat="41.98392860096658" lon="13.225741633498556"><ele>1275.0</ele><time>2026-04-12T13:33:49.998Z</time></trkpt><trkpt lat="41.98393129578716" lon="13.22561489930704"><ele>1275.0</ele><time>2026-04-12T13:33:50.998Z</time></trkpt><trkpt lat="41.983919411013844" lon="13.225483108494819"><ele>1275.0</ele><time>2026-04-12T13:33:51.998Z</time></trkpt><trkpt lat="41.983909007713315" lon="13.225351085024734"><ele>1275.0</ele><time>2026-04-12T13:33:52.998Z</time></trkpt><trkpt lat="41.98390503738959" lon="13.225218401486442"><ele>1274.8</ele><time>2026-04-12T13:33:53.998Z</time></trkpt><trkpt lat="41.98390411339944" lon="13.225070123670019"><ele>1274.6</ele><time>2026-04-12T13:33:54.998Z</time></trkpt><trkpt lat="41.98390031020425" lon="13.224921297454504"><ele>1274.4</ele><time>2026-04-12T13:33:55.998Z</time></trkpt><trkpt lat="41.98388150287332" lon="13.224795767125336"><ele>1274.2</ele><time>2026-04-12T13:33:56.998Z</time></trkpt><trkpt lat="41.98387651001437" lon="13.224682428232361"><ele>1274.0</ele><time>2026-04-12T13:33:57.998Z</time></trkpt><trkpt lat="41.98386629845776" lon="13.224562925988621"><ele>1272.6666666666667</ele><time>2026-04-12T13:33:58.998Z</time></trkpt><trkpt lat="41.98384103689403" lon="13.224441388707888"><ele>1271.3333333333335</ele><time>2026-04-12T13:33:59.998Z</time></trkpt><trkpt lat="41.9837984150055" lon="13.224306183011773"><ele>1270.0</ele><time>2026-04-12T13:34:00.998Z</time></trkpt><trkpt lat="41.98375349137834" lon="13.224193467386378"><ele>1268.6666666666667</ele><time>2026-04-12T13:34:01.998Z</time></trkpt><trkpt lat="41.98372218988854" lon="13.224101639529302"><ele>1267.3333333333333</ele><time>2026-04-12T13:34:02.998Z</time></trkpt><trkpt lat="41.983706874516464" lon="13.224011358827257"><ele>1266.0</ele><time>2026-04-12T13:34:03.998Z</time></trkpt><trkpt lat="41.98371469416339" lon="13.223919310384614"><ele>1265.3333333333333</ele><time>2026-04-12T13:34:04.998Z</time></trkpt><trkpt lat="41.98372956935025" lon="13.223812876471223"><ele>1264.6666666666667</ele><time>2026-04-12T13:34:05.998Z</time></trkpt><trkpt lat="41.983748756459754" lon="13.223714894748024"><ele>1264.0</ele><time>2026-04-12T13:34:06.998Z</time></trkpt><trkpt lat="41.983783142419206" lon="13.223630162283998"><ele>1263.3333333333335</ele><time>2026-04-12T13:34:07.998Z</time></trkpt><trkpt lat="41.98383656951815" lon="13.223518311614809"><ele>1262.6666666666667</ele><time>2026-04-12T13:34:08.998Z</time></trkpt><trkpt lat="41.98388409390091" lon="13.223409827720674"><ele>1262.0</ele><time>2026-04-12T13:34:09.998Z</time></trkpt><trkpt lat="41.98393733930504" lon="13.223329869101686"><ele>1262.0</ele><time>2026-04-12T13:34:10.998Z</time></trkpt><trkpt lat="41.98398999896654" lon="13.22326890232764"><ele>1262.0</ele><time>2026-04-12T13:34:11.998Z</time></trkpt><trkpt lat="41.98405545490396" lon="13.223238150027242"><ele>1262.0</ele><time>2026-04-12T13:34:12.998Z</time></trkpt><trkpt lat="41.98413173172623" lon="13.223249936111753"><ele>1262.0</ele><time>2026-04-12T13:34:13.998Z</time></trkpt><trkpt lat="41.98420230610201" lon="13.223296824144597"><ele>1262.0</ele><time>2026-04-12T13:34:14.998Z</time></trkpt><trkpt lat="41.98427697313379" lon="13.223372978980269"><ele>1262.0</ele><time>2026-04-12T13:34:15.998Z</time></trkpt><trkpt lat="41.98433519513873" lon="13.223469067898371"><ele>1265.3333333333335</ele><time>2026-04-12T13:34:16.998Z</time></trkpt><trkpt lat="41.98439044920307" lon="13.223586645846408"><ele>1268.6666666666667</ele><time>2026-04-12T13:34:17.998Z</time></trkpt><trkpt lat="41.98443701806939" lon="13.223728099384523"><ele>1272.0</ele><time>2026-04-12T13:34:18.997Z</time></trkpt><trkpt lat="41.98447237567329" lon="13.22383844654735"><ele>1275.3333333333333</ele><time>2026-04-12T13:34:19.997Z</time></trkpt><trkpt lat="41.98451535191434" lon="13.223905124306754"><ele>1278.6666666666665</ele><time>2026-04-12T13:34:20.997Z</time></trkpt><trkpt lat="41.984568140236455" lon="13.22395977636703"><ele>1282.0</ele><time>2026-04-12T13:34:21.997Z</time></trkpt><trkpt lat="41.984629483470464" lon="13.223994699928577"><ele>1282.0</ele><time>2026-04-12T13:34:22.997Z</time></trkpt><trkpt lat="41.98474015068417" lon="13.224008136193834"><ele>1282.0</ele><time>2026-04-12T13:34:24.997Z</time></trkpt><trkpt lat="41.984817206928724" lon="13.224023227414888"><ele>1282.0</ele><time>2026-04-12T13:34:25.997Z</time></trkpt><trkpt lat="41.98488769983165" lon="13.224012370502587"><ele>1282.0</ele><time>2026-04-12T13:34:26.997Z</time></trkpt><trkpt lat="41.98499584671621" lon="13.22400784524589"><ele>1282.0</ele><time>2026-04-12T13:34:29Z</time></trkpt><trkpt lat="41.985067605666714" lon="13.224010782433213"><ele>1282.0</ele><time>2026-04-12T13:34:30Z</time></trkpt><trkpt lat="41.985131762906484" lon="13.224000718680303"><ele>1285.1999999999998</ele><time>2026-04-12T13:34:31Z</time></trkpt><trkpt lat="41.98523393813161" lon="13.223987180836406"><ele>1288.4</ele><time>2026-04-12T13:34:33Z</time></trkpt><trkpt lat="41.98529285775491" lon="13.224052498663417"><ele>1291.6</ele><time>2026-04-12T13:34:35Z</time></trkpt><trkpt lat="41.98533574725778" lon="13.224117199469681"><ele>1294.8000000000002</ele><time>2026-04-12T13:34:36Z</time></trkpt><trkpt lat="41.98542466666295" lon="13.224266748683146"><ele>1298.0</ele><time>2026-04-12T13:34:38Z</time></trkpt><trkpt lat="41.985457945737416" lon="13.224351720704988"><ele>1298.0</ele><time>2026-04-12T13:34:39Z</time></trkpt><trkpt lat="41.98554018742379" lon="13.224503028326026"><ele>1298.0</ele><time>2026-04-12T13:34:41Z</time></trkpt><trkpt lat="41.98558701184174" lon="13.224593557864386"><ele>1298.0</ele><time>2026-04-12T13:34:42Z</time></trkpt><trkpt lat="41.98561068182117" lon="13.224725667003321"><ele>1298.0</ele><time>2026-04-12T13:34:44Z</time></trkpt><trkpt lat="41.9855985002193" lon="13.224902796028342"><ele>1297.8333333333335</ele><time>2026-04-12T13:34:46Z</time></trkpt><trkpt lat="41.98559806731379" lon="13.22501558247184"><ele>1297.6666666666667</ele><time>2026-04-12T13:34:47Z</time></trkpt><trkpt lat="41.98560276675415" lon="13.225134746549472"><ele>1297.5</ele><time>2026-04-12T13:34:47.999Z</time></trkpt><trkpt lat="41.98561973820046" lon="13.22524550070302"><ele>1297.3333333333333</ele><time>2026-04-12T13:34:48.999Z</time></trkpt><trkpt lat="41.98564712806133" lon="13.225360497961615"><ele>1297.1666666666665</ele><time>2026-04-12T13:34:49.999Z</time></trkpt><trkpt lat="41.98567325117934" lon="13.225466944168376"><ele>1297.0</ele><time>2026-04-12T13:34:50.999Z</time></trkpt><trkpt lat="41.98571704751295" lon="13.225584476936994"><ele>1297.8333333333333</ele><time>2026-04-12T13:34:51.999Z</time></trkpt><trkpt lat="41.9857654478189" lon="13.225689702409536"><ele>1298.6666666666665</ele><time>2026-04-12T13:34:52.999Z</time></trkpt><trkpt lat="41.98582501405492" lon="13.225803626293533"><ele>1299.5</ele><time>2026-04-12T13:34:54.999Z</time></trkpt><trkpt lat="41.98590088269476" lon="13.225836113005924"><ele>1300.3333333333333</ele><time>2026-04-12T13:34:56.999Z</time></trkpt><trkpt lat="41.985984452628536" lon="13.225793612862077"><ele>1301.1666666666667</ele><time>2026-04-12T13:34:58.999Z</time></trkpt><trkpt lat="41.98604214104078" lon="13.22574654107701"><ele>1302.0</ele><time>2026-04-12T13:34:59.999Z</time></trkpt><trkpt lat="41.986110098284946" lon="13.225679508214343"><ele>1302.6666666666667</ele><time>2026-04-12T13:35:00.999Z</time></trkpt><trkpt lat="41.9861879195508" lon="13.225614490733511"><ele>1303.3333333333333</ele><time>2026-04-12T13:35:01.999Z</time></trkpt><trkpt lat="41.986262185714764" lon="13.22555135733438"><ele>1304.0</ele><time>2026-04-12T13:35:02.999Z</time></trkpt><trkpt lat="41.986336100989675" lon="13.225506880960028"><ele>1304.6666666666665</ele><time>2026-04-12T13:35:03.999Z</time></trkpt><trkpt lat="41.986419540650864" lon="13.22545956007155"><ele>1305.3333333333333</ele><time>2026-04-12T13:35:04.999Z</time></trkpt><trkpt lat="41.986496050346375" lon="13.225404355247447"><ele>1306.0</ele><time>2026-04-12T13:35:05.999Z</time></trkpt><trkpt lat="41.98657278077003" lon="13.22536726384281"><ele>1306.0</ele><time>2026-04-12T13:35:06.999Z</time></trkpt><trkpt lat="41.986649298861245" lon="13.225348954903229"><ele>1306.0</ele><time>2026-04-12T13:35:07.999Z</time></trkpt><trkpt lat="41.98671198788648" lon="13.225297497721696"><ele>1306.0</ele><time>2026-04-12T13:35:08.999Z</time></trkpt><trkpt lat="41.986761710720934" lon="13.225229182276546"><ele>1306.0</ele><time>2026-04-12T13:35:09.999Z</time></trkpt><trkpt lat="41.98681757514986" lon="13.225160933224934"><ele>1306.0</ele><time>2026-04-12T13:35:10.999Z</time></trkpt><trkpt lat="41.98688067338082" lon="13.225094014179687"><ele>1306.0</ele><time>2026-04-12T13:35:11.999Z</time></trkpt><trkpt lat="41.98694932454527" lon="13.225007740873345"><ele>1307.6666666666665</ele><time>2026-04-12T13:35:12.999Z</time></trkpt><trkpt lat="41.98700787458072" lon="13.224913055342705"><ele>1309.3333333333333</ele><time>2026-04-12T13:35:13.999Z</time></trkpt><trkpt lat="41.98706021407636" lon="13.224814741039319"><ele>1311.0</ele><time>2026-04-12T13:35:14.999Z</time></trkpt><trkpt lat="41.98715521340959" lon="13.22473133189194"><ele>1312.6666666666667</ele><time>2026-04-12T13:35:16.999Z</time></trkpt><trkpt lat="41.98721434807573" lon="13.224682104680003"><ele>1314.3333333333335</ele><time>2026-04-12T13:35:17.999Z</time></trkpt><trkpt lat="41.98727217010082" lon="13.224632837178376"><ele>1316.0</ele><time>2026-04-12T13:35:18.999Z</time></trkpt><trkpt lat="41.98737086033141" lon="13.22452889812055"><ele>1316.0</ele><time>2026-04-12T13:35:20.999Z</time></trkpt><trkpt lat="41.98745799599778" lon="13.224459180447306"><ele>1316.0</ele><time>2026-04-12T13:35:22.999Z</time></trkpt><trkpt lat="41.98756564404289" lon="13.224349940815907"><ele>1316.0</ele><time>2026-04-12T13:35:24.999Z</time></trkpt><trkpt lat="41.98762413706774" lon="13.224261996845362"><ele>1316.0</ele><time>2026-04-12T13:35:25.999Z</time></trkpt><trkpt lat="41.98768444940711" lon="13.224172818379571"><ele>1316.0</ele><time>2026-04-12T13:35:26.999Z</time></trkpt><trkpt lat="41.9877363922994" lon="13.224098559642878"><ele>1316.6666666666667</ele><time>2026-04-12T13:35:27.999Z</time></trkpt><trkpt lat="41.98778228266228" lon="13.224034072835538"><ele>1317.3333333333335</ele><time>2026-04-12T13:35:28.999Z</time></trkpt><trkpt lat="41.987827783176186" lon="13.223967249234729"><ele>1318.0</ele><time>2026-04-12T13:35:29.999Z</time></trkpt><trkpt lat="41.98788600618346" lon="13.223916656656902"><ele>1318.6666666666667</ele><time>2026-04-12T13:35:30.999Z</time></trkpt><trkpt lat="41.98794104564161" lon="13.223865430467724"><ele>1319.3333333333333</ele><time>2026-04-12T13:35:31.999Z</time></trkpt><trkpt lat="41.98804704024284" lon="13.223792386412173"><ele>1320.0</ele><time>2026-04-12T13:35:33.999Z</time></trkpt><trkpt lat="41.988172549035006" lon="13.223752428343781"><ele>1321.4</ele><time>2026-04-12T13:35:35.998Z</time></trkpt><trkpt lat="41.988250121643" lon="13.223715747085642"><ele>1322.8</ele><time>2026-04-12T13:35:36.998Z</time></trkpt><trkpt lat="41.988351925514145" lon="13.223674125583127"><ele>1324.1999999999998</ele><time>2026-04-12T13:35:37.998Z</time></trkpt><trkpt lat="41.98845257508904" lon="13.22363261485419"><ele>1325.6</ele><time>2026-04-12T13:35:38.998Z</time></trkpt><trkpt lat="41.98853026911333" lon="13.223584487129454"><ele>1327.0</ele><time>2026-04-12T13:35:39.998Z</time></trkpt><trkpt lat="41.98860663440647" lon="13.223497531248377"><ele>1327.1666666666665</ele><time>2026-04-12T13:35:40.998Z</time></trkpt><trkpt lat="41.98866704486025" lon="13.223407473388287"><ele>1327.3333333333333</ele><time>2026-04-12T13:35:41.998Z</time></trkpt><trkpt lat="41.98871993003481" lon="13.223293365074046"><ele>1327.5</ele><time>2026-04-12T13:35:42.998Z</time></trkpt><trkpt lat="41.988752806610066" lon="13.223175222342682"><ele>1327.6666666666667</ele><time>2026-04-12T13:35:43.998Z</time></trkpt><trkpt lat="41.988783001646645" lon="13.223086334654804"><ele>1327.8333333333335</ele><time>2026-04-12T13:35:44.998Z</time></trkpt><trkpt lat="41.98883315382184" lon="13.222998713204014"><ele>1328.0</ele><time>2026-04-12T13:35:45.998Z</time></trkpt><trkpt lat="41.988905395518735" lon="13.222925935687737"><ele>1328.0</ele><time>2026-04-12T13:35:46.998Z</time></trkpt><trkpt lat="41.98898032085528" lon="13.222863655767778"><ele>1328.0</ele><time>2026-04-12T13:35:47.998Z</time></trkpt><trkpt lat="41.98907696722446" lon="13.222795448818555"><ele>1328.0</ele><time>2026-04-12T13:35:48.998Z</time></trkpt><trkpt lat="41.9891746603269" lon="13.22271706960749"><ele>1328.0</ele><time>2026-04-12T13:35:49.998Z</time></trkpt><trkpt lat="41.98925132915298" lon="13.222661344863628"><ele>1328.0</ele><time>2026-04-12T13:35:50.998Z</time></trkpt><trkpt lat="41.989323049382705" lon="13.22262959384109"><ele>1330.1666666666667</ele><time>2026-04-12T13:35:51.998Z</time></trkpt><trkpt lat="41.989388141173905" lon="13.222617739543185"><ele>1332.3333333333335</ele><time>2026-04-12T13:35:52.998Z</time></trkpt><trkpt lat="41.98945153542031" lon="13.222617925576682"><ele>1334.5</ele><time>2026-04-12T13:35:53.998Z</time></trkpt><trkpt lat="41.989522305441376" lon="13.222639659862502"><ele>1336.6666666666667</ele><time>2026-04-12T13:35:54.998Z</time></trkpt><trkpt lat="41.98958516947542" lon="13.222690308340633"><ele>1338.8333333333333</ele><time>2026-04-12T13:35:55.998Z</time></trkpt><trkpt lat="41.98965836722889" lon="13.222737945644823"><ele>1341.0</ele><time>2026-04-12T13:35:56.998Z</time></trkpt><trkpt lat="41.98974763176007" lon="13.222774557700111"><ele>1341.0</ele><time>2026-04-12T13:35:57.998Z</time></trkpt><trkpt lat="41.98982343694449" lon="13.222800142459397"><ele>1341.0</ele><time>2026-04-12T13:35:58.998Z</time></trkpt><trkpt lat="41.98991218965534" lon="13.222833368814337"><ele>1341.0</ele><time>2026-04-12T13:35:59.998Z</time></trkpt><trkpt lat="41.989983245105954" lon="13.222869159733294"><ele>1341.0</ele><time>2026-04-12T13:36:00.998Z</time></trkpt><trkpt lat="41.9900605514183" lon="13.222923235213944"><ele>1341.0</ele><time>2026-04-12T13:36:01.998Z</time></trkpt><trkpt lat="41.99012125115693" lon="13.22296217993468"><ele>1341.0</ele><time>2026-04-12T13:36:02.998Z</time></trkpt><trkpt lat="41.990186706517825" lon="13.222980652969978"><ele>1342.3333333333333</ele><time>2026-04-12T13:36:03.998Z</time></trkpt><trkpt lat="41.9902588478595" lon="13.222981896780944"><ele>1343.6666666666667</ele><time>2026-04-12T13:36:04.998Z</time></trkpt><trkpt lat="41.99034862824802" lon="13.222985888973364"><ele>1345.0</ele><time>2026-04-12T13:36:05.998Z</time></trkpt><trkpt lat="41.990437258191285" lon="13.222983903468492"><ele>1346.3333333333335</ele><time>2026-04-12T13:36:06.998Z</time></trkpt><trkpt lat="41.99053110482128" lon="13.223003265924099"><ele>1347.6666666666667</ele><time>2026-04-12T13:36:07.998Z</time></trkpt><trkpt lat="41.99062615401915" lon="13.223046967797652"><ele>1349.0</ele><time>2026-04-12T13:36:08.998Z</time></trkpt><trkpt lat="41.99072212677544" lon="13.223084396984099"><ele>1349.0</ele><time>2026-04-12T13:36:09.998Z</time></trkpt><trkpt lat="41.99079319151344" lon="13.22308516434398"><ele>1349.0</ele><time>2026-04-12T13:36:10.998Z</time></trkpt><trkpt lat="41.99086028638089" lon="13.223060629210615"><ele>1349.0</ele><time>2026-04-12T13:36:11.998Z</time></trkpt><trkpt lat="41.9909332889079" lon="13.22301843021043"><ele>1349.0</ele><time>2026-04-12T13:36:12.998Z</time></trkpt><trkpt lat="41.99102526246808" lon="13.222975506449007"><ele>1349.0</ele><time>2026-04-12T13:36:13.998Z</time></trkpt><trkpt lat="41.991118577580615" lon="13.222931492120034"><ele>1349.0</ele><time>2026-04-12T13:36:14.998Z</time></trkpt><trkpt lat="41.991208493131815" lon="13.22288055898053"><ele>1350.8000000000002</ele><time>2026-04-12T13:36:15.998Z</time></trkpt><trkpt lat="41.99130414982572" lon="13.222832063677448"><ele>1352.6000000000001</ele><time>2026-04-12T13:36:16.998Z</time></trkpt><trkpt lat="41.99138304965384" lon="13.222775273210715"><ele>1354.4</ele><time>2026-04-12T13:36:17.998Z</time></trkpt><trkpt lat="41.991457402113035" lon="13.222694585993638"><ele>1356.2</ele><time>2026-04-12T13:36:18.998Z</time></trkpt><trkpt lat="41.99149275516051" lon="13.222618105795817"><ele>1358.0</ele><time>2026-04-12T13:36:19.998Z</time></trkpt><trkpt lat="41.99150075058524" lon="13.222455818654614"><ele>1358.0</ele><time>2026-04-12T13:36:21.997Z</time></trkpt><trkpt lat="41.991507000798244" lon="13.222358202688996"><ele>1358.0</ele><time>2026-04-12T13:36:22.997Z</time></trkpt><trkpt lat="41.99155404315366" lon="13.222180432318558"><ele>1358.0</ele><time>2026-04-12T13:36:24.997Z</time></trkpt><trkpt lat="41.99158420609299" lon="13.222096965669124"><ele>1358.0</ele><time>2026-04-12T13:36:25.997Z</time></trkpt><trkpt lat="41.99161749686181" lon="13.222015704106317"><ele>1358.0</ele><time>2026-04-12T13:36:26.997Z</time></trkpt><trkpt lat="41.99165418235539" lon="13.221920146741356"><ele>1358.0</ele><time>2026-04-12T13:36:27.997Z</time></trkpt><trkpt lat="41.991688978818395" lon="13.221837327978724"><ele>1355.0</ele><time>2026-04-12T13:36:28.997Z</time></trkpt><trkpt lat="41.99175163949371" lon="13.221714164966807"><ele>1352.0</ele><time>2026-04-12T13:36:30.997Z</time></trkpt><trkpt lat="41.99182052262283" lon="13.221591520782548"><ele>1349.0</ele><time>2026-04-12T13:36:32.997Z</time></trkpt><trkpt lat="41.991869874677555" lon="13.221536423733768"><ele>1346.0</ele><time>2026-04-12T13:36:34Z</time></trkpt><trkpt lat="41.99193356512672" lon="13.22150317770998"><ele>1343.0</ele><time>2026-04-12T13:36:35Z</time></trkpt><trkpt lat="41.9919997047216" lon="13.221477021579913"><ele>1340.0</ele><time>2026-04-12T13:36:36Z</time></trkpt><trkpt lat="41.99207042725968" lon="13.221463660472379"><ele>1340.0</ele><time>2026-04-12T13:36:37Z</time></trkpt><trkpt lat="41.99219124498699" lon="13.221451294793459"><ele>1340.0</ele><time>2026-04-12T13:36:39Z</time></trkpt><trkpt lat="41.99225568267716" lon="13.221461000137184"><ele>1340.0</ele><time>2026-04-12T13:36:40Z</time></trkpt><trkpt lat="41.99232109075814" lon="13.221481033024325"><ele>1340.0</ele><time>2026-04-12T13:36:41Z</time></trkpt><trkpt lat="41.9924053865392" lon="13.22153706840815"><ele>1340.0</ele><time>2026-04-12T13:36:42Z</time></trkpt><trkpt lat="41.99246419023689" lon="13.221611045102998"><ele>1340.0</ele><time>2026-04-12T13:36:43Z</time></trkpt><trkpt lat="41.99252570939166" lon="13.221689216584691"><ele>1339.5</ele><time>2026-04-12T13:36:44Z</time></trkpt><trkpt lat="41.99259842432587" lon="13.221771437829402"><ele>1339.0</ele><time>2026-04-12T13:36:45Z</time></trkpt><trkpt lat="41.992670719686906" lon="13.221830669975686"><ele>1338.5</ele><time>2026-04-12T13:36:46Z</time></trkpt><trkpt lat="41.9927329825167" lon="13.221893884400577"><ele>1338.0</ele><time>2026-04-12T13:36:47Z</time></trkpt><trkpt lat="41.992806727820096" lon="13.221952732337142"><ele>1337.5</ele><time>2026-04-12T13:36:48Z</time></trkpt><trkpt lat="41.9928807918915" lon="13.222000991599609"><ele>1337.0</ele><time>2026-04-12T13:36:49Z</time></trkpt><trkpt lat="41.99296436214205" lon="13.222060788737913"><ele>1337.0</ele><time>2026-04-12T13:36:50Z</time></trkpt><trkpt lat="41.993054570890294" lon="13.222105667748954"><ele>1337.0</ele><time>2026-04-12T13:36:50.999Z</time></trkpt><trkpt lat="41.993150417147994" lon="13.222129002158027"><ele>1337.0</ele><time>2026-04-12T13:36:51.999Z</time></trkpt><trkpt lat="41.99324370399529" lon="13.222155397022156"><ele>1337.0</ele><time>2026-04-12T13:36:52.999Z</time></trkpt><trkpt lat="41.99332811448257" lon="13.222180977534313"><ele>1337.0</ele><time>2026-04-12T13:36:53.999Z</time></trkpt><trkpt lat="41.993418702012136" lon="13.222208356486643"><ele>1336.5</ele><time>2026-04-12T13:36:54.999Z</time></trkpt><trkpt lat="41.99350816064589" lon="13.222262737558461"><ele>1336.0</ele><time>2026-04-12T13:36:55.999Z</time></trkpt><trkpt lat="41.993618857070366" lon="13.22233238421433"><ele>1335.5</ele><time>2026-04-12T13:36:56.999Z</time></trkpt><trkpt lat="41.993734361550075" lon="13.222424303537998"><ele>1335.0</ele><time>2026-04-12T13:36:57.999Z</time></trkpt><trkpt lat="41.993844576521276" lon="13.222523288577813"><ele>1335.0</ele><time>2026-04-12T13:36:58.999Z</time></trkpt><trkpt lat="41.99397134122574" lon="13.222606623921395"><ele>1335.0</ele><time>2026-04-12T13:36:59.999Z</time></trkpt><trkpt lat="41.99404760759535" lon="13.222693726830252"><ele>1335.0</ele><time>2026-04-12T13:37:00.999Z</time></trkpt><trkpt lat="41.99413472150339" lon="13.222790792362376"><ele>1335.0</ele><time>2026-04-12T13:37:01.999Z</time></trkpt><trkpt lat="41.99419764441365" lon="13.222920150096332"><ele>1335.0</ele><time>2026-04-12T13:37:02.999Z</time></trkpt><trkpt lat="41.994263938778296" lon="13.223033651825917"><ele>1335.0</ele><time>2026-04-12T13:37:03.999Z</time></trkpt><trkpt lat="41.99432768616496" lon="13.223116634244853"><ele>1335.0</ele><time>2026-04-12T13:37:04.999Z</time></trkpt><trkpt lat="41.99437942587901" lon="13.223184703255066"><ele>1335.0</ele><time>2026-04-12T13:37:05.999Z</time></trkpt><trkpt lat="41.994480153211434" lon="13.223291335024504"><ele>1335.0</ele><time>2026-04-12T13:37:07.999Z</time></trkpt><trkpt lat="41.99453865569761" lon="13.223343627324425"><ele>1335.0</ele><time>2026-04-12T13:37:08.999Z</time></trkpt><trkpt lat="41.99462556304823" lon="13.223386632957698"><ele>1335.0</ele><time>2026-04-12T13:37:09.999Z</time></trkpt><trkpt lat="41.994708826842206" lon="13.223422731465313"><ele>1335.0</ele><time>2026-04-12T13:37:10.999Z</time></trkpt><trkpt lat="41.99479229934834" lon="13.223454122714534"><ele>1335.0</ele><time>2026-04-12T13:37:11.999Z</time></trkpt><trkpt lat="41.99488127183592" lon="13.223499274046869"><ele>1335.0</ele><time>2026-04-12T13:37:12.999Z</time></trkpt><trkpt lat="41.99496029999318" lon="13.22352738169408"><ele>1335.0</ele><time>2026-04-12T13:37:13.999Z</time></trkpt><trkpt lat="41.99503729904314" lon="13.223550658588735"><ele>1335.5</ele><time>2026-04-12T13:37:14.999Z</time></trkpt><trkpt lat="41.995109929072086" lon="13.223579187767863"><ele>1336.0</ele><time>2026-04-12T13:37:15.999Z</time></trkpt><trkpt lat="41.995178397960025" lon="13.22362297507581"><ele>1336.5</ele><time>2026-04-12T13:37:16.999Z</time></trkpt><trkpt lat="41.99526788931146" lon="13.223660258358558"><ele>1337.0</ele><time>2026-04-12T13:37:17.999Z</time></trkpt><trkpt lat="41.99535243950112" lon="13.223673357281113"><ele>1337.5</ele><time>2026-04-12T13:37:18.999Z</time></trkpt><trkpt lat="41.995446676280515" lon="13.223672492469507"><ele>1338.0</ele><time>2026-04-12T13:37:19.999Z</time></trkpt><trkpt lat="41.99552681539721" lon="13.223675920906945"><ele>1338.0</ele><time>2026-04-12T13:37:20.999Z</time></trkpt><trkpt lat="41.995603918084214" lon="13.223677076933411"><ele>1338.0</ele><time>2026-04-12T13:37:21.999Z</time></trkpt><trkpt lat="41.99566917695249" lon="13.223670249373576"><ele>1338.0</ele><time>2026-04-12T13:37:22.999Z</time></trkpt><trkpt lat="41.99573545818977" lon="13.223648567042828"><ele>1338.0</ele><time>2026-04-12T13:37:23.999Z</time></trkpt><trkpt lat="41.99582270633636" lon="13.223639235260922"><ele>1338.0</ele><time>2026-04-12T13:37:24.999Z</time></trkpt><trkpt lat="41.99590030629853" lon="13.223610349030903"><ele>1338.0</ele><time>2026-04-12T13:37:25.999Z</time></trkpt><trkpt lat="41.99597983037672" lon="13.223585356094366"><ele>1339.0</ele><time>2026-04-12T13:37:26.999Z</time></trkpt><trkpt lat="41.996048844645955" lon="13.223584506470859"><ele>1340.0</ele><time>2026-04-12T13:37:27.999Z</time></trkpt><trkpt lat="41.99611330503246" lon="13.223589465269987"><ele>1341.0</ele><time>2026-04-12T13:37:28.999Z</time></trkpt><trkpt lat="41.996184253733105" lon="13.22358405893082"><ele>1342.0</ele><time>2026-04-12T13:37:29.999Z</time></trkpt><trkpt lat="41.99627784381182" lon="13.223596112897695"><ele>1343.0</ele><time>2026-04-12T13:37:30.999Z</time></trkpt><trkpt lat="41.996381415682954" lon="13.223614363546554"><ele>1344.0</ele><time>2026-04-12T13:37:31.999Z</time></trkpt><trkpt lat="41.9964763969525" lon="13.22364303635969"><ele>1344.0</ele><time>2026-04-12T13:37:32.999Z</time></trkpt><trkpt lat="41.996562027314916" lon="13.223678990799543"><ele>1344.0</ele><time>2026-04-12T13:37:33.999Z</time></trkpt><trkpt lat="41.99664194865475" lon="13.223717647559447"><ele>1344.0</ele><time>2026-04-12T13:37:34.999Z</time></trkpt><trkpt lat="41.996738113884" lon="13.223768794979774"><ele>1344.0</ele><time>2026-04-12T13:37:35.999Z</time></trkpt><trkpt lat="41.99680997274809" lon="13.223807999574719"><ele>1344.0</ele><time>2026-04-12T13:37:36.999Z</time></trkpt><trkpt lat="41.99686788248767" lon="13.223857010500364"><ele>1344.0</ele><time>2026-04-12T13:37:37.998Z</time></trkpt><trkpt lat="41.996933239110305" lon="13.22392825648952"><ele>1345.0</ele><time>2026-04-12T13:37:38.998Z</time></trkpt><trkpt lat="41.99697825260873" lon="13.224008259504593"><ele>1346.0</ele><time>2026-04-12T13:37:39.998Z</time></trkpt><trkpt lat="41.997034053670156" lon="13.224102323498652"><ele>1347.0</ele><time>2026-04-12T13:37:40.998Z</time></trkpt><trkpt lat="41.99707004131294" lon="13.2241826204196"><ele>1348.0</ele><time>2026-04-12T13:37:41.998Z</time></trkpt><trkpt lat="41.997106329588426" lon="13.224296647967854"><ele>1349.0</ele><time>2026-04-12T13:37:42.998Z</time></trkpt><trkpt lat="41.99712671598706" lon="13.224425821932"><ele>1350.0</ele><time>2026-04-12T13:37:43.998Z</time></trkpt><trkpt lat="41.997151904819866" lon="13.224547850462324"><ele>1350.0</ele><time>2026-04-12T13:37:44.998Z</time></trkpt><trkpt lat="41.99717047958941" lon="13.224668158492971"><ele>1350.0</ele><time>2026-04-12T13:37:45.998Z</time></trkpt><trkpt lat="41.99720116756928" lon="13.224794894892325"><ele>1350.0</ele><time>2026-04-12T13:37:46.998Z</time></trkpt><trkpt lat="41.99725071070361" lon="13.224928829440666"><ele>1350.0</ele><time>2026-04-12T13:37:47.998Z</time></trkpt><trkpt lat="41.99730743774358" lon="13.225066378052482"><ele>1350.0</ele><time>2026-04-12T13:37:48.998Z</time></trkpt><trkpt lat="41.997374374700264" lon="13.22518122639203"><ele>1349.5</ele><time>2026-04-12T13:37:49.998Z</time></trkpt><trkpt lat="41.99745912284099" lon="13.225280523390756"><ele>1349.0</ele><time>2026-04-12T13:37:50.998Z</time></trkpt><trkpt lat="41.99754597909434" lon="13.22538618558231"><ele>1348.5</ele><time>2026-04-12T13:37:51.998Z</time></trkpt><trkpt lat="41.997635345367854" lon="13.225489316743287"><ele>1348.0</ele><time>2026-04-12T13:37:52.998Z</time></trkpt><trkpt lat="41.997717190134566" lon="13.225609152252476"><ele>1349.4</ele><time>2026-04-12T13:37:53.998Z</time></trkpt><trkpt lat="41.99778402872136" lon="13.22573914458993"><ele>1350.8000000000002</ele><time>2026-04-12T13:37:54.998Z</time></trkpt><trkpt lat="41.99783249529161" lon="13.22586069889966"><ele>1352.2</ele><time>2026-04-12T13:37:55.998Z</time></trkpt><trkpt lat="41.99786464231493" lon="13.226004841016037"><ele>1353.6</ele><time>2026-04-12T13:37:56.998Z</time></trkpt><trkpt lat="41.99787140060397" lon="13.226162672173071"><ele>1355.0</ele><time>2026-04-12T13:37:57.998Z</time></trkpt><trkpt lat="41.99786674243972" lon="13.226305579103636"><ele>1355.0</ele><time>2026-04-12T13:37:58.998Z</time></trkpt><trkpt lat="41.99789842215051" lon="13.226417501359874"><ele>1355.0</ele><time>2026-04-12T13:37:59.998Z</time></trkpt><trkpt lat="41.99796224612384" lon="13.226518470329564"><ele>1355.0</ele><time>2026-04-12T13:38:00.998Z</time></trkpt><trkpt lat="41.9980388106693" lon="13.22662913583175"><ele>1355.0</ele><time>2026-04-12T13:38:01.999Z</time></trkpt><trkpt lat="41.99810999074387" lon="13.226706938004275"><ele>1355.0</ele><time>2026-04-12T13:38:02.999Z</time></trkpt><trkpt lat="41.99816116359943" lon="13.22679950891862"><ele>1354.8</ele><time>2026-04-12T13:38:03.999Z</time></trkpt><trkpt lat="41.998201718599866" lon="13.226891415008154"><ele>1354.6</ele><time>2026-04-12T13:38:04.999Z</time></trkpt><trkpt lat="41.998224244153725" lon="13.226998985067105"><ele>1354.4</ele><time>2026-04-12T13:38:05.999Z</time></trkpt><trkpt lat="41.9982224871776" lon="13.227118228817645"><ele>1354.2</ele><time>2026-04-12T13:38:06.999Z</time></trkpt><trkpt lat="41.998201211828246" lon="13.227254376092983"><ele>1354.0</ele><time>2026-04-12T13:38:07.999Z</time></trkpt><trkpt lat="41.99816952879655" lon="13.22740233283859"><ele>1354.0</ele><time>2026-04-12T13:38:08.999Z</time></trkpt><trkpt lat="41.99814349513392" lon="13.227559360850963"><ele>1354.0</ele><time>2026-04-12T13:38:09.999Z</time></trkpt><trkpt lat="41.998099699732585" lon="13.227716067158244"><ele>1354.0</ele><time>2026-04-12T13:38:10.999Z</time></trkpt><trkpt lat="41.99803636409831" lon="13.227869571175104"><ele>1354.0</ele><time>2026-04-12T13:38:11.999Z</time></trkpt><trkpt lat="41.997987628094926" lon="13.227980049371457"><ele>1354.0</ele><time>2026-04-12T13:38:12.999Z</time></trkpt><trkpt lat="41.997948117461604" lon="13.228104301058066"><ele>1354.0</ele><time>2026-04-12T13:38:13.999Z</time></trkpt><trkpt lat="41.997941608669734" lon="13.228253030786464"><ele>1354.0</ele><time>2026-04-12T13:38:14.999Z</time></trkpt><trkpt lat="41.99795308206127" lon="13.228408294727926"><ele>1354.0</ele><time>2026-04-12T13:38:15.999Z</time></trkpt><trkpt lat="41.997959132711046" lon="13.228568299001683"><ele>1354.0</ele><time>2026-04-12T13:38:16.999Z</time></trkpt><trkpt lat="41.9979507484869" lon="13.228719890157041"><ele>1355.0</ele><time>2026-04-12T13:38:17.999Z</time></trkpt><trkpt lat="41.99792630295227" lon="13.228852677126193"><ele>1356.0</ele><time>2026-04-12T13:38:18.999Z</time></trkpt><trkpt lat="41.99790049826787" lon="13.228979414557616"><ele>1357.0</ele><time>2026-04-12T13:38:19.999Z</time></trkpt><trkpt lat="41.99787980002098" lon="13.229113128935179"><ele>1358.0</ele><time>2026-04-12T13:38:20.999Z</time></trkpt><trkpt lat="41.99786634748425" lon="13.229242045063279"><ele>1359.0</ele><time>2026-04-12T13:38:21.999Z</time></trkpt><trkpt lat="41.99787282493428" lon="13.229333557212442"><ele>1359.0</ele><time>2026-04-12T13:38:22.999Z</time></trkpt><trkpt lat="41.997898688175496" lon="13.229431512778822"><ele>1359.0</ele><time>2026-04-12T13:38:23.998Z</time></trkpt><trkpt lat="41.99793867238899" lon="13.229534970441879"><ele>1359.0</ele><time>2026-04-12T13:38:24.998Z</time></trkpt><trkpt lat="41.99795240035084" lon="13.229639766527974"><ele>1359.0</ele><time>2026-04-12T13:38:25.998Z</time></trkpt><trkpt lat="41.99795331408649" lon="13.229752588672307"><ele>1359.0</ele><time>2026-04-12T13:38:26.998Z</time></trkpt><trkpt lat="41.997951531737606" lon="13.22990441796235"><ele>1359.0</ele><time>2026-04-12T13:38:27.998Z</time></trkpt><trkpt lat="41.99795757266575" lon="13.230064762530231"><ele>1359.0</ele><time>2026-04-12T13:38:28.998Z</time></trkpt><trkpt lat="41.99798591638347" lon="13.2302185675815"><ele>1359.0</ele><time>2026-04-12T13:38:29.998Z</time></trkpt><trkpt lat="41.99801675010056" lon="13.23035937545177"><ele>1359.0</ele><time>2026-04-12T13:38:30.998Z</time></trkpt><trkpt lat="41.998029381150396" lon="13.230473455089458"><ele>1359.0</ele><time>2026-04-12T13:38:31.998Z</time></trkpt><trkpt lat="41.99802924376623" lon="13.230609734471894"><ele>1359.0</ele><time>2026-04-12T13:38:32.998Z</time></trkpt><trkpt lat="41.998020676829135" lon="13.230712522759152"><ele>1358.4</ele><time>2026-04-12T13:38:33.998Z</time></trkpt><trkpt lat="41.998013086938215" lon="13.230803094270723"><ele>1357.8000000000002</ele><time>2026-04-12T13:38:34.998Z</time></trkpt><trkpt lat="41.99800754967128" lon="13.230993049907537"><ele>1357.1999999999998</ele><time>2026-04-12T13:38:36.998Z</time></trkpt><trkpt lat="41.9979958648274" lon="13.23111656231449"><ele>1356.6</ele><time>2026-04-12T13:38:37.998Z</time></trkpt><trkpt lat="41.997985582233696" lon="13.231229487828271"><ele>1356.0</ele><time>2026-04-12T13:38:39.001Z</time></trkpt><trkpt lat="41.99800158044525" lon="13.231329867765721"><ele>1356.0</ele><time>2026-04-12T13:38:40.001Z</time></trkpt><trkpt lat="41.99803537727921" lon="13.231420093656617"><ele>1356.0</ele><time>2026-04-12T13:38:41Z</time></trkpt><trkpt lat="41.99809640712185" lon="13.231505622392513"><ele>1356.0</ele><time>2026-04-12T13:38:42Z</time></trkpt><trkpt lat="41.998166621652" lon="13.231571735162783"><ele>1356.0</ele><time>2026-04-12T13:38:43.001Z</time></trkpt><trkpt lat="41.9982444758687" lon="13.231623585227776"><ele>1356.0</ele><time>2026-04-12T13:38:44Z</time></trkpt><trkpt lat="41.998325242207144" lon="13.231667028842432"><ele>1356.0</ele><time>2026-04-12T13:38:45Z</time></trkpt><trkpt lat="41.99839765164229" lon="13.231682519304941"><ele>1356.1666666666667</ele><time>2026-04-12T13:38:46.001Z</time></trkpt><trkpt lat="41.998469915491064" lon="13.231686815996289"><ele>1356.3333333333333</ele><time>2026-04-12T13:38:47Z</time></trkpt><trkpt lat="41.9985421858675" lon="13.231676149810774"><ele>1356.5</ele><time>2026-04-12T13:38:48Z</time></trkpt><trkpt lat="41.9986255023764" lon="13.231627833983277"><ele>1356.6666666666665</ele><time>2026-04-12T13:38:49.001Z</time></trkpt><trkpt lat="41.99870716398769" lon="13.231558854392965"><ele>1356.8333333333333</ele><time>2026-04-12T13:38:50Z</time></trkpt><trkpt lat="41.99879791702457" lon="13.231474433671686"><ele>1357.0</ele><time>2026-04-12T13:38:51.001Z</time></trkpt><trkpt lat="41.99887677859782" lon="13.231406009699919"><ele>1357.0</ele><time>2026-04-12T13:38:52.001Z</time></trkpt><trkpt lat="41.99895191722581" lon="13.231350159893873"><ele>1357.0</ele><time>2026-04-12T13:38:53Z</time></trkpt><trkpt lat="41.9990192099647" lon="13.2313034547441"><ele>1357.0</ele><time>2026-04-12T13:38:54Z</time></trkpt><trkpt lat="41.99909792277462" lon="13.231234652692093"><ele>1357.0</ele><time>2026-04-12T13:38:55Z</time></trkpt><trkpt lat="41.99917472010289" lon="13.231149090757592"><ele>1357.0</ele><time>2026-04-12T13:38:56Z</time></trkpt><trkpt lat="41.99925733569463" lon="13.231064086266601"><ele>1357.5</ele><time>2026-04-12T13:38:57Z</time></trkpt><trkpt lat="41.999359983052834" lon="13.230981911071222"><ele>1358.0</ele><time>2026-04-12T13:38:58Z</time></trkpt><trkpt lat="41.99946555297351" lon="13.230918710014825"><ele>1358.5</ele><time>2026-04-12T13:38:59Z</time></trkpt><trkpt lat="41.999568563655984" lon="13.23085722228023"><ele>1359.0</ele><time>2026-04-12T13:39:00Z</time></trkpt><trkpt lat="41.99966585467771" lon="13.230798357598525"><ele>1359.0</ele><time>2026-04-12T13:39:01Z</time></trkpt><trkpt lat="41.99976710835107" lon="13.23072804146945"><ele>1359.0</ele><time>2026-04-12T13:39:02Z</time></trkpt><trkpt lat="41.99988655680798" lon="13.230649883688224"><ele>1359.0</ele><time>2026-04-12T13:39:03Z</time></trkpt><trkpt lat="42.00001627153599" lon="13.23057034303891"><ele>1359.0</ele><time>2026-04-12T13:39:04Z</time></trkpt><trkpt lat="42.00013990479689" lon="13.230494647739166"><ele>1359.5</ele><time>2026-04-12T13:39:05Z</time></trkpt><trkpt lat="42.00025230608362" lon="13.230406760785286"><ele>1360.0</ele><time>2026-04-12T13:39:06Z</time></trkpt><trkpt lat="42.000370251975525" lon="13.230319678251941"><ele>1360.5</ele><time>2026-04-12T13:39:07Z</time></trkpt><trkpt lat="42.00046880778656" lon="13.23025271132483"><ele>1361.0</ele><time>2026-04-12T13:39:08Z</time></trkpt><trkpt lat="42.000551315312194" lon="13.2301865775623"><ele>1361.0</ele><time>2026-04-12T13:39:09Z</time></trkpt><trkpt lat="42.00062142421803" lon="13.230117565927587"><ele>1361.0</ele><time>2026-04-12T13:39:10Z</time></trkpt><trkpt lat="42.000673582473084" lon="13.230044644111448"><ele>1361.0</ele><time>2026-04-12T13:39:11Z</time></trkpt><trkpt lat="42.000736884849665" lon="13.2299452671132"><ele>1361.0</ele><time>2026-04-12T13:39:13Z</time></trkpt><trkpt lat="42.00088388000059" lon="13.229857111487041"><ele>1361.0</ele><time>2026-04-12T13:39:15Z</time></trkpt><trkpt lat="42.00099255464164" lon="13.229832569903781"><ele>1360.1666666666667</ele><time>2026-04-12T13:39:16Z</time></trkpt><trkpt lat="42.001096031718596" lon="13.229812897259784"><ele>1359.3333333333335</ele><time>2026-04-12T13:39:17Z</time></trkpt><trkpt lat="42.001174927064596" lon="13.229774787379462"><ele>1358.5</ele><time>2026-04-12T13:39:18Z</time></trkpt><trkpt lat="42.00126149399575" lon="13.229718418731848"><ele>1357.6666666666667</ele><time>2026-04-12T13:39:19Z</time></trkpt><trkpt lat="42.00133287099118" lon="13.229655095471438"><ele>1356.8333333333333</ele><time>2026-04-12T13:39:20Z</time></trkpt><trkpt lat="42.00139719254831" lon="13.229604012705073"><ele>1356.0</ele><time>2026-04-12T13:39:21Z</time></trkpt><trkpt lat="42.00146626389359" lon="13.229545941870656"><ele>1358.1999999999998</ele><time>2026-04-12T13:39:22Z</time></trkpt><trkpt lat="42.00153836938983" lon="13.229468020531254"><ele>1360.3999999999999</ele><time>2026-04-12T13:39:23Z</time></trkpt><trkpt lat="42.001612470543904" lon="13.22939824370332"><ele>1362.6</ele><time>2026-04-12T13:39:24Z</time></trkpt><trkpt lat="42.00168471123971" lon="13.229331036886679"><ele>1364.8</ele><time>2026-04-12T13:39:25Z</time></trkpt><trkpt lat="42.00176710505224" lon="13.229267664157199"><ele>1367.0</ele><time>2026-04-12T13:39:26Z</time></trkpt><trkpt lat="42.00185455987871" lon="13.22920113096416"><ele>1367.0</ele><time>2026-04-12T13:39:27Z</time></trkpt><trkpt lat="42.001941919764555" lon="13.229117284977741"><ele>1367.0</ele><time>2026-04-12T13:39:28Z</time></trkpt><trkpt lat="42.002035714247626" lon="13.229021824995622"><ele>1367.0</ele><time>2026-04-12T13:39:29Z</time></trkpt><trkpt lat="42.00212363250195" lon="13.228923916242033"><ele>1367.0</ele><time>2026-04-12T13:39:30Z</time></trkpt><trkpt lat="42.00219883938228" lon="13.228836840230262"><ele>1367.0</ele><time>2026-04-12T13:39:31Z</time></trkpt><trkpt lat="42.002265420772055" lon="13.22876453450846"><ele>1366.3999999999999</ele><time>2026-04-12T13:39:32Z</time></trkpt><trkpt lat="42.00233643186994" lon="13.22871037168908"><ele>1365.8</ele><time>2026-04-12T13:39:33Z</time></trkpt><trkpt lat="42.00242464329552" lon="13.228667634395974"><ele>1365.2</ele><time>2026-04-12T13:39:34Z</time></trkpt><trkpt lat="42.002521196566455" lon="13.22864494717736"><ele>1364.6</ele><time>2026-04-12T13:39:35Z</time></trkpt><trkpt lat="42.00263156902309" lon="13.228625389977871"><ele>1364.0</ele><time>2026-04-12T13:39:36Z</time></trkpt><trkpt lat="42.00273209761202" lon="13.22860407174307"><ele>1364.0</ele><time>2026-04-12T13:39:37Z</time></trkpt><trkpt lat="42.002820062510835" lon="13.228581357738292"><ele>1364.0</ele><time>2026-04-12T13:39:37.999Z</time></trkpt><trkpt lat="42.00291885439392" lon="13.228556639359967"><ele>1364.0</ele><time>2026-04-12T13:39:38.999Z</time></trkpt><trkpt lat="42.00302187852492" lon="13.228528362896652"><ele>1364.0</ele><time>2026-04-12T13:39:39.999Z</time></trkpt><trkpt lat="42.00313527789515" lon="13.228500198983504"><ele>1364.0</ele><time>2026-04-12T13:39:40.999Z</time></trkpt><trkpt lat="42.00324924187172" lon="13.228470783306122"><ele>1364.4</ele><time>2026-04-12T13:39:41.999Z</time></trkpt><trkpt lat="42.00336621687766" lon="13.228438403658284"><ele>1364.8000000000002</ele><time>2026-04-12T13:39:42.999Z</time></trkpt><trkpt lat="42.00347180142539" lon="13.228403250879014"><ele>1365.1999999999998</ele><time>2026-04-12T13:39:43.999Z</time></trkpt><trkpt lat="42.00357679016056" lon="13.22837753791512"><ele>1365.6</ele><time>2026-04-12T13:39:44.999Z</time></trkpt><trkpt lat="42.003683202852166" lon="13.228334395731645"><ele>1366.0</ele><time>2026-04-12T13:39:45.999Z</time></trkpt><trkpt lat="42.003790770245416" lon="13.228275240565473"><ele>1366.0</ele><time>2026-04-12T13:39:46.999Z</time></trkpt><trkpt lat="42.00390410672963" lon="13.228226056197782"><ele>1366.0</ele><time>2026-04-12T13:39:47.999Z</time></trkpt><trkpt lat="42.00403037784787" lon="13.228179573863788"><ele>1366.0</ele><time>2026-04-12T13:39:48.999Z</time></trkpt><trkpt lat="42.00413390388551" lon="13.22815196102483"><ele>1366.0</ele><time>2026-04-12T13:39:49.999Z</time></trkpt><trkpt lat="42.00422383774409" lon="13.228115635503535"><ele>1366.0</ele><time>2026-04-12T13:39:50.999Z</time></trkpt><trkpt lat="42.004296515393904" lon="13.228077480525776"><ele>1367.4</ele><time>2026-04-12T13:39:51.999Z</time></trkpt><trkpt lat="42.004361151071116" lon="13.228054593749812"><ele>1368.8</ele><time>2026-04-12T13:39:52.999Z</time></trkpt><trkpt lat="42.004465587999725" lon="13.22805997443398"><ele>1370.2</ele><time>2026-04-12T13:39:54.999Z</time></trkpt><trkpt lat="42.0045402655746" lon="13.228196736519482"><ele>1371.6000000000001</ele><time>2026-04-12T13:39:56.999Z</time></trkpt><trkpt lat="42.00456979249509" lon="13.228313569252759"><ele>1373.0</ele><time>2026-04-12T13:39:57.999Z</time></trkpt><trkpt lat="42.00462241681643" lon="13.22842757192161"><ele>1373.0</ele><time>2026-04-12T13:39:58.999Z</time></trkpt><trkpt lat="42.00466817331191" lon="13.228541822833353"><ele>1373.0</ele><time>2026-04-12T13:39:59.999Z</time></trkpt><trkpt lat="42.00471920377347" lon="13.228658246148225"><ele>1373.0</ele><time>2026-04-12T13:40:00.999Z</time></trkpt><trkpt lat="42.00478639617729" lon="13.228790724629201"><ele>1373.0</ele><time>2026-04-12T13:40:01.999Z</time></trkpt><trkpt lat="42.00484089664351" lon="13.228891120439068"><ele>1373.0</ele><time>2026-04-12T13:40:02.999Z</time></trkpt><trkpt lat="42.00488138859672" lon="13.229012871627013"><ele>1376.0</ele><time>2026-04-12T13:40:03.999Z</time></trkpt><trkpt lat="42.00493038038618" lon="13.229158296680147"><ele>1379.0</ele><time>2026-04-12T13:40:04.999Z</time></trkpt><trkpt lat="42.004973977663916" lon="13.229282046203018"><ele>1382.0</ele><time>2026-04-12T13:40:05.999Z</time></trkpt><trkpt lat="42.00501173929613" lon="13.229373208497385"><ele>1385.0</ele><time>2026-04-12T13:40:06.999Z</time></trkpt><trkpt lat="42.005045521209155" lon="13.229451819301527"><ele>1388.0</ele><time>2026-04-12T13:40:07.999Z</time></trkpt><trkpt lat="42.00512448792627" lon="13.229522047419797"><ele>1388.0</ele><time>2026-04-12T13:40:09.999Z</time></trkpt><trkpt lat="42.00521458122462" lon="13.229453907665137"><ele>1388.0</ele><time>2026-04-12T13:40:11.999Z</time></trkpt><trkpt lat="42.00524076065368" lon="13.229316781737413"><ele>1388.0</ele><time>2026-04-12T13:40:13.999Z</time></trkpt><trkpt lat="42.005278943882224" lon="13.229222156240402"><ele>1388.0</ele><time>2026-04-12T13:40:14.999Z</time></trkpt><trkpt lat="42.005316427556295" lon="13.22911347191007"><ele>1388.0</ele><time>2026-04-12T13:40:15.999Z</time></trkpt><trkpt lat="42.00534296123005" lon="13.229002735647345"><ele>1388.2</ele><time>2026-04-12T13:40:16.999Z</time></trkpt><trkpt lat="42.0053510502704" lon="13.228886019828341"><ele>1388.4</ele><time>2026-04-12T13:40:17.999Z</time></trkpt><trkpt lat="42.00534987535695" lon="13.228752352227385"><ele>1388.6000000000001</ele><time>2026-04-12T13:40:18.999Z</time></trkpt><trkpt lat="42.00533996969713" lon="13.228599509415911"><ele>1388.8000000000002</ele><time>2026-04-12T13:40:19.999Z</time></trkpt><trkpt lat="42.005330506577174" lon="13.22844585978663"><ele>1389.0</ele><time>2026-04-12T13:40:20.999Z</time></trkpt><trkpt lat="42.00531472486826" lon="13.228297443559946"><ele>1389.0</ele><time>2026-04-12T13:40:21.999Z</time></trkpt><trkpt lat="42.00530241229655" lon="13.228163771218632"><ele>1389.0</ele><time>2026-04-12T13:40:22.999Z</time></trkpt><trkpt lat="42.00529520859105" lon="13.228044427176929"><ele>1389.0</ele><time>2026-04-12T13:40:23.998Z</time></trkpt><trkpt lat="42.005276864125285" lon="13.227906590219758"><ele>1389.0</ele><time>2026-04-12T13:40:24.998Z</time></trkpt><trkpt lat="42.00526658784506" lon="13.227773306472788"><ele>1389.0</ele><time>2026-04-12T13:40:25.998Z</time></trkpt><trkpt lat="42.0052600888145" lon="13.227651033295558"><ele>1391.6</ele><time>2026-04-12T13:40:26.998Z</time></trkpt><trkpt lat="42.0052678600919" lon="13.227523830986378"><ele>1394.2</ele><time>2026-04-12T13:40:27.998Z</time></trkpt><trkpt lat="42.005256955314344" lon="13.227381943956518"><ele>1396.8</ele><time>2026-04-12T13:40:28.998Z</time></trkpt><trkpt lat="42.005253391889795" lon="13.227234636824678"><ele>1399.3999999999999</ele><time>2026-04-12T13:40:29.998Z</time></trkpt><trkpt lat="42.005252402469644" lon="13.227085857151062"><ele>1402.0</ele><time>2026-04-12T13:40:30.998Z</time></trkpt><trkpt lat="42.00524729868758" lon="13.226934058772823"><ele>1405.5</ele><time>2026-04-12T13:40:31.998Z</time></trkpt><trkpt lat="42.00524426787969" lon="13.226789281601697"><ele>1409.0</ele><time>2026-04-12T13:40:32.998Z</time></trkpt><trkpt lat="42.00524416410013" lon="13.226642840352104"><ele>1412.5</ele><time>2026-04-12T13:40:33.998Z</time></trkpt><trkpt lat="42.00523246634721" lon="13.22648823453718"><ele>1416.0</ele><time>2026-04-12T13:40:34.998Z</time></trkpt><trkpt lat="42.00522746785108" lon="13.226329636789352"><ele>1418.6</ele><time>2026-04-12T13:40:35.998Z</time></trkpt><trkpt lat="42.00522237814905" lon="13.22618565414998"><ele>1421.1999999999998</ele><time>2026-04-12T13:40:36.998Z</time></trkpt><trkpt lat="42.005231197538905" lon="13.226036120399947"><ele>1423.8000000000002</ele><time>2026-04-12T13:40:37.998Z</time></trkpt><trkpt lat="42.00522401562866" lon="13.225898003209675"><ele>1426.4</ele><time>2026-04-12T13:40:38.998Z</time></trkpt><trkpt lat="42.0052314092005" lon="13.225787797056329"><ele>1429.0</ele><time>2026-04-12T13:40:39.998Z</time></trkpt><trkpt lat="42.00524347361776" lon="13.225654955176772"><ele>1431.6</ele><time>2026-04-12T13:40:40.998Z</time></trkpt><trkpt lat="42.005254020911046" lon="13.225523142473298"><ele>1434.2</ele><time>2026-04-12T13:40:41.998Z</time></trkpt><trkpt lat="42.00528304978529" lon="13.225433303664735"><ele>1436.8</ele><time>2026-04-12T13:40:42.998Z</time></trkpt><trkpt lat="42.005311524450434" lon="13.225339805426941"><ele>1439.3999999999999</ele><time>2026-04-12T13:40:43.998Z</time></trkpt><trkpt lat="42.005392594330466" lon="13.225209610567385"><ele>1442.0</ele><time>2026-04-12T13:40:45Z</time></trkpt><trkpt lat="42.005485593148364" lon="13.225083133336963"><ele>1442.0</ele><time>2026-04-12T13:40:46Z</time></trkpt><trkpt lat="42.00555637481012" lon="13.2249397144927"><ele>1442.0</ele><time>2026-04-12T13:40:47Z</time></trkpt><trkpt lat="42.00561908389999" lon="13.224816155212284"><ele>1442.0</ele><time>2026-04-12T13:40:48Z</time></trkpt><trkpt lat="42.00568315593656" lon="13.22468587047474"><ele>1442.0</ele><time>2026-04-12T13:40:49Z</time></trkpt><trkpt lat="42.00574777393549" lon="13.224552066492663"><ele>1442.8333333333335</ele><time>2026-04-12T13:40:50Z</time></trkpt><trkpt lat="42.005800018377066" lon="13.224443080841338"><ele>1443.6666666666667</ele><time>2026-04-12T13:40:51Z</time></trkpt><trkpt lat="42.00583248826097" lon="13.224358795241265"><ele>1444.5</ele><time>2026-04-12T13:40:52Z</time></trkpt><trkpt lat="42.00584567398358" lon="13.224265917242878"><ele>1445.3333333333333</ele><time>2026-04-12T13:40:53Z</time></trkpt><trkpt lat="42.00583249339084" lon="13.224159794739117"><ele>1446.1666666666665</ele><time>2026-04-12T13:40:54Z</time></trkpt><trkpt lat="42.00579895532959" lon="13.224062246654514"><ele>1447.0</ele><time>2026-04-12T13:40:55Z</time></trkpt><trkpt lat="42.00575296250303" lon="13.223980310211367"><ele>1449.3999999999999</ele><time>2026-04-12T13:40:56Z</time></trkpt><trkpt lat="42.00564608853066" lon="13.223909273401276"><ele>1451.8</ele><time>2026-04-12T13:40:58Z</time></trkpt><trkpt lat="42.005509716914865" lon="13.223939646212576"><ele>1454.2</ele><time>2026-04-12T13:41:00Z</time></trkpt><trkpt lat="42.00542674838138" lon="13.22398005948372"><ele>1456.6</ele><time>2026-04-12T13:41:01Z</time></trkpt><trkpt lat="42.00535380211687" lon="13.224026613844352"><ele>1459.0</ele><time>2026-04-12T13:41:02Z</time></trkpt><trkpt lat="42.00528719878408" lon="13.224064030732999"><ele>1459.0</ele><time>2026-04-12T13:41:03Z</time></trkpt><trkpt lat="42.00522107067838" lon="13.224138473700526"><ele>1459.0</ele><time>2026-04-12T13:41:04Z</time></trkpt><trkpt lat="42.005167538046145" lon="13.224196578840086"><ele>1459.0</ele><time>2026-04-12T13:41:05Z</time></trkpt><trkpt lat="42.0051007536478" lon="13.22427972762185"><ele>1459.0</ele><time>2026-04-12T13:41:06Z</time></trkpt><trkpt lat="42.00503313693784" lon="13.224355815844618"><ele>1459.0</ele><time>2026-04-12T13:41:07Z</time></trkpt><trkpt lat="42.00491634047618" lon="13.2244253446872"><ele>1464.5</ele><time>2026-04-12T13:41:09Z</time></trkpt><trkpt lat="42.00484480741106" lon="13.224450939431902"><ele>1470.0</ele><time>2026-04-12T13:41:10Z</time></trkpt><trkpt lat="42.004765911404895" lon="13.224488321669435"><ele>1475.5</ele><time>2026-04-12T13:41:11Z</time></trkpt><trkpt lat="42.00469961659658" lon="13.224553609417878"><ele>1481.0</ele><time>2026-04-12T13:41:12Z</time></trkpt><trkpt lat="42.00463763398945" lon="13.224611230893688"><ele>1486.5</ele><time>2026-04-12T13:41:13Z</time></trkpt><trkpt lat="42.00457463093543" lon="13.224667907636267"><ele>1492.0</ele><time>2026-04-12T13:41:14Z</time></trkpt><trkpt lat="42.004513755663616" lon="13.224723312646034"><ele>1492.0</ele><time>2026-04-12T13:41:15Z</time></trkpt><trkpt lat="42.00443593737822" lon="13.224767261801055"><ele>1492.0</ele><time>2026-04-12T13:41:16Z</time></trkpt><trkpt lat="42.00435208572497" lon="13.224772663451223"><ele>1492.0</ele><time>2026-04-12T13:41:17Z</time></trkpt><trkpt lat="42.0042685803005" lon="13.224787718882398"><ele>1492.0</ele><time>2026-04-12T13:41:18Z</time></trkpt><trkpt lat="42.004174783280675" lon="13.224816371935558"><ele>1492.0</ele><time>2026-04-12T13:41:19Z</time></trkpt><trkpt lat="42.004095801634904" lon="13.22485500708736"><ele>1492.0</ele><time>2026-04-12T13:41:20Z</time></trkpt><trkpt lat="42.00402881117273" lon="13.22488413645291"><ele>1489.1666666666665</ele><time>2026-04-12T13:41:21Z</time></trkpt><trkpt lat="42.003946503464036" lon="13.224928986777682"><ele>1486.3333333333333</ele><time>2026-04-12T13:41:22Z</time></trkpt><trkpt lat="42.003868171644484" lon="13.224975734386778"><ele>1483.5</ele><time>2026-04-12T13:41:23Z</time></trkpt><trkpt lat="42.003787448250414" lon="13.225019889098471"><ele>1480.6666666666667</ele><time>2026-04-12T13:41:24Z</time></trkpt><trkpt lat="42.00370747737791" lon="13.225070740857433"><ele>1477.8333333333335</ele><time>2026-04-12T13:41:25Z</time></trkpt><trkpt lat="42.00363265730226" lon="13.22512392160573"><ele>1475.0</ele><time>2026-04-12T13:41:26Z</time></trkpt><trkpt lat="42.00355057546505" lon="13.225138851811629"><ele>1475.0</ele><time>2026-04-12T13:41:27Z</time></trkpt><trkpt lat="42.003464921728906" lon="13.225128283071012"><ele>1475.0</ele><time>2026-04-12T13:41:28Z</time></trkpt><trkpt lat="42.00336958156973" lon="13.225113047887763"><ele>1475.0</ele><time>2026-04-12T13:41:29Z</time></trkpt><trkpt lat="42.003281639278136" lon="13.225092228912327"><ele>1475.0</ele><time>2026-04-12T13:41:30Z</time></trkpt><trkpt lat="42.00320925452176" lon="13.22507108659957"><ele>1475.0</ele><time>2026-04-12T13:41:31Z</time></trkpt><trkpt lat="42.003139283355644" lon="13.225065178370894"><ele>1475.0</ele><time>2026-04-12T13:41:32Z</time></trkpt><trkpt lat="42.00306761179817" lon="13.225041304497767"><ele>1475.8</ele><time>2026-04-12T13:41:33Z</time></trkpt><trkpt lat="42.00299963193021" lon="13.22498521236414"><ele>1476.6</ele><time>2026-04-12T13:41:34Z</time></trkpt><trkpt lat="42.002913586757174" lon="13.224905016780506"><ele>1477.4</ele><time>2026-04-12T13:41:35Z</time></trkpt><trkpt lat="42.00283588305938" lon="13.2248322372601"><ele>1478.2</ele><time>2026-04-12T13:41:35.999Z</time></trkpt><trkpt lat="42.00275419574098" lon="13.224761263719252"><ele>1479.0</ele><time>2026-04-12T13:41:36.999Z</time></trkpt><trkpt lat="42.002687592505794" lon="13.224674526155665"><ele>1479.0</ele><time>2026-04-12T13:41:37.999Z</time></trkpt><trkpt lat="42.00262525048273" lon="13.224589363107997"><ele>1479.0</ele><time>2026-04-12T13:41:38.999Z</time></trkpt><trkpt lat="42.002566065728985" lon="13.224505297441192"><ele>1479.0</ele><time>2026-04-12T13:41:39.999Z</time></trkpt><trkpt lat="42.00251275856756" lon="13.224401423049898"><ele>1479.0</ele><time>2026-04-12T13:41:40.999Z</time></trkpt><trkpt lat="42.002469784530746" lon="13.224295788602221"><ele>1479.0</ele><time>2026-04-12T13:41:41.999Z</time></trkpt><trkpt lat="42.00242048440091" lon="13.224183018982343"><ele>1476.2</ele><time>2026-04-12T13:41:42.999Z</time></trkpt><trkpt lat="42.002373645930895" lon="13.224068155157218"><ele>1473.4</ele><time>2026-04-12T13:41:43.999Z</time></trkpt><trkpt lat="42.00232990960174" lon="13.223958901536522"><ele>1470.6</ele><time>2026-04-12T13:41:44.999Z</time></trkpt><trkpt lat="42.00229112042927" lon="13.223837974908704"><ele>1467.8</ele><time>2026-04-12T13:41:45.999Z</time></trkpt><trkpt lat="42.0022542521388" lon="13.223727507426236"><ele>1465.0</ele><time>2026-04-12T13:41:46.999Z</time></trkpt><trkpt lat="42.00222621629735" lon="13.22360741877658"><ele>1465.0</ele><time>2026-04-12T13:41:47.999Z</time></trkpt><trkpt lat="42.00220352360858" lon="13.223511697162301"><ele>1465.0</ele><time>2026-04-12T13:41:48.999Z</time></trkpt><trkpt lat="42.00215387288802" lon="13.223395431774602"><ele>1465.0</ele><time>2026-04-12T13:41:50.999Z</time></trkpt><trkpt lat="42.00206766486412" lon="13.223284740595151"><ele>1465.0</ele><time>2026-04-12T13:41:52.999Z</time></trkpt><trkpt lat="42.002006514076896" lon="13.223245208649084"><ele>1465.0</ele><time>2026-04-12T13:41:53.999Z</time></trkpt><trkpt lat="42.001903293373516" lon="13.223067110017311"><ele>1466.8</ele><time>2026-04-12T13:41:55.999Z</time></trkpt><trkpt lat="42.001881781294415" lon="13.222953659475348"><ele>1468.6</ele><time>2026-04-12T13:41:56.999Z</time></trkpt><trkpt lat="42.00187072251089" lon="13.222837450739073"><ele>1470.4</ele><time>2026-04-12T13:41:57.999Z</time></trkpt><trkpt lat="42.00187395459851" lon="13.222712138463855"><ele>1472.2</ele><time>2026-04-12T13:41:58.999Z</time></trkpt><trkpt lat="42.00188363651252" lon="13.222589301114702"><ele>1474.0</ele><time>2026-04-12T13:41:59.999Z</time></trkpt><trkpt lat="42.001881469896006" lon="13.222448578676843"><ele>1475.0</ele><time>2026-04-12T13:42:00.999Z</time></trkpt><trkpt lat="42.001880523775945" lon="13.222292310107628"><ele>1476.0</ele><time>2026-04-12T13:42:01.999Z</time></trkpt><trkpt lat="42.00187952009059" lon="13.222141060885791"><ele>1477.0</ele><time>2026-04-12T13:42:02.999Z</time></trkpt><trkpt lat="42.001881009608006" lon="13.221999981022124"><ele>1478.0</ele><time>2026-04-12T13:42:03.999Z</time></trkpt><trkpt lat="42.00188784540448" lon="13.221859937414212"><ele>1479.0</ele><time>2026-04-12T13:42:04.999Z</time></trkpt><trkpt lat="42.00189540933032" lon="13.221695527431647"><ele>1479.0</ele><time>2026-04-12T13:42:05.999Z</time></trkpt><trkpt lat="42.001904672153074" lon="13.221545315081535"><ele>1479.0</ele><time>2026-04-12T13:42:06.999Z</time></trkpt><trkpt lat="42.001926913456586" lon="13.221410957465269"><ele>1479.0</ele><time>2026-04-12T13:42:07.999Z</time></trkpt><trkpt lat="42.00195259810005" lon="13.221262177695332"><ele>1479.0</ele><time>2026-04-12T13:42:08.999Z</time></trkpt><trkpt lat="42.00195653791732" lon="13.221126623123714"><ele>1479.0</ele><time>2026-04-12T13:42:09.999Z</time></trkpt><trkpt lat="42.00196166928021" lon="13.220976450314662"><ele>1480.25</ele><time>2026-04-12T13:42:10.999Z</time></trkpt><trkpt lat="42.00198818690224" lon="13.220813059838603"><ele>1481.5</ele><time>2026-04-12T13:42:11.999Z</time></trkpt><trkpt lat="42.00202592831244" lon="13.22065530911197"><ele>1482.75</ele><time>2026-04-12T13:42:12.999Z</time></trkpt><trkpt lat="42.00203906346175" lon="13.220519284463075"><ele>1484.0</ele><time>2026-04-12T13:42:13.999Z</time></trkpt><trkpt lat="42.00202165044853" lon="13.22037812597423"><ele>1484.0</ele><time>2026-04-12T13:42:14.999Z</time></trkpt><trkpt lat="42.00199844977089" lon="13.220235196276288"><ele>1484.0</ele><time>2026-04-12T13:42:15.999Z</time></trkpt><trkpt lat="42.00196480883096" lon="13.220105346356657"><ele>1484.0</ele><time>2026-04-12T13:42:16.999Z</time></trkpt><trkpt lat="42.001944953953554" lon="13.219970014524428"><ele>1484.0</ele><time>2026-04-12T13:42:17.999Z</time></trkpt><trkpt lat="42.00194607882665" lon="13.219836116760751"><ele>1484.0</ele><time>2026-04-12T13:42:18.999Z</time></trkpt><trkpt lat="42.001960793731485" lon="13.219709234764569"><ele>1483.2</ele><time>2026-04-12T13:42:19.999Z</time></trkpt><trkpt lat="42.00198450611119" lon="13.219592013333818"><ele>1482.4</ele><time>2026-04-12T13:42:20.999Z</time></trkpt><trkpt lat="42.001995732769345" lon="13.219455288796828"><ele>1481.6</ele><time>2026-04-12T13:42:21.999Z</time></trkpt><trkpt lat="42.00200516480169" lon="13.219330221125604"><ele>1480.8</ele><time>2026-04-12T13:42:22.999Z</time></trkpt><trkpt lat="42.002038688428584" lon="13.219206073945855"><ele>1480.0</ele><time>2026-04-12T13:42:23.999Z</time></trkpt><trkpt lat="42.0020623899533" lon="13.219066501236899"><ele>1480.25</ele><time>2026-04-12T13:42:24.999Z</time></trkpt><trkpt lat="42.002086540433844" lon="13.218907065884098"><ele>1480.5</ele><time>2026-04-12T13:42:25.999Z</time></trkpt><trkpt lat="42.00210566505307" lon="13.218745725899387"><ele>1480.75</ele><time>2026-04-12T13:42:26.998Z</time></trkpt><trkpt lat="42.00211187201603" lon="13.218605930326815"><ele>1481.0</ele><time>2026-04-12T13:42:27.998Z</time></trkpt><trkpt lat="42.00209904845209" lon="13.218449608424937"><ele>1481.0</ele><time>2026-04-12T13:42:28.998Z</time></trkpt><trkpt lat="42.00208065572569" lon="13.218320313472784"><ele>1481.0</ele><time>2026-04-12T13:42:29.998Z</time></trkpt><trkpt lat="42.0020624361224" lon="13.218205675730703"><ele>1481.0</ele><time>2026-04-12T13:42:30.998Z</time></trkpt><trkpt lat="42.00202836571182" lon="13.2180997097864"><ele>1481.0</ele><time>2026-04-12T13:42:31.998Z</time></trkpt><trkpt lat="42.00199830520025" lon="13.21799799500042"><ele>1481.0</ele><time>2026-04-12T13:42:32.998Z</time></trkpt><trkpt lat="42.00195495019453" lon="13.217874669973959"><ele>1481.4</ele><time>2026-04-12T13:42:33.998Z</time></trkpt><trkpt lat="42.00188945582844" lon="13.217755580973058"><ele>1481.8</ele><time>2026-04-12T13:42:34.998Z</time></trkpt><trkpt lat="42.00180328861952" lon="13.217643469455552"><ele>1482.2</ele><time>2026-04-12T13:42:35.998Z</time></trkpt><trkpt lat="42.00172621942255" lon="13.217554016928425"><ele>1482.6000000000001</ele><time>2026-04-12T13:42:36.998Z</time></trkpt><trkpt lat="42.0016449260721" lon="13.217456888963591"><ele>1483.0</ele><time>2026-04-12T13:42:37.998Z</time></trkpt><trkpt lat="42.00157949226222" lon="13.217373782518413"><ele>1483.3333333333333</ele><time>2026-04-12T13:42:38.998Z</time></trkpt><trkpt lat="42.00153458734608" lon="13.217305336821687"><ele>1483.6666666666665</ele><time>2026-04-12T13:42:39.998Z</time></trkpt><trkpt lat="42.00149671142629" lon="13.217237564572118"><ele>1484.0</ele><time>2026-04-12T13:42:40.998Z</time></trkpt><trkpt lat="42.001456469319585" lon="13.217162175758112"><ele>1484.3333333333333</ele><time>2026-04-12T13:42:41.998Z</time></trkpt><trkpt lat="42.00142873216061" lon="13.217061649514049"><ele>1484.6666666666667</ele><time>2026-04-12T13:42:42.998Z</time></trkpt><trkpt lat="42.00140435678383" lon="13.216953923143521"><ele>1485.0</ele><time>2026-04-12T13:42:43.998Z</time></trkpt><trkpt lat="42.00139200094218" lon="13.21683718861047"><ele>1485.0</ele><time>2026-04-12T13:42:44.998Z</time></trkpt><trkpt lat="42.00139022639735" lon="13.216730593883344"><ele>1485.0</ele><time>2026-04-12T13:42:45.998Z</time></trkpt><trkpt lat="42.001398312493116" lon="13.216630204341277"><ele>1485.0</ele><time>2026-04-12T13:42:46.998Z</time></trkpt><trkpt lat="42.00145131214889" lon="13.21647803999118"><ele>1485.0</ele><time>2026-04-12T13:42:48.998Z</time></trkpt><trkpt lat="42.00153269741735" lon="13.216330866939652"><ele>1485.0</ele><time>2026-04-12T13:42:51Z</time></trkpt><trkpt lat="42.001571183397225" lon="13.21624437300067"><ele>1485.1666666666667</ele><time>2026-04-12T13:42:52Z</time></trkpt><trkpt lat="42.00160945342195" lon="13.216120589584113"><ele>1485.3333333333333</ele><time>2026-04-12T13:42:54Z</time></trkpt><trkpt lat="42.001640275995086" lon="13.216046153603147"><ele>1485.5</ele><time>2026-04-12T13:42:55Z</time></trkpt><trkpt lat="42.001679930087995" lon="13.215959667273703"><ele>1485.6666666666665</ele><time>2026-04-12T13:42:56Z</time></trkpt><trkpt lat="42.00172329561756" lon="13.215865748984104"><ele>1485.8333333333333</ele><time>2026-04-12T13:42:57Z</time></trkpt><trkpt lat="42.00175717692104" lon="13.215776006517801"><ele>1486.0</ele><time>2026-04-12T13:42:58Z</time></trkpt><trkpt lat="42.00179033091045" lon="13.215679494592937"><ele>1484.3333333333333</ele><time>2026-04-12T13:42:59Z</time></trkpt><trkpt lat="42.00182930176846" lon="13.215568362128657"><ele>1482.6666666666665</ele><time>2026-04-12T13:43:00Z</time></trkpt><trkpt lat="42.00187918557208" lon="13.21546673578894"><ele>1481.0</ele><time>2026-04-12T13:43:01Z</time></trkpt><trkpt lat="42.001932762159996" lon="13.215391654375962"><ele>1479.3333333333333</ele><time>2026-04-12T13:43:02Z</time></trkpt><trkpt lat="42.001990059625165" lon="13.2153064862821"><ele>1477.6666666666667</ele><time>2026-04-12T13:43:03Z</time></trkpt><trkpt lat="42.00204318772515" lon="13.21521835562907"><ele>1476.0</ele><time>2026-04-12T13:43:04Z</time></trkpt><trkpt lat="42.0021007316374" lon="13.215118477765474"><ele>1476.0</ele><time>2026-04-12T13:43:05Z</time></trkpt><trkpt lat="42.00214888978962" lon="13.21499876371389"><ele>1476.0</ele><time>2026-04-12T13:43:06Z</time></trkpt><trkpt lat="42.00219953865452" lon="13.214871464327954"><ele>1476.0</ele><time>2026-04-12T13:43:07Z</time></trkpt><trkpt lat="42.00224063222468" lon="13.21476060325258"><ele>1476.0</ele><time>2026-04-12T13:43:08Z</time></trkpt><trkpt lat="42.00228101514458" lon="13.21466023628737"><ele>1476.0</ele><time>2026-04-12T13:43:09Z</time></trkpt><trkpt lat="42.00232230992878" lon="13.214564797839607"><ele>1476.4</ele><time>2026-04-12T13:43:10Z</time></trkpt><trkpt lat="42.002376675300745" lon="13.2144528576181"><ele>1476.8</ele><time>2026-04-12T13:43:11Z</time></trkpt><trkpt lat="42.00243142980267" lon="13.214350559959113"><ele>1477.2</ele><time>2026-04-12T13:43:12Z</time></trkpt><trkpt lat="42.00249799164529" lon="13.214262580240847"><ele>1477.6000000000001</ele><time>2026-04-12T13:43:13Z</time></trkpt><trkpt lat="42.00256134616052" lon="13.214156008963535"><ele>1478.0</ele><time>2026-04-12T13:43:14Z</time></trkpt><trkpt lat="42.00262599432442" lon="13.214043846359417"><ele>1475.8000000000002</ele><time>2026-04-12T13:43:15Z</time></trkpt><trkpt lat="42.00268904979125" lon="13.213925736146074"><ele>1473.6</ele><time>2026-04-12T13:43:16Z</time></trkpt><trkpt lat="42.0027466234474" lon="13.213827099607846"><ele>1471.4</ele><time>2026-04-12T13:43:17Z</time></trkpt><trkpt lat="42.00281716949416" lon="13.213733305472024"><ele>1469.1999999999998</ele><time>2026-04-12T13:43:18Z</time></trkpt><trkpt lat="42.00289476623412" lon="13.213636727130705"><ele>1467.0</ele><time>2026-04-12T13:43:19Z</time></trkpt><trkpt lat="42.002968391189064" lon="13.213544947296377"><ele>1467.0</ele><time>2026-04-12T13:43:20Z</time></trkpt><trkpt lat="42.00302864919565" lon="13.213440369141129"><ele>1467.0</ele><time>2026-04-12T13:43:21Z</time></trkpt><trkpt lat="42.003095808825606" lon="13.213333095349073"><ele>1467.0</ele><time>2026-04-12T13:43:22Z</time></trkpt><trkpt lat="42.00317310741495" lon="13.213214018337391"><ele>1467.0</ele><time>2026-04-12T13:43:23Z</time></trkpt><trkpt lat="42.00324346276184" lon="13.213102859162337"><ele>1467.0</ele><time>2026-04-12T13:43:24Z</time></trkpt><trkpt lat="42.00329970218395" lon="13.212998079259252"><ele>1466.6</ele><time>2026-04-12T13:43:25Z</time></trkpt><trkpt lat="42.003357406257564" lon="13.212887687193517"><ele>1466.1999999999998</ele><time>2026-04-12T13:43:26Z</time></trkpt><trkpt lat="42.00343338452613" lon="13.212776287501114"><ele>1465.8</ele><time>2026-04-12T13:43:27Z</time></trkpt><trkpt lat="42.00351578186955" lon="13.212653016007888"><ele>1465.4</ele><time>2026-04-12T13:43:28Z</time></trkpt><trkpt lat="42.00358247464888" lon="13.212534415298396"><ele>1465.0</ele><time>2026-04-12T13:43:29Z</time></trkpt><trkpt lat="42.00364576989893" lon="13.21243149691124"><ele>1465.0</ele><time>2026-04-12T13:43:30Z</time></trkpt><trkpt lat="42.00370148659068" lon="13.212328024913415"><ele>1465.0</ele><time>2026-04-12T13:43:31Z</time></trkpt><trkpt lat="42.00376844673427" lon="13.21222279694116"><ele>1465.0</ele><time>2026-04-12T13:43:32Z</time></trkpt><trkpt lat="42.00384089968688" lon="13.212110500802629"><ele>1465.0</ele><time>2026-04-12T13:43:33Z</time></trkpt><trkpt lat="42.00391440238067" lon="13.211999205407482"><ele>1465.0</ele><time>2026-04-12T13:43:34Z</time></trkpt><trkpt lat="42.00397752988805" lon="13.211899298246502"><ele>1465.0</ele><time>2026-04-12T13:43:35Z</time></trkpt><trkpt lat="42.00406060675348" lon="13.211796018007886"><ele>1465.0</ele><time>2026-04-12T13:43:36Z</time></trkpt><trkpt lat="42.00413918304275" lon="13.21168027310296"><ele>1465.0</ele><time>2026-04-12T13:43:37Z</time></trkpt><trkpt lat="42.004215512032076" lon="13.211572980398547"><ele>1465.0</ele><time>2026-04-12T13:43:38Z</time></trkpt><trkpt lat="42.004291931234896" lon="13.211464117123286"><ele>1467.0</ele><time>2026-04-12T13:43:39Z</time></trkpt><trkpt lat="42.00436668832798" lon="13.211364191504062"><ele>1469.0</ele><time>2026-04-12T13:43:40Z</time></trkpt><trkpt lat="42.00444211250379" lon="13.211288112377703"><ele>1471.0</ele><time>2026-04-12T13:43:41Z</time></trkpt><trkpt lat="42.00451509287738" lon="13.211205995073326"><ele>1473.0</ele><time>2026-04-12T13:43:42Z</time></trkpt><trkpt lat="42.00458894935894" lon="13.211108124605117"><ele>1475.0</ele><time>2026-04-12T13:43:43Z</time></trkpt><trkpt lat="42.00465270134579" lon="13.211019263984872"><ele>1475.0</ele><time>2026-04-12T13:43:44Z</time></trkpt><trkpt lat="42.004711091313155" lon="13.21093679895489"><ele>1475.0</ele><time>2026-04-12T13:43:45Z</time></trkpt><trkpt lat="42.00478649702711" lon="13.210856187455429"><ele>1475.0</ele><time>2026-04-12T13:43:45.999Z</time></trkpt><trkpt lat="42.00485173556008" lon="13.210782784273153"><ele>1475.0</ele><time>2026-04-12T13:43:46.999Z</time></trkpt><trkpt lat="42.00492194706833" lon="13.21072414602878"><ele>1475.0</ele><time>2026-04-12T13:43:47.999Z</time></trkpt><trkpt lat="42.00497757703808" lon="13.210681324356008"><ele>1475.0</ele><time>2026-04-12T13:43:48.999Z</time></trkpt><trkpt lat="42.00508761006221" lon="13.210622856425633"><ele>1474.6666666666667</ele><time>2026-04-12T13:43:50.999Z</time></trkpt><trkpt lat="42.005155439296864" lon="13.210602294395827"><ele>1474.3333333333335</ele><time>2026-04-12T13:43:51.999Z</time></trkpt><trkpt lat="42.00523331959418" lon="13.210591402913167"><ele>1474.0</ele><time>2026-04-12T13:43:52.999Z</time></trkpt><trkpt lat="42.00530119135945" lon="13.210570907591581"><ele>1473.6666666666667</ele><time>2026-04-12T13:43:53.999Z</time></trkpt><trkpt lat="42.00541650460609" lon="13.210566673725701"><ele>1473.3333333333333</ele><time>2026-04-12T13:43:55.999Z</time></trkpt><trkpt lat="42.00550337172535" lon="13.210565619728692"><ele>1473.0</ele><time>2026-04-12T13:43:56.999Z</time></trkpt><trkpt lat="42.00561565702503" lon="13.210560274924179"><ele>1473.0</ele><time>2026-04-12T13:43:57.999Z</time></trkpt><trkpt lat="42.005720997500596" lon="13.21054843143054"><ele>1473.0</ele><time>2026-04-12T13:43:58.999Z</time></trkpt><trkpt lat="42.005821167729586" lon="13.210518879661496"><ele>1473.0</ele><time>2026-04-12T13:43:59.999Z</time></trkpt><trkpt lat="42.00592339347486" lon="13.210465594336206"><ele>1473.0</ele><time>2026-04-12T13:44:00.999Z</time></trkpt><trkpt lat="42.0060186142842" lon="13.210403508926392"><ele>1473.0</ele><time>2026-04-12T13:44:01.999Z</time></trkpt><trkpt lat="42.00610566283524" lon="13.210338865940473"><ele>1466.6000000000001</ele><time>2026-04-12T13:44:02.999Z</time></trkpt><trkpt lat="42.00618072840891" lon="13.210285495563797"><ele>1460.2</ele><time>2026-04-12T13:44:03.999Z</time></trkpt><trkpt lat="42.00625354772465" lon="13.210208868481377"><ele>1453.8</ele><time>2026-04-12T13:44:04.999Z</time></trkpt><trkpt lat="42.00632463466468" lon="13.210145288041975"><ele>1447.4</ele><time>2026-04-12T13:44:05.999Z</time></trkpt><trkpt lat="42.006395857834136" lon="13.210079292734392"><ele>1441.0</ele><time>2026-04-12T13:44:06.999Z</time></trkpt><trkpt lat="42.006487447434765" lon="13.210004950587635"><ele>1441.0</ele><time>2026-04-12T13:44:07.999Z</time></trkpt><trkpt lat="42.006601222503775" lon="13.209936801897308"><ele>1441.0</ele><time>2026-04-12T13:44:08.999Z</time></trkpt><trkpt lat="42.0067059889225" lon="13.209882007877201"><ele>1441.0</ele><time>2026-04-12T13:44:09.999Z</time></trkpt><trkpt lat="42.00678540932069" lon="13.209852472948972"><ele>1441.0</ele><time>2026-04-12T13:44:10.999Z</time></trkpt><trkpt lat="42.006869936448815" lon="13.20982642335618"><ele>1441.0</ele><time>2026-04-12T13:44:11.999Z</time></trkpt><trkpt lat="42.00696360352666" lon="13.209804953074118"><ele>1438.0</ele><time>2026-04-12T13:44:12.999Z</time></trkpt><trkpt lat="42.007075915551745" lon="13.209803819905202"><ele>1435.0</ele><time>2026-04-12T13:44:13.999Z</time></trkpt><trkpt lat="42.00718149956112" lon="13.209803100810147"><ele>1432.0</ele><time>2026-04-12T13:44:14.999Z</time></trkpt><trkpt lat="42.00727113193089" lon="13.209811355944387"><ele>1429.0</ele><time>2026-04-12T13:44:15.999Z</time></trkpt><trkpt lat="42.00735351012274" lon="13.209791117703464"><ele>1426.0</ele><time>2026-04-12T13:44:16.999Z</time></trkpt><trkpt lat="42.007463453332036" lon="13.209725725880569"><ele>1426.5</ele><time>2026-04-12T13:44:17.999Z</time></trkpt><trkpt lat="42.00757187703813" lon="13.20963637473464"><ele>1427.0</ele><time>2026-04-12T13:44:18.999Z</time></trkpt><trkpt lat="42.007698611010724" lon="13.209545723631626"><ele>1427.5</ele><time>2026-04-12T13:44:19.999Z</time></trkpt><trkpt lat="42.00781317048103" lon="13.20948805525069"><ele>1428.0</ele><time>2026-04-12T13:44:20.999Z</time></trkpt><trkpt lat="42.00790444967482" lon="13.209434177047651"><ele>1428.0</ele><time>2026-04-12T13:44:21.999Z</time></trkpt><trkpt lat="42.00800779320457" lon="13.209372102402233"><ele>1428.0</ele><time>2026-04-12T13:44:22.999Z</time></trkpt><trkpt lat="42.00809961617423" lon="13.209313087458275"><ele>1428.0</ele><time>2026-04-12T13:44:23.999Z</time></trkpt><trkpt lat="42.0081852552502" lon="13.209263131724878"><ele>1428.0</ele><time>2026-04-12T13:44:24.999Z</time></trkpt><trkpt lat="42.00824486856537" lon="13.209224736644225"><ele>1428.0</ele><time>2026-04-12T13:44:25.999Z</time></trkpt><trkpt lat="42.00832913211592" lon="13.209194770070496"><ele>1427.0</ele><time>2026-04-12T13:44:26.999Z</time></trkpt><trkpt lat="42.00842561990202" lon="13.2091982419184"><ele>1426.0</ele><time>2026-04-12T13:44:27.999Z</time></trkpt><trkpt lat="42.00853000053088" lon="13.209229182625863"><ele>1425.0</ele><time>2026-04-12T13:44:28.999Z</time></trkpt><trkpt lat="42.00863294728008" lon="13.209277054192603"><ele>1424.0</ele><time>2026-04-12T13:44:29.999Z</time></trkpt><trkpt lat="42.00874775516287" lon="13.209316109794013"><ele>1423.0</ele><time>2026-04-12T13:44:30.999Z</time></trkpt><trkpt lat="42.00886449769015" lon="13.209351995273611"><ele>1423.0</ele><time>2026-04-12T13:44:31.999Z</time></trkpt><trkpt lat="42.00896175588301" lon="13.209374853152411"><ele>1423.0</ele><time>2026-04-12T13:44:32.998Z</time></trkpt><trkpt lat="42.00904504837576" lon="13.209386159745979"><ele>1423.0</ele><time>2026-04-12T13:44:33.998Z</time></trkpt><trkpt lat="42.009137549898874" lon="13.209407083012987"><ele>1423.0</ele><time>2026-04-12T13:44:34.998Z</time></trkpt><trkpt lat="42.00923183673773" lon="13.209428566629578"><ele>1423.0</ele><time>2026-04-12T13:44:35.998Z</time></trkpt><trkpt lat="42.009307783210446" lon="13.209435014900057"><ele>1423.0</ele><time>2026-04-12T13:44:36.998Z</time></trkpt><trkpt lat="42.00939136036468" lon="13.209432738184466"><ele>1423.2</ele><time>2026-04-12T13:44:37.998Z</time></trkpt><trkpt lat="42.00948036834249" lon="13.209393842863655"><ele>1423.4</ele><time>2026-04-12T13:44:38.998Z</time></trkpt><trkpt lat="42.00955479393578" lon="13.209334239104306"><ele>1423.6000000000001</ele><time>2026-04-12T13:44:39.998Z</time></trkpt><trkpt lat="42.00962369357395" lon="13.209252299080608"><ele>1423.8000000000002</ele><time>2026-04-12T13:44:40.998Z</time></trkpt><trkpt lat="42.009688596235" lon="13.209161638208334"><ele>1424.0</ele><time>2026-04-12T13:44:41.998Z</time></trkpt><trkpt lat="42.009757163994585" lon="13.20906578779713"><ele>1422.6</ele><time>2026-04-12T13:44:42.998Z</time></trkpt><trkpt lat="42.00982268046605" lon="13.208989321573462"><ele>1421.2</ele><time>2026-04-12T13:44:43.998Z</time></trkpt><trkpt lat="42.009894016490286" lon="13.208918025616132"><ele>1419.8</ele><time>2026-04-12T13:44:44.998Z</time></trkpt><trkpt lat="42.00997588880066" lon="13.208837325261735"><ele>1418.3999999999999</ele><time>2026-04-12T13:44:45.998Z</time></trkpt><trkpt lat="42.01006283697273" lon="13.208761049781675"><ele>1417.0</ele><time>2026-04-12T13:44:46.998Z</time></trkpt><trkpt lat="42.01016348597299" lon="13.208678189300915"><ele>1416.8</ele><time>2026-04-12T13:44:47.998Z</time></trkpt><trkpt lat="42.01026059461124" lon="13.20860413177562"><ele>1416.6</ele><time>2026-04-12T13:44:48.998Z</time></trkpt><trkpt lat="42.0103515176927" lon="13.208535153258424"><ele>1416.3999999999999</ele><time>2026-04-12T13:44:49.998Z</time></trkpt><trkpt lat="42.01042697872066" lon="13.208450400235094"><ele>1416.1999999999998</ele><time>2026-04-12T13:44:50.998Z</time></trkpt><trkpt lat="42.010501437959036" lon="13.208371043977632"><ele>1416.0</ele><time>2026-04-12T13:44:51.998Z</time></trkpt><trkpt lat="42.01056840433896" lon="13.208290449380458"><ele>1416.0</ele><time>2026-04-12T13:44:52.998Z</time></trkpt><trkpt lat="42.010633802239" lon="13.208203783623166"><ele>1416.0</ele><time>2026-04-12T13:44:53.998Z</time></trkpt><trkpt lat="42.01068712948922" lon="13.2081200319877"><ele>1416.0</ele><time>2026-04-12T13:44:54.998Z</time></trkpt><trkpt lat="42.01074554057507" lon="13.208028124615804"><ele>1416.0</ele><time>2026-04-12T13:44:55.998Z</time></trkpt><trkpt lat="42.010822901249405" lon="13.207900656201879"><ele>1416.0</ele><time>2026-04-12T13:44:58Z</time></trkpt><trkpt lat="42.01088478331997" lon="13.207839772146784"><ele>1411.3333333333333</ele><time>2026-04-12T13:44:59Z</time></trkpt><trkpt lat="42.010951715258464" lon="13.207774405530484"><ele>1406.6666666666667</ele><time>2026-04-12T13:45:00Z</time></trkpt><trkpt lat="42.01102062613604" lon="13.207717923176327"><ele>1402.0</ele><time>2026-04-12T13:45:01Z</time></trkpt><trkpt lat="42.01111341153777" lon="13.207663673013512"><ele>1397.3333333333335</ele><time>2026-04-12T13:45:02Z</time></trkpt><trkpt lat="42.01117310923742" lon="13.207612185811035"><ele>1392.6666666666667</ele><time>2026-04-12T13:45:03Z</time></trkpt><trkpt lat="42.01123082766608" lon="13.207555088458067"><ele>1388.0</ele><time>2026-04-12T13:45:04Z</time></trkpt><trkpt lat="42.01128778825248" lon="13.207508339278096"><ele>1388.0</ele><time>2026-04-12T13:45:05Z</time></trkpt><trkpt lat="42.011341656808014" lon="13.207462768305207"><ele>1388.0</ele><time>2026-04-12T13:45:06Z</time></trkpt><trkpt lat="42.01143318338099" lon="13.207375183342553"><ele>1388.0</ele><time>2026-04-12T13:45:08Z</time></trkpt><trkpt lat="42.01148078192355" lon="13.207290065767797"><ele>1388.0</ele><time>2026-04-12T13:45:10Z</time></trkpt><trkpt lat="42.01142773795391" lon="13.20718096266531"><ele>1388.0</ele><time>2026-04-12T13:45:12Z</time></trkpt><trkpt lat="42.011304685887765" lon="13.207154352440103"><ele>1387.6666666666667</ele><time>2026-04-12T13:45:14Z</time></trkpt><trkpt lat="42.01122130525527" lon="13.207180379740151"><ele>1387.3333333333335</ele><time>2026-04-12T13:45:15Z</time></trkpt><trkpt lat="42.01113175113871" lon="13.207203257866164"><ele>1387.0</ele><time>2026-04-12T13:45:16Z</time></trkpt><trkpt lat="42.01104610212767" lon="13.207210318454095"><ele>1386.6666666666667</ele><time>2026-04-12T13:45:17Z</time></trkpt><trkpt lat="42.010973139464106" lon="13.207211305432132"><ele>1386.3333333333333</ele><time>2026-04-12T13:45:18Z</time></trkpt><trkpt lat="42.01086473997105" lon="13.207173447265456"><ele>1386.0</ele><time>2026-04-12T13:45:20Z</time></trkpt><trkpt lat="42.01081901965778" lon="13.207114122201574"><ele>1386.0</ele><time>2026-04-12T13:45:21Z</time></trkpt><trkpt lat="42.01078036654947" lon="13.20704461857064"><ele>1386.0</ele><time>2026-04-12T13:45:22Z</time></trkpt><trkpt lat="42.010741281152086" lon="13.206965142448654"><ele>1386.0</ele><time>2026-04-12T13:45:23Z</time></trkpt><trkpt lat="42.01068909157111" lon="13.206877323111524"><ele>1386.0</ele><time>2026-04-12T13:45:24Z</time></trkpt><trkpt lat="42.01063466720236" lon="13.206812280601886"><ele>1386.0</ele><time>2026-04-12T13:45:25Z</time></trkpt><trkpt lat="42.01056511205295" lon="13.206765410456132"><ele>1386.0</ele><time>2026-04-12T13:45:26Z</time></trkpt><trkpt lat="42.01046796645891" lon="13.20671180721174"><ele>1386.0</ele><time>2026-04-12T13:45:27Z</time></trkpt><trkpt lat="42.010367063563336" lon="13.206653741762937"><ele>1386.0</ele><time>2026-04-12T13:45:28Z</time></trkpt><trkpt lat="42.01026181749759" lon="13.206614753484313"><ele>1386.0</ele><time>2026-04-12T13:45:29Z</time></trkpt><trkpt lat="42.01016437948007" lon="13.206567757701134"><ele>1386.0</ele><time>2026-04-12T13:45:30Z</time></trkpt><trkpt lat="42.01005934222656" lon="13.206486496109427"><ele>1386.0</ele><time>2026-04-12T13:45:31Z</time></trkpt><trkpt lat="42.00999244191455" lon="13.206406219132877"><ele>1385.1999999999998</ele><time>2026-04-12T13:45:34Z</time></trkpt><trkpt lat="42.01000345517822" lon="13.206258123286737"><ele>1384.3999999999999</ele><time>2026-04-12T13:45:36Z</time></trkpt><trkpt lat="42.01005145882325" lon="13.206190741052142"><ele>1383.6</ele><time>2026-04-12T13:45:37Z</time></trkpt><trkpt lat="42.010132054649546" lon="13.206138112801119"><ele>1382.8</ele><time>2026-04-12T13:45:38Z</time></trkpt><trkpt lat="42.01023631590464" lon="13.206087719429288"><ele>1382.0</ele><time>2026-04-12T13:45:39Z</time></trkpt><trkpt lat="42.01033587569344" lon="13.206024699860595"><ele>1382.0</ele><time>2026-04-12T13:45:40Z</time></trkpt><trkpt lat="42.01044395112994" lon="13.205925787927972"><ele>1382.0</ele><time>2026-04-12T13:45:41Z</time></trkpt><trkpt lat="42.01054957175877" lon="13.205801531606136"><ele>1382.0</ele><time>2026-04-12T13:45:42Z</time></trkpt><trkpt lat="42.01063648522329" lon="13.205694628448356"><ele>1382.0</ele><time>2026-04-12T13:45:43Z</time></trkpt><trkpt lat="42.01072219368154" lon="13.205569880464983"><ele>1379.5</ele><time>2026-04-12T13:45:44Z</time></trkpt><trkpt lat="42.01078721424021" lon="13.205460578457354"><ele>1377.0</ele><time>2026-04-12T13:45:45Z</time></trkpt><trkpt lat="42.01084945758177" lon="13.205316577655324"><ele>1374.5</ele><time>2026-04-12T13:45:45.999Z</time></trkpt><trkpt lat="42.01092798128112" lon="13.205162196017561"><ele>1372.0</ele><time>2026-04-12T13:45:46.999Z</time></trkpt><trkpt lat="42.0109831963195" lon="13.204986906838835"><ele>1372.0</ele><time>2026-04-12T13:45:47.999Z</time></trkpt><trkpt lat="42.011048242766066" lon="13.204843886913043"><ele>1372.0</ele><time>2026-04-12T13:45:48.999Z</time></trkpt><trkpt lat="42.01110938559435" lon="13.204690318026554"><ele>1372.0</ele><time>2026-04-12T13:45:49.999Z</time></trkpt><trkpt lat="42.0111676324936" lon="13.204541026587416"><ele>1372.0</ele><time>2026-04-12T13:45:50.999Z</time></trkpt><trkpt lat="42.01124907837557" lon="13.204421865232026"><ele>1374.5</ele><time>2026-04-12T13:45:51.999Z</time></trkpt><trkpt lat="42.011339408186466" lon="13.20429557006675"><ele>1377.0</ele><time>2026-04-12T13:45:52.999Z</time></trkpt><trkpt lat="42.01144330186848" lon="13.20419335917691"><ele>1379.5</ele><time>2026-04-12T13:45:53.999Z</time></trkpt><trkpt lat="42.01154075539756" lon="13.204107678125508"><ele>1382.0</ele><time>2026-04-12T13:45:54.999Z</time></trkpt><trkpt lat="42.01165105199901" lon="13.204014959078416"><ele>1382.0</ele><time>2026-04-12T13:45:55.999Z</time></trkpt><trkpt lat="42.01176368782191" lon="13.203919390251974"><ele>1382.0</ele><time>2026-04-12T13:45:56.999Z</time></trkpt><trkpt lat="42.011861681765374" lon="13.203849916993763"><ele>1382.0</ele><time>2026-04-12T13:45:57.999Z</time></trkpt><trkpt lat="42.01195603534813" lon="13.203781844852012"><ele>1382.0</ele><time>2026-04-12T13:45:58.999Z</time></trkpt><trkpt lat="42.012029399353054" lon="13.203699773084299"><ele>1382.0</ele><time>2026-04-12T13:45:59.999Z</time></trkpt><trkpt lat="42.012090317907216" lon="13.203612921440154"><ele>1382.0</ele><time>2026-04-12T13:46:00.999Z</time></trkpt><trkpt lat="42.012147631453736" lon="13.203499955174264"><ele>1382.0</ele><time>2026-04-12T13:46:01.999Z</time></trkpt><trkpt lat="42.01220570343607" lon="13.20337200397878"><ele>1382.0</ele><time>2026-04-12T13:46:02.999Z</time></trkpt><trkpt lat="42.012256424941995" lon="13.20322771331363"><ele>1382.0</ele><time>2026-04-12T13:46:03.999Z</time></trkpt><trkpt lat="42.0123055936177" lon="13.203085476442729"><ele>1382.0</ele><time>2026-04-12T13:46:04.999Z</time></trkpt><trkpt lat="42.01235366817622" lon="13.202936440181732"><ele>1384.5</ele><time>2026-04-12T13:46:05.999Z</time></trkpt><trkpt lat="42.01240162521479" lon="13.202779695819656"><ele>1387.0</ele><time>2026-04-12T13:46:06.999Z</time></trkpt><trkpt lat="42.0124662346918" lon="13.202634112355456"><ele>1389.5</ele><time>2026-04-12T13:46:07.999Z</time></trkpt><trkpt lat="42.012519291757165" lon="13.202475992466205"><ele>1392.0</ele><time>2026-04-12T13:46:08.999Z</time></trkpt><trkpt lat="42.01257065116331" lon="13.202306020040679"><ele>1386.0</ele><time>2026-04-12T13:46:09.999Z</time></trkpt><trkpt lat="42.01262301048234" lon="13.202120132702783"><ele>1380.0</ele><time>2026-04-12T13:46:10.999Z</time></trkpt><trkpt lat="42.012669860595416" lon="13.201941988024558"><ele>1374.0</ele><time>2026-04-12T13:46:11.999Z</time></trkpt><trkpt lat="42.01271868130914" lon="13.201759398882688"><ele>1368.0</ele><time>2026-04-12T13:46:12.999Z</time></trkpt><trkpt lat="42.01275722931022" lon="13.201607624295924"><ele>1370.5</ele><time>2026-04-12T13:46:13.999Z</time></trkpt><trkpt lat="42.01280501134652" lon="13.201468596892344"><ele>1373.0</ele><time>2026-04-12T13:46:14.999Z</time></trkpt><trkpt lat="42.0128553999801" lon="13.201341886310637"><ele>1375.5</ele><time>2026-04-12T13:46:15.999Z</time></trkpt><trkpt lat="42.01290071481626" lon="13.201190697436934"><ele>1378.0</ele><time>2026-04-12T13:46:16.999Z</time></trkpt><trkpt lat="42.01293337028789" lon="13.201024393603621"><ele>1378.0</ele><time>2026-04-12T13:46:17.999Z</time></trkpt><trkpt lat="42.01296993057204" lon="13.200864943761097"><ele>1378.0</ele><time>2026-04-12T13:46:18.999Z</time></trkpt><trkpt lat="42.01300650177004" lon="13.200729979244413"><ele>1378.0</ele><time>2026-04-12T13:46:19.999Z</time></trkpt><trkpt lat="42.013043644555495" lon="13.200583299672855"><ele>1378.0</ele><time>2026-04-12T13:46:20.999Z</time></trkpt><trkpt lat="42.01307441918257" lon="13.20043808184412"><ele>1378.6000000000001</ele><time>2026-04-12T13:46:21.999Z</time></trkpt><trkpt lat="42.01310251126312" lon="13.200307072554665"><ele>1379.2</ele><time>2026-04-12T13:46:22.999Z</time></trkpt><trkpt lat="42.01313218024177" lon="13.200179647047623"><ele>1379.8</ele><time>2026-04-12T13:46:23.999Z</time></trkpt><trkpt lat="42.01315436383439" lon="13.200066913532188"><ele>1380.4</ele><time>2026-04-12T13:46:24.999Z</time></trkpt><trkpt lat="42.013188641098374" lon="13.199935884289395"><ele>1381.0</ele><time>2026-04-12T13:46:25.999Z</time></trkpt><trkpt lat="42.01323758651183" lon="13.199791886094273"><ele>1381.6</ele><time>2026-04-12T13:46:26.999Z</time></trkpt><trkpt lat="42.013288110145716" lon="13.199673077050328"><ele>1382.1999999999998</ele><time>2026-04-12T13:46:27.999Z</time></trkpt><trkpt lat="42.013341513934556" lon="13.19958833768772"><ele>1382.8000000000002</ele><time>2026-04-12T13:46:28.999Z</time></trkpt><trkpt lat="42.01341044286861" lon="13.19942142670702"><ele>1383.4</ele><time>2026-04-12T13:46:29.999Z</time></trkpt><trkpt lat="42.01347322694051" lon="13.199283766110993"><ele>1384.0</ele><time>2026-04-12T13:46:30.999Z</time></trkpt><trkpt lat="42.01353213553666" lon="13.19912171048503"><ele>1376.75</ele><time>2026-04-12T13:46:31.999Z</time></trkpt><trkpt lat="42.01360652702213" lon="13.19896974858324"><ele>1369.5</ele><time>2026-04-12T13:46:32.998Z</time></trkpt><trkpt lat="42.013684554485096" lon="13.198821172364505"><ele>1362.25</ele><time>2026-04-12T13:46:33.998Z</time></trkpt><trkpt lat="42.013761780642284" lon="13.198671308153182"><ele>1355.0</ele><time>2026-04-12T13:46:34.998Z</time></trkpt><trkpt lat="42.01382760753539" lon="13.19851661270432"><ele>1355.0</ele><time>2026-04-12T13:46:35.998Z</time></trkpt><trkpt lat="42.013880181513606" lon="13.19835095211578"><ele>1355.0</ele><time>2026-04-12T13:46:36.998Z</time></trkpt><trkpt lat="42.01393233725795" lon="13.198174751477302"><ele>1355.0</ele><time>2026-04-12T13:46:37.998Z</time></trkpt><trkpt lat="42.01397827996108" lon="13.198012133275737"><ele>1355.0</ele><time>2026-04-12T13:46:38.998Z</time></trkpt><trkpt lat="42.014019312661894" lon="13.197887058171782"><ele>1353.25</ele><time>2026-04-12T13:46:39.998Z</time></trkpt><trkpt lat="42.014058926962484" lon="13.19775754834053"><ele>1351.5</ele><time>2026-04-12T13:46:40.998Z</time></trkpt><trkpt lat="42.01410172354659" lon="13.197620622009822"><ele>1349.75</ele><time>2026-04-12T13:46:41.998Z</time></trkpt><trkpt lat="42.014152056182255" lon="13.197469159286758"><ele>1348.0</ele><time>2026-04-12T13:46:42.998Z</time></trkpt><trkpt lat="42.01420329974025" lon="13.197308310440128"><ele>1348.0</ele><time>2026-04-12T13:46:43.998Z</time></trkpt><trkpt lat="42.014251104367204" lon="13.197157056203556"><ele>1348.0</ele><time>2026-04-12T13:46:44.998Z</time></trkpt><trkpt lat="42.01429934614036" lon="13.197016814300197"><ele>1348.0</ele><time>2026-04-12T13:46:45.998Z</time></trkpt><trkpt lat="42.01434588759674" lon="13.196891590235367"><ele>1348.0</ele><time>2026-04-12T13:46:46.998Z</time></trkpt><trkpt lat="42.01439130354019" lon="13.196772125171838"><ele>1348.0</ele><time>2026-04-12T13:46:47.998Z</time></trkpt><trkpt lat="42.01443647146717" lon="13.196651616639558"><ele>1348.0</ele><time>2026-04-12T13:46:48.998Z</time></trkpt><trkpt lat="42.014485221546664" lon="13.196527463699754"><ele>1348.0</ele><time>2026-04-12T13:46:49.998Z</time></trkpt><trkpt lat="42.01453457624207" lon="13.196405340277604"><ele>1348.0</ele><time>2026-04-12T13:46:50.998Z</time></trkpt><trkpt lat="42.014571301305786" lon="13.196321124192947"><ele>1348.0</ele><time>2026-04-12T13:46:51.998Z</time></trkpt><trkpt lat="42.0146246306143" lon="13.196225964488345"><ele>1348.0</ele><time>2026-04-12T13:46:52.998Z</time></trkpt><trkpt lat="42.01470519740681" lon="13.196123588447424"><ele>1349.75</ele><time>2026-04-12T13:46:53.998Z</time></trkpt><trkpt lat="42.01479929003987" lon="13.196028416863811"><ele>1351.5</ele><time>2026-04-12T13:46:54.998Z</time></trkpt><trkpt lat="42.014897788343376" lon="13.195919947036156"><ele>1353.25</ele><time>2026-04-12T13:46:55.998Z</time></trkpt><trkpt lat="42.01499076706722" lon="13.195810541176863"><ele>1355.0</ele><time>2026-04-12T13:46:56.998Z</time></trkpt><trkpt lat="42.01509023166733" lon="13.195687141196892"><ele>1350.5</ele><time>2026-04-12T13:46:57.998Z</time></trkpt><trkpt lat="42.01518046332551" lon="13.195571071721842"><ele>1346.0</ele><time>2026-04-12T13:46:58.998Z</time></trkpt><trkpt lat="42.015269097419285" lon="13.19543400805455"><ele>1341.5</ele><time>2026-04-12T13:46:59.998Z</time></trkpt><trkpt lat="42.01536194813884" lon="13.195305350046347"><ele>1337.0</ele><time>2026-04-12T13:47:00.998Z</time></trkpt><trkpt lat="42.015442137997574" lon="13.195193756504505"><ele>1337.0</ele><time>2026-04-12T13:47:02Z</time></trkpt><trkpt lat="42.015521490616315" lon="13.19507550995826"><ele>1337.0</ele><time>2026-04-12T13:47:03Z</time></trkpt><trkpt lat="42.01558592370755" lon="13.194955315355992"><ele>1337.0</ele><time>2026-04-12T13:47:04Z</time></trkpt><trkpt lat="42.01563875218132" lon="13.194837740338281"><ele>1337.0</ele><time>2026-04-12T13:47:05Z</time></trkpt><trkpt lat="42.015681427044086" lon="13.194710236668742"><ele>1337.0</ele><time>2026-04-12T13:47:06Z</time></trkpt><trkpt lat="42.01574033982144" lon="13.19456507064238"><ele>1336.3333333333335</ele><time>2026-04-12T13:47:07Z</time></trkpt><trkpt lat="42.015781560653835" lon="13.194427695144647"><ele>1335.6666666666667</ele><time>2026-04-12T13:47:08Z</time></trkpt><trkpt lat="42.01581846707725" lon="13.194310049631552"><ele>1335.0</ele><time>2026-04-12T13:47:09Z</time></trkpt><trkpt lat="42.015850321750534" lon="13.194191666957147"><ele>1334.3333333333333</ele><time>2026-04-12T13:47:10Z</time></trkpt><trkpt lat="42.01587102009989" lon="13.194103045416728"><ele>1333.6666666666665</ele><time>2026-04-12T13:47:11Z</time></trkpt><trkpt lat="42.01589462298817" lon="13.194014789027964"><ele>1333.0</ele><time>2026-04-12T13:47:12Z</time></trkpt><trkpt lat="42.01593441329285" lon="13.193889999310068"><ele>1333.0</ele><time>2026-04-12T13:47:13Z</time></trkpt><trkpt lat="42.015995640023256" lon="13.193793153544815"><ele>1333.0</ele><time>2026-04-12T13:47:14Z</time></trkpt><trkpt lat="42.01606418929529" lon="13.193695914055398"><ele>1333.0</ele><time>2026-04-12T13:47:15Z</time></trkpt><trkpt lat="42.0161222841665" lon="13.193577031361588"><ele>1333.0</ele><time>2026-04-12T13:47:16Z</time></trkpt><trkpt lat="42.0161728964109" lon="13.193440401514028"><ele>1333.0</ele><time>2026-04-12T13:47:17Z</time></trkpt><trkpt lat="42.01622254369187" lon="13.193303297998684"><ele>1333.0</ele><time>2026-04-12T13:47:18Z</time></trkpt><trkpt lat="42.0162545270325" lon="13.193197025816302"><ele>1333.0</ele><time>2026-04-12T13:47:19Z</time></trkpt><trkpt lat="42.016303066093464" lon="13.193096961191303"><ele>1333.0</ele><time>2026-04-12T13:47:20Z</time></trkpt><trkpt lat="42.016360294413964" lon="13.19301092197203"><ele>1333.0</ele><time>2026-04-12T13:47:21Z</time></trkpt><trkpt lat="42.01643853586419" lon="13.192920756534447"><ele>1333.0</ele><time>2026-04-12T13:47:22Z</time></trkpt><trkpt lat="42.01652754605059" lon="13.19285059484252"><ele>1334.75</ele><time>2026-04-12T13:47:23Z</time></trkpt><trkpt lat="42.0166372684065" lon="13.192804788603754"><ele>1336.5</ele><time>2026-04-12T13:47:24Z</time></trkpt><trkpt lat="42.01676129667605" lon="13.192760742795636"><ele>1338.25</ele><time>2026-04-12T13:47:25Z</time></trkpt><trkpt lat="42.01687546291196" lon="13.192687189497077"><ele>1340.0</ele><time>2026-04-12T13:47:26Z</time></trkpt><trkpt lat="42.016968002142846" lon="13.192616258904433"><ele>1337.6</ele><time>2026-04-12T13:47:27Z</time></trkpt><trkpt lat="42.017065482548226" lon="13.192534724811914"><ele>1335.2</ele><time>2026-04-12T13:47:28Z</time></trkpt><trkpt lat="42.01716619057464" lon="13.192440032169731"><ele>1332.8000000000002</ele><time>2026-04-12T13:47:29Z</time></trkpt><trkpt lat="42.017246721014196" lon="13.192342222552014"><ele>1330.4</ele><time>2026-04-12T13:47:30Z</time></trkpt><trkpt lat="42.01731532031476" lon="13.192240385787507"><ele>1328.0</ele><time>2026-04-12T13:47:31Z</time></trkpt><trkpt lat="42.01737642031205" lon="13.192115598225385"><ele>1328.0</ele><time>2026-04-12T13:47:32Z</time></trkpt><trkpt lat="42.01742863018114" lon="13.191975144808518"><ele>1328.0</ele><time>2026-04-12T13:47:33Z</time></trkpt><trkpt lat="42.017468125567696" lon="13.191818214476559"><ele>1328.0</ele><time>2026-04-12T13:47:34Z</time></trkpt><trkpt lat="42.01749524273396" lon="13.19164928314813"><ele>1328.0</ele><time>2026-04-12T13:47:35Z</time></trkpt><trkpt lat="42.01752079918295" lon="13.191469768080939"><ele>1326.75</ele><time>2026-04-12T13:47:36Z</time></trkpt><trkpt lat="42.01756105445523" lon="13.191298432963096"><ele>1325.5</ele><time>2026-04-12T13:47:37Z</time></trkpt><trkpt lat="42.01761576501169" lon="13.191127354888673"><ele>1324.25</ele><time>2026-04-12T13:47:38Z</time></trkpt><trkpt lat="42.01768688985934" lon="13.190963552735175"><ele>1323.0</ele><time>2026-04-12T13:47:39Z</time></trkpt><trkpt lat="42.01776263093612" lon="13.190823834469523"><ele>1323.0</ele><time>2026-04-12T13:47:40Z</time></trkpt><trkpt lat="42.01782913340986" lon="13.190684256380678"><ele>1323.0</ele><time>2026-04-12T13:47:41Z</time></trkpt><trkpt lat="42.01787938915726" lon="13.190537475440811"><ele>1323.0</ele><time>2026-04-12T13:47:42Z</time></trkpt><trkpt lat="42.01793433792361" lon="13.190381592443403"><ele>1323.0</ele><time>2026-04-12T13:47:43Z</time></trkpt><trkpt lat="42.01799651336654" lon="13.190230212308453"><ele>1324.0</ele><time>2026-04-12T13:47:44Z</time></trkpt><trkpt lat="42.01805003778728" lon="13.190067333058533"><ele>1325.0</ele><time>2026-04-12T13:47:45Z</time></trkpt><trkpt lat="42.01809755881169" lon="13.189901939236597"><ele>1326.0</ele><time>2026-04-12T13:47:46Z</time></trkpt><trkpt lat="42.01814113231574" lon="13.189747933281566"><ele>1327.0</ele><time>2026-04-12T13:47:47Z</time></trkpt><trkpt lat="42.01819139601162" lon="13.189583995671924"><ele>1326.75</ele><time>2026-04-12T13:47:48Z</time></trkpt><trkpt lat="42.01823631060974" lon="13.189426947954555"><ele>1326.5</ele><time>2026-04-12T13:47:48.999Z</time></trkpt><trkpt lat="42.01827382497661" lon="13.18926787086541"><ele>1326.25</ele><time>2026-04-12T13:47:49.999Z</time></trkpt><trkpt lat="42.018304868463076" lon="13.189091279019737"><ele>1326.0</ele><time>2026-04-12T13:47:50.999Z</time></trkpt><trkpt lat="42.01832981624218" lon="13.188927305595147"><ele>1326.0</ele><time>2026-04-12T13:47:51.999Z</time></trkpt><trkpt lat="42.018347766021" lon="13.188788680067589"><ele>1326.0</ele><time>2026-04-12T13:47:52.999Z</time></trkpt><trkpt lat="42.01839278220182" lon="13.188613945802954"><ele>1326.0</ele><time>2026-04-12T13:47:53.999Z</time></trkpt><trkpt lat="42.01843964280398" lon="13.188443464594409"><ele>1326.0</ele><time>2026-04-12T13:47:54.999Z</time></trkpt><trkpt lat="42.018490452080115" lon="13.18831076784957"><ele>1326.0</ele><time>2026-04-12T13:47:55.999Z</time></trkpt><trkpt lat="42.01855416706686" lon="13.188194576921932"><ele>1326.0</ele><time>2026-04-12T13:47:56.999Z</time></trkpt><trkpt lat="42.01863192524327" lon="13.188078004398296"><ele>1326.0</ele><time>2026-04-12T13:47:57.999Z</time></trkpt><trkpt lat="42.01872082058638" lon="13.187973597356331"><ele>1326.0</ele><time>2026-04-12T13:47:58.999Z</time></trkpt><trkpt lat="42.01879774007172" lon="13.187867249114792"><ele>1327.0</ele><time>2026-04-12T13:47:59.999Z</time></trkpt><trkpt lat="42.018857663762304" lon="13.187724362354249"><ele>1328.0</ele><time>2026-04-12T13:48:00.999Z</time></trkpt><trkpt lat="42.01891803218728" lon="13.187574175682746"><ele>1329.0</ele><time>2026-04-12T13:48:01.999Z</time></trkpt><trkpt lat="42.01896945813506" lon="13.187420582492537"><ele>1330.0</ele><time>2026-04-12T13:48:02.999Z</time></trkpt><trkpt lat="42.01901383098489" lon="13.187283006301087"><ele>1328.75</ele><time>2026-04-12T13:48:03.999Z</time></trkpt><trkpt lat="42.01906571371998" lon="13.187153814840784"><ele>1327.5</ele><time>2026-04-12T13:48:04.999Z</time></trkpt><trkpt lat="42.019141774280406" lon="13.187040262588013"><ele>1326.25</ele><time>2026-04-12T13:48:05.999Z</time></trkpt><trkpt lat="42.019228733576846" lon="13.18693735031478"><ele>1325.0</ele><time>2026-04-12T13:48:06.999Z</time></trkpt><trkpt lat="42.019326269866475" lon="13.186829469838758"><ele>1325.0</ele><time>2026-04-12T13:48:07.999Z</time></trkpt><trkpt lat="42.01941218642707" lon="13.18671916635886"><ele>1325.0</ele><time>2026-04-12T13:48:08.999Z</time></trkpt><trkpt lat="42.01947557467094" lon="13.186602779462188"><ele>1325.0</ele><time>2026-04-12T13:48:09.999Z</time></trkpt><trkpt lat="42.019528625096605" lon="13.186472594002021"><ele>1325.0</ele><time>2026-04-12T13:48:10.999Z</time></trkpt><trkpt lat="42.01958874109524" lon="13.186334183246707"><ele>1326.5</ele><time>2026-04-12T13:48:11.999Z</time></trkpt><trkpt lat="42.01965335613816" lon="13.186197499292408"><ele>1328.0</ele><time>2026-04-12T13:48:12.999Z</time></trkpt><trkpt lat="42.01969689953819" lon="13.186058607464796"><ele>1329.5</ele><time>2026-04-12T13:48:13.999Z</time></trkpt><trkpt lat="42.01974043108732" lon="13.18590987002003"><ele>1331.0</ele><time>2026-04-12T13:48:14.999Z</time></trkpt><trkpt lat="42.019792618148706" lon="13.185752771165728"><ele>1336.0</ele><time>2026-04-12T13:48:15.999Z</time></trkpt><trkpt lat="42.019834956426294" lon="13.18557374721075"><ele>1341.0</ele><time>2026-04-12T13:48:16.999Z</time></trkpt><trkpt lat="42.019867883522565" lon="13.18540739137272"><ele>1346.0</ele><time>2026-04-12T13:48:17.999Z</time></trkpt><trkpt lat="42.01991078675982" lon="13.185248061112329"><ele>1351.0</ele><time>2026-04-12T13:48:18.999Z</time></trkpt><trkpt lat="42.01996075533717" lon="13.185076764730617"><ele>1347.75</ele><time>2026-04-12T13:48:19.999Z</time></trkpt><trkpt lat="42.02002719449103" lon="13.184901246498251"><ele>1344.5</ele><time>2026-04-12T13:48:20.999Z</time></trkpt><trkpt lat="42.02009187764313" lon="13.184739082126384"><ele>1341.25</ele><time>2026-04-12T13:48:21.999Z</time></trkpt><trkpt lat="42.0201622041665" lon="13.184566168693115"><ele>1338.0</ele><time>2026-04-12T13:48:22.999Z</time></trkpt><trkpt lat="42.02022443395343" lon="13.184405777523583"><ele>1338.0</ele><time>2026-04-12T13:48:23.999Z</time></trkpt><trkpt lat="42.020275846451185" lon="13.184240009036952"><ele>1338.0</ele><time>2026-04-12T13:48:24.999Z</time></trkpt><trkpt lat="42.02032375257676" lon="13.184078264591546"><ele>1338.0</ele><time>2026-04-12T13:48:25.999Z</time></trkpt><trkpt lat="42.02037934190202" lon="13.18392019853849"><ele>1338.0</ele><time>2026-04-12T13:48:26.999Z</time></trkpt><trkpt lat="42.02044893979704" lon="13.183764549590974"><ele>1341.25</ele><time>2026-04-12T13:48:27.999Z</time></trkpt><trkpt lat="42.02052989943917" lon="13.183605274405007"><ele>1344.5</ele><time>2026-04-12T13:48:28.999Z</time></trkpt><trkpt lat="42.020600635318864" lon="13.183435149030243"><ele>1347.75</ele><time>2026-04-12T13:48:29.999Z</time></trkpt><trkpt lat="42.02065349570627" lon="13.183254681389213"><ele>1351.0</ele><time>2026-04-12T13:48:30.999Z</time></trkpt><trkpt lat="42.02070171657131" lon="13.183054749511692"><ele>1351.75</ele><time>2026-04-12T13:48:31.999Z</time></trkpt><trkpt lat="42.020749034195056" lon="13.182880016014215"><ele>1352.5</ele><time>2026-04-12T13:48:32.999Z</time></trkpt><trkpt lat="42.020803522893466" lon="13.182707329812994"><ele>1353.25</ele><time>2026-04-12T13:48:33.999Z</time></trkpt><trkpt lat="42.0208685296533" lon="13.182524406034558"><ele>1354.0</ele><time>2026-04-12T13:48:34.999Z</time></trkpt><trkpt lat="42.0209307110455" lon="13.182347477355826"><ele>1354.0</ele><time>2026-04-12T13:48:35.998Z</time></trkpt><trkpt lat="42.02097919382118" lon="13.18218592096323"><ele>1354.0</ele><time>2026-04-12T13:48:36.998Z</time></trkpt><trkpt lat="42.02103069039692" lon="13.182036722653972"><ele>1354.0</ele><time>2026-04-12T13:48:37.998Z</time></trkpt><trkpt lat="42.02109556061518" lon="13.181888031018403"><ele>1354.0</ele><time>2026-04-12T13:48:38.998Z</time></trkpt><trkpt lat="42.021156923596614" lon="13.18173134830731"><ele>1354.0</ele><time>2026-04-12T13:48:39.998Z</time></trkpt><trkpt lat="42.021209375862135" lon="13.181559372559269"><ele>1354.0</ele><time>2026-04-12T13:48:40.998Z</time></trkpt><trkpt lat="42.021268524772445" lon="13.181367132278469"><ele>1354.0</ele><time>2026-04-12T13:48:41.998Z</time></trkpt><trkpt lat="42.021322107897966" lon="13.181165162958262"><ele>1355.0</ele><time>2026-04-12T13:48:42.998Z</time></trkpt><trkpt lat="42.021366169007244" lon="13.180970480210002"><ele>1356.0</ele><time>2026-04-12T13:48:43.998Z</time></trkpt><trkpt lat="42.02140508097944" lon="13.180770812466335"><ele>1357.0</ele><time>2026-04-12T13:48:44.998Z</time></trkpt><trkpt lat="42.021437087913675" lon="13.180559815548525"><ele>1359.25</ele><time>2026-04-12T13:48:45.998Z</time></trkpt><trkpt lat="42.02146559862413" lon="13.1803605838855"><ele>1361.5</ele><time>2026-04-12T13:48:46.998Z</time></trkpt><trkpt lat="42.02149835234801" lon="13.180175265910938"><ele>1363.75</ele><time>2026-04-12T13:48:47.998Z</time></trkpt><trkpt lat="42.02153420705532" lon="13.179998825984434"><ele>1366.0</ele><time>2026-04-12T13:48:48.998Z</time></trkpt><trkpt lat="42.021569223213085" lon="13.17983833006375"><ele>1366.25</ele><time>2026-04-12T13:48:49.998Z</time></trkpt><trkpt lat="42.021612980380475" lon="13.17968889519712"><ele>1366.5</ele><time>2026-04-12T13:48:50.998Z</time></trkpt><trkpt lat="42.02167474346795" lon="13.179548307987938"><ele>1366.75</ele><time>2026-04-12T13:48:51.998Z</time></trkpt><trkpt lat="42.02174880726355" lon="13.179418255673928"><ele>1367.0</ele><time>2026-04-12T13:48:52.998Z</time></trkpt><trkpt lat="42.02182625732865" lon="13.179293460049902"><ele>1362.3333333333335</ele><time>2026-04-12T13:48:53.998Z</time></trkpt><trkpt lat="42.0219126916513" lon="13.17914232958399"><ele>1357.6666666666667</ele><time>2026-04-12T13:48:54.998Z</time></trkpt><trkpt lat="42.02199601511116" lon="13.178977414998505"><ele>1353.0</ele><time>2026-04-12T13:48:55.998Z</time></trkpt><trkpt lat="42.02209169466769" lon="13.17880383852043"><ele>1353.0</ele><time>2026-04-12T13:48:56.998Z</time></trkpt><trkpt lat="42.02219150595679" lon="13.178634472199764"><ele>1353.0</ele><time>2026-04-12T13:48:57.998Z</time></trkpt><trkpt lat="42.02228559380816" lon="13.178495276863822"><ele>1353.0</ele><time>2026-04-12T13:48:58.998Z</time></trkpt><trkpt lat="42.0223934826325" lon="13.178338472386189"><ele>1353.3333333333333</ele><time>2026-04-12T13:48:59.998Z</time></trkpt><trkpt lat="42.0224996698727" lon="13.178179449014193"><ele>1353.6666666666665</ele><time>2026-04-12T13:49:00.998Z</time></trkpt><trkpt lat="42.02260315079264" lon="13.178003887566295"><ele>1354.0</ele><time>2026-04-12T13:49:01.998Z</time></trkpt><trkpt lat="42.022690599093444" lon="13.1778249843069"><ele>1354.0</ele><time>2026-04-12T13:49:02.998Z</time></trkpt><trkpt lat="42.02276294751422" lon="13.177653626789795"><ele>1354.0</ele><time>2026-04-12T13:49:03.998Z</time></trkpt><trkpt lat="42.02283377205002" lon="13.177462195054277"><ele>1354.0</ele><time>2026-04-12T13:49:04.998Z</time></trkpt><trkpt lat="42.02290924750836" lon="13.177273645086588"><ele>1355.0</ele><time>2026-04-12T13:49:05.998Z</time></trkpt><trkpt lat="42.022986354333014" lon="13.177068857064409"><ele>1356.0</ele><time>2026-04-12T13:49:06.998Z</time></trkpt><trkpt lat="42.02305496792191" lon="13.176880458876612"><ele>1357.0</ele><time>2026-04-12T13:49:08Z</time></trkpt><trkpt lat="42.02311402645511" lon="13.176745489217597"><ele>1358.0</ele><time>2026-04-12T13:49:09Z</time></trkpt><trkpt lat="42.02317039532625" lon="13.17663185984355"><ele>1358.0</ele><time>2026-04-12T13:49:10Z</time></trkpt><trkpt lat="42.02322498088058" lon="13.176549043855658"><ele>1358.0</ele><time>2026-04-12T13:49:11Z</time></trkpt><trkpt lat="42.02328196139918" lon="13.176466913346166"><ele>1358.0</ele><time>2026-04-12T13:49:12Z</time></trkpt><trkpt lat="42.02335166869082" lon="13.176372473039894"><ele>1358.0</ele><time>2026-04-12T13:49:13Z</time></trkpt><trkpt lat="42.02343584245435" lon="13.176258582038397"><ele>1358.0</ele><time>2026-04-12T13:49:14Z</time></trkpt><trkpt lat="42.02353266160026" lon="13.176133333481458"><ele>1356.0</ele><time>2026-04-12T13:49:15Z</time></trkpt><trkpt lat="42.02362741337087" lon="13.176019484056539"><ele>1354.0</ele><time>2026-04-12T13:49:16Z</time></trkpt><trkpt lat="42.023708911094396" lon="13.17591583975248"><ele>1352.0</ele><time>2026-04-12T13:49:17Z</time></trkpt><trkpt lat="42.02377696579293" lon="13.175832075433403"><ele>1350.0</ele><time>2026-04-12T13:49:18Z</time></trkpt><trkpt lat="42.02384920371407" lon="13.175741626057846"><ele>1348.0</ele><time>2026-04-12T13:49:19Z</time></trkpt><trkpt lat="42.02392799428362" lon="13.175649476807864"><ele>1348.0</ele><time>2026-04-12T13:49:20Z</time></trkpt><trkpt lat="42.02401348253757" lon="13.175573788618474"><ele>1348.0</ele><time>2026-04-12T13:49:21Z</time></trkpt><trkpt lat="42.024098435178274" lon="13.175506903904376"><ele>1348.0</ele><time>2026-04-12T13:49:22Z</time></trkpt><trkpt lat="42.02416701920328" lon="13.17544394315868"><ele>1348.0</ele><time>2026-04-12T13:49:23Z</time></trkpt><trkpt lat="42.02420461965032" lon="13.175367938290035"><ele>1348.0</ele><time>2026-04-12T13:49:24Z</time></trkpt><trkpt lat="42.02425653944182" lon="13.175258041634109"><ele>1348.0</ele><time>2026-04-12T13:49:25Z</time></trkpt><trkpt lat="42.02430878133885" lon="13.175126267840277"><ele>1345.6000000000001</ele><time>2026-04-12T13:49:26Z</time></trkpt><trkpt lat="42.024362623841554" lon="13.175009876414691"><ele>1343.2</ele><time>2026-04-12T13:49:27Z</time></trkpt><trkpt lat="42.02442911070133" lon="13.174919623754304"><ele>1340.8</ele><time>2026-04-12T13:49:28Z</time></trkpt><trkpt lat="42.024513026109794" lon="13.174836656316048"><ele>1338.4</ele><time>2026-04-12T13:49:29Z</time></trkpt><trkpt lat="42.02458694483135" lon="13.174754254343542"><ele>1336.0</ele><time>2026-04-12T13:49:30Z</time></trkpt><trkpt lat="42.024650942532006" lon="13.17467458734139"><ele>1336.0</ele><time>2026-04-12T13:49:31Z</time></trkpt><trkpt lat="42.02469527456785" lon="13.174573562578693"><ele>1336.0</ele><time>2026-04-12T13:49:32Z</time></trkpt><trkpt lat="42.02473154359132" lon="13.174459659879702"><ele>1336.0</ele><time>2026-04-12T13:49:33Z</time></trkpt><trkpt lat="42.024774829516794" lon="13.174354431306671"><ele>1336.0</ele><time>2026-04-12T13:49:34Z</time></trkpt><trkpt lat="42.02484827024536" lon="13.174253228426183"><ele>1336.0</ele><time>2026-04-12T13:49:35Z</time></trkpt><trkpt lat="42.02493601902545" lon="13.174152682376253"><ele>1334.4</ele><time>2026-04-12T13:49:36Z</time></trkpt><trkpt lat="42.02502644923978" lon="13.174031354083397"><ele>1332.8</ele><time>2026-04-12T13:49:37Z</time></trkpt><trkpt lat="42.02509945287146" lon="13.173909100507164"><ele>1331.2</ele><time>2026-04-12T13:49:38Z</time></trkpt><trkpt lat="42.02517420818747" lon="13.173816600614403"><ele>1329.6000000000001</ele><time>2026-04-12T13:49:39Z</time></trkpt><trkpt lat="42.02525251404173" lon="13.173741090522837"><ele>1328.0</ele><time>2026-04-12T13:49:40Z</time></trkpt><trkpt lat="42.02534407036503" lon="13.173628634889619"><ele>1327.5</ele><time>2026-04-12T13:49:41Z</time></trkpt><trkpt lat="42.02540575071309" lon="13.173517948105111"><ele>1327.0</ele><time>2026-04-12T13:49:42Z</time></trkpt><trkpt lat="42.025464424743994" lon="13.173419570236733"><ele>1326.5</ele><time>2026-04-12T13:49:43Z</time></trkpt><trkpt lat="42.025521061714166" lon="13.173363446269972"><ele>1326.0</ele><time>2026-04-12T13:49:44Z</time></trkpt><trkpt lat="42.02556792232035" lon="13.173281858726128"><ele>1325.5</ele><time>2026-04-12T13:49:45Z</time></trkpt><trkpt lat="42.02557653100502" lon="13.173194926775686"><ele>1325.0</ele><time>2026-04-12T13:49:46Z</time></trkpt><trkpt lat="42.025576213897246" lon="13.173075275770685"><ele>1325.0</ele><time>2026-04-12T13:49:47Z</time></trkpt><trkpt lat="42.02558737140407" lon="13.172945913133955"><ele>1325.0</ele><time>2026-04-12T13:49:48Z</time></trkpt><trkpt lat="42.02562319194364" lon="13.172808465307725"><ele>1325.0</ele><time>2026-04-12T13:49:49Z</time></trkpt><trkpt lat="42.02566131533387" lon="13.172670787707133"><ele>1325.0</ele><time>2026-04-12T13:49:50Z</time></trkpt><trkpt lat="42.025720962655555" lon="13.172537986556144"><ele>1325.0</ele><time>2026-04-12T13:49:51Z</time></trkpt><trkpt lat="42.02578343683241" lon="13.172390248753882"><ele>1321.25</ele><time>2026-04-12T13:49:51.999Z</time></trkpt><trkpt lat="42.025867230626" lon="13.172264176569426"><ele>1317.5</ele><time>2026-04-12T13:49:52.999Z</time></trkpt><trkpt lat="42.02591427523391" lon="13.172118565125695"><ele>1313.75</ele><time>2026-04-12T13:49:53.999Z</time></trkpt><trkpt lat="42.02595797047388" lon="13.17197322042367"><ele>1310.0</ele><time>2026-04-12T13:49:54.999Z</time></trkpt><trkpt lat="42.025975207410895" lon="13.171833696292888"><ele>1310.0</ele><time>2026-04-12T13:49:55.999Z</time></trkpt><trkpt lat="42.02599427935794" lon="13.1716972012658"><ele>1310.0</ele><time>2026-04-12T13:49:56.999Z</time></trkpt><trkpt lat="42.026025614479266" lon="13.1715764417699"><ele>1310.0</ele><time>2026-04-12T13:49:57.999Z</time></trkpt><trkpt lat="42.02604509207779" lon="13.171472878993024"><ele>1310.0</ele><time>2026-04-12T13:49:58.999Z</time></trkpt><trkpt lat="42.02609403764294" lon="13.171377392189365"><ele>1310.0</ele><time>2026-04-12T13:49:59.999Z</time></trkpt><trkpt lat="42.026143954679775" lon="13.17127625509129"><ele>1309.4</ele><time>2026-04-12T13:50:00.999Z</time></trkpt><trkpt lat="42.02620623524934" lon="13.171172115958255"><ele>1308.8</ele><time>2026-04-12T13:50:01.999Z</time></trkpt><trkpt lat="42.02627563122065" lon="13.171065498194402"><ele>1308.1999999999998</ele><time>2026-04-12T13:50:02.999Z</time></trkpt><trkpt lat="42.02632649027266" lon="13.170927737046863"><ele>1307.6</ele><time>2026-04-12T13:50:03.999Z</time></trkpt><trkpt lat="42.02636201823024" lon="13.170785336361266"><ele>1307.0</ele><time>2026-04-12T13:50:04.999Z</time></trkpt><trkpt lat="42.026412727259675" lon="13.170656393381117"><ele>1307.1999999999998</ele><time>2026-04-12T13:50:05.999Z</time></trkpt><trkpt lat="42.026491885974636" lon="13.170539311477027"><ele>1307.4</ele><time>2026-04-12T13:50:06.999Z</time></trkpt><trkpt lat="42.02658156584405" lon="13.170418086618428"><ele>1307.6</ele><time>2026-04-12T13:50:07.999Z</time></trkpt><trkpt lat="42.02665229707283" lon="13.170312376530395"><ele>1307.8000000000002</ele><time>2026-04-12T13:50:08.999Z</time></trkpt><trkpt lat="42.026719599895905" lon="13.170215869249867"><ele>1308.0</ele><time>2026-04-12T13:50:09.999Z</time></trkpt><trkpt lat="42.02677985140095" lon="13.170117300753839"><ele>1308.0</ele><time>2026-04-12T13:50:10.999Z</time></trkpt><trkpt lat="42.02682803182454" lon="13.170004013054527"><ele>1308.0</ele><time>2026-04-12T13:50:11.999Z</time></trkpt><trkpt lat="42.02688442496557" lon="13.169925677939963"><ele>1308.0</ele><time>2026-04-12T13:50:12.999Z</time></trkpt><trkpt lat="42.02692013564455" lon="13.16983816016522"><ele>1308.0</ele><time>2026-04-12T13:50:13.999Z</time></trkpt><trkpt lat="42.027002782739245" lon="13.169752236517747"><ele>1308.0</ele><time>2026-04-12T13:50:14.999Z</time></trkpt><trkpt lat="42.02707902923358" lon="13.169675108463727"><ele>1308.0</ele><time>2026-04-12T13:50:15.999Z</time></trkpt><trkpt lat="42.027146198038" lon="13.169577626835602"><ele>1308.0</ele><time>2026-04-12T13:50:16.999Z</time></trkpt><trkpt lat="42.02722087530444" lon="13.169469520386789"><ele>1308.0</ele><time>2026-04-12T13:50:17.999Z</time></trkpt><trkpt lat="42.027308495719105" lon="13.16937384090455"><ele>1308.0</ele><time>2026-04-12T13:50:18.999Z</time></trkpt><trkpt lat="42.02739440900842" lon="13.16926098852243"><ele>1308.0</ele><time>2026-04-12T13:50:19.999Z</time></trkpt><trkpt lat="42.02748794254095" lon="13.169141372054558"><ele>1306.5</ele><time>2026-04-12T13:50:20.999Z</time></trkpt><trkpt lat="42.0275853664591" lon="13.169006384006659"><ele>1305.0</ele><time>2026-04-12T13:50:21.999Z</time></trkpt><trkpt lat="42.02766746634206" lon="13.168856352186108"><ele>1303.5</ele><time>2026-04-12T13:50:22.999Z</time></trkpt><trkpt lat="42.02775506424523" lon="13.168685057016708"><ele>1302.0</ele><time>2026-04-12T13:50:23.999Z</time></trkpt><trkpt lat="42.02785355790406" lon="13.168506823627736"><ele>1302.0</ele><time>2026-04-12T13:50:24.999Z</time></trkpt><trkpt lat="42.02794212520994" lon="13.16836225649364"><ele>1302.0</ele><time>2026-04-12T13:50:25.999Z</time></trkpt><trkpt lat="42.028031385944296" lon="13.168213674199823"><ele>1302.0</ele><time>2026-04-12T13:50:26.999Z</time></trkpt><trkpt lat="42.028127147693624" lon="13.168056944193204"><ele>1302.0</ele><time>2026-04-12T13:50:27.999Z</time></trkpt><trkpt lat="42.02821339568932" lon="13.16792517614397"><ele>1302.0</ele><time>2026-04-12T13:50:28.999Z</time></trkpt><trkpt lat="42.02829589619472" lon="13.167775725118537"><ele>1302.0</ele><time>2026-04-12T13:50:29.999Z</time></trkpt><trkpt lat="42.02836205438873" lon="13.167614156659333"><ele>1302.0</ele><time>2026-04-12T13:50:30.999Z</time></trkpt><trkpt lat="42.028422386319164" lon="13.167463875328139"><ele>1302.0</ele><time>2026-04-12T13:50:31.999Z</time></trkpt><trkpt lat="42.02847706955128" lon="13.16734513012886"><ele>1301.5</ele><time>2026-04-12T13:50:32.999Z</time></trkpt><trkpt lat="42.02854348171003" lon="13.167221293984143"><ele>1301.0</ele><time>2026-04-12T13:50:33.999Z</time></trkpt><trkpt lat="42.02861940887509" lon="13.167094998718913"><ele>1300.5</ele><time>2026-04-12T13:50:34.999Z</time></trkpt><trkpt lat="42.02867610281153" lon="13.166941161855688"><ele>1300.0</ele><time>2026-04-12T13:50:35.999Z</time></trkpt><trkpt lat="42.02872585282159" lon="13.166780933044949"><ele>1300.0</ele><time>2026-04-12T13:50:36.999Z</time></trkpt><trkpt lat="42.02878195473012" lon="13.166620061362037"><ele>1300.0</ele><time>2026-04-12T13:50:37.999Z</time></trkpt><trkpt lat="42.02881576210404" lon="13.166492734560252"><ele>1300.0</ele><time>2026-04-12T13:50:38.998Z</time></trkpt><trkpt lat="42.0288609326203" lon="13.166373695486106"><ele>1300.0</ele><time>2026-04-12T13:50:39.998Z</time></trkpt><trkpt lat="42.028912429626075" lon="13.16621261895537"><ele>1300.2</ele><time>2026-04-12T13:50:40.998Z</time></trkpt><trkpt lat="42.02894180789587" lon="13.166066354596845"><ele>1300.4</ele><time>2026-04-12T13:50:41.998Z</time></trkpt><trkpt lat="42.028980687238494" lon="13.165939587176938"><ele>1300.6</ele><time>2026-04-12T13:50:42.998Z</time></trkpt><trkpt lat="42.02900742236508" lon="13.165801565094219"><ele>1300.8</ele><time>2026-04-12T13:50:43.998Z</time></trkpt><trkpt lat="42.02900722631967" lon="13.16564816200708"><ele>1301.0</ele><time>2026-04-12T13:50:44.998Z</time></trkpt><trkpt lat="42.0290042422607" lon="13.165510354734073"><ele>1302.1999999999998</ele><time>2026-04-12T13:50:45.998Z</time></trkpt><trkpt lat="42.02902871963361" lon="13.165381433118243"><ele>1303.3999999999999</ele><time>2026-04-12T13:50:46.998Z</time></trkpt><trkpt lat="42.02907733093717" lon="13.165274949094668"><ele>1304.6</ele><time>2026-04-12T13:50:47.998Z</time></trkpt><trkpt lat="42.02914066876951" lon="13.165179093342903"><ele>1305.8</ele><time>2026-04-12T13:50:48.998Z</time></trkpt><trkpt lat="42.0292178126255" lon="13.165108561888527"><ele>1307.0</ele><time>2026-04-12T13:50:49.998Z</time></trkpt><trkpt lat="42.02930194445573" lon="13.165002461132364"><ele>1304.25</ele><time>2026-04-12T13:50:50.998Z</time></trkpt><trkpt lat="42.02938395942749" lon="13.164882493932556"><ele>1301.5</ele><time>2026-04-12T13:50:51.998Z</time></trkpt><trkpt lat="42.029474729107804" lon="13.164756907680175"><ele>1298.75</ele><time>2026-04-12T13:50:52.998Z</time></trkpt><trkpt lat="42.02956960132574" lon="13.16463967368157"><ele>1296.0</ele><time>2026-04-12T13:50:53.998Z</time></trkpt><trkpt lat="42.02966934674672" lon="13.164515867183672"><ele>1296.0</ele><time>2026-04-12T13:50:54.998Z</time></trkpt><trkpt lat="42.02974889195434" lon="13.164407350579792"><ele>1296.0</ele><time>2026-04-12T13:50:55.998Z</time></trkpt><trkpt lat="42.029829360308675" lon="13.164273389813701"><ele>1296.0</ele><time>2026-04-12T13:50:56.998Z</time></trkpt><trkpt lat="42.029904711693504" lon="13.164127472399931"><ele>1296.0</ele><time>2026-04-12T13:50:57.998Z</time></trkpt><trkpt lat="42.029992633890444" lon="13.163956702649434"><ele>1293.75</ele><time>2026-04-12T13:50:58.998Z</time></trkpt><trkpt lat="42.03007785742856" lon="13.163823424286692"><ele>1291.5</ele><time>2026-04-12T13:50:59.998Z</time></trkpt><trkpt lat="42.030156724363586" lon="13.16370883476544"><ele>1289.25</ele><time>2026-04-12T13:51:00.998Z</time></trkpt><trkpt lat="42.03025475411678" lon="13.163611150532834"><ele>1287.0</ele><time>2026-04-12T13:51:01.998Z</time></trkpt><trkpt lat="42.030358309695195" lon="13.163492965595717"><ele>1287.0</ele><time>2026-04-12T13:51:02.998Z</time></trkpt><trkpt lat="42.03045802703356" lon="13.163355318108836"><ele>1287.0</ele><time>2026-04-12T13:51:03.998Z</time></trkpt><trkpt lat="42.03055251211983" lon="13.163198955672923"><ele>1287.0</ele><time>2026-04-12T13:51:04.998Z</time></trkpt><trkpt lat="42.030637036772326" lon="13.16306658090467"><ele>1287.0</ele><time>2026-04-12T13:51:05.998Z</time></trkpt><trkpt lat="42.03070011827843" lon="13.162937967284178"><ele>1285.3999999999999</ele><time>2026-04-12T13:51:06.998Z</time></trkpt><trkpt lat="42.03075218626246" lon="13.162813333471153"><ele>1283.8</ele><time>2026-04-12T13:51:07.998Z</time></trkpt><trkpt lat="42.03082135399369" lon="13.16269576417064"><ele>1282.2</ele><time>2026-04-12T13:51:08.998Z</time></trkpt><trkpt lat="42.03090691035769" lon="13.162606716635969"><ele>1280.6</ele><time>2026-04-12T13:51:09.998Z</time></trkpt><trkpt lat="42.03100770762668" lon="13.162533748922304"><ele>1279.0</ele><time>2026-04-12T13:51:10.998Z</time></trkpt><trkpt lat="42.03111468886825" lon="13.16245186962267"><ele>1282.75</ele><time>2026-04-12T13:51:11.998Z</time></trkpt><trkpt lat="42.03121476842542" lon="13.162342847723245"><ele>1286.5</ele><time>2026-04-12T13:51:12.998Z</time></trkpt><trkpt lat="42.031319424181795" lon="13.162215939936578"><ele>1290.25</ele><time>2026-04-12T13:51:14Z</time></trkpt><trkpt lat="42.03141361473758" lon="13.162104828529223"><ele>1294.0</ele><time>2026-04-12T13:51:15Z</time></trkpt><trkpt lat="42.03147581690618" lon="13.162008450149015"><ele>1294.0</ele><time>2026-04-12T13:51:16Z</time></trkpt><trkpt lat="42.03151995680162" lon="13.161883802878718"><ele>1294.0</ele><time>2026-04-12T13:51:17Z</time></trkpt><trkpt lat="42.031567212028804" lon="13.161751132607058"><ele>1294.0</ele><time>2026-04-12T13:51:18Z</time></trkpt><trkpt lat="42.03162432034164" lon="13.1616210676182"><ele>1294.0</ele><time>2026-04-12T13:51:19Z</time></trkpt><trkpt lat="42.03167831462782" lon="13.161514091076327"><ele>1294.0</ele><time>2026-04-12T13:51:20Z</time></trkpt><trkpt lat="42.031750655134516" lon="13.161387980155002"><ele>1290.0</ele><time>2026-04-12T13:51:21Z</time></trkpt><trkpt lat="42.03183674522003" lon="13.16128086119103"><ele>1286.0</ele><time>2026-04-12T13:51:22Z</time></trkpt><trkpt lat="42.03194179168417" lon="13.161177651093533"><ele>1282.0</ele><time>2026-04-12T13:51:23Z</time></trkpt><trkpt lat="42.03205986737241" lon="13.16107536376263"><ele>1278.0</ele><time>2026-04-12T13:51:24Z</time></trkpt><trkpt lat="42.03215687904745" lon="13.160984797654992"><ele>1278.0</ele><time>2026-04-12T13:51:25Z</time></trkpt><trkpt lat="42.03224666190773" lon="13.160870860814176"><ele>1278.0</ele><time>2026-04-12T13:51:26Z</time></trkpt><trkpt lat="42.032322248961705" lon="13.160740309352512"><ele>1278.0</ele><time>2026-04-12T13:51:27Z</time></trkpt><trkpt lat="42.032394619342405" lon="13.16059157110182"><ele>1278.0</ele><time>2026-04-12T13:51:28Z</time></trkpt><trkpt lat="42.03246923922737" lon="13.160462329438166"><ele>1275.2</ele><time>2026-04-12T13:51:29Z</time></trkpt><trkpt lat="42.03254466071969" lon="13.160364011120278"><ele>1272.4</ele><time>2026-04-12T13:51:30Z</time></trkpt><trkpt lat="42.032626645106674" lon="13.160263137789363"><ele>1269.6000000000001</ele><time>2026-04-12T13:51:31Z</time></trkpt><trkpt lat="42.03270548390494" lon="13.160166455279004"><ele>1266.8</ele><time>2026-04-12T13:51:32Z</time></trkpt><trkpt lat="42.032786325215596" lon="13.16006476219555"><ele>1264.0</ele><time>2026-04-12T13:51:33Z</time></trkpt><trkpt lat="42.03287936110963" lon="13.15997546318476"><ele>1264.0</ele><time>2026-04-12T13:51:34Z</time></trkpt><trkpt lat="42.03297263475302" lon="13.159926524847409"><ele>1264.0</ele><time>2026-04-12T13:51:35Z</time></trkpt><trkpt lat="42.03308678355612" lon="13.15989314079342"><ele>1264.0</ele><time>2026-04-12T13:51:36Z</time></trkpt><trkpt lat="42.03320657015667" lon="13.159849650888537"><ele>1264.0</ele><time>2026-04-12T13:51:37Z</time></trkpt><trkpt lat="42.03331302981168" lon="13.159787761685628"><ele>1261.0</ele><time>2026-04-12T13:51:38Z</time></trkpt><trkpt lat="42.03339668556865" lon="13.159698794887648"><ele>1258.0</ele><time>2026-04-12T13:51:39Z</time></trkpt><trkpt lat="42.03347868849748" lon="13.1595823702866"><ele>1255.0</ele><time>2026-04-12T13:51:40Z</time></trkpt><trkpt lat="42.03355008651043" lon="13.159453184438808"><ele>1252.0</ele><time>2026-04-12T13:51:41Z</time></trkpt><trkpt lat="42.03362245019802" lon="13.159306391714997"><ele>1252.0</ele><time>2026-04-12T13:51:42Z</time></trkpt><trkpt lat="42.033682287609146" lon="13.159184084055079"><ele>1252.0</ele><time>2026-04-12T13:51:43Z</time></trkpt><trkpt lat="42.03374249491539" lon="13.159046507885582"><ele>1252.0</ele><time>2026-04-12T13:51:44Z</time></trkpt><trkpt lat="42.033802112488594" lon="13.158874313298147"><ele>1252.0</ele><time>2026-04-12T13:51:45Z</time></trkpt><trkpt lat="42.03384439184195" lon="13.158726185669734"><ele>1252.0</ele><time>2026-04-12T13:51:46Z</time></trkpt><trkpt lat="42.03385849659844" lon="13.158582278351226"><ele>1252.0</ele><time>2026-04-12T13:51:47Z</time></trkpt><trkpt lat="42.033864696544136" lon="13.158436467569214"><ele>1252.0</ele><time>2026-04-12T13:51:48Z</time></trkpt><trkpt lat="42.03385745044534" lon="13.158305207128224"><ele>1252.0</ele><time>2026-04-12T13:51:49Z</time></trkpt><trkpt lat="42.033858243636004" lon="13.158204599561289"><ele>1252.0</ele><time>2026-04-12T13:51:50Z</time></trkpt><trkpt lat="42.03387730230075" lon="13.158111622796838"><ele>1252.1666666666665</ele><time>2026-04-12T13:51:51Z</time></trkpt><trkpt lat="42.03391085618519" lon="13.158002927196822"><ele>1252.3333333333333</ele><time>2026-04-12T13:51:52Z</time></trkpt><trkpt lat="42.0339619032696" lon="13.157897320970463"><ele>1252.5</ele><time>2026-04-12T13:51:53Z</time></trkpt><trkpt lat="42.03401156692081" lon="13.157814905783605"><ele>1252.6666666666667</ele><time>2026-04-12T13:51:54Z</time></trkpt><trkpt lat="42.03406802921995" lon="13.157737675760984"><ele>1252.8333333333335</ele><time>2026-04-12T13:51:55Z</time></trkpt><trkpt lat="42.03412068485597" lon="13.157664066869478"><ele>1253.0</ele><time>2026-04-12T13:51:55.999Z</time></trkpt><trkpt lat="42.03417749152182" lon="13.157577736800642"><ele>1253.0</ele><time>2026-04-12T13:51:56.999Z</time></trkpt><trkpt lat="42.034247888072365" lon="13.157487176472696"><ele>1253.0</ele><time>2026-04-12T13:51:57.999Z</time></trkpt><trkpt lat="42.03431356944377" lon="13.157393170536997"><ele>1253.0</ele><time>2026-04-12T13:51:58.999Z</time></trkpt><trkpt lat="42.034362675942525" lon="13.15729824074213"><ele>1253.0</ele><time>2026-04-12T13:51:59.999Z</time></trkpt><trkpt lat="42.03441252780099" lon="13.15720488424074"><ele>1253.0</ele><time>2026-04-12T13:52:00.999Z</time></trkpt><trkpt lat="42.03448331449287" lon="13.1571131398064"><ele>1251.8</ele><time>2026-04-12T13:52:01.999Z</time></trkpt><trkpt lat="42.034560484146716" lon="13.157020566691598"><ele>1250.6</ele><time>2026-04-12T13:52:02.999Z</time></trkpt><trkpt lat="42.03463573840329" lon="13.156917698859065"><ele>1249.4</ele><time>2026-04-12T13:52:03.999Z</time></trkpt><trkpt lat="42.034690433206855" lon="13.156818677760123"><ele>1248.2</ele><time>2026-04-12T13:52:04.999Z</time></trkpt><trkpt lat="42.034727308465875" lon="13.156726184947964"><ele>1247.0</ele><time>2026-04-12T13:52:05.999Z</time></trkpt><trkpt lat="42.034761297696534" lon="13.156616090820554"><ele>1246.5</ele><time>2026-04-12T13:52:06.999Z</time></trkpt><trkpt lat="42.03478407683123" lon="13.156489104926964"><ele>1246.0</ele><time>2026-04-12T13:52:07.999Z</time></trkpt><trkpt lat="42.03479629051278" lon="13.156374334882317"><ele>1245.5</ele><time>2026-04-12T13:52:08.999Z</time></trkpt><trkpt lat="42.03481874049759" lon="13.156280603223664"><ele>1245.0</ele><time>2026-04-12T13:52:09.999Z</time></trkpt><trkpt lat="42.03485507809032" lon="13.156186394779379"><ele>1244.5</ele><time>2026-04-12T13:52:10.999Z</time></trkpt><trkpt lat="42.034906003820524" lon="13.156090618211222"><ele>1244.0</ele><time>2026-04-12T13:52:11.999Z</time></trkpt><trkpt lat="42.03496332102067" lon="13.155998905867744"><ele>1244.5</ele><time>2026-04-12T13:52:12.999Z</time></trkpt><trkpt lat="42.03501913382401" lon="13.155933239570052"><ele>1245.0</ele><time>2026-04-12T13:52:13.999Z</time></trkpt><trkpt lat="42.035070627716564" lon="13.155879850948011"><ele>1245.5</ele><time>2026-04-12T13:52:14.999Z</time></trkpt><trkpt lat="42.03514820666866" lon="13.155742742496892"><ele>1246.0</ele><time>2026-04-12T13:52:16.999Z</time></trkpt><trkpt lat="42.03516028668495" lon="13.155642381182377"><ele>1246.5</ele><time>2026-04-12T13:52:17.999Z</time></trkpt><trkpt lat="42.035149102301425" lon="13.155538186305925"><ele>1247.0</ele><time>2026-04-12T13:52:18.999Z</time></trkpt><trkpt lat="42.03514907241118" lon="13.155435477547805"><ele>1245.0</ele><time>2026-04-12T13:52:19.999Z</time></trkpt><trkpt lat="42.03518553286309" lon="13.155331894564206"><ele>1243.0</ele><time>2026-04-12T13:52:20.999Z</time></trkpt><trkpt lat="42.035228685479844" lon="13.155219426989182"><ele>1241.0</ele><time>2026-04-12T13:52:21.999Z</time></trkpt><trkpt lat="42.03526897266055" lon="13.15511614739048"><ele>1239.0</ele><time>2026-04-12T13:52:22.999Z</time></trkpt><trkpt lat="42.035311386640196" lon="13.155015132806735"><ele>1237.0</ele><time>2026-04-12T13:52:23.999Z</time></trkpt><trkpt lat="42.03537079988816" lon="13.154916608034364"><ele>1235.0</ele><time>2026-04-12T13:52:24.999Z</time></trkpt><trkpt lat="42.03544380980192" lon="13.154832263405767"><ele>1233.5</ele><time>2026-04-12T13:52:25.999Z</time></trkpt><trkpt lat="42.0355391155591" lon="13.154750819925226"><ele>1232.0</ele><time>2026-04-12T13:52:26.999Z</time></trkpt><trkpt lat="42.035647275240066" lon="13.154668427651728"><ele>1230.5</ele><time>2026-04-12T13:52:27.999Z</time></trkpt><trkpt lat="42.035746028425635" lon="13.154588451226026"><ele>1229.0</ele><time>2026-04-12T13:52:28.999Z</time></trkpt><trkpt lat="42.035831959712496" lon="13.15451790731898"><ele>1231.4</ele><time>2026-04-12T13:52:29.999Z</time></trkpt><trkpt lat="42.035917217216074" lon="13.154444232832958"><ele>1233.8000000000002</ele><time>2026-04-12T13:52:30.999Z</time></trkpt><trkpt lat="42.035997352018406" lon="13.154359979987058"><ele>1236.1999999999998</ele><time>2026-04-12T13:52:31.999Z</time></trkpt><trkpt lat="42.03607022204645" lon="13.154281682991288"><ele>1238.6</ele><time>2026-04-12T13:52:32.999Z</time></trkpt><trkpt lat="42.03613890554757" lon="13.154224227061741"><ele>1241.0</ele><time>2026-04-12T13:52:33.999Z</time></trkpt><trkpt lat="42.03622078519431" lon="13.1541911768284"><ele>1241.0</ele><time>2026-04-12T13:52:34.999Z</time></trkpt><trkpt lat="42.03631351160065" lon="13.154180668102205"><ele>1241.0</ele><time>2026-04-12T13:52:35.999Z</time></trkpt><trkpt lat="42.036412179281804" lon="13.154172858307467"><ele>1241.0</ele><time>2026-04-12T13:52:36.999Z</time></trkpt><trkpt lat="42.03648789053554" lon="13.154145721346937"><ele>1241.0</ele><time>2026-04-12T13:52:37.999Z</time></trkpt><trkpt lat="42.03655806422385" lon="13.154025279636935"><ele>1241.0</ele><time>2026-04-12T13:52:39.999Z</time></trkpt><trkpt lat="42.03658473388252" lon="13.153916314733017"><ele>1239.5</ele><time>2026-04-12T13:52:40.999Z</time></trkpt><trkpt lat="42.03662507521244" lon="13.15378968606893"><ele>1238.0</ele><time>2026-04-12T13:52:41.999Z</time></trkpt><trkpt lat="42.03667802495863" lon="13.153687473268613"><ele>1236.5</ele><time>2026-04-12T13:52:42.999Z</time></trkpt><trkpt lat="42.03672725227974" lon="13.153595294268996"><ele>1235.0</ele><time>2026-04-12T13:52:43.998Z</time></trkpt><trkpt lat="42.036767075968626" lon="13.153512133744668"><ele>1233.5</ele><time>2026-04-12T13:52:44.998Z</time></trkpt><trkpt lat="42.03680703467615" lon="13.153395856702671"><ele>1232.0</ele><time>2026-04-12T13:52:45.998Z</time></trkpt><trkpt lat="42.03682988292907" lon="13.153267635950597"><ele>1230.1666666666667</ele><time>2026-04-12T13:52:46.998Z</time></trkpt><trkpt lat="42.03684408294396" lon="13.153128944408351"><ele>1228.3333333333335</ele><time>2026-04-12T13:52:47.998Z</time></trkpt><trkpt lat="42.036854047889165" lon="13.153014734912352"><ele>1226.5</ele><time>2026-04-12T13:52:48.998Z</time></trkpt><trkpt lat="42.03687039890491" lon="13.152930488499807"><ele>1224.6666666666667</ele><time>2026-04-12T13:52:49.998Z</time></trkpt><trkpt lat="42.03694792979863" lon="13.152824316246294"><ele>1222.8333333333333</ele><time>2026-04-12T13:52:51.998Z</time></trkpt><trkpt lat="42.03701803589341" lon="13.152777708103413"><ele>1221.0</ele><time>2026-04-12T13:52:52.998Z</time></trkpt><trkpt lat="42.03709480811756" lon="13.15274269731159"><ele>1221.0</ele><time>2026-04-12T13:52:53.998Z</time></trkpt><trkpt lat="42.03719817788202" lon="13.152746344195029"><ele>1221.0</ele><time>2026-04-12T13:52:55.998Z</time></trkpt><trkpt lat="42.03727620622819" lon="13.152858661395864"><ele>1221.0</ele><time>2026-04-12T13:52:57.998Z</time></trkpt><trkpt lat="42.03730405362625" lon="13.152959003796163"><ele>1221.0</ele><time>2026-04-12T13:52:58.998Z</time></trkpt><trkpt lat="42.0373456387163" lon="13.15303690521811"><ele>1221.0</ele><time>2026-04-12T13:52:59.998Z</time></trkpt><trkpt lat="42.03740636379251" lon="13.153069227602144"><ele>1221.0</ele><time>2026-04-12T13:53:00.998Z</time></trkpt><trkpt lat="42.03749284983664" lon="13.15307191685009"><ele>1222.0</ele><time>2026-04-12T13:53:01.998Z</time></trkpt><trkpt lat="42.037592379098925" lon="13.153054058625665"><ele>1223.0</ele><time>2026-04-12T13:53:02.998Z</time></trkpt><trkpt lat="42.03768239639933" lon="13.153013558526782"><ele>1224.0</ele><time>2026-04-12T13:53:03.998Z</time></trkpt><trkpt lat="42.03777486139907" lon="13.152955086951414"><ele>1225.0</ele><time>2026-04-12T13:53:04.998Z</time></trkpt><trkpt lat="42.037874343486514" lon="13.15288591838775"><ele>1226.0</ele><time>2026-04-12T13:53:05.998Z</time></trkpt><trkpt lat="42.037977042585034" lon="13.152817383597231"><ele>1226.0</ele><time>2026-04-12T13:53:06.998Z</time></trkpt><trkpt lat="42.03807302559964" lon="13.15276690517755"><ele>1226.0</ele><time>2026-04-12T13:53:07.998Z</time></trkpt><trkpt lat="42.038161056386386" lon="13.152714183731211"><ele>1226.0</ele><time>2026-04-12T13:53:08.998Z</time></trkpt><trkpt lat="42.038257102102236" lon="13.152656162463508"><ele>1226.0</ele><time>2026-04-12T13:53:09.998Z</time></trkpt><trkpt lat="42.03835743407571" lon="13.15259047328499"><ele>1226.0</ele><time>2026-04-12T13:53:10.998Z</time></trkpt><trkpt lat="42.03846711014864" lon="13.152526028365756"><ele>1226.5</ele><time>2026-04-12T13:53:11.998Z</time></trkpt><trkpt lat="42.03858332187525" lon="13.152463154845965"><ele>1227.0</ele><time>2026-04-12T13:53:12.998Z</time></trkpt><trkpt lat="42.038696529672706" lon="13.152385204355593"><ele>1227.5</ele><time>2026-04-12T13:53:13.998Z</time></trkpt><trkpt lat="42.038816614777915" lon="13.152282724553492"><ele>1228.0</ele><time>2026-04-12T13:53:14.998Z</time></trkpt><trkpt lat="42.03891985319367" lon="13.152197596962376"><ele>1225.8</ele><time>2026-04-12T13:53:15.998Z</time></trkpt><trkpt lat="42.039016436228486" lon="13.152118807826108"><ele>1223.6</ele><time>2026-04-12T13:53:16.998Z</time></trkpt><trkpt lat="42.03909949559928" lon="13.152036254862665"><ele>1221.4</ele><time>2026-04-12T13:53:17.998Z</time></trkpt><trkpt lat="42.039188155671944" lon="13.151940362065668"><ele>1219.2</ele><time>2026-04-12T13:53:18.998Z</time></trkpt><trkpt lat="42.039266844857586" lon="13.15184005814549"><ele>1217.0</ele><time>2026-04-12T13:53:20Z</time></trkpt><trkpt lat="42.03933533475039" lon="13.151753612720535"><ele>1217.0</ele><time>2026-04-12T13:53:21Z</time></trkpt><trkpt lat="42.03940947400385" lon="13.151685134470057"><ele>1217.0</ele><time>2026-04-12T13:53:22Z</time></trkpt><trkpt lat="42.03950385645344" lon="13.151628628027838"><ele>1217.0</ele><time>2026-04-12T13:53:23Z</time></trkpt><trkpt lat="42.03960603318877" lon="13.151590420460286"><ele>1217.0</ele><time>2026-04-12T13:53:24Z</time></trkpt><trkpt lat="42.03970388717004" lon="13.151568057276831"><ele>1217.0</ele><time>2026-04-12T13:53:25Z</time></trkpt><trkpt lat="42.03980318699843" lon="13.151523414883798"><ele>1217.6</ele><time>2026-04-12T13:53:26Z</time></trkpt><trkpt lat="42.03989048984953" lon="13.151454053916007"><ele>1218.2</ele><time>2026-04-12T13:53:27Z</time></trkpt><trkpt lat="42.03995045278075" lon="13.151356495128509"><ele>1218.8</ele><time>2026-04-12T13:53:28Z</time></trkpt><trkpt lat="42.04000682977843" lon="13.151224742825057"><ele>1219.4</ele><time>2026-04-12T13:53:29Z</time></trkpt><trkpt lat="42.04008727522188" lon="13.1510935068257"><ele>1220.0</ele><time>2026-04-12T13:53:30Z</time></trkpt><trkpt lat="42.040169761538834" lon="13.15096635660621"><ele>1220.0</ele><time>2026-04-12T13:53:31Z</time></trkpt><trkpt lat="42.040258672472426" lon="13.150847997374655"><ele>1220.0</ele><time>2026-04-12T13:53:32Z</time></trkpt><trkpt lat="42.04034455793235" lon="13.150716172874276"><ele>1220.0</ele><time>2026-04-12T13:53:33Z</time></trkpt><trkpt lat="42.0404110875883" lon="13.150590314210197"><ele>1220.0</ele><time>2026-04-12T13:53:34Z</time></trkpt><trkpt lat="42.040482512618446" lon="13.1504626205416"><ele>1223.5</ele><time>2026-04-12T13:53:35Z</time></trkpt><trkpt lat="42.04056633121589" lon="13.150339049055042"><ele>1227.0</ele><time>2026-04-12T13:53:36Z</time></trkpt><trkpt lat="42.04066328556089" lon="13.150222750174732"><ele>1230.5</ele><time>2026-04-12T13:53:37Z</time></trkpt><trkpt lat="42.0407458062701" lon="13.150124152652866"><ele>1234.0</ele><time>2026-04-12T13:53:38Z</time></trkpt><trkpt lat="42.04083497154125" lon="13.150024138729412"><ele>1234.0</ele><time>2026-04-12T13:53:39Z</time></trkpt><trkpt lat="42.04090501374326" lon="13.149919449760246"><ele>1234.0</ele><time>2026-04-12T13:53:40Z</time></trkpt><trkpt lat="42.040951737478366" lon="13.149814124947019"><ele>1234.0</ele><time>2026-04-12T13:53:41Z</time></trkpt><trkpt lat="42.04097143784174" lon="13.149697029312268"><ele>1234.0</ele><time>2026-04-12T13:53:42Z</time></trkpt><trkpt lat="42.04096844198832" lon="13.149565308321527"><ele>1234.0</ele><time>2026-04-12T13:53:43Z</time></trkpt><trkpt lat="42.04094789417895" lon="13.14943607953544"><ele>1229.6000000000001</ele><time>2026-04-12T13:53:44Z</time></trkpt><trkpt lat="42.04094967749608" lon="13.149330539709378"><ele>1225.2</ele><time>2026-04-12T13:53:45Z</time></trkpt><trkpt lat="42.04098161732085" lon="13.149227940962952"><ele>1220.8000000000002</ele><time>2026-04-12T13:53:46Z</time></trkpt><trkpt lat="42.04103606697215" lon="13.149123192803806"><ele>1216.4</ele><time>2026-04-12T13:53:47Z</time></trkpt><trkpt lat="42.04109724922021" lon="13.149013154580759"><ele>1212.0</ele><time>2026-04-12T13:53:48Z</time></trkpt><trkpt lat="42.041160687924446" lon="13.148913789780567"><ele>1208.4</ele><time>2026-04-12T13:53:49Z</time></trkpt><trkpt lat="42.0412247471454" lon="13.14882041966304"><ele>1204.8000000000002</ele><time>2026-04-12T13:53:50Z</time></trkpt><trkpt lat="42.04130325923922" lon="13.1487064968426"><ele>1201.2</ele><time>2026-04-12T13:53:51Z</time></trkpt><trkpt lat="42.04138252720103" lon="13.148599337339204"><ele>1197.6000000000001</ele><time>2026-04-12T13:53:52Z</time></trkpt><trkpt lat="42.04146587926542" lon="13.148482390189091"><ele>1194.0</ele><time>2026-04-12T13:53:53Z</time></trkpt><trkpt lat="42.04155280837912" lon="13.148371239857026"><ele>1195.5</ele><time>2026-04-12T13:53:54Z</time></trkpt><trkpt lat="42.041649631812724" lon="13.148251916947661"><ele>1197.0</ele><time>2026-04-12T13:53:55Z</time></trkpt><trkpt lat="42.041734065650964" lon="13.14813706229933"><ele>1198.5</ele><time>2026-04-12T13:53:56Z</time></trkpt><trkpt lat="42.04181079502195" lon="13.148039260806407"><ele>1200.0</ele><time>2026-04-12T13:53:57Z</time></trkpt><trkpt lat="42.04189440052322" lon="13.147900933364433"><ele>1200.0</ele><time>2026-04-12T13:53:57.999Z</time></trkpt><trkpt lat="42.041955969172534" lon="13.147813145678745"><ele>1200.0</ele><time>2026-04-12T13:53:58.999Z</time></trkpt><trkpt lat="42.04202236250745" lon="13.147740368802655"><ele>1200.0</ele><time>2026-04-12T13:53:59.999Z</time></trkpt><trkpt lat="42.04210933122062" lon="13.147685101131005"><ele>1200.0</ele><time>2026-04-12T13:54:00.999Z</time></trkpt><trkpt lat="42.04220999381475" lon="13.14763344035062"><ele>1200.0</ele><time>2026-04-12T13:54:01.999Z</time></trkpt><trkpt lat="42.0423225259822" lon="13.147561735182121"><ele>1200.0</ele><time>2026-04-12T13:54:02.999Z</time></trkpt><trkpt lat="42.04245228357359" lon="13.147463269801193"><ele>1200.0</ele><time>2026-04-12T13:54:03.999Z</time></trkpt><trkpt lat="42.04255374291469" lon="13.147350498442322"><ele>1200.0</ele><time>2026-04-12T13:54:04.999Z</time></trkpt><trkpt lat="42.04263988563924" lon="13.147228703338909"><ele>1200.0</ele><time>2026-04-12T13:54:05.999Z</time></trkpt><trkpt lat="42.04273372077855" lon="13.147119137007515"><ele>1201.5</ele><time>2026-04-12T13:54:06.999Z</time></trkpt><trkpt lat="42.042828612759585" lon="13.14700460931607"><ele>1203.0</ele><time>2026-04-12T13:54:07.999Z</time></trkpt><trkpt lat="42.042909084965544" lon="13.146897220592548"><ele>1204.5</ele><time>2026-04-12T13:54:08.999Z</time></trkpt><trkpt lat="42.042977897498496" lon="13.146776311579655"><ele>1206.0</ele><time>2026-04-12T13:54:09.999Z</time></trkpt><trkpt lat="42.043041360992405" lon="13.1466237145055"><ele>1202.75</ele><time>2026-04-12T13:54:10.999Z</time></trkpt><trkpt lat="42.04310256561237" lon="13.146463541978752"><ele>1199.5</ele><time>2026-04-12T13:54:11.999Z</time></trkpt><trkpt lat="42.043163088989196" lon="13.146286212424542"><ele>1196.25</ele><time>2026-04-12T13:54:12.999Z</time></trkpt><trkpt lat="42.04322868717475" lon="13.14611190074843"><ele>1193.0</ele><time>2026-04-12T13:54:13.999Z</time></trkpt><trkpt lat="42.04328199728221" lon="13.145975486612677"><ele>1195.4</ele><time>2026-04-12T13:54:14.999Z</time></trkpt><trkpt lat="42.04332967901995" lon="13.14586355754209"><ele>1197.8</ele><time>2026-04-12T13:54:15.999Z</time></trkpt><trkpt lat="42.04337812722662" lon="13.14577776544589"><ele>1200.2</ele><time>2026-04-12T13:54:16.999Z</time></trkpt><trkpt lat="42.04344259923476" lon="13.145701448389286"><ele>1202.6</ele><time>2026-04-12T13:54:17.999Z</time></trkpt><trkpt lat="42.04352449972757" lon="13.145651793657393"><ele>1205.0</ele><time>2026-04-12T13:54:18.999Z</time></trkpt><trkpt lat="42.04362613505868" lon="13.14559774384173"><ele>1205.0</ele><time>2026-04-12T13:54:19.999Z</time></trkpt><trkpt lat="42.04369196674334" lon="13.145474351011272"><ele>1205.0</ele><time>2026-04-12T13:54:20.999Z</time></trkpt><trkpt lat="42.0437389543415" lon="13.14533050548982"><ele>1205.0</ele><time>2026-04-12T13:54:21.999Z</time></trkpt><trkpt lat="42.043784739087755" lon="13.145230298650787"><ele>1205.0</ele><time>2026-04-12T13:54:22.999Z</time></trkpt><trkpt lat="42.04384725424702" lon="13.14514656844055"><ele>1205.0</ele><time>2026-04-12T13:54:24.999Z</time></trkpt><trkpt lat="42.04394508996005" lon="13.145054143790745"><ele>1205.0</ele><time>2026-04-12T13:54:26.999Z</time></trkpt><trkpt lat="42.04402928066195" lon="13.144986629843059"><ele>1205.0</ele><time>2026-04-12T13:54:27.999Z</time></trkpt><trkpt lat="42.04411663858535" lon="13.144927185505553"><ele>1205.0</ele><time>2026-04-12T13:54:28.999Z</time></trkpt><trkpt lat="42.044199643904726" lon="13.144844281260484"><ele>1205.0</ele><time>2026-04-12T13:54:29.999Z</time></trkpt><trkpt lat="42.04427856930352" lon="13.144730617548273"><ele>1205.0</ele><time>2026-04-12T13:54:30.999Z</time></trkpt><trkpt lat="42.04435254900135" lon="13.144587883660968"><ele>1204.8</ele><time>2026-04-12T13:54:31.999Z</time></trkpt><trkpt lat="42.04440616414804" lon="13.144461757774483"><ele>1204.6</ele><time>2026-04-12T13:54:32.999Z</time></trkpt><trkpt lat="42.0444599169209" lon="13.14432300532436"><ele>1204.4</ele><time>2026-04-12T13:54:33.999Z</time></trkpt><trkpt lat="42.04451223612665" lon="13.144197230267839"><ele>1204.2</ele><time>2026-04-12T13:54:34.999Z</time></trkpt><trkpt lat="42.044575699205296" lon="13.14410440295881"><ele>1204.0</ele><time>2026-04-12T13:54:35.999Z</time></trkpt><trkpt lat="42.04464920819504" lon="13.143990847669828"><ele>1205.4</ele><time>2026-04-12T13:54:36.999Z</time></trkpt><trkpt lat="42.04472542031065" lon="13.143877136684702"><ele>1206.8000000000002</ele><time>2026-04-12T13:54:37.999Z</time></trkpt><trkpt lat="42.044796004941276" lon="13.143765948774329"><ele>1208.1999999999998</ele><time>2026-04-12T13:54:38.999Z</time></trkpt><trkpt lat="42.0448665210903" lon="13.14366442137985"><ele>1209.6</ele><time>2026-04-12T13:54:39.999Z</time></trkpt><trkpt lat="42.04493191712563" lon="13.143530342772145"><ele>1211.0</ele><time>2026-04-12T13:54:40.999Z</time></trkpt><trkpt lat="42.04499179660923" lon="13.14340707518064"><ele>1211.0</ele><time>2026-04-12T13:54:41.999Z</time></trkpt><trkpt lat="42.04504165432289" lon="13.143271974081268"><ele>1211.0</ele><time>2026-04-12T13:54:42.999Z</time></trkpt><trkpt lat="42.04510041811658" lon="13.143146171130937"><ele>1211.0</ele><time>2026-04-12T13:54:43.999Z</time></trkpt><trkpt lat="42.045161394689615" lon="13.14301987014111"><ele>1211.0</ele><time>2026-04-12T13:54:44.998Z</time></trkpt><trkpt lat="42.04523626145002" lon="13.142874995227384"><ele>1206.5</ele><time>2026-04-12T13:54:45.998Z</time></trkpt><trkpt lat="42.045304109906766" lon="13.142751470422235"><ele>1202.0</ele><time>2026-04-12T13:54:46.998Z</time></trkpt><trkpt lat="42.04536189496754" lon="13.142607063087555"><ele>1197.5</ele><time>2026-04-12T13:54:47.998Z</time></trkpt><trkpt lat="42.045419260164294" lon="13.142462981689592"><ele>1193.0</ele><time>2026-04-12T13:54:48.998Z</time></trkpt><trkpt lat="42.0454699590381" lon="13.142311164573174"><ele>1190.6</ele><time>2026-04-12T13:54:49.998Z</time></trkpt><trkpt lat="42.04550706737091" lon="13.142179939537549"><ele>1188.1999999999998</ele><time>2026-04-12T13:54:50.998Z</time></trkpt><trkpt lat="42.04552677779946" lon="13.14204145198421"><ele>1185.8</ele><time>2026-04-12T13:54:51.998Z</time></trkpt><trkpt lat="42.04553880428724" lon="13.141898735465661"><ele>1183.3999999999999</ele><time>2026-04-12T13:54:52.998Z</time></trkpt><trkpt lat="42.04554613930595" lon="13.141761845317186"><ele>1181.0</ele><time>2026-04-12T13:54:53.998Z</time></trkpt><trkpt lat="42.04555265052194" lon="13.141647547242803"><ele>1179.5</ele><time>2026-04-12T13:54:54.998Z</time></trkpt><trkpt lat="42.04556550671368" lon="13.141529499136338"><ele>1178.0</ele><time>2026-04-12T13:54:55.998Z</time></trkpt><trkpt lat="42.045585379090845" lon="13.141425981960156"><ele>1176.5</ele><time>2026-04-12T13:54:56.998Z</time></trkpt><trkpt lat="42.045591864889396" lon="13.141315766438687"><ele>1175.0</ele><time>2026-04-12T13:54:57.998Z</time></trkpt><trkpt lat="42.04559996615987" lon="13.141228716611133"><ele>1173.5</ele><time>2026-04-12T13:54:58.998Z</time></trkpt><trkpt lat="42.045642386433826" lon="13.14110857885506"><ele>1172.0</ele><time>2026-04-12T13:55:00.998Z</time></trkpt><trkpt lat="42.04569945432554" lon="13.141057179304944"><ele>1172.0</ele><time>2026-04-12T13:55:01.998Z</time></trkpt><trkpt lat="42.045778560896295" lon="13.141030480185572"><ele>1172.0</ele><time>2026-04-12T13:55:02.998Z</time></trkpt><trkpt lat="42.04585079903761" lon="13.140985615850623"><ele>1172.0</ele><time>2026-04-12T13:55:03.998Z</time></trkpt><trkpt lat="42.045924221175646" lon="13.140933095807249"><ele>1172.0</ele><time>2026-04-12T13:55:04.998Z</time></trkpt><trkpt lat="42.04598503013232" lon="13.140827245255302"><ele>1172.0</ele><time>2026-04-12T13:55:05.998Z</time></trkpt><trkpt lat="42.046020198919145" lon="13.140702942673908"><ele>1172.0</ele><time>2026-04-12T13:55:06.998Z</time></trkpt><trkpt lat="42.046062427670336" lon="13.140580669387354"><ele>1174.5</ele><time>2026-04-12T13:55:07.998Z</time></trkpt><trkpt lat="42.04610782858337" lon="13.14044417194855"><ele>1177.0</ele><time>2026-04-12T13:55:08.998Z</time></trkpt><trkpt lat="42.04616590693696" lon="13.140291664623975"><ele>1179.5</ele><time>2026-04-12T13:55:09.998Z</time></trkpt><trkpt lat="42.04623187918823" lon="13.140124346501961"><ele>1182.0</ele><time>2026-04-12T13:55:10.998Z</time></trkpt><trkpt lat="42.04628459239887" lon="13.139980932207166"><ele>1178.5</ele><time>2026-04-12T13:55:11.998Z</time></trkpt><trkpt lat="42.04633269886592" lon="13.139852211141681"><ele>1175.0</ele><time>2026-04-12T13:55:12.998Z</time></trkpt><trkpt lat="42.04638740690068" lon="13.13972473311554"><ele>1171.5</ele><time>2026-04-12T13:55:13.998Z</time></trkpt><trkpt lat="42.04641776846437" lon="13.139568278032518"><ele>1168.0</ele><time>2026-04-12T13:55:14.998Z</time></trkpt><trkpt lat="42.046438173152715" lon="13.139413794044989"><ele>1168.0</ele><time>2026-04-12T13:55:15.998Z</time></trkpt><trkpt lat="42.04643601987856" lon="13.139263738268818"><ele>1168.0</ele><time>2026-04-12T13:55:16.998Z</time></trkpt><trkpt lat="42.046458324688786" lon="13.139118901590992"><ele>1168.0</ele><time>2026-04-12T13:55:17.998Z</time></trkpt><trkpt lat="42.046464453759405" lon="13.138997035194198"><ele>1168.0</ele><time>2026-04-12T13:55:18.998Z</time></trkpt><trkpt lat="42.04647794825875" lon="13.138895249109044"><ele>1168.0</ele><time>2026-04-12T13:55:19.998Z</time></trkpt><trkpt lat="42.046516112451975" lon="13.138824879940072"><ele>1166.4</ele><time>2026-04-12T13:55:20.998Z</time></trkpt><trkpt lat="42.04653642230549" lon="13.138731075518214"><ele>1164.8</ele><time>2026-04-12T13:55:21.998Z</time></trkpt><trkpt lat="42.04659505136992" lon="13.138660713069664"><ele>1163.2</ele><time>2026-04-12T13:55:22.998Z</time></trkpt><trkpt lat="42.046677631005544" lon="13.138628556521201"><ele>1161.6</ele><time>2026-04-12T13:55:23.998Z</time></trkpt><trkpt lat="42.046759817149585" lon="13.138526399894609"><ele>1160.0</ele><time>2026-04-12T13:55:26Z</time></trkpt><trkpt lat="42.04677599276326" lon="13.13837235101214"><ele>1159.6</ele><time>2026-04-12T13:55:28Z</time></trkpt><trkpt lat="42.04671572668256" lon="13.138240456095735"><ele>1159.2</ele><time>2026-04-12T13:55:30Z</time></trkpt><trkpt lat="42.046686423125934" lon="13.138125855374737"><ele>1158.8</ele><time>2026-04-12T13:55:31Z</time></trkpt><trkpt lat="42.046656475626925" lon="13.138047751654513"><ele>1158.4</ele><time>2026-04-12T13:55:32Z</time></trkpt><trkpt lat="42.04660881454603" lon="13.13789118596822"><ele>1158.0</ele><time>2026-04-12T13:55:34Z</time></trkpt><trkpt lat="42.04658514603263" lon="13.137796462611353"><ele>1158.0</ele><time>2026-04-12T13:55:35Z</time></trkpt><trkpt lat="42.04656322333961" lon="13.13770652080718"><ele>1158.0</ele><time>2026-04-12T13:55:36Z</time></trkpt><trkpt lat="42.046528031363785" lon="13.13756214007845"><ele>1158.0</ele><time>2026-04-12T13:55:38Z</time></trkpt><trkpt lat="42.04644807684452" lon="13.137516260933852"><ele>1158.0</ele><time>2026-04-12T13:55:39Z</time></trkpt><trkpt lat="42.04645154683333" lon="13.137421839508065"><ele>1158.0</ele><time>2026-04-12T13:55:40Z</time></trkpt><trkpt lat="42.04646789142604" lon="13.137298613764717"><ele>1158.0</ele><time>2026-04-12T13:55:41Z</time></trkpt><trkpt lat="42.04650277824807" lon="13.13718992345983"><ele>1156.4</ele><time>2026-04-12T13:55:42Z</time></trkpt><trkpt lat="42.0465334934729" lon="13.137062644636448"><ele>1154.8</ele><time>2026-04-12T13:55:43Z</time></trkpt><trkpt lat="42.04656223181531" lon="13.136929178713544"><ele>1153.2</ele><time>2026-04-12T13:55:44Z</time></trkpt><trkpt lat="42.046584390694804" lon="13.136783275487705"><ele>1151.6</ele><time>2026-04-12T13:55:45Z</time></trkpt><trkpt lat="42.046594429745895" lon="13.13663952153169"><ele>1150.0</ele><time>2026-04-12T13:55:46Z</time></trkpt><trkpt lat="42.046587794237794" lon="13.136506958281899"><ele>1148.2</ele><time>2026-04-12T13:55:47Z</time></trkpt><trkpt lat="42.04657205678381" lon="13.136385951694875"><ele>1146.4</ele><time>2026-04-12T13:55:48Z</time></trkpt><trkpt lat="42.046549184861256" lon="13.13625206837521"><ele>1144.6</ele><time>2026-04-12T13:55:49Z</time></trkpt><trkpt lat="42.046525609224695" lon="13.136124867787961"><ele>1142.8</ele><time>2026-04-12T13:55:50Z</time></trkpt><trkpt lat="42.046511611298556" lon="13.136002854277068"><ele>1141.0</ele><time>2026-04-12T13:55:51Z</time></trkpt><trkpt lat="42.04649249677408" lon="13.13587189330084"><ele>1141.0</ele><time>2026-04-12T13:55:52Z</time></trkpt><trkpt lat="42.046466371396534" lon="13.135735888259955"><ele>1141.0</ele><time>2026-04-12T13:55:53Z</time></trkpt><trkpt lat="42.046443117317246" lon="13.135620293930177"><ele>1141.0</ele><time>2026-04-12T13:55:54Z</time></trkpt><trkpt lat="42.04644003532133" lon="13.135496555771995"><ele>1141.0</ele><time>2026-04-12T13:55:55Z</time></trkpt><trkpt lat="42.04643003304133" lon="13.135372975663719"><ele>1141.0</ele><time>2026-04-12T13:55:56Z</time></trkpt><trkpt lat="42.046424849378916" lon="13.135236784324498"><ele>1139.6</ele><time>2026-04-12T13:55:57Z</time></trkpt><trkpt lat="42.046421202370475" lon="13.135121486746476"><ele>1138.1999999999998</ele><time>2026-04-12T13:55:58Z</time></trkpt><trkpt lat="42.04641913690162" lon="13.134994132257324"><ele>1136.8000000000002</ele><time>2026-04-12T13:55:59Z</time></trkpt><trkpt lat="42.04641514292905" lon="13.13486254643022"><ele>1135.4</ele><time>2026-04-12T13:55:59.999Z</time></trkpt><trkpt lat="42.04640172613414" lon="13.13473837866218"><ele>1134.0</ele><time>2026-04-12T13:56:00.999Z</time></trkpt><trkpt lat="42.0463872524805" lon="13.134630871288921"><ele>1133.4</ele><time>2026-04-12T13:56:01.999Z</time></trkpt><trkpt lat="42.0463525579517" lon="13.134499723551691"><ele>1132.8000000000002</ele><time>2026-04-12T13:56:02.999Z</time></trkpt><trkpt lat="42.04633526143157" lon="13.134365682065859"><ele>1132.1999999999998</ele><time>2026-04-12T13:56:03.999Z</time></trkpt><trkpt lat="42.04633089644944" lon="13.134245471437882"><ele>1131.6</ele><time>2026-04-12T13:56:04.999Z</time></trkpt><trkpt lat="42.046296588418656" lon="13.134123988923799"><ele>1131.0</ele><time>2026-04-12T13:56:05.999Z</time></trkpt><trkpt lat="42.046281296069694" lon="13.133991785391402"><ele>1130.8</ele><time>2026-04-12T13:56:06.999Z</time></trkpt><trkpt lat="42.04626653300457" lon="13.133864999560402"><ele>1130.6</ele><time>2026-04-12T13:56:07.999Z</time></trkpt><trkpt lat="42.04625091820638" lon="13.133749994216256"><ele>1130.4</ele><time>2026-04-12T13:56:08.999Z</time></trkpt><trkpt lat="42.04624866237371" lon="13.133634399648829"><ele>1130.2</ele><time>2026-04-12T13:56:09.999Z</time></trkpt><trkpt lat="42.04625596530621" lon="13.13349062204613"><ele>1130.0</ele><time>2026-04-12T13:56:10.999Z</time></trkpt><trkpt lat="42.046272673401305" lon="13.133339105352253"><ele>1128.4</ele><time>2026-04-12T13:56:11.999Z</time></trkpt><trkpt lat="42.04628641064134" lon="13.133191443463165"><ele>1126.8</ele><time>2026-04-12T13:56:12.999Z</time></trkpt><trkpt lat="42.046295332259035" lon="13.133062236419775"><ele>1125.2</ele><time>2026-04-12T13:56:13.999Z</time></trkpt><trkpt lat="42.04630777821584" lon="13.132939683224135"><ele>1123.6</ele><time>2026-04-12T13:56:14.999Z</time></trkpt><trkpt lat="42.046329393638395" lon="13.132824916932979"><ele>1122.0</ele><time>2026-04-12T13:56:15.999Z</time></trkpt><trkpt lat="42.046351837120646" lon="13.132734586935626"><ele>1122.0</ele><time>2026-04-12T13:56:16.999Z</time></trkpt><trkpt lat="42.04641276285434" lon="13.132569166285167"><ele>1122.0</ele><time>2026-04-12T13:56:18.999Z</time></trkpt><trkpt lat="42.046461738101556" lon="13.132491420259766"><ele>1122.0</ele><time>2026-04-12T13:56:19.999Z</time></trkpt><trkpt lat="42.046522487128954" lon="13.132400449772959"><ele>1122.0</ele><time>2026-04-12T13:56:20.999Z</time></trkpt><trkpt lat="42.04655924091217" lon="13.132310516099015"><ele>1122.0</ele><time>2026-04-12T13:56:21.999Z</time></trkpt><trkpt lat="42.04659667400112" lon="13.132210536963573"><ele>1120.8</ele><time>2026-04-12T13:56:22.999Z</time></trkpt><trkpt lat="42.04657515660356" lon="13.132079979755062"><ele>1119.6</ele><time>2026-04-12T13:56:23.999Z</time></trkpt><trkpt lat="42.046568057682144" lon="13.131931071331552"><ele>1118.3999999999999</ele><time>2026-04-12T13:56:24.999Z</time></trkpt><trkpt lat="42.04657377951666" lon="13.131797515221063"><ele>1117.2</ele><time>2026-04-12T13:56:25.999Z</time></trkpt><trkpt lat="42.04659546615036" lon="13.131667629411739"><ele>1116.0</ele><time>2026-04-12T13:56:26.999Z</time></trkpt><trkpt lat="42.046627842120444" lon="13.131554225792124"><ele>1118.1666666666667</ele><time>2026-04-12T13:56:27.999Z</time></trkpt><trkpt lat="42.04666311188907" lon="13.131450749144145"><ele>1120.3333333333333</ele><time>2026-04-12T13:56:28.999Z</time></trkpt><trkpt lat="42.04669312743768" lon="13.131346860777937"><ele>1122.5</ele><time>2026-04-12T13:56:29.999Z</time></trkpt><trkpt lat="42.046717177050255" lon="13.131242901148502"><ele>1124.6666666666665</ele><time>2026-04-12T13:56:30.999Z</time></trkpt><trkpt lat="42.0467524598055" lon="13.131148316813311"><ele>1126.8333333333333</ele><time>2026-04-12T13:56:31.999Z</time></trkpt><trkpt lat="42.046798599032684" lon="13.131053593723607"><ele>1129.0</ele><time>2026-04-12T13:56:32.999Z</time></trkpt><trkpt lat="42.046860165185116" lon="13.130955552065064"><ele>1129.0</ele><time>2026-04-12T13:56:33.999Z</time></trkpt><trkpt lat="42.046923153574944" lon="13.130854749897317"><ele>1129.0</ele><time>2026-04-12T13:56:34.999Z</time></trkpt><trkpt lat="42.046996692991726" lon="13.130742157306674"><ele>1129.0</ele><time>2026-04-12T13:56:35.999Z</time></trkpt><trkpt lat="42.047065401955635" lon="13.13060639382319"><ele>1129.0</ele><time>2026-04-12T13:56:36.999Z</time></trkpt><trkpt lat="42.0471317623057" lon="13.130460362545563"><ele>1127.0</ele><time>2026-04-12T13:56:37.999Z</time></trkpt><trkpt lat="42.04719078671253" lon="13.130332979057746"><ele>1125.0</ele><time>2026-04-12T13:56:38.999Z</time></trkpt><trkpt lat="42.04724929574053" lon="13.130219033016703"><ele>1123.0</ele><time>2026-04-12T13:56:39.999Z</time></trkpt><trkpt lat="42.04730541539181" lon="13.130119361538041"><ele>1121.0</ele><time>2026-04-12T13:56:40.999Z</time></trkpt><trkpt lat="42.047353764201176" lon="13.130034222051437"><ele>1119.0</ele><time>2026-04-12T13:56:41.999Z</time></trkpt><trkpt lat="42.04740621394987" lon="13.129950029291605"><ele>1120.3333333333333</ele><time>2026-04-12T13:56:42.999Z</time></trkpt><trkpt lat="42.04746504159263" lon="13.129862174363268"><ele>1121.6666666666667</ele><time>2026-04-12T13:56:43.999Z</time></trkpt><trkpt lat="42.04752647526645" lon="13.129781975533"><ele>1123.0</ele><time>2026-04-12T13:56:44.999Z</time></trkpt><trkpt lat="42.04757802008424" lon="13.129703163025159"><ele>1124.3333333333335</ele><time>2026-04-12T13:56:45.998Z</time></trkpt><trkpt lat="42.0475977276531" lon="13.129597468646555"><ele>1125.6666666666667</ele><time>2026-04-12T13:56:46.998Z</time></trkpt><trkpt lat="42.047600275050364" lon="13.12949806696456"><ele>1127.0</ele><time>2026-04-12T13:56:47.998Z</time></trkpt><trkpt lat="42.047593679351934" lon="13.129382435266615"><ele>1127.0</ele><time>2026-04-12T13:56:48.998Z</time></trkpt><trkpt lat="42.04757306127698" lon="13.129268240993662"><ele>1127.0</ele><time>2026-04-12T13:56:49.998Z</time></trkpt><trkpt lat="42.0475782525996" lon="13.129131432502732"><ele>1127.0</ele><time>2026-04-12T13:56:50.998Z</time></trkpt><trkpt lat="42.04757825260013" lon="13.12898138649641"><ele>1127.0</ele><time>2026-04-12T13:56:51.998Z</time></trkpt><trkpt lat="42.04756507647939" lon="13.12880041046197"><ele>1127.0</ele><time>2026-04-12T13:56:52.998Z</time></trkpt><trkpt lat="42.047562192460404" lon="13.128631186368992"><ele>1126.3333333333335</ele><time>2026-04-12T13:56:53.998Z</time></trkpt><trkpt lat="42.04756233095757" lon="13.128486127544015"><ele>1125.6666666666667</ele><time>2026-04-12T13:56:54.998Z</time></trkpt><trkpt lat="42.04756209270242" lon="13.128345132494491"><ele>1125.0</ele><time>2026-04-12T13:56:55.998Z</time></trkpt><trkpt lat="42.04755671726658" lon="13.12822457153078"><ele>1124.3333333333333</ele><time>2026-04-12T13:56:56.998Z</time></trkpt><trkpt lat="42.04757154950419" lon="13.128138774892681"><ele>1123.6666666666665</ele><time>2026-04-12T13:56:57.998Z</time></trkpt><trkpt lat="42.04760751953314" lon="13.128064868063607"><ele>1123.0</ele><time>2026-04-12T13:56:58.998Z</time></trkpt><trkpt lat="42.04766308623735" lon="13.127997244919769"><ele>1121.6666666666665</ele><time>2026-04-12T13:56:59.998Z</time></trkpt><trkpt lat="42.04773783902454" lon="13.12797856071312"><ele>1120.3333333333333</ele><time>2026-04-12T13:57:00.998Z</time></trkpt><trkpt lat="42.047828374707784" lon="13.127917441399608"><ele>1119.0</ele><time>2026-04-12T13:57:01.998Z</time></trkpt><trkpt lat="42.04791069824719" lon="13.127904556650009"><ele>1117.6666666666667</ele><time>2026-04-12T13:57:02.998Z</time></trkpt><trkpt lat="42.04796813400195" lon="13.127868359918127"><ele>1116.3333333333335</ele><time>2026-04-12T13:57:03.998Z</time></trkpt><trkpt lat="42.04800893889849" lon="13.127788992735361"><ele>1115.0</ele><time>2026-04-12T13:57:04.998Z</time></trkpt><trkpt lat="42.04803391342446" lon="13.12767124845363"><ele>1115.0</ele><time>2026-04-12T13:57:05.998Z</time></trkpt><trkpt lat="42.0480413130388" lon="13.127538555124387"><ele>1115.0</ele><time>2026-04-12T13:57:06.998Z</time></trkpt><trkpt lat="42.04805637754536" lon="13.127416493788505"><ele>1115.0</ele><time>2026-04-12T13:57:07.998Z</time></trkpt><trkpt lat="42.048099720276895" lon="13.127299082404956"><ele>1115.0</ele><time>2026-04-12T13:57:08.998Z</time></trkpt><trkpt lat="42.048152728433585" lon="13.127170282609022"><ele>1115.0</ele><time>2026-04-12T13:57:09.998Z</time></trkpt><trkpt lat="42.048190211720126" lon="13.127057194971666"><ele>1114.8333333333335</ele><time>2026-04-12T13:57:10.998Z</time></trkpt><trkpt lat="42.04820775261699" lon="13.12689164014478"><ele>1114.6666666666667</ele><time>2026-04-12T13:57:12.998Z</time></trkpt><trkpt lat="42.04818535039785" lon="13.126810712943817"><ele>1114.5</ele><time>2026-04-12T13:57:13.998Z</time></trkpt><trkpt lat="42.048129164516794" lon="13.126734652525736"><ele>1114.3333333333333</ele><time>2026-04-12T13:57:14.998Z</time></trkpt><trkpt lat="42.048052833286405" lon="13.126694905633384"><ele>1114.1666666666665</ele><time>2026-04-12T13:57:15.998Z</time></trkpt><trkpt lat="42.04797744014918" lon="13.126668094998987"><ele>1114.0</ele><time>2026-04-12T13:57:16.998Z</time></trkpt><trkpt lat="42.047904476692075" lon="13.12662643695034"><ele>1114.0</ele><time>2026-04-12T13:57:17.998Z</time></trkpt><trkpt lat="42.047823017311785" lon="13.126596680939723"><ele>1114.0</ele><time>2026-04-12T13:57:18.998Z</time></trkpt><trkpt lat="42.04773610716974" lon="13.126562285650245"><ele>1114.0</ele><time>2026-04-12T13:57:19.998Z</time></trkpt><trkpt lat="42.047649834509514" lon="13.126518073220092"><ele>1114.0</ele><time>2026-04-12T13:57:20.998Z</time></trkpt><trkpt lat="42.04758183600888" lon="13.126474400923566"><ele>1114.0</ele><time>2026-04-12T13:57:21.998Z</time></trkpt><trkpt lat="42.04748170053504" lon="13.126385217990643"><ele>1111.1666666666665</ele><time>2026-04-12T13:57:23.998Z</time></trkpt><trkpt lat="42.047423761097114" lon="13.126317773860967"><ele>1108.3333333333333</ele><time>2026-04-12T13:57:24.998Z</time></trkpt><trkpt lat="42.047375365474636" lon="13.126232878764185"><ele>1105.5</ele><time>2026-04-12T13:57:25.998Z</time></trkpt><trkpt lat="42.047369460224594" lon="13.126136099698435"><ele>1102.6666666666667</ele><time>2026-04-12T13:57:26.998Z</time></trkpt><trkpt lat="42.047368569144396" lon="13.126018671799757"><ele>1099.8333333333335</ele><time>2026-04-12T13:57:27.998Z</time></trkpt><trkpt lat="42.047369160385045" lon="13.125904681305148"><ele>1097.0</ele><time>2026-04-12T13:57:28.998Z</time></trkpt><trkpt lat="42.04737796164338" lon="13.125799196008897"><ele>1095.6666666666667</ele><time>2026-04-12T13:57:29.998Z</time></trkpt><trkpt lat="42.047380859989985" lon="13.125709637397662"><ele>1094.3333333333335</ele><time>2026-04-12T13:57:30.998Z</time></trkpt><trkpt lat="42.04736708123666" lon="13.125579062676922"><ele>1093.0</ele><time>2026-04-12T13:57:33Z</time></trkpt><trkpt lat="42.047327832258176" lon="13.125509673594788"><ele>1091.6666666666667</ele><time>2026-04-12T13:57:34Z</time></trkpt><trkpt lat="42.04722823409711" lon="13.125499038954679"><ele>1090.3333333333333</ele><time>2026-04-12T13:57:35Z</time></trkpt><trkpt lat="42.047161588501666" lon="13.125496305661628"><ele>1089.0</ele><time>2026-04-12T13:57:36Z</time></trkpt><trkpt lat="42.04708879441953" lon="13.125431012436131"><ele>1089.0</ele><time>2026-04-12T13:57:38Z</time></trkpt><trkpt lat="42.04705716692085" lon="13.125252221079249"><ele>1089.0</ele><time>2026-04-12T13:57:40Z</time></trkpt><trkpt lat="42.04705958015485" lon="13.125153309092068"><ele>1089.0</ele><time>2026-04-12T13:57:41Z</time></trkpt><trkpt lat="42.047091218979865" lon="13.125068445737735"><ele>1089.0</ele><time>2026-04-12T13:57:42Z</time></trkpt><trkpt lat="42.04717918978927" lon="13.12497977476511"><ele>1089.0</ele><time>2026-04-12T13:57:44Z</time></trkpt><trkpt lat="42.04723431243781" lon="13.124924958068465"><ele>1089.4</ele><time>2026-04-12T13:57:45Z</time></trkpt><trkpt lat="42.04732353859524" lon="13.124846616615578"><ele>1089.8000000000002</ele><time>2026-04-12T13:57:46Z</time></trkpt><trkpt lat="42.04741577480044" lon="13.12481423498411"><ele>1090.1999999999998</ele><time>2026-04-12T13:57:47Z</time></trkpt><trkpt lat="42.04750803931096" lon="13.124731573861467"><ele>1090.6</ele><time>2026-04-12T13:57:48Z</time></trkpt><trkpt lat="42.04758673939223" lon="13.124669257765115"><ele>1091.0</ele><time>2026-04-12T13:57:49Z</time></trkpt><trkpt lat="42.047644695299546" lon="13.124598316980045"><ele>1091.0</ele><time>2026-04-12T13:57:50Z</time></trkpt><trkpt lat="42.047703647672385" lon="13.124532012488416"><ele>1091.0</ele><time>2026-04-12T13:57:51Z</time></trkpt><trkpt lat="42.047761030393474" lon="13.1244706962978"><ele>1091.0</ele><time>2026-04-12T13:57:52Z</time></trkpt><trkpt lat="42.047815319356275" lon="13.12441436549386"><ele>1091.0</ele><time>2026-04-12T13:57:53Z</time></trkpt><trkpt lat="42.04791850965448" lon="13.12429229672187"><ele>1091.0</ele><time>2026-04-12T13:57:55Z</time></trkpt><trkpt lat="42.047976251565856" lon="13.124214696807112"><ele>1091.0</ele><time>2026-04-12T13:57:56Z</time></trkpt><trkpt lat="42.04804760764398" lon="13.124132292265823"><ele>1090.8</ele><time>2026-04-12T13:57:57Z</time></trkpt><trkpt lat="42.04811198494105" lon="13.124035070507581"><ele>1090.6</ele><time>2026-04-12T13:57:58Z</time></trkpt><trkpt lat="42.04817490744242" lon="13.12392817286205"><ele>1090.4</ele><time>2026-04-12T13:57:59Z</time></trkpt><trkpt lat="42.048223253215454" lon="13.123831727288868"><ele>1090.2</ele><time>2026-04-12T13:58:00Z</time></trkpt><trkpt lat="42.04828458276651" lon="13.12370673829248"><ele>1090.0</ele><time>2026-04-12T13:58:01Z</time></trkpt><trkpt lat="42.04834901888635" lon="13.123591033122985"><ele>1090.0</ele><time>2026-04-12T13:58:02Z</time></trkpt><trkpt lat="42.04840492043606" lon="13.123453803968191"><ele>1090.0</ele><time>2026-04-12T13:58:03Z</time></trkpt><trkpt lat="42.04846095197954" lon="13.1233161720389"><ele>1090.0</ele><time>2026-04-12T13:58:03.999Z</time></trkpt><trkpt lat="42.04850498261119" lon="13.12316544391413"><ele>1090.0</ele><time>2026-04-12T13:58:04.999Z</time></trkpt><trkpt lat="42.04854401521757" lon="13.122995182321892"><ele>1085.75</ele><time>2026-04-12T13:58:05.999Z</time></trkpt><trkpt lat="42.04858069970217" lon="13.12283846258529"><ele>1081.5</ele><time>2026-04-12T13:58:06.999Z</time></trkpt><trkpt lat="42.0486227486404" lon="13.122680714467343"><ele>1077.25</ele><time>2026-04-12T13:58:07.999Z</time></trkpt><trkpt lat="42.04865997079076" lon="13.122548092151254"><ele>1073.0</ele><time>2026-04-12T13:58:08.999Z</time></trkpt><trkpt lat="42.0486986356385" lon="13.122424548715017"><ele>1069.8</ele><time>2026-04-12T13:58:09.999Z</time></trkpt><trkpt lat="42.04874203578743" lon="13.122297179355197"><ele>1066.6</ele><time>2026-04-12T13:58:10.999Z</time></trkpt><trkpt lat="42.04879279595937" lon="13.122154961563131"><ele>1063.4</ele><time>2026-04-12T13:58:11.999Z</time></trkpt><trkpt lat="42.04884417553062" lon="13.122014772291298"><ele>1060.2</ele><time>2026-04-12T13:58:12.999Z</time></trkpt><trkpt lat="42.04888863280921" lon="13.12188731158922"><ele>1057.0</ele><time>2026-04-12T13:58:13.999Z</time></trkpt><trkpt lat="42.0489356092068" lon="13.121760611548105"><ele>1057.0</ele><time>2026-04-12T13:58:14.999Z</time></trkpt><trkpt lat="42.04897766425548" lon="13.121637075088941"><ele>1057.0</ele><time>2026-04-12T13:58:15.999Z</time></trkpt><trkpt lat="42.049016790967194" lon="13.121519696694177"><ele>1057.0</ele><time>2026-04-12T13:58:16.999Z</time></trkpt><trkpt lat="42.04905518148693" lon="13.12140577345482"><ele>1057.0</ele><time>2026-04-12T13:58:17.999Z</time></trkpt><trkpt lat="42.04910762283913" lon="13.121275369683467"><ele>1057.0</ele><time>2026-04-12T13:58:18.999Z</time></trkpt><trkpt lat="42.04916772396589" lon="13.121126718551883"><ele>1056.25</ele><time>2026-04-12T13:58:19.999Z</time></trkpt><trkpt lat="42.04921486021509" lon="13.120981255076854"><ele>1055.5</ele><time>2026-04-12T13:58:20.999Z</time></trkpt><trkpt lat="42.04926176340384" lon="13.120845935945308"><ele>1054.75</ele><time>2026-04-12T13:58:21.999Z</time></trkpt><trkpt lat="42.049307735175006" lon="13.120703609498932"><ele>1054.0</ele><time>2026-04-12T13:58:22.999Z</time></trkpt><trkpt lat="42.0493433387318" lon="13.120550425245996"><ele>1054.0</ele><time>2026-04-12T13:58:23.999Z</time></trkpt><trkpt lat="42.04938186772956" lon="13.120420184151044"><ele>1054.0</ele><time>2026-04-12T13:58:24.999Z</time></trkpt><trkpt lat="42.04941511340633" lon="13.120300459386915"><ele>1054.0</ele><time>2026-04-12T13:58:25.999Z</time></trkpt><trkpt lat="42.04944237885991" lon="13.12019761343728"><ele>1054.0</ele><time>2026-04-12T13:58:26.999Z</time></trkpt><trkpt lat="42.04946786954398" lon="13.12011172318456"><ele>1054.0</ele><time>2026-04-12T13:58:27.999Z</time></trkpt><trkpt lat="42.04953318790641" lon="13.11995739472115"><ele>1049.4</ele><time>2026-04-12T13:58:29.999Z</time></trkpt><trkpt lat="42.04959150911667" lon="13.119870203817365"><ele>1044.8000000000002</ele><time>2026-04-12T13:58:30.999Z</time></trkpt><trkpt lat="42.04965683116533" lon="13.119793226365593"><ele>1040.1999999999998</ele><time>2026-04-12T13:58:31.999Z</time></trkpt><trkpt lat="42.04972929720807" lon="13.119728927786127"><ele>1035.6</ele><time>2026-04-12T13:58:32.999Z</time></trkpt><trkpt lat="42.04979521151752" lon="13.119633827806679"><ele>1031.0</ele><time>2026-04-12T13:58:33.999Z</time></trkpt><trkpt lat="42.04985896834659" lon="13.119540803532646"><ele>1031.0</ele><time>2026-04-12T13:58:34.999Z</time></trkpt><trkpt lat="42.049918404035964" lon="13.119422810744975"><ele>1031.0</ele><time>2026-04-12T13:58:35.999Z</time></trkpt><trkpt lat="42.0499718106241" lon="13.11930313651096"><ele>1031.0</ele><time>2026-04-12T13:58:36.999Z</time></trkpt><trkpt lat="42.050015492076405" lon="13.119190859093248"><ele>1031.0</ele><time>2026-04-12T13:58:37.999Z</time></trkpt><trkpt lat="42.050064560350215" lon="13.11908456685759"><ele>1031.0</ele><time>2026-04-12T13:58:38.999Z</time></trkpt><trkpt lat="42.05011653460693" lon="13.118986408167402"><ele>1031.6</ele><time>2026-04-12T13:58:39.999Z</time></trkpt><trkpt lat="42.0501794345067" lon="13.11889236731167"><ele>1032.1999999999998</ele><time>2026-04-12T13:58:40.999Z</time></trkpt><trkpt lat="42.050247698425565" lon="13.118803124041534"><ele>1032.8000000000002</ele><time>2026-04-12T13:58:41.999Z</time></trkpt><trkpt lat="42.05031539266116" lon="13.118727961526185"><ele>1033.4</ele><time>2026-04-12T13:58:42.999Z</time></trkpt><trkpt lat="42.05037998776111" lon="13.118633484938137"><ele>1034.0</ele><time>2026-04-12T13:58:43.999Z</time></trkpt><trkpt lat="42.05043084967008" lon="13.118544067805985"><ele>1034.0</ele><time>2026-04-12T13:58:44.999Z</time></trkpt><trkpt lat="42.050480234051726" lon="13.118460950142746"><ele>1034.0</ele><time>2026-04-12T13:58:45.999Z</time></trkpt><trkpt lat="42.050530244625314" lon="13.118392091364921"><ele>1034.0</ele><time>2026-04-12T13:58:46.999Z</time></trkpt><trkpt lat="42.05060895611516" lon="13.118277087355347"><ele>1034.0</ele><time>2026-04-12T13:58:48.999Z</time></trkpt><trkpt lat="42.05069225991266" lon="13.118203884907171"><ele>1034.0</ele><time>2026-04-12T13:58:50.999Z</time></trkpt><trkpt lat="42.050796677103236" lon="13.118208940993917"><ele>1036.6000000000001</ele><time>2026-04-12T13:58:52.998Z</time></trkpt><trkpt lat="42.05087049034116" lon="13.118259153263073"><ele>1039.2</ele><time>2026-04-12T13:58:53.998Z</time></trkpt><trkpt lat="42.05095824673736" lon="13.118334644318244"><ele>1041.8000000000002</ele><time>2026-04-12T13:58:54.998Z</time></trkpt><trkpt lat="42.05104405581118" lon="13.118410583287426"><ele>1044.4</ele><time>2026-04-12T13:58:55.998Z</time></trkpt><trkpt lat="42.051139924330414" lon="13.118487064652259"><ele>1047.0</ele><time>2026-04-12T13:58:56.998Z</time></trkpt><trkpt lat="42.05124425587474" lon="13.118550276252597"><ele>1047.0</ele><time>2026-04-12T13:58:57.998Z</time></trkpt><trkpt lat="42.05134136333349" lon="13.118594620867754"><ele>1047.0</ele><time>2026-04-12T13:58:58.998Z</time></trkpt><trkpt lat="42.05143981621847" lon="13.118638199101754"><ele>1047.0</ele><time>2026-04-12T13:58:59.998Z</time></trkpt><trkpt lat="42.051544500033934" lon="13.118675320928805"><ele>1047.0</ele><time>2026-04-12T13:59:00.998Z</time></trkpt><trkpt lat="42.05164778515118" lon="13.118688838784015"><ele>1047.0</ele><time>2026-04-12T13:59:01.998Z</time></trkpt><trkpt lat="42.05177412360731" lon="13.118699805818592"><ele>1045.75</ele><time>2026-04-12T13:59:02.998Z</time></trkpt><trkpt lat="42.051900343455735" lon="13.118710090278745"><ele>1044.5</ele><time>2026-04-12T13:59:03.998Z</time></trkpt><trkpt lat="42.05201396635115" lon="13.118722109407035"><ele>1043.25</ele><time>2026-04-12T13:59:04.998Z</time></trkpt><trkpt lat="42.052121172652086" lon="13.118731629260044"><ele>1042.0</ele><time>2026-04-12T13:59:05.998Z</time></trkpt><trkpt lat="42.052234915238024" lon="13.118741596025126"><ele>1042.0</ele><time>2026-04-12T13:59:06.998Z</time></trkpt><trkpt lat="42.05234146341814" lon="13.118737321138305"><ele>1042.0</ele><time>2026-04-12T13:59:07.998Z</time></trkpt><trkpt lat="42.052441299785386" lon="13.118733744815268"><ele>1042.0</ele><time>2026-04-12T13:59:08.998Z</time></trkpt><trkpt lat="42.052542773321825" lon="13.118729000878758"><ele>1042.0</ele><time>2026-04-12T13:59:09.998Z</time></trkpt><trkpt lat="42.052630708538274" lon="13.118729208627988"><ele>1042.0</ele><time>2026-04-12T13:59:10.998Z</time></trkpt><trkpt lat="42.05272119843448" lon="13.118728899946612"><ele>1041.0</ele><time>2026-04-12T13:59:11.998Z</time></trkpt><trkpt lat="42.05281595696777" lon="13.11872476184006"><ele>1040.0</ele><time>2026-04-12T13:59:12.998Z</time></trkpt><trkpt lat="42.052904701083" lon="13.118726483234287"><ele>1039.0</ele><time>2026-04-12T13:59:13.998Z</time></trkpt><trkpt lat="42.05297618657816" lon="13.11872552200151"><ele>1038.0</ele><time>2026-04-12T13:59:14.998Z</time></trkpt><trkpt lat="42.0530877529218" lon="13.118731368497729"><ele>1037.0</ele><time>2026-04-12T13:59:16.998Z</time></trkpt><trkpt lat="42.05319123124439" lon="13.118758254345027"><ele>1036.3333333333335</ele><time>2026-04-12T13:59:28.998Z</time></trkpt><trkpt lat="42.053308120817945" lon="13.118800761540404"><ele>1035.6666666666667</ele><time>2026-04-12T13:59:30.998Z</time></trkpt><trkpt lat="42.0534024968709" lon="13.118793302948824"><ele>1035.0</ele><time>2026-04-12T13:59:32.998Z</time></trkpt><trkpt lat="42.05345743701546" lon="13.118749756758948"><ele>1034.3333333333333</ele><time>2026-04-12T13:59:33.998Z</time></trkpt><trkpt lat="42.05351170232355" lon="13.118667927193217"><ele>1033.6666666666665</ele><time>2026-04-12T13:59:34.998Z</time></trkpt><trkpt lat="42.05354429181637" lon="13.118561262363109"><ele>1033.0</ele><time>2026-04-12T13:59:35.998Z</time></trkpt><trkpt lat="42.05357714809846" lon="13.118452998935773"><ele>1033.0</ele><time>2026-04-12T13:59:36.998Z</time></trkpt><trkpt lat="42.053628495190864" lon="13.118348906685368"><ele>1033.0</ele><time>2026-04-12T13:59:38Z</time></trkpt><trkpt lat="42.05368091624785" lon="13.11825480351503"><ele>1033.0</ele><time>2026-04-12T13:59:39Z</time></trkpt><trkpt lat="42.05372878878301" lon="13.11818063158033"><ele>1033.0</ele><time>2026-04-12T13:59:40Z</time></trkpt><trkpt lat="42.053775390518936" lon="13.118113681593229"><ele>1033.0</ele><time>2026-04-12T13:59:41Z</time></trkpt><trkpt lat="42.053832894604" lon="13.11806745150149"><ele>1033.0</ele><time>2026-04-12T13:59:42Z</time></trkpt><trkpt lat="42.05391315455042" lon="13.118006311244319"><ele>1030.6</ele><time>2026-04-12T13:59:43Z</time></trkpt><trkpt lat="42.05399486994074" lon="13.117930113191488"><ele>1028.1999999999998</ele><time>2026-04-12T13:59:44Z</time></trkpt><trkpt lat="42.054095337753445" lon="13.117884114953291"><ele>1025.8</ele><time>2026-04-12T13:59:45Z</time></trkpt><trkpt lat="42.05419382757415" lon="13.117829026645326"><ele>1023.4</ele><time>2026-04-12T13:59:46Z</time></trkpt><trkpt lat="42.0543017861305" lon="13.117761492781948"><ele>1021.0</ele><time>2026-04-12T13:59:47Z</time></trkpt><trkpt lat="42.05440650048215" lon="13.117692033091892"><ele>1021.0</ele><time>2026-04-12T13:59:48Z</time></trkpt><trkpt lat="42.054498558443086" lon="13.117620418343288"><ele>1020.9999999999999</ele><time>2026-04-12T13:59:49Z</time></trkpt><trkpt lat="42.05457213379672" lon="13.117549257394764"><ele>1020.9999999999999</ele><time>2026-04-12T13:59:50Z</time></trkpt><trkpt lat="42.054638266576355" lon="13.117497366739903"><ele>1021.0</ele><time>2026-04-12T13:59:51Z</time></trkpt><trkpt lat="42.05474681417633" lon="13.117437706781852"><ele>1021.0</ele><time>2026-04-12T13:59:53Z</time></trkpt><trkpt lat="42.054800100889864" lon="13.117392185955476"><ele>1019.4999999999999</ele><time>2026-04-12T13:59:54Z</time></trkpt><trkpt lat="42.05484906661098" lon="13.117324249888386"><ele>1018.0</ele><time>2026-04-12T13:59:55Z</time></trkpt><trkpt lat="42.054889243556495" lon="13.117239106541971"><ele>1016.5</ele><time>2026-04-12T13:59:56Z</time></trkpt><trkpt lat="42.05492971655546" lon="13.117102212644358"><ele>1015.0</ele><time>2026-04-12T13:59:57Z</time></trkpt><trkpt lat="42.05496846486157" lon="13.116988707264646"><ele>1013.4999999999999</ele><time>2026-04-12T13:59:58Z</time></trkpt><trkpt lat="42.05502180307974" lon="13.11688791828214"><ele>1012.0</ele><time>2026-04-12T13:59:59Z</time></trkpt><trkpt lat="42.055094123052285" lon="13.116785903242182"><ele>1012.0</ele><time>2026-04-12T14:00:00Z</time></trkpt><trkpt lat="42.055182909090355" lon="13.116678991844338"><ele>1012.0</ele><time>2026-04-12T14:00:01Z</time></trkpt><trkpt lat="42.055267210328" lon="13.116556466423521"><ele>1012.0</ele><time>2026-04-12T14:00:02Z</time></trkpt><trkpt lat="42.055322078796024" lon="13.116444069088478"><ele>1012.0</ele><time>2026-04-12T14:00:03Z</time></trkpt><trkpt lat="42.055370171193836" lon="13.116340749873583"><ele>1012.0</ele><time>2026-04-12T14:00:03.999Z</time></trkpt><trkpt lat="42.05542780339224" lon="13.116258393314599"><ele>1011.8333333333333</ele><time>2026-04-12T14:00:04.999Z</time></trkpt><trkpt lat="42.05548844108492" lon="13.11618387045741"><ele>1011.6666666666666</ele><time>2026-04-12T14:00:05.999Z</time></trkpt><trkpt lat="42.055556942013396" lon="13.116118954858278"><ele>1011.5</ele><time>2026-04-12T14:00:06.999Z</time></trkpt><trkpt lat="42.05563599970221" lon="13.116066876092392"><ele>1011.3333333333333</ele><time>2026-04-12T14:00:07.999Z</time></trkpt><trkpt lat="42.05571322530151" lon="13.116016288564497"><ele>1011.1666666666666</ele><time>2026-04-12T14:00:08.999Z</time></trkpt><trkpt lat="42.055778215900766" lon="13.115992611106359"><ele>1011.0</ele><time>2026-04-12T14:00:09.999Z</time></trkpt><trkpt lat="42.05584661917093" lon="13.115962365599676"><ele>1011.0</ele><time>2026-04-12T14:00:10.999Z</time></trkpt><trkpt lat="42.05594594934473" lon="13.115878202709954"><ele>1010.9999999999999</ele><time>2026-04-12T14:00:12.999Z</time></trkpt><trkpt lat="42.05602733589027" lon="13.115782849585267"><ele>1010.9999999999999</ele><time>2026-04-12T14:00:14.999Z</time></trkpt><trkpt lat="42.056073957053684" lon="13.115704761462398"><ele>1011.0</ele><time>2026-04-12T14:00:15.999Z</time></trkpt><trkpt lat="42.05613634331032" lon="13.115611343525039"><ele>1011.0</ele><time>2026-04-12T14:00:16.999Z</time></trkpt><trkpt lat="42.05621259788563" lon="13.115506562895739"><ele>1007.75</ele><time>2026-04-12T14:00:17.999Z</time></trkpt><trkpt lat="42.05626455713243" lon="13.115369735759957"><ele>1004.5</ele><time>2026-04-12T14:00:18.999Z</time></trkpt><trkpt lat="42.05634576206435" lon="13.115241484196531"><ele>1001.25</ele><time>2026-04-12T14:00:19.999Z</time></trkpt><trkpt lat="42.05641640059219" lon="13.115111446267615"><ele>998.0</ele><time>2026-04-12T14:00:20.999Z</time></trkpt><trkpt lat="42.056492064367134" lon="13.115021463972935"><ele>998.0000000000001</ele><time>2026-04-12T14:00:21.999Z</time></trkpt><trkpt lat="42.056560586684455" lon="13.114944319759534"><ele>998.0</ele><time>2026-04-12T14:00:22.999Z</time></trkpt><trkpt lat="42.05661952158094" lon="13.114872214004732"><ele>998.0</ele><time>2026-04-12T14:00:23.999Z</time></trkpt><trkpt lat="42.056654643450926" lon="13.114720994002322"><ele>998.0</ele><time>2026-04-12T14:00:25.999Z</time></trkpt><trkpt lat="42.056618281903084" lon="13.114642751430782"><ele>998.0000000000001</ele><time>2026-04-12T14:00:26.999Z</time></trkpt><trkpt lat="42.05655703760975" lon="13.114592726136642"><ele>998.0</ele><time>2026-04-12T14:00:27.999Z</time></trkpt><trkpt lat="42.05645832168606" lon="13.11460480127565"><ele>998.0</ele><time>2026-04-12T14:00:28.999Z</time></trkpt><trkpt lat="42.05634421367216" lon="13.114688623143165"><ele>998.0</ele><time>2026-04-12T14:00:29.999Z</time></trkpt><trkpt lat="42.05624747105015" lon="13.114772426460458"><ele>998.0</ele><time>2026-04-12T14:00:30.999Z</time></trkpt><trkpt lat="42.05615274655303" lon="13.114890245049013"><ele>998.0</ele><time>2026-04-12T14:00:31.999Z</time></trkpt><trkpt lat="42.05605780081552" lon="13.11502363188861"><ele>998.0</ele><time>2026-04-12T14:00:32.999Z</time></trkpt><trkpt lat="42.055978952850886" lon="13.115150440476954"><ele>998.0</ele><time>2026-04-12T14:00:33.999Z</time></trkpt><trkpt lat="42.055915048707675" lon="13.115268233336321"><ele>998.0</ele><time>2026-04-12T14:00:34.999Z</time></trkpt><trkpt lat="42.05586069638362" lon="13.115367789993856"><ele>998.0</ele><time>2026-04-12T14:00:35.999Z</time></trkpt><trkpt lat="42.055806117212285" lon="13.115468896261678"><ele>998.0</ele><time>2026-04-12T14:00:36.999Z</time></trkpt><trkpt lat="42.05575033987408" lon="13.1155649646498"><ele>996.5999999999999</ele><time>2026-04-12T14:00:37.999Z</time></trkpt><trkpt lat="42.05568894465751" lon="13.115633629817493"><ele>995.1999999999999</ele><time>2026-04-12T14:00:38.999Z</time></trkpt><trkpt lat="42.05561226388289" lon="13.115674719585947"><ele>993.8</ele><time>2026-04-12T14:00:39.999Z</time></trkpt><trkpt lat="42.05550641128498" lon="13.115693551501284"><ele>992.4</ele><time>2026-04-12T14:00:40.999Z</time></trkpt><trkpt lat="42.055391196170994" lon="13.11573797266665"><ele>991.0</ele><time>2026-04-12T14:00:41.999Z</time></trkpt><trkpt lat="42.055279840880814" lon="13.115810255308714"><ele>991.0</ele><time>2026-04-12T14:00:42.999Z</time></trkpt><trkpt lat="42.055178716637386" lon="13.115916809835998"><ele>991.0</ele><time>2026-04-12T14:00:43.999Z</time></trkpt><trkpt lat="42.055083069301034" lon="13.116056732149273"><ele>991.0</ele><time>2026-04-12T14:00:44.999Z</time></trkpt><trkpt lat="42.05499078459606" lon="13.116201258125166"><ele>991.0</ele><time>2026-04-12T14:00:45.999Z</time></trkpt><trkpt lat="42.054925195853706" lon="13.11632344388808"><ele>992.4</ele><time>2026-04-12T14:00:46.999Z</time></trkpt><trkpt lat="42.054858789282655" lon="13.116429496432175"><ele>993.8</ele><time>2026-04-12T14:00:47.999Z</time></trkpt><trkpt lat="42.05478164491451" lon="13.11650547637906"><ele>995.1999999999999</ele><time>2026-04-12T14:00:48.998Z</time></trkpt><trkpt lat="42.05468453599691" lon="13.116524034922946"><ele>996.5999999999999</ele><time>2026-04-12T14:00:49.998Z</time></trkpt><trkpt lat="42.054571784194046" lon="13.116550186605645"><ele>998.0</ele><time>2026-04-12T14:00:50.998Z</time></trkpt><trkpt lat="42.05447630734606" lon="13.116608466555615"><ele>998.0000000000001</ele><time>2026-04-12T14:00:51.998Z</time></trkpt><trkpt lat="42.05441766011313" lon="13.116669323938174"><ele>998.0</ele><time>2026-04-12T14:00:52.998Z</time></trkpt><trkpt lat="42.05433473772086" lon="13.116714955317319"><ele>998.0</ele><time>2026-04-12T14:00:54.998Z</time></trkpt><trkpt lat="42.054298244328564" lon="13.11663041106124"><ele>998.0</ele><time>2026-04-12T14:00:56.998Z</time></trkpt><trkpt lat="42.054324872870225" lon="13.116492853452343"><ele>998.0000000000001</ele><time>2026-04-12T14:00:58.998Z</time></trkpt><trkpt lat="42.0543907643203" lon="13.116444840688446"><ele>998.0</ele><time>2026-04-12T14:00:59.998Z</time></trkpt><trkpt lat="42.0544744310144" lon="13.116425789330856"><ele>994.8</ele><time>2026-04-12T14:01:00.998Z</time></trkpt><trkpt lat="42.05457229424716" lon="13.116419905872613"><ele>991.5999999999999</ele><time>2026-04-12T14:01:01.998Z</time></trkpt><trkpt lat="42.05466616557625" lon="13.116392294223736"><ele>988.4000000000001</ele><time>2026-04-12T14:01:02.998Z</time></trkpt><trkpt lat="42.054758801067365" lon="13.116329117109554"><ele>985.2</ele><time>2026-04-12T14:01:03.998Z</time></trkpt><trkpt lat="42.05483029607602" lon="13.116215668382335"><ele>982.0</ele><time>2026-04-12T14:01:04.998Z</time></trkpt><trkpt lat="42.05488997409444" lon="13.116061090941848"><ele>982.0</ele><time>2026-04-12T14:01:05.998Z</time></trkpt><trkpt lat="42.05495083862293" lon="13.115890231569951"><ele>982.0</ele><time>2026-04-12T14:01:06.998Z</time></trkpt><trkpt lat="42.0550205123795" lon="13.115730213530142"><ele>982.0</ele><time>2026-04-12T14:01:07.998Z</time></trkpt><trkpt lat="42.05509762460404" lon="13.1155698772147"><ele>982.0</ele><time>2026-04-12T14:01:08.998Z</time></trkpt><trkpt lat="42.055185430367786" lon="13.11539413492724"><ele>978.3333333333333</ele><time>2026-04-12T14:01:09.998Z</time></trkpt><trkpt lat="42.055263660682655" lon="13.115202872850668"><ele>974.6666666666667</ele><time>2026-04-12T14:01:10.998Z</time></trkpt><trkpt lat="42.05532497685418" lon="13.115016550205555"><ele>971.0</ele><time>2026-04-12T14:01:11.998Z</time></trkpt><trkpt lat="42.05539236709571" lon="13.114841812456588"><ele>966.5</ele><time>2026-04-12T14:01:12.998Z</time></trkpt><trkpt lat="42.05546373014599" lon="13.114677227250738"><ele>962.0</ele><time>2026-04-12T14:01:13.998Z</time></trkpt><trkpt lat="42.05553146676835" lon="13.114523188060923"><ele>957.5</ele><time>2026-04-12T14:01:14.998Z</time></trkpt><trkpt lat="42.0555996572925" lon="13.114374113633477"><ele>953.0</ele><time>2026-04-12T14:01:15.998Z</time></trkpt><trkpt lat="42.055673673868284" lon="13.114228126294838"><ele>954.0</ele><time>2026-04-12T14:01:16.998Z</time></trkpt><trkpt lat="42.0557586345792" lon="13.114069639854046"><ele>955.0</ele><time>2026-04-12T14:01:17.998Z</time></trkpt><trkpt lat="42.05583528588674" lon="13.113924420911317"><ele>956.0</ele><time>2026-04-12T14:01:18.998Z</time></trkpt><trkpt lat="42.05591936158449" lon="13.113793035731627"><ele>957.0</ele><time>2026-04-12T14:01:19.998Z</time></trkpt><trkpt lat="42.05601657225693" lon="13.11367276108422"><ele>957.0</ele><time>2026-04-12T14:01:20.998Z</time></trkpt><trkpt lat="42.056113927189315" lon="13.113562096450513"><ele>957.0</ele><time>2026-04-12T14:01:21.998Z</time></trkpt><trkpt lat="42.05621911005395" lon="13.113456787387697"><ele>957.0</ele><time>2026-04-12T14:01:22.998Z</time></trkpt><trkpt lat="42.05634562407191" lon="13.113344113503873"><ele>957.0</ele><time>2026-04-12T14:01:23.998Z</time></trkpt><trkpt lat="42.05647831721395" lon="13.11321297892368"><ele>956.0</ele><time>2026-04-12T14:01:24.998Z</time></trkpt><trkpt lat="42.05659653305427" lon="13.113081462015364"><ele>955.0</ele><time>2026-04-12T14:01:25.998Z</time></trkpt><trkpt lat="42.05670940800674" lon="13.112966715344788"><ele>954.0</ele><time>2026-04-12T14:01:26.998Z</time></trkpt><trkpt lat="42.05682270083397" lon="13.112849448425116"><ele>953.0</ele><time>2026-04-12T14:01:27.998Z</time></trkpt><trkpt lat="42.05692285691396" lon="13.112729825895487"><ele>953.0</ele><time>2026-04-12T14:01:28.998Z</time></trkpt><trkpt lat="42.05702146474106" lon="13.112596583843953"><ele>953.0</ele><time>2026-04-12T14:01:29.998Z</time></trkpt><trkpt lat="42.05711893673481" lon="13.112453237783608"><ele>953.0</ele><time>2026-04-12T14:01:30.998Z</time></trkpt><trkpt lat="42.05720148486711" lon="13.112307522303226"><ele>953.0</ele><time>2026-04-12T14:01:31.998Z</time></trkpt><trkpt lat="42.05729193953573" lon="13.112163468841052"><ele>952.25</ele><time>2026-04-12T14:01:32.998Z</time></trkpt><trkpt lat="42.05738185882346" lon="13.112036516659687"><ele>951.5</ele><time>2026-04-12T14:01:33.998Z</time></trkpt><trkpt lat="42.05746800983059" lon="13.111892226338616"><ele>950.75</ele><time>2026-04-12T14:01:34.998Z</time></trkpt><trkpt lat="42.057540756466295" lon="13.111750306653567"><ele>950.0</ele><time>2026-04-12T14:01:35.997Z</time></trkpt><trkpt lat="42.057605118711955" lon="13.111618336387611"><ele>946.0</ele><time>2026-04-12T14:01:36.997Z</time></trkpt><trkpt lat="42.05766012623219" lon="13.111485127480789"><ele>942.0</ele><time>2026-04-12T14:01:37.997Z</time></trkpt><trkpt lat="42.05771387919904" lon="13.111334974435664"><ele>938.0</ele><time>2026-04-12T14:01:38.997Z</time></trkpt><trkpt lat="42.057774334545165" lon="13.111172483033545"><ele>934.0</ele><time>2026-04-12T14:01:39.997Z</time></trkpt><trkpt lat="42.057847370803294" lon="13.111020680275494"><ele>934.0</ele><time>2026-04-12T14:01:40.997Z</time></trkpt><trkpt lat="42.05793007265493" lon="13.110894126263439"><ele>934.0</ele><time>2026-04-12T14:01:41.997Z</time></trkpt><trkpt lat="42.05802521246103" lon="13.110783110052232"><ele>934.0</ele><time>2026-04-12T14:01:43Z</time></trkpt><trkpt lat="42.05813132989285" lon="13.110673460896933"><ele>934.0</ele><time>2026-04-12T14:01:44Z</time></trkpt><trkpt lat="42.05823489568286" lon="13.110571469559922"><ele>933.75</ele><time>2026-04-12T14:01:45Z</time></trkpt><trkpt lat="42.058329487718396" lon="13.11046435897294"><ele>933.5</ele><time>2026-04-12T14:01:46Z</time></trkpt><trkpt lat="42.05840936306829" lon="13.1103165084606"><ele>933.25</ele><time>2026-04-12T14:01:47Z</time></trkpt><trkpt lat="42.05847962106442" lon="13.11014618105272"><ele>933.0</ele><time>2026-04-12T14:01:48Z</time></trkpt><trkpt lat="42.05854146553501" lon="13.109991311530516"><ele>930.75</ele><time>2026-04-12T14:01:49Z</time></trkpt><trkpt lat="42.05859605659355" lon="13.109836645555125"><ele>928.5</ele><time>2026-04-12T14:01:50Z</time></trkpt><trkpt lat="42.058638185559886" lon="13.109672510838303"><ele>926.25</ele><time>2026-04-12T14:01:51Z</time></trkpt><trkpt lat="42.058666394939294" lon="13.109491558363354"><ele>924.0</ele><time>2026-04-12T14:01:52Z</time></trkpt><trkpt lat="42.0586929387359" lon="13.109336211183868"><ele>924.0</ele><time>2026-04-12T14:01:53Z</time></trkpt><trkpt lat="42.058727282832905" lon="13.109198747485838"><ele>924.0000000000001</ele><time>2026-04-12T14:01:54Z</time></trkpt><trkpt lat="42.05876154881205" lon="13.109078710771614"><ele>924.0000000000001</ele><time>2026-04-12T14:01:55Z</time></trkpt><trkpt lat="42.05879585357186" lon="13.108969741202928"><ele>924.0</ele><time>2026-04-12T14:01:56Z</time></trkpt><trkpt lat="42.05883208205955" lon="13.108874779064893"><ele>924.0</ele><time>2026-04-12T14:01:57Z</time></trkpt><trkpt lat="42.0588780747322" lon="13.108742553016594"><ele>921.8000000000001</ele><time>2026-04-12T14:01:59Z</time></trkpt><trkpt lat="42.05883265529034" lon="13.108637985589073"><ele>919.6000000000001</ele><time>2026-04-12T14:02:02Z</time></trkpt><trkpt lat="42.05869685395061" lon="13.10865042443722"><ele>917.4</ele><time>2026-04-12T14:02:04Z</time></trkpt><trkpt lat="42.058632736808" lon="13.108785204541547"><ele>915.2</ele><time>2026-04-12T14:02:05Z</time></trkpt><trkpt lat="42.05858399584786" lon="13.108867623568466"><ele>913.0</ele><time>2026-04-12T14:02:06Z</time></trkpt><trkpt lat="42.058532551613474" lon="13.10894674130825"><ele>913.0</ele><time>2026-04-12T14:02:07Z</time></trkpt><trkpt lat="42.05847069426296" lon="13.109023398086746"><ele>913.0</ele><time>2026-04-12T14:02:08Z</time></trkpt><trkpt lat="42.05839297826255" lon="13.109111522555109"><ele>913.0</ele><time>2026-04-12T14:02:08.999Z</time></trkpt><trkpt lat="42.05831620225306" lon="13.109195526431972"><ele>913.0</ele><time>2026-04-12T14:02:09.999Z</time></trkpt><trkpt lat="42.05823354193066" lon="13.109287104309256"><ele>913.0</ele><time>2026-04-12T14:02:10.999Z</time></trkpt><trkpt lat="42.05814945896745" lon="13.109382474519641"><ele>910.4</ele><time>2026-04-12T14:02:11.999Z</time></trkpt><trkpt lat="42.058080283058786" lon="13.109486381178117"><ele>907.8</ele><time>2026-04-12T14:02:12.999Z</time></trkpt><trkpt lat="42.05804160778506" lon="13.109625635231964"><ele>905.2</ele><time>2026-04-12T14:02:13.999Z</time></trkpt><trkpt lat="42.05803352512904" lon="13.10975130809525"><ele>902.6</ele><time>2026-04-12T14:02:14.999Z</time></trkpt><trkpt lat="42.0579816672744" lon="13.109852791998703"><ele>900.0</ele><time>2026-04-12T14:02:16.999Z</time></trkpt><trkpt lat="42.05792753163514" lon="13.109794700149713"><ele>900.0</ele><time>2026-04-12T14:02:18.999Z</time></trkpt><trkpt lat="42.05791454247355" lon="13.109710346109656"><ele>900.0</ele><time>2026-04-12T14:02:19.999Z</time></trkpt><trkpt lat="42.057941852584854" lon="13.109575590589813"><ele>900.0</ele><time>2026-04-12T14:02:20.999Z</time></trkpt><trkpt lat="42.05798298634461" lon="13.109431094883359"><ele>900.0</ele><time>2026-04-12T14:02:21.999Z</time></trkpt><trkpt lat="42.05801383174659" lon="13.109302073001425"><ele>900.0</ele><time>2026-04-12T14:02:22.999Z</time></trkpt><trkpt lat="42.058050612437675" lon="13.109174500995106"><ele>898.0</ele><time>2026-04-12T14:02:23.999Z</time></trkpt><trkpt lat="42.058081993360645" lon="13.10902134923493"><ele>896.0</ele><time>2026-04-12T14:02:24.999Z</time></trkpt><trkpt lat="42.058106615550315" lon="13.108854391108533"><ele>894.0</ele><time>2026-04-12T14:02:25.999Z</time></trkpt><trkpt lat="42.05813712607701" lon="13.108675842774037"><ele>892.0</ele><time>2026-04-12T14:02:26.999Z</time></trkpt><trkpt lat="42.058181603938706" lon="13.10848207503361"><ele>892.0</ele><time>2026-04-12T14:02:27.999Z</time></trkpt><trkpt lat="42.05822724902016" lon="13.108286841450822"><ele>892.0</ele><time>2026-04-12T14:02:28.999Z</time></trkpt><trkpt lat="42.05826754256604" lon="13.10811383452158"><ele>892.0</ele><time>2026-04-12T14:02:29.999Z</time></trkpt><trkpt lat="42.05830883841055" lon="13.107941913975667"><ele>892.0</ele><time>2026-04-12T14:02:30.999Z</time></trkpt><trkpt lat="42.05834981734288" lon="13.107781655954447"><ele>893.0</ele><time>2026-04-12T14:02:31.999Z</time></trkpt><trkpt lat="42.058391070006444" lon="13.107645900743229"><ele>894.0</ele><time>2026-04-12T14:02:32.999Z</time></trkpt><trkpt lat="42.05843777285952" lon="13.107511097656094"><ele>895.0</ele><time>2026-04-12T14:02:33.999Z</time></trkpt><trkpt lat="42.05848556642146" lon="13.107384265782752"><ele>896.0</ele><time>2026-04-12T14:02:34.999Z</time></trkpt><trkpt lat="42.05853036579601" lon="13.107242745522784"><ele>897.0</ele><time>2026-04-12T14:02:35.999Z</time></trkpt><trkpt lat="42.05856687837895" lon="13.107110917316891"><ele>897.0</ele><time>2026-04-12T14:02:36.999Z</time></trkpt><trkpt lat="42.05860012430978" lon="13.10698921176825"><ele>897.0</ele><time>2026-04-12T14:02:37.999Z</time></trkpt><trkpt lat="42.058639881257456" lon="13.106870333916113"><ele>897.0</ele><time>2026-04-12T14:02:38.999Z</time></trkpt><trkpt lat="42.05869569464587" lon="13.106753554323605"><ele>897.0</ele><time>2026-04-12T14:02:39.999Z</time></trkpt><trkpt lat="42.05876092902745" lon="13.106675296044548"><ele>897.0</ele><time>2026-04-12T14:02:40.999Z</time></trkpt><trkpt lat="42.05882967838286" lon="13.106640674040335"><ele>897.0</ele><time>2026-04-12T14:02:41.999Z</time></trkpt><trkpt lat="42.05888845096566" lon="13.106555785834699"><ele>897.0</ele><time>2026-04-12T14:02:43.999Z</time></trkpt><trkpt lat="42.05885524245264" lon="13.10648011329467"><ele>897.0</ele><time>2026-04-12T14:02:44.999Z</time></trkpt><trkpt lat="42.0587974667131" lon="13.106429430531037"><ele>897.0</ele><time>2026-04-12T14:02:45.999Z</time></trkpt><trkpt lat="42.058724134364766" lon="13.106397905681742"><ele>897.0</ele><time>2026-04-12T14:02:46.999Z</time></trkpt><trkpt lat="42.058622097317894" lon="13.106512722355662"><ele>897.0</ele><time>2026-04-12T14:02:47.999Z</time></trkpt><trkpt lat="42.05853778974242" lon="13.106615296948657"><ele>897.0</ele><time>2026-04-12T14:02:48.999Z</time></trkpt><trkpt lat="42.05846707061084" lon="13.106703521869102"><ele>897.0</ele><time>2026-04-12T14:02:49.999Z</time></trkpt><trkpt lat="42.05838829287151" lon="13.106800443116214"><ele>897.0</ele><time>2026-04-12T14:02:50.999Z</time></trkpt><trkpt lat="42.05829453343519" lon="13.106912127113572"><ele>897.0</ele><time>2026-04-12T14:02:51.999Z</time></trkpt><trkpt lat="42.058204832930564" lon="13.107017946413881"><ele>897.0</ele><time>2026-04-12T14:02:52.999Z</time></trkpt><trkpt lat="42.058113674971665" lon="13.107128655763706"><ele>894.6</ele><time>2026-04-12T14:02:53.999Z</time></trkpt><trkpt lat="42.058024407100675" lon="13.107245325996441"><ele>892.2</ele><time>2026-04-12T14:02:54.999Z</time></trkpt><trkpt lat="42.05795541070323" lon="13.107341962046686"><ele>889.8</ele><time>2026-04-12T14:02:55.999Z</time></trkpt><trkpt lat="42.057887472104994" lon="13.107432530740265"><ele>887.4</ele><time>2026-04-12T14:02:56.999Z</time></trkpt><trkpt lat="42.05781786333458" lon="13.107507541194227"><ele>885.0</ele><time>2026-04-12T14:02:57.998Z</time></trkpt><trkpt lat="42.05773575588202" lon="13.10759434296162"><ele>885.0</ele><time>2026-04-12T14:02:58.998Z</time></trkpt><trkpt lat="42.057664845550036" lon="13.107767808104136"><ele>885.0</ele><time>2026-04-12T14:02:59.998Z</time></trkpt><trkpt lat="42.05759281729967" lon="13.107901339441705"><ele>885.0</ele><time>2026-04-12T14:03:00.998Z</time></trkpt><trkpt lat="42.057526252374494" lon="13.108019090225444"><ele>885.0</ele><time>2026-04-12T14:03:01.998Z</time></trkpt><trkpt lat="42.057459878994365" lon="13.108133301019201"><ele>881.0</ele><time>2026-04-12T14:03:02.998Z</time></trkpt><trkpt lat="42.057388862833186" lon="13.108262392379512"><ele>877.0</ele><time>2026-04-12T14:03:03.998Z</time></trkpt><trkpt lat="42.057312918190874" lon="13.108404846534615"><ele>873.0</ele><time>2026-04-12T14:03:04.998Z</time></trkpt><trkpt lat="42.05724646308728" lon="13.108566009480338"><ele>869.0</ele><time>2026-04-12T14:03:05.998Z</time></trkpt><trkpt lat="42.057174684311754" lon="13.108691331982163"><ele>869.0</ele><time>2026-04-12T14:03:06.998Z</time></trkpt><trkpt lat="42.05710927605922" lon="13.10882564450257"><ele>869.0000000000001</ele><time>2026-04-12T14:03:07.998Z</time></trkpt><trkpt lat="42.057055977259054" lon="13.108949108110522"><ele>869.0000000000001</ele><time>2026-04-12T14:03:08.998Z</time></trkpt><trkpt lat="42.05699250950898" lon="13.109045640729576"><ele>869.0</ele><time>2026-04-12T14:03:09.998Z</time></trkpt><trkpt lat="42.05692277954348" lon="13.109130364373543"><ele>869.0</ele><time>2026-04-12T14:03:10.998Z</time></trkpt><trkpt lat="42.05682288387161" lon="13.109203679565782"><ele>869.6</ele><time>2026-04-12T14:03:11.998Z</time></trkpt><trkpt lat="42.0567102484197" lon="13.109257898035308"><ele>870.2</ele><time>2026-04-12T14:03:12.998Z</time></trkpt><trkpt lat="42.05661193505327" lon="13.109293059561356"><ele>870.8000000000001</ele><time>2026-04-12T14:03:13.998Z</time></trkpt><trkpt lat="42.056531188931295" lon="13.10933342156939"><ele>871.4000000000001</ele><time>2026-04-12T14:03:14.998Z</time></trkpt><trkpt lat="42.056446672510035" lon="13.109312199716248"><ele>872.0</ele><time>2026-04-12T14:03:15.998Z</time></trkpt><trkpt lat="42.05637027502387" lon="13.109242179789343"><ele>872.0</ele><time>2026-04-12T14:03:16.998Z</time></trkpt><trkpt lat="42.05627493037524" lon="13.109148711220227"><ele>872.0</ele><time>2026-04-12T14:03:17.998Z</time></trkpt><trkpt lat="42.056196271016354" lon="13.109041759760936"><ele>872.0</ele><time>2026-04-12T14:03:18.998Z</time></trkpt><trkpt lat="42.05611549034499" lon="13.10895432299683"><ele>872.0</ele><time>2026-04-12T14:03:19.998Z</time></trkpt><trkpt lat="42.05603842550183" lon="13.108896295172547"><ele>872.0</ele><time>2026-04-12T14:03:20.998Z</time></trkpt><trkpt lat="42.055941219526204" lon="13.1088798914633"><ele>870.8</ele><time>2026-04-12T14:03:21.998Z</time></trkpt><trkpt lat="42.05585149466073" lon="13.108920637614917"><ele>869.6</ele><time>2026-04-12T14:03:22.998Z</time></trkpt><trkpt lat="42.055777966543864" lon="13.109023411851114"><ele>868.3999999999999</ele><time>2026-04-12T14:03:23.998Z</time></trkpt><trkpt lat="42.05570811810271" lon="13.109145218091387"><ele>867.1999999999999</ele><time>2026-04-12T14:03:24.998Z</time></trkpt><trkpt lat="42.05564975193268" lon="13.109253262764996"><ele>866.0</ele><time>2026-04-12T14:03:25.998Z</time></trkpt><trkpt lat="42.05559769528736" lon="13.10933618295373"><ele>866.0</ele><time>2026-04-12T14:03:26.998Z</time></trkpt><trkpt lat="42.055531754636924" lon="13.109374776020564"><ele>865.9999999999999</ele><time>2026-04-12T14:03:28.998Z</time></trkpt><trkpt lat="42.05549252497905" lon="13.109233715027615"><ele>865.9999999999999</ele><time>2026-04-12T14:03:30.998Z</time></trkpt><trkpt lat="42.05552972372968" lon="13.109128419808881"><ele>866.0</ele><time>2026-04-12T14:03:31.998Z</time></trkpt><trkpt lat="42.055586895835496" lon="13.109024972922695"><ele>866.0</ele><time>2026-04-12T14:03:32.998Z</time></trkpt><trkpt lat="42.05564493694189" lon="13.108919545594008"><ele>865.1999999999999</ele><time>2026-04-12T14:03:33.998Z</time></trkpt><trkpt lat="42.05569030664818" lon="13.108794878590942"><ele>864.3999999999999</ele><time>2026-04-12T14:03:34.998Z</time></trkpt><trkpt lat="42.055751643843344" lon="13.108663011527938"><ele>863.6</ele><time>2026-04-12T14:03:35.998Z</time></trkpt><trkpt lat="42.055830741758186" lon="13.10856991224094"><ele>862.8</ele><time>2026-04-12T14:03:36.998Z</time></trkpt><trkpt lat="42.05592017137996" lon="13.108510946115324"><ele>862.0</ele><time>2026-04-12T14:03:37.998Z</time></trkpt><trkpt lat="42.056008874306315" lon="13.108481217947284"><ele>861.2</ele><time>2026-04-12T14:03:38.998Z</time></trkpt><trkpt lat="42.05610605584351" lon="13.10848525132098"><ele>860.4000000000001</ele><time>2026-04-12T14:03:39.998Z</time></trkpt><trkpt lat="42.05619183782067" lon="13.108438314804651"><ele>859.5999999999999</ele><time>2026-04-12T14:03:40.998Z</time></trkpt><trkpt lat="42.0562456047637" lon="13.108326594740303"><ele>858.8</ele><time>2026-04-12T14:03:41.998Z</time></trkpt><trkpt lat="42.05626574258987" lon="13.108177667295088"><ele>858.0</ele><time>2026-04-12T14:03:42.998Z</time></trkpt><trkpt lat="42.05625846194038" lon="13.108001000484219"><ele>853.25</ele><time>2026-04-12T14:03:43.998Z</time></trkpt><trkpt lat="42.056243319941316" lon="13.107821914545546"><ele>848.5</ele><time>2026-04-12T14:03:44.997Z</time></trkpt><trkpt lat="42.05624274638698" lon="13.107666786285382"><ele>843.75</ele><time>2026-04-12T14:03:45.997Z</time></trkpt><trkpt lat="42.056259844476216" lon="13.10752329397713"><ele>839.0</ele><time>2026-04-12T14:03:46.997Z</time></trkpt><trkpt lat="42.05631894514474" lon="13.107398758730042"><ele>835.5</ele><time>2026-04-12T14:03:47.997Z</time></trkpt><trkpt lat="42.056405103286394" lon="13.107274637366382"><ele>832.0</ele><time>2026-04-12T14:03:49Z</time></trkpt><trkpt lat="42.05648887607139" lon="13.107134942485827"><ele>828.5</ele><time>2026-04-12T14:03:50Z</time></trkpt><trkpt lat="42.05654514651763" lon="13.106967763082336"><ele>825.0</ele><time>2026-04-12T14:03:51Z</time></trkpt><trkpt lat="42.05656528980525" lon="13.106779473809734"><ele>825.0</ele><time>2026-04-12T14:03:52Z</time></trkpt><trkpt lat="42.05660182096875" lon="13.106596510238537"><ele>825.0</ele><time>2026-04-12T14:03:53Z</time></trkpt><trkpt lat="42.0566318179008" lon="13.106432325888957"><ele>825.0</ele><time>2026-04-12T14:03:54Z</time></trkpt><trkpt lat="42.056664247650055" lon="13.106262374997094"><ele>825.0</ele><time>2026-04-12T14:03:55Z</time></trkpt><trkpt lat="42.05670181899759" lon="13.106105815447355"><ele>822.75</ele><time>2026-04-12T14:03:56Z</time></trkpt><trkpt lat="42.0567411600726" lon="13.105945181748318"><ele>820.5</ele><time>2026-04-12T14:03:57Z</time></trkpt><trkpt lat="42.05679547423518" lon="13.105775231455139"><ele>818.25</ele><time>2026-04-12T14:03:58Z</time></trkpt><trkpt lat="42.056858883074256" lon="13.105626340497677"><ele>816.0</ele><time>2026-04-12T14:03:59Z</time></trkpt><trkpt lat="42.05692943643021" lon="13.105467648411363"><ele>816.0</ele><time>2026-04-12T14:04:00Z</time></trkpt><trkpt lat="42.05699596363336" lon="13.105307186045824"><ele>816.0</ele><time>2026-04-12T14:04:01Z</time></trkpt><trkpt lat="42.05706722404982" lon="13.10517352147691"><ele>816.0</ele><time>2026-04-12T14:04:02Z</time></trkpt><trkpt lat="42.0571484080922" lon="13.105072302243277"><ele>816.0</ele><time>2026-04-12T14:04:03Z</time></trkpt><trkpt lat="42.05723694061969" lon="13.104968857386284"><ele>818.25</ele><time>2026-04-12T14:04:04Z</time></trkpt><trkpt lat="42.05735025601436" lon="13.104866258972377"><ele>820.5</ele><time>2026-04-12T14:04:05Z</time></trkpt><trkpt lat="42.05749259755658" lon="13.10475721183026"><ele>822.75</ele><time>2026-04-12T14:04:06Z</time></trkpt><trkpt lat="42.057601896503535" lon="13.104629069516493"><ele>825.0</ele><time>2026-04-12T14:04:07Z</time></trkpt><trkpt lat="42.057696243026705" lon="13.104507287067362"><ele>825.0</ele><time>2026-04-12T14:04:08Z</time></trkpt><trkpt lat="42.05778803859918" lon="13.104385376197152"><ele>825.0</ele><time>2026-04-12T14:04:09Z</time></trkpt><trkpt lat="42.05786946012006" lon="13.104259972233544"><ele>825.0</ele><time>2026-04-12T14:04:10Z</time></trkpt><trkpt lat="42.05795021131849" lon="13.104153094101363"><ele>825.0</ele><time>2026-04-12T14:04:11Z</time></trkpt><trkpt lat="42.05803546535466" lon="13.1040633531545"><ele>822.0</ele><time>2026-04-12T14:04:12Z</time></trkpt><trkpt lat="42.058110341677796" lon="13.103979021315727"><ele>819.0</ele><time>2026-04-12T14:04:12.999Z</time></trkpt><trkpt lat="42.058171604824274" lon="13.103897049138714"><ele>816.0</ele><time>2026-04-12T14:04:13.999Z</time></trkpt><trkpt lat="42.05820956957214" lon="13.103818518224061"><ele>813.0</ele><time>2026-04-12T14:04:14.999Z</time></trkpt><trkpt lat="42.05821200547504" lon="13.103730086148541"><ele>810.0</ele><time>2026-04-12T14:04:15.999Z</time></trkpt><trkpt lat="42.05820318718808" lon="13.103637830648873"><ele>807.0</ele><time>2026-04-12T14:04:17.999Z</time></trkpt><trkpt lat="42.0581687397266" lon="13.103535549616236"><ele>807.0</ele><time>2026-04-12T14:04:20.999Z</time></trkpt><trkpt lat="42.058141201971814" lon="13.103422749806558"><ele>807.0</ele><time>2026-04-12T14:04:22.999Z</time></trkpt><trkpt lat="42.05833352510899" lon="13.103419638735401"><ele>831.0</ele><time>2026-04-12T14:04:23.999Z</time></trkpt><trkpt lat="42.05838009422624" lon="13.10334883345306"><ele>831.0</ele><time>2026-04-12T14:04:25.999Z</time></trkpt></trkseg></trk></gpx>